<?xml version='1.0' encoding='UTF-8'?><gpx version="1.1" creator="JPX - https://github.com/jenetics/jpx" xmlns="http://www.topografix.com/GPX/1/1"><trk><trkseg><trkpt lat="44.2824683" lon="8.4334367"><ele>7.999999999999999</ele><time>2026-05-03T08:01:09.994Z</time></trkpt><trkpt lat="44.2825517" lon="8.43337"><ele>8.0</ele><time>2026-05-03T08:01:11.995Z</time></trkpt><trkpt lat="44.2826117" lon="8.4333233"><ele>8.0</ele><time>2026-05-03T08:01:13.994Z</time></trkpt><trkpt lat="44.282615" lon="8.4332217"><ele>8.0</ele><time>2026-05-03T08:01:16.994Z</time></trkpt><trkpt lat="44.28255" lon="8.4331333"><ele>7.999999999999999</ele><time>2026-05-03T08:01:18.995Z</time></trkpt><trkpt lat="44.2824617" lon="8.4330233"><ele>8.0</ele><time>2026-05-03T08:01:20.995Z</time></trkpt><trkpt lat="44.2824083" lon="8.4329567"><ele>7.800000000000001</ele><time>2026-05-03T08:01:21.994Z</time></trkpt><trkpt lat="44.28236" lon="8.4328867"><ele>7.6000000000000005</ele><time>2026-05-03T08:01:22.994Z</time></trkpt><trkpt lat="44.28232" lon="8.4328"><ele>7.3999999999999995</ele><time>2026-05-03T08:01:23.994Z</time></trkpt><trkpt lat="44.2823083" lon="8.432665"><ele>7.199999999999999</ele><time>2026-05-03T08:01:25.994Z</time></trkpt><trkpt lat="44.2823533" lon="8.43256"><ele>7.0</ele><time>2026-05-03T08:01:27.994Z</time></trkpt><trkpt lat="44.2824617" lon="8.4324617"><ele>7.000000000000001</ele><time>2026-05-03T08:01:29.994Z</time></trkpt><trkpt lat="44.2825333" lon="8.4324133"><ele>7.0</ele><time>2026-05-03T08:01:30.994Z</time></trkpt><trkpt lat="44.28261" lon="8.432355"><ele>7.0</ele><time>2026-05-03T08:01:31.995Z</time></trkpt><trkpt lat="44.2826933" lon="8.4322983"><ele>7.0</ele><time>2026-05-03T08:01:32.995Z</time></trkpt><trkpt lat="44.2827717" lon="8.432245"><ele>7.000000000000001</ele><time>2026-05-03T08:01:33.994Z</time></trkpt><trkpt lat="44.2828533" lon="8.4321933"><ele>7.0</ele><time>2026-05-03T08:01:34.994Z</time></trkpt><trkpt lat="44.2829367" lon="8.4321317"><ele>7.0</ele><time>2026-05-03T08:01:35.994Z</time></trkpt><trkpt lat="44.2830267" lon="8.4320683"><ele>6.999999999999999</ele><time>2026-05-03T08:01:36.994Z</time></trkpt><trkpt lat="44.2831183" lon="8.432"><ele>6.999999999999999</ele><time>2026-05-03T08:01:37.995Z</time></trkpt><trkpt lat="44.283215" lon="8.4319317"><ele>7.0</ele><time>2026-05-03T08:01:38.995Z</time></trkpt><trkpt lat="44.2833183" lon="8.431855"><ele>7.0</ele><time>2026-05-03T08:01:39.994Z</time></trkpt><trkpt lat="44.283425" lon="8.4317567"><ele>7.0</ele><time>2026-05-03T08:01:40.995Z</time></trkpt><trkpt lat="44.283515" lon="8.43167"><ele>7.0</ele><time>2026-05-03T08:01:41.994Z</time></trkpt><trkpt lat="44.28361" lon="8.4315733"><ele>7.0</ele><time>2026-05-03T08:01:42.994Z</time></trkpt><trkpt lat="44.2836967" lon="8.4314667"><ele>7.0</ele><time>2026-05-03T08:01:43.995Z</time></trkpt><trkpt lat="44.2837833" lon="8.4313583"><ele>7.199999999999999</ele><time>2026-05-03T08:01:44.994Z</time></trkpt><trkpt lat="44.283855" lon="8.431245"><ele>7.3999999999999995</ele><time>2026-05-03T08:01:45.994Z</time></trkpt><trkpt lat="44.2839183" lon="8.431135"><ele>7.6000000000000005</ele><time>2026-05-03T08:01:46.994Z</time></trkpt><trkpt lat="44.2839833" lon="8.4310383"><ele>7.800000000000001</ele><time>2026-05-03T08:01:47.995Z</time></trkpt><trkpt lat="44.2840417" lon="8.4309383"><ele>8.0</ele><time>2026-05-03T08:01:48.994Z</time></trkpt><trkpt lat="44.2840967" lon="8.43084"><ele>8.333333333333332</ele><time>2026-05-03T08:01:49.995Z</time></trkpt><trkpt lat="44.28415" lon="8.43075"><ele>8.666666666666666</ele><time>2026-05-03T08:01:50.995Z</time></trkpt><trkpt lat="44.2841867" lon="8.43067"><ele>9.0</ele><time>2026-05-03T08:01:51.994Z</time></trkpt><trkpt lat="44.2842483" lon="8.4305733"><ele>9.333333333333334</ele><time>2026-05-03T08:01:53.994Z</time></trkpt><trkpt lat="44.28432" lon="8.4305217"><ele>9.666666666666668</ele><time>2026-05-03T08:01:55.994Z</time></trkpt><trkpt lat="44.28439" lon="8.4305533"><ele>10.0</ele><time>2026-05-03T08:01:57.994Z</time></trkpt><trkpt lat="44.28444" lon="8.4306167"><ele>10.0</ele><time>2026-05-03T08:01:58.995Z</time></trkpt><trkpt lat="44.284505" lon="8.4307267"><ele>10.0</ele><time>2026-05-03T08:01:59.994Z</time></trkpt><trkpt lat="44.2846067" lon="8.4308017"><ele>10.0</ele><time>2026-05-03T08:02:00.995Z</time></trkpt><trkpt lat="44.2846767" lon="8.4308983"><ele>10.0</ele><time>2026-05-03T08:02:01.994Z</time></trkpt><trkpt lat="44.2847383" lon="8.431"><ele>10.0</ele><time>2026-05-03T08:02:02.995Z</time></trkpt><trkpt lat="44.2848017" lon="8.431105"><ele>9.6</ele><time>2026-05-03T08:02:03.995Z</time></trkpt><trkpt lat="44.2848667" lon="8.431215"><ele>9.2</ele><time>2026-05-03T08:02:04.995Z</time></trkpt><trkpt lat="44.2849367" lon="8.4313183"><ele>8.8</ele><time>2026-05-03T08:02:05.994Z</time></trkpt><trkpt lat="44.2850117" lon="8.43143"><ele>8.4</ele><time>2026-05-03T08:02:06.994Z</time></trkpt><trkpt lat="44.285085" lon="8.431545"><ele>8.0</ele><time>2026-05-03T08:02:07.994Z</time></trkpt><trkpt lat="44.285165" lon="8.4316617"><ele>7.75</ele><time>2026-05-03T08:02:08.994Z</time></trkpt><trkpt lat="44.2852467" lon="8.43178"><ele>7.5</ele><time>2026-05-03T08:02:09.995Z</time></trkpt><trkpt lat="44.2853217" lon="8.4319067"><ele>7.25</ele><time>2026-05-03T08:02:10.995Z</time></trkpt><trkpt lat="44.2854" lon="8.4320333"><ele>7.0</ele><time>2026-05-03T08:02:11.994Z</time></trkpt><trkpt lat="44.285475" lon="8.43216"><ele>7.199999999999999</ele><time>2026-05-03T08:02:12.994Z</time></trkpt><trkpt lat="44.2855583" lon="8.4322817"><ele>7.3999999999999995</ele><time>2026-05-03T08:02:13.994Z</time></trkpt><trkpt lat="44.2856317" lon="8.4324067"><ele>7.6000000000000005</ele><time>2026-05-03T08:02:14.995Z</time></trkpt><trkpt lat="44.2857017" lon="8.4325217"><ele>7.800000000000001</ele><time>2026-05-03T08:02:15.994Z</time></trkpt><trkpt lat="44.2857633" lon="8.4326317"><ele>8.0</ele><time>2026-05-03T08:02:16.994Z</time></trkpt><trkpt lat="44.28582" lon="8.4327333"><ele>8.0</ele><time>2026-05-03T08:02:17.995Z</time></trkpt><trkpt lat="44.2858667" lon="8.4328267"><ele>8.0</ele><time>2026-05-03T08:02:18.994Z</time></trkpt><trkpt lat="44.2859067" lon="8.4329117"><ele>8.0</ele><time>2026-05-03T08:02:19.995Z</time></trkpt><trkpt lat="44.2859633" lon="8.4330333"><ele>8.0</ele><time>2026-05-03T08:02:21.994Z</time></trkpt><trkpt lat="44.28597" lon="8.43315"><ele>8.0</ele><time>2026-05-03T08:02:23.995Z</time></trkpt><trkpt lat="44.28589" lon="8.4332867"><ele>8.0</ele><time>2026-05-03T08:02:25.994Z</time></trkpt><trkpt lat="44.28581" lon="8.4333717"><ele>8.0</ele><time>2026-05-03T08:02:26.994Z</time></trkpt><trkpt lat="44.285725" lon="8.4334533"><ele>8.0</ele><time>2026-05-03T08:02:27.995Z</time></trkpt><trkpt lat="44.2856367" lon="8.43354"><ele>8.0</ele><time>2026-05-03T08:02:28.995Z</time></trkpt><trkpt lat="44.285545" lon="8.4336283"><ele>8.0</ele><time>2026-05-03T08:02:29.994Z</time></trkpt><trkpt lat="44.2854467" lon="8.4337233"><ele>8.25</ele><time>2026-05-03T08:02:30.995Z</time></trkpt><trkpt lat="44.285355" lon="8.4338217"><ele>8.5</ele><time>2026-05-03T08:02:31.994Z</time></trkpt><trkpt lat="44.28527" lon="8.4339217"><ele>8.75</ele><time>2026-05-03T08:02:32.995Z</time></trkpt><trkpt lat="44.2851783" lon="8.4340233"><ele>9.0</ele><time>2026-05-03T08:02:33.995Z</time></trkpt><trkpt lat="44.285085" lon="8.4341367"><ele>9.0</ele><time>2026-05-03T08:02:34.995Z</time></trkpt><trkpt lat="44.285005" lon="8.4342467"><ele>9.0</ele><time>2026-05-03T08:02:35.995Z</time></trkpt><trkpt lat="44.2849267" lon="8.434345"><ele>9.0</ele><time>2026-05-03T08:02:36.995Z</time></trkpt><trkpt lat="44.2848683" lon="8.434465"><ele>9.0</ele><time>2026-05-03T08:02:37.994Z</time></trkpt><trkpt lat="44.2848167" lon="8.4345683"><ele>9.0</ele><time>2026-05-03T08:02:38.994Z</time></trkpt><trkpt lat="44.2847633" lon="8.43468"><ele>8.2</ele><time>2026-05-03T08:02:39.995Z</time></trkpt><trkpt lat="44.2847233" lon="8.434775"><ele>7.4</ele><time>2026-05-03T08:02:40.994Z</time></trkpt><trkpt lat="44.2846867" lon="8.4348717"><ele>6.6</ele><time>2026-05-03T08:02:41.994Z</time></trkpt><trkpt lat="44.28465" lon="8.4349583"><ele>5.8</ele><time>2026-05-03T08:02:42.994Z</time></trkpt><trkpt lat="44.284585" lon="8.4351033"><ele>5.0</ele><time>2026-05-03T08:02:44.994Z</time></trkpt><trkpt lat="44.2845367" lon="8.4352267"><ele>5.0</ele><time>2026-05-03T08:02:46.995Z</time></trkpt><trkpt lat="44.2845867" lon="8.4353417"><ele>5.0</ele><time>2026-05-03T08:02:48.994Z</time></trkpt><trkpt lat="44.28471" lon="8.4353967"><ele>5.0</ele><time>2026-05-03T08:02:50.995Z</time></trkpt><trkpt lat="44.284785" lon="8.435435"><ele>5.0</ele><time>2026-05-03T08:02:51.994Z</time></trkpt><trkpt lat="44.2848617" lon="8.435485"><ele>5.0</ele><time>2026-05-03T08:02:52.994Z</time></trkpt><trkpt lat="44.284945" lon="8.4355517"><ele>5.8</ele><time>2026-05-03T08:02:53.994Z</time></trkpt><trkpt lat="44.2850317" lon="8.4356283"><ele>6.6</ele><time>2026-05-03T08:02:54.994Z</time></trkpt><trkpt lat="44.2851167" lon="8.4357033"><ele>7.4</ele><time>2026-05-03T08:02:55.994Z</time></trkpt><trkpt lat="44.2852" lon="8.4357867"><ele>8.2</ele><time>2026-05-03T08:02:56.994Z</time></trkpt><trkpt lat="44.2852867" lon="8.4358667"><ele>9.0</ele><time>2026-05-03T08:02:57.995Z</time></trkpt><trkpt lat="44.2853783" lon="8.4359433"><ele>9.0</ele><time>2026-05-03T08:02:58.995Z</time></trkpt><trkpt lat="44.2854783" lon="8.4360283"><ele>9.0</ele><time>2026-05-03T08:02:59.994Z</time></trkpt><trkpt lat="44.2855767" lon="8.43612"><ele>9.0</ele><time>2026-05-03T08:03:00.994Z</time></trkpt><trkpt lat="44.2856683" lon="8.43621"><ele>9.0</ele><time>2026-05-03T08:03:01.994Z</time></trkpt><trkpt lat="44.2857667" lon="8.4363067"><ele>9.5</ele><time>2026-05-03T08:03:02.994Z</time></trkpt><trkpt lat="44.2858567" lon="8.4364117"><ele>10.0</ele><time>2026-05-03T08:03:03.995Z</time></trkpt><trkpt lat="44.2859433" lon="8.43652"><ele>10.5</ele><time>2026-05-03T08:03:04.994Z</time></trkpt><trkpt lat="44.2860333" lon="8.4366283"><ele>11.0</ele><time>2026-05-03T08:03:05.994Z</time></trkpt><trkpt lat="44.2861133" lon="8.436735"><ele>11.0</ele><time>2026-05-03T08:03:06.994Z</time></trkpt><trkpt lat="44.2861917" lon="8.4368383"><ele>11.0</ele><time>2026-05-03T08:03:07.995Z</time></trkpt><trkpt lat="44.286265" lon="8.4369483"><ele>11.0</ele><time>2026-05-03T08:03:08.994Z</time></trkpt><trkpt lat="44.2863433" lon="8.4370583"><ele>11.0</ele><time>2026-05-03T08:03:09.995Z</time></trkpt><trkpt lat="44.2864167" lon="8.4371883"><ele>11.0</ele><time>2026-05-03T08:03:10.995Z</time></trkpt><trkpt lat="44.2864967" lon="8.4373183"><ele>12.0</ele><time>2026-05-03T08:03:11.994Z</time></trkpt><trkpt lat="44.28658" lon="8.4374433"><ele>13.0</ele><time>2026-05-03T08:03:12.995Z</time></trkpt><trkpt lat="44.2866567" lon="8.4375583"><ele>14.000000000000002</ele><time>2026-05-03T08:03:13.994Z</time></trkpt><trkpt lat="44.286725" lon="8.4376717"><ele>15.0</ele><time>2026-05-03T08:03:14.994Z</time></trkpt><trkpt lat="44.2867933" lon="8.4377733"><ele>16.0</ele><time>2026-05-03T08:03:15.995Z</time></trkpt><trkpt lat="44.2868583" lon="8.4378833"><ele>15.8</ele><time>2026-05-03T08:03:16.994Z</time></trkpt><trkpt lat="44.286915" lon="8.43799"><ele>15.600000000000001</ele><time>2026-05-03T08:03:17.995Z</time></trkpt><trkpt lat="44.28697" lon="8.4381067"><ele>15.4</ele><time>2026-05-03T08:03:18.994Z</time></trkpt><trkpt lat="44.28702" lon="8.4382217"><ele>15.2</ele><time>2026-05-03T08:03:19.995Z</time></trkpt><trkpt lat="44.2870633" lon="8.4383517"><ele>15.0</ele><time>2026-05-03T08:03:20.995Z</time></trkpt><trkpt lat="44.2871083" lon="8.43848"><ele>15.0</ele><time>2026-05-03T08:03:21.994Z</time></trkpt><trkpt lat="44.2871517" lon="8.4386033"><ele>15.0</ele><time>2026-05-03T08:03:22.994Z</time></trkpt><trkpt lat="44.2871967" lon="8.4387283"><ele>15.0</ele><time>2026-05-03T08:03:23.994Z</time></trkpt><trkpt lat="44.28724" lon="8.438865"><ele>15.0</ele><time>2026-05-03T08:03:24.995Z</time></trkpt><trkpt lat="44.2872817" lon="8.4390017"><ele>15.0</ele><time>2026-05-03T08:03:25.994Z</time></trkpt><trkpt lat="44.287305" lon="8.4391483"><ele>16.4</ele><time>2026-05-03T08:03:26.995Z</time></trkpt><trkpt lat="44.2873417" lon="8.4392833"><ele>17.8</ele><time>2026-05-03T08:03:27.994Z</time></trkpt><trkpt lat="44.2873867" lon="8.4394117"><ele>19.200000000000003</ele><time>2026-05-03T08:03:28.995Z</time></trkpt><trkpt lat="44.28746" lon="8.4395367"><ele>20.6</ele><time>2026-05-03T08:03:29.995Z</time></trkpt><trkpt lat="44.2875283" lon="8.4396617"><ele>22.0</ele><time>2026-05-03T08:03:30.995Z</time></trkpt><trkpt lat="44.2875867" lon="8.4397983"><ele>22.0</ele><time>2026-05-03T08:03:31.994Z</time></trkpt><trkpt lat="44.2876467" lon="8.43993"><ele>22.0</ele><time>2026-05-03T08:03:32.995Z</time></trkpt><trkpt lat="44.2877133" lon="8.4400667"><ele>22.0</ele><time>2026-05-03T08:03:33.995Z</time></trkpt><trkpt lat="44.2877667" lon="8.440205"><ele>22.0</ele><time>2026-05-03T08:03:34.994Z</time></trkpt><trkpt lat="44.2878117" lon="8.4403483"><ele>22.200000000000003</ele><time>2026-05-03T08:03:35.995Z</time></trkpt><trkpt lat="44.287855" lon="8.4404833"><ele>22.4</ele><time>2026-05-03T08:03:36.995Z</time></trkpt><trkpt lat="44.2879" lon="8.4406233"><ele>22.6</ele><time>2026-05-03T08:03:37.995Z</time></trkpt><trkpt lat="44.2879567" lon="8.4407567"><ele>22.799999999999997</ele><time>2026-05-03T08:03:38.994Z</time></trkpt><trkpt lat="44.28801" lon="8.4408967"><ele>23.0</ele><time>2026-05-03T08:03:39.994Z</time></trkpt><trkpt lat="44.2880483" lon="8.441055"><ele>23.0</ele><time>2026-05-03T08:03:40.995Z</time></trkpt><trkpt lat="44.288095" lon="8.441205"><ele>23.0</ele><time>2026-05-03T08:03:41.995Z</time></trkpt><trkpt lat="44.2881483" lon="8.4413583"><ele>23.0</ele><time>2026-05-03T08:03:42.994Z</time></trkpt><trkpt lat="44.2881983" lon="8.4415083"><ele>23.0</ele><time>2026-05-03T08:03:43.994Z</time></trkpt><trkpt lat="44.2882467" lon="8.44164"><ele>23.2</ele><time>2026-05-03T08:03:44.994Z</time></trkpt><trkpt lat="44.2882933" lon="8.44177"><ele>23.4</ele><time>2026-05-03T08:03:45.995Z</time></trkpt><trkpt lat="44.2883383" lon="8.441905"><ele>23.599999999999998</ele><time>2026-05-03T08:03:46.995Z</time></trkpt><trkpt lat="44.2883874" lon="8.4420475"><ele>23.799999999999997</ele><time>2026-05-03T08:03:47.994Z</time></trkpt><trkpt lat="44.2884331" lon="8.4421885"><ele>24.0</ele><time>2026-05-03T08:03:48.994Z</time></trkpt><trkpt lat="44.2884712" lon="8.4423287"><ele>24.0</ele><time>2026-05-03T08:03:49.995Z</time></trkpt><trkpt lat="44.2884954" lon="8.4424677"><ele>24.0</ele><time>2026-05-03T08:03:50.995Z</time></trkpt><trkpt lat="44.2884991" lon="8.4426079"><ele>24.0</ele><time>2026-05-03T08:03:51.995Z</time></trkpt><trkpt lat="44.2884858" lon="8.4427395"><ele>24.0</ele><time>2026-05-03T08:03:52.994Z</time></trkpt><trkpt lat="44.2884567" lon="8.4428744"><ele>24.0</ele><time>2026-05-03T08:03:53.994Z</time></trkpt><trkpt lat="44.2884155" lon="8.443015"><ele>25.0</ele><time>2026-05-03T08:03:54.994Z</time></trkpt><trkpt lat="44.2883747" lon="8.4431597"><ele>26.0</ele><time>2026-05-03T08:03:55.994Z</time></trkpt><trkpt lat="44.2883336" lon="8.4433219"><ele>27.0</ele><time>2026-05-03T08:03:56.994Z</time></trkpt><trkpt lat="44.2882893" lon="8.4434909"><ele>28.0</ele><time>2026-05-03T08:03:57.994Z</time></trkpt><trkpt lat="44.2882328" lon="8.4436604"><ele>27.5</ele><time>2026-05-03T08:03:58.995Z</time></trkpt><trkpt lat="44.288172" lon="8.4438154"><ele>27.0</ele><time>2026-05-03T08:03:59.994Z</time></trkpt><trkpt lat="44.2881067" lon="8.4439661"><ele>26.5</ele><time>2026-05-03T08:04:00.994Z</time></trkpt><trkpt lat="44.2880399" lon="8.4441086"><ele>26.0</ele><time>2026-05-03T08:04:01.995Z</time></trkpt><trkpt lat="44.2879697" lon="8.444246"><ele>26.0</ele><time>2026-05-03T08:04:02.995Z</time></trkpt><trkpt lat="44.2879041" lon="8.4443771"><ele>26.0</ele><time>2026-05-03T08:04:03.994Z</time></trkpt><trkpt lat="44.2878344" lon="8.4445009"><ele>26.0</ele><time>2026-05-03T08:04:04.995Z</time></trkpt><trkpt lat="44.2877748" lon="8.4446124"><ele>26.0</ele><time>2026-05-03T08:04:05.994Z</time></trkpt><trkpt lat="44.2877262" lon="8.4447156"><ele>26.0</ele><time>2026-05-03T08:04:06.994Z</time></trkpt><trkpt lat="44.2876846" lon="8.4448072"><ele>25.666666666666664</ele><time>2026-05-03T08:04:07.995Z</time></trkpt><trkpt lat="44.2876589" lon="8.4449021"><ele>25.333333333333332</ele><time>2026-05-03T08:04:08.995Z</time></trkpt><trkpt lat="44.2876562" lon="8.4449994"><ele>25.0</ele><time>2026-05-03T08:04:09.994Z</time></trkpt><trkpt lat="44.287664" lon="8.4451007"><ele>24.666666666666664</ele><time>2026-05-03T08:04:10.995Z</time></trkpt><trkpt lat="44.2876713" lon="8.4452137"><ele>24.333333333333332</ele><time>2026-05-03T08:04:11.994Z</time></trkpt><trkpt lat="44.2876768" lon="8.4453546"><ele>24.0</ele><time>2026-05-03T08:04:12.994Z</time></trkpt><trkpt lat="44.2876659" lon="8.445485"><ele>23.666666666666668</ele><time>2026-05-03T08:04:13.994Z</time></trkpt><trkpt lat="44.2876589" lon="8.4456062"><ele>23.333333333333332</ele><time>2026-05-03T08:04:14.994Z</time></trkpt><trkpt lat="44.287656" lon="8.4457281"><ele>23.0</ele><time>2026-05-03T08:04:15.995Z</time></trkpt><trkpt lat="44.287651" lon="8.4458501"><ele>22.666666666666664</ele><time>2026-05-03T08:04:16.994Z</time></trkpt><trkpt lat="44.2876566" lon="8.4459639"><ele>22.333333333333332</ele><time>2026-05-03T08:04:17.994Z</time></trkpt><trkpt lat="44.2876782" lon="8.4460598"><ele>22.0</ele><time>2026-05-03T08:04:18.994Z</time></trkpt><trkpt lat="44.287785" lon="8.4461447"><ele>22.0</ele><time>2026-05-03T08:04:20.994Z</time></trkpt><trkpt lat="44.2878613" lon="8.4461364"><ele>22.0</ele><time>2026-05-03T08:04:21.994Z</time></trkpt><trkpt lat="44.2879436" lon="8.4460979"><ele>22.0</ele><time>2026-05-03T08:04:22.995Z</time></trkpt><trkpt lat="44.2880216" lon="8.4460136"><ele>22.0</ele><time>2026-05-03T08:04:23.995Z</time></trkpt><trkpt lat="44.2880931" lon="8.4459211"><ele>22.0</ele><time>2026-05-03T08:04:24.995Z</time></trkpt><trkpt lat="44.2881655" lon="8.4458614"><ele>22.0</ele><time>2026-05-03T08:04:25.994Z</time></trkpt><trkpt lat="44.288239" lon="8.4458297"><ele>23.833333333333332</ele><time>2026-05-03T08:04:26.995Z</time></trkpt><trkpt lat="44.2883229" lon="8.4458218"><ele>25.666666666666664</ele><time>2026-05-03T08:04:27.994Z</time></trkpt><trkpt lat="44.288414" lon="8.4458177"><ele>27.5</ele><time>2026-05-03T08:04:28.994Z</time></trkpt><trkpt lat="44.2885046" lon="8.4458015"><ele>29.333333333333332</ele><time>2026-05-03T08:04:29.994Z</time></trkpt><trkpt lat="44.288592" lon="8.4457646"><ele>31.166666666666668</ele><time>2026-05-03T08:04:30.995Z</time></trkpt><trkpt lat="44.2886749" lon="8.4457139"><ele>33.0</ele><time>2026-05-03T08:04:31.994Z</time></trkpt><trkpt lat="44.2887493" lon="8.4456511"><ele>33.0</ele><time>2026-05-03T08:04:32.995Z</time></trkpt><trkpt lat="44.2888193" lon="8.4455725"><ele>33.0</ele><time>2026-05-03T08:04:33.995Z</time></trkpt><trkpt lat="44.288896" lon="8.4454981"><ele>33.0</ele><time>2026-05-03T08:04:34.994Z</time></trkpt><trkpt lat="44.2889735" lon="8.4454221"><ele>33.0</ele><time>2026-05-03T08:04:35.995Z</time></trkpt><trkpt lat="44.2890568" lon="8.4453443"><ele>33.0</ele><time>2026-05-03T08:04:36.994Z</time></trkpt><trkpt lat="44.2891368" lon="8.4452556"><ele>34.5</ele><time>2026-05-03T08:04:37.994Z</time></trkpt><trkpt lat="44.2892093" lon="8.445163"><ele>36.0</ele><time>2026-05-03T08:04:38.994Z</time></trkpt><trkpt lat="44.2892739" lon="8.4450692"><ele>37.5</ele><time>2026-05-03T08:04:39.993Z</time></trkpt><trkpt lat="44.2893283" lon="8.4449729"><ele>39.0</ele><time>2026-05-03T08:04:40.993Z</time></trkpt><trkpt lat="44.2893778" lon="8.4448783"><ele>40.5</ele><time>2026-05-03T08:04:41.993Z</time></trkpt><trkpt lat="44.2894281" lon="8.4448073"><ele>42.0</ele><time>2026-05-03T08:04:42.994Z</time></trkpt><trkpt lat="44.2895355" lon="8.4447366"><ele>42.0</ele><time>2026-05-03T08:04:44.993Z</time></trkpt><trkpt lat="44.289651" lon="8.4447728"><ele>42.0</ele><time>2026-05-03T08:04:46.993Z</time></trkpt><trkpt lat="44.289722" lon="8.4448378"><ele>42.0</ele><time>2026-05-03T08:04:47.993Z</time></trkpt><trkpt lat="44.2897997" lon="8.4449146"><ele>42.0</ele><time>2026-05-03T08:04:48.993Z</time></trkpt><trkpt lat="44.2898816" lon="8.444999"><ele>42.0</ele><time>2026-05-03T08:04:49.994Z</time></trkpt><trkpt lat="44.2899648" lon="8.4450899"><ele>42.0</ele><time>2026-05-03T08:04:50.993Z</time></trkpt><trkpt lat="44.2900507" lon="8.4451835"><ele>42.0</ele><time>2026-05-03T08:04:51.993Z</time></trkpt><trkpt lat="44.290144" lon="8.4452824"><ele>42.0</ele><time>2026-05-03T08:04:52.993Z</time></trkpt><trkpt lat="44.2902426" lon="8.4453802"><ele>42.0</ele><time>2026-05-03T08:04:53.994Z</time></trkpt><trkpt lat="44.2903473" lon="8.4454813"><ele>41.75</ele><time>2026-05-03T08:04:54.994Z</time></trkpt><trkpt lat="44.2904569" lon="8.4455812"><ele>41.5</ele><time>2026-05-03T08:04:55.993Z</time></trkpt><trkpt lat="44.2905625" lon="8.4456873"><ele>41.25</ele><time>2026-05-03T08:04:56.994Z</time></trkpt><trkpt lat="44.2906599" lon="8.4458036"><ele>41.0</ele><time>2026-05-03T08:04:57.993Z</time></trkpt><trkpt lat="44.2907525" lon="8.4459071"><ele>40.599999999999994</ele><time>2026-05-03T08:04:58.993Z</time></trkpt><trkpt lat="44.2908399" lon="8.4460038"><ele>40.199999999999996</ele><time>2026-05-03T08:04:59.993Z</time></trkpt><trkpt lat="44.2909226" lon="8.4460877"><ele>39.8</ele><time>2026-05-03T08:05:00.994Z</time></trkpt><trkpt lat="44.2909954" lon="8.4461548"><ele>39.4</ele><time>2026-05-03T08:05:01.994Z</time></trkpt><trkpt lat="44.2910541" lon="8.4462046"><ele>39.0</ele><time>2026-05-03T08:05:02.993Z</time></trkpt><trkpt lat="44.2911362" lon="8.4462789"><ele>38.666666666666664</ele><time>2026-05-03T08:05:04.993Z</time></trkpt><trkpt lat="44.2911608" lon="8.4463616"><ele>38.333333333333336</ele><time>2026-05-03T08:05:06.993Z</time></trkpt><trkpt lat="44.2910992" lon="8.4464952"><ele>38.0</ele><time>2026-05-03T08:05:08.993Z</time></trkpt><trkpt lat="44.2910634" lon="8.4465854"><ele>37.66666666666667</ele><time>2026-05-03T08:05:09.993Z</time></trkpt><trkpt lat="44.2910354" lon="8.446686"><ele>37.333333333333336</ele><time>2026-05-03T08:05:10.994Z</time></trkpt><trkpt lat="44.2910166" lon="8.4468024"><ele>37.0</ele><time>2026-05-03T08:05:11.994Z</time></trkpt><trkpt lat="44.2910119" lon="8.4469316"><ele>37.0</ele><time>2026-05-03T08:05:12.993Z</time></trkpt><trkpt lat="44.2910239" lon="8.4470694"><ele>37.0</ele><time>2026-05-03T08:05:13.993Z</time></trkpt><trkpt lat="44.2910517" lon="8.4472117"><ele>37.0</ele><time>2026-05-03T08:05:14.994Z</time></trkpt><trkpt lat="44.2910846" lon="8.4473509"><ele>37.0</ele><time>2026-05-03T08:05:15.994Z</time></trkpt><trkpt lat="44.2911132" lon="8.4474892"><ele>37.0</ele><time>2026-05-03T08:05:16.994Z</time></trkpt><trkpt lat="44.2911431" lon="8.4476238"><ele>36.5</ele><time>2026-05-03T08:05:17.994Z</time></trkpt><trkpt lat="44.2911683" lon="8.4477509"><ele>36.0</ele><time>2026-05-03T08:05:18.994Z</time></trkpt><trkpt lat="44.2911782" lon="8.4478611"><ele>35.5</ele><time>2026-05-03T08:05:19.994Z</time></trkpt><trkpt lat="44.2911766" lon="8.447963"><ele>35.0</ele><time>2026-05-03T08:05:20.994Z</time></trkpt><trkpt lat="44.2911596" lon="8.448061"><ele>34.5</ele><time>2026-05-03T08:05:21.993Z</time></trkpt><trkpt lat="44.2911221" lon="8.4481499"><ele>34.0</ele><time>2026-05-03T08:05:22.994Z</time></trkpt><trkpt lat="44.2910753" lon="8.4482363"><ele>34.0</ele><time>2026-05-03T08:05:23.994Z</time></trkpt><trkpt lat="44.2910382" lon="8.4483135"><ele>34.0</ele><time>2026-05-03T08:05:24.993Z</time></trkpt><trkpt lat="44.2910071" lon="8.4484411"><ele>34.0</ele><time>2026-05-03T08:05:26.993Z</time></trkpt><trkpt lat="44.29098" lon="8.4485591"><ele>34.0</ele><time>2026-05-03T08:05:28.993Z</time></trkpt><trkpt lat="44.2909442" lon="8.4486868"><ele>34.0</ele><time>2026-05-03T08:05:30.994Z</time></trkpt><trkpt lat="44.2908983" lon="8.4488147"><ele>34.0</ele><time>2026-05-03T08:05:32.993Z</time></trkpt><trkpt lat="44.2908591" lon="8.4489537"><ele>34.0</ele><time>2026-05-03T08:05:34.994Z</time></trkpt><trkpt lat="44.2908267" lon="8.4490978"><ele>34.0</ele><time>2026-05-03T08:05:36.993Z</time></trkpt><trkpt lat="44.2907994" lon="8.4492389"><ele>34.0</ele><time>2026-05-03T08:05:38.993Z</time></trkpt><trkpt lat="44.2907733" lon="8.449351"><ele>34.0</ele><time>2026-05-03T08:05:40.993Z</time></trkpt><trkpt lat="44.2907659" lon="8.4494994"><ele>32.16666666666667</ele><time>2026-05-03T08:05:42.993Z</time></trkpt><trkpt lat="44.2908275" lon="8.449627"><ele>30.333333333333336</ele><time>2026-05-03T08:05:44.993Z</time></trkpt><trkpt lat="44.2908827" lon="8.4496704"><ele>28.5</ele><time>2026-05-03T08:05:45.993Z</time></trkpt><trkpt lat="44.2909462" lon="8.4497202"><ele>26.666666666666668</ele><time>2026-05-03T08:05:46.993Z</time></trkpt><trkpt lat="44.2910179" lon="8.4497677"><ele>24.833333333333336</ele><time>2026-05-03T08:05:47.994Z</time></trkpt><trkpt lat="44.2910857" lon="8.4498073"><ele>23.0</ele><time>2026-05-03T08:05:48.993Z</time></trkpt><trkpt lat="44.2911494" lon="8.4498415"><ele>23.0</ele><time>2026-05-03T08:05:49.994Z</time></trkpt><trkpt lat="44.2912182" lon="8.4498732"><ele>23.0</ele><time>2026-05-03T08:05:50.994Z</time></trkpt><trkpt lat="44.2912829" lon="8.4498967"><ele>23.0</ele><time>2026-05-03T08:05:51.993Z</time></trkpt><trkpt lat="44.2913899" lon="8.4499432"><ele>23.0</ele><time>2026-05-03T08:05:53.993Z</time></trkpt><trkpt lat="44.2914817" lon="8.4500386"><ele>23.0</ele><time>2026-05-03T08:05:55.993Z</time></trkpt><trkpt lat="44.291521" lon="8.4501984"><ele>23.0</ele><time>2026-05-03T08:05:57.993Z</time></trkpt><trkpt lat="44.2914662" lon="8.4503622"><ele>23.0</ele><time>2026-05-03T08:05:59.993Z</time></trkpt><trkpt lat="44.2914071" lon="8.4504105"><ele>23.0</ele><time>2026-05-03T08:06:00.993Z</time></trkpt><trkpt lat="44.291336" lon="8.4504182"><ele>23.0</ele><time>2026-05-03T08:06:01.993Z</time></trkpt><trkpt lat="44.2912453" lon="8.4503963"><ele>23.0</ele><time>2026-05-03T08:06:02.993Z</time></trkpt><trkpt lat="44.2911434" lon="8.450357"><ele>23.0</ele><time>2026-05-03T08:06:03.993Z</time></trkpt><trkpt lat="44.2910387" lon="8.450316"><ele>23.0</ele><time>2026-05-03T08:06:04.993Z</time></trkpt><trkpt lat="44.2909304" lon="8.45028"><ele>23.0</ele><time>2026-05-03T08:06:05.993Z</time></trkpt><trkpt lat="44.2908209" lon="8.4502437"><ele>23.0</ele><time>2026-05-03T08:06:06.993Z</time></trkpt><trkpt lat="44.2907169" lon="8.4502006"><ele>23.0</ele><time>2026-05-03T08:06:07.993Z</time></trkpt><trkpt lat="44.2906238" lon="8.4501372"><ele>20.799999999999997</ele><time>2026-05-03T08:06:08.993Z</time></trkpt><trkpt lat="44.2905341" lon="8.4500705"><ele>18.599999999999998</ele><time>2026-05-03T08:06:09.993Z</time></trkpt><trkpt lat="44.2904444" lon="8.4500116"><ele>16.4</ele><time>2026-05-03T08:06:10.993Z</time></trkpt><trkpt lat="44.2903552" lon="8.4499385"><ele>14.2</ele><time>2026-05-03T08:06:11.993Z</time></trkpt><trkpt lat="44.29027" lon="8.4498657"><ele>12.0</ele><time>2026-05-03T08:06:12.994Z</time></trkpt><trkpt lat="44.290187" lon="8.4498058"><ele>12.0</ele><time>2026-05-03T08:06:13.993Z</time></trkpt><trkpt lat="44.290103" lon="8.4497524"><ele>12.0</ele><time>2026-05-03T08:06:14.993Z</time></trkpt><trkpt lat="44.2900236" lon="8.4497036"><ele>12.0</ele><time>2026-05-03T08:06:15.994Z</time></trkpt><trkpt lat="44.2899487" lon="8.4496548"><ele>12.0</ele><time>2026-05-03T08:06:16.993Z</time></trkpt><trkpt lat="44.2898811" lon="8.4496068"><ele>12.0</ele><time>2026-05-03T08:06:17.993Z</time></trkpt><trkpt lat="44.2898226" lon="8.4495549"><ele>12.0</ele><time>2026-05-03T08:06:18.994Z</time></trkpt><trkpt lat="44.2897717" lon="8.4495016"><ele>12.166666666666666</ele><time>2026-05-03T08:06:19.993Z</time></trkpt><trkpt lat="44.2897152" lon="8.4493932"><ele>12.333333333333332</ele><time>2026-05-03T08:06:21.993Z</time></trkpt><trkpt lat="44.2896751" lon="8.4492884"><ele>12.5</ele><time>2026-05-03T08:06:23.993Z</time></trkpt><trkpt lat="44.2896289" lon="8.4492225"><ele>12.666666666666666</ele><time>2026-05-03T08:06:26.994Z</time></trkpt><trkpt lat="44.2895691" lon="8.4491856"><ele>12.833333333333332</ele><time>2026-05-03T08:11:43.992Z</time></trkpt><trkpt lat="44.2895111" lon="8.4491145"><ele>13.0</ele><time>2026-05-03T08:12:05.993Z</time></trkpt><trkpt lat="44.2894336" lon="8.4490847"><ele>13.0</ele><time>2026-05-03T08:12:07.992Z</time></trkpt><trkpt lat="44.28937" lon="8.4490618"><ele>13.0</ele><time>2026-05-03T08:12:10.992Z</time></trkpt><trkpt lat="44.28932" lon="8.4489967"><ele>13.0</ele><time>2026-05-03T08:12:16.992Z</time></trkpt><trkpt lat="44.2892167" lon="8.4488733"><ele>13.0</ele><time>2026-05-03T08:12:18.992Z</time></trkpt><trkpt lat="44.289145" lon="8.448795"><ele>13.0</ele><time>2026-05-03T08:12:19.993Z</time></trkpt><trkpt lat="44.2890733" lon="8.4487117"><ele>13.4</ele><time>2026-05-03T08:12:20.992Z</time></trkpt><trkpt lat="44.2890017" lon="8.4486217"><ele>13.8</ele><time>2026-05-03T08:12:21.993Z</time></trkpt><trkpt lat="44.28893" lon="8.4485283"><ele>14.2</ele><time>2026-05-03T08:12:22.992Z</time></trkpt><trkpt lat="44.2888583" lon="8.4484367"><ele>14.6</ele><time>2026-05-03T08:12:23.992Z</time></trkpt><trkpt lat="44.2887917" lon="8.4483383"><ele>15.0</ele><time>2026-05-03T08:12:24.993Z</time></trkpt><trkpt lat="44.28873" lon="8.448245"><ele>15.0</ele><time>2026-05-03T08:12:25.992Z</time></trkpt><trkpt lat="44.2886667" lon="8.448155"><ele>15.0</ele><time>2026-05-03T08:12:26.993Z</time></trkpt><trkpt lat="44.2886067" lon="8.448065"><ele>15.0</ele><time>2026-05-03T08:12:27.993Z</time></trkpt><trkpt lat="44.2885467" lon="8.447975"><ele>15.0</ele><time>2026-05-03T08:12:28.993Z</time></trkpt><trkpt lat="44.2884933" lon="8.4478883"><ele>15.0</ele><time>2026-05-03T08:12:29.992Z</time></trkpt><trkpt lat="44.2884433" lon="8.4478183"><ele>15.0</ele><time>2026-05-03T08:12:30.993Z</time></trkpt><trkpt lat="44.2883917" lon="8.4477467"><ele>14.714285714285715</ele><time>2026-05-03T08:12:31.993Z</time></trkpt><trkpt lat="44.28834" lon="8.44767"><ele>14.428571428571427</ele><time>2026-05-03T08:12:32.992Z</time></trkpt><trkpt lat="44.2882883" lon="8.4475967"><ele>14.142857142857142</ele><time>2026-05-03T08:12:33.992Z</time></trkpt><trkpt lat="44.2882417" lon="8.4475183"><ele>13.857142857142858</ele><time>2026-05-03T08:12:34.992Z</time></trkpt><trkpt lat="44.28819" lon="8.447445"><ele>13.571428571428573</ele><time>2026-05-03T08:12:35.992Z</time></trkpt><trkpt lat="44.2881367" lon="8.4473717"><ele>13.285714285714285</ele><time>2026-05-03T08:12:36.992Z</time></trkpt><trkpt lat="44.288085" lon="8.4473"><ele>13.0</ele><time>2026-05-03T08:12:37.992Z</time></trkpt><trkpt lat="44.2880433" lon="8.4472283"><ele>14.0</ele><time>2026-05-03T08:12:38.992Z</time></trkpt><trkpt lat="44.2879717" lon="8.447105"><ele>15.0</ele><time>2026-05-03T08:12:40.992Z</time></trkpt><trkpt lat="44.2879067" lon="8.4470017"><ele>16.0</ele><time>2026-05-03T08:12:42.992Z</time></trkpt><trkpt lat="44.2878283" lon="8.44687"><ele>17.0</ele><time>2026-05-03T08:12:44.992Z</time></trkpt><trkpt lat="44.2877783" lon="8.4467833"><ele>18.0</ele><time>2026-05-03T08:12:45.992Z</time></trkpt><trkpt lat="44.2877317" lon="8.4466817"><ele>18.0</ele><time>2026-05-03T08:12:46.993Z</time></trkpt><trkpt lat="44.2876867" lon="8.4465683"><ele>18.0</ele><time>2026-05-03T08:12:47.993Z</time></trkpt><trkpt lat="44.2876417" lon="8.4464517"><ele>18.0</ele><time>2026-05-03T08:12:48.993Z</time></trkpt><trkpt lat="44.2875983" lon="8.4463317"><ele>18.0</ele><time>2026-05-03T08:12:49.992Z</time></trkpt><trkpt lat="44.2875667" lon="8.446215"><ele>18.0</ele><time>2026-05-03T08:12:50.992Z</time></trkpt><trkpt lat="44.287535" lon="8.44611"><ele>18.571428571428573</ele><time>2026-05-03T08:12:51.993Z</time></trkpt><trkpt lat="44.2875067" lon="8.4460167"><ele>19.142857142857142</ele><time>2026-05-03T08:12:52.993Z</time></trkpt><trkpt lat="44.2874783" lon="8.4459267"><ele>19.714285714285715</ele><time>2026-05-03T08:12:53.992Z</time></trkpt><trkpt lat="44.28745" lon="8.4458383"><ele>20.285714285714285</ele><time>2026-05-03T08:12:54.992Z</time></trkpt><trkpt lat="44.2874183" lon="8.4457583"><ele>20.857142857142858</ele><time>2026-05-03T08:12:55.992Z</time></trkpt><trkpt lat="44.2873967" lon="8.4456667"><ele>21.42857142857143</ele><time>2026-05-03T08:12:56.993Z</time></trkpt><trkpt lat="44.287385" lon="8.4455717"><ele>22.0</ele><time>2026-05-03T08:12:57.992Z</time></trkpt><trkpt lat="44.28739" lon="8.445475"><ele>22.400000000000002</ele><time>2026-05-03T08:12:58.992Z</time></trkpt><trkpt lat="44.287425" lon="8.44537"><ele>22.8</ele><time>2026-05-03T08:12:59.992Z</time></trkpt><trkpt lat="44.28748" lon="8.4452533"><ele>23.2</ele><time>2026-05-03T08:13:00.993Z</time></trkpt><trkpt lat="44.2875467" lon="8.4451317"><ele>23.6</ele><time>2026-05-03T08:13:01.993Z</time></trkpt><trkpt lat="44.2876133" lon="8.4450117"><ele>24.0</ele><time>2026-05-03T08:13:02.993Z</time></trkpt><trkpt lat="44.2876933" lon="8.444895"><ele>24.0</ele><time>2026-05-03T08:13:03.993Z</time></trkpt><trkpt lat="44.2877467" lon="8.444755"><ele>24.0</ele><time>2026-05-03T08:13:04.992Z</time></trkpt><trkpt lat="44.2878117" lon="8.44462"><ele>24.0</ele><time>2026-05-03T08:13:05.992Z</time></trkpt><trkpt lat="44.2878767" lon="8.4444867"><ele>24.0</ele><time>2026-05-03T08:13:06.992Z</time></trkpt><trkpt lat="44.2879517" lon="8.4443383"><ele>24.5</ele><time>2026-05-03T08:13:07.992Z</time></trkpt><trkpt lat="44.2880183" lon="8.4441867"><ele>25.0</ele><time>2026-05-03T08:13:08.992Z</time></trkpt><trkpt lat="44.2880983" lon="8.444035"><ele>25.5</ele><time>2026-05-03T08:13:09.992Z</time></trkpt><trkpt lat="44.2881783" lon="8.44388"><ele>26.0</ele><time>2026-05-03T08:13:10.992Z</time></trkpt><trkpt lat="44.28825" lon="8.4437067"><ele>26.5</ele><time>2026-05-03T08:13:11.993Z</time></trkpt><trkpt lat="44.2883067" lon="8.443535"><ele>27.0</ele><time>2026-05-03T08:13:12.993Z</time></trkpt><trkpt lat="44.28836" lon="8.4433717"><ele>27.5</ele><time>2026-05-03T08:13:13.992Z</time></trkpt><trkpt lat="44.2884017" lon="8.443195"><ele>28.0</ele><time>2026-05-03T08:13:14.992Z</time></trkpt><trkpt lat="44.2884417" lon="8.4430067"><ele>27.0</ele><time>2026-05-03T08:13:15.992Z</time></trkpt><trkpt lat="44.2884833" lon="8.4428283"><ele>26.0</ele><time>2026-05-03T08:13:16.992Z</time></trkpt><trkpt lat="44.288515" lon="8.4426567"><ele>25.0</ele><time>2026-05-03T08:13:17.992Z</time></trkpt><trkpt lat="44.2885233" lon="8.44251"><ele>24.0</ele><time>2026-05-03T08:13:18.993Z</time></trkpt><trkpt lat="44.288515" lon="8.442355"><ele>24.0</ele><time>2026-05-03T08:13:19.993Z</time></trkpt><trkpt lat="44.2884833" lon="8.44221"><ele>24.0</ele><time>2026-05-03T08:13:20.992Z</time></trkpt><trkpt lat="44.2884333" lon="8.4420533"><ele>24.0</ele><time>2026-05-03T08:13:21.992Z</time></trkpt><trkpt lat="44.288365" lon="8.4418933"><ele>24.0</ele><time>2026-05-03T08:13:22.993Z</time></trkpt><trkpt lat="44.2882983" lon="8.4417283"><ele>24.0</ele><time>2026-05-03T08:13:23.992Z</time></trkpt><trkpt lat="44.2882383" lon="8.4415567"><ele>24.0</ele><time>2026-05-03T08:13:24.993Z</time></trkpt><trkpt lat="44.2881867" lon="8.4413733"><ele>24.0</ele><time>2026-05-03T08:13:25.992Z</time></trkpt><trkpt lat="44.2881333" lon="8.4411883"><ele>24.0</ele><time>2026-05-03T08:13:26.993Z</time></trkpt><trkpt lat="44.28808" lon="8.4410067"><ele>23.75</ele><time>2026-05-03T08:13:27.993Z</time></trkpt><trkpt lat="44.2880233" lon="8.4408317"><ele>23.5</ele><time>2026-05-03T08:13:28.993Z</time></trkpt><trkpt lat="44.2879667" lon="8.440645"><ele>23.25</ele><time>2026-05-03T08:13:29.992Z</time></trkpt><trkpt lat="44.2879017" lon="8.4404633"><ele>23.0</ele><time>2026-05-03T08:13:30.992Z</time></trkpt><trkpt lat="44.2878483" lon="8.4402733"><ele>23.0</ele><time>2026-05-03T08:13:31.992Z</time></trkpt><trkpt lat="44.28778" lon="8.4400933"><ele>23.0</ele><time>2026-05-03T08:13:32.993Z</time></trkpt><trkpt lat="44.2877167" lon="8.4399067"><ele>23.0</ele><time>2026-05-03T08:13:33.992Z</time></trkpt><trkpt lat="44.28765" lon="8.4397217"><ele>23.0</ele><time>2026-05-03T08:13:34.993Z</time></trkpt><trkpt lat="44.2875883" lon="8.4395367"><ele>23.0</ele><time>2026-05-03T08:13:35.992Z</time></trkpt><trkpt lat="44.2875083" lon="8.439365"><ele>23.0</ele><time>2026-05-03T08:13:36.993Z</time></trkpt><trkpt lat="44.2874467" lon="8.439185"><ele>23.0</ele><time>2026-05-03T08:13:37.992Z</time></trkpt><trkpt lat="44.2873633" lon="8.4390233"><ele>23.0</ele><time>2026-05-03T08:13:38.992Z</time></trkpt><trkpt lat="44.2873" lon="8.4388467"><ele>21.0</ele><time>2026-05-03T08:13:39.992Z</time></trkpt><trkpt lat="44.2872367" lon="8.4386667"><ele>19.0</ele><time>2026-05-03T08:13:40.991Z</time></trkpt><trkpt lat="44.2871717" lon="8.43848"><ele>17.0</ele><time>2026-05-03T08:13:41.992Z</time></trkpt><trkpt lat="44.2871133" lon="8.438295"><ele>15.0</ele><time>2026-05-03T08:13:42.991Z</time></trkpt><trkpt lat="44.2870333" lon="8.4381633"><ele>15.0</ele><time>2026-05-03T08:13:43.991Z</time></trkpt><trkpt lat="44.28694" lon="8.4380033"><ele>15.0</ele><time>2026-05-03T08:13:44.991Z</time></trkpt><trkpt lat="44.2868533" lon="8.437835"><ele>15.0</ele><time>2026-05-03T08:13:45.991Z</time></trkpt><trkpt lat="44.286755" lon="8.437695"><ele>15.0</ele><time>2026-05-03T08:13:46.991Z</time></trkpt><trkpt lat="44.286655" lon="8.437545"><ele>15.333333333333332</ele><time>2026-05-03T08:13:47.992Z</time></trkpt><trkpt lat="44.2865567" lon="8.43738"><ele>15.666666666666666</ele><time>2026-05-03T08:13:48.991Z</time></trkpt><trkpt lat="44.2864567" lon="8.4372"><ele>16.0</ele><time>2026-05-03T08:13:49.992Z</time></trkpt><trkpt lat="44.2863517" lon="8.4370333"><ele>14.75</ele><time>2026-05-03T08:13:50.991Z</time></trkpt><trkpt lat="44.28625" lon="8.4368833"><ele>13.5</ele><time>2026-05-03T08:13:51.991Z</time></trkpt><trkpt lat="44.2861533" lon="8.436735"><ele>12.25</ele><time>2026-05-03T08:13:52.992Z</time></trkpt><trkpt lat="44.2860483" lon="8.436585"><ele>11.0</ele><time>2026-05-03T08:13:53.991Z</time></trkpt><trkpt lat="44.285935" lon="8.4364517"><ele>11.0</ele><time>2026-05-03T08:13:54.991Z</time></trkpt><trkpt lat="44.2858217" lon="8.4363183"><ele>11.0</ele><time>2026-05-03T08:13:55.991Z</time></trkpt><trkpt lat="44.2857133" lon="8.4361867"><ele>11.0</ele><time>2026-05-03T08:13:56.992Z</time></trkpt><trkpt lat="44.2856017" lon="8.4360633"><ele>11.0</ele><time>2026-05-03T08:13:57.992Z</time></trkpt><trkpt lat="44.2854883" lon="8.4359517"><ele>10.5</ele><time>2026-05-03T08:13:58.991Z</time></trkpt><trkpt lat="44.2853833" lon="8.435855"><ele>10.0</ele><time>2026-05-03T08:13:59.992Z</time></trkpt><trkpt lat="44.2852817" lon="8.4357583"><ele>9.5</ele><time>2026-05-03T08:14:00.991Z</time></trkpt><trkpt lat="44.28518" lon="8.435675"><ele>9.0</ele><time>2026-05-03T08:14:01.991Z</time></trkpt><trkpt lat="44.28508" lon="8.4355983"><ele>9.0</ele><time>2026-05-03T08:14:02.991Z</time></trkpt><trkpt lat="44.28498" lon="8.4355233"><ele>9.0</ele><time>2026-05-03T08:14:03.991Z</time></trkpt><trkpt lat="44.2848967" lon="8.43546"><ele>9.0</ele><time>2026-05-03T08:14:04.992Z</time></trkpt><trkpt lat="44.2848267" lon="8.4354"><ele>9.0</ele><time>2026-05-03T08:14:05.991Z</time></trkpt><trkpt lat="44.284765" lon="8.435345"><ele>9.0</ele><time>2026-05-03T08:14:06.991Z</time></trkpt><trkpt lat="44.284705" lon="8.4352867"><ele>9.0</ele><time>2026-05-03T08:14:07.991Z</time></trkpt><trkpt lat="44.2846667" lon="8.43521"><ele>9.0</ele><time>2026-05-03T08:14:08.991Z</time></trkpt><trkpt lat="44.2846517" lon="8.4351117"><ele>9.0</ele><time>2026-05-03T08:14:09.992Z</time></trkpt><trkpt lat="44.2846567" lon="8.4350083"><ele>9.0</ele><time>2026-05-03T08:14:10.991Z</time></trkpt><trkpt lat="44.2846783" lon="8.4349017"><ele>9.0</ele><time>2026-05-03T08:14:11.991Z</time></trkpt><trkpt lat="44.28472" lon="8.4347917"><ele>9.0</ele><time>2026-05-03T08:14:12.991Z</time></trkpt><trkpt lat="44.284785" lon="8.4346767"><ele>9.0</ele><time>2026-05-03T08:14:13.991Z</time></trkpt><trkpt lat="44.2848533" lon="8.43456"><ele>9.0</ele><time>2026-05-03T08:14:14.991Z</time></trkpt><trkpt lat="44.2849183" lon="8.4344533"><ele>9.0</ele><time>2026-05-03T08:14:15.991Z</time></trkpt><trkpt lat="44.28498" lon="8.4343367"><ele>9.0</ele><time>2026-05-03T08:14:16.991Z</time></trkpt><trkpt lat="44.285045" lon="8.4342367"><ele>9.0</ele><time>2026-05-03T08:14:17.992Z</time></trkpt><trkpt lat="44.2851133" lon="8.4341433"><ele>9.0</ele><time>2026-05-03T08:14:18.992Z</time></trkpt><trkpt lat="44.285205" lon="8.4340483"><ele>9.0</ele><time>2026-05-03T08:14:19.992Z</time></trkpt><trkpt lat="44.2852967" lon="8.4339383"><ele>9.0</ele><time>2026-05-03T08:14:20.991Z</time></trkpt><trkpt lat="44.2854067" lon="8.4338083"><ele>9.0</ele><time>2026-05-03T08:14:21.992Z</time></trkpt><trkpt lat="44.28551" lon="8.4336933"><ele>9.0</ele><time>2026-05-03T08:14:22.991Z</time></trkpt><trkpt lat="44.2856067" lon="8.4335833"><ele>8.8</ele><time>2026-05-03T08:14:23.992Z</time></trkpt><trkpt lat="44.2857033" lon="8.4334883"><ele>8.600000000000001</ele><time>2026-05-03T08:14:24.991Z</time></trkpt><trkpt lat="44.2857933" lon="8.433415"><ele>8.4</ele><time>2026-05-03T08:14:25.992Z</time></trkpt><trkpt lat="44.2858667" lon="8.4333333"><ele>8.200000000000001</ele><time>2026-05-03T08:14:26.992Z</time></trkpt><trkpt lat="44.28594" lon="8.4332833"><ele>8.0</ele><time>2026-05-03T08:14:27.992Z</time></trkpt><trkpt lat="44.2860083" lon="8.4332367"><ele>7.999999999999999</ele><time>2026-05-03T08:14:28.991Z</time></trkpt><trkpt lat="44.2860717" lon="8.4331917"><ele>8.0</ele><time>2026-05-03T08:14:29.991Z</time></trkpt><trkpt lat="44.28613" lon="8.4331383"><ele>8.0</ele><time>2026-05-03T08:14:30.992Z</time></trkpt><trkpt lat="44.2861567" lon="8.4330133"><ele>8.0</ele><time>2026-05-03T08:14:32.991Z</time></trkpt><trkpt lat="44.2860713" lon="8.432922"><ele>7.999999999999999</ele><time>2026-05-03T08:14:34.992Z</time></trkpt><trkpt lat="44.2859981" lon="8.432871"><ele>8.0</ele><time>2026-05-03T08:14:35.992Z</time></trkpt><trkpt lat="44.28592" lon="8.4328003"><ele>8.0</ele><time>2026-05-03T08:14:36.991Z</time></trkpt><trkpt lat="44.2858457" lon="8.4327117"><ele>8.0</ele><time>2026-05-03T08:14:37.991Z</time></trkpt><trkpt lat="44.2857778" lon="8.4326067"><ele>8.0</ele><time>2026-05-03T08:14:38.991Z</time></trkpt><trkpt lat="44.2857058" lon="8.4324934"><ele>8.0</ele><time>2026-05-03T08:14:39.991Z</time></trkpt><trkpt lat="44.2856302" lon="8.4323775"><ele>8.0</ele><time>2026-05-03T08:14:40.991Z</time></trkpt><trkpt lat="44.2855499" lon="8.4322617"><ele>8.25</ele><time>2026-05-03T08:14:41.991Z</time></trkpt><trkpt lat="44.2854642" lon="8.4321429"><ele>8.5</ele><time>2026-05-03T08:14:42.991Z</time></trkpt><trkpt lat="44.2853789" lon="8.4320166"><ele>8.75</ele><time>2026-05-03T08:14:43.992Z</time></trkpt><trkpt lat="44.2853006" lon="8.4318866"><ele>9.0</ele><time>2026-05-03T08:14:44.991Z</time></trkpt><trkpt lat="44.2852203" lon="8.4317571"><ele>8.75</ele><time>2026-05-03T08:14:45.991Z</time></trkpt><trkpt lat="44.2851381" lon="8.431631"><ele>8.5</ele><time>2026-05-03T08:14:46.991Z</time></trkpt><trkpt lat="44.2850572" lon="8.4315042"><ele>8.25</ele><time>2026-05-03T08:14:47.991Z</time></trkpt><trkpt lat="44.2849709" lon="8.4313839"><ele>8.0</ele><time>2026-05-03T08:14:48.992Z</time></trkpt><trkpt lat="44.2848881" lon="8.431261"><ele>8.0</ele><time>2026-05-03T08:14:49.992Z</time></trkpt><trkpt lat="44.2848088" lon="8.431141"><ele>8.0</ele><time>2026-05-03T08:14:50.991Z</time></trkpt><trkpt lat="44.2847343" lon="8.4310319"><ele>8.0</ele><time>2026-05-03T08:14:51.992Z</time></trkpt><trkpt lat="44.2846629" lon="8.4309388"><ele>8.0</ele><time>2026-05-03T08:14:52.991Z</time></trkpt><trkpt lat="44.284594" lon="8.4308329"><ele>8.0</ele><time>2026-05-03T08:14:53.991Z</time></trkpt><trkpt lat="44.2845354" lon="8.4307263"><ele>8.166666666666666</ele><time>2026-05-03T08:14:54.991Z</time></trkpt><trkpt lat="44.2844794" lon="8.4306396"><ele>8.333333333333332</ele><time>2026-05-03T08:14:55.992Z</time></trkpt><trkpt lat="44.2844313" lon="8.4305728"><ele>8.5</ele><time>2026-05-03T08:14:56.991Z</time></trkpt><trkpt lat="44.2843518" lon="8.4304507"><ele>8.666666666666666</ele><time>2026-05-03T08:14:58.991Z</time></trkpt><trkpt lat="44.2842791" lon="8.4303814"><ele>8.833333333333334</ele><time>2026-05-03T08:15:00.991Z</time></trkpt><trkpt lat="44.2842211" lon="8.4304285"><ele>9.0</ele><time>2026-05-03T08:15:02.992Z</time></trkpt><trkpt lat="44.2841817" lon="8.4304981"><ele>9.25</ele><time>2026-05-03T08:15:03.991Z</time></trkpt><trkpt lat="44.2841254" lon="8.4306126"><ele>9.5</ele><time>2026-05-03T08:15:04.992Z</time></trkpt><trkpt lat="44.2840552" lon="8.4307601"><ele>9.75</ele><time>2026-05-03T08:15:05.991Z</time></trkpt><trkpt lat="44.2839831" lon="8.4309328"><ele>10.0</ele><time>2026-05-03T08:15:06.992Z</time></trkpt><trkpt lat="44.2839094" lon="8.4310865"><ele>9.5</ele><time>2026-05-03T08:15:07.992Z</time></trkpt><trkpt lat="44.2838338" lon="8.4312316"><ele>9.0</ele><time>2026-05-03T08:15:08.991Z</time></trkpt><trkpt lat="44.2837433" lon="8.431383"><ele>8.5</ele><time>2026-05-03T08:15:09.991Z</time></trkpt><trkpt lat="44.2836507" lon="8.4315115"><ele>8.0</ele><time>2026-05-03T08:15:10.991Z</time></trkpt><trkpt lat="44.2835573" lon="8.4316193"><ele>7.75</ele><time>2026-05-03T08:15:11.991Z</time></trkpt><trkpt lat="44.2834577" lon="8.4317156"><ele>7.5</ele><time>2026-05-03T08:15:12.992Z</time></trkpt><trkpt lat="44.2833531" lon="8.4318056"><ele>7.25</ele><time>2026-05-03T08:15:13.992Z</time></trkpt><trkpt lat="44.2832409" lon="8.4318968"><ele>7.0</ele><time>2026-05-03T08:15:14.992Z</time></trkpt><trkpt lat="44.2831192" lon="8.4319988"><ele>7.0</ele><time>2026-05-03T08:15:15.991Z</time></trkpt><trkpt lat="44.2829808" lon="8.4320978"><ele>7.0</ele><time>2026-05-03T08:15:16.991Z</time></trkpt><trkpt lat="44.2828644" lon="8.4321907"><ele>7.0</ele><time>2026-05-03T08:15:17.992Z</time></trkpt><trkpt lat="44.2827484" lon="8.4322665"><ele>7.0</ele><time>2026-05-03T08:15:18.992Z</time></trkpt><trkpt lat="44.2826364" lon="8.4323392"><ele>7.0</ele><time>2026-05-03T08:15:19.991Z</time></trkpt><trkpt lat="44.2825195" lon="8.4324197"><ele>7.0</ele><time>2026-05-03T08:15:20.992Z</time></trkpt><trkpt lat="44.2824013" lon="8.4325047"><ele>7.0</ele><time>2026-05-03T08:15:21.991Z</time></trkpt><trkpt lat="44.2822818" lon="8.4325883"><ele>7.0</ele><time>2026-05-03T08:15:22.991Z</time></trkpt><trkpt lat="44.2821545" lon="8.4326662"><ele>7.0</ele><time>2026-05-03T08:15:23.991Z</time></trkpt><trkpt lat="44.28203" lon="8.4327524"><ele>7.0</ele><time>2026-05-03T08:15:24.991Z</time></trkpt><trkpt lat="44.2819062" lon="8.4328339"><ele>7.0</ele><time>2026-05-03T08:15:25.991Z</time></trkpt><trkpt lat="44.2817783" lon="8.4329083"><ele>7.0</ele><time>2026-05-03T08:15:26.991Z</time></trkpt><trkpt lat="44.2816493" lon="8.4329771"><ele>7.25</ele><time>2026-05-03T08:15:27.992Z</time></trkpt><trkpt lat="44.2815201" lon="8.4330292"><ele>7.5</ele><time>2026-05-03T08:15:28.992Z</time></trkpt><trkpt lat="44.2813859" lon="8.4330606"><ele>7.75</ele><time>2026-05-03T08:15:29.991Z</time></trkpt><trkpt lat="44.2812491" lon="8.4330677"><ele>8.0</ele><time>2026-05-03T08:15:30.991Z</time></trkpt><trkpt lat="44.2811125" lon="8.4330535"><ele>8.0</ele><time>2026-05-03T08:15:31.991Z</time></trkpt><trkpt lat="44.2809773" lon="8.4330147"><ele>8.0</ele><time>2026-05-03T08:15:32.991Z</time></trkpt><trkpt lat="44.2808389" lon="8.4329603"><ele>8.0</ele><time>2026-05-03T08:15:33.992Z</time></trkpt><trkpt lat="44.2807022" lon="8.4328966"><ele>8.0</ele><time>2026-05-03T08:15:34.991Z</time></trkpt><trkpt lat="44.2805764" lon="8.4328301"><ele>8.0</ele><time>2026-05-03T08:15:35.992Z</time></trkpt><trkpt lat="44.2804616" lon="8.432754"><ele>8.0</ele><time>2026-05-03T08:15:36.991Z</time></trkpt><trkpt lat="44.2803589" lon="8.4327152"><ele>8.0</ele><time>2026-05-03T08:15:37.991Z</time></trkpt><trkpt lat="44.2802814" lon="8.4326627"><ele>8.0</ele><time>2026-05-03T08:15:38.991Z</time></trkpt><trkpt lat="44.2802254" lon="8.4326166"><ele>8.0</ele><time>2026-05-03T08:15:39.992Z</time></trkpt><trkpt lat="44.2801502" lon="8.4325208"><ele>8.0</ele><time>2026-05-03T08:15:41.991Z</time></trkpt><trkpt lat="44.2800719" lon="8.4323984"><ele>8.0</ele><time>2026-05-03T08:15:43.991Z</time></trkpt><trkpt lat="44.2799692" lon="8.4323563"><ele>8.0</ele><time>2026-05-03T08:15:45.991Z</time></trkpt><trkpt lat="44.2799077" lon="8.4323843"><ele>8.0</ele><time>2026-05-03T08:15:46.991Z</time></trkpt><trkpt lat="44.2798443" lon="8.4324474"><ele>8.0</ele><time>2026-05-03T08:15:47.992Z</time></trkpt><trkpt lat="44.2797767" lon="8.4325333"><ele>8.4</ele><time>2026-05-03T08:15:48.992Z</time></trkpt><trkpt lat="44.2797013" lon="8.4326231"><ele>8.8</ele><time>2026-05-03T08:15:49.991Z</time></trkpt><trkpt lat="44.2796124" lon="8.4327074"><ele>9.2</ele><time>2026-05-03T08:15:50.991Z</time></trkpt><trkpt lat="44.2795242" lon="8.4327907"><ele>9.6</ele><time>2026-05-03T08:15:51.992Z</time></trkpt><trkpt lat="44.2794442" lon="8.4328759"><ele>10.0</ele><time>2026-05-03T08:15:52.991Z</time></trkpt><trkpt lat="44.2793689" lon="8.4329606"><ele>10.0</ele><time>2026-05-03T08:15:53.992Z</time></trkpt><trkpt lat="44.2792931" lon="8.4330403"><ele>10.0</ele><time>2026-05-03T08:15:54.991Z</time></trkpt><trkpt lat="44.2792161" lon="8.4331286"><ele>10.0</ele><time>2026-05-03T08:15:55.991Z</time></trkpt><trkpt lat="44.2791411" lon="8.4332058"><ele>10.0</ele><time>2026-05-03T08:15:56.991Z</time></trkpt><trkpt lat="44.2790704" lon="8.4332735"><ele>10.0</ele><time>2026-05-03T08:15:57.992Z</time></trkpt><trkpt lat="44.2790033" lon="8.4333371"><ele>10.0</ele><time>2026-05-03T08:15:58.991Z</time></trkpt><trkpt lat="44.2789438" lon="8.4333935"><ele>10.0</ele><time>2026-05-03T08:15:59.992Z</time></trkpt><trkpt lat="44.2788224" lon="8.433439"><ele>10.0</ele><time>2026-05-03T08:16:01.992Z</time></trkpt><trkpt lat="44.278754" lon="8.4334636"><ele>10.0</ele><time>2026-05-03T08:16:02.991Z</time></trkpt><trkpt lat="44.2786809" lon="8.4335042"><ele>10.0</ele><time>2026-05-03T08:16:03.991Z</time></trkpt><trkpt lat="44.2786163" lon="8.4335715"><ele>10.0</ele><time>2026-05-03T08:16:04.991Z</time></trkpt><trkpt lat="44.2785548" lon="8.4336585"><ele>9.8</ele><time>2026-05-03T08:16:05.991Z</time></trkpt><trkpt lat="44.2784911" lon="8.4337591"><ele>9.6</ele><time>2026-05-03T08:16:06.991Z</time></trkpt><trkpt lat="44.2784258" lon="8.4338615"><ele>9.4</ele><time>2026-05-03T08:16:07.991Z</time></trkpt><trkpt lat="44.2783586" lon="8.4339589"><ele>9.2</ele><time>2026-05-03T08:16:08.991Z</time></trkpt><trkpt lat="44.278286" lon="8.4340453"><ele>9.0</ele><time>2026-05-03T08:16:09.992Z</time></trkpt><trkpt lat="44.2782058" lon="8.4341195"><ele>8.6</ele><time>2026-05-03T08:16:10.992Z</time></trkpt><trkpt lat="44.278117" lon="8.4341699"><ele>8.2</ele><time>2026-05-03T08:16:11.992Z</time></trkpt><trkpt lat="44.2780175" lon="8.4342013"><ele>7.799999999999999</ele><time>2026-05-03T08:16:12.991Z</time></trkpt><trkpt lat="44.2779003" lon="8.4342167"><ele>7.3999999999999995</ele><time>2026-05-03T08:16:13.991Z</time></trkpt><trkpt lat="44.2777817" lon="8.4342251"><ele>7.0</ele><time>2026-05-03T08:16:14.992Z</time></trkpt><trkpt lat="44.2776644" lon="8.4342322"><ele>6.8</ele><time>2026-05-03T08:16:15.992Z</time></trkpt><trkpt lat="44.2775501" lon="8.4342393"><ele>6.6</ele><time>2026-05-03T08:16:16.991Z</time></trkpt><trkpt lat="44.2774406" lon="8.4342489"><ele>6.3999999999999995</ele><time>2026-05-03T08:16:17.992Z</time></trkpt><trkpt lat="44.277331" lon="8.43426"><ele>6.199999999999999</ele><time>2026-05-03T08:16:18.992Z</time></trkpt><trkpt lat="44.2772189" lon="8.4342633"><ele>6.0</ele><time>2026-05-03T08:16:19.991Z</time></trkpt><trkpt lat="44.2771096" lon="8.4342614"><ele>6.6</ele><time>2026-05-03T08:16:20.991Z</time></trkpt><trkpt lat="44.2770073" lon="8.4342717"><ele>7.199999999999999</ele><time>2026-05-03T08:16:21.992Z</time></trkpt><trkpt lat="44.2769092" lon="8.4342833"><ele>7.800000000000001</ele><time>2026-05-03T08:16:22.991Z</time></trkpt><trkpt lat="44.2768025" lon="8.4342938"><ele>8.4</ele><time>2026-05-03T08:16:23.991Z</time></trkpt><trkpt lat="44.2766997" lon="8.4343009"><ele>9.0</ele><time>2026-05-03T08:16:24.991Z</time></trkpt><trkpt lat="44.2765901" lon="8.4343172"><ele>9.0</ele><time>2026-05-03T08:16:25.991Z</time></trkpt><trkpt lat="44.2764758" lon="8.4343345"><ele>9.0</ele><time>2026-05-03T08:16:26.991Z</time></trkpt><trkpt lat="44.2763556" lon="8.4343471"><ele>9.0</ele><time>2026-05-03T08:16:27.991Z</time></trkpt><trkpt lat="44.2762417" lon="8.4343603"><ele>9.0</ele><time>2026-05-03T08:16:28.991Z</time></trkpt><trkpt lat="44.2761309" lon="8.4343741"><ele>8.8</ele><time>2026-05-03T08:16:29.991Z</time></trkpt><trkpt lat="44.2760183" lon="8.4343946"><ele>8.600000000000001</ele><time>2026-05-03T08:16:30.991Z</time></trkpt><trkpt lat="44.2759115" lon="8.4344246"><ele>8.4</ele><time>2026-05-03T08:16:31.991Z</time></trkpt><trkpt lat="44.2758091" lon="8.4344572"><ele>8.200000000000001</ele><time>2026-05-03T08:16:32.991Z</time></trkpt><trkpt lat="44.2757103" lon="8.4344916"><ele>8.0</ele><time>2026-05-03T08:16:33.991Z</time></trkpt><trkpt lat="44.2756139" lon="8.4345405"><ele>7.800000000000001</ele><time>2026-05-03T08:16:34.991Z</time></trkpt><trkpt lat="44.2755179" lon="8.4345933"><ele>7.6000000000000005</ele><time>2026-05-03T08:16:35.992Z</time></trkpt><trkpt lat="44.2754256" lon="8.4346531"><ele>7.3999999999999995</ele><time>2026-05-03T08:16:36.992Z</time></trkpt><trkpt lat="44.2753346" lon="8.4347178"><ele>7.199999999999999</ele><time>2026-05-03T08:16:37.991Z</time></trkpt><trkpt lat="44.2752541" lon="8.4347826"><ele>7.0</ele><time>2026-05-03T08:16:38.991Z</time></trkpt><trkpt lat="44.275178" lon="8.4348398"><ele>7.000000000000001</ele><time>2026-05-03T08:16:39.992Z</time></trkpt><trkpt lat="44.2751074" lon="8.4348912"><ele>7.0</ele><time>2026-05-03T08:16:40.992Z</time></trkpt><trkpt lat="44.2750352" lon="8.4349437"><ele>7.0</ele><time>2026-05-03T08:16:41.991Z</time></trkpt><trkpt lat="44.274962" lon="8.4349999"><ele>7.0</ele><time>2026-05-03T08:16:42.991Z</time></trkpt><trkpt lat="44.274886" lon="8.4350694"><ele>7.000000000000001</ele><time>2026-05-03T08:16:43.991Z</time></trkpt><trkpt lat="44.2748171" lon="8.4351377"><ele>7.0</ele><time>2026-05-03T08:16:44.992Z</time></trkpt><trkpt lat="44.2747462" lon="8.4352181"><ele>7.3999999999999995</ele><time>2026-05-03T08:16:45.992Z</time></trkpt><trkpt lat="44.274682" lon="8.4353122"><ele>7.799999999999999</ele><time>2026-05-03T08:16:46.992Z</time></trkpt><trkpt lat="44.2746156" lon="8.4354026"><ele>8.2</ele><time>2026-05-03T08:16:47.991Z</time></trkpt><trkpt lat="44.2745464" lon="8.4354919"><ele>8.6</ele><time>2026-05-03T08:16:48.992Z</time></trkpt><trkpt lat="44.2744709" lon="8.4355727"><ele>9.0</ele><time>2026-05-03T08:16:49.991Z</time></trkpt><trkpt lat="44.2743912" lon="8.4356573"><ele>9.0</ele><time>2026-05-03T08:16:50.991Z</time></trkpt><trkpt lat="44.2743122" lon="8.4357435"><ele>9.0</ele><time>2026-05-03T08:16:51.991Z</time></trkpt><trkpt lat="44.2742385" lon="8.4358299"><ele>9.0</ele><time>2026-05-03T08:16:52.992Z</time></trkpt><trkpt lat="44.2741681" lon="8.4359092"><ele>9.0</ele><time>2026-05-03T08:16:53.991Z</time></trkpt><trkpt lat="44.2741002" lon="8.4359793"><ele>9.0</ele><time>2026-05-03T08:16:54.991Z</time></trkpt><trkpt lat="44.2740288" lon="8.4360494"><ele>9.0</ele><time>2026-05-03T08:16:55.991Z</time></trkpt><trkpt lat="44.2739623" lon="8.4361192"><ele>9.0</ele><time>2026-05-03T08:16:56.992Z</time></trkpt><trkpt lat="44.2738985" lon="8.4361859"><ele>9.0</ele><time>2026-05-03T08:16:57.991Z</time></trkpt><trkpt lat="44.2738366" lon="8.4362562"><ele>9.0</ele><time>2026-05-03T08:16:58.991Z</time></trkpt><trkpt lat="44.2737712" lon="8.4363286"><ele>9.0</ele><time>2026-05-03T08:16:59.991Z</time></trkpt><trkpt lat="44.2737038" lon="8.4364033"><ele>9.0</ele><time>2026-05-03T08:17:00.991Z</time></trkpt><trkpt lat="44.2736395" lon="8.436481"><ele>8.666666666666666</ele><time>2026-05-03T08:17:01.992Z</time></trkpt><trkpt lat="44.2735682" lon="8.4365594"><ele>8.333333333333334</ele><time>2026-05-03T08:17:02.992Z</time></trkpt><trkpt lat="44.2734921" lon="8.4366406"><ele>8.0</ele><time>2026-05-03T08:17:03.991Z</time></trkpt><trkpt lat="44.2734265" lon="8.4367209"><ele>7.666666666666667</ele><time>2026-05-03T08:17:04.991Z</time></trkpt><trkpt lat="44.2733692" lon="8.4368022"><ele>7.333333333333334</ele><time>2026-05-03T08:17:05.992Z</time></trkpt><trkpt lat="44.2733079" lon="8.4368816"><ele>7.0</ele><time>2026-05-03T08:17:06.991Z</time></trkpt><trkpt lat="44.2732517" lon="8.4369649"><ele>7.0</ele><time>2026-05-03T08:17:07.991Z</time></trkpt><trkpt lat="44.2731894" lon="8.4370407"><ele>7.0</ele><time>2026-05-03T08:17:08.991Z</time></trkpt><trkpt lat="44.273133" lon="8.4371121"><ele>7.0</ele><time>2026-05-03T08:17:09.991Z</time></trkpt><trkpt lat="44.2730796" lon="8.4371835"><ele>7.0</ele><time>2026-05-03T08:17:10.991Z</time></trkpt><trkpt lat="44.2730305" lon="8.4372561"><ele>7.0</ele><time>2026-05-03T08:17:11.991Z</time></trkpt><trkpt lat="44.272986" lon="8.4373327"><ele>7.0</ele><time>2026-05-03T08:17:12.991Z</time></trkpt><trkpt lat="44.2729401" lon="8.4374108"><ele>7.0</ele><time>2026-05-03T08:17:13.991Z</time></trkpt><trkpt lat="44.2729134" lon="8.437508"><ele>7.500000000000001</ele><time>2026-05-03T08:17:14.991Z</time></trkpt><trkpt lat="44.272891" lon="8.4376071"><ele>8.0</ele><time>2026-05-03T08:17:15.992Z</time></trkpt><trkpt lat="44.2728688" lon="8.4377043"><ele>8.5</ele><time>2026-05-03T08:17:16.992Z</time></trkpt><trkpt lat="44.2728474" lon="8.4378082"><ele>9.0</ele><time>2026-05-03T08:17:17.992Z</time></trkpt><trkpt lat="44.2728165" lon="8.4379124"><ele>9.5</ele><time>2026-05-03T08:17:18.991Z</time></trkpt><trkpt lat="44.2727864" lon="8.4380128"><ele>10.0</ele><time>2026-05-03T08:17:19.992Z</time></trkpt><trkpt lat="44.2727563" lon="8.4381132"><ele>10.166666666666668</ele><time>2026-05-03T08:17:20.991Z</time></trkpt><trkpt lat="44.2727259" lon="8.4382105"><ele>10.333333333333334</ele><time>2026-05-03T08:17:21.991Z</time></trkpt><trkpt lat="44.2726943" lon="8.4383168"><ele>10.5</ele><time>2026-05-03T08:17:22.992Z</time></trkpt><trkpt lat="44.2726651" lon="8.438442"><ele>10.666666666666666</ele><time>2026-05-03T08:17:23.991Z</time></trkpt><trkpt lat="44.2726391" lon="8.4385725"><ele>10.833333333333332</ele><time>2026-05-03T08:17:24.991Z</time></trkpt><trkpt lat="44.2726132" lon="8.4386891"><ele>11.0</ele><time>2026-05-03T08:17:25.991Z</time></trkpt><trkpt lat="44.2725909" lon="8.4387902"><ele>10.25</ele><time>2026-05-03T08:17:26.991Z</time></trkpt><trkpt lat="44.2725491" lon="8.4389346"><ele>9.5</ele><time>2026-05-03T08:17:28.991Z</time></trkpt><trkpt lat="44.2724806" lon="8.4390124"><ele>8.75</ele><time>2026-05-03T08:17:30.991Z</time></trkpt><trkpt lat="44.272332" lon="8.4389724"><ele>8.0</ele><time>2026-05-03T08:17:32.991Z</time></trkpt><trkpt lat="44.2722084" lon="8.4388834"><ele>8.0</ele><time>2026-05-03T08:17:33.992Z</time></trkpt><trkpt lat="44.2720878" lon="8.4388133"><ele>8.0</ele><time>2026-05-03T08:17:34.992Z</time></trkpt><trkpt lat="44.2719794" lon="8.4387675"><ele>8.0</ele><time>2026-05-03T08:17:35.991Z</time></trkpt><trkpt lat="44.2718759" lon="8.4387293"><ele>8.0</ele><time>2026-05-03T08:17:36.991Z</time></trkpt><trkpt lat="44.271776" lon="8.4387155"><ele>8.4</ele><time>2026-05-03T08:17:37.991Z</time></trkpt><trkpt lat="44.2716963" lon="8.4387098"><ele>8.8</ele><time>2026-05-03T08:17:38.992Z</time></trkpt><trkpt lat="44.2716338" lon="8.4386979"><ele>9.2</ele><time>2026-05-03T08:17:39.992Z</time></trkpt><trkpt lat="44.2715135" lon="8.4386906"><ele>9.6</ele><time>2026-05-03T08:17:41.992Z</time></trkpt><trkpt lat="44.2713917" lon="8.4387101"><ele>10.0</ele><time>2026-05-03T08:17:43.991Z</time></trkpt><trkpt lat="44.271321" lon="8.4387249"><ele>9.833333333333334</ele><time>2026-05-03T08:17:44.991Z</time></trkpt><trkpt lat="44.2712452" lon="8.4387372"><ele>9.666666666666668</ele><time>2026-05-03T08:17:45.991Z</time></trkpt><trkpt lat="44.2711643" lon="8.4387491"><ele>9.5</ele><time>2026-05-03T08:17:46.991Z</time></trkpt><trkpt lat="44.2710809" lon="8.4387663"><ele>9.333333333333334</ele><time>2026-05-03T08:17:47.991Z</time></trkpt><trkpt lat="44.2709918" lon="8.438789"><ele>9.166666666666666</ele><time>2026-05-03T08:17:48.991Z</time></trkpt><trkpt lat="44.270896" lon="8.4388176"><ele>9.0</ele><time>2026-05-03T08:17:49.991Z</time></trkpt><trkpt lat="44.2707974" lon="8.4388509"><ele>9.0</ele><time>2026-05-03T08:17:50.99Z</time></trkpt><trkpt lat="44.2707013" lon="8.4388812"><ele>9.0</ele><time>2026-05-03T08:17:51.991Z</time></trkpt><trkpt lat="44.2706109" lon="8.4389149"><ele>9.0</ele><time>2026-05-03T08:17:52.99Z</time></trkpt><trkpt lat="44.2705222" lon="8.4389375"><ele>9.0</ele><time>2026-05-03T08:17:53.99Z</time></trkpt><trkpt lat="44.2704286" lon="8.438967"><ele>9.0</ele><time>2026-05-03T08:17:54.991Z</time></trkpt><trkpt lat="44.2703399" lon="8.4389865"><ele>8.8</ele><time>2026-05-03T08:17:55.991Z</time></trkpt><trkpt lat="44.2702514" lon="8.4390174"><ele>8.600000000000001</ele><time>2026-05-03T08:17:56.99Z</time></trkpt><trkpt lat="44.2701625" lon="8.439054"><ele>8.4</ele><time>2026-05-03T08:17:57.991Z</time></trkpt><trkpt lat="44.2700652" lon="8.4391057"><ele>8.200000000000001</ele><time>2026-05-03T08:17:58.991Z</time></trkpt><trkpt lat="44.2699654" lon="8.4391656"><ele>8.0</ele><time>2026-05-03T08:17:59.99Z</time></trkpt><trkpt lat="44.269861" lon="8.4392329"><ele>8.0</ele><time>2026-05-03T08:18:00.99Z</time></trkpt><trkpt lat="44.2697579" lon="8.4392898"><ele>8.0</ele><time>2026-05-03T08:18:01.991Z</time></trkpt><trkpt lat="44.2696518" lon="8.4393514"><ele>8.0</ele><time>2026-05-03T08:18:02.991Z</time></trkpt><trkpt lat="44.2695464" lon="8.4394171"><ele>8.0</ele><time>2026-05-03T08:18:03.99Z</time></trkpt><trkpt lat="44.2694362" lon="8.4394871"><ele>8.0</ele><time>2026-05-03T08:18:04.99Z</time></trkpt><trkpt lat="44.2693261" lon="8.4395563"><ele>8.0</ele><time>2026-05-03T08:18:05.991Z</time></trkpt><trkpt lat="44.2692211" lon="8.4396152"><ele>8.0</ele><time>2026-05-03T08:18:06.99Z</time></trkpt><trkpt lat="44.2691163" lon="8.4396735"><ele>8.0</ele><time>2026-05-03T08:18:07.991Z</time></trkpt><trkpt lat="44.2690112" lon="8.4397328"><ele>7.6000000000000005</ele><time>2026-05-03T08:18:08.99Z</time></trkpt><trkpt lat="44.2689112" lon="8.4397924"><ele>7.200000000000001</ele><time>2026-05-03T08:18:09.99Z</time></trkpt><trkpt lat="44.2688104" lon="8.4398473"><ele>6.8</ele><time>2026-05-03T08:18:10.991Z</time></trkpt><trkpt lat="44.2687092" lon="8.4398996"><ele>6.4</ele><time>2026-05-03T08:18:11.99Z</time></trkpt><trkpt lat="44.2686102" lon="8.4399493"><ele>6.0</ele><time>2026-05-03T08:18:12.991Z</time></trkpt><trkpt lat="44.2685044" lon="8.4400029"><ele>6.0</ele><time>2026-05-03T08:18:13.991Z</time></trkpt><trkpt lat="44.2684015" lon="8.4400541"><ele>6.0</ele><time>2026-05-03T08:18:14.99Z</time></trkpt><trkpt lat="44.268304" lon="8.4401118"><ele>6.0</ele><time>2026-05-03T08:18:15.99Z</time></trkpt><trkpt lat="44.2682045" lon="8.4401537"><ele>6.0</ele><time>2026-05-03T08:18:16.99Z</time></trkpt><trkpt lat="44.2681069" lon="8.4401885"><ele>6.0</ele><time>2026-05-03T08:18:17.991Z</time></trkpt><trkpt lat="44.2680144" lon="8.4402125"><ele>5.8</ele><time>2026-05-03T08:18:18.99Z</time></trkpt><trkpt lat="44.2679216" lon="8.4402526"><ele>5.6</ele><time>2026-05-03T08:18:19.99Z</time></trkpt><trkpt lat="44.2678277" lon="8.4402893"><ele>5.4</ele><time>2026-05-03T08:18:20.991Z</time></trkpt><trkpt lat="44.2677325" lon="8.4403354"><ele>5.2</ele><time>2026-05-03T08:18:21.991Z</time></trkpt><trkpt lat="44.2676429" lon="8.4403858"><ele>5.0</ele><time>2026-05-03T08:18:22.991Z</time></trkpt><trkpt lat="44.2675546" lon="8.4404259"><ele>5.0</ele><time>2026-05-03T08:18:23.99Z</time></trkpt><trkpt lat="44.2674581" lon="8.4404531"><ele>5.0</ele><time>2026-05-03T08:18:24.99Z</time></trkpt><trkpt lat="44.2673627" lon="8.4404697"><ele>5.0</ele><time>2026-05-03T08:18:25.99Z</time></trkpt><trkpt lat="44.2672751" lon="8.4404754"><ele>5.0</ele><time>2026-05-03T08:18:26.991Z</time></trkpt><trkpt lat="44.2671966" lon="8.4404644"><ele>5.0</ele><time>2026-05-03T08:18:27.991Z</time></trkpt><trkpt lat="44.2671282" lon="8.4404463"><ele>5.0</ele><time>2026-05-03T08:18:28.991Z</time></trkpt><trkpt lat="44.267011" lon="8.4404885"><ele>4.333333333333334</ele><time>2026-05-03T08:18:30.991Z</time></trkpt><trkpt lat="44.2669557" lon="8.4405652"><ele>3.666666666666667</ele><time>2026-05-03T08:18:31.991Z</time></trkpt><trkpt lat="44.2669021" lon="8.4406607"><ele>3.0</ele><time>2026-05-03T08:18:32.99Z</time></trkpt><trkpt lat="44.2668433" lon="8.4407658"><ele>2.3333333333333335</ele><time>2026-05-03T08:18:33.99Z</time></trkpt><trkpt lat="44.2667737" lon="8.4408511"><ele>1.6666666666666665</ele><time>2026-05-03T08:18:34.99Z</time></trkpt><trkpt lat="44.2666956" lon="8.4409171"><ele>1.0</ele><time>2026-05-03T08:18:35.991Z</time></trkpt><trkpt lat="44.2666198" lon="8.4409713"><ele>1.0</ele><time>2026-05-03T08:18:36.99Z</time></trkpt><trkpt lat="44.2665509" lon="8.4410267"><ele>1.0</ele><time>2026-05-03T08:18:37.991Z</time></trkpt><trkpt lat="44.2664779" lon="8.441082"><ele>1.0</ele><time>2026-05-03T08:18:38.99Z</time></trkpt><trkpt lat="44.266405" lon="8.441143"><ele>1.0</ele><time>2026-05-03T08:18:39.99Z</time></trkpt><trkpt lat="44.266302" lon="8.4411829"><ele>1.0</ele><time>2026-05-03T08:18:40.99Z</time></trkpt><trkpt lat="44.2661609" lon="8.4412317"><ele>1.5</ele><time>2026-05-03T08:18:41.991Z</time></trkpt><trkpt lat="44.2660297" lon="8.4412842"><ele>2.0</ele><time>2026-05-03T08:18:42.99Z</time></trkpt><trkpt lat="44.2659094" lon="8.4413323"><ele>2.5</ele><time>2026-05-03T08:18:43.991Z</time></trkpt><trkpt lat="44.2657918" lon="8.4413802"><ele>3.0</ele><time>2026-05-03T08:18:44.99Z</time></trkpt><trkpt lat="44.2656741" lon="8.4414259"><ele>3.5</ele><time>2026-05-03T08:18:45.99Z</time></trkpt><trkpt lat="44.2655546" lon="8.4414706"><ele>4.0</ele><time>2026-05-03T08:18:46.99Z</time></trkpt><trkpt lat="44.2654239" lon="8.4415263"><ele>4.5</ele><time>2026-05-03T08:18:47.99Z</time></trkpt><trkpt lat="44.2653017" lon="8.4415895"><ele>5.0</ele><time>2026-05-03T08:18:48.991Z</time></trkpt><trkpt lat="44.2651906" lon="8.4416571"><ele>5.0</ele><time>2026-05-03T08:18:49.991Z</time></trkpt><trkpt lat="44.2650811" lon="8.4417226"><ele>5.0</ele><time>2026-05-03T08:18:50.99Z</time></trkpt><trkpt lat="44.26497" lon="8.4417837"><ele>5.0</ele><time>2026-05-03T08:18:51.991Z</time></trkpt><trkpt lat="44.2648645" lon="8.4418462"><ele>5.0</ele><time>2026-05-03T08:18:52.99Z</time></trkpt><trkpt lat="44.2647651" lon="8.441912"><ele>5.0</ele><time>2026-05-03T08:18:53.99Z</time></trkpt><trkpt lat="44.2646749" lon="8.4419727"><ele>5.0</ele><time>2026-05-03T08:18:54.99Z</time></trkpt><trkpt lat="44.2645919" lon="8.4420531"><ele>5.0</ele><time>2026-05-03T08:18:55.991Z</time></trkpt><trkpt lat="44.2645074" lon="8.4421525"><ele>5.0</ele><time>2026-05-03T08:18:56.99Z</time></trkpt><trkpt lat="44.2644221" lon="8.4422638"><ele>5.0</ele><time>2026-05-03T08:18:57.99Z</time></trkpt><trkpt lat="44.2643338" lon="8.4423754"><ele>5.0</ele><time>2026-05-03T08:18:58.99Z</time></trkpt><trkpt lat="44.2642509" lon="8.442498"><ele>5.0</ele><time>2026-05-03T08:18:59.99Z</time></trkpt><trkpt lat="44.2641753" lon="8.4426341"><ele>5.0</ele><time>2026-05-03T08:19:00.99Z</time></trkpt><trkpt lat="44.2641029" lon="8.4427736"><ele>5.0</ele><time>2026-05-03T08:19:01.991Z</time></trkpt><trkpt lat="44.2640241" lon="8.4429114"><ele>5.0</ele><time>2026-05-03T08:19:02.99Z</time></trkpt><trkpt lat="44.2639478" lon="8.4430452"><ele>5.0</ele><time>2026-05-03T08:19:03.99Z</time></trkpt><trkpt lat="44.2638817" lon="8.4431767"><ele>5.0</ele><time>2026-05-03T08:19:04.99Z</time></trkpt><trkpt lat="44.26382" lon="8.4433217"><ele>5.0</ele><time>2026-05-03T08:19:05.99Z</time></trkpt><trkpt lat="44.2637533" lon="8.4434683"><ele>5.0</ele><time>2026-05-03T08:19:06.99Z</time></trkpt><trkpt lat="44.2636867" lon="8.4436067"><ele>5.0</ele><time>2026-05-03T08:19:07.99Z</time></trkpt><trkpt lat="44.26361" lon="8.443745"><ele>5.0</ele><time>2026-05-03T08:19:08.991Z</time></trkpt><trkpt lat="44.2635317" lon="8.44388"><ele>5.0</ele><time>2026-05-03T08:19:09.99Z</time></trkpt><trkpt lat="44.263445" lon="8.444015"><ele>4.5</ele><time>2026-05-03T08:19:10.99Z</time></trkpt><trkpt lat="44.2633667" lon="8.4441567"><ele>4.0</ele><time>2026-05-03T08:19:11.99Z</time></trkpt><trkpt lat="44.2632967" lon="8.444295"><ele>3.5</ele><time>2026-05-03T08:19:12.99Z</time></trkpt><trkpt lat="44.2632333" lon="8.44443"><ele>3.0</ele><time>2026-05-03T08:19:13.99Z</time></trkpt><trkpt lat="44.2631717" lon="8.444565"><ele>3.25</ele><time>2026-05-03T08:19:14.99Z</time></trkpt><trkpt lat="44.2630933" lon="8.4447"><ele>3.5</ele><time>2026-05-03T08:19:15.99Z</time></trkpt><trkpt lat="44.26302" lon="8.4448383"><ele>3.75</ele><time>2026-05-03T08:19:16.99Z</time></trkpt><trkpt lat="44.2629483" lon="8.444975"><ele>4.0</ele><time>2026-05-03T08:19:17.991Z</time></trkpt><trkpt lat="44.2628733" lon="8.4451117"><ele>4.0</ele><time>2026-05-03T08:19:18.99Z</time></trkpt><trkpt lat="44.2628033" lon="8.4452533"><ele>4.0</ele><time>2026-05-03T08:19:19.99Z</time></trkpt><trkpt lat="44.2627317" lon="8.4453867"><ele>4.0</ele><time>2026-05-03T08:19:20.99Z</time></trkpt><trkpt lat="44.2626567" lon="8.4455217"><ele>4.0</ele><time>2026-05-03T08:19:21.99Z</time></trkpt><trkpt lat="44.2625783" lon="8.4456783"><ele>3.75</ele><time>2026-05-03T08:19:22.991Z</time></trkpt><trkpt lat="44.2625117" lon="8.4458133"><ele>3.5</ele><time>2026-05-03T08:19:23.991Z</time></trkpt><trkpt lat="44.2624333" lon="8.44595"><ele>3.25</ele><time>2026-05-03T08:19:24.991Z</time></trkpt><trkpt lat="44.2623533" lon="8.446085"><ele>3.0</ele><time>2026-05-03T08:19:25.991Z</time></trkpt><trkpt lat="44.2622767" lon="8.4462167"><ele>3.5</ele><time>2026-05-03T08:19:26.99Z</time></trkpt><trkpt lat="44.2621983" lon="8.44635"><ele>4.0</ele><time>2026-05-03T08:19:27.991Z</time></trkpt><trkpt lat="44.2621267" lon="8.4464867"><ele>4.5</ele><time>2026-05-03T08:19:28.991Z</time></trkpt><trkpt lat="44.2620567" lon="8.4466267"><ele>5.0</ele><time>2026-05-03T08:19:29.991Z</time></trkpt><trkpt lat="44.2619883" lon="8.4467567"><ele>5.0</ele><time>2026-05-03T08:19:30.991Z</time></trkpt><trkpt lat="44.261925" lon="8.4468883"><ele>5.0</ele><time>2026-05-03T08:19:31.991Z</time></trkpt><trkpt lat="44.26186" lon="8.447015"><ele>5.0</ele><time>2026-05-03T08:19:32.99Z</time></trkpt><trkpt lat="44.261805" lon="8.4471433"><ele>5.0</ele><time>2026-05-03T08:19:33.99Z</time></trkpt><trkpt lat="44.2617583" lon="8.44726"><ele>5.0</ele><time>2026-05-03T08:19:34.99Z</time></trkpt><trkpt lat="44.261715" lon="8.4473667"><ele>5.166666666666667</ele><time>2026-05-03T08:19:35.991Z</time></trkpt><trkpt lat="44.261685" lon="8.4474783"><ele>5.333333333333334</ele><time>2026-05-03T08:19:36.99Z</time></trkpt><trkpt lat="44.2616533" lon="8.447585"><ele>5.5</ele><time>2026-05-03T08:19:37.99Z</time></trkpt><trkpt lat="44.2616117" lon="8.44769"><ele>5.666666666666667</ele><time>2026-05-03T08:19:38.99Z</time></trkpt><trkpt lat="44.261585" lon="8.4478033"><ele>5.833333333333333</ele><time>2026-05-03T08:19:39.99Z</time></trkpt><trkpt lat="44.261575" lon="8.4479233"><ele>6.0</ele><time>2026-05-03T08:19:40.99Z</time></trkpt><trkpt lat="44.26159" lon="8.4480633"><ele>6.25</ele><time>2026-05-03T08:19:41.99Z</time></trkpt><trkpt lat="44.2616083" lon="8.4482033"><ele>6.5</ele><time>2026-05-03T08:19:42.99Z</time></trkpt><trkpt lat="44.2616317" lon="8.4483617"><ele>6.75</ele><time>2026-05-03T08:19:43.991Z</time></trkpt><trkpt lat="44.2616567" lon="8.448525"><ele>7.0</ele><time>2026-05-03T08:19:44.99Z</time></trkpt><trkpt lat="44.26167" lon="8.448685"><ele>7.75</ele><time>2026-05-03T08:19:45.99Z</time></trkpt><trkpt lat="44.261685" lon="8.44886"><ele>8.5</ele><time>2026-05-03T08:19:46.991Z</time></trkpt><trkpt lat="44.26171" lon="8.4490367"><ele>9.25</ele><time>2026-05-03T08:19:47.99Z</time></trkpt><trkpt lat="44.2617333" lon="8.449215"><ele>10.0</ele><time>2026-05-03T08:19:48.991Z</time></trkpt><trkpt lat="44.2617517" lon="8.4493983"><ele>10.0</ele><time>2026-05-03T08:19:49.991Z</time></trkpt><trkpt lat="44.2617583" lon="8.44959"><ele>10.0</ele><time>2026-05-03T08:19:50.991Z</time></trkpt><trkpt lat="44.261765" lon="8.44978"><ele>10.0</ele><time>2026-05-03T08:19:51.99Z</time></trkpt><trkpt lat="44.261755" lon="8.4499683"><ele>10.0</ele><time>2026-05-03T08:19:52.99Z</time></trkpt><trkpt lat="44.2617333" lon="8.4501567"><ele>9.75</ele><time>2026-05-03T08:19:53.99Z</time></trkpt><trkpt lat="44.26171" lon="8.450335"><ele>9.5</ele><time>2026-05-03T08:19:54.991Z</time></trkpt><trkpt lat="44.2616717" lon="8.4505083"><ele>9.25</ele><time>2026-05-03T08:19:55.991Z</time></trkpt><trkpt lat="44.2616283" lon="8.45069"><ele>9.0</ele><time>2026-05-03T08:19:56.991Z</time></trkpt><trkpt lat="44.2615683" lon="8.450865"><ele>9.0</ele><time>2026-05-03T08:19:57.991Z</time></trkpt><trkpt lat="44.2614967" lon="8.4510283"><ele>9.0</ele><time>2026-05-03T08:19:58.99Z</time></trkpt><trkpt lat="44.26142" lon="8.4511933"><ele>9.0</ele><time>2026-05-03T08:19:59.991Z</time></trkpt><trkpt lat="44.26134" lon="8.4513517"><ele>9.0</ele><time>2026-05-03T08:20:00.99Z</time></trkpt><trkpt lat="44.2612483" lon="8.4515117"><ele>9.75</ele><time>2026-05-03T08:20:01.99Z</time></trkpt><trkpt lat="44.2611517" lon="8.4516667"><ele>10.5</ele><time>2026-05-03T08:20:02.991Z</time></trkpt><trkpt lat="44.2610533" lon="8.4518033"><ele>11.25</ele><time>2026-05-03T08:20:03.99Z</time></trkpt><trkpt lat="44.2609533" lon="8.4519367"><ele>12.0</ele><time>2026-05-03T08:20:04.99Z</time></trkpt><trkpt lat="44.26084" lon="8.4520733"><ele>10.333333333333334</ele><time>2026-05-03T08:20:05.991Z</time></trkpt><trkpt lat="44.2607233" lon="8.4522083"><ele>8.666666666666668</ele><time>2026-05-03T08:20:06.991Z</time></trkpt><trkpt lat="44.2605983" lon="8.4523333"><ele>7.0</ele><time>2026-05-03T08:20:07.99Z</time></trkpt><trkpt lat="44.2604667" lon="8.4524483"><ele>6.75</ele><time>2026-05-03T08:20:08.991Z</time></trkpt><trkpt lat="44.2603417" lon="8.45255"><ele>6.5</ele><time>2026-05-03T08:20:09.991Z</time></trkpt><trkpt lat="44.260215" lon="8.4526433"><ele>6.25</ele><time>2026-05-03T08:20:10.99Z</time></trkpt><trkpt lat="44.26009" lon="8.4527267"><ele>6.0</ele><time>2026-05-03T08:20:11.991Z</time></trkpt><trkpt lat="44.2599683" lon="8.4528033"><ele>6.0</ele><time>2026-05-03T08:20:12.99Z</time></trkpt><trkpt lat="44.25984" lon="8.4528767"><ele>6.0</ele><time>2026-05-03T08:20:13.99Z</time></trkpt><trkpt lat="44.25971" lon="8.4529417"><ele>6.0</ele><time>2026-05-03T08:20:14.99Z</time></trkpt><trkpt lat="44.2595767" lon="8.452975"><ele>6.0</ele><time>2026-05-03T08:20:15.99Z</time></trkpt><trkpt lat="44.2594433" lon="8.4529933"><ele>6.5</ele><time>2026-05-03T08:20:16.991Z</time></trkpt><trkpt lat="44.2593017" lon="8.4529917"><ele>7.0</ele><time>2026-05-03T08:20:17.99Z</time></trkpt><trkpt lat="44.2591517" lon="8.4529833"><ele>7.5</ele><time>2026-05-03T08:20:18.99Z</time></trkpt><trkpt lat="44.2590167" lon="8.4529717"><ele>8.0</ele><time>2026-05-03T08:20:19.991Z</time></trkpt><trkpt lat="44.2588733" lon="8.4529517"><ele>8.0</ele><time>2026-05-03T08:20:20.99Z</time></trkpt><trkpt lat="44.2587367" lon="8.4529367"><ele>8.0</ele><time>2026-05-03T08:20:21.991Z</time></trkpt><trkpt lat="44.2586017" lon="8.4529117"><ele>8.0</ele><time>2026-05-03T08:20:22.99Z</time></trkpt><trkpt lat="44.2584733" lon="8.45288"><ele>8.0</ele><time>2026-05-03T08:20:23.99Z</time></trkpt><trkpt lat="44.2583483" lon="8.4528367"><ele>8.0</ele><time>2026-05-03T08:20:24.99Z</time></trkpt><trkpt lat="44.2582183" lon="8.4527867"><ele>8.0</ele><time>2026-05-03T08:20:25.991Z</time></trkpt><trkpt lat="44.2580917" lon="8.4527183"><ele>8.0</ele><time>2026-05-03T08:20:26.99Z</time></trkpt><trkpt lat="44.25796" lon="8.4526467"><ele>8.0</ele><time>2026-05-03T08:20:27.99Z</time></trkpt><trkpt lat="44.2578167" lon="8.45257"><ele>7.25</ele><time>2026-05-03T08:20:28.991Z</time></trkpt><trkpt lat="44.2576933" lon="8.4524733"><ele>6.5</ele><time>2026-05-03T08:20:29.99Z</time></trkpt><trkpt lat="44.2575717" lon="8.4523767"><ele>5.75</ele><time>2026-05-03T08:20:30.99Z</time></trkpt><trkpt lat="44.25745" lon="8.45228"><ele>5.0</ele><time>2026-05-03T08:20:31.99Z</time></trkpt><trkpt lat="44.257325" lon="8.45218"><ele>7.5</ele><time>2026-05-03T08:20:32.99Z</time></trkpt><trkpt lat="44.2572033" lon="8.45208"><ele>10.0</ele><time>2026-05-03T08:20:33.991Z</time></trkpt><trkpt lat="44.2570833" lon="8.4519783"><ele>12.5</ele><time>2026-05-03T08:20:34.99Z</time></trkpt><trkpt lat="44.2569633" lon="8.4518717"><ele>15.0</ele><time>2026-05-03T08:20:35.991Z</time></trkpt><trkpt lat="44.2568467" lon="8.4517833"><ele>15.0</ele><time>2026-05-03T08:20:36.99Z</time></trkpt><trkpt lat="44.256725" lon="8.4517117"><ele>15.0</ele><time>2026-05-03T08:20:37.991Z</time></trkpt><trkpt lat="44.2566017" lon="8.4516367"><ele>15.0</ele><time>2026-05-03T08:20:38.99Z</time></trkpt><trkpt lat="44.2564833" lon="8.45157"><ele>15.0</ele><time>2026-05-03T08:20:39.991Z</time></trkpt><trkpt lat="44.2563567" lon="8.4515333"><ele>13.25</ele><time>2026-05-03T08:20:40.99Z</time></trkpt><trkpt lat="44.2562267" lon="8.4515183"><ele>11.5</ele><time>2026-05-03T08:20:41.99Z</time></trkpt><trkpt lat="44.2561017" lon="8.4515117"><ele>9.75</ele><time>2026-05-03T08:20:42.99Z</time></trkpt><trkpt lat="44.2559733" lon="8.451515"><ele>8.0</ele><time>2026-05-03T08:20:43.991Z</time></trkpt><trkpt lat="44.2558417" lon="8.4515233"><ele>8.0</ele><time>2026-05-03T08:20:44.99Z</time></trkpt><trkpt lat="44.2557117" lon="8.45152"><ele>8.0</ele><time>2026-05-03T08:20:45.99Z</time></trkpt><trkpt lat="44.25558" lon="8.4515"><ele>8.0</ele><time>2026-05-03T08:20:46.99Z</time></trkpt><trkpt lat="44.25545" lon="8.4514567"><ele>8.0</ele><time>2026-05-03T08:20:47.991Z</time></trkpt><trkpt lat="44.2553217" lon="8.4514033"><ele>7.25</ele><time>2026-05-03T08:20:48.99Z</time></trkpt><trkpt lat="44.2552033" lon="8.451325"><ele>6.5</ele><time>2026-05-03T08:20:49.99Z</time></trkpt><trkpt lat="44.2550817" lon="8.4512333"><ele>5.75</ele><time>2026-05-03T08:20:50.99Z</time></trkpt><trkpt lat="44.254975" lon="8.45112"><ele>5.0</ele><time>2026-05-03T08:20:51.991Z</time></trkpt><trkpt lat="44.254865" lon="8.4510033"><ele>5.0</ele><time>2026-05-03T08:20:52.99Z</time></trkpt><trkpt lat="44.2547617" lon="8.45086"><ele>5.0</ele><time>2026-05-03T08:20:53.99Z</time></trkpt><trkpt lat="44.2546817" lon="8.4506867"><ele>5.0</ele><time>2026-05-03T08:20:54.99Z</time></trkpt><trkpt lat="44.2545933" lon="8.450565"><ele>5.0</ele><time>2026-05-03T08:20:55.99Z</time></trkpt><trkpt lat="44.2544967" lon="8.4504583"><ele>10.4</ele><time>2026-05-03T08:20:56.99Z</time></trkpt><trkpt lat="44.2544" lon="8.45038"><ele>15.8</ele><time>2026-05-03T08:20:57.991Z</time></trkpt><trkpt lat="44.2542967" lon="8.4503217"><ele>21.200000000000003</ele><time>2026-05-03T08:20:58.99Z</time></trkpt><trkpt lat="44.2541983" lon="8.4502817"><ele>26.6</ele><time>2026-05-03T08:20:59.99Z</time></trkpt><trkpt lat="44.2540983" lon="8.45027"><ele>32.0</ele><time>2026-05-03T08:21:00.99Z</time></trkpt><trkpt lat="44.2540117" lon="8.4502583"><ele>31.999999999999996</ele><time>2026-05-03T08:21:01.99Z</time></trkpt><trkpt lat="44.2539333" lon="8.4502617"><ele>32.0</ele><time>2026-05-03T08:21:02.991Z</time></trkpt><trkpt lat="44.2538567" lon="8.450255"><ele>32.0</ele><time>2026-05-03T08:21:03.991Z</time></trkpt><trkpt lat="44.2537517" lon="8.4502583"><ele>32.0</ele><time>2026-05-03T08:21:05.991Z</time></trkpt><trkpt lat="44.25368" lon="8.4502683"><ele>31.999999999999996</ele><time>2026-05-03T08:21:07.99Z</time></trkpt><trkpt lat="44.253575" lon="8.4502883"><ele>32.0</ele><time>2026-05-03T08:21:10.99Z</time></trkpt><trkpt lat="44.2534583" lon="8.450285"><ele>32.0</ele><time>2026-05-03T08:21:12.991Z</time></trkpt><trkpt lat="44.25339" lon="8.4502767"><ele>32.0</ele><time>2026-05-03T08:21:13.99Z</time></trkpt><trkpt lat="44.2533167" lon="8.450265"><ele>32.0</ele><time>2026-05-03T08:21:14.991Z</time></trkpt><trkpt lat="44.25322" lon="8.4502417"><ele>32.0</ele><time>2026-05-03T08:21:15.99Z</time></trkpt><trkpt lat="44.2531233" lon="8.450225"><ele>32.0</ele><time>2026-05-03T08:21:16.99Z</time></trkpt><trkpt lat="44.253005" lon="8.45019"><ele>27.25</ele><time>2026-05-03T08:21:17.99Z</time></trkpt><trkpt lat="44.2528833" lon="8.4501317"><ele>22.5</ele><time>2026-05-03T08:21:18.99Z</time></trkpt><trkpt lat="44.25277" lon="8.4500617"><ele>17.75</ele><time>2026-05-03T08:21:19.991Z</time></trkpt><trkpt lat="44.252645" lon="8.4499517"><ele>13.0</ele><time>2026-05-03T08:21:20.991Z</time></trkpt><trkpt lat="44.2525583" lon="8.4498367"><ele>13.0</ele><time>2026-05-03T08:21:21.99Z</time></trkpt><trkpt lat="44.2524783" lon="8.44973"><ele>13.0</ele><time>2026-05-03T08:21:22.99Z</time></trkpt><trkpt lat="44.2524183" lon="8.44963"><ele>13.0</ele><time>2026-05-03T08:21:23.991Z</time></trkpt><trkpt lat="44.252365" lon="8.44949"><ele>13.0</ele><time>2026-05-03T08:21:24.99Z</time></trkpt><trkpt lat="44.2523233" lon="8.4493483"><ele>13.0</ele><time>2026-05-03T08:21:25.991Z</time></trkpt><trkpt lat="44.252285" lon="8.4492083"><ele>12.600000000000001</ele><time>2026-05-03T08:21:26.99Z</time></trkpt><trkpt lat="44.252235" lon="8.4490717"><ele>12.200000000000001</ele><time>2026-05-03T08:21:27.991Z</time></trkpt><trkpt lat="44.2521817" lon="8.4489417"><ele>11.8</ele><time>2026-05-03T08:21:28.991Z</time></trkpt><trkpt lat="44.2521233" lon="8.4488167"><ele>11.4</ele><time>2026-05-03T08:21:29.99Z</time></trkpt><trkpt lat="44.2520583" lon="8.448695"><ele>11.0</ele><time>2026-05-03T08:21:30.99Z</time></trkpt><trkpt lat="44.2519883" lon="8.4485833"><ele>11.0</ele><time>2026-05-03T08:21:31.99Z</time></trkpt><trkpt lat="44.251925" lon="8.448475"><ele>11.0</ele><time>2026-05-03T08:21:32.991Z</time></trkpt><trkpt lat="44.251845" lon="8.4483933"><ele>11.0</ele><time>2026-05-03T08:21:33.99Z</time></trkpt><trkpt lat="44.251765" lon="8.4483183"><ele>11.0</ele><time>2026-05-03T08:21:34.99Z</time></trkpt><trkpt lat="44.2516967" lon="8.4482533"><ele>11.0</ele><time>2026-05-03T08:21:35.99Z</time></trkpt><trkpt lat="44.25162" lon="8.4481867"><ele>11.0</ele><time>2026-05-03T08:21:36.99Z</time></trkpt><trkpt lat="44.2515317" lon="8.4481267"><ele>11.0</ele><time>2026-05-03T08:21:37.99Z</time></trkpt><trkpt lat="44.2514467" lon="8.4480417"><ele>11.0</ele><time>2026-05-03T08:21:38.99Z</time></trkpt><trkpt lat="44.2513583" lon="8.4479517"><ele>11.0</ele><time>2026-05-03T08:21:39.99Z</time></trkpt><trkpt lat="44.2512683" lon="8.4478617"><ele>11.0</ele><time>2026-05-03T08:21:40.99Z</time></trkpt><trkpt lat="44.2511733" lon="8.44777"><ele>12.5</ele><time>2026-05-03T08:21:41.99Z</time></trkpt><trkpt lat="44.2510733" lon="8.4476817"><ele>14.0</ele><time>2026-05-03T08:21:42.99Z</time></trkpt><trkpt lat="44.2509733" lon="8.4476"><ele>15.5</ele><time>2026-05-03T08:21:43.991Z</time></trkpt><trkpt lat="44.250865" lon="8.4475267"><ele>17.0</ele><time>2026-05-03T08:21:44.99Z</time></trkpt><trkpt lat="44.2507533" lon="8.447475"><ele>17.0</ele><time>2026-05-03T08:21:45.991Z</time></trkpt><trkpt lat="44.2506383" lon="8.4474317"><ele>17.0</ele><time>2026-05-03T08:21:46.991Z</time></trkpt><trkpt lat="44.2505283" lon="8.447395"><ele>17.0</ele><time>2026-05-03T08:21:47.991Z</time></trkpt><trkpt lat="44.2504383" lon="8.44736"><ele>17.0</ele><time>2026-05-03T08:21:48.991Z</time></trkpt><trkpt lat="44.2503583" lon="8.4473183"><ele>17.0</ele><time>2026-05-03T08:21:49.991Z</time></trkpt><trkpt lat="44.250275" lon="8.44727"><ele>18.5</ele><time>2026-05-03T08:21:50.991Z</time></trkpt><trkpt lat="44.2501933" lon="8.447225"><ele>20.0</ele><time>2026-05-03T08:21:51.99Z</time></trkpt><trkpt lat="44.2501117" lon="8.4471733"><ele>21.5</ele><time>2026-05-03T08:21:52.99Z</time></trkpt><trkpt lat="44.25003" lon="8.4471117"><ele>23.0</ele><time>2026-05-03T08:21:53.99Z</time></trkpt><trkpt lat="44.2499617" lon="8.44705"><ele>24.499999999999996</ele><time>2026-05-03T08:21:54.99Z</time></trkpt><trkpt lat="44.2498914" lon="8.4470011"><ele>26.0</ele><time>2026-05-03T08:21:55.991Z</time></trkpt><trkpt lat="44.2498214" lon="8.446946"><ele>22.999999999999996</ele><time>2026-05-03T08:21:56.99Z</time></trkpt><trkpt lat="44.2497485" lon="8.4468932"><ele>20.0</ele><time>2026-05-03T08:21:57.99Z</time></trkpt><trkpt lat="44.2496724" lon="8.4468377"><ele>17.0</ele><time>2026-05-03T08:21:58.991Z</time></trkpt><trkpt lat="44.249594" lon="8.4467817"><ele>14.0</ele><time>2026-05-03T08:21:59.99Z</time></trkpt><trkpt lat="44.2495129" lon="8.4467208"><ele>11.0</ele><time>2026-05-03T08:22:00.99Z</time></trkpt><trkpt lat="44.249435" lon="8.4466571"><ele>8.0</ele><time>2026-05-03T08:22:01.991Z</time></trkpt><trkpt lat="44.2493647" lon="8.4465932"><ele>7.999999999999999</ele><time>2026-05-03T08:22:02.99Z</time></trkpt><trkpt lat="44.2492942" lon="8.4465379"><ele>8.0</ele><time>2026-05-03T08:22:03.991Z</time></trkpt><trkpt lat="44.2492267" lon="8.4464773"><ele>8.0</ele><time>2026-05-03T08:22:04.99Z</time></trkpt><trkpt lat="44.2491625" lon="8.4464133"><ele>8.0</ele><time>2026-05-03T08:22:05.991Z</time></trkpt><trkpt lat="44.2490984" lon="8.4463653"><ele>7.999999999999999</ele><time>2026-05-03T08:22:06.99Z</time></trkpt><trkpt lat="44.2490341" lon="8.4463186"><ele>8.0</ele><time>2026-05-03T08:22:07.991Z</time></trkpt><trkpt lat="44.2489669" lon="8.4462719"><ele>8.714285714285714</ele><time>2026-05-03T08:22:08.991Z</time></trkpt><trkpt lat="44.2489001" lon="8.4462182"><ele>9.428571428571427</ele><time>2026-05-03T08:22:09.991Z</time></trkpt><trkpt lat="44.2488347" lon="8.4461631"><ele>10.142857142857142</ele><time>2026-05-03T08:22:10.991Z</time></trkpt><trkpt lat="44.2487722" lon="8.4461069"><ele>10.857142857142858</ele><time>2026-05-03T08:22:11.99Z</time></trkpt><trkpt lat="44.2487124" lon="8.4460526"><ele>11.571428571428573</ele><time>2026-05-03T08:22:12.991Z</time></trkpt><trkpt lat="44.2486553" lon="8.4459959"><ele>12.285714285714285</ele><time>2026-05-03T08:22:13.99Z</time></trkpt><trkpt lat="44.2485991" lon="8.4459425"><ele>13.0</ele><time>2026-05-03T08:22:14.99Z</time></trkpt><trkpt lat="44.2485378" lon="8.4458903"><ele>12.999999999999998</ele><time>2026-05-03T08:22:15.99Z</time></trkpt><trkpt lat="44.2484692" lon="8.4458388"><ele>13.0</ele><time>2026-05-03T08:22:16.991Z</time></trkpt><trkpt lat="44.2483983" lon="8.4457892"><ele>13.0</ele><time>2026-05-03T08:22:17.991Z</time></trkpt><trkpt lat="44.2483323" lon="8.4457384"><ele>13.0</ele><time>2026-05-03T08:22:18.99Z</time></trkpt><trkpt lat="44.2482612" lon="8.4456924"><ele>12.999999999999998</ele><time>2026-05-03T08:22:19.99Z</time></trkpt><trkpt lat="44.2481871" lon="8.4456479"><ele>13.0</ele><time>2026-05-03T08:22:20.99Z</time></trkpt><trkpt lat="44.2481132" lon="8.4456083"><ele>11.857142857142856</ele><time>2026-05-03T08:22:21.991Z</time></trkpt><trkpt lat="44.248041" lon="8.4455639"><ele>10.714285714285715</ele><time>2026-05-03T08:22:22.99Z</time></trkpt><trkpt lat="44.2479715" lon="8.445525"><ele>9.571428571428571</ele><time>2026-05-03T08:22:23.99Z</time></trkpt><trkpt lat="44.247904" lon="8.4454999"><ele>8.428571428571429</ele><time>2026-05-03T08:22:24.99Z</time></trkpt><trkpt lat="44.2478351" lon="8.4454749"><ele>7.2857142857142865</ele><time>2026-05-03T08:22:25.99Z</time></trkpt><trkpt lat="44.2477655" lon="8.4454442"><ele>6.142857142857142</ele><time>2026-05-03T08:22:26.99Z</time></trkpt><trkpt lat="44.247699" lon="8.4454174"><ele>5.0</ele><time>2026-05-03T08:22:27.991Z</time></trkpt><trkpt lat="44.247635" lon="8.4453883"><ele>6.333333333333334</ele><time>2026-05-03T08:22:28.991Z</time></trkpt><trkpt lat="44.247565" lon="8.44536"><ele>7.666666666666666</ele><time>2026-05-03T08:22:29.991Z</time></trkpt><trkpt lat="44.247485" lon="8.44533"><ele>9.0</ele><time>2026-05-03T08:22:30.99Z</time></trkpt><trkpt lat="44.2474017" lon="8.445295"><ele>10.333333333333332</ele><time>2026-05-03T08:22:31.99Z</time></trkpt><trkpt lat="44.2473167" lon="8.4452633"><ele>11.666666666666666</ele><time>2026-05-03T08:22:32.99Z</time></trkpt><trkpt lat="44.2472317" lon="8.4452267"><ele>13.0</ele><time>2026-05-03T08:22:33.99Z</time></trkpt><trkpt lat="44.2471467" lon="8.4451933"><ele>12.999999999999998</ele><time>2026-05-03T08:22:34.99Z</time></trkpt><trkpt lat="44.2470617" lon="8.44516"><ele>13.0</ele><time>2026-05-03T08:22:35.99Z</time></trkpt><trkpt lat="44.246975" lon="8.445145"><ele>13.0</ele><time>2026-05-03T08:22:36.99Z</time></trkpt><trkpt lat="44.2468983" lon="8.4451183"><ele>13.0</ele><time>2026-05-03T08:22:37.99Z</time></trkpt><trkpt lat="44.2468217" lon="8.4450867"><ele>12.999999999999998</ele><time>2026-05-03T08:22:38.991Z</time></trkpt><trkpt lat="44.246735" lon="8.44504"><ele>13.0</ele><time>2026-05-03T08:22:39.991Z</time></trkpt><trkpt lat="44.2466467" lon="8.444995"><ele>12.999999999999998</ele><time>2026-05-03T08:22:40.99Z</time></trkpt><trkpt lat="44.2465667" lon="8.444935"><ele>13.0</ele><time>2026-05-03T08:22:41.99Z</time></trkpt><trkpt lat="44.2464967" lon="8.4448767"><ele>13.0</ele><time>2026-05-03T08:22:42.99Z</time></trkpt><trkpt lat="44.2464367" lon="8.4448167"><ele>13.0</ele><time>2026-05-03T08:22:43.99Z</time></trkpt><trkpt lat="44.24638" lon="8.44474"><ele>12.999999999999998</ele><time>2026-05-03T08:22:44.99Z</time></trkpt><trkpt lat="44.2463233" lon="8.444665"><ele>13.0</ele><time>2026-05-03T08:22:45.99Z</time></trkpt><trkpt lat="44.2462583" lon="8.44459"><ele>13.499999999999998</ele><time>2026-05-03T08:22:46.99Z</time></trkpt><trkpt lat="44.246195" lon="8.4445217"><ele>14.0</ele><time>2026-05-03T08:22:47.991Z</time></trkpt><trkpt lat="44.24613" lon="8.4444467"><ele>14.5</ele><time>2026-05-03T08:22:48.99Z</time></trkpt><trkpt lat="44.2460617" lon="8.4443767"><ele>15.0</ele><time>2026-05-03T08:22:49.991Z</time></trkpt><trkpt lat="44.24598" lon="8.4443233"><ele>15.499999999999998</ele><time>2026-05-03T08:22:50.99Z</time></trkpt><trkpt lat="44.2459033" lon="8.4442783"><ele>16.0</ele><time>2026-05-03T08:22:51.991Z</time></trkpt><trkpt lat="44.24583" lon="8.4442417"><ele>16.0</ele><time>2026-05-03T08:22:52.99Z</time></trkpt><trkpt lat="44.2457567" lon="8.4442083"><ele>15.999999999999998</ele><time>2026-05-03T08:22:53.991Z</time></trkpt><trkpt lat="44.24568" lon="8.4441733"><ele>16.0</ele><time>2026-05-03T08:22:54.99Z</time></trkpt><trkpt lat="44.2456083" lon="8.4441383"><ele>16.0</ele><time>2026-05-03T08:22:55.99Z</time></trkpt><trkpt lat="44.2455367" lon="8.4441117"><ele>15.999999999999998</ele><time>2026-05-03T08:22:56.989Z</time></trkpt><trkpt lat="44.24547" lon="8.444085"><ele>16.0</ele><time>2026-05-03T08:22:57.989Z</time></trkpt><trkpt lat="44.2454033" lon="8.4440617"><ele>16.0</ele><time>2026-05-03T08:22:58.99Z</time></trkpt><trkpt lat="44.2453383" lon="8.44403"><ele>14.499999999999998</ele><time>2026-05-03T08:22:59.99Z</time></trkpt><trkpt lat="44.2452717" lon="8.4439967"><ele>13.0</ele><time>2026-05-03T08:23:00.989Z</time></trkpt><trkpt lat="44.2452067" lon="8.4439583"><ele>11.5</ele><time>2026-05-03T08:23:01.99Z</time></trkpt><trkpt lat="44.2451467" lon="8.4439167"><ele>10.0</ele><time>2026-05-03T08:23:02.989Z</time></trkpt><trkpt lat="44.2450764" lon="8.4438733"><ele>8.5</ele><time>2026-05-03T08:23:03.989Z</time></trkpt><trkpt lat="44.2449921" lon="8.4438191"><ele>7.0</ele><time>2026-05-03T08:23:04.989Z</time></trkpt><trkpt lat="44.244897" lon="8.4437573"><ele>12.75</ele><time>2026-05-03T08:23:05.989Z</time></trkpt><trkpt lat="44.2447867" lon="8.4436895"><ele>18.5</ele><time>2026-05-03T08:23:06.989Z</time></trkpt><trkpt lat="44.2446635" lon="8.4436279"><ele>24.25</ele><time>2026-05-03T08:23:07.99Z</time></trkpt><trkpt lat="44.2445374" lon="8.4435746"><ele>30.0</ele><time>2026-05-03T08:23:08.989Z</time></trkpt><trkpt lat="44.2444053" lon="8.4435379"><ele>30.0</ele><time>2026-05-03T08:23:09.99Z</time></trkpt><trkpt lat="44.2442686" lon="8.4435271"><ele>30.0</ele><time>2026-05-03T08:23:10.99Z</time></trkpt><trkpt lat="44.244123" lon="8.4435839"><ele>30.0</ele><time>2026-05-03T08:23:11.989Z</time></trkpt><trkpt lat="44.2439898" lon="8.443646"><ele>30.0</ele><time>2026-05-03T08:23:12.989Z</time></trkpt><trkpt lat="44.243865" lon="8.4437302"><ele>27.25</ele><time>2026-05-03T08:23:13.99Z</time></trkpt><trkpt lat="44.2437569" lon="8.4438561"><ele>24.5</ele><time>2026-05-03T08:23:14.989Z</time></trkpt><trkpt lat="44.243649" lon="8.4440055"><ele>21.75</ele><time>2026-05-03T08:23:15.989Z</time></trkpt><trkpt lat="44.2435555" lon="8.4441499"><ele>19.0</ele><time>2026-05-03T08:23:16.989Z</time></trkpt><trkpt lat="44.2434488" lon="8.4442881"><ele>19.0</ele><time>2026-05-03T08:23:17.989Z</time></trkpt><trkpt lat="44.2433228" lon="8.4444167"><ele>19.0</ele><time>2026-05-03T08:23:18.99Z</time></trkpt><trkpt lat="44.2431868" lon="8.4445221"><ele>19.0</ele><time>2026-05-03T08:23:19.99Z</time></trkpt><trkpt lat="44.2430495" lon="8.4445953"><ele>18.5</ele><time>2026-05-03T08:23:20.989Z</time></trkpt><trkpt lat="44.2429144" lon="8.4446532"><ele>18.0</ele><time>2026-05-03T08:23:21.99Z</time></trkpt><trkpt lat="44.2427732" lon="8.444707"><ele>17.5</ele><time>2026-05-03T08:23:22.989Z</time></trkpt><trkpt lat="44.2426391" lon="8.4447708"><ele>17.0</ele><time>2026-05-03T08:23:23.989Z</time></trkpt><trkpt lat="44.2425063" lon="8.444835"><ele>17.0</ele><time>2026-05-03T08:23:24.989Z</time></trkpt><trkpt lat="44.2423831" lon="8.4448923"><ele>17.0</ele><time>2026-05-03T08:23:25.989Z</time></trkpt><trkpt lat="44.2422619" lon="8.4449336"><ele>17.0</ele><time>2026-05-03T08:23:26.989Z</time></trkpt><trkpt lat="44.24214" lon="8.444954"><ele>17.0</ele><time>2026-05-03T08:23:27.989Z</time></trkpt><trkpt lat="44.2420096" lon="8.4449587"><ele>17.75</ele><time>2026-05-03T08:23:28.989Z</time></trkpt><trkpt lat="44.2418822" lon="8.4449284"><ele>18.5</ele><time>2026-05-03T08:23:29.989Z</time></trkpt><trkpt lat="44.2417597" lon="8.4448634"><ele>19.25</ele><time>2026-05-03T08:23:30.989Z</time></trkpt><trkpt lat="44.2416449" lon="8.444772"><ele>20.0</ele><time>2026-05-03T08:23:31.989Z</time></trkpt><trkpt lat="44.2415255" lon="8.4446503"><ele>23.5</ele><time>2026-05-03T08:23:32.989Z</time></trkpt><trkpt lat="44.2414042" lon="8.4445462"><ele>27.0</ele><time>2026-05-03T08:23:33.989Z</time></trkpt><trkpt lat="44.2412889" lon="8.4444556"><ele>30.5</ele><time>2026-05-03T08:23:34.99Z</time></trkpt><trkpt lat="44.2411708" lon="8.4443858"><ele>34.0</ele><time>2026-05-03T08:23:35.989Z</time></trkpt><trkpt lat="44.2410533" lon="8.4443351"><ele>34.0</ele><time>2026-05-03T08:23:36.989Z</time></trkpt><trkpt lat="44.2409376" lon="8.4442918"><ele>34.0</ele><time>2026-05-03T08:23:37.989Z</time></trkpt><trkpt lat="44.2408134" lon="8.4442441"><ele>34.0</ele><time>2026-05-03T08:23:38.99Z</time></trkpt><trkpt lat="44.240696" lon="8.4441886"><ele>34.0</ele><time>2026-05-03T08:23:39.989Z</time></trkpt><trkpt lat="44.2405822" lon="8.4441146"><ele>37.5</ele><time>2026-05-03T08:23:40.99Z</time></trkpt><trkpt lat="44.2404741" lon="8.4440114"><ele>41.0</ele><time>2026-05-03T08:23:41.989Z</time></trkpt><trkpt lat="44.2403811" lon="8.4438854"><ele>44.5</ele><time>2026-05-03T08:23:42.989Z</time></trkpt><trkpt lat="44.2402937" lon="8.4437426"><ele>48.0</ele><time>2026-05-03T08:23:43.989Z</time></trkpt><trkpt lat="44.2402093" lon="8.4435958"><ele>48.0</ele><time>2026-05-03T08:23:44.989Z</time></trkpt><trkpt lat="44.2401329" lon="8.4434557"><ele>48.0</ele><time>2026-05-03T08:23:45.989Z</time></trkpt><trkpt lat="44.2400598" lon="8.4433262"><ele>48.0</ele><time>2026-05-03T08:23:46.989Z</time></trkpt><trkpt lat="44.239985" lon="8.4431957"><ele>48.0</ele><time>2026-05-03T08:23:47.989Z</time></trkpt><trkpt lat="44.2399058" lon="8.4430762"><ele>50.0</ele><time>2026-05-03T08:23:48.99Z</time></trkpt><trkpt lat="44.2398267" lon="8.4429579"><ele>52.0</ele><time>2026-05-03T08:23:49.989Z</time></trkpt><trkpt lat="44.239741" lon="8.4428588"><ele>54.0</ele><time>2026-05-03T08:23:50.99Z</time></trkpt><trkpt lat="44.2396482" lon="8.4427782"><ele>56.0</ele><time>2026-05-03T08:23:51.989Z</time></trkpt><trkpt lat="44.2395498" lon="8.4427021"><ele>58.0</ele><time>2026-05-03T08:23:52.99Z</time></trkpt><trkpt lat="44.2394472" lon="8.4426242"><ele>58.0</ele><time>2026-05-03T08:23:53.99Z</time></trkpt><trkpt lat="44.2393474" lon="8.4425441"><ele>58.0</ele><time>2026-05-03T08:23:54.99Z</time></trkpt><trkpt lat="44.2392509" lon="8.4424735"><ele>58.0</ele><time>2026-05-03T08:23:55.989Z</time></trkpt><trkpt lat="44.2391565" lon="8.4424078"><ele>58.0</ele><time>2026-05-03T08:23:56.989Z</time></trkpt><trkpt lat="44.2390552" lon="8.4423566"><ele>58.0</ele><time>2026-05-03T08:23:57.989Z</time></trkpt><trkpt lat="44.2389456" lon="8.4423305"><ele>55.0</ele><time>2026-05-03T08:23:58.989Z</time></trkpt><trkpt lat="44.2388303" lon="8.4423328"><ele>52.0</ele><time>2026-05-03T08:23:59.99Z</time></trkpt><trkpt lat="44.238717" lon="8.4423726"><ele>49.0</ele><time>2026-05-03T08:24:00.99Z</time></trkpt><trkpt lat="44.2386053" lon="8.4424406"><ele>46.0</ele><time>2026-05-03T08:24:01.99Z</time></trkpt><trkpt lat="44.2385028" lon="8.4425313"><ele>46.0</ele><time>2026-05-03T08:24:02.99Z</time></trkpt><trkpt lat="44.2383944" lon="8.442619"><ele>46.0</ele><time>2026-05-03T08:24:03.989Z</time></trkpt><trkpt lat="44.2382878" lon="8.4426824"><ele>46.0</ele><time>2026-05-03T08:24:04.989Z</time></trkpt><trkpt lat="44.2381817" lon="8.4427246"><ele>46.0</ele><time>2026-05-03T08:24:05.99Z</time></trkpt><trkpt lat="44.2380771" lon="8.4427449"><ele>37.75</ele><time>2026-05-03T08:24:06.989Z</time></trkpt><trkpt lat="44.2379644" lon="8.442738"><ele>29.5</ele><time>2026-05-03T08:24:07.989Z</time></trkpt><trkpt lat="44.237848" lon="8.4426972"><ele>21.25</ele><time>2026-05-03T08:24:08.99Z</time></trkpt><trkpt lat="44.2377285" lon="8.4426428"><ele>13.0</ele><time>2026-05-03T08:24:09.989Z</time></trkpt><trkpt lat="44.237616" lon="8.4425791"><ele>13.0</ele><time>2026-05-03T08:24:10.989Z</time></trkpt><trkpt lat="44.237514" lon="8.4424995"><ele>13.0</ele><time>2026-05-03T08:24:11.989Z</time></trkpt><trkpt lat="44.2374251" lon="8.4423994"><ele>13.0</ele><time>2026-05-03T08:24:12.99Z</time></trkpt><trkpt lat="44.2373525" lon="8.4422639"><ele>13.0</ele><time>2026-05-03T08:24:13.99Z</time></trkpt><trkpt lat="44.2373002" lon="8.4420978"><ele>11.5</ele><time>2026-05-03T08:24:14.99Z</time></trkpt><trkpt lat="44.2372653" lon="8.4419179"><ele>10.0</ele><time>2026-05-03T08:24:15.989Z</time></trkpt><trkpt lat="44.2372476" lon="8.4417122"><ele>8.5</ele><time>2026-05-03T08:24:16.99Z</time></trkpt><trkpt lat="44.2372377" lon="8.4415212"><ele>7.0</ele><time>2026-05-03T08:24:17.99Z</time></trkpt><trkpt lat="44.2372346" lon="8.4413158"><ele>6.75</ele><time>2026-05-03T08:24:18.99Z</time></trkpt><trkpt lat="44.2372434" lon="8.4411229"><ele>6.5</ele><time>2026-05-03T08:24:19.989Z</time></trkpt><trkpt lat="44.2372517" lon="8.4409179"><ele>6.25</ele><time>2026-05-03T08:24:20.989Z</time></trkpt><trkpt lat="44.2372787" lon="8.440715"><ele>6.0</ele><time>2026-05-03T08:24:21.99Z</time></trkpt><trkpt lat="44.2372921" lon="8.4405281"><ele>10.75</ele><time>2026-05-03T08:24:22.989Z</time></trkpt><trkpt lat="44.2373052" lon="8.4403485"><ele>15.5</ele><time>2026-05-03T08:24:23.989Z</time></trkpt><trkpt lat="44.2373211" lon="8.4401802"><ele>20.25</ele><time>2026-05-03T08:24:24.99Z</time></trkpt><trkpt lat="44.2373488" lon="8.440014"><ele>25.0</ele><time>2026-05-03T08:24:25.989Z</time></trkpt><trkpt lat="44.2373788" lon="8.4398561"><ele>25.0</ele><time>2026-05-03T08:24:26.989Z</time></trkpt><trkpt lat="44.2374071" lon="8.4396855"><ele>25.0</ele><time>2026-05-03T08:24:27.989Z</time></trkpt><trkpt lat="44.2374695" lon="8.4395444"><ele>25.0</ele><time>2026-05-03T08:24:28.99Z</time></trkpt><trkpt lat="44.2375517" lon="8.4394183"><ele>25.0</ele><time>2026-05-03T08:24:29.99Z</time></trkpt><trkpt lat="44.2376412" lon="8.439302"><ele>21.5</ele><time>2026-05-03T08:24:30.989Z</time></trkpt><trkpt lat="44.2377392" lon="8.4391925"><ele>18.0</ele><time>2026-05-03T08:24:31.99Z</time></trkpt><trkpt lat="44.2378313" lon="8.439078"><ele>14.5</ele><time>2026-05-03T08:24:32.989Z</time></trkpt><trkpt lat="44.2379171" lon="8.4389618"><ele>11.0</ele><time>2026-05-03T08:24:33.989Z</time></trkpt><trkpt lat="44.2380011" lon="8.4388479"><ele>9.600000000000001</ele><time>2026-05-03T08:24:34.99Z</time></trkpt><trkpt lat="44.2380688" lon="8.4387452"><ele>8.200000000000001</ele><time>2026-05-03T08:24:35.989Z</time></trkpt><trkpt lat="44.2381215" lon="8.4386401"><ele>6.800000000000001</ele><time>2026-05-03T08:24:36.989Z</time></trkpt><trkpt lat="44.2381566" lon="8.4385149"><ele>5.4</ele><time>2026-05-03T08:24:37.989Z</time></trkpt><trkpt lat="44.2381673" lon="8.4383851"><ele>4.0</ele><time>2026-05-03T08:24:38.989Z</time></trkpt><trkpt lat="44.2381556" lon="8.4382541"><ele>4.0</ele><time>2026-05-03T08:24:39.989Z</time></trkpt><trkpt lat="44.2381248" lon="8.4381186"><ele>4.0</ele><time>2026-05-03T08:24:40.989Z</time></trkpt><trkpt lat="44.2380816" lon="8.4379785"><ele>4.0</ele><time>2026-05-03T08:24:41.99Z</time></trkpt><trkpt lat="44.2380309" lon="8.4378383"><ele>4.0</ele><time>2026-05-03T08:24:42.989Z</time></trkpt><trkpt lat="44.2379742" lon="8.4376983"><ele>4.0</ele><time>2026-05-03T08:24:43.989Z</time></trkpt><trkpt lat="44.2379145" lon="8.4375534"><ele>4.0</ele><time>2026-05-03T08:24:44.989Z</time></trkpt><trkpt lat="44.2378544" lon="8.4374139"><ele>4.0</ele><time>2026-05-03T08:24:45.989Z</time></trkpt><trkpt lat="44.2377956" lon="8.4372674"><ele>4.0</ele><time>2026-05-03T08:24:46.989Z</time></trkpt><trkpt lat="44.2377355" lon="8.4371116"><ele>4.0</ele><time>2026-05-03T08:24:47.989Z</time></trkpt><trkpt lat="44.2376753" lon="8.4369629"><ele>4.5</ele><time>2026-05-03T08:24:48.989Z</time></trkpt><trkpt lat="44.2376139" lon="8.4368188"><ele>5.0</ele><time>2026-05-03T08:24:49.99Z</time></trkpt><trkpt lat="44.2375521" lon="8.4366654"><ele>5.5</ele><time>2026-05-03T08:24:50.989Z</time></trkpt><trkpt lat="44.2374938" lon="8.4365131"><ele>6.0</ele><time>2026-05-03T08:24:51.989Z</time></trkpt><trkpt lat="44.2374356" lon="8.4363683"><ele>6.0</ele><time>2026-05-03T08:24:52.99Z</time></trkpt><trkpt lat="44.2373786" lon="8.4362184"><ele>6.0</ele><time>2026-05-03T08:24:53.989Z</time></trkpt><trkpt lat="44.2373217" lon="8.4360648"><ele>6.0</ele><time>2026-05-03T08:24:54.989Z</time></trkpt><trkpt lat="44.2372581" lon="8.435921"><ele>6.0</ele><time>2026-05-03T08:24:55.989Z</time></trkpt><trkpt lat="44.2371983" lon="8.4357739"><ele>5.5</ele><time>2026-05-03T08:24:56.989Z</time></trkpt><trkpt lat="44.2371396" lon="8.4356319"><ele>5.0</ele><time>2026-05-03T08:24:57.989Z</time></trkpt><trkpt lat="44.2370788" lon="8.4354878"><ele>4.5</ele><time>2026-05-03T08:24:58.989Z</time></trkpt><trkpt lat="44.2370159" lon="8.4353416"><ele>4.0</ele><time>2026-05-03T08:24:59.99Z</time></trkpt><trkpt lat="44.2369523" lon="8.4351923"><ele>4.0</ele><time>2026-05-03T08:25:00.989Z</time></trkpt><trkpt lat="44.236891" lon="8.4350362"><ele>4.0</ele><time>2026-05-03T08:25:01.989Z</time></trkpt><trkpt lat="44.2368271" lon="8.4348806"><ele>4.0</ele><time>2026-05-03T08:25:02.99Z</time></trkpt><trkpt lat="44.2367651" lon="8.434719"><ele>4.0</ele><time>2026-05-03T08:25:03.989Z</time></trkpt><trkpt lat="44.2367009" lon="8.4345556"><ele>4.5</ele><time>2026-05-03T08:25:04.989Z</time></trkpt><trkpt lat="44.2366407" lon="8.4343918"><ele>5.0</ele><time>2026-05-03T08:25:05.989Z</time></trkpt><trkpt lat="44.2365779" lon="8.434228"><ele>5.5</ele><time>2026-05-03T08:25:06.99Z</time></trkpt><trkpt lat="44.2365122" lon="8.4340609"><ele>6.0</ele><time>2026-05-03T08:25:07.99Z</time></trkpt><trkpt lat="44.2364491" lon="8.4338894"><ele>5.5</ele><time>2026-05-03T08:25:08.989Z</time></trkpt><trkpt lat="44.2363821" lon="8.4337332"><ele>5.0</ele><time>2026-05-03T08:25:09.989Z</time></trkpt><trkpt lat="44.2363125" lon="8.4335802"><ele>4.5</ele><time>2026-05-03T08:25:10.989Z</time></trkpt><trkpt lat="44.2362462" lon="8.4334251"><ele>4.0</ele><time>2026-05-03T08:25:11.989Z</time></trkpt><trkpt lat="44.2361786" lon="8.4332651"><ele>4.0</ele><time>2026-05-03T08:25:12.989Z</time></trkpt><trkpt lat="44.2361132" lon="8.4331056"><ele>4.0</ele><time>2026-05-03T08:25:13.989Z</time></trkpt><trkpt lat="44.236048" lon="8.4329563"><ele>4.0</ele><time>2026-05-03T08:25:14.99Z</time></trkpt><trkpt lat="44.2359816" lon="8.4328067"><ele>4.0</ele><time>2026-05-03T08:25:15.989Z</time></trkpt><trkpt lat="44.2359112" lon="8.4326604"><ele>4.0</ele><time>2026-05-03T08:25:16.99Z</time></trkpt><trkpt lat="44.2358392" lon="8.4325075"><ele>4.0</ele><time>2026-05-03T08:25:17.989Z</time></trkpt><trkpt lat="44.2357682" lon="8.4323566"><ele>4.0</ele><time>2026-05-03T08:25:18.99Z</time></trkpt><trkpt lat="44.2357025" lon="8.4322002"><ele>4.0</ele><time>2026-05-03T08:25:19.989Z</time></trkpt><trkpt lat="44.2356275" lon="8.432048"><ele>4.0</ele><time>2026-05-03T08:25:20.99Z</time></trkpt><trkpt lat="44.2355558" lon="8.4319052"><ele>4.0</ele><time>2026-05-03T08:25:21.989Z</time></trkpt><trkpt lat="44.2354766" lon="8.4317466"><ele>4.0</ele><time>2026-05-03T08:25:22.989Z</time></trkpt><trkpt lat="44.2354031" lon="8.4315861"><ele>4.0</ele><time>2026-05-03T08:25:23.989Z</time></trkpt><trkpt lat="44.2353349" lon="8.4314371"><ele>4.0</ele><time>2026-05-03T08:25:24.989Z</time></trkpt><trkpt lat="44.2352678" lon="8.4312798"><ele>4.0</ele><time>2026-05-03T08:25:25.99Z</time></trkpt><trkpt lat="44.2351929" lon="8.431123"><ele>4.0</ele><time>2026-05-03T08:25:26.99Z</time></trkpt><trkpt lat="44.2351134" lon="8.4309689"><ele>4.0</ele><time>2026-05-03T08:25:27.989Z</time></trkpt><trkpt lat="44.2350331" lon="8.4308132"><ele>4.0</ele><time>2026-05-03T08:25:28.989Z</time></trkpt><trkpt lat="44.2349545" lon="8.4306589"><ele>4.0</ele><time>2026-05-03T08:25:29.99Z</time></trkpt><trkpt lat="44.2348764" lon="8.4305025"><ele>4.0</ele><time>2026-05-03T08:25:30.989Z</time></trkpt><trkpt lat="44.2347932" lon="8.4303494"><ele>4.0</ele><time>2026-05-03T08:25:31.99Z</time></trkpt><trkpt lat="44.2347133" lon="8.4301962"><ele>4.0</ele><time>2026-05-03T08:25:32.989Z</time></trkpt><trkpt lat="44.2346296" lon="8.4300432"><ele>4.0</ele><time>2026-05-03T08:25:33.989Z</time></trkpt><trkpt lat="44.2345482" lon="8.4298917"><ele>4.0</ele><time>2026-05-03T08:25:34.989Z</time></trkpt><trkpt lat="44.2344614" lon="8.4297414"><ele>4.0</ele><time>2026-05-03T08:25:35.989Z</time></trkpt><trkpt lat="44.2343807" lon="8.4295864"><ele>4.0</ele><time>2026-05-03T08:25:36.99Z</time></trkpt><trkpt lat="44.2342993" lon="8.4294404"><ele>4.0</ele><time>2026-05-03T08:25:37.989Z</time></trkpt><trkpt lat="44.2342139" lon="8.4292992"><ele>4.0</ele><time>2026-05-03T08:25:38.989Z</time></trkpt><trkpt lat="44.234131" lon="8.4291537"><ele>4.0</ele><time>2026-05-03T08:25:39.99Z</time></trkpt><trkpt lat="44.2340487" lon="8.4290008"><ele>3.75</ele><time>2026-05-03T08:25:40.989Z</time></trkpt><trkpt lat="44.2339652" lon="8.4288464"><ele>3.5</ele><time>2026-05-03T08:25:41.989Z</time></trkpt><trkpt lat="44.2338792" lon="8.4286956"><ele>3.25</ele><time>2026-05-03T08:25:42.989Z</time></trkpt><trkpt lat="44.2337923" lon="8.4285497"><ele>3.0</ele><time>2026-05-03T08:25:43.99Z</time></trkpt><trkpt lat="44.2337026" lon="8.4284033"><ele>3.5</ele><time>2026-05-03T08:25:44.989Z</time></trkpt><trkpt lat="44.233608" lon="8.4282747"><ele>4.0</ele><time>2026-05-03T08:25:45.989Z</time></trkpt><trkpt lat="44.2335008" lon="8.428162"><ele>4.5</ele><time>2026-05-03T08:25:46.989Z</time></trkpt><trkpt lat="44.2333887" lon="8.4280699"><ele>5.0</ele><time>2026-05-03T08:25:47.99Z</time></trkpt><trkpt lat="44.2332653" lon="8.4279998"><ele>6.0</ele><time>2026-05-03T08:25:48.99Z</time></trkpt><trkpt lat="44.2331379" lon="8.4279366"><ele>7.0</ele><time>2026-05-03T08:25:49.99Z</time></trkpt><trkpt lat="44.2330101" lon="8.4278739"><ele>8.0</ele><time>2026-05-03T08:25:50.99Z</time></trkpt><trkpt lat="44.2328851" lon="8.4278113"><ele>9.0</ele><time>2026-05-03T08:25:51.99Z</time></trkpt><trkpt lat="44.2327659" lon="8.4277555"><ele>9.0</ele><time>2026-05-03T08:25:52.989Z</time></trkpt><trkpt lat="44.2326518" lon="8.4276761"><ele>9.0</ele><time>2026-05-03T08:25:53.99Z</time></trkpt><trkpt lat="44.2325564" lon="8.4275741"><ele>9.0</ele><time>2026-05-03T08:25:54.99Z</time></trkpt><trkpt lat="44.2324772" lon="8.4274386"><ele>9.0</ele><time>2026-05-03T08:25:55.989Z</time></trkpt><trkpt lat="44.2324162" lon="8.427287"><ele>10.75</ele><time>2026-05-03T08:25:56.989Z</time></trkpt><trkpt lat="44.2323691" lon="8.4271235"><ele>12.5</ele><time>2026-05-03T08:25:57.99Z</time></trkpt><trkpt lat="44.2323285" lon="8.4269575"><ele>14.25</ele><time>2026-05-03T08:25:58.989Z</time></trkpt><trkpt lat="44.2322874" lon="8.4267969"><ele>16.0</ele><time>2026-05-03T08:25:59.99Z</time></trkpt><trkpt lat="44.2322429" lon="8.4266444"><ele>14.5</ele><time>2026-05-03T08:26:00.99Z</time></trkpt><trkpt lat="44.2321967" lon="8.4264952"><ele>13.0</ele><time>2026-05-03T08:26:01.99Z</time></trkpt><trkpt lat="44.2321419" lon="8.4263512"><ele>11.5</ele><time>2026-05-03T08:26:02.99Z</time></trkpt><trkpt lat="44.2320781" lon="8.4262135"><ele>10.0</ele><time>2026-05-03T08:26:03.989Z</time></trkpt><trkpt lat="44.2320067" lon="8.4260753"><ele>10.0</ele><time>2026-05-03T08:26:04.99Z</time></trkpt><trkpt lat="44.2319264" lon="8.4259404"><ele>10.0</ele><time>2026-05-03T08:26:05.99Z</time></trkpt><trkpt lat="44.2318482" lon="8.4258058"><ele>10.0</ele><time>2026-05-03T08:26:06.989Z</time></trkpt><trkpt lat="44.2317708" lon="8.4256733"><ele>10.0</ele><time>2026-05-03T08:26:07.989Z</time></trkpt><trkpt lat="44.2316949" lon="8.4255345"><ele>10.5</ele><time>2026-05-03T08:26:08.989Z</time></trkpt><trkpt lat="44.2316221" lon="8.4254009"><ele>11.0</ele><time>2026-05-03T08:26:09.989Z</time></trkpt><trkpt lat="44.2315494" lon="8.4252696"><ele>11.5</ele><time>2026-05-03T08:26:10.99Z</time></trkpt><trkpt lat="44.2314815" lon="8.4251366"><ele>12.0</ele><time>2026-05-03T08:26:11.989Z</time></trkpt><trkpt lat="44.2314147" lon="8.4250036"><ele>12.0</ele><time>2026-05-03T08:26:12.989Z</time></trkpt><trkpt lat="44.2313468" lon="8.4248755"><ele>12.0</ele><time>2026-05-03T08:26:13.989Z</time></trkpt><trkpt lat="44.2312771" lon="8.4247503"><ele>12.0</ele><time>2026-05-03T08:26:14.989Z</time></trkpt><trkpt lat="44.2312008" lon="8.424626"><ele>12.0</ele><time>2026-05-03T08:26:15.989Z</time></trkpt><trkpt lat="44.2311254" lon="8.4245068"><ele>12.399999999999999</ele><time>2026-05-03T08:26:16.989Z</time></trkpt><trkpt lat="44.2310496" lon="8.4243925"><ele>12.799999999999999</ele><time>2026-05-03T08:26:17.989Z</time></trkpt><trkpt lat="44.2309784" lon="8.4242838"><ele>13.2</ele><time>2026-05-03T08:26:18.99Z</time></trkpt><trkpt lat="44.2309119" lon="8.4241729"><ele>13.6</ele><time>2026-05-03T08:26:19.989Z</time></trkpt><trkpt lat="44.230851" lon="8.4240629"><ele>14.0</ele><time>2026-05-03T08:26:20.99Z</time></trkpt><trkpt lat="44.2307956" lon="8.4239631"><ele>14.0</ele><time>2026-05-03T08:26:21.989Z</time></trkpt><trkpt lat="44.2307453" lon="8.4238772"><ele>14.0</ele><time>2026-05-03T08:26:22.99Z</time></trkpt><trkpt lat="44.2306911" lon="8.4237927"><ele>14.0</ele><time>2026-05-03T08:26:23.989Z</time></trkpt><trkpt lat="44.2306395" lon="8.4237229"><ele>14.0</ele><time>2026-05-03T08:26:24.99Z</time></trkpt><trkpt lat="44.2305965" lon="8.4236533"><ele>14.0</ele><time>2026-05-03T08:26:25.989Z</time></trkpt><trkpt lat="44.2305804" lon="8.423549"><ele>14.0</ele><time>2026-05-03T08:26:27.99Z</time></trkpt><trkpt lat="44.2306029" lon="8.4234605"><ele>14.0</ele><time>2026-05-03T08:26:29.99Z</time></trkpt><trkpt lat="44.2305672" lon="8.4233415"><ele>13.666666666666668</ele><time>2026-05-03T08:26:31.989Z</time></trkpt><trkpt lat="44.2305294" lon="8.4232585"><ele>13.333333333333334</ele><time>2026-05-03T08:26:32.989Z</time></trkpt><trkpt lat="44.2304761" lon="8.4231608"><ele>13.0</ele><time>2026-05-03T08:26:33.99Z</time></trkpt><trkpt lat="44.2304134" lon="8.4230488"><ele>12.666666666666668</ele><time>2026-05-03T08:26:34.99Z</time></trkpt><trkpt lat="44.2303544" lon="8.4229408"><ele>12.333333333333334</ele><time>2026-05-03T08:26:35.989Z</time></trkpt><trkpt lat="44.2302991" lon="8.4228391"><ele>12.0</ele><time>2026-05-03T08:26:36.989Z</time></trkpt><trkpt lat="44.2302479" lon="8.4227481"><ele>12.0</ele><time>2026-05-03T08:26:37.989Z</time></trkpt><trkpt lat="44.2301978" lon="8.4226551"><ele>12.0</ele><time>2026-05-03T08:26:38.989Z</time></trkpt><trkpt lat="44.2301441" lon="8.4225545"><ele>12.0</ele><time>2026-05-03T08:26:39.989Z</time></trkpt><trkpt lat="44.2300954" lon="8.4224402"><ele>12.0</ele><time>2026-05-03T08:26:40.99Z</time></trkpt><trkpt lat="44.2300435" lon="8.422325"><ele>12.0</ele><time>2026-05-03T08:26:41.989Z</time></trkpt><trkpt lat="44.2299892" lon="8.4222123"><ele>11.8</ele><time>2026-05-03T08:26:42.99Z</time></trkpt><trkpt lat="44.2299304" lon="8.4220995"><ele>11.6</ele><time>2026-05-03T08:26:43.989Z</time></trkpt><trkpt lat="44.2298678" lon="8.4219846"><ele>11.4</ele><time>2026-05-03T08:26:44.989Z</time></trkpt><trkpt lat="44.229813" lon="8.4218612"><ele>11.200000000000001</ele><time>2026-05-03T08:26:45.989Z</time></trkpt><trkpt lat="44.2297572" lon="8.4217435"><ele>11.0</ele><time>2026-05-03T08:26:46.989Z</time></trkpt><trkpt lat="44.2297023" lon="8.4216275"><ele>11.0</ele><time>2026-05-03T08:26:47.99Z</time></trkpt><trkpt lat="44.2296537" lon="8.4215098"><ele>11.0</ele><time>2026-05-03T08:26:48.99Z</time></trkpt><trkpt lat="44.2295953" lon="8.4213994"><ele>11.0</ele><time>2026-05-03T08:26:49.99Z</time></trkpt><trkpt lat="44.2295354" lon="8.421291"><ele>11.0</ele><time>2026-05-03T08:26:50.99Z</time></trkpt><trkpt lat="44.2294765" lon="8.4211832"><ele>11.0</ele><time>2026-05-03T08:26:51.989Z</time></trkpt><trkpt lat="44.2294201" lon="8.4210749"><ele>10.833333333333332</ele><time>2026-05-03T08:26:52.989Z</time></trkpt><trkpt lat="44.2293662" lon="8.4209661"><ele>10.666666666666666</ele><time>2026-05-03T08:26:53.99Z</time></trkpt><trkpt lat="44.2293188" lon="8.4208656"><ele>10.5</ele><time>2026-05-03T08:26:54.99Z</time></trkpt><trkpt lat="44.229275" lon="8.4207668"><ele>10.333333333333334</ele><time>2026-05-03T08:26:55.99Z</time></trkpt><trkpt lat="44.2292319" lon="8.4206636"><ele>10.166666666666668</ele><time>2026-05-03T08:26:56.989Z</time></trkpt><trkpt lat="44.2291851" lon="8.420548"><ele>10.0</ele><time>2026-05-03T08:26:57.989Z</time></trkpt><trkpt lat="44.229136" lon="8.4204304"><ele>10.6</ele><time>2026-05-03T08:26:58.989Z</time></trkpt><trkpt lat="44.2290882" lon="8.4203023"><ele>11.2</ele><time>2026-05-03T08:26:59.99Z</time></trkpt><trkpt lat="44.2290413" lon="8.420174"><ele>11.8</ele><time>2026-05-03T08:27:00.989Z</time></trkpt><trkpt lat="44.2289961" lon="8.4200438"><ele>12.4</ele><time>2026-05-03T08:27:01.989Z</time></trkpt><trkpt lat="44.2289511" lon="8.4199132"><ele>13.0</ele><time>2026-05-03T08:27:02.989Z</time></trkpt><trkpt lat="44.2289048" lon="8.419791"><ele>12.200000000000001</ele><time>2026-05-03T08:27:03.99Z</time></trkpt><trkpt lat="44.2288554" lon="8.4196614"><ele>11.4</ele><time>2026-05-03T08:27:04.99Z</time></trkpt><trkpt lat="44.2288039" lon="8.4195349"><ele>10.600000000000001</ele><time>2026-05-03T08:27:05.99Z</time></trkpt><trkpt lat="44.2287546" lon="8.4194091"><ele>9.8</ele><time>2026-05-03T08:27:06.989Z</time></trkpt><trkpt lat="44.2287099" lon="8.4192722"><ele>9.0</ele><time>2026-05-03T08:27:07.989Z</time></trkpt><trkpt lat="44.2286563" lon="8.4191273"><ele>9.0</ele><time>2026-05-03T08:27:08.989Z</time></trkpt><trkpt lat="44.2286073" lon="8.4189795"><ele>9.0</ele><time>2026-05-03T08:27:09.989Z</time></trkpt><trkpt lat="44.2285589" lon="8.4188431"><ele>9.0</ele><time>2026-05-03T08:27:10.989Z</time></trkpt><trkpt lat="44.2285107" lon="8.4187019"><ele>9.0</ele><time>2026-05-03T08:27:11.989Z</time></trkpt><trkpt lat="44.2284624" lon="8.4185643"><ele>9.0</ele><time>2026-05-03T08:27:12.99Z</time></trkpt><trkpt lat="44.2284101" lon="8.4184219"><ele>9.2</ele><time>2026-05-03T08:27:13.989Z</time></trkpt><trkpt lat="44.2283579" lon="8.4182842"><ele>9.4</ele><time>2026-05-03T08:27:14.989Z</time></trkpt><trkpt lat="44.228306" lon="8.4181488"><ele>9.6</ele><time>2026-05-03T08:27:15.99Z</time></trkpt><trkpt lat="44.2282482" lon="8.418014"><ele>9.8</ele><time>2026-05-03T08:27:16.989Z</time></trkpt><trkpt lat="44.2281898" lon="8.4178819"><ele>10.0</ele><time>2026-05-03T08:27:17.989Z</time></trkpt><trkpt lat="44.2281296" lon="8.4177463"><ele>9.2</ele><time>2026-05-03T08:27:18.989Z</time></trkpt><trkpt lat="44.2280688" lon="8.4176225"><ele>8.4</ele><time>2026-05-03T08:27:19.99Z</time></trkpt><trkpt lat="44.2280017" lon="8.4175227"><ele>7.6</ele><time>2026-05-03T08:27:20.989Z</time></trkpt><trkpt lat="44.2279377" lon="8.4174296"><ele>6.8</ele><time>2026-05-03T08:27:21.989Z</time></trkpt><trkpt lat="44.2278653" lon="8.4173482"><ele>6.0</ele><time>2026-05-03T08:27:22.989Z</time></trkpt><trkpt lat="44.2277937" lon="8.4172693"><ele>6.0</ele><time>2026-05-03T08:27:23.989Z</time></trkpt><trkpt lat="44.2277401" lon="8.4171709"><ele>6.0</ele><time>2026-05-03T08:27:24.989Z</time></trkpt><trkpt lat="44.2276769" lon="8.4171086"><ele>6.0</ele><time>2026-05-03T08:27:25.989Z</time></trkpt><trkpt lat="44.2276166" lon="8.4170497"><ele>6.0</ele><time>2026-05-03T08:27:26.99Z</time></trkpt><trkpt lat="44.2275592" lon="8.4169947"><ele>6.0</ele><time>2026-05-03T08:27:27.989Z</time></trkpt><trkpt lat="44.2274831" lon="8.4168695"><ele>6.0</ele><time>2026-05-03T08:27:29.99Z</time></trkpt><trkpt lat="44.2274634" lon="8.4167248"><ele>6.333333333333333</ele><time>2026-05-03T08:27:31.989Z</time></trkpt><trkpt lat="44.2275186" lon="8.4165741"><ele>6.666666666666666</ele><time>2026-05-03T08:27:33.989Z</time></trkpt><trkpt lat="44.2275272" lon="8.4164829"><ele>7.0</ele><time>2026-05-03T08:27:34.989Z</time></trkpt><trkpt lat="44.2275172" lon="8.4163867"><ele>7.333333333333333</ele><time>2026-05-03T08:27:35.989Z</time></trkpt><trkpt lat="44.2274975" lon="8.4162843"><ele>7.666666666666666</ele><time>2026-05-03T08:27:36.99Z</time></trkpt><trkpt lat="44.227469" lon="8.4161854"><ele>8.0</ele><time>2026-05-03T08:27:37.989Z</time></trkpt><trkpt lat="44.2274378" lon="8.4160867"><ele>7.833333333333333</ele><time>2026-05-03T08:27:38.989Z</time></trkpt><trkpt lat="44.2273996" lon="8.4159903"><ele>7.666666666666666</ele><time>2026-05-03T08:27:39.989Z</time></trkpt><trkpt lat="44.2273614" lon="8.4158913"><ele>7.5</ele><time>2026-05-03T08:27:40.989Z</time></trkpt><trkpt lat="44.227327" lon="8.4157922"><ele>7.333333333333334</ele><time>2026-05-03T08:27:41.989Z</time></trkpt><trkpt lat="44.2272942" lon="8.4156897"><ele>7.166666666666667</ele><time>2026-05-03T08:27:42.989Z</time></trkpt><trkpt lat="44.2272568" lon="8.4155844"><ele>7.0</ele><time>2026-05-03T08:27:43.989Z</time></trkpt><trkpt lat="44.227213" lon="8.4154719"><ele>7.0</ele><time>2026-05-03T08:27:44.989Z</time></trkpt><trkpt lat="44.2271634" lon="8.4153667"><ele>6.999999999999999</ele><time>2026-05-03T08:27:45.99Z</time></trkpt><trkpt lat="44.227119" lon="8.4152581"><ele>6.999999999999999</ele><time>2026-05-03T08:27:46.99Z</time></trkpt><trkpt lat="44.2270754" lon="8.415147"><ele>7.0</ele><time>2026-05-03T08:27:47.989Z</time></trkpt><trkpt lat="44.2270308" lon="8.4150372"><ele>7.0</ele><time>2026-05-03T08:27:48.989Z</time></trkpt><trkpt lat="44.2269953" lon="8.4149179"><ele>7.0</ele><time>2026-05-03T08:27:49.989Z</time></trkpt><trkpt lat="44.2269612" lon="8.4147958"><ele>6.999999999999999</ele><time>2026-05-03T08:27:50.989Z</time></trkpt><trkpt lat="44.2269334" lon="8.4146565"><ele>6.999999999999999</ele><time>2026-05-03T08:27:51.99Z</time></trkpt><trkpt lat="44.2269237" lon="8.4145144"><ele>7.0</ele><time>2026-05-03T08:27:52.99Z</time></trkpt><trkpt lat="44.2269323" lon="8.4143719"><ele>7.0</ele><time>2026-05-03T08:27:53.99Z</time></trkpt><trkpt lat="44.2269377" lon="8.4142446"><ele>7.166666666666667</ele><time>2026-05-03T08:27:54.989Z</time></trkpt><trkpt lat="44.2269472" lon="8.4141354"><ele>7.333333333333334</ele><time>2026-05-03T08:27:55.989Z</time></trkpt><trkpt lat="44.2269658" lon="8.4140417"><ele>7.5</ele><time>2026-05-03T08:27:56.989Z</time></trkpt><trkpt lat="44.2270098" lon="8.413883"><ele>7.666666666666666</ele><time>2026-05-03T08:27:58.989Z</time></trkpt><trkpt lat="44.2270491" lon="8.4138116"><ele>7.833333333333333</ele><time>2026-05-03T08:27:59.99Z</time></trkpt><trkpt lat="44.227097" lon="8.4137502"><ele>8.0</ele><time>2026-05-03T08:28:00.989Z</time></trkpt><trkpt lat="44.2271628" lon="8.4136937"><ele>7.999999999999999</ele><time>2026-05-03T08:28:01.989Z</time></trkpt><trkpt lat="44.2272356" lon="8.4136419"><ele>8.0</ele><time>2026-05-03T08:28:02.989Z</time></trkpt><trkpt lat="44.2273125" lon="8.4135981"><ele>8.0</ele><time>2026-05-03T08:28:03.989Z</time></trkpt><trkpt lat="44.2273827" lon="8.4135575"><ele>8.0</ele><time>2026-05-03T08:28:04.99Z</time></trkpt><trkpt lat="44.2274529" lon="8.4135195"><ele>7.999999999999999</ele><time>2026-05-03T08:28:05.989Z</time></trkpt><trkpt lat="44.227514" lon="8.4134878"><ele>8.0</ele><time>2026-05-03T08:28:06.989Z</time></trkpt><trkpt lat="44.2276204" lon="8.4134052"><ele>8.4</ele><time>2026-05-03T08:28:08.99Z</time></trkpt><trkpt lat="44.2277194" lon="8.4133182"><ele>8.8</ele><time>2026-05-03T08:28:10.989Z</time></trkpt><trkpt lat="44.227819" lon="8.4132279"><ele>9.2</ele><time>2026-05-03T08:28:12.989Z</time></trkpt><trkpt lat="44.2278929" lon="8.4131233"><ele>9.6</ele><time>2026-05-03T08:28:14.989Z</time></trkpt><trkpt lat="44.2279222" lon="8.4129862"><ele>10.0</ele><time>2026-05-03T08:28:16.989Z</time></trkpt><trkpt lat="44.2279206" lon="8.4128967"><ele>10.333333333333334</ele><time>2026-05-03T08:28:17.99Z</time></trkpt><trkpt lat="44.2279237" lon="8.412795"><ele>10.666666666666668</ele><time>2026-05-03T08:28:18.989Z</time></trkpt><trkpt lat="44.2279264" lon="8.4126816"><ele>11.0</ele><time>2026-05-03T08:28:19.99Z</time></trkpt><trkpt lat="44.2279267" lon="8.4125731"><ele>11.333333333333334</ele><time>2026-05-03T08:28:20.989Z</time></trkpt><trkpt lat="44.2279229" lon="8.4124666"><ele>11.666666666666666</ele><time>2026-05-03T08:28:21.989Z</time></trkpt><trkpt lat="44.2279195" lon="8.412362"><ele>12.0</ele><time>2026-05-03T08:28:22.99Z</time></trkpt><trkpt lat="44.2279138" lon="8.4122517"><ele>12.399999999999999</ele><time>2026-05-03T08:28:23.989Z</time></trkpt><trkpt lat="44.2279085" lon="8.4121374"><ele>12.799999999999999</ele><time>2026-05-03T08:28:24.989Z</time></trkpt><trkpt lat="44.227906" lon="8.4120276"><ele>13.2</ele><time>2026-05-03T08:28:25.989Z</time></trkpt><trkpt lat="44.2279053" lon="8.4119354"><ele>13.6</ele><time>2026-05-03T08:28:26.99Z</time></trkpt><trkpt lat="44.227885" lon="8.4117644"><ele>14.0</ele><time>2026-05-03T08:28:28.989Z</time></trkpt><trkpt lat="44.2278655" lon="8.4116091"><ele>14.0</ele><time>2026-05-03T08:28:30.989Z</time></trkpt><trkpt lat="44.227849" lon="8.4114403"><ele>13.999999999999998</ele><time>2026-05-03T08:28:32.99Z</time></trkpt><trkpt lat="44.2278068" lon="8.411334"><ele>13.999999999999998</ele><time>2026-05-03T08:28:33.989Z</time></trkpt><trkpt lat="44.2277716" lon="8.4112316"><ele>14.0</ele><time>2026-05-03T08:28:34.989Z</time></trkpt><trkpt lat="44.227748" lon="8.4111147"><ele>14.0</ele><time>2026-05-03T08:28:35.989Z</time></trkpt><trkpt lat="44.2277222" lon="8.4109946"><ele>14.166666666666668</ele><time>2026-05-03T08:28:36.989Z</time></trkpt><trkpt lat="44.2276983" lon="8.4108804"><ele>14.333333333333334</ele><time>2026-05-03T08:28:37.989Z</time></trkpt><trkpt lat="44.2276899" lon="8.4107569"><ele>14.5</ele><time>2026-05-03T08:28:38.989Z</time></trkpt><trkpt lat="44.227675" lon="8.410632"><ele>14.666666666666668</ele><time>2026-05-03T08:28:39.989Z</time></trkpt><trkpt lat="44.227662" lon="8.4105087"><ele>14.833333333333334</ele><time>2026-05-03T08:28:40.989Z</time></trkpt><trkpt lat="44.2276551" lon="8.410389"><ele>15.0</ele><time>2026-05-03T08:28:41.989Z</time></trkpt><trkpt lat="44.2276411" lon="8.4102733"><ele>15.0</ele><time>2026-05-03T08:28:42.989Z</time></trkpt><trkpt lat="44.2276253" lon="8.4101573"><ele>15.0</ele><time>2026-05-03T08:28:43.99Z</time></trkpt><trkpt lat="44.2276114" lon="8.4100446"><ele>15.0</ele><time>2026-05-03T08:28:44.989Z</time></trkpt><trkpt lat="44.2275931" lon="8.4099266"><ele>15.0</ele><time>2026-05-03T08:28:45.99Z</time></trkpt><trkpt lat="44.2275845" lon="8.4098021"><ele>15.0</ele><time>2026-05-03T08:28:46.99Z</time></trkpt><trkpt lat="44.2275886" lon="8.4096828"><ele>15.0</ele><time>2026-05-03T08:28:47.989Z</time></trkpt><trkpt lat="44.2276016" lon="8.4095623"><ele>14.166666666666666</ele><time>2026-05-03T08:28:48.989Z</time></trkpt><trkpt lat="44.2276157" lon="8.4094383"><ele>13.333333333333334</ele><time>2026-05-03T08:28:49.989Z</time></trkpt><trkpt lat="44.2276508" lon="8.4093308"><ele>12.5</ele><time>2026-05-03T08:28:50.99Z</time></trkpt><trkpt lat="44.227689" lon="8.4092251"><ele>11.666666666666668</ele><time>2026-05-03T08:28:51.989Z</time></trkpt><trkpt lat="44.2277222" lon="8.4091238"><ele>10.833333333333334</ele><time>2026-05-03T08:28:52.989Z</time></trkpt><trkpt lat="44.2277394" lon="8.4090265"><ele>10.0</ele><time>2026-05-03T08:28:53.989Z</time></trkpt><trkpt lat="44.2277434" lon="8.4089186"><ele>10.0</ele><time>2026-05-03T08:28:54.988Z</time></trkpt><trkpt lat="44.2277293" lon="8.4088089"><ele>10.0</ele><time>2026-05-03T08:28:55.989Z</time></trkpt><trkpt lat="44.2276998" lon="8.4087092"><ele>10.0</ele><time>2026-05-03T08:28:56.989Z</time></trkpt><trkpt lat="44.2276495" lon="8.4086136"><ele>10.0</ele><time>2026-05-03T08:28:57.989Z</time></trkpt><trkpt lat="44.2275947" lon="8.4085266"><ele>10.0</ele><time>2026-05-03T08:28:58.988Z</time></trkpt><trkpt lat="44.2275433" lon="8.4084457"><ele>10.0</ele><time>2026-05-03T08:28:59.989Z</time></trkpt><trkpt lat="44.2274909" lon="8.4083748"><ele>10.0</ele><time>2026-05-03T08:29:00.989Z</time></trkpt><trkpt lat="44.2274438" lon="8.4082876"><ele>10.0</ele><time>2026-05-03T08:29:01.989Z</time></trkpt><trkpt lat="44.2274133" lon="8.4081904"><ele>10.0</ele><time>2026-05-03T08:29:02.988Z</time></trkpt><trkpt lat="44.2274012" lon="8.4080864"><ele>10.0</ele><time>2026-05-03T08:29:03.988Z</time></trkpt><trkpt lat="44.2274074" lon="8.4079752"><ele>10.0</ele><time>2026-05-03T08:29:04.989Z</time></trkpt><trkpt lat="44.2274203" lon="8.4078613"><ele>10.0</ele><time>2026-05-03T08:29:05.988Z</time></trkpt><trkpt lat="44.2274484" lon="8.407738"><ele>10.6</ele><time>2026-05-03T08:29:06.988Z</time></trkpt><trkpt lat="44.2274824" lon="8.4076139"><ele>11.2</ele><time>2026-05-03T08:29:07.988Z</time></trkpt><trkpt lat="44.2275155" lon="8.4074887"><ele>11.8</ele><time>2026-05-03T08:29:08.988Z</time></trkpt><trkpt lat="44.2275595" lon="8.4073642"><ele>12.4</ele><time>2026-05-03T08:29:09.988Z</time></trkpt><trkpt lat="44.2276169" lon="8.4072428"><ele>13.0</ele><time>2026-05-03T08:29:10.989Z</time></trkpt><trkpt lat="44.2276766" lon="8.4071449"><ele>13.666666666666666</ele><time>2026-05-03T08:29:11.988Z</time></trkpt><trkpt lat="44.2277447" lon="8.4070649"><ele>14.333333333333332</ele><time>2026-05-03T08:29:12.988Z</time></trkpt><trkpt lat="44.2278211" lon="8.4069886"><ele>15.0</ele><time>2026-05-03T08:29:13.989Z</time></trkpt><trkpt lat="44.2278903" lon="8.4069284"><ele>15.666666666666668</ele><time>2026-05-03T08:29:14.988Z</time></trkpt><trkpt lat="44.2279527" lon="8.4068652"><ele>16.333333333333336</ele><time>2026-05-03T08:29:15.988Z</time></trkpt><trkpt lat="44.22804" lon="8.4067884"><ele>17.0</ele><time>2026-05-03T08:29:17.989Z</time></trkpt><trkpt lat="44.2281048" lon="8.4067171"><ele>17.0</ele><time>2026-05-03T08:29:20.988Z</time></trkpt><trkpt lat="44.2281785" lon="8.4065983"><ele>17.0</ele><time>2026-05-03T08:29:22.988Z</time></trkpt><trkpt lat="44.2282367" lon="8.4065242"><ele>17.0</ele><time>2026-05-03T08:29:23.988Z</time></trkpt><trkpt lat="44.2283034" lon="8.4064526"><ele>17.0</ele><time>2026-05-03T08:29:24.988Z</time></trkpt><trkpt lat="44.228372" lon="8.4063823"><ele>17.0</ele><time>2026-05-03T08:29:25.988Z</time></trkpt><trkpt lat="44.2284437" lon="8.40632"><ele>17.0</ele><time>2026-05-03T08:29:26.988Z</time></trkpt><trkpt lat="44.2285126" lon="8.4062525"><ele>19.0</ele><time>2026-05-03T08:29:27.988Z</time></trkpt><trkpt lat="44.2285776" lon="8.4061882"><ele>21.0</ele><time>2026-05-03T08:29:28.989Z</time></trkpt><trkpt lat="44.2286441" lon="8.4061268"><ele>23.0</ele><time>2026-05-03T08:29:29.988Z</time></trkpt><trkpt lat="44.2287084" lon="8.4060648"><ele>25.0</ele><time>2026-05-03T08:29:30.989Z</time></trkpt><trkpt lat="44.2287741" lon="8.4060094"><ele>26.999999999999996</ele><time>2026-05-03T08:29:31.988Z</time></trkpt><trkpt lat="44.2288314" lon="8.405955"><ele>29.0</ele><time>2026-05-03T08:29:32.989Z</time></trkpt><trkpt lat="44.2288873" lon="8.4058984"><ele>29.0</ele><time>2026-05-03T08:29:33.988Z</time></trkpt><trkpt lat="44.2289384" lon="8.4058455"><ele>29.0</ele><time>2026-05-03T08:29:34.988Z</time></trkpt><trkpt lat="44.2289957" lon="8.4057184"><ele>29.0</ele><time>2026-05-03T08:29:36.989Z</time></trkpt><trkpt lat="44.228986" lon="8.4055636"><ele>29.0</ele><time>2026-05-03T08:29:38.989Z</time></trkpt><trkpt lat="44.2289447" lon="8.4054968"><ele>29.0</ele><time>2026-05-03T08:29:39.988Z</time></trkpt><trkpt lat="44.2288336" lon="8.4054484"><ele>29.0</ele><time>2026-05-03T08:29:41.988Z</time></trkpt><trkpt lat="44.2287687" lon="8.4054884"><ele>29.0</ele><time>2026-05-03T08:29:42.988Z</time></trkpt><trkpt lat="44.2286891" lon="8.4055586"><ele>29.0</ele><time>2026-05-03T08:29:43.989Z</time></trkpt><trkpt lat="44.2286014" lon="8.4056491"><ele>29.0</ele><time>2026-05-03T08:29:44.989Z</time></trkpt><trkpt lat="44.2285105" lon="8.4057458"><ele>29.0</ele><time>2026-05-03T08:29:45.988Z</time></trkpt><trkpt lat="44.2284232" lon="8.4058393"><ele>29.0</ele><time>2026-05-03T08:29:46.988Z</time></trkpt><trkpt lat="44.2283505" lon="8.4059164"><ele>29.0</ele><time>2026-05-03T08:29:47.988Z</time></trkpt><trkpt lat="44.2282833" lon="8.4059832"><ele>29.0</ele><time>2026-05-03T08:29:48.989Z</time></trkpt><trkpt lat="44.2282255" lon="8.4060371"><ele>29.0</ele><time>2026-05-03T08:29:49.989Z</time></trkpt><trkpt lat="44.2281033" lon="8.406051"><ele>29.0</ele><time>2026-05-03T08:29:51.989Z</time></trkpt><trkpt lat="44.228024" lon="8.4059443"><ele>29.0</ele><time>2026-05-03T08:29:53.988Z</time></trkpt><trkpt lat="44.2280708" lon="8.4057788"><ele>29.0</ele><time>2026-05-03T08:29:55.988Z</time></trkpt><trkpt lat="44.2281415" lon="8.4057017"><ele>29.0</ele><time>2026-05-03T08:29:56.989Z</time></trkpt><trkpt lat="44.2282354" lon="8.4056324"><ele>29.0</ele><time>2026-05-03T08:29:57.988Z</time></trkpt><trkpt lat="44.2283299" lon="8.4055722"><ele>29.0</ele><time>2026-05-03T08:29:58.989Z</time></trkpt><trkpt lat="44.2284165" lon="8.405509"><ele>31.0</ele><time>2026-05-03T08:29:59.989Z</time></trkpt><trkpt lat="44.228495" lon="8.4054338"><ele>33.0</ele><time>2026-05-03T08:30:00.988Z</time></trkpt><trkpt lat="44.2285711" lon="8.405341"><ele>35.0</ele><time>2026-05-03T08:30:01.988Z</time></trkpt><trkpt lat="44.2286369" lon="8.405236"><ele>37.0</ele><time>2026-05-03T08:30:02.988Z</time></trkpt><trkpt lat="44.228689" lon="8.4051143"><ele>39.0</ele><time>2026-05-03T08:30:03.988Z</time></trkpt><trkpt lat="44.2287283" lon="8.4049916"><ele>39.0</ele><time>2026-05-03T08:30:04.988Z</time></trkpt><trkpt lat="44.2287579" lon="8.4048645"><ele>39.0</ele><time>2026-05-03T08:30:05.988Z</time></trkpt><trkpt lat="44.2287771" lon="8.4047353"><ele>39.0</ele><time>2026-05-03T08:30:06.988Z</time></trkpt><trkpt lat="44.2287944" lon="8.4046066"><ele>39.0</ele><time>2026-05-03T08:30:07.989Z</time></trkpt><trkpt lat="44.2288025" lon="8.4044783"><ele>39.0</ele><time>2026-05-03T08:30:08.989Z</time></trkpt><trkpt lat="44.2288019" lon="8.4043516"><ele>40.833333333333336</ele><time>2026-05-03T08:30:09.988Z</time></trkpt><trkpt lat="44.2287838" lon="8.404226"><ele>42.66666666666667</ele><time>2026-05-03T08:30:10.988Z</time></trkpt><trkpt lat="44.2287484" lon="8.4041156"><ele>44.5</ele><time>2026-05-03T08:30:11.988Z</time></trkpt><trkpt lat="44.2286957" lon="8.4040336"><ele>46.333333333333336</ele><time>2026-05-03T08:30:12.988Z</time></trkpt><trkpt lat="44.2286266" lon="8.4039772"><ele>48.16666666666667</ele><time>2026-05-03T08:30:13.988Z</time></trkpt><trkpt lat="44.2285412" lon="8.4039375"><ele>50.0</ele><time>2026-05-03T08:30:14.988Z</time></trkpt><trkpt lat="44.2284491" lon="8.4039127"><ele>50.00000000000001</ele><time>2026-05-03T08:30:15.988Z</time></trkpt><trkpt lat="44.2283547" lon="8.4038917"><ele>50.0</ele><time>2026-05-03T08:30:16.989Z</time></trkpt><trkpt lat="44.2282619" lon="8.4038712"><ele>50.0</ele><time>2026-05-03T08:30:17.989Z</time></trkpt><trkpt lat="44.2281741" lon="8.4038484"><ele>50.0</ele><time>2026-05-03T08:30:18.989Z</time></trkpt><trkpt lat="44.2280895" lon="8.403825"><ele>50.00000000000001</ele><time>2026-05-03T08:30:19.988Z</time></trkpt><trkpt lat="44.228017" lon="8.4037917"><ele>50.0</ele><time>2026-05-03T08:30:20.988Z</time></trkpt><trkpt lat="44.2279475" lon="8.4037322"><ele>49.00000000000001</ele><time>2026-05-03T08:30:21.988Z</time></trkpt><trkpt lat="44.2278916" lon="8.4036504"><ele>48.0</ele><time>2026-05-03T08:30:22.989Z</time></trkpt><trkpt lat="44.2278559" lon="8.4035519"><ele>47.0</ele><time>2026-05-03T08:30:23.988Z</time></trkpt><trkpt lat="44.2278378" lon="8.4034465"><ele>46.0</ele><time>2026-05-03T08:30:24.988Z</time></trkpt><trkpt lat="44.227833" lon="8.40333"><ele>45.0</ele><time>2026-05-03T08:30:25.988Z</time></trkpt><trkpt lat="44.2278556" lon="8.4032065"><ele>44.0</ele><time>2026-05-03T08:30:26.988Z</time></trkpt><trkpt lat="44.2278931" lon="8.4030657"><ele>44.5</ele><time>2026-05-03T08:30:27.988Z</time></trkpt><trkpt lat="44.2279357" lon="8.402917"><ele>45.0</ele><time>2026-05-03T08:30:28.988Z</time></trkpt><trkpt lat="44.2279836" lon="8.4027624"><ele>45.5</ele><time>2026-05-03T08:30:29.989Z</time></trkpt><trkpt lat="44.2280239" lon="8.4026044"><ele>46.0</ele><time>2026-05-03T08:30:30.988Z</time></trkpt><trkpt lat="44.2280658" lon="8.4024488"><ele>46.0</ele><time>2026-05-03T08:30:31.989Z</time></trkpt><trkpt lat="44.2281164" lon="8.4022903"><ele>46.0</ele><time>2026-05-03T08:30:32.988Z</time></trkpt><trkpt lat="44.228175" lon="8.4021403"><ele>46.0</ele><time>2026-05-03T08:30:33.989Z</time></trkpt><trkpt lat="44.2282428" lon="8.4019908"><ele>46.0</ele><time>2026-05-03T08:30:34.988Z</time></trkpt><trkpt lat="44.2283176" lon="8.4018612"><ele>52.0</ele><time>2026-05-03T08:30:35.989Z</time></trkpt><trkpt lat="44.228382" lon="8.4017383"><ele>58.0</ele><time>2026-05-03T08:30:36.989Z</time></trkpt><trkpt lat="44.2284336" lon="8.4016177"><ele>63.99999999999999</ele><time>2026-05-03T08:30:37.988Z</time></trkpt><trkpt lat="44.2284735" lon="8.4014845"><ele>70.0</ele><time>2026-05-03T08:30:38.988Z</time></trkpt><trkpt lat="44.2285014" lon="8.4013423"><ele>76.0</ele><time>2026-05-03T08:30:39.989Z</time></trkpt><trkpt lat="44.2285035" lon="8.4011861"><ele>77.66666666666666</ele><time>2026-05-03T08:30:40.989Z</time></trkpt><trkpt lat="44.2284866" lon="8.401038"><ele>79.33333333333333</ele><time>2026-05-03T08:30:41.988Z</time></trkpt><trkpt lat="44.2284629" lon="8.4009055"><ele>81.0</ele><time>2026-05-03T08:30:42.988Z</time></trkpt><trkpt lat="44.2284415" lon="8.4007842"><ele>82.66666666666667</ele><time>2026-05-03T08:30:43.989Z</time></trkpt><trkpt lat="44.2284208" lon="8.400686"><ele>84.33333333333334</ele><time>2026-05-03T08:30:44.988Z</time></trkpt><trkpt lat="44.2284019" lon="8.4005998"><ele>86.0</ele><time>2026-05-03T08:30:45.988Z</time></trkpt><trkpt lat="44.2284232" lon="8.4004503"><ele>86.0</ele><time>2026-05-03T08:30:47.988Z</time></trkpt><trkpt lat="44.2285141" lon="8.4004237"><ele>86.0</ele><time>2026-05-03T08:30:49.989Z</time></trkpt><trkpt lat="44.2285761" lon="8.400494"><ele>86.0</ele><time>2026-05-03T08:30:50.988Z</time></trkpt><trkpt lat="44.2286264" lon="8.4006038"><ele>86.0</ele><time>2026-05-03T08:30:51.988Z</time></trkpt><trkpt lat="44.2286565" lon="8.4007298"><ele>86.0</ele><time>2026-05-03T08:30:52.989Z</time></trkpt><trkpt lat="44.2286659" lon="8.4008751"><ele>86.0</ele><time>2026-05-03T08:30:53.989Z</time></trkpt><trkpt lat="44.2286697" lon="8.4010146"><ele>86.0</ele><time>2026-05-03T08:30:54.988Z</time></trkpt><trkpt lat="44.2286751" lon="8.4011471"><ele>86.0</ele><time>2026-05-03T08:30:55.988Z</time></trkpt><trkpt lat="44.2286841" lon="8.4012751"><ele>86.0</ele><time>2026-05-03T08:30:56.989Z</time></trkpt><trkpt lat="44.2287009" lon="8.4013984"><ele>86.0</ele><time>2026-05-03T08:30:57.989Z</time></trkpt><trkpt lat="44.228721" lon="8.4015216"><ele>84.0</ele><time>2026-05-03T08:30:58.989Z</time></trkpt><trkpt lat="44.2287454" lon="8.4016463"><ele>82.0</ele><time>2026-05-03T08:30:59.988Z</time></trkpt><trkpt lat="44.2287799" lon="8.4017664"><ele>80.0</ele><time>2026-05-03T08:31:00.988Z</time></trkpt><trkpt lat="44.2288318" lon="8.4018774"><ele>78.0</ele><time>2026-05-03T08:31:01.989Z</time></trkpt><trkpt lat="44.228893" lon="8.4019785"><ele>76.0</ele><time>2026-05-03T08:31:02.988Z</time></trkpt><trkpt lat="44.2289722" lon="8.4020706"><ele>78.6</ele><time>2026-05-03T08:31:03.989Z</time></trkpt><trkpt lat="44.2290621" lon="8.4021357"><ele>81.19999999999999</ele><time>2026-05-03T08:31:04.988Z</time></trkpt><trkpt lat="44.2291581" lon="8.4021745"><ele>83.80000000000001</ele><time>2026-05-03T08:31:05.989Z</time></trkpt><trkpt lat="44.2292608" lon="8.4021701"><ele>86.4</ele><time>2026-05-03T08:31:06.989Z</time></trkpt><trkpt lat="44.2293708" lon="8.4021299"><ele>89.0</ele><time>2026-05-03T08:31:07.989Z</time></trkpt><trkpt lat="44.229479" lon="8.4020648"><ele>92.0</ele><time>2026-05-03T08:31:08.988Z</time></trkpt><trkpt lat="44.2295847" lon="8.4019893"><ele>95.0</ele><time>2026-05-03T08:31:09.989Z</time></trkpt><trkpt lat="44.2296869" lon="8.4019177"><ele>98.0</ele><time>2026-05-03T08:31:10.988Z</time></trkpt><trkpt lat="44.2297819" lon="8.4018483"><ele>101.0</ele><time>2026-05-03T08:31:11.989Z</time></trkpt><trkpt lat="44.2298692" lon="8.4017819"><ele>104.0</ele><time>2026-05-03T08:31:12.988Z</time></trkpt><trkpt lat="44.2299508" lon="8.4017138"><ele>104.33333333333333</ele><time>2026-05-03T08:31:13.989Z</time></trkpt><trkpt lat="44.2300222" lon="8.4016389"><ele>104.66666666666666</ele><time>2026-05-03T08:31:14.988Z</time></trkpt><trkpt lat="44.2300786" lon="8.4015444"><ele>105.0</ele><time>2026-05-03T08:31:15.988Z</time></trkpt><trkpt lat="44.230114" lon="8.4014428"><ele>105.33333333333334</ele><time>2026-05-03T08:31:16.988Z</time></trkpt><trkpt lat="44.2301273" lon="8.4013237"><ele>105.66666666666667</ele><time>2026-05-03T08:31:17.988Z</time></trkpt><trkpt lat="44.23012" lon="8.401187"><ele>106.0</ele><time>2026-05-03T08:31:18.989Z</time></trkpt><trkpt lat="44.2300715" lon="8.4010694"><ele>107.0</ele><time>2026-05-03T08:31:19.989Z</time></trkpt><trkpt lat="44.2299953" lon="8.4009922"><ele>108.0</ele><time>2026-05-03T08:31:20.988Z</time></trkpt><trkpt lat="44.2299115" lon="8.4009508"><ele>109.0</ele><time>2026-05-03T08:31:21.988Z</time></trkpt><trkpt lat="44.2298276" lon="8.4009478"><ele>110.0</ele><time>2026-05-03T08:31:22.988Z</time></trkpt><trkpt lat="44.2297342" lon="8.4009956"><ele>111.0</ele><time>2026-05-03T08:31:23.989Z</time></trkpt><trkpt lat="44.2296572" lon="8.4010925"><ele>111.6</ele><time>2026-05-03T08:31:24.989Z</time></trkpt><trkpt lat="44.2296072" lon="8.4012344"><ele>112.19999999999999</ele><time>2026-05-03T08:31:25.989Z</time></trkpt><trkpt lat="44.2295913" lon="8.4013847"><ele>112.80000000000001</ele><time>2026-05-03T08:31:26.988Z</time></trkpt><trkpt lat="44.2295771" lon="8.4015083"><ele>113.4</ele><time>2026-05-03T08:31:27.988Z</time></trkpt><trkpt lat="44.2295399" lon="8.4015932"><ele>114.0</ele><time>2026-05-03T08:31:28.988Z</time></trkpt><trkpt lat="44.229433" lon="8.4016137"><ele>114.0</ele><time>2026-05-03T08:31:30.988Z</time></trkpt><trkpt lat="44.229371" lon="8.4015549"><ele>114.0</ele><time>2026-05-03T08:31:31.988Z</time></trkpt><trkpt lat="44.2293251" lon="8.4014563"><ele>114.0</ele><time>2026-05-03T08:31:32.988Z</time></trkpt><trkpt lat="44.2292935" lon="8.4013164"><ele>114.0</ele><time>2026-05-03T08:31:33.989Z</time></trkpt><trkpt lat="44.2292743" lon="8.4011593"><ele>114.0</ele><time>2026-05-03T08:31:34.988Z</time></trkpt><trkpt lat="44.2292676" lon="8.4009968"><ele>114.0</ele><time>2026-05-03T08:31:35.988Z</time></trkpt><trkpt lat="44.22927" lon="8.4008355"><ele>114.0</ele><time>2026-05-03T08:31:36.989Z</time></trkpt><trkpt lat="44.2292734" lon="8.4006767"><ele>114.0</ele><time>2026-05-03T08:31:37.989Z</time></trkpt><trkpt lat="44.2292795" lon="8.4005118"><ele>114.0</ele><time>2026-05-03T08:31:38.988Z</time></trkpt><trkpt lat="44.2292791" lon="8.4003458"><ele>116.0</ele><time>2026-05-03T08:31:39.989Z</time></trkpt><trkpt lat="44.2292709" lon="8.4001829"><ele>118.0</ele><time>2026-05-03T08:31:40.988Z</time></trkpt><trkpt lat="44.2292464" lon="8.4000302"><ele>120.0</ele><time>2026-05-03T08:31:41.989Z</time></trkpt><trkpt lat="44.2292057" lon="8.3998856"><ele>122.0</ele><time>2026-05-03T08:31:42.988Z</time></trkpt><trkpt lat="44.2291617" lon="8.399739"><ele>124.0</ele><time>2026-05-03T08:31:43.988Z</time></trkpt><trkpt lat="44.2291123" lon="8.3995953"><ele>125.99999999999999</ele><time>2026-05-03T08:31:44.988Z</time></trkpt><trkpt lat="44.2290603" lon="8.39945"><ele>127.99999999999999</ele><time>2026-05-03T08:31:45.989Z</time></trkpt><trkpt lat="44.2290202" lon="8.3993037"><ele>130.0</ele><time>2026-05-03T08:31:46.989Z</time></trkpt><trkpt lat="44.2290059" lon="8.3991689"><ele>132.0</ele><time>2026-05-03T08:31:47.988Z</time></trkpt><trkpt lat="44.2290194" lon="8.3990328"><ele>132.0</ele><time>2026-05-03T08:31:48.988Z</time></trkpt><trkpt lat="44.2290684" lon="8.3988931"><ele>132.0</ele><time>2026-05-03T08:31:49.989Z</time></trkpt><trkpt lat="44.2291433" lon="8.398771"><ele>132.0</ele><time>2026-05-03T08:31:50.988Z</time></trkpt><trkpt lat="44.2292341" lon="8.3986921"><ele>132.0</ele><time>2026-05-03T08:31:51.988Z</time></trkpt><trkpt lat="44.2293331" lon="8.3986412"><ele>132.0</ele><time>2026-05-03T08:31:52.988Z</time></trkpt><trkpt lat="44.229426" lon="8.3986005"><ele>134.4</ele><time>2026-05-03T08:31:53.988Z</time></trkpt><trkpt lat="44.2294926" lon="8.398524"><ele>136.79999999999998</ele><time>2026-05-03T08:31:54.989Z</time></trkpt><trkpt lat="44.2295337" lon="8.3984081"><ele>139.2</ele><time>2026-05-03T08:31:55.989Z</time></trkpt><trkpt lat="44.2295342" lon="8.398276"><ele>141.6</ele><time>2026-05-03T08:31:56.988Z</time></trkpt><trkpt lat="44.2295033" lon="8.3981454"><ele>144.0</ele><time>2026-05-03T08:31:57.988Z</time></trkpt><trkpt lat="44.2294505" lon="8.3980197"><ele>144.0</ele><time>2026-05-03T08:31:58.989Z</time></trkpt><trkpt lat="44.2293957" lon="8.3978965"><ele>144.0</ele><time>2026-05-03T08:31:59.988Z</time></trkpt><trkpt lat="44.2293411" lon="8.397774"><ele>144.0</ele><time>2026-05-03T08:32:00.989Z</time></trkpt><trkpt lat="44.2292972" lon="8.3976548"><ele>144.0</ele><time>2026-05-03T08:32:01.988Z</time></trkpt><trkpt lat="44.2292503" lon="8.3975438"><ele>144.0</ele><time>2026-05-03T08:32:02.988Z</time></trkpt><trkpt lat="44.2291919" lon="8.3974453"><ele>144.0</ele><time>2026-05-03T08:32:03.988Z</time></trkpt><trkpt lat="44.229116" lon="8.3973541"><ele>144.0</ele><time>2026-05-03T08:32:04.988Z</time></trkpt><trkpt lat="44.2290279" lon="8.3972685"><ele>144.0</ele><time>2026-05-03T08:32:05.989Z</time></trkpt><trkpt lat="44.2289292" lon="8.3971802"><ele>144.0</ele><time>2026-05-03T08:32:06.988Z</time></trkpt><trkpt lat="44.2288378" lon="8.3970881"><ele>144.0</ele><time>2026-05-03T08:32:07.989Z</time></trkpt><trkpt lat="44.2287539" lon="8.3969895"><ele>147.6</ele><time>2026-05-03T08:32:08.988Z</time></trkpt><trkpt lat="44.2286755" lon="8.3968852"><ele>151.2</ele><time>2026-05-03T08:32:09.988Z</time></trkpt><trkpt lat="44.2286058" lon="8.3967698"><ele>154.79999999999998</ele><time>2026-05-03T08:32:10.988Z</time></trkpt><trkpt lat="44.228534" lon="8.3966509"><ele>158.4</ele><time>2026-05-03T08:32:11.988Z</time></trkpt><trkpt lat="44.2284659" lon="8.3965248"><ele>162.0</ele><time>2026-05-03T08:32:12.988Z</time></trkpt><trkpt lat="44.2284041" lon="8.3963923"><ele>159.75</ele><time>2026-05-03T08:32:13.988Z</time></trkpt><trkpt lat="44.2283419" lon="8.3962571"><ele>157.5</ele><time>2026-05-03T08:32:14.988Z</time></trkpt><trkpt lat="44.2282798" lon="8.396115"><ele>155.25</ele><time>2026-05-03T08:32:15.989Z</time></trkpt><trkpt lat="44.2282193" lon="8.3959663"><ele>153.0</ele><time>2026-05-03T08:32:16.988Z</time></trkpt><trkpt lat="44.2281653" lon="8.395814"><ele>159.0</ele><time>2026-05-03T08:32:17.988Z</time></trkpt><trkpt lat="44.22811" lon="8.3956692"><ele>165.0</ele><time>2026-05-03T08:32:18.988Z</time></trkpt><trkpt lat="44.2280593" lon="8.3955169"><ele>171.0</ele><time>2026-05-03T08:32:19.989Z</time></trkpt><trkpt lat="44.2280096" lon="8.395373"><ele>177.0</ele><time>2026-05-03T08:32:20.988Z</time></trkpt><trkpt lat="44.2279561" lon="8.3952339"><ele>177.0</ele><time>2026-05-03T08:32:21.988Z</time></trkpt><trkpt lat="44.227899" lon="8.3950921"><ele>177.0</ele><time>2026-05-03T08:32:22.988Z</time></trkpt><trkpt lat="44.2278448" lon="8.3949422"><ele>177.0</ele><time>2026-05-03T08:32:23.988Z</time></trkpt><trkpt lat="44.2277983" lon="8.3947913"><ele>177.0</ele><time>2026-05-03T08:32:24.988Z</time></trkpt><trkpt lat="44.227769" lon="8.3946345"><ele>176.75</ele><time>2026-05-03T08:32:25.989Z</time></trkpt><trkpt lat="44.2277604" lon="8.3944635"><ele>176.5</ele><time>2026-05-03T08:32:26.988Z</time></trkpt><trkpt lat="44.2277564" lon="8.3942903"><ele>176.25</ele><time>2026-05-03T08:32:27.988Z</time></trkpt><trkpt lat="44.2277399" lon="8.394136"><ele>176.0</ele><time>2026-05-03T08:32:28.988Z</time></trkpt><trkpt lat="44.2277135" lon="8.3939721"><ele>175.5</ele><time>2026-05-03T08:32:29.988Z</time></trkpt><trkpt lat="44.2276709" lon="8.3938115"><ele>175.0</ele><time>2026-05-03T08:32:30.988Z</time></trkpt><trkpt lat="44.2276117" lon="8.3936703"><ele>174.5</ele><time>2026-05-03T08:32:31.988Z</time></trkpt><trkpt lat="44.2275397" lon="8.3935336"><ele>174.0</ele><time>2026-05-03T08:32:32.989Z</time></trkpt><trkpt lat="44.2274632" lon="8.3933986"><ele>174.0</ele><time>2026-05-03T08:32:33.989Z</time></trkpt><trkpt lat="44.2273901" lon="8.3932748"><ele>174.0</ele><time>2026-05-03T08:32:34.988Z</time></trkpt><trkpt lat="44.2273314" lon="8.3931522"><ele>174.0</ele><time>2026-05-03T08:32:35.988Z</time></trkpt><trkpt lat="44.2272969" lon="8.3930198"><ele>174.0</ele><time>2026-05-03T08:32:36.989Z</time></trkpt><trkpt lat="44.2272992" lon="8.3928827"><ele>174.0</ele><time>2026-05-03T08:32:37.988Z</time></trkpt><trkpt lat="44.2273537" lon="8.3927488"><ele>175.0</ele><time>2026-05-03T08:32:38.988Z</time></trkpt><trkpt lat="44.2274227" lon="8.3926014"><ele>176.0</ele><time>2026-05-03T08:32:39.989Z</time></trkpt><trkpt lat="44.2274918" lon="8.3924466"><ele>177.0</ele><time>2026-05-03T08:32:40.988Z</time></trkpt><trkpt lat="44.227536" lon="8.3922774"><ele>178.0</ele><time>2026-05-03T08:32:41.988Z</time></trkpt><trkpt lat="44.2275478" lon="8.3921012"><ele>178.25</ele><time>2026-05-03T08:32:42.988Z</time></trkpt><trkpt lat="44.2275394" lon="8.3919438"><ele>178.5</ele><time>2026-05-03T08:32:43.989Z</time></trkpt><trkpt lat="44.2275077" lon="8.3917948"><ele>178.75</ele><time>2026-05-03T08:32:44.989Z</time></trkpt><trkpt lat="44.2274662" lon="8.3916419"><ele>179.0</ele><time>2026-05-03T08:32:45.988Z</time></trkpt><trkpt lat="44.2274112" lon="8.3914901"><ele>177.0</ele><time>2026-05-03T08:32:46.988Z</time></trkpt><trkpt lat="44.2273559" lon="8.3913346"><ele>175.0</ele><time>2026-05-03T08:32:47.989Z</time></trkpt><trkpt lat="44.2272923" lon="8.3911832"><ele>173.0</ele><time>2026-05-03T08:32:48.988Z</time></trkpt><trkpt lat="44.2272319" lon="8.391033"><ele>171.0</ele><time>2026-05-03T08:32:49.989Z</time></trkpt><trkpt lat="44.2271897" lon="8.3908768"><ele>180.5</ele><time>2026-05-03T08:32:50.988Z</time></trkpt><trkpt lat="44.2271636" lon="8.3907197"><ele>190.0</ele><time>2026-05-03T08:32:51.988Z</time></trkpt><trkpt lat="44.2271705" lon="8.3905594"><ele>199.5</ele><time>2026-05-03T08:32:52.988Z</time></trkpt><trkpt lat="44.2271843" lon="8.3903947"><ele>209.0</ele><time>2026-05-03T08:32:53.989Z</time></trkpt><trkpt lat="44.2271854" lon="8.390223"><ele>209.0</ele><time>2026-05-03T08:32:54.988Z</time></trkpt><trkpt lat="44.2271577" lon="8.3900634"><ele>209.0</ele><time>2026-05-03T08:32:55.988Z</time></trkpt><trkpt lat="44.2271237" lon="8.389906"><ele>209.0</ele><time>2026-05-03T08:32:56.989Z</time></trkpt><trkpt lat="44.2270897" lon="8.3897458"><ele>209.0</ele><time>2026-05-03T08:32:57.988Z</time></trkpt><trkpt lat="44.2270427" lon="8.3895944"><ele>207.79999999999998</ele><time>2026-05-03T08:32:58.989Z</time></trkpt><trkpt lat="44.2269941" lon="8.3894465"><ele>206.6</ele><time>2026-05-03T08:32:59.988Z</time></trkpt><trkpt lat="44.2269433" lon="8.38931"><ele>205.4</ele><time>2026-05-03T08:33:00.989Z</time></trkpt><trkpt lat="44.226895" lon="8.3891763"><ele>204.2</ele><time>2026-05-03T08:33:01.988Z</time></trkpt><trkpt lat="44.2268521" lon="8.3890537"><ele>203.0</ele><time>2026-05-03T08:33:02.988Z</time></trkpt><trkpt lat="44.2268251" lon="8.388923"><ele>202.8</ele><time>2026-05-03T08:33:03.988Z</time></trkpt><trkpt lat="44.2268047" lon="8.3887796"><ele>202.60000000000002</ele><time>2026-05-03T08:33:04.988Z</time></trkpt><trkpt lat="44.2267915" lon="8.3886293"><ele>202.39999999999998</ele><time>2026-05-03T08:33:05.989Z</time></trkpt><trkpt lat="44.2267793" lon="8.3884761"><ele>202.2</ele><time>2026-05-03T08:33:06.988Z</time></trkpt><trkpt lat="44.2267634" lon="8.3883274"><ele>202.0</ele><time>2026-05-03T08:33:07.989Z</time></trkpt><trkpt lat="44.226747" lon="8.3881855"><ele>202.0</ele><time>2026-05-03T08:33:08.988Z</time></trkpt><trkpt lat="44.2267246" lon="8.3880501"><ele>202.0</ele><time>2026-05-03T08:33:09.988Z</time></trkpt><trkpt lat="44.2266987" lon="8.3879153"><ele>202.0</ele><time>2026-05-03T08:33:10.988Z</time></trkpt><trkpt lat="44.2266788" lon="8.3877835"><ele>202.0</ele><time>2026-05-03T08:33:11.989Z</time></trkpt><trkpt lat="44.2266754" lon="8.3876501"><ele>202.0</ele><time>2026-05-03T08:33:12.989Z</time></trkpt><trkpt lat="44.2266849" lon="8.3875047"><ele>201.39999999999998</ele><time>2026-05-03T08:33:13.988Z</time></trkpt><trkpt lat="44.2267076" lon="8.3873606"><ele>200.79999999999998</ele><time>2026-05-03T08:33:14.988Z</time></trkpt><trkpt lat="44.2267469" lon="8.387217"><ele>200.2</ele><time>2026-05-03T08:33:15.988Z</time></trkpt><trkpt lat="44.2268004" lon="8.3870752"><ele>199.6</ele><time>2026-05-03T08:33:16.989Z</time></trkpt><trkpt lat="44.2268502" lon="8.3869452"><ele>199.0</ele><time>2026-05-03T08:33:17.988Z</time></trkpt><trkpt lat="44.2269052" lon="8.3868219"><ele>198.2</ele><time>2026-05-03T08:33:18.988Z</time></trkpt><trkpt lat="44.2269546" lon="8.3866953"><ele>197.39999999999998</ele><time>2026-05-03T08:33:19.988Z</time></trkpt><trkpt lat="44.227012" lon="8.3865741"><ele>196.6</ele><time>2026-05-03T08:33:20.989Z</time></trkpt><trkpt lat="44.2270709" lon="8.3864547"><ele>195.8</ele><time>2026-05-03T08:33:21.988Z</time></trkpt><trkpt lat="44.2271224" lon="8.3863369"><ele>195.0</ele><time>2026-05-03T08:33:22.989Z</time></trkpt><trkpt lat="44.2271725" lon="8.3862261"><ele>193.8</ele><time>2026-05-03T08:33:23.988Z</time></trkpt><trkpt lat="44.2272158" lon="8.386102"><ele>192.6</ele><time>2026-05-03T08:33:24.988Z</time></trkpt><trkpt lat="44.2272598" lon="8.3859684"><ele>191.39999999999998</ele><time>2026-05-03T08:33:25.988Z</time></trkpt><trkpt lat="44.2273055" lon="8.3858225"><ele>190.2</ele><time>2026-05-03T08:33:26.989Z</time></trkpt><trkpt lat="44.227356" lon="8.3856804"><ele>189.0</ele><time>2026-05-03T08:33:27.989Z</time></trkpt><trkpt lat="44.2274044" lon="8.3855529"><ele>193.25</ele><time>2026-05-03T08:33:28.988Z</time></trkpt><trkpt lat="44.2274581" lon="8.3854263"><ele>197.5</ele><time>2026-05-03T08:33:29.988Z</time></trkpt><trkpt lat="44.2275104" lon="8.3852895"><ele>201.75</ele><time>2026-05-03T08:33:30.989Z</time></trkpt><trkpt lat="44.2275592" lon="8.3851429"><ele>206.0</ele><time>2026-05-03T08:33:31.989Z</time></trkpt><trkpt lat="44.227604" lon="8.3849843"><ele>206.0</ele><time>2026-05-03T08:33:32.988Z</time></trkpt><trkpt lat="44.2276379" lon="8.38482"><ele>206.0</ele><time>2026-05-03T08:33:33.988Z</time></trkpt><trkpt lat="44.2276536" lon="8.3846648"><ele>206.0</ele><time>2026-05-03T08:33:34.988Z</time></trkpt><trkpt lat="44.2276636" lon="8.384521"><ele>206.0</ele><time>2026-05-03T08:33:35.988Z</time></trkpt><trkpt lat="44.2276796" lon="8.3843792"><ele>206.0</ele><time>2026-05-03T08:33:36.988Z</time></trkpt><trkpt lat="44.2277143" lon="8.3842306"><ele>206.4</ele><time>2026-05-03T08:33:37.988Z</time></trkpt><trkpt lat="44.2277534" lon="8.384095"><ele>206.8</ele><time>2026-05-03T08:33:38.988Z</time></trkpt><trkpt lat="44.2278045" lon="8.3839662"><ele>207.20000000000002</ele><time>2026-05-03T08:33:39.989Z</time></trkpt><trkpt lat="44.2278628" lon="8.3838453"><ele>207.60000000000002</ele><time>2026-05-03T08:33:40.988Z</time></trkpt><trkpt lat="44.2279245" lon="8.3837259"><ele>208.0</ele><time>2026-05-03T08:33:41.988Z</time></trkpt><trkpt lat="44.2279872" lon="8.3836033"><ele>209.0</ele><time>2026-05-03T08:33:42.989Z</time></trkpt><trkpt lat="44.2280583" lon="8.3834895"><ele>210.0</ele><time>2026-05-03T08:33:43.988Z</time></trkpt><trkpt lat="44.228137" lon="8.3833941"><ele>211.0</ele><time>2026-05-03T08:33:44.989Z</time></trkpt><trkpt lat="44.2282348" lon="8.3833123"><ele>212.0</ele><time>2026-05-03T08:33:45.989Z</time></trkpt><trkpt lat="44.2283365" lon="8.3832569"><ele>213.0</ele><time>2026-05-03T08:33:46.988Z</time></trkpt><trkpt lat="44.2284409" lon="8.3832189"><ele>215.60000000000002</ele><time>2026-05-03T08:33:47.988Z</time></trkpt><trkpt lat="44.2285403" lon="8.3831902"><ele>218.20000000000002</ele><time>2026-05-03T08:33:48.989Z</time></trkpt><trkpt lat="44.2286454" lon="8.383172"><ele>220.8</ele><time>2026-05-03T08:33:49.988Z</time></trkpt><trkpt lat="44.2287568" lon="8.3831637"><ele>223.4</ele><time>2026-05-03T08:33:50.989Z</time></trkpt><trkpt lat="44.2288687" lon="8.3831731"><ele>226.0</ele><time>2026-05-03T08:33:51.988Z</time></trkpt><trkpt lat="44.2289799" lon="8.3831927"><ele>226.0</ele><time>2026-05-03T08:33:52.988Z</time></trkpt><trkpt lat="44.2290934" lon="8.3832108"><ele>226.00000000000003</ele><time>2026-05-03T08:33:53.988Z</time></trkpt><trkpt lat="44.2291982" lon="8.3832111"><ele>226.00000000000003</ele><time>2026-05-03T08:33:54.989Z</time></trkpt><trkpt lat="44.2293013" lon="8.3831847"><ele>226.0</ele><time>2026-05-03T08:33:55.988Z</time></trkpt><trkpt lat="44.2293999" lon="8.3831262"><ele>226.0</ele><time>2026-05-03T08:33:56.988Z</time></trkpt><trkpt lat="44.2294941" lon="8.3830443"><ele>231.8</ele><time>2026-05-03T08:33:57.988Z</time></trkpt><trkpt lat="44.22957" lon="8.3829321"><ele>237.60000000000002</ele><time>2026-05-03T08:33:58.989Z</time></trkpt><trkpt lat="44.2296208" lon="8.3827947"><ele>243.4</ele><time>2026-05-03T08:33:59.988Z</time></trkpt><trkpt lat="44.2296507" lon="8.3826409"><ele>249.2</ele><time>2026-05-03T08:34:00.988Z</time></trkpt><trkpt lat="44.2296609" lon="8.3824902"><ele>255.0</ele><time>2026-05-03T08:34:01.989Z</time></trkpt><trkpt lat="44.2296586" lon="8.3823319"><ele>255.5</ele><time>2026-05-03T08:34:02.989Z</time></trkpt><trkpt lat="44.2296284" lon="8.3821748"><ele>256.0</ele><time>2026-05-03T08:34:03.988Z</time></trkpt><trkpt lat="44.2295846" lon="8.3820208"><ele>256.5</ele><time>2026-05-03T08:34:04.988Z</time></trkpt><trkpt lat="44.2295232" lon="8.3818772"><ele>257.0</ele><time>2026-05-03T08:34:05.988Z</time></trkpt><trkpt lat="44.2294539" lon="8.3817389"><ele>257.0</ele><time>2026-05-03T08:34:06.988Z</time></trkpt><trkpt lat="44.2293823" lon="8.381601"><ele>257.0</ele><time>2026-05-03T08:34:07.988Z</time></trkpt><trkpt lat="44.2293128" lon="8.3814629"><ele>257.0</ele><time>2026-05-03T08:34:08.989Z</time></trkpt><trkpt lat="44.2292452" lon="8.3813291"><ele>257.0</ele><time>2026-05-03T08:34:09.989Z</time></trkpt><trkpt lat="44.2291753" lon="8.3812026"><ele>256.6</ele><time>2026-05-03T08:34:10.988Z</time></trkpt><trkpt lat="44.2291028" lon="8.3810877"><ele>256.2</ele><time>2026-05-03T08:34:11.988Z</time></trkpt><trkpt lat="44.2290188" lon="8.3810034"><ele>255.8</ele><time>2026-05-03T08:34:12.989Z</time></trkpt><trkpt lat="44.2289185" lon="8.3809563"><ele>255.4</ele><time>2026-05-03T08:34:13.988Z</time></trkpt><trkpt lat="44.2288077" lon="8.3809382"><ele>255.0</ele><time>2026-05-03T08:34:14.988Z</time></trkpt><trkpt lat="44.228688" lon="8.3809408"><ele>256.5</ele><time>2026-05-03T08:34:15.989Z</time></trkpt><trkpt lat="44.2285688" lon="8.3809478"><ele>258.0</ele><time>2026-05-03T08:34:16.989Z</time></trkpt><trkpt lat="44.2284442" lon="8.3809475"><ele>259.5</ele><time>2026-05-03T08:34:17.989Z</time></trkpt><trkpt lat="44.2283244" lon="8.3809193"><ele>261.0</ele><time>2026-05-03T08:34:18.989Z</time></trkpt><trkpt lat="44.2282126" lon="8.3808561"><ele>258.2</ele><time>2026-05-03T08:34:19.989Z</time></trkpt><trkpt lat="44.2281244" lon="8.380763"><ele>255.40000000000003</ele><time>2026-05-03T08:34:20.988Z</time></trkpt><trkpt lat="44.2280641" lon="8.3806386"><ele>252.6</ele><time>2026-05-03T08:34:21.988Z</time></trkpt><trkpt lat="44.2280274" lon="8.3805027"><ele>249.8</ele><time>2026-05-03T08:34:22.988Z</time></trkpt><trkpt lat="44.2280136" lon="8.3803505"><ele>247.0</ele><time>2026-05-03T08:34:23.988Z</time></trkpt><trkpt lat="44.2280037" lon="8.3801938"><ele>247.0</ele><time>2026-05-03T08:34:24.989Z</time></trkpt><trkpt lat="44.2279953" lon="8.3800396"><ele>247.0</ele><time>2026-05-03T08:34:25.989Z</time></trkpt><trkpt lat="44.2279813" lon="8.3798856"><ele>247.0</ele><time>2026-05-03T08:34:26.989Z</time></trkpt><trkpt lat="44.2279678" lon="8.3797425"><ele>247.0</ele><time>2026-05-03T08:34:27.989Z</time></trkpt><trkpt lat="44.2279567" lon="8.3795956"><ele>247.0</ele><time>2026-05-03T08:34:28.988Z</time></trkpt><trkpt lat="44.2279591" lon="8.3794489"><ele>248.8</ele><time>2026-05-03T08:34:29.988Z</time></trkpt><trkpt lat="44.2279777" lon="8.3793067"><ele>250.6</ele><time>2026-05-03T08:34:30.988Z</time></trkpt><trkpt lat="44.2280187" lon="8.3791634"><ele>252.40000000000003</ele><time>2026-05-03T08:34:31.989Z</time></trkpt><trkpt lat="44.2280734" lon="8.3790222"><ele>254.20000000000002</ele><time>2026-05-03T08:34:32.989Z</time></trkpt><trkpt lat="44.2281373" lon="8.3788808"><ele>256.0</ele><time>2026-05-03T08:34:33.989Z</time></trkpt><trkpt lat="44.2281988" lon="8.3787473"><ele>262.6</ele><time>2026-05-03T08:34:34.988Z</time></trkpt><trkpt lat="44.2282562" lon="8.3786246"><ele>269.20000000000005</ele><time>2026-05-03T08:34:35.987Z</time></trkpt><trkpt lat="44.2282922" lon="8.3784887"><ele>275.79999999999995</ele><time>2026-05-03T08:34:36.987Z</time></trkpt><trkpt lat="44.2283114" lon="8.3783375"><ele>282.4</ele><time>2026-05-03T08:34:37.987Z</time></trkpt><trkpt lat="44.2283111" lon="8.3781822"><ele>289.0</ele><time>2026-05-03T08:34:38.988Z</time></trkpt><trkpt lat="44.228301" lon="8.3780233"><ele>289.75</ele><time>2026-05-03T08:34:39.987Z</time></trkpt><trkpt lat="44.2282903" lon="8.377866"><ele>290.5</ele><time>2026-05-03T08:34:40.988Z</time></trkpt><trkpt lat="44.2282852" lon="8.3777048"><ele>291.25</ele><time>2026-05-03T08:34:41.987Z</time></trkpt><trkpt lat="44.2282813" lon="8.3775489"><ele>292.0</ele><time>2026-05-03T08:34:42.987Z</time></trkpt><trkpt lat="44.228274" lon="8.3773909"><ele>292.0</ele><time>2026-05-03T08:34:43.987Z</time></trkpt><trkpt lat="44.2282671" lon="8.3772314"><ele>292.0</ele><time>2026-05-03T08:34:44.988Z</time></trkpt><trkpt lat="44.2282675" lon="8.3770737"><ele>292.0</ele><time>2026-05-03T08:34:45.988Z</time></trkpt><trkpt lat="44.2282785" lon="8.3769155"><ele>292.0</ele><time>2026-05-03T08:34:46.987Z</time></trkpt><trkpt lat="44.2283001" lon="8.3767688"><ele>292.0</ele><time>2026-05-03T08:34:47.987Z</time></trkpt><trkpt lat="44.2283291" lon="8.3766179"><ele>291.5</ele><time>2026-05-03T08:34:48.987Z</time></trkpt><trkpt lat="44.2283611" lon="8.3764687"><ele>291.0</ele><time>2026-05-03T08:34:49.987Z</time></trkpt><trkpt lat="44.2283993" lon="8.3763213"><ele>290.5</ele><time>2026-05-03T08:34:50.988Z</time></trkpt><trkpt lat="44.2284332" lon="8.3761712"><ele>290.0</ele><time>2026-05-03T08:34:51.987Z</time></trkpt><trkpt lat="44.2284678" lon="8.3760154"><ele>288.75</ele><time>2026-05-03T08:34:52.987Z</time></trkpt><trkpt lat="44.2285016" lon="8.375857"><ele>287.5</ele><time>2026-05-03T08:34:53.987Z</time></trkpt><trkpt lat="44.2285365" lon="8.3756973"><ele>286.25</ele><time>2026-05-03T08:34:54.988Z</time></trkpt><trkpt lat="44.228576" lon="8.375542"><ele>285.0</ele><time>2026-05-03T08:34:55.987Z</time></trkpt><trkpt lat="44.2286174" lon="8.3753866"><ele>283.5</ele><time>2026-05-03T08:34:56.988Z</time></trkpt><trkpt lat="44.2286639" lon="8.3752182"><ele>282.0</ele><time>2026-05-03T08:34:57.987Z</time></trkpt><trkpt lat="44.2287051" lon="8.3750627"><ele>280.5</ele><time>2026-05-03T08:34:58.988Z</time></trkpt><trkpt lat="44.2287398" lon="8.3749148"><ele>279.0</ele><time>2026-05-03T08:34:59.987Z</time></trkpt><trkpt lat="44.2287757" lon="8.3747675"><ele>277.8</ele><time>2026-05-03T08:35:00.988Z</time></trkpt><trkpt lat="44.2288011" lon="8.3746282"><ele>276.59999999999997</ele><time>2026-05-03T08:35:01.987Z</time></trkpt><trkpt lat="44.2288464" lon="8.3744922"><ele>275.4</ele><time>2026-05-03T08:35:02.988Z</time></trkpt><trkpt lat="44.2289068" lon="8.374368"><ele>274.2</ele><time>2026-05-03T08:35:03.987Z</time></trkpt><trkpt lat="44.2289795" lon="8.3742628"><ele>273.0</ele><time>2026-05-03T08:35:04.987Z</time></trkpt><trkpt lat="44.2290611" lon="8.3741757"><ele>280.75</ele><time>2026-05-03T08:35:05.987Z</time></trkpt><trkpt lat="44.2291548" lon="8.3740991"><ele>288.5</ele><time>2026-05-03T08:35:06.988Z</time></trkpt><trkpt lat="44.2292548" lon="8.3740291"><ele>296.25</ele><time>2026-05-03T08:35:07.988Z</time></trkpt><trkpt lat="44.2293628" lon="8.3739643"><ele>304.0</ele><time>2026-05-03T08:35:08.987Z</time></trkpt><trkpt lat="44.2294734" lon="8.3738987"><ele>306.25</ele><time>2026-05-03T08:35:09.987Z</time></trkpt><trkpt lat="44.2295875" lon="8.373832"><ele>308.5</ele><time>2026-05-03T08:35:10.987Z</time></trkpt><trkpt lat="44.2297084" lon="8.3737696"><ele>310.75</ele><time>2026-05-03T08:35:11.987Z</time></trkpt><trkpt lat="44.2298221" lon="8.3737012"><ele>313.0</ele><time>2026-05-03T08:35:12.987Z</time></trkpt><trkpt lat="44.2299342" lon="8.3736291"><ele>313.0</ele><time>2026-05-03T08:35:13.988Z</time></trkpt><trkpt lat="44.2300657" lon="8.3735612"><ele>313.0</ele><time>2026-05-03T08:35:14.988Z</time></trkpt><trkpt lat="44.2301783" lon="8.3734773"><ele>313.0</ele><time>2026-05-03T08:35:15.987Z</time></trkpt><trkpt lat="44.2302754" lon="8.3733692"><ele>313.0</ele><time>2026-05-03T08:35:16.987Z</time></trkpt><trkpt lat="44.2303616" lon="8.3732405"><ele>313.0</ele><time>2026-05-03T08:35:17.987Z</time></trkpt><trkpt lat="44.2304379" lon="8.3730988"><ele>313.0</ele><time>2026-05-03T08:35:18.988Z</time></trkpt><trkpt lat="44.2304996" lon="8.3729486"><ele>313.0</ele><time>2026-05-03T08:35:19.987Z</time></trkpt><trkpt lat="44.2305338" lon="8.3727789"><ele>313.0</ele><time>2026-05-03T08:35:20.988Z</time></trkpt><trkpt lat="44.2305572" lon="8.3726068"><ele>313.75</ele><time>2026-05-03T08:35:21.988Z</time></trkpt><trkpt lat="44.2305727" lon="8.3724285"><ele>314.5</ele><time>2026-05-03T08:35:22.987Z</time></trkpt><trkpt lat="44.2305761" lon="8.3722497"><ele>315.25</ele><time>2026-05-03T08:35:23.987Z</time></trkpt><trkpt lat="44.2305805" lon="8.3720752"><ele>316.0</ele><time>2026-05-03T08:35:24.988Z</time></trkpt><trkpt lat="44.2305736" lon="8.3718981"><ele>316.0</ele><time>2026-05-03T08:35:25.988Z</time></trkpt><trkpt lat="44.2305853" lon="8.3717203"><ele>316.0</ele><time>2026-05-03T08:35:26.987Z</time></trkpt><trkpt lat="44.2305951" lon="8.3715395"><ele>316.0</ele><time>2026-05-03T08:35:27.988Z</time></trkpt><trkpt lat="44.2306145" lon="8.3713477"><ele>316.0</ele><time>2026-05-03T08:35:28.988Z</time></trkpt><trkpt lat="44.230633" lon="8.3711667"><ele>319.5</ele><time>2026-05-03T08:35:29.988Z</time></trkpt><trkpt lat="44.2306456" lon="8.3709962"><ele>323.0</ele><time>2026-05-03T08:35:30.987Z</time></trkpt><trkpt lat="44.2306594" lon="8.3708375"><ele>326.5</ele><time>2026-05-03T08:35:31.988Z</time></trkpt><trkpt lat="44.2306762" lon="8.3706861"><ele>330.0</ele><time>2026-05-03T08:35:32.987Z</time></trkpt><trkpt lat="44.230705" lon="8.3705378"><ele>326.5</ele><time>2026-05-03T08:35:33.988Z</time></trkpt><trkpt lat="44.230751" lon="8.3703972"><ele>323.0</ele><time>2026-05-03T08:35:34.987Z</time></trkpt><trkpt lat="44.2308228" lon="8.3702621"><ele>319.5</ele><time>2026-05-03T08:35:35.987Z</time></trkpt><trkpt lat="44.2309116" lon="8.3701362"><ele>316.0</ele><time>2026-05-03T08:35:36.988Z</time></trkpt><trkpt lat="44.2310081" lon="8.3700241"><ele>316.0</ele><time>2026-05-03T08:35:37.987Z</time></trkpt><trkpt lat="44.2310958" lon="8.3699077"><ele>316.0</ele><time>2026-05-03T08:35:38.987Z</time></trkpt><trkpt lat="44.2311849" lon="8.3697969"><ele>316.0</ele><time>2026-05-03T08:35:39.987Z</time></trkpt><trkpt lat="44.2312631" lon="8.3696715"><ele>316.0</ele><time>2026-05-03T08:35:40.987Z</time></trkpt><trkpt lat="44.2313231" lon="8.3695383"><ele>313.75</ele><time>2026-05-03T08:35:41.987Z</time></trkpt><trkpt lat="44.231369" lon="8.3693904"><ele>311.5</ele><time>2026-05-03T08:35:42.987Z</time></trkpt><trkpt lat="44.2313881" lon="8.369222"><ele>309.25</ele><time>2026-05-03T08:35:43.987Z</time></trkpt><trkpt lat="44.2313966" lon="8.3690455"><ele>307.0</ele><time>2026-05-03T08:35:44.987Z</time></trkpt><trkpt lat="44.231403" lon="8.36886"><ele>305.5</ele><time>2026-05-03T08:35:45.987Z</time></trkpt><trkpt lat="44.2314054" lon="8.3686704"><ele>304.0</ele><time>2026-05-03T08:35:46.987Z</time></trkpt><trkpt lat="44.2314055" lon="8.3684846"><ele>302.5</ele><time>2026-05-03T08:35:47.987Z</time></trkpt><trkpt lat="44.2314131" lon="8.3683082"><ele>301.0</ele><time>2026-05-03T08:35:48.987Z</time></trkpt><trkpt lat="44.231421" lon="8.368133"><ele>301.25</ele><time>2026-05-03T08:35:49.988Z</time></trkpt><trkpt lat="44.2314292" lon="8.3679559"><ele>301.5</ele><time>2026-05-03T08:35:50.987Z</time></trkpt><trkpt lat="44.2314364" lon="8.3677809"><ele>301.75</ele><time>2026-05-03T08:35:51.987Z</time></trkpt><trkpt lat="44.2314456" lon="8.367613"><ele>302.0</ele><time>2026-05-03T08:35:52.987Z</time></trkpt><trkpt lat="44.2314423" lon="8.3674462"><ele>302.0</ele><time>2026-05-03T08:35:53.988Z</time></trkpt><trkpt lat="44.2314441" lon="8.3672833"><ele>302.0</ele><time>2026-05-03T08:35:54.987Z</time></trkpt><trkpt lat="44.2314452" lon="8.3671295"><ele>302.0</ele><time>2026-05-03T08:35:55.987Z</time></trkpt><trkpt lat="44.2314391" lon="8.3669795"><ele>302.0</ele><time>2026-05-03T08:35:56.988Z</time></trkpt><trkpt lat="44.2314252" lon="8.3668362"><ele>302.0</ele><time>2026-05-03T08:35:57.987Z</time></trkpt><trkpt lat="44.2313883" lon="8.3667027"><ele>304.6</ele><time>2026-05-03T08:35:58.987Z</time></trkpt><trkpt lat="44.2313312" lon="8.3665893"><ele>307.2</ele><time>2026-05-03T08:35:59.987Z</time></trkpt><trkpt lat="44.2312507" lon="8.3665049"><ele>309.8</ele><time>2026-05-03T08:36:00.988Z</time></trkpt><trkpt lat="44.2311509" lon="8.3664542"><ele>312.4</ele><time>2026-05-03T08:36:01.987Z</time></trkpt><trkpt lat="44.23104" lon="8.3664342"><ele>315.0</ele><time>2026-05-03T08:36:02.987Z</time></trkpt><trkpt lat="44.2309269" lon="8.3664336"><ele>315.0</ele><time>2026-05-03T08:36:03.987Z</time></trkpt><trkpt lat="44.2308114" lon="8.3664371"><ele>315.0</ele><time>2026-05-03T08:36:04.987Z</time></trkpt><trkpt lat="44.2306919" lon="8.3664405"><ele>315.0</ele><time>2026-05-03T08:36:05.987Z</time></trkpt><trkpt lat="44.2305742" lon="8.3664471"><ele>315.0</ele><time>2026-05-03T08:36:06.987Z</time></trkpt><trkpt lat="44.2304624" lon="8.3664549"><ele>315.75</ele><time>2026-05-03T08:36:07.987Z</time></trkpt><trkpt lat="44.2303511" lon="8.3664853"><ele>316.5</ele><time>2026-05-03T08:36:08.988Z</time></trkpt><trkpt lat="44.2302397" lon="8.3665217"><ele>317.25</ele><time>2026-05-03T08:36:09.987Z</time></trkpt><trkpt lat="44.2301245" lon="8.3665747"><ele>318.0</ele><time>2026-05-03T08:36:10.987Z</time></trkpt><trkpt lat="44.2300106" lon="8.3666406"><ele>318.0</ele><time>2026-05-03T08:36:11.988Z</time></trkpt><trkpt lat="44.2298934" lon="8.3667046"><ele>318.0</ele><time>2026-05-03T08:36:12.987Z</time></trkpt><trkpt lat="44.2297838" lon="8.3667574"><ele>318.0</ele><time>2026-05-03T08:36:13.987Z</time></trkpt><trkpt lat="44.2296752" lon="8.3667705"><ele>318.0</ele><time>2026-05-03T08:36:14.987Z</time></trkpt><trkpt lat="44.2295656" lon="8.3667314"><ele>315.2</ele><time>2026-05-03T08:36:15.987Z</time></trkpt><trkpt lat="44.2294596" lon="8.3666872"><ele>312.4</ele><time>2026-05-03T08:36:16.987Z</time></trkpt><trkpt lat="44.2293564" lon="8.3666332"><ele>309.59999999999997</ele><time>2026-05-03T08:36:17.988Z</time></trkpt><trkpt lat="44.22926" lon="8.3665666"><ele>306.8</ele><time>2026-05-03T08:36:18.988Z</time></trkpt><trkpt lat="44.2291692" lon="8.3664834"><ele>304.0</ele><time>2026-05-03T08:36:19.987Z</time></trkpt><trkpt lat="44.2290892" lon="8.3663851"><ele>304.8</ele><time>2026-05-03T08:36:20.987Z</time></trkpt><trkpt lat="44.2290185" lon="8.3662752"><ele>305.59999999999997</ele><time>2026-05-03T08:36:21.987Z</time></trkpt><trkpt lat="44.2289583" lon="8.3661458"><ele>306.4</ele><time>2026-05-03T08:36:22.987Z</time></trkpt><trkpt lat="44.2288916" lon="8.3660311"><ele>307.2</ele><time>2026-05-03T08:36:23.988Z</time></trkpt><trkpt lat="44.2288257" lon="8.3659186"><ele>308.0</ele><time>2026-05-03T08:36:24.988Z</time></trkpt><trkpt lat="44.2287448" lon="8.3658251"><ele>308.0</ele><time>2026-05-03T08:36:25.988Z</time></trkpt><trkpt lat="44.2286472" lon="8.3657578"><ele>308.0</ele><time>2026-05-03T08:36:26.988Z</time></trkpt><trkpt lat="44.2285415" lon="8.3657082"><ele>308.0</ele><time>2026-05-03T08:36:27.987Z</time></trkpt><trkpt lat="44.2284354" lon="8.3656625"><ele>308.0</ele><time>2026-05-03T08:36:28.987Z</time></trkpt><trkpt lat="44.22833" lon="8.3656192"><ele>308.0</ele><time>2026-05-03T08:36:29.988Z</time></trkpt><trkpt lat="44.2282279" lon="8.3655773"><ele>307.4</ele><time>2026-05-03T08:36:30.987Z</time></trkpt><trkpt lat="44.2281221" lon="8.3655358"><ele>306.8</ele><time>2026-05-03T08:36:31.987Z</time></trkpt><trkpt lat="44.2280204" lon="8.3655024"><ele>306.2</ele><time>2026-05-03T08:36:32.987Z</time></trkpt><trkpt lat="44.2279238" lon="8.3654654"><ele>305.6</ele><time>2026-05-03T08:36:33.988Z</time></trkpt><trkpt lat="44.2278298" lon="8.3654177"><ele>305.0</ele><time>2026-05-03T08:36:34.987Z</time></trkpt><trkpt lat="44.2277316" lon="8.3653577"><ele>305.0</ele><time>2026-05-03T08:36:35.987Z</time></trkpt><trkpt lat="44.2276347" lon="8.3652805"><ele>305.0</ele><time>2026-05-03T08:36:36.987Z</time></trkpt><trkpt lat="44.2275396" lon="8.365198"><ele>305.0</ele><time>2026-05-03T08:36:37.988Z</time></trkpt><trkpt lat="44.2274435" lon="8.3651145"><ele>305.0</ele><time>2026-05-03T08:36:38.987Z</time></trkpt><trkpt lat="44.2273458" lon="8.3650257"><ele>305.0</ele><time>2026-05-03T08:36:39.988Z</time></trkpt><trkpt lat="44.2272422" lon="8.364963"><ele>305.0</ele><time>2026-05-03T08:36:40.987Z</time></trkpt><trkpt lat="44.2271379" lon="8.3649273"><ele>305.0</ele><time>2026-05-03T08:36:41.987Z</time></trkpt><trkpt lat="44.2270335" lon="8.3649298"><ele>305.0</ele><time>2026-05-03T08:36:42.987Z</time></trkpt><trkpt lat="44.2269283" lon="8.3649676"><ele>305.0</ele><time>2026-05-03T08:36:43.988Z</time></trkpt><trkpt lat="44.2268255" lon="8.3650134"><ele>305.0</ele><time>2026-05-03T08:36:44.987Z</time></trkpt><trkpt lat="44.226725" lon="8.3650601"><ele>305.0</ele><time>2026-05-03T08:36:45.987Z</time></trkpt><trkpt lat="44.2266299" lon="8.3651185"><ele>305.0</ele><time>2026-05-03T08:36:46.987Z</time></trkpt><trkpt lat="44.2265421" lon="8.3651886"><ele>305.0</ele><time>2026-05-03T08:36:47.988Z</time></trkpt><trkpt lat="44.2264542" lon="8.3652698"><ele>305.0</ele><time>2026-05-03T08:36:48.987Z</time></trkpt><trkpt lat="44.2263676" lon="8.3653584"><ele>305.4</ele><time>2026-05-03T08:36:49.987Z</time></trkpt><trkpt lat="44.2262702" lon="8.3654473"><ele>305.8</ele><time>2026-05-03T08:36:50.987Z</time></trkpt><trkpt lat="44.22618" lon="8.3655376"><ele>306.2</ele><time>2026-05-03T08:36:51.988Z</time></trkpt><trkpt lat="44.2260932" lon="8.365624"><ele>306.6</ele><time>2026-05-03T08:36:52.987Z</time></trkpt><trkpt lat="44.2260151" lon="8.3657011"><ele>307.0</ele><time>2026-05-03T08:36:53.987Z</time></trkpt><trkpt lat="44.2259459" lon="8.365773"><ele>308.16666666666663</ele><time>2026-05-03T08:36:54.988Z</time></trkpt><trkpt lat="44.2258859" lon="8.3658301"><ele>309.3333333333333</ele><time>2026-05-03T08:36:55.987Z</time></trkpt><trkpt lat="44.2258212" lon="8.3658665"><ele>310.5</ele><time>2026-05-03T08:36:56.987Z</time></trkpt><trkpt lat="44.2257581" lon="8.3658791"><ele>311.6666666666667</ele><time>2026-05-03T08:36:57.988Z</time></trkpt><trkpt lat="44.2256941" lon="8.3658766"><ele>312.83333333333337</ele><time>2026-05-03T08:36:58.987Z</time></trkpt><trkpt lat="44.2255777" lon="8.3658148"><ele>314.0</ele><time>2026-05-03T08:37:00.987Z</time></trkpt><trkpt lat="44.225519" lon="8.36576"><ele>314.5</ele><time>2026-05-03T08:37:01.987Z</time></trkpt><trkpt lat="44.2254692" lon="8.3656904"><ele>315.0</ele><time>2026-05-03T08:37:02.988Z</time></trkpt><trkpt lat="44.225416" lon="8.3656114"><ele>315.5</ele><time>2026-05-03T08:37:03.987Z</time></trkpt><trkpt lat="44.2253599" lon="8.3655254"><ele>316.0</ele><time>2026-05-03T08:37:04.987Z</time></trkpt><trkpt lat="44.2253003" lon="8.3654224"><ele>316.5</ele><time>2026-05-03T08:37:05.987Z</time></trkpt><trkpt lat="44.2252372" lon="8.3653112"><ele>317.0</ele><time>2026-05-03T08:37:06.987Z</time></trkpt><trkpt lat="44.2251738" lon="8.3651997"><ele>317.0</ele><time>2026-05-03T08:37:07.987Z</time></trkpt><trkpt lat="44.2251114" lon="8.3650838"><ele>317.0</ele><time>2026-05-03T08:37:08.988Z</time></trkpt><trkpt lat="44.2250487" lon="8.3649671"><ele>317.0</ele><time>2026-05-03T08:37:09.988Z</time></trkpt><trkpt lat="44.224987" lon="8.3648472"><ele>317.0</ele><time>2026-05-03T08:37:10.988Z</time></trkpt><trkpt lat="44.2249228" lon="8.3647223"><ele>317.0</ele><time>2026-05-03T08:37:11.987Z</time></trkpt><trkpt lat="44.2248569" lon="8.3645944"><ele>318.75</ele><time>2026-05-03T08:37:12.987Z</time></trkpt><trkpt lat="44.2247826" lon="8.3644616"><ele>320.5</ele><time>2026-05-03T08:37:13.987Z</time></trkpt><trkpt lat="44.2247061" lon="8.3643225"><ele>322.25</ele><time>2026-05-03T08:37:14.987Z</time></trkpt><trkpt lat="44.2246286" lon="8.3641853"><ele>324.0</ele><time>2026-05-03T08:37:15.987Z</time></trkpt><trkpt lat="44.2245462" lon="8.3640473"><ele>324.0</ele><time>2026-05-03T08:37:16.988Z</time></trkpt><trkpt lat="44.2244618" lon="8.3639067"><ele>324.0</ele><time>2026-05-03T08:37:17.987Z</time></trkpt><trkpt lat="44.2243655" lon="8.3637928"><ele>324.0</ele><time>2026-05-03T08:37:18.987Z</time></trkpt><trkpt lat="44.2242602" lon="8.3636955"><ele>324.0</ele><time>2026-05-03T08:37:19.987Z</time></trkpt><trkpt lat="44.2241513" lon="8.3636232"><ele>323.0</ele><time>2026-05-03T08:37:20.987Z</time></trkpt><trkpt lat="44.2240407" lon="8.3635816"><ele>322.0</ele><time>2026-05-03T08:37:21.988Z</time></trkpt><trkpt lat="44.2239326" lon="8.3635501"><ele>321.0</ele><time>2026-05-03T08:37:22.987Z</time></trkpt><trkpt lat="44.2238353" lon="8.3634996"><ele>320.0</ele><time>2026-05-03T08:37:23.987Z</time></trkpt><trkpt lat="44.2237291" lon="8.3634327"><ele>319.0</ele><time>2026-05-03T08:37:24.987Z</time></trkpt><trkpt lat="44.2236349" lon="8.3633471"><ele>319.0</ele><time>2026-05-03T08:37:25.988Z</time></trkpt><trkpt lat="44.2235598" lon="8.3632356"><ele>319.0</ele><time>2026-05-03T08:37:26.988Z</time></trkpt><trkpt lat="44.2235075" lon="8.3631145"><ele>319.0</ele><time>2026-05-03T08:37:27.987Z</time></trkpt><trkpt lat="44.2234656" lon="8.3629887"><ele>319.0</ele><time>2026-05-03T08:37:28.987Z</time></trkpt><trkpt lat="44.2234381" lon="8.3628602"><ele>319.0</ele><time>2026-05-03T08:37:29.987Z</time></trkpt><trkpt lat="44.2234107" lon="8.3627413"><ele>316.0</ele><time>2026-05-03T08:37:30.988Z</time></trkpt><trkpt lat="44.2233744" lon="8.3626395"><ele>313.0</ele><time>2026-05-03T08:37:31.987Z</time></trkpt><trkpt lat="44.223317" lon="8.3625465"><ele>310.0</ele><time>2026-05-03T08:37:32.987Z</time></trkpt><trkpt lat="44.22324" lon="8.362467"><ele>307.0</ele><time>2026-05-03T08:37:33.987Z</time></trkpt><trkpt lat="44.22315" lon="8.3624066"><ele>304.0</ele><time>2026-05-03T08:37:34.987Z</time></trkpt><trkpt lat="44.223052" lon="8.3623565"><ele>304.0</ele><time>2026-05-03T08:37:35.988Z</time></trkpt><trkpt lat="44.2229481" lon="8.3623111"><ele>304.0</ele><time>2026-05-03T08:37:36.988Z</time></trkpt><trkpt lat="44.2228379" lon="8.3622652"><ele>304.0</ele><time>2026-05-03T08:37:37.987Z</time></trkpt><trkpt lat="44.2227281" lon="8.3622113"><ele>304.0</ele><time>2026-05-03T08:37:38.988Z</time></trkpt><trkpt lat="44.2226194" lon="8.3621567"><ele>299.0</ele><time>2026-05-03T08:37:39.987Z</time></trkpt><trkpt lat="44.2225083" lon="8.3621011"><ele>294.0</ele><time>2026-05-03T08:37:40.988Z</time></trkpt><trkpt lat="44.2223917" lon="8.3620451"><ele>289.0</ele><time>2026-05-03T08:37:41.987Z</time></trkpt><trkpt lat="44.2222742" lon="8.3619865"><ele>284.0</ele><time>2026-05-03T08:37:42.988Z</time></trkpt><trkpt lat="44.2221593" lon="8.3619265"><ele>284.0</ele><time>2026-05-03T08:37:43.987Z</time></trkpt><trkpt lat="44.2220455" lon="8.3618653"><ele>284.0</ele><time>2026-05-03T08:37:44.987Z</time></trkpt><trkpt lat="44.221927" lon="8.3618002"><ele>284.0</ele><time>2026-05-03T08:37:45.987Z</time></trkpt><trkpt lat="44.2218075" lon="8.3617396"><ele>284.0</ele><time>2026-05-03T08:37:46.987Z</time></trkpt><trkpt lat="44.2216898" lon="8.3616957"><ele>284.0</ele><time>2026-05-03T08:37:47.988Z</time></trkpt><trkpt lat="44.2215713" lon="8.3616615"><ele>284.0</ele><time>2026-05-03T08:37:48.988Z</time></trkpt><trkpt lat="44.2214593" lon="8.3616391"><ele>284.0</ele><time>2026-05-03T08:37:49.987Z</time></trkpt><trkpt lat="44.2213474" lon="8.3616286"><ele>284.0</ele><time>2026-05-03T08:37:50.988Z</time></trkpt><trkpt lat="44.2212358" lon="8.3616308"><ele>283.5</ele><time>2026-05-03T08:37:51.987Z</time></trkpt><trkpt lat="44.2211179" lon="8.3616392"><ele>283.0</ele><time>2026-05-03T08:37:52.987Z</time></trkpt><trkpt lat="44.2210009" lon="8.3616555"><ele>282.5</ele><time>2026-05-03T08:37:53.987Z</time></trkpt><trkpt lat="44.2208868" lon="8.3616737"><ele>282.0</ele><time>2026-05-03T08:37:54.988Z</time></trkpt><trkpt lat="44.2207774" lon="8.3616876"><ele>282.0</ele><time>2026-05-03T08:37:55.987Z</time></trkpt><trkpt lat="44.220677" lon="8.3616896"><ele>282.0</ele><time>2026-05-03T08:37:56.987Z</time></trkpt><trkpt lat="44.2205808" lon="8.3616879"><ele>282.0</ele><time>2026-05-03T08:37:57.988Z</time></trkpt><trkpt lat="44.2204804" lon="8.3617072"><ele>282.0</ele><time>2026-05-03T08:37:58.988Z</time></trkpt><trkpt lat="44.2203653" lon="8.361741"><ele>282.0</ele><time>2026-05-03T08:37:59.987Z</time></trkpt><trkpt lat="44.2202498" lon="8.3617878"><ele>279.25</ele><time>2026-05-03T08:38:00.988Z</time></trkpt><trkpt lat="44.2201281" lon="8.3618322"><ele>276.5</ele><time>2026-05-03T08:38:01.987Z</time></trkpt><trkpt lat="44.2200084" lon="8.3618799"><ele>273.75</ele><time>2026-05-03T08:38:02.987Z</time></trkpt><trkpt lat="44.2198961" lon="8.3619238"><ele>271.0</ele><time>2026-05-03T08:38:03.988Z</time></trkpt><trkpt lat="44.2197914" lon="8.3619676"><ele>269.6</ele><time>2026-05-03T08:38:04.987Z</time></trkpt><trkpt lat="44.2196938" lon="8.3620052"><ele>268.20000000000005</ele><time>2026-05-03T08:38:05.988Z</time></trkpt><trkpt lat="44.2196029" lon="8.3620316"><ele>266.79999999999995</ele><time>2026-05-03T08:38:06.988Z</time></trkpt><trkpt lat="44.2195196" lon="8.3620416"><ele>265.4</ele><time>2026-05-03T08:38:07.987Z</time></trkpt><trkpt lat="44.2194404" lon="8.36204"><ele>264.0</ele><time>2026-05-03T08:38:08.987Z</time></trkpt><trkpt lat="44.2193157" lon="8.3619989"><ele>264.0</ele><time>2026-05-03T08:38:10.987Z</time></trkpt><trkpt lat="44.2192441" lon="8.3619016"><ele>264.0</ele><time>2026-05-03T08:38:12.987Z</time></trkpt><trkpt lat="44.219257" lon="8.3617636"><ele>264.0</ele><time>2026-05-03T08:38:14.987Z</time></trkpt><trkpt lat="44.219307" lon="8.3616736"><ele>264.0</ele><time>2026-05-03T08:38:15.987Z</time></trkpt><trkpt lat="44.2193742" lon="8.3615759"><ele>264.0</ele><time>2026-05-03T08:38:16.987Z</time></trkpt><trkpt lat="44.2194482" lon="8.3614763"><ele>264.0</ele><time>2026-05-03T08:38:17.987Z</time></trkpt><trkpt lat="44.2195249" lon="8.3613809"><ele>264.0</ele><time>2026-05-03T08:38:18.987Z</time></trkpt><trkpt lat="44.219607" lon="8.3612826"><ele>264.0</ele><time>2026-05-03T08:38:19.987Z</time></trkpt><trkpt lat="44.2196783" lon="8.3611957"><ele>264.0</ele><time>2026-05-03T08:38:20.987Z</time></trkpt><trkpt lat="44.2197522" lon="8.3611133"><ele>264.0</ele><time>2026-05-03T08:38:21.987Z</time></trkpt><trkpt lat="44.2198302" lon="8.3610384"><ele>262.3333333333333</ele><time>2026-05-03T08:38:22.988Z</time></trkpt><trkpt lat="44.2199133" lon="8.3609805"><ele>260.6666666666667</ele><time>2026-05-03T08:38:23.987Z</time></trkpt><trkpt lat="44.2199989" lon="8.36095"><ele>259.0</ele><time>2026-05-03T08:38:24.987Z</time></trkpt><trkpt lat="44.220086" lon="8.3609381"><ele>257.33333333333337</ele><time>2026-05-03T08:38:25.987Z</time></trkpt><trkpt lat="44.2201645" lon="8.3609465"><ele>255.66666666666669</ele><time>2026-05-03T08:38:26.988Z</time></trkpt><trkpt lat="44.2202394" lon="8.3609726"><ele>254.0</ele><time>2026-05-03T08:38:27.988Z</time></trkpt><trkpt lat="44.2203074" lon="8.360981"><ele>254.00000000000003</ele><time>2026-05-03T08:38:28.988Z</time></trkpt><trkpt lat="44.2203714" lon="8.3609633"><ele>254.0</ele><time>2026-05-03T08:38:29.987Z</time></trkpt><trkpt lat="44.2204684" lon="8.3608649"><ele>254.0</ele><time>2026-05-03T08:38:31.988Z</time></trkpt><trkpt lat="44.2204961" lon="8.3607781"><ele>254.0</ele><time>2026-05-03T08:38:32.987Z</time></trkpt><trkpt lat="44.2205104" lon="8.3606546"><ele>254.00000000000003</ele><time>2026-05-03T08:38:33.988Z</time></trkpt><trkpt lat="44.2205382" lon="8.3605299"><ele>254.0</ele><time>2026-05-03T08:38:34.987Z</time></trkpt><trkpt lat="44.2205791" lon="8.3604014"><ele>253.2</ele><time>2026-05-03T08:38:35.988Z</time></trkpt><trkpt lat="44.2206191" lon="8.3602565"><ele>252.39999999999998</ele><time>2026-05-03T08:38:36.988Z</time></trkpt><trkpt lat="44.2206749" lon="8.3601127"><ele>251.6</ele><time>2026-05-03T08:38:37.988Z</time></trkpt><trkpt lat="44.220736" lon="8.3599827"><ele>250.8</ele><time>2026-05-03T08:38:38.987Z</time></trkpt><trkpt lat="44.2207909" lon="8.3598721"><ele>250.0</ele><time>2026-05-03T08:38:39.987Z</time></trkpt><trkpt lat="44.2208464" lon="8.3597744"><ele>247.0</ele><time>2026-05-03T08:38:40.988Z</time></trkpt><trkpt lat="44.2209096" lon="8.3596643"><ele>244.0</ele><time>2026-05-03T08:38:41.987Z</time></trkpt><trkpt lat="44.2209762" lon="8.3595707"><ele>241.0</ele><time>2026-05-03T08:38:42.987Z</time></trkpt><trkpt lat="44.2210511" lon="8.3594876"><ele>238.0</ele><time>2026-05-03T08:38:43.987Z</time></trkpt><trkpt lat="44.2211345" lon="8.3594257"><ele>235.0</ele><time>2026-05-03T08:38:44.988Z</time></trkpt><trkpt lat="44.2212176" lon="8.3593759"><ele>234.99999999999997</ele><time>2026-05-03T08:38:45.988Z</time></trkpt><trkpt lat="44.2212966" lon="8.3593342"><ele>235.0</ele><time>2026-05-03T08:38:46.987Z</time></trkpt><trkpt lat="44.2213772" lon="8.3593107"><ele>235.0</ele><time>2026-05-03T08:38:47.987Z</time></trkpt><trkpt lat="44.221444" lon="8.3592933"><ele>235.0</ele><time>2026-05-03T08:38:48.987Z</time></trkpt><trkpt lat="44.2215086" lon="8.3592052"><ele>234.99999999999997</ele><time>2026-05-03T08:38:50.987Z</time></trkpt><trkpt lat="44.2215001" lon="8.359074"><ele>235.0</ele><time>2026-05-03T08:38:52.987Z</time></trkpt><trkpt lat="44.2214392" lon="8.3589553"><ele>235.0</ele><time>2026-05-03T08:38:54.987Z</time></trkpt><trkpt lat="44.2213202" lon="8.35888"><ele>235.0</ele><time>2026-05-03T08:38:56.987Z</time></trkpt><trkpt lat="44.2212282" lon="8.3588982"><ele>235.0</ele><time>2026-05-03T08:38:57.988Z</time></trkpt><trkpt lat="44.2211336" lon="8.3589289"><ele>235.0</ele><time>2026-05-03T08:38:58.987Z</time></trkpt><trkpt lat="44.2210159" lon="8.3590102"><ele>235.0</ele><time>2026-05-03T08:38:59.988Z</time></trkpt><trkpt lat="44.2208984" lon="8.3591138"><ele>235.0</ele><time>2026-05-03T08:39:00.987Z</time></trkpt><trkpt lat="44.2207898" lon="8.3592294"><ele>235.0</ele><time>2026-05-03T08:39:01.988Z</time></trkpt><trkpt lat="44.220695" lon="8.3593266"><ele>235.0</ele><time>2026-05-03T08:39:02.987Z</time></trkpt><trkpt lat="44.2206035" lon="8.3594164"><ele>235.2</ele><time>2026-05-03T08:39:03.987Z</time></trkpt><trkpt lat="44.2205257" lon="8.3595036"><ele>235.4</ele><time>2026-05-03T08:39:04.988Z</time></trkpt><trkpt lat="44.2204523" lon="8.359594"><ele>235.60000000000002</ele><time>2026-05-03T08:39:05.987Z</time></trkpt><trkpt lat="44.2203861" lon="8.3596878"><ele>235.8</ele><time>2026-05-03T08:39:06.987Z</time></trkpt><trkpt lat="44.2203219" lon="8.3597823"><ele>236.0</ele><time>2026-05-03T08:39:07.987Z</time></trkpt><trkpt lat="44.2202597" lon="8.3598699"><ele>236.00000000000003</ele><time>2026-05-03T08:39:08.987Z</time></trkpt><trkpt lat="44.2201936" lon="8.3599396"><ele>236.0</ele><time>2026-05-03T08:39:09.987Z</time></trkpt><trkpt lat="44.2201155" lon="8.3599878"><ele>236.0</ele><time>2026-05-03T08:39:10.987Z</time></trkpt><trkpt lat="44.2200312" lon="8.3600114"><ele>236.0</ele><time>2026-05-03T08:39:11.987Z</time></trkpt><trkpt lat="44.2199431" lon="8.3599993"><ele>236.00000000000003</ele><time>2026-05-03T08:39:12.987Z</time></trkpt><trkpt lat="44.2198493" lon="8.3599522"><ele>236.0</ele><time>2026-05-03T08:39:13.987Z</time></trkpt><trkpt lat="44.2197615" lon="8.3598809"><ele>233.20000000000002</ele><time>2026-05-03T08:39:14.987Z</time></trkpt><trkpt lat="44.2196738" lon="8.3597893"><ele>230.40000000000003</ele><time>2026-05-03T08:39:15.988Z</time></trkpt><trkpt lat="44.2195987" lon="8.3597071"><ele>227.6</ele><time>2026-05-03T08:39:16.987Z</time></trkpt><trkpt lat="44.2195228" lon="8.3596397"><ele>224.8</ele><time>2026-05-03T08:39:17.987Z</time></trkpt><trkpt lat="44.2194451" lon="8.3595964"><ele>222.0</ele><time>2026-05-03T08:39:18.987Z</time></trkpt><trkpt lat="44.2193707" lon="8.3595777"><ele>222.0</ele><time>2026-05-03T08:39:19.987Z</time></trkpt><trkpt lat="44.2192886" lon="8.3595905"><ele>222.0</ele><time>2026-05-03T08:39:20.987Z</time></trkpt><trkpt lat="44.2192052" lon="8.3596392"><ele>222.0</ele><time>2026-05-03T08:39:21.987Z</time></trkpt><trkpt lat="44.2191037" lon="8.3597157"><ele>222.0</ele><time>2026-05-03T08:39:22.988Z</time></trkpt><trkpt lat="44.2189992" lon="8.3597895"><ele>222.0</ele><time>2026-05-03T08:39:23.988Z</time></trkpt><trkpt lat="44.218896" lon="8.3598551"><ele>220.39999999999998</ele><time>2026-05-03T08:39:24.988Z</time></trkpt><trkpt lat="44.2187972" lon="8.3599124"><ele>218.79999999999998</ele><time>2026-05-03T08:39:25.988Z</time></trkpt><trkpt lat="44.2187062" lon="8.3599609"><ele>217.2</ele><time>2026-05-03T08:39:26.988Z</time></trkpt><trkpt lat="44.2186064" lon="8.3600008"><ele>215.6</ele><time>2026-05-03T08:39:27.987Z</time></trkpt><trkpt lat="44.2185077" lon="8.3600218"><ele>214.0</ele><time>2026-05-03T08:39:28.987Z</time></trkpt><trkpt lat="44.2184178" lon="8.3600277"><ele>214.0</ele><time>2026-05-03T08:39:29.987Z</time></trkpt><trkpt lat="44.2183291" lon="8.3600139"><ele>213.99999999999997</ele><time>2026-05-03T08:39:30.987Z</time></trkpt><trkpt lat="44.2182344" lon="8.3599759"><ele>213.99999999999997</ele><time>2026-05-03T08:39:31.987Z</time></trkpt><trkpt lat="44.2181442" lon="8.3599332"><ele>214.0</ele><time>2026-05-03T08:39:32.987Z</time></trkpt><trkpt lat="44.2180402" lon="8.3598695"><ele>214.0</ele><time>2026-05-03T08:39:33.987Z</time></trkpt><trkpt lat="44.2179323" lon="8.3597999"><ele>214.79999999999998</ele><time>2026-05-03T08:39:34.988Z</time></trkpt><trkpt lat="44.2178381" lon="8.3597257"><ele>215.59999999999997</ele><time>2026-05-03T08:39:35.988Z</time></trkpt><trkpt lat="44.217735" lon="8.3596527"><ele>216.4</ele><time>2026-05-03T08:39:36.988Z</time></trkpt><trkpt lat="44.2176353" lon="8.3595846"><ele>217.2</ele><time>2026-05-03T08:39:37.988Z</time></trkpt><trkpt lat="44.2175416" lon="8.3595255"><ele>218.0</ele><time>2026-05-03T08:39:38.987Z</time></trkpt><trkpt lat="44.2174397" lon="8.3594828"><ele>213.0</ele><time>2026-05-03T08:39:39.987Z</time></trkpt><trkpt lat="44.2173169" lon="8.3594585"><ele>208.0</ele><time>2026-05-03T08:39:40.987Z</time></trkpt><trkpt lat="44.2172039" lon="8.3594576"><ele>203.0</ele><time>2026-05-03T08:39:41.988Z</time></trkpt><trkpt lat="44.2170975" lon="8.3594818"><ele>198.0</ele><time>2026-05-03T08:39:42.987Z</time></trkpt><trkpt lat="44.2169968" lon="8.3595147"><ele>193.0</ele><time>2026-05-03T08:39:43.988Z</time></trkpt><trkpt lat="44.2168876" lon="8.3595463"><ele>193.0</ele><time>2026-05-03T08:39:44.987Z</time></trkpt><trkpt lat="44.2167784" lon="8.3595736"><ele>193.0</ele><time>2026-05-03T08:39:45.988Z</time></trkpt><trkpt lat="44.2166752" lon="8.3596079"><ele>193.0</ele><time>2026-05-03T08:39:46.987Z</time></trkpt><trkpt lat="44.2165759" lon="8.359629"><ele>193.0</ele><time>2026-05-03T08:39:47.987Z</time></trkpt><trkpt lat="44.2164801" lon="8.3596414"><ele>193.0</ele><time>2026-05-03T08:39:48.987Z</time></trkpt><trkpt lat="44.2163817" lon="8.3596641"><ele>191.66666666666666</ele><time>2026-05-03T08:39:49.988Z</time></trkpt><trkpt lat="44.2162865" lon="8.3596952"><ele>190.33333333333331</ele><time>2026-05-03T08:39:50.987Z</time></trkpt><trkpt lat="44.2161962" lon="8.3597332"><ele>189.0</ele><time>2026-05-03T08:39:51.987Z</time></trkpt><trkpt lat="44.2161125" lon="8.3597774"><ele>187.66666666666666</ele><time>2026-05-03T08:39:52.987Z</time></trkpt><trkpt lat="44.216033" lon="8.3598239"><ele>186.33333333333331</ele><time>2026-05-03T08:39:53.987Z</time></trkpt><trkpt lat="44.2159614" lon="8.359857"><ele>185.0</ele><time>2026-05-03T08:39:54.987Z</time></trkpt><trkpt lat="44.2158841" lon="8.3598794"><ele>189.5</ele><time>2026-05-03T08:39:55.988Z</time></trkpt><trkpt lat="44.2157997" lon="8.3598691"><ele>194.0</ele><time>2026-05-03T08:39:56.987Z</time></trkpt><trkpt lat="44.2157159" lon="8.3598373"><ele>198.5</ele><time>2026-05-03T08:39:57.988Z</time></trkpt><trkpt lat="44.2156231" lon="8.3598187"><ele>203.0</ele><time>2026-05-03T08:39:58.987Z</time></trkpt><trkpt lat="44.2155344" lon="8.3598178"><ele>207.50000000000003</ele><time>2026-05-03T08:39:59.988Z</time></trkpt><trkpt lat="44.2154499" lon="8.3598252"><ele>212.0</ele><time>2026-05-03T08:40:00.988Z</time></trkpt><trkpt lat="44.2153715" lon="8.3598295"><ele>213.39999999999998</ele><time>2026-05-03T08:40:01.987Z</time></trkpt><trkpt lat="44.2152943" lon="8.3598229"><ele>214.79999999999998</ele><time>2026-05-03T08:40:02.987Z</time></trkpt><trkpt lat="44.2152083" lon="8.3597813"><ele>216.2</ele><time>2026-05-03T08:40:03.987Z</time></trkpt><trkpt lat="44.2151288" lon="8.3597157"><ele>217.6</ele><time>2026-05-03T08:40:04.988Z</time></trkpt><trkpt lat="44.2150525" lon="8.3596309"><ele>219.0</ele><time>2026-05-03T08:40:05.987Z</time></trkpt><trkpt lat="44.2149784" lon="8.3595031"><ele>216.0</ele><time>2026-05-03T08:40:06.988Z</time></trkpt><trkpt lat="44.2149177" lon="8.3593619"><ele>213.0</ele><time>2026-05-03T08:40:07.987Z</time></trkpt><trkpt lat="44.2148627" lon="8.3592125"><ele>210.0</ele><time>2026-05-03T08:40:08.988Z</time></trkpt><trkpt lat="44.2148049" lon="8.3590511"><ele>207.0</ele><time>2026-05-03T08:40:09.988Z</time></trkpt><trkpt lat="44.2147446" lon="8.3588868"><ele>202.75</ele><time>2026-05-03T08:40:10.987Z</time></trkpt><trkpt lat="44.2146844" lon="8.3587281"><ele>198.5</ele><time>2026-05-03T08:40:11.988Z</time></trkpt><trkpt lat="44.2146281" lon="8.3585669"><ele>194.25</ele><time>2026-05-03T08:40:12.987Z</time></trkpt><trkpt lat="44.2145735" lon="8.3584159"><ele>190.0</ele><time>2026-05-03T08:40:13.987Z</time></trkpt><trkpt lat="44.2145146" lon="8.3582781"><ele>190.0</ele><time>2026-05-03T08:40:14.988Z</time></trkpt><trkpt lat="44.2144534" lon="8.3581547"><ele>190.0</ele><time>2026-05-03T08:40:15.987Z</time></trkpt><trkpt lat="44.2143783" lon="8.3580501"><ele>190.0</ele><time>2026-05-03T08:40:16.988Z</time></trkpt><trkpt lat="44.2142943" lon="8.3579629"><ele>190.0</ele><time>2026-05-03T08:40:17.988Z</time></trkpt><trkpt lat="44.2142093" lon="8.3578965"><ele>190.0</ele><time>2026-05-03T08:40:18.987Z</time></trkpt><trkpt lat="44.2141074" lon="8.3578675"><ele>184.5</ele><time>2026-05-03T08:40:19.987Z</time></trkpt><trkpt lat="44.213992" lon="8.3578668"><ele>179.0</ele><time>2026-05-03T08:40:20.987Z</time></trkpt><trkpt lat="44.2138772" lon="8.3578911"><ele>173.5</ele><time>2026-05-03T08:40:21.988Z</time></trkpt><trkpt lat="44.2137643" lon="8.3579252"><ele>168.0</ele><time>2026-05-03T08:40:22.988Z</time></trkpt><trkpt lat="44.2136597" lon="8.3579468"><ele>168.0</ele><time>2026-05-03T08:40:23.987Z</time></trkpt><trkpt lat="44.2135617" lon="8.3579472"><ele>168.0</ele><time>2026-05-03T08:40:24.988Z</time></trkpt><trkpt lat="44.213472" lon="8.3579159"><ele>168.0</ele><time>2026-05-03T08:40:25.988Z</time></trkpt><trkpt lat="44.2133882" lon="8.3578621"><ele>168.0</ele><time>2026-05-03T08:40:26.987Z</time></trkpt><trkpt lat="44.2133242" lon="8.3577723"><ele>168.0</ele><time>2026-05-03T08:40:27.987Z</time></trkpt><trkpt lat="44.2132719" lon="8.3576552"><ele>168.0</ele><time>2026-05-03T08:40:28.988Z</time></trkpt><trkpt lat="44.2132128" lon="8.3575256"><ele>168.0</ele><time>2026-05-03T08:40:29.987Z</time></trkpt><trkpt lat="44.213143" lon="8.3574108"><ele>168.0</ele><time>2026-05-03T08:40:30.988Z</time></trkpt><trkpt lat="44.2130588" lon="8.3573156"><ele>168.0</ele><time>2026-05-03T08:40:31.988Z</time></trkpt><trkpt lat="44.2129643" lon="8.357243"><ele>168.0</ele><time>2026-05-03T08:40:32.987Z</time></trkpt><trkpt lat="44.2128696" lon="8.3571812"><ele>166.16666666666666</ele><time>2026-05-03T08:40:33.988Z</time></trkpt><trkpt lat="44.2127782" lon="8.357122"><ele>164.33333333333334</ele><time>2026-05-03T08:40:34.988Z</time></trkpt><trkpt lat="44.2126926" lon="8.3570715"><ele>162.5</ele><time>2026-05-03T08:40:35.988Z</time></trkpt><trkpt lat="44.2126167" lon="8.3570275"><ele>160.66666666666669</ele><time>2026-05-03T08:40:36.988Z</time></trkpt><trkpt lat="44.2125524" lon="8.3569884"><ele>158.83333333333334</ele><time>2026-05-03T08:40:37.987Z</time></trkpt><trkpt lat="44.2124729" lon="8.3569173"><ele>157.0</ele><time>2026-05-03T08:40:39.987Z</time></trkpt><trkpt lat="44.2124893" lon="8.3568256"><ele>157.0</ele><time>2026-05-03T08:40:41.987Z</time></trkpt><trkpt lat="44.2126098" lon="8.3568325"><ele>157.0</ele><time>2026-05-03T08:40:43.987Z</time></trkpt><trkpt lat="44.2127162" lon="8.3568724"><ele>157.0</ele><time>2026-05-03T08:40:44.988Z</time></trkpt><trkpt lat="44.2128462" lon="8.356932"><ele>157.0</ele><time>2026-05-03T08:40:45.987Z</time></trkpt><trkpt lat="44.212976" lon="8.3569974"><ele>157.0</ele><time>2026-05-03T08:40:46.987Z</time></trkpt><trkpt lat="44.2130989" lon="8.3570377"><ele>157.0</ele><time>2026-05-03T08:40:47.987Z</time></trkpt><trkpt lat="44.2132253" lon="8.3570498"><ele>157.0</ele><time>2026-05-03T08:40:48.987Z</time></trkpt><trkpt lat="44.2133597" lon="8.3570234"><ele>157.0</ele><time>2026-05-03T08:40:49.987Z</time></trkpt><trkpt lat="44.2134993" lon="8.3570089"><ele>153.75</ele><time>2026-05-03T08:40:50.987Z</time></trkpt><trkpt lat="44.2136246" lon="8.3569931"><ele>150.5</ele><time>2026-05-03T08:40:51.987Z</time></trkpt><trkpt lat="44.2137428" lon="8.3569892"><ele>147.25</ele><time>2026-05-03T08:40:52.987Z</time></trkpt><trkpt lat="44.2138549" lon="8.3570074"><ele>144.0</ele><time>2026-05-03T08:40:53.987Z</time></trkpt><trkpt lat="44.2139569" lon="8.357034"><ele>142.0</ele><time>2026-05-03T08:40:54.987Z</time></trkpt><trkpt lat="44.2140739" lon="8.357069"><ele>140.0</ele><time>2026-05-03T08:40:55.987Z</time></trkpt><trkpt lat="44.2141914" lon="8.3571269"><ele>138.0</ele><time>2026-05-03T08:40:56.987Z</time></trkpt><trkpt lat="44.2143114" lon="8.3571821"><ele>136.0</ele><time>2026-05-03T08:40:57.987Z</time></trkpt><trkpt lat="44.2144369" lon="8.3572273"><ele>138.25</ele><time>2026-05-03T08:40:58.988Z</time></trkpt><trkpt lat="44.2145648" lon="8.3572618"><ele>140.5</ele><time>2026-05-03T08:40:59.987Z</time></trkpt><trkpt lat="44.2146909" lon="8.3572918"><ele>142.75</ele><time>2026-05-03T08:41:00.988Z</time></trkpt><trkpt lat="44.2148139" lon="8.357317"><ele>145.0</ele><time>2026-05-03T08:41:01.987Z</time></trkpt><trkpt lat="44.2149345" lon="8.3573206"><ele>145.0</ele><time>2026-05-03T08:41:02.987Z</time></trkpt><trkpt lat="44.2150502" lon="8.3573364"><ele>145.0</ele><time>2026-05-03T08:41:03.988Z</time></trkpt><trkpt lat="44.2151658" lon="8.3573475"><ele>145.0</ele><time>2026-05-03T08:41:04.988Z</time></trkpt><trkpt lat="44.2152741" lon="8.3573636"><ele>145.0</ele><time>2026-05-03T08:41:05.988Z</time></trkpt><trkpt lat="44.2153744" lon="8.3573801"><ele>145.0</ele><time>2026-05-03T08:41:06.988Z</time></trkpt><trkpt lat="44.2154735" lon="8.3573907"><ele>145.0</ele><time>2026-05-03T08:41:07.987Z</time></trkpt><trkpt lat="44.2155677" lon="8.3574095"><ele>145.0</ele><time>2026-05-03T08:41:08.988Z</time></trkpt><trkpt lat="44.2156569" lon="8.3574353"><ele>145.0</ele><time>2026-05-03T08:41:09.987Z</time></trkpt><trkpt lat="44.2157458" lon="8.3574643"><ele>145.0</ele><time>2026-05-03T08:41:10.988Z</time></trkpt><trkpt lat="44.2158295" lon="8.3574864"><ele>145.0</ele><time>2026-05-03T08:41:11.988Z</time></trkpt><trkpt lat="44.2159082" lon="8.3574999"><ele>145.0</ele><time>2026-05-03T08:41:12.988Z</time></trkpt><trkpt lat="44.2159759" lon="8.357501"><ele>144.6</ele><time>2026-05-03T08:41:13.988Z</time></trkpt><trkpt lat="44.2160944" lon="8.3574621"><ele>144.2</ele><time>2026-05-03T08:41:15.988Z</time></trkpt><trkpt lat="44.2161925" lon="8.3573712"><ele>143.8</ele><time>2026-05-03T08:41:17.986Z</time></trkpt><trkpt lat="44.2162494" lon="8.3572878"><ele>143.4</ele><time>2026-05-03T08:41:19.987Z</time></trkpt><trkpt lat="44.2162069" lon="8.3572038"><ele>143.0</ele><time>2026-05-03T08:41:24.986Z</time></trkpt><trkpt lat="44.2161262" lon="8.357198"><ele>143.0</ele><time>2026-05-03T08:41:26.986Z</time></trkpt><trkpt lat="44.2159835" lon="8.3571794"><ele>143.0</ele><time>2026-05-03T08:41:28.986Z</time></trkpt><trkpt lat="44.2158857" lon="8.357152"><ele>143.0</ele><time>2026-05-03T08:41:29.986Z</time></trkpt><trkpt lat="44.2157696" lon="8.357123"><ele>143.0</ele><time>2026-05-03T08:41:30.986Z</time></trkpt><trkpt lat="44.2156475" lon="8.3570951"><ele>139.5</ele><time>2026-05-03T08:41:31.987Z</time></trkpt><trkpt lat="44.2155259" lon="8.357068"><ele>136.0</ele><time>2026-05-03T08:41:32.986Z</time></trkpt><trkpt lat="44.2153988" lon="8.3570448"><ele>132.5</ele><time>2026-05-03T08:41:33.986Z</time></trkpt><trkpt lat="44.2152784" lon="8.3570174"><ele>129.0</ele><time>2026-05-03T08:41:34.987Z</time></trkpt><trkpt lat="44.2151677" lon="8.3569911"><ele>129.0</ele><time>2026-05-03T08:41:35.986Z</time></trkpt><trkpt lat="44.2150616" lon="8.3569587"><ele>129.0</ele><time>2026-05-03T08:41:36.986Z</time></trkpt><trkpt lat="44.2149522" lon="8.356915"><ele>129.0</ele><time>2026-05-03T08:41:37.986Z</time></trkpt><trkpt lat="44.2148339" lon="8.356877"><ele>129.0</ele><time>2026-05-03T08:41:38.986Z</time></trkpt><trkpt lat="44.2147216" lon="8.3568008"><ele>130.75</ele><time>2026-05-03T08:41:39.986Z</time></trkpt><trkpt lat="44.2146196" lon="8.3567145"><ele>132.5</ele><time>2026-05-03T08:41:40.986Z</time></trkpt><trkpt lat="44.2145303" lon="8.3566177"><ele>134.25</ele><time>2026-05-03T08:41:41.987Z</time></trkpt><trkpt lat="44.2144419" lon="8.3565242"><ele>136.0</ele><time>2026-05-03T08:41:42.987Z</time></trkpt><trkpt lat="44.214347" lon="8.3564271"><ele>135.0</ele><time>2026-05-03T08:41:43.986Z</time></trkpt><trkpt lat="44.2142476" lon="8.3563411"><ele>134.0</ele><time>2026-05-03T08:41:44.987Z</time></trkpt><trkpt lat="44.2141369" lon="8.3562465"><ele>133.0</ele><time>2026-05-03T08:41:45.986Z</time></trkpt><trkpt lat="44.2140296" lon="8.3561695"><ele>132.0</ele><time>2026-05-03T08:41:46.987Z</time></trkpt><trkpt lat="44.2139204" lon="8.3561021"><ele>131.25</ele><time>2026-05-03T08:41:47.987Z</time></trkpt><trkpt lat="44.2138092" lon="8.3560394"><ele>130.5</ele><time>2026-05-03T08:41:48.987Z</time></trkpt><trkpt lat="44.2137059" lon="8.3559752"><ele>129.75</ele><time>2026-05-03T08:41:49.986Z</time></trkpt><trkpt lat="44.2136133" lon="8.3558863"><ele>129.0</ele><time>2026-05-03T08:41:50.987Z</time></trkpt><trkpt lat="44.2135143" lon="8.3558011"><ele>129.0</ele><time>2026-05-03T08:41:51.986Z</time></trkpt><trkpt lat="44.2133925" lon="8.355741"><ele>129.0</ele><time>2026-05-03T08:41:52.986Z</time></trkpt><trkpt lat="44.2132648" lon="8.3557048"><ele>129.0</ele><time>2026-05-03T08:41:53.986Z</time></trkpt><trkpt lat="44.2131418" lon="8.3556918"><ele>129.0</ele><time>2026-05-03T08:41:54.987Z</time></trkpt><trkpt lat="44.2130287" lon="8.3556881"><ele>129.5</ele><time>2026-05-03T08:41:55.986Z</time></trkpt><trkpt lat="44.2129212" lon="8.3556792"><ele>130.0</ele><time>2026-05-03T08:41:56.986Z</time></trkpt><trkpt lat="44.2128053" lon="8.3556611"><ele>130.5</ele><time>2026-05-03T08:41:57.986Z</time></trkpt><trkpt lat="44.2126899" lon="8.3556394"><ele>131.0</ele><time>2026-05-03T08:41:58.987Z</time></trkpt><trkpt lat="44.212571" lon="8.3556071"><ele>131.0</ele><time>2026-05-03T08:41:59.986Z</time></trkpt><trkpt lat="44.2124463" lon="8.3555559"><ele>131.0</ele><time>2026-05-03T08:42:00.986Z</time></trkpt><trkpt lat="44.2123309" lon="8.3554877"><ele>131.0</ele><time>2026-05-03T08:42:01.987Z</time></trkpt><trkpt lat="44.2122407" lon="8.355409"><ele>131.0</ele><time>2026-05-03T08:42:02.987Z</time></trkpt><trkpt lat="44.212153" lon="8.3553454"><ele>129.0</ele><time>2026-05-03T08:42:03.986Z</time></trkpt><trkpt lat="44.2120593" lon="8.3552797"><ele>127.0</ele><time>2026-05-03T08:42:04.987Z</time></trkpt><trkpt lat="44.2119667" lon="8.355215"><ele>125.0</ele><time>2026-05-03T08:42:05.987Z</time></trkpt><trkpt lat="44.2118658" lon="8.3551491"><ele>123.0</ele><time>2026-05-03T08:42:06.987Z</time></trkpt><trkpt lat="44.2117631" lon="8.3550821"><ele>121.0</ele><time>2026-05-03T08:42:07.986Z</time></trkpt><trkpt lat="44.2116636" lon="8.3550131"><ele>121.0</ele><time>2026-05-03T08:42:08.987Z</time></trkpt><trkpt lat="44.2115664" lon="8.3549458"><ele>121.0</ele><time>2026-05-03T08:42:09.986Z</time></trkpt><trkpt lat="44.2114834" lon="8.354881"><ele>121.0</ele><time>2026-05-03T08:42:10.987Z</time></trkpt><trkpt lat="44.2114066" lon="8.3548298"><ele>121.0</ele><time>2026-05-03T08:42:11.986Z</time></trkpt><trkpt lat="44.2113458" lon="8.3547799"><ele>121.0</ele><time>2026-05-03T08:42:12.987Z</time></trkpt><trkpt lat="44.2112593" lon="8.354683"><ele>121.66666666666667</ele><time>2026-05-03T08:42:14.986Z</time></trkpt><trkpt lat="44.2112362" lon="8.3545961"><ele>122.33333333333334</ele><time>2026-05-03T08:42:16.987Z</time></trkpt><trkpt lat="44.2112686" lon="8.3545033"><ele>123.0</ele><time>2026-05-03T08:42:18.987Z</time></trkpt><trkpt lat="44.211372" lon="8.3544176"><ele>123.66666666666666</ele><time>2026-05-03T08:42:20.987Z</time></trkpt><trkpt lat="44.2114374" lon="8.3543802"><ele>124.33333333333333</ele><time>2026-05-03T08:42:21.986Z</time></trkpt><trkpt lat="44.2115189" lon="8.3543413"><ele>125.0</ele><time>2026-05-03T08:42:22.987Z</time></trkpt><trkpt lat="44.2116003" lon="8.3543153"><ele>125.0</ele><time>2026-05-03T08:42:23.986Z</time></trkpt><trkpt lat="44.2116874" lon="8.3543043"><ele>125.0</ele><time>2026-05-03T08:42:24.986Z</time></trkpt><trkpt lat="44.2117833" lon="8.3543138"><ele>125.0</ele><time>2026-05-03T08:42:25.986Z</time></trkpt><trkpt lat="44.2118766" lon="8.3543292"><ele>125.0</ele><time>2026-05-03T08:42:26.987Z</time></trkpt><trkpt lat="44.2119713" lon="8.3543573"><ele>125.0</ele><time>2026-05-03T08:42:27.986Z</time></trkpt><trkpt lat="44.2120713" lon="8.3543864"><ele>125.0</ele><time>2026-05-03T08:42:28.987Z</time></trkpt><trkpt lat="44.2121673" lon="8.3544177"><ele>125.0</ele><time>2026-05-03T08:42:29.986Z</time></trkpt><trkpt lat="44.2122593" lon="8.3544518"><ele>125.0</ele><time>2026-05-03T08:42:30.986Z</time></trkpt><trkpt lat="44.2123563" lon="8.354479"><ele>125.0</ele><time>2026-05-03T08:42:31.986Z</time></trkpt><trkpt lat="44.2124523" lon="8.3545142"><ele>125.0</ele><time>2026-05-03T08:42:32.986Z</time></trkpt><trkpt lat="44.2125544" lon="8.354554"><ele>124.2</ele><time>2026-05-03T08:42:33.986Z</time></trkpt><trkpt lat="44.2126531" lon="8.3545986"><ele>123.4</ele><time>2026-05-03T08:42:34.987Z</time></trkpt><trkpt lat="44.2127457" lon="8.3546482"><ele>122.6</ele><time>2026-05-03T08:42:35.986Z</time></trkpt><trkpt lat="44.2128414" lon="8.3546878"><ele>121.8</ele><time>2026-05-03T08:42:36.986Z</time></trkpt><trkpt lat="44.2129265" lon="8.3547331"><ele>121.0</ele><time>2026-05-03T08:42:37.987Z</time></trkpt><trkpt lat="44.2130085" lon="8.354775"><ele>121.00000000000001</ele><time>2026-05-03T08:42:38.986Z</time></trkpt><trkpt lat="44.2130795" lon="8.3548398"><ele>121.0</ele><time>2026-05-03T08:42:39.986Z</time></trkpt><trkpt lat="44.2131478" lon="8.3549137"><ele>121.0</ele><time>2026-05-03T08:42:40.987Z</time></trkpt><trkpt lat="44.213212" lon="8.3549736"><ele>121.0</ele><time>2026-05-03T08:42:41.986Z</time></trkpt><trkpt lat="44.213307" lon="8.3550142"><ele>121.00000000000001</ele><time>2026-05-03T08:42:43.986Z</time></trkpt><trkpt lat="44.213339" lon="8.3549129"><ele>121.0</ele><time>2026-05-03T08:42:45.986Z</time></trkpt><trkpt lat="44.213279" lon="8.3547591"><ele>126.75</ele><time>2026-05-03T08:42:47.986Z</time></trkpt><trkpt lat="44.2132023" lon="8.354657"><ele>132.5</ele><time>2026-05-03T08:42:48.986Z</time></trkpt><trkpt lat="44.2131077" lon="8.3545624"><ele>138.25</ele><time>2026-05-03T08:42:49.987Z</time></trkpt><trkpt lat="44.2130051" lon="8.3544518"><ele>144.0</ele><time>2026-05-03T08:42:50.986Z</time></trkpt><trkpt lat="44.2128887" lon="8.354347"><ele>144.0</ele><time>2026-05-03T08:42:51.987Z</time></trkpt><trkpt lat="44.2127763" lon="8.3542609"><ele>144.0</ele><time>2026-05-03T08:42:52.986Z</time></trkpt><trkpt lat="44.2126846" lon="8.3541807"><ele>144.0</ele><time>2026-05-03T08:42:53.986Z</time></trkpt><trkpt lat="44.2125947" lon="8.3541178"><ele>144.0</ele><time>2026-05-03T08:42:54.987Z</time></trkpt><trkpt lat="44.2125118" lon="8.3540649"><ele>144.0</ele><time>2026-05-03T08:42:55.986Z</time></trkpt><trkpt lat="44.2124397" lon="8.3540102"><ele>144.0</ele><time>2026-05-03T08:42:56.986Z</time></trkpt><trkpt lat="44.2123796" lon="8.353949"><ele>144.0</ele><time>2026-05-03T08:42:57.987Z</time></trkpt><trkpt lat="44.2123324" lon="8.3538702"><ele>144.0</ele><time>2026-05-03T08:42:58.986Z</time></trkpt><trkpt lat="44.212289" lon="8.3537793"><ele>144.0</ele><time>2026-05-03T08:42:59.986Z</time></trkpt><trkpt lat="44.2122579" lon="8.3536794"><ele>144.0</ele><time>2026-05-03T08:43:00.987Z</time></trkpt><trkpt lat="44.2122226" lon="8.3535874"><ele>144.0</ele><time>2026-05-03T08:43:01.986Z</time></trkpt><trkpt lat="44.2121483" lon="8.3534768"><ele>145.0</ele><time>2026-05-03T08:43:03.986Z</time></trkpt><trkpt lat="44.2120742" lon="8.3534047"><ele>146.0</ele><time>2026-05-03T08:43:05.986Z</time></trkpt><trkpt lat="44.2120597" lon="8.3532903"><ele>147.0</ele><time>2026-05-03T08:43:08.987Z</time></trkpt><trkpt lat="44.212125" lon="8.3532597"><ele>148.0</ele><time>2026-05-03T08:43:11.986Z</time></trkpt><trkpt lat="44.2122129" lon="8.35327"><ele>149.0</ele><time>2026-05-03T08:43:13.986Z</time></trkpt><trkpt lat="44.2123318" lon="8.3533599"><ele>153.25</ele><time>2026-05-03T08:43:15.986Z</time></trkpt><trkpt lat="44.2124235" lon="8.353425"><ele>157.5</ele><time>2026-05-03T08:43:16.987Z</time></trkpt><trkpt lat="44.2125196" lon="8.3534847"><ele>161.75</ele><time>2026-05-03T08:43:17.986Z</time></trkpt><trkpt lat="44.2126357" lon="8.3535494"><ele>166.0</ele><time>2026-05-03T08:43:18.986Z</time></trkpt><trkpt lat="44.2127546" lon="8.353614"><ele>166.0</ele><time>2026-05-03T08:43:19.986Z</time></trkpt><trkpt lat="44.2128635" lon="8.3536663"><ele>166.0</ele><time>2026-05-03T08:43:20.987Z</time></trkpt><trkpt lat="44.2129688" lon="8.3536948"><ele>166.0</ele><time>2026-05-03T08:43:21.986Z</time></trkpt><trkpt lat="44.2130641" lon="8.3536999"><ele>166.0</ele><time>2026-05-03T08:43:22.987Z</time></trkpt><trkpt lat="44.2131566" lon="8.3536965"><ele>166.0</ele><time>2026-05-03T08:43:23.986Z</time></trkpt><trkpt lat="44.2132368" lon="8.3536482"><ele>166.83333333333334</ele><time>2026-05-03T08:43:24.986Z</time></trkpt><trkpt lat="44.2133168" lon="8.3535972"><ele>167.66666666666669</ele><time>2026-05-03T08:43:25.987Z</time></trkpt><trkpt lat="44.2133925" lon="8.3535529"><ele>168.5</ele><time>2026-05-03T08:43:26.987Z</time></trkpt><trkpt lat="44.2134586" lon="8.3535261"><ele>169.33333333333334</ele><time>2026-05-03T08:43:27.986Z</time></trkpt><trkpt lat="44.2135303" lon="8.3535417"><ele>170.16666666666666</ele><time>2026-05-03T08:43:28.986Z</time></trkpt><trkpt lat="44.2135935" lon="8.3536082"><ele>171.0</ele><time>2026-05-03T08:43:29.986Z</time></trkpt><trkpt lat="44.2136509" lon="8.3536812"><ele>171.0</ele><time>2026-05-03T08:43:30.986Z</time></trkpt><trkpt lat="44.2137089" lon="8.3537596"><ele>171.0</ele><time>2026-05-03T08:43:31.986Z</time></trkpt><trkpt lat="44.2137749" lon="8.3538396"><ele>171.0</ele><time>2026-05-03T08:43:32.986Z</time></trkpt><trkpt lat="44.2138412" lon="8.3539211"><ele>171.0</ele><time>2026-05-03T08:43:33.987Z</time></trkpt><trkpt lat="44.2139055" lon="8.3539962"><ele>171.0</ele><time>2026-05-03T08:43:34.986Z</time></trkpt><trkpt lat="44.2139637" lon="8.3540626"><ele>171.0</ele><time>2026-05-03T08:43:35.987Z</time></trkpt><trkpt lat="44.2140259" lon="8.3541088"><ele>171.16666666666666</ele><time>2026-05-03T08:43:36.986Z</time></trkpt><trkpt lat="44.2140908" lon="8.3541439"><ele>171.33333333333334</ele><time>2026-05-03T08:43:37.986Z</time></trkpt><trkpt lat="44.2141572" lon="8.3541614"><ele>171.5</ele><time>2026-05-03T08:43:38.986Z</time></trkpt><trkpt lat="44.2142696" lon="8.354154"><ele>171.66666666666669</ele><time>2026-05-03T08:43:40.986Z</time></trkpt><trkpt lat="44.2143322" lon="8.3541118"><ele>171.83333333333334</ele><time>2026-05-03T08:43:41.986Z</time></trkpt><trkpt lat="44.2143967" lon="8.3540447"><ele>172.0</ele><time>2026-05-03T08:43:42.987Z</time></trkpt><trkpt lat="44.2144703" lon="8.3539683"><ele>172.0</ele><time>2026-05-03T08:43:43.987Z</time></trkpt><trkpt lat="44.2145478" lon="8.3538943"><ele>172.0</ele><time>2026-05-03T08:43:44.986Z</time></trkpt><trkpt lat="44.2146179" lon="8.3538299"><ele>172.0</ele><time>2026-05-03T08:43:45.986Z</time></trkpt><trkpt lat="44.2146835" lon="8.3537826"><ele>172.0</ele><time>2026-05-03T08:43:46.986Z</time></trkpt><trkpt lat="44.2147579" lon="8.3537567"><ele>172.0</ele><time>2026-05-03T08:43:47.986Z</time></trkpt><trkpt lat="44.2148385" lon="8.3537556"><ele>172.0</ele><time>2026-05-03T08:43:48.986Z</time></trkpt><trkpt lat="44.214919" lon="8.3537635"><ele>175.0</ele><time>2026-05-03T08:43:49.986Z</time></trkpt><trkpt lat="44.2150041" lon="8.35377"><ele>178.0</ele><time>2026-05-03T08:43:50.986Z</time></trkpt><trkpt lat="44.2150945" lon="8.3537776"><ele>181.0</ele><time>2026-05-03T08:43:51.986Z</time></trkpt><trkpt lat="44.2151856" lon="8.3537887"><ele>184.0</ele><time>2026-05-03T08:43:52.986Z</time></trkpt><trkpt lat="44.2152806" lon="8.3537982"><ele>187.0</ele><time>2026-05-03T08:43:53.986Z</time></trkpt><trkpt lat="44.2153748" lon="8.3538058"><ele>187.0</ele><time>2026-05-03T08:43:54.987Z</time></trkpt><trkpt lat="44.2154585" lon="8.353805"><ele>187.0</ele><time>2026-05-03T08:43:55.986Z</time></trkpt><trkpt lat="44.2155414" lon="8.3538052"><ele>187.0</ele><time>2026-05-03T08:43:56.987Z</time></trkpt><trkpt lat="44.2156293" lon="8.353806"><ele>187.0</ele><time>2026-05-03T08:43:57.986Z</time></trkpt><trkpt lat="44.2157209" lon="8.3538069"><ele>187.0</ele><time>2026-05-03T08:43:58.986Z</time></trkpt><trkpt lat="44.2158137" lon="8.3538041"><ele>187.0</ele><time>2026-05-03T08:43:59.986Z</time></trkpt><trkpt lat="44.2159006" lon="8.353804"><ele>186.0</ele><time>2026-05-03T08:44:00.986Z</time></trkpt><trkpt lat="44.2159846" lon="8.3538089"><ele>185.0</ele><time>2026-05-03T08:44:01.986Z</time></trkpt><trkpt lat="44.216064" lon="8.3538258"><ele>184.0</ele><time>2026-05-03T08:44:02.987Z</time></trkpt><trkpt lat="44.2161372" lon="8.3538667"><ele>183.0</ele><time>2026-05-03T08:44:03.986Z</time></trkpt><trkpt lat="44.2162107" lon="8.3539229"><ele>182.0</ele><time>2026-05-03T08:44:04.987Z</time></trkpt><trkpt lat="44.2162742" lon="8.3539767"><ele>181.0</ele><time>2026-05-03T08:44:05.986Z</time></trkpt><trkpt lat="44.2163762" lon="8.3540249"><ele>181.0</ele><time>2026-05-03T08:44:07.987Z</time></trkpt><trkpt lat="44.2164499" lon="8.3539921"><ele>181.0</ele><time>2026-05-03T08:44:09.986Z</time></trkpt><trkpt lat="44.216472" lon="8.3538657"><ele>181.0</ele><time>2026-05-03T08:44:11.986Z</time></trkpt><trkpt lat="44.2164475" lon="8.3537788"><ele>181.0</ele><time>2026-05-03T08:44:12.987Z</time></trkpt><trkpt lat="44.2163971" lon="8.353676"><ele>181.0</ele><time>2026-05-03T08:44:13.987Z</time></trkpt><trkpt lat="44.216344" lon="8.3535723"><ele>181.0</ele><time>2026-05-03T08:44:14.987Z</time></trkpt><trkpt lat="44.2162896" lon="8.3534623"><ele>183.33333333333334</ele><time>2026-05-03T08:44:15.987Z</time></trkpt><trkpt lat="44.2162368" lon="8.3533563"><ele>185.66666666666669</ele><time>2026-05-03T08:44:16.986Z</time></trkpt><trkpt lat="44.2161828" lon="8.3532584"><ele>188.0</ele><time>2026-05-03T08:44:17.987Z</time></trkpt><trkpt lat="44.2161308" lon="8.3531624"><ele>190.33333333333334</ele><time>2026-05-03T08:44:18.987Z</time></trkpt><trkpt lat="44.2160722" lon="8.3530875"><ele>192.66666666666666</ele><time>2026-05-03T08:44:19.986Z</time></trkpt><trkpt lat="44.2160175" lon="8.353008"><ele>195.0</ele><time>2026-05-03T08:44:20.987Z</time></trkpt><trkpt lat="44.2159589" lon="8.3529429"><ele>196.5</ele><time>2026-05-03T08:44:21.987Z</time></trkpt><trkpt lat="44.2158962" lon="8.3528755"><ele>198.0</ele><time>2026-05-03T08:44:22.986Z</time></trkpt><trkpt lat="44.2158342" lon="8.3528067"><ele>199.5</ele><time>2026-05-03T08:44:23.987Z</time></trkpt><trkpt lat="44.2157742" lon="8.3527239"><ele>201.0</ele><time>2026-05-03T08:44:24.986Z</time></trkpt><trkpt lat="44.2157117" lon="8.3526402"><ele>202.5</ele><time>2026-05-03T08:44:25.986Z</time></trkpt><trkpt lat="44.215639" lon="8.3525617"><ele>204.0</ele><time>2026-05-03T08:44:26.986Z</time></trkpt><trkpt lat="44.2155593" lon="8.3524884"><ele>204.0</ele><time>2026-05-03T08:44:27.986Z</time></trkpt><trkpt lat="44.2154868" lon="8.3524267"><ele>204.0</ele><time>2026-05-03T08:44:28.986Z</time></trkpt><trkpt lat="44.2154158" lon="8.3523752"><ele>204.0</ele><time>2026-05-03T08:44:29.986Z</time></trkpt><trkpt lat="44.2153533" lon="8.352331"><ele>204.0</ele><time>2026-05-03T08:44:30.986Z</time></trkpt><trkpt lat="44.2152951" lon="8.3522969"><ele>204.0</ele><time>2026-05-03T08:44:31.986Z</time></trkpt><trkpt lat="44.2152101" lon="8.3522554"><ele>204.0</ele><time>2026-05-03T08:44:33.987Z</time></trkpt><trkpt lat="44.2151157" lon="8.3522866"><ele>204.0</ele><time>2026-05-03T08:44:36.987Z</time></trkpt><trkpt lat="44.2150338" lon="8.3523131"><ele>204.0</ele><time>2026-05-03T08:44:38.987Z</time></trkpt><trkpt lat="44.2149733" lon="8.3522593"><ele>204.0</ele><time>2026-05-03T08:44:40.987Z</time></trkpt><trkpt lat="44.214962" lon="8.3521529"><ele>204.0</ele><time>2026-05-03T08:44:42.986Z</time></trkpt><trkpt lat="44.2150306" lon="8.3520591"><ele>204.0</ele><time>2026-05-03T08:44:44.986Z</time></trkpt><trkpt lat="44.2151372" lon="8.3519809"><ele>204.0</ele><time>2026-05-03T08:44:46.986Z</time></trkpt><trkpt lat="44.2152007" lon="8.3519283"><ele>207.5</ele><time>2026-05-03T08:44:47.986Z</time></trkpt><trkpt lat="44.2152674" lon="8.3518637"><ele>211.0</ele><time>2026-05-03T08:44:48.986Z</time></trkpt><trkpt lat="44.215331" lon="8.3518121"><ele>214.5</ele><time>2026-05-03T08:44:49.987Z</time></trkpt><trkpt lat="44.2153952" lon="8.3517657"><ele>218.0</ele><time>2026-05-03T08:44:50.987Z</time></trkpt><trkpt lat="44.2154611" lon="8.3517446"><ele>221.5</ele><time>2026-05-03T08:44:51.986Z</time></trkpt><trkpt lat="44.2155348" lon="8.3517514"><ele>225.0</ele><time>2026-05-03T08:44:52.986Z</time></trkpt><trkpt lat="44.2156143" lon="8.3517787"><ele>225.2</ele><time>2026-05-03T08:44:53.986Z</time></trkpt><trkpt lat="44.2157056" lon="8.3518148"><ele>225.4</ele><time>2026-05-03T08:44:54.986Z</time></trkpt><trkpt lat="44.215799" lon="8.3518665"><ele>225.60000000000002</ele><time>2026-05-03T08:44:55.987Z</time></trkpt><trkpt lat="44.215889" lon="8.3519255"><ele>225.8</ele><time>2026-05-03T08:44:56.986Z</time></trkpt><trkpt lat="44.215968" lon="8.3519897"><ele>226.0</ele><time>2026-05-03T08:44:57.987Z</time></trkpt><trkpt lat="44.216042" lon="8.3520462"><ele>226.0</ele><time>2026-05-03T08:44:58.987Z</time></trkpt><trkpt lat="44.2161134" lon="8.3521017"><ele>226.0</ele><time>2026-05-03T08:44:59.986Z</time></trkpt><trkpt lat="44.2161795" lon="8.3521477"><ele>226.0</ele><time>2026-05-03T08:45:00.987Z</time></trkpt><trkpt lat="44.2162466" lon="8.3521831"><ele>226.0</ele><time>2026-05-03T08:45:01.987Z</time></trkpt><trkpt lat="44.2163118" lon="8.3522007"><ele>226.0</ele><time>2026-05-03T08:45:02.986Z</time></trkpt><trkpt lat="44.216383" lon="8.3522079"><ele>226.0</ele><time>2026-05-03T08:45:03.986Z</time></trkpt><trkpt lat="44.2164497" lon="8.3522025"><ele>226.0</ele><time>2026-05-03T08:45:04.987Z</time></trkpt><trkpt lat="44.21652" lon="8.3521846"><ele>226.57142857142858</ele><time>2026-05-03T08:45:05.986Z</time></trkpt><trkpt lat="44.2165787" lon="8.3521413"><ele>227.1428571428571</ele><time>2026-05-03T08:45:06.987Z</time></trkpt><trkpt lat="44.2166339" lon="8.3520693"><ele>227.7142857142857</ele><time>2026-05-03T08:45:07.986Z</time></trkpt><trkpt lat="44.2166892" lon="8.3520042"><ele>228.28571428571428</ele><time>2026-05-03T08:45:08.986Z</time></trkpt><trkpt lat="44.2167512" lon="8.3519536"><ele>228.85714285714283</ele><time>2026-05-03T08:45:09.986Z</time></trkpt><trkpt lat="44.2168274" lon="8.3519064"><ele>229.4285714285714</ele><time>2026-05-03T08:45:10.987Z</time></trkpt><trkpt lat="44.2169048" lon="8.3518893"><ele>229.99999999999997</ele><time>2026-05-03T08:45:11.986Z</time></trkpt><trkpt lat="44.2169805" lon="8.351878"><ele>230.00000000000003</ele><time>2026-05-03T08:45:12.986Z</time></trkpt><trkpt lat="44.2170454" lon="8.3518663"><ele>230.0</ele><time>2026-05-03T08:45:13.986Z</time></trkpt><trkpt lat="44.2171489" lon="8.3518303"><ele>230.0</ele><time>2026-05-03T08:45:15.986Z</time></trkpt><trkpt lat="44.2172311" lon="8.3517135"><ele>230.0</ele><time>2026-05-03T08:45:17.986Z</time></trkpt><trkpt lat="44.2172764" lon="8.3516362"><ele>230.00000000000003</ele><time>2026-05-03T08:45:18.986Z</time></trkpt><trkpt lat="44.2173312" lon="8.3515478"><ele>230.0</ele><time>2026-05-03T08:45:19.986Z</time></trkpt><trkpt lat="44.2173916" lon="8.3514652"><ele>229.16666666666669</ele><time>2026-05-03T08:45:20.987Z</time></trkpt><trkpt lat="44.2174535" lon="8.3513868"><ele>228.33333333333334</ele><time>2026-05-03T08:45:21.986Z</time></trkpt><trkpt lat="44.2175145" lon="8.3513131"><ele>227.5</ele><time>2026-05-03T08:45:22.986Z</time></trkpt><trkpt lat="44.2175749" lon="8.3512278"><ele>226.66666666666669</ele><time>2026-05-03T08:45:23.986Z</time></trkpt><trkpt lat="44.2176381" lon="8.3511377"><ele>225.83333333333334</ele><time>2026-05-03T08:45:24.987Z</time></trkpt><trkpt lat="44.2177031" lon="8.3510479"><ele>225.0</ele><time>2026-05-03T08:45:25.986Z</time></trkpt><trkpt lat="44.217766" lon="8.350964"><ele>227.83333333333334</ele><time>2026-05-03T08:45:26.986Z</time></trkpt><trkpt lat="44.2178268" lon="8.350887"><ele>230.66666666666669</ele><time>2026-05-03T08:45:27.986Z</time></trkpt><trkpt lat="44.2178878" lon="8.3508071"><ele>233.5</ele><time>2026-05-03T08:45:28.987Z</time></trkpt><trkpt lat="44.2179429" lon="8.3507401"><ele>236.33333333333334</ele><time>2026-05-03T08:45:29.987Z</time></trkpt><trkpt lat="44.2179925" lon="8.3506848"><ele>239.16666666666669</ele><time>2026-05-03T08:45:30.986Z</time></trkpt><trkpt lat="44.2180829" lon="8.3506056"><ele>242.0</ele><time>2026-05-03T08:45:32.986Z</time></trkpt><trkpt lat="44.2181661" lon="8.3506205"><ele>242.50000000000003</ele><time>2026-05-03T08:45:34.986Z</time></trkpt><trkpt lat="44.218231" lon="8.3507593"><ele>243.0</ele><time>2026-05-03T08:45:36.987Z</time></trkpt><trkpt lat="44.2182563" lon="8.3508469"><ele>243.5</ele><time>2026-05-03T08:45:37.986Z</time></trkpt><trkpt lat="44.2182821" lon="8.3509394"><ele>244.0</ele><time>2026-05-03T08:45:38.987Z</time></trkpt><trkpt lat="44.2183091" lon="8.3510259"><ele>244.50000000000003</ele><time>2026-05-03T08:45:39.986Z</time></trkpt><trkpt lat="44.2183522" lon="8.3511577"><ele>245.0</ele><time>2026-05-03T08:45:41.987Z</time></trkpt><trkpt lat="44.2184467" lon="8.351239"><ele>245.00000000000003</ele><time>2026-05-03T08:45:43.987Z</time></trkpt><trkpt lat="44.2185696" lon="8.3512679"><ele>245.0</ele><time>2026-05-03T08:45:45.986Z</time></trkpt><trkpt lat="44.2186392" lon="8.3512654"><ele>245.0</ele><time>2026-05-03T08:45:46.986Z</time></trkpt><trkpt lat="44.2187102" lon="8.3512513"><ele>245.0</ele><time>2026-05-03T08:45:47.986Z</time></trkpt><trkpt lat="44.2187794" lon="8.35123"><ele>245.00000000000003</ele><time>2026-05-03T08:45:48.987Z</time></trkpt><trkpt lat="44.2188447" lon="8.3512103"><ele>245.0</ele><time>2026-05-03T08:45:49.986Z</time></trkpt><trkpt lat="44.2189082" lon="8.3511907"><ele>245.00000000000003</ele><time>2026-05-03T08:45:50.987Z</time></trkpt><trkpt lat="44.2189774" lon="8.3511726"><ele>245.0</ele><time>2026-05-03T08:45:51.986Z</time></trkpt><trkpt lat="44.219048" lon="8.3511574"><ele>245.0</ele><time>2026-05-03T08:45:52.986Z</time></trkpt><trkpt lat="44.2191153" lon="8.3511485"><ele>245.0</ele><time>2026-05-03T08:45:53.986Z</time></trkpt><trkpt lat="44.2192259" lon="8.3511131"><ele>245.00000000000003</ele><time>2026-05-03T08:45:55.986Z</time></trkpt><trkpt lat="44.2193374" lon="8.3510576"><ele>245.0</ele><time>2026-05-03T08:45:57.986Z</time></trkpt><trkpt lat="44.2194324" lon="8.350995"><ele>245.0</ele><time>2026-05-03T08:45:59.986Z</time></trkpt><trkpt lat="44.2195238" lon="8.350931"><ele>245.0</ele><time>2026-05-03T08:46:01.986Z</time></trkpt><trkpt lat="44.2196075" lon="8.350849"><ele>245.0</ele><time>2026-05-03T08:46:03.986Z</time></trkpt><trkpt lat="44.2196853" lon="8.3507791"><ele>245.0</ele><time>2026-05-03T08:46:05.987Z</time></trkpt><trkpt lat="44.2197545" lon="8.3507455"><ele>245.0</ele><time>2026-05-03T08:46:07.986Z</time></trkpt><trkpt lat="44.2198398" lon="8.35075"><ele>245.00000000000003</ele><time>2026-05-03T08:46:09.987Z</time></trkpt><trkpt lat="44.2199419" lon="8.3507318"><ele>245.0</ele><time>2026-05-03T08:46:11.986Z</time></trkpt><trkpt lat="44.2200005" lon="8.3506977"><ele>245.0</ele><time>2026-05-03T08:46:12.986Z</time></trkpt><trkpt lat="44.2200639" lon="8.3506521"><ele>245.0</ele><time>2026-05-03T08:46:13.987Z</time></trkpt><trkpt lat="44.2201308" lon="8.350596"><ele>245.00000000000003</ele><time>2026-05-03T08:46:14.987Z</time></trkpt><trkpt lat="44.2201931" lon="8.3505164"><ele>245.0</ele><time>2026-05-03T08:46:15.987Z</time></trkpt><trkpt lat="44.2202493" lon="8.3504468"><ele>249.6</ele><time>2026-05-03T08:46:16.986Z</time></trkpt><trkpt lat="44.2203257" lon="8.350332"><ele>254.2</ele><time>2026-05-03T08:46:18.986Z</time></trkpt><trkpt lat="44.2203973" lon="8.3502108"><ele>258.8</ele><time>2026-05-03T08:46:20.986Z</time></trkpt><trkpt lat="44.2204564" lon="8.3500926"><ele>263.4</ele><time>2026-05-03T08:46:22.987Z</time></trkpt><trkpt lat="44.2205355" lon="8.3500098"><ele>268.0</ele><time>2026-05-03T08:46:24.986Z</time></trkpt><trkpt lat="44.2206283" lon="8.3499401"><ele>265.4</ele><time>2026-05-03T08:46:26.986Z</time></trkpt><trkpt lat="44.2207269" lon="8.3499427"><ele>262.8</ele><time>2026-05-03T08:46:28.987Z</time></trkpt><trkpt lat="44.2208218" lon="8.3499915"><ele>260.2</ele><time>2026-05-03T08:46:30.986Z</time></trkpt><trkpt lat="44.2209097" lon="8.3500363"><ele>257.6</ele><time>2026-05-03T08:46:32.987Z</time></trkpt><trkpt lat="44.2210155" lon="8.350016"><ele>255.0</ele><time>2026-05-03T08:46:34.986Z</time></trkpt><trkpt lat="44.2210801" lon="8.3499913"><ele>255.0</ele><time>2026-05-03T08:46:35.986Z</time></trkpt><trkpt lat="44.2211474" lon="8.3499592"><ele>255.0</ele><time>2026-05-03T08:46:36.986Z</time></trkpt><trkpt lat="44.2212193" lon="8.3499252"><ele>255.0</ele><time>2026-05-03T08:46:37.986Z</time></trkpt><trkpt lat="44.2212861" lon="8.3499082"><ele>255.0</ele><time>2026-05-03T08:46:38.986Z</time></trkpt><trkpt lat="44.2213946" lon="8.3498451"><ele>255.0</ele><time>2026-05-03T08:46:40.987Z</time></trkpt><trkpt lat="44.2214711" lon="8.3497133"><ele>256.6666666666667</ele><time>2026-05-03T08:46:42.987Z</time></trkpt><trkpt lat="44.2215054" lon="8.3496244"><ele>258.3333333333333</ele><time>2026-05-03T08:46:43.987Z</time></trkpt><trkpt lat="44.2215396" lon="8.3495233"><ele>260.0</ele><time>2026-05-03T08:46:44.986Z</time></trkpt><trkpt lat="44.2215734" lon="8.3494067"><ele>261.66666666666663</ele><time>2026-05-03T08:46:45.986Z</time></trkpt><trkpt lat="44.2216085" lon="8.3492955"><ele>263.3333333333333</ele><time>2026-05-03T08:46:46.986Z</time></trkpt><trkpt lat="44.2216435" lon="8.3491847"><ele>265.0</ele><time>2026-05-03T08:46:47.986Z</time></trkpt><trkpt lat="44.221678" lon="8.3490623"><ele>265.0</ele><time>2026-05-03T08:46:48.987Z</time></trkpt><trkpt lat="44.2217016" lon="8.3489395"><ele>265.0</ele><time>2026-05-03T08:46:49.987Z</time></trkpt><trkpt lat="44.2217294" lon="8.3488156"><ele>265.0</ele><time>2026-05-03T08:46:50.987Z</time></trkpt><trkpt lat="44.2217627" lon="8.3486914"><ele>265.0</ele><time>2026-05-03T08:46:51.987Z</time></trkpt><trkpt lat="44.2217963" lon="8.3485727"><ele>265.0</ele><time>2026-05-03T08:46:52.987Z</time></trkpt><trkpt lat="44.2218263" lon="8.3484597"><ele>268.0</ele><time>2026-05-03T08:46:53.987Z</time></trkpt><trkpt lat="44.2218614" lon="8.3483649"><ele>271.0</ele><time>2026-05-03T08:46:54.986Z</time></trkpt><trkpt lat="44.221908" lon="8.3482854"><ele>274.0</ele><time>2026-05-03T08:46:55.987Z</time></trkpt><trkpt lat="44.2219537" lon="8.348218"><ele>277.0</ele><time>2026-05-03T08:46:56.986Z</time></trkpt><trkpt lat="44.2219945" lon="8.3481507"><ele>280.0</ele><time>2026-05-03T08:46:57.986Z</time></trkpt><trkpt lat="44.2220319" lon="8.3480182"><ele>283.0</ele><time>2026-05-03T08:46:59.986Z</time></trkpt><trkpt lat="44.2219904" lon="8.3479383"><ele>283.0</ele><time>2026-05-03T08:47:01.986Z</time></trkpt><trkpt lat="44.2219263" lon="8.3479922"><ele>283.0</ele><time>2026-05-03T08:47:03.986Z</time></trkpt><trkpt lat="44.2218834" lon="8.3480749"><ele>283.0</ele><time>2026-05-03T08:47:04.986Z</time></trkpt><trkpt lat="44.2218301" lon="8.348185"><ele>283.0</ele><time>2026-05-03T08:47:05.986Z</time></trkpt><trkpt lat="44.2217646" lon="8.3483039"><ele>283.0</ele><time>2026-05-03T08:47:06.986Z</time></trkpt><trkpt lat="44.2217018" lon="8.3484235"><ele>283.0</ele><time>2026-05-03T08:47:07.986Z</time></trkpt><trkpt lat="44.2216344" lon="8.3485314"><ele>283.0</ele><time>2026-05-03T08:47:08.987Z</time></trkpt><trkpt lat="44.2215572" lon="8.3486302"><ele>283.0</ele><time>2026-05-03T08:47:09.987Z</time></trkpt><trkpt lat="44.2214789" lon="8.3487267"><ele>283.0</ele><time>2026-05-03T08:47:10.986Z</time></trkpt><trkpt lat="44.2214008" lon="8.3488013"><ele>283.0</ele><time>2026-05-03T08:47:11.987Z</time></trkpt><trkpt lat="44.2213333" lon="8.3488711"><ele>282.8333333333333</ele><time>2026-05-03T08:47:12.987Z</time></trkpt><trkpt lat="44.221265" lon="8.3489354"><ele>282.66666666666663</ele><time>2026-05-03T08:47:13.987Z</time></trkpt><trkpt lat="44.2211977" lon="8.3489798"><ele>282.5</ele><time>2026-05-03T08:47:14.986Z</time></trkpt><trkpt lat="44.2211242" lon="8.3490072"><ele>282.3333333333333</ele><time>2026-05-03T08:47:15.987Z</time></trkpt><trkpt lat="44.2210486" lon="8.3490238"><ele>282.1666666666667</ele><time>2026-05-03T08:47:16.986Z</time></trkpt><trkpt lat="44.2209671" lon="8.3490377"><ele>282.0</ele><time>2026-05-03T08:47:17.986Z</time></trkpt><trkpt lat="44.2208819" lon="8.349052"><ele>282.0</ele><time>2026-05-03T08:47:18.986Z</time></trkpt><trkpt lat="44.2207934" lon="8.3490635"><ele>282.0</ele><time>2026-05-03T08:47:19.986Z</time></trkpt><trkpt lat="44.2207033" lon="8.349066"><ele>282.0</ele><time>2026-05-03T08:47:20.986Z</time></trkpt><trkpt lat="44.2206166" lon="8.3490571"><ele>282.0</ele><time>2026-05-03T08:47:21.987Z</time></trkpt><trkpt lat="44.2205352" lon="8.3490436"><ele>282.0</ele><time>2026-05-03T08:47:22.987Z</time></trkpt><trkpt lat="44.2204646" lon="8.3490283"><ele>282.0</ele><time>2026-05-03T08:47:23.986Z</time></trkpt><trkpt lat="44.2203552" lon="8.3490206"><ele>285.0</ele><time>2026-05-03T08:47:25.986Z</time></trkpt><trkpt lat="44.2202689" lon="8.3490762"><ele>288.0</ele><time>2026-05-03T08:47:27.986Z</time></trkpt><trkpt lat="44.2201895" lon="8.349204"><ele>291.0</ele><time>2026-05-03T08:47:29.987Z</time></trkpt><trkpt lat="44.2201523" lon="8.3492854"><ele>294.0</ele><time>2026-05-03T08:47:30.986Z</time></trkpt><trkpt lat="44.2201077" lon="8.3493625"><ele>297.0</ele><time>2026-05-03T08:47:31.987Z</time></trkpt><trkpt lat="44.2200503" lon="8.3494278"><ele>300.0</ele><time>2026-05-03T08:47:32.986Z</time></trkpt><trkpt lat="44.2199828" lon="8.3494817"><ele>300.0</ele><time>2026-05-03T08:47:33.986Z</time></trkpt><trkpt lat="44.2199053" lon="8.3495202"><ele>300.0</ele><time>2026-05-03T08:47:34.986Z</time></trkpt><trkpt lat="44.2198187" lon="8.3495522"><ele>300.0</ele><time>2026-05-03T08:47:35.986Z</time></trkpt><trkpt lat="44.2197325" lon="8.3495831"><ele>300.0</ele><time>2026-05-03T08:47:36.986Z</time></trkpt><trkpt lat="44.2196422" lon="8.3496122"><ele>300.0</ele><time>2026-05-03T08:47:37.986Z</time></trkpt><trkpt lat="44.2195587" lon="8.3496365"><ele>300.0</ele><time>2026-05-03T08:47:38.986Z</time></trkpt><trkpt lat="44.2194935" lon="8.3496544"><ele>300.0</ele><time>2026-05-03T08:47:39.987Z</time></trkpt><trkpt lat="44.2194115" lon="8.3496468"><ele>300.0</ele><time>2026-05-03T08:47:41.987Z</time></trkpt><trkpt lat="44.2194155" lon="8.3495417"><ele>300.0</ele><time>2026-05-03T08:47:44.986Z</time></trkpt><trkpt lat="44.219488" lon="8.3495191"><ele>300.0</ele><time>2026-05-03T08:47:46.987Z</time></trkpt><trkpt lat="44.2195944" lon="8.3495087"><ele>300.0</ele><time>2026-05-03T08:47:48.986Z</time></trkpt><trkpt lat="44.2197001" lon="8.3494642"><ele>300.0</ele><time>2026-05-03T08:47:50.987Z</time></trkpt><trkpt lat="44.219793" lon="8.3494202"><ele>300.0</ele><time>2026-05-03T08:47:52.986Z</time></trkpt><trkpt lat="44.2199013" lon="8.3493532"><ele>300.0</ele><time>2026-05-03T08:47:54.986Z</time></trkpt><trkpt lat="44.219957" lon="8.3493009"><ele>300.0</ele><time>2026-05-03T08:47:55.986Z</time></trkpt><trkpt lat="44.2200041" lon="8.3492334"><ele>300.0</ele><time>2026-05-03T08:47:56.986Z</time></trkpt><trkpt lat="44.2200407" lon="8.3491574"><ele>300.0</ele><time>2026-05-03T08:47:57.986Z</time></trkpt><trkpt lat="44.2200671" lon="8.349067"><ele>300.0</ele><time>2026-05-03T08:47:58.987Z</time></trkpt><trkpt lat="44.2200856" lon="8.3489701"><ele>300.0</ele><time>2026-05-03T08:47:59.986Z</time></trkpt><trkpt lat="44.2200985" lon="8.3488796"><ele>300.0</ele><time>2026-05-03T08:48:00.987Z</time></trkpt><trkpt lat="44.2201345" lon="8.3487495"><ele>300.0</ele><time>2026-05-03T08:48:02.986Z</time></trkpt><trkpt lat="44.2201774" lon="8.3486534"><ele>300.0</ele><time>2026-05-03T08:48:04.986Z</time></trkpt><trkpt lat="44.2202575" lon="8.3485823"><ele>300.0</ele><time>2026-05-03T08:48:06.986Z</time></trkpt><trkpt lat="44.2203747" lon="8.3485291"><ele>301.5</ele><time>2026-05-03T08:48:08.987Z</time></trkpt><trkpt lat="44.2204552" lon="8.3485078"><ele>303.0</ele><time>2026-05-03T08:48:09.986Z</time></trkpt><trkpt lat="44.2205398" lon="8.3484931"><ele>304.5</ele><time>2026-05-03T08:48:10.986Z</time></trkpt><trkpt lat="44.2206274" lon="8.3484701"><ele>306.0</ele><time>2026-05-03T08:48:11.987Z</time></trkpt><trkpt lat="44.2207087" lon="8.3484428"><ele>307.5</ele><time>2026-05-03T08:48:12.986Z</time></trkpt><trkpt lat="44.2207881" lon="8.3484045"><ele>309.0</ele><time>2026-05-03T08:48:13.986Z</time></trkpt><trkpt lat="44.2208572" lon="8.3483634"><ele>309.0</ele><time>2026-05-03T08:48:14.986Z</time></trkpt><trkpt lat="44.2209115" lon="8.3483015"><ele>309.0</ele><time>2026-05-03T08:48:15.986Z</time></trkpt><trkpt lat="44.2209499" lon="8.3482113"><ele>309.0</ele><time>2026-05-03T08:48:16.986Z</time></trkpt><trkpt lat="44.2209703" lon="8.3480988"><ele>309.0</ele><time>2026-05-03T08:48:17.986Z</time></trkpt><trkpt lat="44.2209838" lon="8.3479753"><ele>309.0</ele><time>2026-05-03T08:48:18.986Z</time></trkpt><trkpt lat="44.220991" lon="8.3478489"><ele>309.0</ele><time>2026-05-03T08:48:19.986Z</time></trkpt><trkpt lat="44.2209985" lon="8.3477272"><ele>312.1666666666667</ele><time>2026-05-03T08:48:20.987Z</time></trkpt><trkpt lat="44.2210051" lon="8.347616"><ele>315.3333333333333</ele><time>2026-05-03T08:48:21.986Z</time></trkpt><trkpt lat="44.2210152" lon="8.3475149"><ele>318.5</ele><time>2026-05-03T08:48:22.986Z</time></trkpt><trkpt lat="44.2210292" lon="8.3474242"><ele>321.66666666666663</ele><time>2026-05-03T08:48:23.987Z</time></trkpt><trkpt lat="44.2210792" lon="8.3472614"><ele>324.8333333333333</ele><time>2026-05-03T08:48:25.987Z</time></trkpt><trkpt lat="44.2211278" lon="8.3471902"><ele>328.0</ele><time>2026-05-03T08:48:26.986Z</time></trkpt><trkpt lat="44.2211946" lon="8.3471271"><ele>327.5</ele><time>2026-05-03T08:48:27.986Z</time></trkpt><trkpt lat="44.2212683" lon="8.3470759"><ele>327.0</ele><time>2026-05-03T08:48:28.986Z</time></trkpt><trkpt lat="44.221339" lon="8.3470374"><ele>326.5</ele><time>2026-05-03T08:48:29.986Z</time></trkpt><trkpt lat="44.2213949" lon="8.3469945"><ele>326.0</ele><time>2026-05-03T08:48:30.986Z</time></trkpt><trkpt lat="44.2214789" lon="8.3468556"><ele>325.5</ele><time>2026-05-03T08:48:32.986Z</time></trkpt><trkpt lat="44.2215176" lon="8.3467594"><ele>325.0</ele><time>2026-05-03T08:48:33.986Z</time></trkpt><trkpt lat="44.2215532" lon="8.3466671"><ele>325.0</ele><time>2026-05-03T08:48:34.987Z</time></trkpt><trkpt lat="44.2216131" lon="8.3465326"><ele>325.0</ele><time>2026-05-03T08:48:36.987Z</time></trkpt><trkpt lat="44.2217101" lon="8.3464641"><ele>325.0</ele><time>2026-05-03T08:48:38.986Z</time></trkpt><trkpt lat="44.2218076" lon="8.3463857"><ele>325.0</ele><time>2026-05-03T08:48:40.987Z</time></trkpt><trkpt lat="44.2218886" lon="8.346251"><ele>329.3333333333333</ele><time>2026-05-03T08:48:42.987Z</time></trkpt><trkpt lat="44.2219307" lon="8.3461683"><ele>333.66666666666663</ele><time>2026-05-03T08:48:43.986Z</time></trkpt><trkpt lat="44.2219669" lon="8.346086"><ele>338.0</ele><time>2026-05-03T08:48:44.987Z</time></trkpt><trkpt lat="44.2220136" lon="8.346016"><ele>342.3333333333333</ele><time>2026-05-03T08:48:45.986Z</time></trkpt><trkpt lat="44.2221067" lon="8.3459459"><ele>346.6666666666667</ele><time>2026-05-03T08:48:47.987Z</time></trkpt><trkpt lat="44.2222055" lon="8.345893"><ele>351.0</ele><time>2026-05-03T08:48:49.987Z</time></trkpt><trkpt lat="44.2222882" lon="8.3458433"><ele>348.0</ele><time>2026-05-03T08:48:51.986Z</time></trkpt><trkpt lat="44.2223996" lon="8.3458041"><ele>345.0</ele><time>2026-05-03T08:48:53.986Z</time></trkpt><trkpt lat="44.2224744" lon="8.3457675"><ele>342.0</ele><time>2026-05-03T08:48:54.987Z</time></trkpt><trkpt lat="44.2225419" lon="8.3457297"><ele>339.0</ele><time>2026-05-03T08:48:55.986Z</time></trkpt><trkpt lat="44.2226013" lon="8.3456948"><ele>336.0</ele><time>2026-05-03T08:48:56.987Z</time></trkpt><trkpt lat="44.222678" lon="8.3456201"><ele>333.0</ele><time>2026-05-03T08:48:58.986Z</time></trkpt><trkpt lat="44.2226089" lon="8.3455788"><ele>333.0</ele><time>2026-05-03T08:49:02.987Z</time></trkpt><trkpt lat="44.2225463" lon="8.3456224"><ele>333.0</ele><time>2026-05-03T08:49:03.987Z</time></trkpt><trkpt lat="44.2224738" lon="8.3456606"><ele>333.0</ele><time>2026-05-03T08:49:04.986Z</time></trkpt><trkpt lat="44.2223962" lon="8.3457043"><ele>333.0</ele><time>2026-05-03T08:49:05.986Z</time></trkpt><trkpt lat="44.2223096" lon="8.3457243"><ele>333.0</ele><time>2026-05-03T08:49:06.986Z</time></trkpt><trkpt lat="44.2222274" lon="8.3457509"><ele>333.0</ele><time>2026-05-03T08:49:07.986Z</time></trkpt><trkpt lat="44.2221591" lon="8.3457678"><ele>336.0</ele><time>2026-05-03T08:49:08.986Z</time></trkpt><trkpt lat="44.2220471" lon="8.3458209"><ele>339.0</ele><time>2026-05-03T08:49:10.986Z</time></trkpt><trkpt lat="44.221997" lon="8.3458958"><ele>342.0</ele><time>2026-05-03T08:49:11.987Z</time></trkpt><trkpt lat="44.2219379" lon="8.3459776"><ele>345.0</ele><time>2026-05-03T08:49:12.986Z</time></trkpt><trkpt lat="44.2218869" lon="8.3460517"><ele>348.0</ele><time>2026-05-03T08:49:13.986Z</time></trkpt><trkpt lat="44.2218348" lon="8.3461153"><ele>351.0</ele><time>2026-05-03T08:49:14.986Z</time></trkpt><trkpt lat="44.2217713" lon="8.3461546"><ele>351.0</ele><time>2026-05-03T08:49:15.986Z</time></trkpt><trkpt lat="44.2217089" lon="8.3461871"><ele>351.0</ele><time>2026-05-03T08:49:16.986Z</time></trkpt><trkpt lat="44.2216391" lon="8.3462061"><ele>351.0</ele><time>2026-05-03T08:49:17.986Z</time></trkpt><trkpt lat="44.2215722" lon="8.3462078"><ele>351.0</ele><time>2026-05-03T08:49:18.986Z</time></trkpt><trkpt lat="44.221506" lon="8.3462143"><ele>351.0</ele><time>2026-05-03T08:49:19.986Z</time></trkpt><trkpt lat="44.2213862" lon="8.3462518"><ele>351.0</ele><time>2026-05-03T08:49:21.986Z</time></trkpt><trkpt lat="44.2212873" lon="8.3463739"><ele>350.8333333333333</ele><time>2026-05-03T08:49:23.986Z</time></trkpt><trkpt lat="44.2212343" lon="8.346443"><ele>350.6666666666667</ele><time>2026-05-03T08:49:24.987Z</time></trkpt><trkpt lat="44.2211784" lon="8.346497"><ele>350.5</ele><time>2026-05-03T08:49:25.986Z</time></trkpt><trkpt lat="44.2211114" lon="8.3465423"><ele>350.33333333333337</ele><time>2026-05-03T08:49:26.986Z</time></trkpt><trkpt lat="44.2210399" lon="8.3465932"><ele>350.1666666666667</ele><time>2026-05-03T08:49:27.986Z</time></trkpt><trkpt lat="44.2209533" lon="8.3466542"><ele>350.0</ele><time>2026-05-03T08:49:28.987Z</time></trkpt><trkpt lat="44.2208636" lon="8.3467206"><ele>350.0</ele><time>2026-05-03T08:49:29.986Z</time></trkpt><trkpt lat="44.2207696" lon="8.3467881"><ele>350.0</ele><time>2026-05-03T08:49:30.986Z</time></trkpt><trkpt lat="44.2206815" lon="8.3468503"><ele>350.0</ele><time>2026-05-03T08:49:31.986Z</time></trkpt><trkpt lat="44.2205966" lon="8.3469137"><ele>350.0</ele><time>2026-05-03T08:49:32.987Z</time></trkpt><trkpt lat="44.2205196" lon="8.3469778"><ele>350.0</ele><time>2026-05-03T08:49:33.987Z</time></trkpt><trkpt lat="44.2204466" lon="8.3470404"><ele>353.6666666666667</ele><time>2026-05-03T08:49:34.987Z</time></trkpt><trkpt lat="44.22038" lon="8.3470991"><ele>357.33333333333337</ele><time>2026-05-03T08:49:35.986Z</time></trkpt><trkpt lat="44.2203201" lon="8.3471415"><ele>361.0</ele><time>2026-05-03T08:49:36.986Z</time></trkpt><trkpt lat="44.2202327" lon="8.3471677"><ele>364.6666666666667</ele><time>2026-05-03T08:49:38.987Z</time></trkpt><trkpt lat="44.2201925" lon="8.3470946"><ele>368.3333333333333</ele><time>2026-05-03T08:49:41.987Z</time></trkpt><trkpt lat="44.2202785" lon="8.3469932"><ele>372.0</ele><time>2026-05-03T08:49:44.986Z</time></trkpt><trkpt lat="44.2203374" lon="8.3469414"><ele>372.0</ele><time>2026-05-03T08:49:45.986Z</time></trkpt><trkpt lat="44.2203978" lon="8.3468819"><ele>372.0</ele><time>2026-05-03T08:49:46.986Z</time></trkpt><trkpt lat="44.2204592" lon="8.346817"><ele>372.0</ele><time>2026-05-03T08:49:47.986Z</time></trkpt><trkpt lat="44.2205251" lon="8.3467276"><ele>372.0</ele><time>2026-05-03T08:49:48.986Z</time></trkpt><trkpt lat="44.220592" lon="8.3466395"><ele>372.0</ele><time>2026-05-03T08:49:49.987Z</time></trkpt><trkpt lat="44.220662" lon="8.3465524"><ele>372.0</ele><time>2026-05-03T08:49:50.986Z</time></trkpt><trkpt lat="44.2207381" lon="8.346453"><ele>372.20000000000005</ele><time>2026-05-03T08:49:51.987Z</time></trkpt><trkpt lat="44.2208063" lon="8.3463478"><ele>372.4</ele><time>2026-05-03T08:49:52.986Z</time></trkpt><trkpt lat="44.2208791" lon="8.3462309"><ele>372.6</ele><time>2026-05-03T08:49:53.987Z</time></trkpt><trkpt lat="44.2209558" lon="8.3461102"><ele>372.79999999999995</ele><time>2026-05-03T08:49:54.987Z</time></trkpt><trkpt lat="44.2210333" lon="8.3459943"><ele>373.0</ele><time>2026-05-03T08:49:55.987Z</time></trkpt><trkpt lat="44.2211104" lon="8.345889"><ele>373.0</ele><time>2026-05-03T08:49:56.987Z</time></trkpt><trkpt lat="44.2211806" lon="8.3457912"><ele>373.0</ele><time>2026-05-03T08:49:57.986Z</time></trkpt><trkpt lat="44.221245" lon="8.3457026"><ele>373.0</ele><time>2026-05-03T08:49:58.986Z</time></trkpt><trkpt lat="44.2213127" lon="8.3456134"><ele>373.0</ele><time>2026-05-03T08:49:59.987Z</time></trkpt><trkpt lat="44.2213762" lon="8.3455289"><ele>373.0</ele><time>2026-05-03T08:50:00.985Z</time></trkpt><trkpt lat="44.2214363" lon="8.3454373"><ele>372.66666666666663</ele><time>2026-05-03T08:50:01.986Z</time></trkpt><trkpt lat="44.2214996" lon="8.3453444"><ele>372.3333333333333</ele><time>2026-05-03T08:50:02.985Z</time></trkpt><trkpt lat="44.221563" lon="8.3452611"><ele>372.0</ele><time>2026-05-03T08:50:03.986Z</time></trkpt><trkpt lat="44.2216315" lon="8.3452046"><ele>371.6666666666667</ele><time>2026-05-03T08:50:04.986Z</time></trkpt><trkpt lat="44.2217016" lon="8.345144"><ele>371.33333333333337</ele><time>2026-05-03T08:50:05.985Z</time></trkpt><trkpt lat="44.2217848" lon="8.3451226"><ele>371.0</ele><time>2026-05-03T08:50:06.986Z</time></trkpt><trkpt lat="44.2218738" lon="8.3451026"><ele>371.0</ele><time>2026-05-03T08:50:07.986Z</time></trkpt><trkpt lat="44.2219589" lon="8.3450633"><ele>371.0</ele><time>2026-05-03T08:50:08.985Z</time></trkpt><trkpt lat="44.2220368" lon="8.3450161"><ele>371.0</ele><time>2026-05-03T08:50:09.986Z</time></trkpt><trkpt lat="44.2220954" lon="8.3449568"><ele>371.0</ele><time>2026-05-03T08:50:10.985Z</time></trkpt><trkpt lat="44.2221665" lon="8.3448458"><ele>371.0</ele><time>2026-05-03T08:50:12.985Z</time></trkpt><trkpt lat="44.2222184" lon="8.3447061"><ele>369.33333333333337</ele><time>2026-05-03T08:50:14.985Z</time></trkpt><trkpt lat="44.2222443" lon="8.3446229"><ele>367.6666666666667</ele><time>2026-05-03T08:50:15.985Z</time></trkpt><trkpt lat="44.2222858" lon="8.3444656"><ele>366.0</ele><time>2026-05-03T08:50:17.985Z</time></trkpt><trkpt lat="44.2223511" lon="8.3443554"><ele>364.3333333333333</ele><time>2026-05-03T08:50:19.986Z</time></trkpt><trkpt lat="44.2224078" lon="8.3443145"><ele>362.66666666666663</ele><time>2026-05-03T08:50:20.985Z</time></trkpt><trkpt lat="44.2224782" lon="8.3442872"><ele>361.0</ele><time>2026-05-03T08:50:21.985Z</time></trkpt><trkpt lat="44.2225606" lon="8.3442478"><ele>360.8</ele><time>2026-05-03T08:50:22.985Z</time></trkpt><trkpt lat="44.2226547" lon="8.3441851"><ele>360.6</ele><time>2026-05-03T08:50:23.985Z</time></trkpt><trkpt lat="44.2227524" lon="8.3441057"><ele>360.4</ele><time>2026-05-03T08:50:24.986Z</time></trkpt><trkpt lat="44.2228374" lon="8.3440341"><ele>360.2</ele><time>2026-05-03T08:50:25.986Z</time></trkpt><trkpt lat="44.2229033" lon="8.3439524"><ele>360.0</ele><time>2026-05-03T08:50:26.986Z</time></trkpt><trkpt lat="44.2229611" lon="8.3438715"><ele>361.3333333333333</ele><time>2026-05-03T08:50:27.985Z</time></trkpt><trkpt lat="44.2230161" lon="8.3437943"><ele>362.6666666666667</ele><time>2026-05-03T08:50:28.985Z</time></trkpt><trkpt lat="44.2230648" lon="8.3437115"><ele>364.0</ele><time>2026-05-03T08:50:29.985Z</time></trkpt><trkpt lat="44.2231192" lon="8.3436249"><ele>365.33333333333337</ele><time>2026-05-03T08:50:30.985Z</time></trkpt><trkpt lat="44.223167" lon="8.3435381"><ele>366.6666666666667</ele><time>2026-05-03T08:50:31.986Z</time></trkpt><trkpt lat="44.2231985" lon="8.3434451"><ele>368.0</ele><time>2026-05-03T08:50:32.985Z</time></trkpt><trkpt lat="44.2232133" lon="8.3433382"><ele>368.0</ele><time>2026-05-03T08:50:33.986Z</time></trkpt><trkpt lat="44.2232088" lon="8.3432289"><ele>368.0</ele><time>2026-05-03T08:50:34.986Z</time></trkpt><trkpt lat="44.2231779" lon="8.3431297"><ele>368.0</ele><time>2026-05-03T08:50:35.986Z</time></trkpt><trkpt lat="44.2231241" lon="8.3430449"><ele>368.0</ele><time>2026-05-03T08:50:36.985Z</time></trkpt><trkpt lat="44.223066" lon="8.342957"><ele>368.0</ele><time>2026-05-03T08:50:37.985Z</time></trkpt><trkpt lat="44.2230208" lon="8.3428607"><ele>368.0</ele><time>2026-05-03T08:50:38.985Z</time></trkpt><trkpt lat="44.2229926" lon="8.3427585"><ele>364.6666666666667</ele><time>2026-05-03T08:50:39.986Z</time></trkpt><trkpt lat="44.2229708" lon="8.3426619"><ele>361.33333333333337</ele><time>2026-05-03T08:50:40.986Z</time></trkpt><trkpt lat="44.2229459" lon="8.3425715"><ele>358.0</ele><time>2026-05-03T08:50:41.986Z</time></trkpt><trkpt lat="44.2229242" lon="8.3424837"><ele>354.6666666666667</ele><time>2026-05-03T08:50:42.986Z</time></trkpt><trkpt lat="44.222843" lon="8.3423427"><ele>351.3333333333333</ele><time>2026-05-03T08:50:44.986Z</time></trkpt><trkpt lat="44.2227772" lon="8.3422861"><ele>348.0</ele><time>2026-05-03T08:50:45.985Z</time></trkpt><trkpt lat="44.2226961" lon="8.3422493"><ele>348.0</ele><time>2026-05-03T08:50:46.985Z</time></trkpt><trkpt lat="44.2226103" lon="8.3422208"><ele>348.0</ele><time>2026-05-03T08:50:47.985Z</time></trkpt><trkpt lat="44.2225361" lon="8.3421893"><ele>348.0</ele><time>2026-05-03T08:50:48.986Z</time></trkpt><trkpt lat="44.2224748" lon="8.3421451"><ele>348.0</ele><time>2026-05-03T08:50:49.986Z</time></trkpt><trkpt lat="44.2224254" lon="8.3420868"><ele>348.0</ele><time>2026-05-03T08:50:50.986Z</time></trkpt><trkpt lat="44.2223913" lon="8.3420088"><ele>348.0</ele><time>2026-05-03T08:50:51.985Z</time></trkpt><trkpt lat="44.2223769" lon="8.3419145"><ele>348.0</ele><time>2026-05-03T08:50:52.986Z</time></trkpt><trkpt lat="44.2223837" lon="8.3418103"><ele>348.1666666666667</ele><time>2026-05-03T08:50:53.985Z</time></trkpt><trkpt lat="44.2224103" lon="8.3416907"><ele>348.3333333333333</ele><time>2026-05-03T08:50:54.985Z</time></trkpt><trkpt lat="44.2224424" lon="8.3415762"><ele>348.5</ele><time>2026-05-03T08:50:55.985Z</time></trkpt><trkpt lat="44.2224724" lon="8.3414658"><ele>348.66666666666663</ele><time>2026-05-03T08:50:56.985Z</time></trkpt><trkpt lat="44.2225001" lon="8.3413522"><ele>348.8333333333333</ele><time>2026-05-03T08:50:57.985Z</time></trkpt><trkpt lat="44.2225189" lon="8.3412313"><ele>349.0</ele><time>2026-05-03T08:50:58.985Z</time></trkpt><trkpt lat="44.2225249" lon="8.3411051"><ele>349.3333333333333</ele><time>2026-05-03T08:50:59.985Z</time></trkpt><trkpt lat="44.2225105" lon="8.3409849"><ele>349.66666666666663</ele><time>2026-05-03T08:51:00.985Z</time></trkpt><trkpt lat="44.222469" lon="8.3408885"><ele>350.0</ele><time>2026-05-03T08:51:01.985Z</time></trkpt><trkpt lat="44.2224049" lon="8.3408135"><ele>350.3333333333333</ele><time>2026-05-03T08:51:02.985Z</time></trkpt><trkpt lat="44.2223259" lon="8.3407607"><ele>350.6666666666667</ele><time>2026-05-03T08:51:03.986Z</time></trkpt><trkpt lat="44.2222285" lon="8.3407491"><ele>351.0</ele><time>2026-05-03T08:51:04.986Z</time></trkpt><trkpt lat="44.2221216" lon="8.3407669"><ele>348.6</ele><time>2026-05-03T08:51:05.986Z</time></trkpt><trkpt lat="44.222003" lon="8.3407785"><ele>346.20000000000005</ele><time>2026-05-03T08:51:06.985Z</time></trkpt><trkpt lat="44.2218891" lon="8.3407832"><ele>343.79999999999995</ele><time>2026-05-03T08:51:07.985Z</time></trkpt><trkpt lat="44.2217861" lon="8.3407793"><ele>341.4</ele><time>2026-05-03T08:51:08.985Z</time></trkpt><trkpt lat="44.221692" lon="8.3407855"><ele>339.0</ele><time>2026-05-03T08:51:09.985Z</time></trkpt><trkpt lat="44.2216046" lon="8.3407933"><ele>339.0</ele><time>2026-05-03T08:51:10.985Z</time></trkpt><trkpt lat="44.2215228" lon="8.3407996"><ele>339.0</ele><time>2026-05-03T08:51:11.985Z</time></trkpt><trkpt lat="44.2214563" lon="8.3407687"><ele>339.0</ele><time>2026-05-03T08:51:12.986Z</time></trkpt><trkpt lat="44.2213932" lon="8.3407316"><ele>339.0</ele><time>2026-05-03T08:51:13.985Z</time></trkpt><trkpt lat="44.2213356" lon="8.3406828"><ele>339.0</ele><time>2026-05-03T08:51:14.985Z</time></trkpt><trkpt lat="44.2212811" lon="8.3406352"><ele>339.0</ele><time>2026-05-03T08:51:15.985Z</time></trkpt><trkpt lat="44.2212154" lon="8.3406008"><ele>339.0</ele><time>2026-05-03T08:51:16.985Z</time></trkpt><trkpt lat="44.22114" lon="8.3405729"><ele>338.0</ele><time>2026-05-03T08:51:17.985Z</time></trkpt><trkpt lat="44.2210463" lon="8.3405536"><ele>337.0</ele><time>2026-05-03T08:51:18.985Z</time></trkpt><trkpt lat="44.2209504" lon="8.3405247"><ele>336.0</ele><time>2026-05-03T08:51:19.985Z</time></trkpt><trkpt lat="44.2208492" lon="8.3404847"><ele>335.0</ele><time>2026-05-03T08:51:20.985Z</time></trkpt><trkpt lat="44.2207485" lon="8.3404436"><ele>334.0</ele><time>2026-05-03T08:51:21.986Z</time></trkpt><trkpt lat="44.22065" lon="8.340411"><ele>329.2</ele><time>2026-05-03T08:51:22.986Z</time></trkpt><trkpt lat="44.2205656" lon="8.3403656"><ele>324.4</ele><time>2026-05-03T08:51:23.985Z</time></trkpt><trkpt lat="44.2204954" lon="8.3403172"><ele>319.6</ele><time>2026-05-03T08:51:24.986Z</time></trkpt><trkpt lat="44.2204156" lon="8.3402282"><ele>314.8</ele><time>2026-05-03T08:51:26.986Z</time></trkpt><trkpt lat="44.2204048" lon="8.3400996"><ele>310.0</ele><time>2026-05-03T08:51:28.986Z</time></trkpt><trkpt lat="44.2204399" lon="8.3399344"><ele>310.0</ele><time>2026-05-03T08:51:30.985Z</time></trkpt><trkpt lat="44.2204728" lon="8.3398333"><ele>310.0</ele><time>2026-05-03T08:51:31.986Z</time></trkpt><trkpt lat="44.2205113" lon="8.3397269"><ele>310.0</ele><time>2026-05-03T08:51:32.986Z</time></trkpt><trkpt lat="44.220543" lon="8.3396214"><ele>310.0</ele><time>2026-05-03T08:51:33.986Z</time></trkpt><trkpt lat="44.2205575" lon="8.3395225"><ele>310.0</ele><time>2026-05-03T08:51:34.986Z</time></trkpt><trkpt lat="44.2205487" lon="8.3394157"><ele>310.0</ele><time>2026-05-03T08:51:35.985Z</time></trkpt><trkpt lat="44.2205128" lon="8.3393133"><ele>310.2</ele><time>2026-05-03T08:51:36.985Z</time></trkpt><trkpt lat="44.2204549" lon="8.3392279"><ele>310.4</ele><time>2026-05-03T08:51:37.986Z</time></trkpt><trkpt lat="44.2203851" lon="8.3391557"><ele>310.6</ele><time>2026-05-03T08:51:38.985Z</time></trkpt><trkpt lat="44.2203257" lon="8.3390919"><ele>310.8</ele><time>2026-05-03T08:51:39.985Z</time></trkpt><trkpt lat="44.2202527" lon="8.3389552"><ele>311.0</ele><time>2026-05-03T08:51:41.985Z</time></trkpt><trkpt lat="44.2202375" lon="8.3388093"><ele>309.5</ele><time>2026-05-03T08:51:43.985Z</time></trkpt><trkpt lat="44.2202566" lon="8.338717"><ele>308.0</ele><time>2026-05-03T08:51:44.985Z</time></trkpt><trkpt lat="44.2202935" lon="8.3386243"><ele>306.5</ele><time>2026-05-03T08:51:45.986Z</time></trkpt><trkpt lat="44.2203307" lon="8.3385444"><ele>305.0</ele><time>2026-05-03T08:51:46.985Z</time></trkpt><trkpt lat="44.2203923" lon="8.3384459"><ele>303.5</ele><time>2026-05-03T08:51:48.985Z</time></trkpt><trkpt lat="44.2204586" lon="8.3383549"><ele>302.0</ele><time>2026-05-03T08:51:50.985Z</time></trkpt><trkpt lat="44.2205273" lon="8.3382503"><ele>302.00000000000006</ele><time>2026-05-03T08:51:52.985Z</time></trkpt><trkpt lat="44.2205715" lon="8.3381855"><ele>302.0</ele><time>2026-05-03T08:51:53.986Z</time></trkpt><trkpt lat="44.2206168" lon="8.3381079"><ele>302.0</ele><time>2026-05-03T08:51:54.986Z</time></trkpt><trkpt lat="44.2206677" lon="8.3380301"><ele>302.0</ele><time>2026-05-03T08:51:55.986Z</time></trkpt><trkpt lat="44.2207186" lon="8.3379553"><ele>302.0</ele><time>2026-05-03T08:51:56.985Z</time></trkpt><trkpt lat="44.2207671" lon="8.3378858"><ele>302.00000000000006</ele><time>2026-05-03T08:51:57.985Z</time></trkpt><trkpt lat="44.2208224" lon="8.3378231"><ele>302.0</ele><time>2026-05-03T08:51:58.986Z</time></trkpt><trkpt lat="44.2208755" lon="8.337771"><ele>304.6666666666667</ele><time>2026-05-03T08:51:59.985Z</time></trkpt><trkpt lat="44.2209669" lon="8.3376796"><ele>307.33333333333337</ele><time>2026-05-03T08:52:01.985Z</time></trkpt><trkpt lat="44.2210583" lon="8.3376557"><ele>310.0</ele><time>2026-05-03T08:52:03.985Z</time></trkpt><trkpt lat="44.2211184" lon="8.3376934"><ele>312.6666666666667</ele><time>2026-05-03T08:52:04.985Z</time></trkpt><trkpt lat="44.2211802" lon="8.3377537"><ele>315.3333333333333</ele><time>2026-05-03T08:52:05.985Z</time></trkpt><trkpt lat="44.2212405" lon="8.3378333"><ele>318.0</ele><time>2026-05-03T08:52:06.985Z</time></trkpt><trkpt lat="44.2213017" lon="8.3379186"><ele>318.0</ele><time>2026-05-03T08:52:07.985Z</time></trkpt><trkpt lat="44.2213716" lon="8.3380048"><ele>318.0</ele><time>2026-05-03T08:52:08.985Z</time></trkpt><trkpt lat="44.221449" lon="8.3380898"><ele>318.0</ele><time>2026-05-03T08:52:09.985Z</time></trkpt><trkpt lat="44.2215334" lon="8.3381735"><ele>318.0</ele><time>2026-05-03T08:52:10.985Z</time></trkpt><trkpt lat="44.221613" lon="8.3382537"><ele>318.0</ele><time>2026-05-03T08:52:11.985Z</time></trkpt><trkpt lat="44.2216924" lon="8.3383314"><ele>319.0</ele><time>2026-05-03T08:52:12.985Z</time></trkpt><trkpt lat="44.2217686" lon="8.3384156"><ele>320.0</ele><time>2026-05-03T08:52:13.986Z</time></trkpt><trkpt lat="44.2218312" lon="8.3385067"><ele>321.0</ele><time>2026-05-03T08:52:14.986Z</time></trkpt><trkpt lat="44.2218883" lon="8.338602"><ele>322.0</ele><time>2026-05-03T08:52:15.985Z</time></trkpt><trkpt lat="44.2219476" lon="8.3386974"><ele>323.0</ele><time>2026-05-03T08:52:16.986Z</time></trkpt><trkpt lat="44.2220194" lon="8.3387767"><ele>323.0</ele><time>2026-05-03T08:52:17.985Z</time></trkpt><trkpt lat="44.2221023" lon="8.3388324"><ele>323.0</ele><time>2026-05-03T08:52:18.985Z</time></trkpt><trkpt lat="44.2221916" lon="8.3388699"><ele>323.0</ele><time>2026-05-03T08:52:19.986Z</time></trkpt><trkpt lat="44.2222773" lon="8.3388779"><ele>323.0</ele><time>2026-05-03T08:52:20.986Z</time></trkpt><trkpt lat="44.2223593" lon="8.3388685"><ele>323.0</ele><time>2026-05-03T08:52:21.985Z</time></trkpt><trkpt lat="44.2224425" lon="8.3388542"><ele>323.0</ele><time>2026-05-03T08:52:22.985Z</time></trkpt><trkpt lat="44.2225298" lon="8.3388413"><ele>320.2</ele><time>2026-05-03T08:52:23.986Z</time></trkpt><trkpt lat="44.2226195" lon="8.338836"><ele>317.4</ele><time>2026-05-03T08:52:24.986Z</time></trkpt><trkpt lat="44.2227108" lon="8.3388333"><ele>314.59999999999997</ele><time>2026-05-03T08:52:25.985Z</time></trkpt><trkpt lat="44.2228028" lon="8.3388315"><ele>311.79999999999995</ele><time>2026-05-03T08:52:26.986Z</time></trkpt><trkpt lat="44.2228973" lon="8.33883"><ele>309.0</ele><time>2026-05-03T08:52:27.985Z</time></trkpt><trkpt lat="44.2229848" lon="8.3388241"><ele>309.0</ele><time>2026-05-03T08:52:28.986Z</time></trkpt><trkpt lat="44.2230651" lon="8.3387995"><ele>309.0</ele><time>2026-05-03T08:52:29.986Z</time></trkpt><trkpt lat="44.2231361" lon="8.3387683"><ele>309.0</ele><time>2026-05-03T08:52:30.986Z</time></trkpt><trkpt lat="44.2232039" lon="8.3387133"><ele>309.0</ele><time>2026-05-03T08:52:31.986Z</time></trkpt><trkpt lat="44.2232584" lon="8.3386353"><ele>309.0</ele><time>2026-05-03T08:52:32.985Z</time></trkpt><trkpt lat="44.2233029" lon="8.3385527"><ele>309.0</ele><time>2026-05-03T08:52:33.985Z</time></trkpt><trkpt lat="44.2233466" lon="8.3384875"><ele>309.8333333333333</ele><time>2026-05-03T08:52:34.986Z</time></trkpt><trkpt lat="44.2233994" lon="8.3384378"><ele>310.6666666666667</ele><time>2026-05-03T08:52:35.985Z</time></trkpt><trkpt lat="44.2235109" lon="8.3383872"><ele>311.5</ele><time>2026-05-03T08:52:37.985Z</time></trkpt><trkpt lat="44.2236325" lon="8.3384163"><ele>312.33333333333337</ele><time>2026-05-03T08:52:39.985Z</time></trkpt><trkpt lat="44.2237004" lon="8.3384388"><ele>313.1666666666667</ele><time>2026-05-03T08:52:40.986Z</time></trkpt><trkpt lat="44.2237626" lon="8.3384606"><ele>314.0</ele><time>2026-05-03T08:52:41.986Z</time></trkpt><trkpt lat="44.2238791" lon="8.33849"><ele>313.5</ele><time>2026-05-03T08:52:43.986Z</time></trkpt><trkpt lat="44.2239971" lon="8.3384885"><ele>313.0</ele><time>2026-05-03T08:52:45.985Z</time></trkpt><trkpt lat="44.2240666" lon="8.3384755"><ele>312.5</ele><time>2026-05-03T08:52:46.986Z</time></trkpt><trkpt lat="44.2241343" lon="8.3384443"><ele>312.0</ele><time>2026-05-03T08:52:47.985Z</time></trkpt><trkpt lat="44.2241975" lon="8.3384041"><ele>311.5</ele><time>2026-05-03T08:52:48.986Z</time></trkpt><trkpt lat="44.2242529" lon="8.338352"><ele>311.0</ele><time>2026-05-03T08:52:49.985Z</time></trkpt><trkpt lat="44.2243036" lon="8.3382819"><ele>311.0</ele><time>2026-05-03T08:52:50.985Z</time></trkpt><trkpt lat="44.2243465" lon="8.3382079"><ele>311.0</ele><time>2026-05-03T08:52:51.985Z</time></trkpt><trkpt lat="44.2243786" lon="8.3381293"><ele>311.0</ele><time>2026-05-03T08:52:52.985Z</time></trkpt><trkpt lat="44.2244625" lon="8.3379988"><ele>311.0</ele><time>2026-05-03T08:52:54.985Z</time></trkpt><trkpt lat="44.2245436" lon="8.3378813"><ele>311.0</ele><time>2026-05-03T08:52:56.986Z</time></trkpt><trkpt lat="44.2246656" lon="8.3378252"><ele>307.85714285714283</ele><time>2026-05-03T08:52:58.986Z</time></trkpt><trkpt lat="44.2247335" lon="8.3378273"><ele>304.7142857142857</ele><time>2026-05-03T08:52:59.985Z</time></trkpt><trkpt lat="44.2248068" lon="8.3378508"><ele>301.57142857142856</ele><time>2026-05-03T08:53:00.985Z</time></trkpt><trkpt lat="44.2248811" lon="8.3378853"><ele>298.42857142857144</ele><time>2026-05-03T08:53:01.986Z</time></trkpt><trkpt lat="44.2249517" lon="8.3379163"><ele>295.2857142857143</ele><time>2026-05-03T08:53:02.985Z</time></trkpt><trkpt lat="44.2250222" lon="8.3379408"><ele>292.14285714285717</ele><time>2026-05-03T08:53:03.985Z</time></trkpt><trkpt lat="44.2250888" lon="8.3379552"><ele>289.0</ele><time>2026-05-03T08:53:04.985Z</time></trkpt><trkpt lat="44.2251576" lon="8.3379536"><ele>289.0</ele><time>2026-05-03T08:53:05.986Z</time></trkpt><trkpt lat="44.2252218" lon="8.337935"><ele>289.0</ele><time>2026-05-03T08:53:06.985Z</time></trkpt><trkpt lat="44.2253377" lon="8.3378787"><ele>289.0</ele><time>2026-05-03T08:53:08.986Z</time></trkpt><trkpt lat="44.2254303" lon="8.3377949"><ele>289.0</ele><time>2026-05-03T08:53:10.986Z</time></trkpt><trkpt lat="44.2254923" lon="8.3377486"><ele>289.0</ele><time>2026-05-03T08:53:12.985Z</time></trkpt><trkpt lat="44.2254533" lon="8.337675"><ele>289.0</ele><time>2026-05-03T08:56:14.986Z</time></trkpt><trkpt lat="44.2253967" lon="8.337625"><ele>289.0</ele><time>2026-05-03T08:56:17.985Z</time></trkpt><trkpt lat="44.2253083" lon="8.337625"><ele>289.0</ele><time>2026-05-03T08:56:33.985Z</time></trkpt><trkpt lat="44.2252433" lon="8.3376433"><ele>289.0</ele><time>2026-05-03T08:56:35.986Z</time></trkpt><trkpt lat="44.22515" lon="8.33766"><ele>289.0</ele><time>2026-05-03T08:56:37.985Z</time></trkpt><trkpt lat="44.22504" lon="8.33764"><ele>289.0</ele><time>2026-05-03T08:56:39.985Z</time></trkpt><trkpt lat="44.2249767" lon="8.337605"><ele>289.0</ele><time>2026-05-03T08:56:40.985Z</time></trkpt><trkpt lat="44.2249133" lon="8.337565"><ele>289.0</ele><time>2026-05-03T08:56:41.985Z</time></trkpt><trkpt lat="44.2248517" lon="8.3375233"><ele>289.0</ele><time>2026-05-03T08:56:42.985Z</time></trkpt><trkpt lat="44.2247683" lon="8.337485"><ele>289.0</ele><time>2026-05-03T08:56:43.986Z</time></trkpt><trkpt lat="44.2246967" lon="8.33746"><ele>289.0</ele><time>2026-05-03T08:56:44.986Z</time></trkpt><trkpt lat="44.224615" lon="8.3374517"><ele>289.0</ele><time>2026-05-03T08:56:45.985Z</time></trkpt><trkpt lat="44.2245133" lon="8.337485"><ele>289.0</ele><time>2026-05-03T08:56:46.986Z</time></trkpt><trkpt lat="44.2244283" lon="8.3375417"><ele>288.66666666666663</ele><time>2026-05-03T08:56:47.985Z</time></trkpt><trkpt lat="44.224355" lon="8.33761"><ele>288.3333333333333</ele><time>2026-05-03T08:56:48.985Z</time></trkpt><trkpt lat="44.224295" lon="8.3376467"><ele>288.0</ele><time>2026-05-03T08:56:49.985Z</time></trkpt><trkpt lat="44.2241967" lon="8.3376683"><ele>287.6666666666667</ele><time>2026-05-03T08:56:51.985Z</time></trkpt><trkpt lat="44.22416" lon="8.3375917"><ele>287.33333333333337</ele><time>2026-05-03T08:56:53.986Z</time></trkpt><trkpt lat="44.2242033" lon="8.3375183"><ele>287.0</ele><time>2026-05-03T08:56:54.985Z</time></trkpt><trkpt lat="44.2242917" lon="8.33744"><ele>287.0</ele><time>2026-05-03T08:56:55.986Z</time></trkpt><trkpt lat="44.2244" lon="8.3373617"><ele>287.0</ele><time>2026-05-03T08:56:56.986Z</time></trkpt><trkpt lat="44.2245067" lon="8.337305"><ele>287.0</ele><time>2026-05-03T08:56:57.986Z</time></trkpt><trkpt lat="44.2246117" lon="8.33726"><ele>287.0</ele><time>2026-05-03T08:56:58.985Z</time></trkpt><trkpt lat="44.2247067" lon="8.33725"><ele>287.0</ele><time>2026-05-03T08:56:59.986Z</time></trkpt><trkpt lat="44.224795" lon="8.3372367"><ele>287.33333333333337</ele><time>2026-05-03T08:57:00.985Z</time></trkpt><trkpt lat="44.2248833" lon="8.3372283"><ele>287.6666666666667</ele><time>2026-05-03T08:57:01.986Z</time></trkpt><trkpt lat="44.2249583" lon="8.3372017"><ele>288.0</ele><time>2026-05-03T08:57:02.985Z</time></trkpt><trkpt lat="44.225025" lon="8.337165"><ele>288.3333333333333</ele><time>2026-05-03T08:57:03.985Z</time></trkpt><trkpt lat="44.22509" lon="8.337095"><ele>288.66666666666663</ele><time>2026-05-03T08:57:04.986Z</time></trkpt><trkpt lat="44.2251517" lon="8.3369983"><ele>289.0</ele><time>2026-05-03T08:57:05.985Z</time></trkpt><trkpt lat="44.2252133" lon="8.3368783"><ele>283.25</ele><time>2026-05-03T08:57:06.985Z</time></trkpt><trkpt lat="44.2252683" lon="8.33674"><ele>277.5</ele><time>2026-05-03T08:57:07.985Z</time></trkpt><trkpt lat="44.2253083" lon="8.336585"><ele>271.75</ele><time>2026-05-03T08:57:08.986Z</time></trkpt><trkpt lat="44.2253467" lon="8.336425"><ele>266.0</ele><time>2026-05-03T08:57:09.985Z</time></trkpt><trkpt lat="44.2254017" lon="8.3362883"><ele>263.6</ele><time>2026-05-03T08:57:10.986Z</time></trkpt><trkpt lat="44.22544" lon="8.3361517"><ele>261.20000000000005</ele><time>2026-05-03T08:57:11.986Z</time></trkpt><trkpt lat="44.2254417" lon="8.3360233"><ele>258.79999999999995</ele><time>2026-05-03T08:57:12.985Z</time></trkpt><trkpt lat="44.2254467" lon="8.3358883"><ele>256.4</ele><time>2026-05-03T08:57:13.986Z</time></trkpt><trkpt lat="44.2254267" lon="8.3357567"><ele>254.0</ele><time>2026-05-03T08:57:14.986Z</time></trkpt><trkpt lat="44.2253883" lon="8.33561"><ele>253.75</ele><time>2026-05-03T08:57:15.985Z</time></trkpt><trkpt lat="44.2253483" lon="8.3354583"><ele>253.5</ele><time>2026-05-03T08:57:16.986Z</time></trkpt><trkpt lat="44.225305" lon="8.3353017"><ele>253.25</ele><time>2026-05-03T08:57:17.985Z</time></trkpt><trkpt lat="44.22527" lon="8.3351533"><ele>253.0</ele><time>2026-05-03T08:57:18.985Z</time></trkpt><trkpt lat="44.225255" lon="8.3350083"><ele>253.0</ele><time>2026-05-03T08:57:19.985Z</time></trkpt><trkpt lat="44.2252317" lon="8.3348733"><ele>253.0</ele><time>2026-05-03T08:57:20.985Z</time></trkpt><trkpt lat="44.2252" lon="8.3347483"><ele>253.0</ele><time>2026-05-03T08:57:21.985Z</time></trkpt><trkpt lat="44.2251633" lon="8.334625"><ele>253.0</ele><time>2026-05-03T08:57:22.985Z</time></trkpt><trkpt lat="44.225115" lon="8.33451"><ele>253.0</ele><time>2026-05-03T08:57:23.985Z</time></trkpt><trkpt lat="44.22507" lon="8.3343917"><ele>252.66666666666666</ele><time>2026-05-03T08:57:24.985Z</time></trkpt><trkpt lat="44.225035" lon="8.334265"><ele>252.33333333333331</ele><time>2026-05-03T08:57:25.986Z</time></trkpt><trkpt lat="44.225015" lon="8.3341483"><ele>252.0</ele><time>2026-05-03T08:57:26.985Z</time></trkpt><trkpt lat="44.2250067" lon="8.3340417"><ele>251.66666666666669</ele><time>2026-05-03T08:57:27.985Z</time></trkpt><trkpt lat="44.2250183" lon="8.333935"><ele>251.33333333333334</ele><time>2026-05-03T08:57:28.986Z</time></trkpt><trkpt lat="44.2250483" lon="8.3338233"><ele>251.0</ele><time>2026-05-03T08:57:29.985Z</time></trkpt><trkpt lat="44.2250933" lon="8.3337133"><ele>248.8</ele><time>2026-05-03T08:57:30.985Z</time></trkpt><trkpt lat="44.2251417" lon="8.33361"><ele>246.60000000000002</ele><time>2026-05-03T08:57:31.986Z</time></trkpt><trkpt lat="44.2252033" lon="8.3335067"><ele>244.4</ele><time>2026-05-03T08:57:32.986Z</time></trkpt><trkpt lat="44.22529" lon="8.3334183"><ele>242.2</ele><time>2026-05-03T08:57:33.985Z</time></trkpt><trkpt lat="44.225355" lon="8.3333283"><ele>240.0</ele><time>2026-05-03T08:57:34.985Z</time></trkpt><trkpt lat="44.2254083" lon="8.3332517"><ele>240.0</ele><time>2026-05-03T08:57:35.986Z</time></trkpt><trkpt lat="44.22545" lon="8.3331633"><ele>240.0</ele><time>2026-05-03T08:57:36.986Z</time></trkpt><trkpt lat="44.2254817" lon="8.3330667"><ele>240.0</ele><time>2026-05-03T08:57:37.986Z</time></trkpt><trkpt lat="44.2254983" lon="8.3329567"><ele>240.0</ele><time>2026-05-03T08:57:38.986Z</time></trkpt><trkpt lat="44.2254933" lon="8.3328367"><ele>240.0</ele><time>2026-05-03T08:57:39.985Z</time></trkpt><trkpt lat="44.2254783" lon="8.3327217"><ele>240.0</ele><time>2026-05-03T08:57:40.985Z</time></trkpt><trkpt lat="44.2254383" lon="8.3325917"><ele>239.75</ele><time>2026-05-03T08:57:41.986Z</time></trkpt><trkpt lat="44.2253683" lon="8.3324767"><ele>239.5</ele><time>2026-05-03T08:57:42.985Z</time></trkpt><trkpt lat="44.2252833" lon="8.3323633"><ele>239.25</ele><time>2026-05-03T08:57:43.986Z</time></trkpt><trkpt lat="44.2251917" lon="8.332245"><ele>239.0</ele><time>2026-05-03T08:57:44.985Z</time></trkpt><trkpt lat="44.2250967" lon="8.3321467"><ele>240.5</ele><time>2026-05-03T08:57:45.985Z</time></trkpt><trkpt lat="44.2250033" lon="8.3320467"><ele>242.0</ele><time>2026-05-03T08:57:46.985Z</time></trkpt><trkpt lat="44.22491" lon="8.3319467"><ele>243.5</ele><time>2026-05-03T08:57:47.985Z</time></trkpt><trkpt lat="44.2248217" lon="8.331835"><ele>245.0</ele><time>2026-05-03T08:57:48.985Z</time></trkpt><trkpt lat="44.2247383" lon="8.3317383"><ele>241.6</ele><time>2026-05-03T08:57:49.986Z</time></trkpt><trkpt lat="44.2246533" lon="8.331635"><ele>238.2</ele><time>2026-05-03T08:57:50.986Z</time></trkpt><trkpt lat="44.2245733" lon="8.3315467"><ele>234.8</ele><time>2026-05-03T08:57:51.985Z</time></trkpt><trkpt lat="44.2244817" lon="8.3314683"><ele>231.4</ele><time>2026-05-03T08:57:52.986Z</time></trkpt><trkpt lat="44.2243817" lon="8.3314083"><ele>228.0</ele><time>2026-05-03T08:57:53.986Z</time></trkpt><trkpt lat="44.2242733" lon="8.3313583"><ele>228.0</ele><time>2026-05-03T08:57:54.985Z</time></trkpt><trkpt lat="44.2241683" lon="8.3313283"><ele>228.0</ele><time>2026-05-03T08:57:55.985Z</time></trkpt><trkpt lat="44.2240633" lon="8.3313083"><ele>228.0</ele><time>2026-05-03T08:57:56.986Z</time></trkpt><trkpt lat="44.2239617" lon="8.3312733"><ele>228.0</ele><time>2026-05-03T08:57:57.986Z</time></trkpt><trkpt lat="44.2238683" lon="8.3312367"><ele>228.0</ele><time>2026-05-03T08:57:58.985Z</time></trkpt><trkpt lat="44.223775" lon="8.331195"><ele>226.16666666666666</ele><time>2026-05-03T08:57:59.986Z</time></trkpt><trkpt lat="44.2236983" lon="8.33113"><ele>224.33333333333331</ele><time>2026-05-03T08:58:00.985Z</time></trkpt><trkpt lat="44.2236483" lon="8.331045"><ele>222.5</ele><time>2026-05-03T08:58:01.985Z</time></trkpt><trkpt lat="44.2236217" lon="8.3309633"><ele>220.66666666666666</ele><time>2026-05-03T08:58:02.985Z</time></trkpt><trkpt lat="44.2236233" lon="8.3308733"><ele>218.83333333333331</ele><time>2026-05-03T08:58:03.985Z</time></trkpt><trkpt lat="44.2236767" lon="8.3307783"><ele>217.0</ele><time>2026-05-03T08:58:04.985Z</time></trkpt><trkpt lat="44.223765" lon="8.33069"><ele>217.0</ele><time>2026-05-03T08:58:05.986Z</time></trkpt><trkpt lat="44.2238533" lon="8.3306183"><ele>217.0</ele><time>2026-05-03T08:58:06.985Z</time></trkpt><trkpt lat="44.22397" lon="8.3305683"><ele>217.0</ele><time>2026-05-03T08:58:07.985Z</time></trkpt><trkpt lat="44.2240933" lon="8.3305367"><ele>217.0</ele><time>2026-05-03T08:58:08.985Z</time></trkpt><trkpt lat="44.22424" lon="8.33054"><ele>219.75</ele><time>2026-05-03T08:58:09.986Z</time></trkpt><trkpt lat="44.2243683" lon="8.33057"><ele>222.5</ele><time>2026-05-03T08:58:10.986Z</time></trkpt><trkpt lat="44.2244967" lon="8.3306017"><ele>225.25</ele><time>2026-05-03T08:58:11.985Z</time></trkpt><trkpt lat="44.22463" lon="8.330625"><ele>228.0</ele><time>2026-05-03T08:58:12.985Z</time></trkpt><trkpt lat="44.22477" lon="8.3306383"><ele>227.5</ele><time>2026-05-03T08:58:13.985Z</time></trkpt><trkpt lat="44.2249133" lon="8.3306483"><ele>227.0</ele><time>2026-05-03T08:58:14.985Z</time></trkpt><trkpt lat="44.225045" lon="8.330665"><ele>226.5</ele><time>2026-05-03T08:58:15.984Z</time></trkpt><trkpt lat="44.22517" lon="8.3306633"><ele>226.0</ele><time>2026-05-03T08:58:16.984Z</time></trkpt><trkpt lat="44.2252967" lon="8.3306617"><ele>226.0</ele><time>2026-05-03T08:58:17.984Z</time></trkpt><trkpt lat="44.2254217" lon="8.33067"><ele>226.0</ele><time>2026-05-03T08:58:18.984Z</time></trkpt><trkpt lat="44.2255383" lon="8.3306667"><ele>226.0</ele><time>2026-05-03T08:58:19.984Z</time></trkpt><trkpt lat="44.2256467" lon="8.3306883"><ele>226.0</ele><time>2026-05-03T08:58:20.984Z</time></trkpt><trkpt lat="44.2257517" lon="8.3307083"><ele>224.20000000000002</ele><time>2026-05-03T08:58:21.984Z</time></trkpt><trkpt lat="44.2258483" lon="8.3307267"><ele>222.40000000000003</ele><time>2026-05-03T08:58:22.984Z</time></trkpt><trkpt lat="44.225945" lon="8.3307517"><ele>220.6</ele><time>2026-05-03T08:58:23.984Z</time></trkpt><trkpt lat="44.2260483" lon="8.33077"><ele>218.8</ele><time>2026-05-03T08:58:24.985Z</time></trkpt><trkpt lat="44.2261433" lon="8.3307967"><ele>217.0</ele><time>2026-05-03T08:58:25.984Z</time></trkpt><trkpt lat="44.2262233" lon="8.330825"><ele>217.0</ele><time>2026-05-03T08:58:26.984Z</time></trkpt><trkpt lat="44.2263133" lon="8.3308267"><ele>217.0</ele><time>2026-05-03T08:58:27.985Z</time></trkpt><trkpt lat="44.2264033" lon="8.3308017"><ele>217.0</ele><time>2026-05-03T08:58:28.984Z</time></trkpt><trkpt lat="44.2264933" lon="8.3307567"><ele>217.0</ele><time>2026-05-03T08:58:29.984Z</time></trkpt><trkpt lat="44.2265783" lon="8.3306867"><ele>217.0</ele><time>2026-05-03T08:58:30.984Z</time></trkpt><trkpt lat="44.2266567" lon="8.3305967"><ele>215.2</ele><time>2026-05-03T08:58:31.984Z</time></trkpt><trkpt lat="44.2267333" lon="8.33051"><ele>213.39999999999998</ele><time>2026-05-03T08:58:32.984Z</time></trkpt><trkpt lat="44.2268067" lon="8.3304133"><ele>211.60000000000002</ele><time>2026-05-03T08:58:33.985Z</time></trkpt><trkpt lat="44.22687" lon="8.3303217"><ele>209.8</ele><time>2026-05-03T08:58:34.984Z</time></trkpt><trkpt lat="44.2269217" lon="8.3302183"><ele>208.0</ele><time>2026-05-03T08:58:35.984Z</time></trkpt><trkpt lat="44.2269533" lon="8.3301233"><ele>207.99999999999997</ele><time>2026-05-03T08:58:36.985Z</time></trkpt><trkpt lat="44.2269583" lon="8.3300233"><ele>208.0</ele><time>2026-05-03T08:58:37.984Z</time></trkpt><trkpt lat="44.2269267" lon="8.3299317"><ele>208.0</ele><time>2026-05-03T08:58:38.984Z</time></trkpt><trkpt lat="44.226875" lon="8.3298733"><ele>208.0</ele><time>2026-05-03T08:58:39.985Z</time></trkpt><trkpt lat="44.22682" lon="8.329825"><ele>207.99999999999997</ele><time>2026-05-03T08:58:40.984Z</time></trkpt><trkpt lat="44.2267383" lon="8.3298083"><ele>208.0</ele><time>2026-05-03T08:58:41.985Z</time></trkpt><trkpt lat="44.2266217" lon="8.3298167"><ele>208.0</ele><time>2026-05-03T08:58:42.985Z</time></trkpt><trkpt lat="44.2264817" lon="8.3298367"><ele>208.0</ele><time>2026-05-03T08:58:43.984Z</time></trkpt><trkpt lat="44.226345" lon="8.3298567"><ele>208.0</ele><time>2026-05-03T08:58:44.984Z</time></trkpt><trkpt lat="44.22621" lon="8.3298483"><ele>208.0</ele><time>2026-05-03T08:58:45.984Z</time></trkpt><trkpt lat="44.2260767" lon="8.3298283"><ele>208.8</ele><time>2026-05-03T08:58:46.984Z</time></trkpt><trkpt lat="44.2259667" lon="8.3298033"><ele>209.60000000000002</ele><time>2026-05-03T08:58:47.985Z</time></trkpt><trkpt lat="44.2258617" lon="8.3297767"><ele>210.39999999999998</ele><time>2026-05-03T08:58:48.985Z</time></trkpt><trkpt lat="44.2257617" lon="8.329735"><ele>211.2</ele><time>2026-05-03T08:58:49.985Z</time></trkpt><trkpt lat="44.2256733" lon="8.32968"><ele>212.0</ele><time>2026-05-03T08:58:50.984Z</time></trkpt><trkpt lat="44.225595" lon="8.3295833"><ele>205.75</ele><time>2026-05-03T08:58:51.984Z</time></trkpt><trkpt lat="44.2255167" lon="8.3294733"><ele>199.5</ele><time>2026-05-03T08:58:52.984Z</time></trkpt><trkpt lat="44.2254367" lon="8.3293433"><ele>193.25</ele><time>2026-05-03T08:58:53.985Z</time></trkpt><trkpt lat="44.2253533" lon="8.3292217"><ele>187.0</ele><time>2026-05-03T08:58:54.984Z</time></trkpt><trkpt lat="44.2252717" lon="8.3291183"><ele>187.0</ele><time>2026-05-03T08:58:55.985Z</time></trkpt><trkpt lat="44.22519" lon="8.3290117"><ele>187.0</ele><time>2026-05-03T08:58:56.984Z</time></trkpt><trkpt lat="44.2251083" lon="8.328905"><ele>187.0</ele><time>2026-05-03T08:58:57.984Z</time></trkpt><trkpt lat="44.225015" lon="8.3288233"><ele>187.0</ele><time>2026-05-03T08:58:58.985Z</time></trkpt><trkpt lat="44.2249367" lon="8.32872"><ele>187.0</ele><time>2026-05-03T08:58:59.984Z</time></trkpt><trkpt lat="44.2248383" lon="8.3286467"><ele>187.6</ele><time>2026-05-03T08:59:00.984Z</time></trkpt><trkpt lat="44.2247317" lon="8.3286067"><ele>188.2</ele><time>2026-05-03T08:59:01.984Z</time></trkpt><trkpt lat="44.2246233" lon="8.328595"><ele>188.8</ele><time>2026-05-03T08:59:02.984Z</time></trkpt><trkpt lat="44.224515" lon="8.3285933"><ele>189.4</ele><time>2026-05-03T08:59:03.985Z</time></trkpt><trkpt lat="44.2244067" lon="8.3285867"><ele>190.0</ele><time>2026-05-03T08:59:04.984Z</time></trkpt><trkpt lat="44.224305" lon="8.3285833"><ele>190.0</ele><time>2026-05-03T08:59:05.984Z</time></trkpt><trkpt lat="44.22421" lon="8.328575"><ele>190.0</ele><time>2026-05-03T08:59:06.984Z</time></trkpt><trkpt lat="44.22412" lon="8.3285583"><ele>190.0</ele><time>2026-05-03T08:59:07.985Z</time></trkpt><trkpt lat="44.2240317" lon="8.328525"><ele>190.0</ele><time>2026-05-03T08:59:08.984Z</time></trkpt><trkpt lat="44.2239383" lon="8.3284633"><ele>190.0</ele><time>2026-05-03T08:59:09.985Z</time></trkpt><trkpt lat="44.2238467" lon="8.3283767"><ele>189.0</ele><time>2026-05-03T08:59:10.984Z</time></trkpt><trkpt lat="44.223765" lon="8.3282967"><ele>188.0</ele><time>2026-05-03T08:59:11.985Z</time></trkpt><trkpt lat="44.223695" lon="8.3282067"><ele>187.0</ele><time>2026-05-03T08:59:12.985Z</time></trkpt><trkpt lat="44.2236217" lon="8.3280983"><ele>186.0</ele><time>2026-05-03T08:59:13.985Z</time></trkpt><trkpt lat="44.22355" lon="8.3279867"><ele>185.0</ele><time>2026-05-03T08:59:14.984Z</time></trkpt><trkpt lat="44.2234983" lon="8.32788"><ele>185.0</ele><time>2026-05-03T08:59:15.985Z</time></trkpt><trkpt lat="44.22345" lon="8.3277717"><ele>185.0</ele><time>2026-05-03T08:59:16.984Z</time></trkpt><trkpt lat="44.2234267" lon="8.3276617"><ele>185.0</ele><time>2026-05-03T08:59:17.984Z</time></trkpt><trkpt lat="44.2233467" lon="8.3275517"><ele>185.0</ele><time>2026-05-03T08:59:19.985Z</time></trkpt><trkpt lat="44.2232367" lon="8.3274733"><ele>185.0</ele><time>2026-05-03T08:59:21.984Z</time></trkpt><trkpt lat="44.223165" lon="8.3274467"><ele>183.0</ele><time>2026-05-03T08:59:22.984Z</time></trkpt><trkpt lat="44.223085" lon="8.3274"><ele>181.0</ele><time>2026-05-03T08:59:23.984Z</time></trkpt><trkpt lat="44.2229933" lon="8.3273183"><ele>179.0</ele><time>2026-05-03T08:59:24.984Z</time></trkpt><trkpt lat="44.22291" lon="8.3272333"><ele>177.0</ele><time>2026-05-03T08:59:25.984Z</time></trkpt><trkpt lat="44.2228383" lon="8.3271433"><ele>175.0</ele><time>2026-05-03T08:59:26.984Z</time></trkpt><trkpt lat="44.22277" lon="8.3270383"><ele>175.0</ele><time>2026-05-03T08:59:27.984Z</time></trkpt><trkpt lat="44.2227133" lon="8.3269333"><ele>175.0</ele><time>2026-05-03T08:59:28.984Z</time></trkpt><trkpt lat="44.2226583" lon="8.32682"><ele>175.0</ele><time>2026-05-03T08:59:29.984Z</time></trkpt><trkpt lat="44.2225967" lon="8.3267467"><ele>175.0</ele><time>2026-05-03T08:59:30.985Z</time></trkpt><trkpt lat="44.2224883" lon="8.32672"><ele>175.0</ele><time>2026-05-03T08:59:32.984Z</time></trkpt><trkpt lat="44.222415" lon="8.3268233"><ele>175.0</ele><time>2026-05-03T08:59:34.984Z</time></trkpt><trkpt lat="44.22244" lon="8.327005"><ele>175.0</ele><time>2026-05-03T08:59:36.985Z</time></trkpt><trkpt lat="44.2225" lon="8.3271017"><ele>175.0</ele><time>2026-05-03T08:59:37.984Z</time></trkpt><trkpt lat="44.222585" lon="8.3272033"><ele>175.0</ele><time>2026-05-03T08:59:38.984Z</time></trkpt><trkpt lat="44.222665" lon="8.3273117"><ele>175.0</ele><time>2026-05-03T08:59:39.984Z</time></trkpt><trkpt lat="44.22274" lon="8.327415"><ele>173.33333333333334</ele><time>2026-05-03T08:59:40.984Z</time></trkpt><trkpt lat="44.2227933" lon="8.3275"><ele>171.66666666666669</ele><time>2026-05-03T08:59:41.984Z</time></trkpt><trkpt lat="44.2228567" lon="8.327625"><ele>170.0</ele><time>2026-05-03T08:59:43.984Z</time></trkpt><trkpt lat="44.2228417" lon="8.3277317"><ele>168.33333333333334</ele><time>2026-05-03T08:59:45.984Z</time></trkpt><trkpt lat="44.2227667" lon="8.327755"><ele>166.66666666666666</ele><time>2026-05-03T08:59:47.985Z</time></trkpt><trkpt lat="44.222685" lon="8.3277033"><ele>165.0</ele><time>2026-05-03T08:59:48.985Z</time></trkpt><trkpt lat="44.222595" lon="8.327615"><ele>165.0</ele><time>2026-05-03T08:59:49.984Z</time></trkpt><trkpt lat="44.2224967" lon="8.3274967"><ele>165.0</ele><time>2026-05-03T08:59:50.984Z</time></trkpt><trkpt lat="44.2224183" lon="8.3273867"><ele>165.0</ele><time>2026-05-03T08:59:51.984Z</time></trkpt><trkpt lat="44.2223467" lon="8.3272917"><ele>165.0</ele><time>2026-05-03T08:59:52.985Z</time></trkpt><trkpt lat="44.2222733" lon="8.327215"><ele>165.0</ele><time>2026-05-03T08:59:53.984Z</time></trkpt><trkpt lat="44.22219" lon="8.3271633"><ele>163.83333333333334</ele><time>2026-05-03T08:59:54.984Z</time></trkpt><trkpt lat="44.22211" lon="8.32714"><ele>162.66666666666666</ele><time>2026-05-03T08:59:55.985Z</time></trkpt><trkpt lat="44.22203" lon="8.3271417"><ele>161.5</ele><time>2026-05-03T08:59:56.984Z</time></trkpt><trkpt lat="44.2219483" lon="8.32715"><ele>160.33333333333331</ele><time>2026-05-03T08:59:57.984Z</time></trkpt><trkpt lat="44.221865" lon="8.3271583"><ele>159.16666666666666</ele><time>2026-05-03T08:59:58.984Z</time></trkpt><trkpt lat="44.2217783" lon="8.3271583"><ele>158.0</ele><time>2026-05-03T08:59:59.984Z</time></trkpt><trkpt lat="44.2216933" lon="8.32713"><ele>158.0</ele><time>2026-05-03T09:00:00.984Z</time></trkpt><trkpt lat="44.2216133" lon="8.3270717"><ele>158.0</ele><time>2026-05-03T09:00:01.985Z</time></trkpt><trkpt lat="44.2215517" lon="8.326965"><ele>158.0</ele><time>2026-05-03T09:00:02.984Z</time></trkpt><trkpt lat="44.221485" lon="8.3268417"><ele>158.0</ele><time>2026-05-03T09:00:03.984Z</time></trkpt><trkpt lat="44.2214233" lon="8.32672"><ele>158.0</ele><time>2026-05-03T09:00:04.985Z</time></trkpt><trkpt lat="44.2213583" lon="8.32659"><ele>158.0</ele><time>2026-05-03T09:00:05.985Z</time></trkpt><trkpt lat="44.221305" lon="8.32647"><ele>158.0</ele><time>2026-05-03T09:00:06.985Z</time></trkpt><trkpt lat="44.2212517" lon="8.3263517"><ele>158.0</ele><time>2026-05-03T09:00:07.984Z</time></trkpt><trkpt lat="44.221195" lon="8.3262283"><ele>158.0</ele><time>2026-05-03T09:00:08.984Z</time></trkpt><trkpt lat="44.22113" lon="8.3261267"><ele>158.0</ele><time>2026-05-03T09:00:09.984Z</time></trkpt><trkpt lat="44.2210617" lon="8.3260267"><ele>157.20000000000002</ele><time>2026-05-03T09:00:10.984Z</time></trkpt><trkpt lat="44.2209783" lon="8.325935"><ele>156.4</ele><time>2026-05-03T09:00:11.985Z</time></trkpt><trkpt lat="44.2208983" lon="8.3258417"><ele>155.60000000000002</ele><time>2026-05-03T09:00:12.984Z</time></trkpt><trkpt lat="44.220825" lon="8.3257383"><ele>154.8</ele><time>2026-05-03T09:00:13.984Z</time></trkpt><trkpt lat="44.2207417" lon="8.3256417"><ele>154.0</ele><time>2026-05-03T09:00:14.985Z</time></trkpt><trkpt lat="44.2206683" lon="8.3255483"><ele>153.0</ele><time>2026-05-03T09:00:15.984Z</time></trkpt><trkpt lat="44.2205933" lon="8.3254583"><ele>152.0</ele><time>2026-05-03T09:00:16.984Z</time></trkpt><trkpt lat="44.2205217" lon="8.325385"><ele>151.0</ele><time>2026-05-03T09:00:17.984Z</time></trkpt><trkpt lat="44.220455" lon="8.3253133"><ele>150.0</ele><time>2026-05-03T09:00:18.985Z</time></trkpt><trkpt lat="44.2203767" lon="8.325255"><ele>149.0</ele><time>2026-05-03T09:00:19.984Z</time></trkpt><trkpt lat="44.2202917" lon="8.3252217"><ele>148.0</ele><time>2026-05-03T09:00:20.985Z</time></trkpt><trkpt lat="44.2202083" lon="8.325205"><ele>148.0</ele><time>2026-05-03T09:00:21.984Z</time></trkpt><trkpt lat="44.2201133" lon="8.325215"><ele>148.0</ele><time>2026-05-03T09:00:22.984Z</time></trkpt><trkpt lat="44.2200117" lon="8.325245"><ele>148.0</ele><time>2026-05-03T09:00:23.985Z</time></trkpt><trkpt lat="44.2199133" lon="8.3252433"><ele>148.0</ele><time>2026-05-03T09:00:24.984Z</time></trkpt><trkpt lat="44.21981" lon="8.3252617"><ele>148.0</ele><time>2026-05-03T09:00:25.984Z</time></trkpt><trkpt lat="44.2197067" lon="8.325275"><ele>146.6</ele><time>2026-05-03T09:00:26.984Z</time></trkpt><trkpt lat="44.2196033" lon="8.3252867"><ele>145.20000000000002</ele><time>2026-05-03T09:00:27.985Z</time></trkpt><trkpt lat="44.2195" lon="8.3252883"><ele>143.8</ele><time>2026-05-03T09:00:28.985Z</time></trkpt><trkpt lat="44.2194083" lon="8.3252817"><ele>142.4</ele><time>2026-05-03T09:00:29.985Z</time></trkpt><trkpt lat="44.2193133" lon="8.32528"><ele>141.0</ele><time>2026-05-03T09:00:30.985Z</time></trkpt><trkpt lat="44.2192217" lon="8.32528"><ele>141.0</ele><time>2026-05-03T09:00:31.984Z</time></trkpt><trkpt lat="44.2191333" lon="8.3252817"><ele>141.0</ele><time>2026-05-03T09:00:32.985Z</time></trkpt><trkpt lat="44.21905" lon="8.3252933"><ele>141.0</ele><time>2026-05-03T09:00:33.984Z</time></trkpt><trkpt lat="44.21897" lon="8.3253283"><ele>141.0</ele><time>2026-05-03T09:00:34.984Z</time></trkpt><trkpt lat="44.2188933" lon="8.32536"><ele>141.0</ele><time>2026-05-03T09:00:35.985Z</time></trkpt><trkpt lat="44.2188267" lon="8.32539"><ele>141.0</ele><time>2026-05-03T09:00:36.984Z</time></trkpt><trkpt lat="44.2187217" lon="8.3254283"><ele>140.8</ele><time>2026-05-03T09:00:38.984Z</time></trkpt><trkpt lat="44.2186033" lon="8.3254117"><ele>140.6</ele><time>2026-05-03T09:00:40.984Z</time></trkpt><trkpt lat="44.2185367" lon="8.325375"><ele>140.4</ele><time>2026-05-03T09:00:41.984Z</time></trkpt><trkpt lat="44.21847" lon="8.3252333"><ele>140.2</ele><time>2026-05-03T09:00:43.984Z</time></trkpt><trkpt lat="44.2184533" lon="8.325135"><ele>140.0</ele><time>2026-05-03T09:00:44.985Z</time></trkpt><trkpt lat="44.218445" lon="8.3250317"><ele>140.0</ele><time>2026-05-03T09:00:45.985Z</time></trkpt><trkpt lat="44.2184367" lon="8.3249367"><ele>140.0</ele><time>2026-05-03T09:00:46.984Z</time></trkpt><trkpt lat="44.2184133" lon="8.3247933"><ele>140.0</ele><time>2026-05-03T09:00:48.985Z</time></trkpt><trkpt lat="44.2184267" lon="8.3247017"><ele>140.0</ele><time>2026-05-03T09:00:49.985Z</time></trkpt><trkpt lat="44.2184433" lon="8.3245983"><ele>140.0</ele><time>2026-05-03T09:00:50.984Z</time></trkpt><trkpt lat="44.2184417" lon="8.3245033"><ele>140.0</ele><time>2026-05-03T09:00:51.985Z</time></trkpt><trkpt lat="44.218385" lon="8.3243533"><ele>140.6</ele><time>2026-05-03T09:00:53.984Z</time></trkpt><trkpt lat="44.21839" lon="8.3241983"><ele>141.2</ele><time>2026-05-03T09:00:55.984Z</time></trkpt><trkpt lat="44.218385" lon="8.3240833"><ele>141.8</ele><time>2026-05-03T09:00:57.985Z</time></trkpt><trkpt lat="44.2183967" lon="8.3239783"><ele>142.4</ele><time>2026-05-03T09:01:00.984Z</time></trkpt><trkpt lat="44.2183567" lon="8.32386"><ele>143.0</ele><time>2026-05-03T09:01:09.984Z</time></trkpt><trkpt lat="44.2183183" lon="8.323745"><ele>143.0</ele><time>2026-05-03T09:01:11.984Z</time></trkpt><trkpt lat="44.21831" lon="8.3235533"><ele>143.0</ele><time>2026-05-03T09:01:13.984Z</time></trkpt><trkpt lat="44.2183117" lon="8.3234367"><ele>143.0</ele><time>2026-05-03T09:01:14.984Z</time></trkpt><trkpt lat="44.218315" lon="8.3233117"><ele>143.0</ele><time>2026-05-03T09:01:15.984Z</time></trkpt><trkpt lat="44.2183233" lon="8.3231833"><ele>143.0</ele><time>2026-05-03T09:01:16.984Z</time></trkpt><trkpt lat="44.2183417" lon="8.3230533"><ele>144.33333333333331</ele><time>2026-05-03T09:01:17.984Z</time></trkpt><trkpt lat="44.2183683" lon="8.3229267"><ele>145.66666666666666</ele><time>2026-05-03T09:01:18.985Z</time></trkpt><trkpt lat="44.21839" lon="8.3228317"><ele>147.0</ele><time>2026-05-03T09:01:19.984Z</time></trkpt><trkpt lat="44.2184317" lon="8.322755"><ele>148.33333333333334</ele><time>2026-05-03T09:01:20.984Z</time></trkpt><trkpt lat="44.2184967" lon="8.3227083"><ele>149.66666666666669</ele><time>2026-05-03T09:01:21.984Z</time></trkpt><trkpt lat="44.2185717" lon="8.322675"><ele>151.0</ele><time>2026-05-03T09:01:22.984Z</time></trkpt><trkpt lat="44.21864" lon="8.3226383"><ele>151.0</ele><time>2026-05-03T09:01:23.984Z</time></trkpt><trkpt lat="44.2187017" lon="8.3226083"><ele>151.0</ele><time>2026-05-03T09:01:24.985Z</time></trkpt><trkpt lat="44.2187617" lon="8.3225217"><ele>151.0</ele><time>2026-05-03T09:01:26.984Z</time></trkpt><trkpt lat="44.21875" lon="8.3224167"><ele>151.0</ele><time>2026-05-03T09:01:28.984Z</time></trkpt><trkpt lat="44.2186383" lon="8.32241"><ele>151.0</ele><time>2026-05-03T09:01:30.985Z</time></trkpt><trkpt lat="44.2185717" lon="8.3224117"><ele>151.0</ele><time>2026-05-03T09:01:31.984Z</time></trkpt><trkpt lat="44.21845" lon="8.322385"><ele>151.0</ele><time>2026-05-03T09:01:33.984Z</time></trkpt><trkpt lat="44.218395" lon="8.3223417"><ele>151.0</ele><time>2026-05-03T09:01:34.985Z</time></trkpt><trkpt lat="44.218335" lon="8.322235"><ele>151.0</ele><time>2026-05-03T09:01:36.984Z</time></trkpt><trkpt lat="44.2183467" lon="8.3221433"><ele>151.0</ele><time>2026-05-03T09:01:38.985Z</time></trkpt><trkpt lat="44.2184167" lon="8.3221767"><ele>151.0</ele><time>2026-05-03T09:01:41.985Z</time></trkpt><trkpt lat="44.218485" lon="8.3222617"><ele>151.0</ele><time>2026-05-03T09:01:43.984Z</time></trkpt><trkpt lat="44.2186" lon="8.322265"><ele>151.0</ele><time>2026-05-03T09:01:45.984Z</time></trkpt><trkpt lat="44.21867" lon="8.32223"><ele>151.0</ele><time>2026-05-03T09:01:46.985Z</time></trkpt><trkpt lat="44.2187383" lon="8.3222267"><ele>151.0</ele><time>2026-05-03T09:01:47.985Z</time></trkpt><trkpt lat="44.2188067" lon="8.3222317"><ele>151.0</ele><time>2026-05-03T09:01:48.984Z</time></trkpt><trkpt lat="44.218875" lon="8.3222367"><ele>151.0</ele><time>2026-05-03T09:01:49.985Z</time></trkpt><trkpt lat="44.2189883" lon="8.3222433"><ele>151.0</ele><time>2026-05-03T09:01:51.984Z</time></trkpt><trkpt lat="44.2191033" lon="8.3221883"><ele>157.2</ele><time>2026-05-03T09:01:53.985Z</time></trkpt><trkpt lat="44.21923" lon="8.32213"><ele>163.39999999999998</ele><time>2026-05-03T09:01:55.984Z</time></trkpt><trkpt lat="44.21933" lon="8.32209"><ele>169.6</ele><time>2026-05-03T09:01:57.985Z</time></trkpt><trkpt lat="44.2194" lon="8.32205"><ele>175.79999999999998</ele><time>2026-05-03T09:01:59.984Z</time></trkpt><trkpt lat="44.2194717" lon="8.3220383"><ele>182.0</ele><time>2026-05-03T09:02:01.984Z</time></trkpt><trkpt lat="44.219545" lon="8.3220317"><ele>182.0</ele><time>2026-05-03T09:02:03.984Z</time></trkpt><trkpt lat="44.2196183" lon="8.3220267"><ele>182.0</ele><time>2026-05-03T09:02:05.984Z</time></trkpt><trkpt lat="44.2196233" lon="8.3219333"><ele>182.0</ele><time>2026-05-03T09:02:09.984Z</time></trkpt><trkpt lat="44.21955" lon="8.3219183"><ele>182.0</ele><time>2026-05-03T09:02:12.985Z</time></trkpt><trkpt lat="44.2194667" lon="8.3219283"><ele>182.0</ele><time>2026-05-03T09:02:14.984Z</time></trkpt><trkpt lat="44.21936" lon="8.321955"><ele>182.0</ele><time>2026-05-03T09:02:16.984Z</time></trkpt><trkpt lat="44.2192983" lon="8.3219733"><ele>182.0</ele><time>2026-05-03T09:02:17.984Z</time></trkpt><trkpt lat="44.2192233" lon="8.32199"><ele>182.0</ele><time>2026-05-03T09:02:18.984Z</time></trkpt><trkpt lat="44.21915" lon="8.3220067"><ele>182.0</ele><time>2026-05-03T09:02:19.984Z</time></trkpt><trkpt lat="44.2190783" lon="8.322025"><ele>182.0</ele><time>2026-05-03T09:02:20.985Z</time></trkpt><trkpt lat="44.218975" lon="8.321985"><ele>182.0</ele><time>2026-05-03T09:02:22.985Z</time></trkpt><trkpt lat="44.2189233" lon="8.3218383"><ele>182.0</ele><time>2026-05-03T09:02:24.985Z</time></trkpt><trkpt lat="44.2189583" lon="8.32171"><ele>182.0</ele><time>2026-05-03T09:02:26.984Z</time></trkpt><trkpt lat="44.2190617" lon="8.3216217"><ele>182.0</ele><time>2026-05-03T09:02:28.984Z</time></trkpt><trkpt lat="44.21918" lon="8.3216317"><ele>182.0</ele><time>2026-05-03T09:02:30.984Z</time></trkpt><trkpt lat="44.2192833" lon="8.3216967"><ele>182.0</ele><time>2026-05-03T09:02:32.984Z</time></trkpt><trkpt lat="44.219405" lon="8.3216867"><ele>182.0</ele><time>2026-05-03T09:02:34.985Z</time></trkpt><trkpt lat="44.2194667" lon="8.3216667"><ele>182.0</ele><time>2026-05-03T09:02:35.984Z</time></trkpt><trkpt lat="44.21954" lon="8.3216333"><ele>182.0</ele><time>2026-05-03T09:02:36.985Z</time></trkpt><trkpt lat="44.2196067" lon="8.32159"><ele>182.0</ele><time>2026-05-03T09:02:37.985Z</time></trkpt><trkpt lat="44.2196733" lon="8.3215333"><ele>182.0</ele><time>2026-05-03T09:02:38.984Z</time></trkpt><trkpt lat="44.2197417" lon="8.3214667"><ele>182.0</ele><time>2026-05-03T09:02:39.984Z</time></trkpt><trkpt lat="44.219805" lon="8.3214283"><ele>182.0</ele><time>2026-05-03T09:02:40.984Z</time></trkpt><trkpt lat="44.21987" lon="8.3214017"><ele>188.6</ele><time>2026-05-03T09:02:41.984Z</time></trkpt><trkpt lat="44.21999" lon="8.3213867"><ele>195.2</ele><time>2026-05-03T09:02:43.985Z</time></trkpt><trkpt lat="44.2200767" lon="8.32136"><ele>201.8</ele><time>2026-05-03T09:02:45.984Z</time></trkpt><trkpt lat="44.2201167" lon="8.3212683"><ele>208.4</ele><time>2026-05-03T09:02:48.984Z</time></trkpt><trkpt lat="44.2200233" lon="8.32122"><ele>215.0</ele><time>2026-05-03T09:02:50.984Z</time></trkpt><trkpt lat="44.2199483" lon="8.3212133"><ele>215.00000000000003</ele><time>2026-05-03T09:02:51.984Z</time></trkpt><trkpt lat="44.2198767" lon="8.32122"><ele>215.0</ele><time>2026-05-03T09:02:52.985Z</time></trkpt><trkpt lat="44.21981" lon="8.321245"><ele>215.0</ele><time>2026-05-03T09:02:53.984Z</time></trkpt><trkpt lat="44.2197467" lon="8.32128"><ele>215.0</ele><time>2026-05-03T09:02:54.984Z</time></trkpt><trkpt lat="44.2196317" lon="8.321335"><ele>215.00000000000003</ele><time>2026-05-03T09:02:56.984Z</time></trkpt><trkpt lat="44.2195183" lon="8.32133"><ele>215.0</ele><time>2026-05-03T09:02:58.984Z</time></trkpt><trkpt lat="44.21943" lon="8.32122"><ele>211.83333333333334</ele><time>2026-05-03T09:03:00.984Z</time></trkpt><trkpt lat="44.219375" lon="8.321085"><ele>208.66666666666669</ele><time>2026-05-03T09:03:02.984Z</time></trkpt><trkpt lat="44.2193633" lon="8.32095"><ele>205.5</ele><time>2026-05-03T09:03:04.985Z</time></trkpt><trkpt lat="44.21943" lon="8.320925"><ele>202.33333333333331</ele><time>2026-05-03T09:03:07.985Z</time></trkpt><trkpt lat="44.2194583" lon="8.3210383"><ele>199.16666666666666</ele><time>2026-05-03T09:03:09.985Z</time></trkpt><trkpt lat="44.2195117" lon="8.32111"><ele>196.0</ele><time>2026-05-03T09:03:11.984Z</time></trkpt><trkpt lat="44.2196" lon="8.3211117"><ele>196.0</ele><time>2026-05-03T09:03:13.985Z</time></trkpt><trkpt lat="44.219605" lon="8.3209933"><ele>196.0</ele><time>2026-05-03T09:03:16.984Z</time></trkpt><trkpt lat="44.219555" lon="8.3208867"><ele>196.0</ele><time>2026-05-03T09:03:18.985Z</time></trkpt><trkpt lat="44.21951" lon="8.320775"><ele>196.0</ele><time>2026-05-03T09:03:20.985Z</time></trkpt><trkpt lat="44.2195183" lon="8.3206083"><ele>196.0</ele><time>2026-05-03T09:03:22.985Z</time></trkpt><trkpt lat="44.2195517" lon="8.3205183"><ele>196.16666666666666</ele><time>2026-05-03T09:03:23.984Z</time></trkpt><trkpt lat="44.2195933" lon="8.3204333"><ele>196.33333333333331</ele><time>2026-05-03T09:03:24.984Z</time></trkpt><trkpt lat="44.2196367" lon="8.320355"><ele>196.5</ele><time>2026-05-03T09:03:25.985Z</time></trkpt><trkpt lat="44.2196883" lon="8.32027"><ele>196.66666666666669</ele><time>2026-05-03T09:03:26.984Z</time></trkpt><trkpt lat="44.21973" lon="8.3201733"><ele>196.83333333333334</ele><time>2026-05-03T09:03:27.985Z</time></trkpt><trkpt lat="44.2197667" lon="8.32007"><ele>197.0</ele><time>2026-05-03T09:03:28.984Z</time></trkpt><trkpt lat="44.2198117" lon="8.3199667"><ele>202.6</ele><time>2026-05-03T09:03:29.985Z</time></trkpt><trkpt lat="44.219855" lon="8.3198483"><ele>208.2</ele><time>2026-05-03T09:03:30.984Z</time></trkpt><trkpt lat="44.2198983" lon="8.3197283"><ele>213.8</ele><time>2026-05-03T09:03:31.984Z</time></trkpt><trkpt lat="44.2199283" lon="8.3196117"><ele>219.4</ele><time>2026-05-03T09:03:32.984Z</time></trkpt><trkpt lat="44.2199667" lon="8.3194733"><ele>225.0</ele><time>2026-05-03T09:03:33.985Z</time></trkpt><trkpt lat="44.22" lon="8.31936"><ele>225.66666666666666</ele><time>2026-05-03T09:03:34.985Z</time></trkpt><trkpt lat="44.22003" lon="8.3192567"><ele>226.33333333333331</ele><time>2026-05-03T09:03:35.984Z</time></trkpt><trkpt lat="44.2200633" lon="8.319155"><ele>227.0</ele><time>2026-05-03T09:03:36.984Z</time></trkpt><trkpt lat="44.2200867" lon="8.3190417"><ele>227.66666666666666</ele><time>2026-05-03T09:03:37.985Z</time></trkpt><trkpt lat="44.220085" lon="8.318925"><ele>228.33333333333331</ele><time>2026-05-03T09:03:38.985Z</time></trkpt><trkpt lat="44.2200583" lon="8.3188183"><ele>229.0</ele><time>2026-05-03T09:03:39.985Z</time></trkpt><trkpt lat="44.220005" lon="8.31872"><ele>231.16666666666666</ele><time>2026-05-03T09:03:40.984Z</time></trkpt><trkpt lat="44.2199533" lon="8.3186167"><ele>233.33333333333331</ele><time>2026-05-03T09:03:41.985Z</time></trkpt><trkpt lat="44.21992" lon="8.3185133"><ele>235.5</ele><time>2026-05-03T09:03:42.984Z</time></trkpt><trkpt lat="44.2199033" lon="8.3184017"><ele>237.66666666666669</ele><time>2026-05-03T09:03:43.984Z</time></trkpt><trkpt lat="44.2198817" lon="8.3182933"><ele>239.83333333333334</ele><time>2026-05-03T09:03:44.985Z</time></trkpt><trkpt lat="44.2198633" lon="8.3181867"><ele>242.0</ele><time>2026-05-03T09:03:45.984Z</time></trkpt><trkpt lat="44.2198417" lon="8.318095"><ele>242.00000000000003</ele><time>2026-05-03T09:03:46.985Z</time></trkpt><trkpt lat="44.21983" lon="8.3180067"><ele>242.0</ele><time>2026-05-03T09:03:47.984Z</time></trkpt><trkpt lat="44.2198367" lon="8.3178733"><ele>242.0</ele><time>2026-05-03T09:03:49.985Z</time></trkpt><trkpt lat="44.2199106" lon="8.3179178"><ele>242.0</ele><time>2026-05-03T09:03:53.984Z</time></trkpt><trkpt lat="44.2199293" lon="8.3180947"><ele>242.00000000000003</ele><time>2026-05-03T09:03:55.984Z</time></trkpt><trkpt lat="44.2199514" lon="8.3181807"><ele>242.0</ele><time>2026-05-03T09:03:56.985Z</time></trkpt><trkpt lat="44.2199889" lon="8.3182529"><ele>242.00000000000003</ele><time>2026-05-03T09:03:57.984Z</time></trkpt><trkpt lat="44.2200358" lon="8.3183184"><ele>242.0</ele><time>2026-05-03T09:03:58.984Z</time></trkpt><trkpt lat="44.2200855" lon="8.3183799"><ele>242.0</ele><time>2026-05-03T09:03:59.984Z</time></trkpt><trkpt lat="44.2201374" lon="8.3184406"><ele>242.0</ele><time>2026-05-03T09:04:00.985Z</time></trkpt><trkpt lat="44.2202311" lon="8.3185293"><ele>242.00000000000003</ele><time>2026-05-03T09:04:02.984Z</time></trkpt><trkpt lat="44.2203209" lon="8.3185634"><ele>242.0</ele><time>2026-05-03T09:04:04.985Z</time></trkpt><trkpt lat="44.2203401" lon="8.3184702"><ele>242.0</ele><time>2026-05-03T09:04:07.985Z</time></trkpt><trkpt lat="44.220285" lon="8.318402"><ele>242.0</ele><time>2026-05-03T09:04:08.985Z</time></trkpt><trkpt lat="44.2202173" lon="8.3182919"><ele>242.0</ele><time>2026-05-03T09:04:09.984Z</time></trkpt><trkpt lat="44.2201656" lon="8.3181664"><ele>242.0</ele><time>2026-05-03T09:04:10.984Z</time></trkpt><trkpt lat="44.220138" lon="8.3180416"><ele>242.0</ele><time>2026-05-03T09:04:11.984Z</time></trkpt><trkpt lat="44.2201258" lon="8.3179099"><ele>245.16666666666669</ele><time>2026-05-03T09:04:12.985Z</time></trkpt><trkpt lat="44.2201163" lon="8.3177914"><ele>248.33333333333334</ele><time>2026-05-03T09:04:13.984Z</time></trkpt><trkpt lat="44.2200997" lon="8.3176825"><ele>251.5</ele><time>2026-05-03T09:04:14.985Z</time></trkpt><trkpt lat="44.2200765" lon="8.3175831"><ele>254.66666666666669</ele><time>2026-05-03T09:04:15.984Z</time></trkpt><trkpt lat="44.2200505" lon="8.3175024"><ele>257.8333333333333</ele><time>2026-05-03T09:04:16.984Z</time></trkpt><trkpt lat="44.2200218" lon="8.3173791"><ele>261.0</ele><time>2026-05-03T09:04:18.984Z</time></trkpt><trkpt lat="44.2200527" lon="8.3172908"><ele>261.0</ele><time>2026-05-03T09:04:20.984Z</time></trkpt><trkpt lat="44.2201142" lon="8.3173203"><ele>261.0</ele><time>2026-05-03T09:04:22.984Z</time></trkpt><trkpt lat="44.2201587" lon="8.3173838"><ele>261.0</ele><time>2026-05-03T09:04:23.984Z</time></trkpt><trkpt lat="44.2202162" lon="8.3174457"><ele>261.0</ele><time>2026-05-03T09:04:24.984Z</time></trkpt><trkpt lat="44.2202844" lon="8.3174925"><ele>261.0</ele><time>2026-05-03T09:04:25.985Z</time></trkpt><trkpt lat="44.2203628" lon="8.3175433"><ele>261.0</ele><time>2026-05-03T09:04:26.984Z</time></trkpt><trkpt lat="44.2204425" lon="8.3175884"><ele>261.0</ele><time>2026-05-03T09:04:27.984Z</time></trkpt><trkpt lat="44.2205185" lon="8.3176252"><ele>261.0</ele><time>2026-05-03T09:04:28.984Z</time></trkpt><trkpt lat="44.2205898" lon="8.3176596"><ele>261.0</ele><time>2026-05-03T09:04:29.984Z</time></trkpt><trkpt lat="44.2206605" lon="8.3176903"><ele>261.0</ele><time>2026-05-03T09:04:30.984Z</time></trkpt><trkpt lat="44.2207303" lon="8.3177164"><ele>261.0</ele><time>2026-05-03T09:04:31.985Z</time></trkpt><trkpt lat="44.2208017" lon="8.3177318"><ele>261.0</ele><time>2026-05-03T09:04:32.984Z</time></trkpt><trkpt lat="44.2208766" lon="8.3177433"><ele>261.42857142857144</ele><time>2026-05-03T09:04:33.984Z</time></trkpt><trkpt lat="44.2209414" lon="8.3177613"><ele>261.85714285714283</ele><time>2026-05-03T09:04:34.984Z</time></trkpt><trkpt lat="44.2210001" lon="8.3177931"><ele>262.2857142857143</ele><time>2026-05-03T09:04:35.984Z</time></trkpt><trkpt lat="44.2210554" lon="8.3178508"><ele>262.7142857142857</ele><time>2026-05-03T09:04:36.985Z</time></trkpt><trkpt lat="44.2210951" lon="8.317935"><ele>263.14285714285717</ele><time>2026-05-03T09:04:37.985Z</time></trkpt><trkpt lat="44.2211263" lon="8.3180344"><ele>263.57142857142856</ele><time>2026-05-03T09:04:38.984Z</time></trkpt><trkpt lat="44.2211505" lon="8.3181481"><ele>264.0</ele><time>2026-05-03T09:04:39.985Z</time></trkpt><trkpt lat="44.221163" lon="8.3182707"><ele>264.0</ele><time>2026-05-03T09:04:40.984Z</time></trkpt><trkpt lat="44.2211692" lon="8.3183892"><ele>264.0</ele><time>2026-05-03T09:04:41.984Z</time></trkpt><trkpt lat="44.2211668" lon="8.3185032"><ele>264.0</ele><time>2026-05-03T09:04:42.984Z</time></trkpt><trkpt lat="44.2211644" lon="8.3186077"><ele>264.0</ele><time>2026-05-03T09:04:43.984Z</time></trkpt><trkpt lat="44.221185" lon="8.3187536"><ele>264.0</ele><time>2026-05-03T09:04:45.984Z</time></trkpt><trkpt lat="44.2212546" lon="8.3187963"><ele>264.0</ele><time>2026-05-03T09:04:47.985Z</time></trkpt><trkpt lat="44.2213431" lon="8.3187101"><ele>264.0</ele><time>2026-05-03T09:04:49.984Z</time></trkpt><trkpt lat="44.2213792" lon="8.3185992"><ele>264.0</ele><time>2026-05-03T09:04:50.984Z</time></trkpt><trkpt lat="44.2214034" lon="8.3184625"><ele>264.0</ele><time>2026-05-03T09:04:51.985Z</time></trkpt><trkpt lat="44.2214182" lon="8.3183353"><ele>264.0</ele><time>2026-05-03T09:04:52.984Z</time></trkpt><trkpt lat="44.2214301" lon="8.3182177"><ele>264.0</ele><time>2026-05-03T09:04:53.984Z</time></trkpt><trkpt lat="44.2214372" lon="8.3180959"><ele>266.2</ele><time>2026-05-03T09:04:54.984Z</time></trkpt><trkpt lat="44.2214307" lon="8.3179608"><ele>268.4</ele><time>2026-05-03T09:04:55.984Z</time></trkpt><trkpt lat="44.2214134" lon="8.3178191"><ele>270.6</ele><time>2026-05-03T09:04:56.985Z</time></trkpt><trkpt lat="44.2213921" lon="8.3176828"><ele>272.8</ele><time>2026-05-03T09:04:57.984Z</time></trkpt><trkpt lat="44.2213644" lon="8.3175496"><ele>275.0</ele><time>2026-05-03T09:04:58.984Z</time></trkpt><trkpt lat="44.2213306" lon="8.3174262"><ele>275.0</ele><time>2026-05-03T09:04:59.985Z</time></trkpt><trkpt lat="44.2212866" lon="8.3173084"><ele>275.0</ele><time>2026-05-03T09:05:00.985Z</time></trkpt><trkpt lat="44.2212275" lon="8.3172057"><ele>275.0</ele><time>2026-05-03T09:05:01.984Z</time></trkpt><trkpt lat="44.2211638" lon="8.317114"><ele>275.0</ele><time>2026-05-03T09:05:02.984Z</time></trkpt><trkpt lat="44.2210999" lon="8.3170373"><ele>275.0</ele><time>2026-05-03T09:05:03.984Z</time></trkpt><trkpt lat="44.2210368" lon="8.316972"><ele>275.0</ele><time>2026-05-03T09:05:04.985Z</time></trkpt><trkpt lat="44.2209641" lon="8.3169308"><ele>275.6666666666667</ele><time>2026-05-03T09:05:05.984Z</time></trkpt><trkpt lat="44.2208772" lon="8.316903"><ele>276.33333333333337</ele><time>2026-05-03T09:05:06.984Z</time></trkpt><trkpt lat="44.22079" lon="8.3168662"><ele>277.0</ele><time>2026-05-03T09:05:07.984Z</time></trkpt><trkpt lat="44.2207064" lon="8.3168206"><ele>277.6666666666667</ele><time>2026-05-03T09:05:08.985Z</time></trkpt><trkpt lat="44.2206295" lon="8.316769"><ele>278.3333333333333</ele><time>2026-05-03T09:05:09.984Z</time></trkpt><trkpt lat="44.2205711" lon="8.3167084"><ele>279.0</ele><time>2026-05-03T09:05:10.984Z</time></trkpt><trkpt lat="44.2205308" lon="8.3166213"><ele>279.0</ele><time>2026-05-03T09:05:11.985Z</time></trkpt><trkpt lat="44.2205126" lon="8.3165057"><ele>279.0</ele><time>2026-05-03T09:05:12.984Z</time></trkpt><trkpt lat="44.2205113" lon="8.3163794"><ele>279.0</ele><time>2026-05-03T09:05:13.984Z</time></trkpt><trkpt lat="44.220511" lon="8.3162461"><ele>279.0</ele><time>2026-05-03T09:05:14.985Z</time></trkpt><trkpt lat="44.2205058" lon="8.3161112"><ele>279.0</ele><time>2026-05-03T09:05:15.984Z</time></trkpt><trkpt lat="44.2204896" lon="8.3159859"><ele>281.5</ele><time>2026-05-03T09:05:16.984Z</time></trkpt><trkpt lat="44.2204624" lon="8.3158645"><ele>284.0</ele><time>2026-05-03T09:05:17.985Z</time></trkpt><trkpt lat="44.220426" lon="8.3157569"><ele>286.5</ele><time>2026-05-03T09:05:18.984Z</time></trkpt><trkpt lat="44.2203756" lon="8.3156561"><ele>289.0</ele><time>2026-05-03T09:05:19.985Z</time></trkpt><trkpt lat="44.2203224" lon="8.315576"><ele>291.5</ele><time>2026-05-03T09:05:20.984Z</time></trkpt><trkpt lat="44.2202719" lon="8.3154922"><ele>294.0</ele><time>2026-05-03T09:05:21.984Z</time></trkpt><trkpt lat="44.2202344" lon="8.3153903"><ele>295.8333333333333</ele><time>2026-05-03T09:05:22.984Z</time></trkpt><trkpt lat="44.2202223" lon="8.3152803"><ele>297.6666666666667</ele><time>2026-05-03T09:05:23.984Z</time></trkpt><trkpt lat="44.2202167" lon="8.3151617"><ele>299.5</ele><time>2026-05-03T09:05:24.984Z</time></trkpt><trkpt lat="44.2202118" lon="8.3150388"><ele>301.33333333333337</ele><time>2026-05-03T09:05:25.984Z</time></trkpt><trkpt lat="44.2202011" lon="8.3149192"><ele>303.1666666666667</ele><time>2026-05-03T09:05:26.985Z</time></trkpt><trkpt lat="44.2201914" lon="8.3148086"><ele>305.0</ele><time>2026-05-03T09:05:27.985Z</time></trkpt><trkpt lat="44.220184" lon="8.3146591"><ele>305.0</ele><time>2026-05-03T09:05:29.984Z</time></trkpt><trkpt lat="44.2202027" lon="8.3145679"><ele>305.0</ele><time>2026-05-03T09:05:31.985Z</time></trkpt><trkpt lat="44.2202625" lon="8.314599"><ele>305.0</ele><time>2026-05-03T09:05:35.984Z</time></trkpt><trkpt lat="44.2202764" lon="8.3147611"><ele>305.0</ele><time>2026-05-03T09:05:37.985Z</time></trkpt><trkpt lat="44.2203145" lon="8.3148659"><ele>305.0</ele><time>2026-05-03T09:05:38.984Z</time></trkpt><trkpt lat="44.220353" lon="8.3149637"><ele>305.0</ele><time>2026-05-03T09:05:39.984Z</time></trkpt><trkpt lat="44.2203978" lon="8.3150582"><ele>305.0</ele><time>2026-05-03T09:05:40.984Z</time></trkpt><trkpt lat="44.2204737" lon="8.315178"><ele>305.0</ele><time>2026-05-03T09:05:41.985Z</time></trkpt><trkpt lat="44.2205508" lon="8.3152855"><ele>305.0</ele><time>2026-05-03T09:05:42.984Z</time></trkpt><trkpt lat="44.2206302" lon="8.3153876"><ele>305.0</ele><time>2026-05-03T09:05:43.984Z</time></trkpt><trkpt lat="44.2207155" lon="8.3154899"><ele>305.0</ele><time>2026-05-03T09:05:44.984Z</time></trkpt><trkpt lat="44.2207966" lon="8.3155843"><ele>306.1666666666667</ele><time>2026-05-03T09:05:45.984Z</time></trkpt><trkpt lat="44.2208723" lon="8.3156764"><ele>307.33333333333337</ele><time>2026-05-03T09:05:46.983Z</time></trkpt><trkpt lat="44.2209413" lon="8.3157688"><ele>308.5</ele><time>2026-05-03T09:05:47.983Z</time></trkpt><trkpt lat="44.2210041" lon="8.3158615"><ele>309.6666666666667</ele><time>2026-05-03T09:05:48.984Z</time></trkpt><trkpt lat="44.2210602" lon="8.3159496"><ele>310.8333333333333</ele><time>2026-05-03T09:05:49.983Z</time></trkpt><trkpt lat="44.2211082" lon="8.3160278"><ele>312.0</ele><time>2026-05-03T09:05:50.984Z</time></trkpt><trkpt lat="44.2211501" lon="8.3160988"><ele>312.0</ele><time>2026-05-03T09:05:51.984Z</time></trkpt><trkpt lat="44.2212246" lon="8.3161792"><ele>312.0</ele><time>2026-05-03T09:05:53.983Z</time></trkpt><trkpt lat="44.221289" lon="8.316145"><ele>312.0</ele><time>2026-05-03T09:05:55.983Z</time></trkpt><trkpt lat="44.221286" lon="8.3160199"><ele>312.0</ele><time>2026-05-03T09:05:57.983Z</time></trkpt><trkpt lat="44.2212534" lon="8.315932"><ele>312.0</ele><time>2026-05-03T09:05:58.984Z</time></trkpt><trkpt lat="44.2212067" lon="8.3158317"><ele>312.0</ele><time>2026-05-03T09:05:59.983Z</time></trkpt><trkpt lat="44.2211565" lon="8.3157159"><ele>312.0</ele><time>2026-05-03T09:06:00.983Z</time></trkpt><trkpt lat="44.2211076" lon="8.3155764"><ele>312.0</ele><time>2026-05-03T09:06:01.983Z</time></trkpt><trkpt lat="44.2210719" lon="8.3154043"><ele>312.0</ele><time>2026-05-03T09:06:02.983Z</time></trkpt><trkpt lat="44.2210393" lon="8.315248"><ele>312.0</ele><time>2026-05-03T09:06:03.983Z</time></trkpt><trkpt lat="44.2210183" lon="8.3150954"><ele>314.1666666666667</ele><time>2026-05-03T09:06:04.983Z</time></trkpt><trkpt lat="44.2209972" lon="8.3149537"><ele>316.3333333333333</ele><time>2026-05-03T09:06:05.983Z</time></trkpt><trkpt lat="44.2209765" lon="8.3148244"><ele>318.5</ele><time>2026-05-03T09:06:06.983Z</time></trkpt><trkpt lat="44.2209614" lon="8.3147088"><ele>320.66666666666663</ele><time>2026-05-03T09:06:07.983Z</time></trkpt><trkpt lat="44.2209427" lon="8.3146049"><ele>322.8333333333333</ele><time>2026-05-03T09:06:08.983Z</time></trkpt><trkpt lat="44.2209176" lon="8.3145086"><ele>325.0</ele><time>2026-05-03T09:06:09.983Z</time></trkpt><trkpt lat="44.2208777" lon="8.3144186"><ele>325.5</ele><time>2026-05-03T09:06:10.983Z</time></trkpt><trkpt lat="44.2208228" lon="8.3143306"><ele>326.0</ele><time>2026-05-03T09:06:11.983Z</time></trkpt><trkpt lat="44.2207653" lon="8.3142498"><ele>326.5</ele><time>2026-05-03T09:06:12.983Z</time></trkpt><trkpt lat="44.220714" lon="8.3141799"><ele>327.0</ele><time>2026-05-03T09:06:13.983Z</time></trkpt><trkpt lat="44.2206598" lon="8.3141243"><ele>327.5</ele><time>2026-05-03T09:06:14.984Z</time></trkpt><trkpt lat="44.2205937" lon="8.3140705"><ele>328.0</ele><time>2026-05-03T09:06:15.983Z</time></trkpt><trkpt lat="44.2205263" lon="8.3140362"><ele>328.0</ele><time>2026-05-03T09:06:16.983Z</time></trkpt><trkpt lat="44.2204497" lon="8.3140195"><ele>328.0</ele><time>2026-05-03T09:06:17.984Z</time></trkpt><trkpt lat="44.2203535" lon="8.3140021"><ele>328.0</ele><time>2026-05-03T09:06:18.983Z</time></trkpt><trkpt lat="44.2202621" lon="8.3139715"><ele>328.0</ele><time>2026-05-03T09:06:19.983Z</time></trkpt><trkpt lat="44.2201626" lon="8.3139296"><ele>328.0</ele><time>2026-05-03T09:06:20.983Z</time></trkpt><trkpt lat="44.2200639" lon="8.3138881"><ele>329.59999999999997</ele><time>2026-05-03T09:06:21.984Z</time></trkpt><trkpt lat="44.2199632" lon="8.3138471"><ele>331.2</ele><time>2026-05-03T09:06:22.983Z</time></trkpt><trkpt lat="44.2198711" lon="8.3137858"><ele>332.8</ele><time>2026-05-03T09:06:23.984Z</time></trkpt><trkpt lat="44.219782" lon="8.3137215"><ele>334.4</ele><time>2026-05-03T09:06:24.984Z</time></trkpt><trkpt lat="44.2196985" lon="8.3136581"><ele>336.0</ele><time>2026-05-03T09:06:25.983Z</time></trkpt><trkpt lat="44.219613" lon="8.3135986"><ele>336.0</ele><time>2026-05-03T09:06:26.983Z</time></trkpt><trkpt lat="44.2195381" lon="8.3135303"><ele>336.0</ele><time>2026-05-03T09:06:27.984Z</time></trkpt><trkpt lat="44.2194781" lon="8.3134533"><ele>336.0</ele><time>2026-05-03T09:06:28.984Z</time></trkpt><trkpt lat="44.2194282" lon="8.3133612"><ele>336.0</ele><time>2026-05-03T09:06:29.984Z</time></trkpt><trkpt lat="44.2193915" lon="8.3132401"><ele>336.0</ele><time>2026-05-03T09:06:30.983Z</time></trkpt><trkpt lat="44.2193589" lon="8.3131246"><ele>336.0</ele><time>2026-05-03T09:06:31.984Z</time></trkpt><trkpt lat="44.2193211" lon="8.3130075"><ele>340.8333333333333</ele><time>2026-05-03T09:06:32.983Z</time></trkpt><trkpt lat="44.2192813" lon="8.3129168"><ele>345.6666666666667</ele><time>2026-05-03T09:06:33.983Z</time></trkpt><trkpt lat="44.2192341" lon="8.3128441"><ele>350.5</ele><time>2026-05-03T09:06:34.983Z</time></trkpt><trkpt lat="44.2191149" lon="8.3127998"><ele>355.33333333333337</ele><time>2026-05-03T09:06:36.983Z</time></trkpt><trkpt lat="44.2190444" lon="8.3127882"><ele>360.1666666666667</ele><time>2026-05-03T09:06:37.983Z</time></trkpt><trkpt lat="44.2189679" lon="8.3127579"><ele>365.0</ele><time>2026-05-03T09:06:38.984Z</time></trkpt><trkpt lat="44.2188938" lon="8.3127225"><ele>365.33333333333337</ele><time>2026-05-03T09:06:39.984Z</time></trkpt><trkpt lat="44.2188261" lon="8.3126813"><ele>365.6666666666667</ele><time>2026-05-03T09:06:40.983Z</time></trkpt><trkpt lat="44.218759" lon="8.3126542"><ele>366.0</ele><time>2026-05-03T09:06:41.983Z</time></trkpt><trkpt lat="44.2186713" lon="8.3126476"><ele>366.3333333333333</ele><time>2026-05-03T09:06:42.984Z</time></trkpt><trkpt lat="44.2185962" lon="8.312655"><ele>366.66666666666663</ele><time>2026-05-03T09:06:43.983Z</time></trkpt><trkpt lat="44.2185219" lon="8.312673"><ele>367.0</ele><time>2026-05-03T09:06:44.983Z</time></trkpt><trkpt lat="44.2184417" lon="8.3126865"><ele>367.0</ele><time>2026-05-03T09:06:45.983Z</time></trkpt><trkpt lat="44.2183627" lon="8.3126804"><ele>367.0</ele><time>2026-05-03T09:06:46.984Z</time></trkpt><trkpt lat="44.218294" lon="8.3126521"><ele>367.0</ele><time>2026-05-03T09:06:47.983Z</time></trkpt><trkpt lat="44.2182271" lon="8.3126185"><ele>367.0</ele><time>2026-05-03T09:06:48.984Z</time></trkpt><trkpt lat="44.2181621" lon="8.312606"><ele>367.0</ele><time>2026-05-03T09:06:49.984Z</time></trkpt><trkpt lat="44.2180974" lon="8.3126174"><ele>367.0</ele><time>2026-05-03T09:06:50.983Z</time></trkpt><trkpt lat="44.2180301" lon="8.3126534"><ele>367.0</ele><time>2026-05-03T09:06:51.984Z</time></trkpt><trkpt lat="44.2179657" lon="8.3127057"><ele>369.0</ele><time>2026-05-03T09:06:52.983Z</time></trkpt><trkpt lat="44.2178992" lon="8.3127509"><ele>371.0</ele><time>2026-05-03T09:06:53.984Z</time></trkpt><trkpt lat="44.2178193" lon="8.3127895"><ele>373.0</ele><time>2026-05-03T09:06:54.984Z</time></trkpt><trkpt lat="44.2177318" lon="8.3128256"><ele>375.0</ele><time>2026-05-03T09:06:55.983Z</time></trkpt><trkpt lat="44.2176356" lon="8.3128674"><ele>377.0</ele><time>2026-05-03T09:06:56.984Z</time></trkpt><trkpt lat="44.2175432" lon="8.312904"><ele>379.0</ele><time>2026-05-03T09:06:57.983Z</time></trkpt><trkpt lat="44.2174568" lon="8.3129221"><ele>379.0</ele><time>2026-05-03T09:06:58.983Z</time></trkpt><trkpt lat="44.2173619" lon="8.3129259"><ele>379.0</ele><time>2026-05-03T09:06:59.984Z</time></trkpt><trkpt lat="44.2172679" lon="8.3129214"><ele>379.0</ele><time>2026-05-03T09:07:00.984Z</time></trkpt><trkpt lat="44.2171745" lon="8.3129222"><ele>379.0</ele><time>2026-05-03T09:07:01.984Z</time></trkpt><trkpt lat="44.2170829" lon="8.3129248"><ele>379.0</ele><time>2026-05-03T09:07:02.984Z</time></trkpt><trkpt lat="44.2170006" lon="8.3129201"><ele>377.7142857142857</ele><time>2026-05-03T09:07:03.983Z</time></trkpt><trkpt lat="44.2169284" lon="8.312908"><ele>376.42857142857144</ele><time>2026-05-03T09:07:04.984Z</time></trkpt><trkpt lat="44.2168669" lon="8.3128847"><ele>375.1428571428571</ele><time>2026-05-03T09:07:05.983Z</time></trkpt><trkpt lat="44.2168121" lon="8.3128344"><ele>373.8571428571429</ele><time>2026-05-03T09:07:06.983Z</time></trkpt><trkpt lat="44.2167572" lon="8.312766"><ele>372.57142857142856</ele><time>2026-05-03T09:07:07.984Z</time></trkpt><trkpt lat="44.2167003" lon="8.3126835"><ele>371.2857142857143</ele><time>2026-05-03T09:07:08.984Z</time></trkpt><trkpt lat="44.2166399" lon="8.3125938"><ele>370.0</ele><time>2026-05-03T09:07:09.984Z</time></trkpt><trkpt lat="44.2165825" lon="8.3125097"><ele>370.0</ele><time>2026-05-03T09:07:10.983Z</time></trkpt><trkpt lat="44.2165315" lon="8.3124334"><ele>370.0</ele><time>2026-05-03T09:07:11.983Z</time></trkpt><trkpt lat="44.2164905" lon="8.3123483"><ele>370.0</ele><time>2026-05-03T09:07:12.984Z</time></trkpt><trkpt lat="44.2164275" lon="8.3122024"><ele>370.0</ele><time>2026-05-03T09:07:14.983Z</time></trkpt><trkpt lat="44.2163738" lon="8.3120648"><ele>370.0</ele><time>2026-05-03T09:07:16.984Z</time></trkpt><trkpt lat="44.216348" lon="8.311928"><ele>370.6</ele><time>2026-05-03T09:07:18.983Z</time></trkpt><trkpt lat="44.2163775" lon="8.311766"><ele>371.2</ele><time>2026-05-03T09:07:20.984Z</time></trkpt><trkpt lat="44.2163998" lon="8.3116817"><ele>371.79999999999995</ele><time>2026-05-03T09:07:21.984Z</time></trkpt><trkpt lat="44.2164652" lon="8.3115311"><ele>372.4</ele><time>2026-05-03T09:07:23.983Z</time></trkpt><trkpt lat="44.2165207" lon="8.3114656"><ele>373.0</ele><time>2026-05-03T09:07:24.983Z</time></trkpt><trkpt lat="44.2165949" lon="8.3114173"><ele>369.4</ele><time>2026-05-03T09:07:25.983Z</time></trkpt><trkpt lat="44.2166826" lon="8.3113836"><ele>365.79999999999995</ele><time>2026-05-03T09:07:26.983Z</time></trkpt><trkpt lat="44.2167745" lon="8.3113625"><ele>362.2</ele><time>2026-05-03T09:07:27.983Z</time></trkpt><trkpt lat="44.2168683" lon="8.3113525"><ele>358.6</ele><time>2026-05-03T09:07:28.983Z</time></trkpt><trkpt lat="44.2169646" lon="8.3113525"><ele>355.0</ele><time>2026-05-03T09:07:29.983Z</time></trkpt><trkpt lat="44.2170608" lon="8.3113401"><ele>355.0</ele><time>2026-05-03T09:07:30.983Z</time></trkpt><trkpt lat="44.2171517" lon="8.3113157"><ele>355.0</ele><time>2026-05-03T09:07:31.984Z</time></trkpt><trkpt lat="44.2172421" lon="8.3112778"><ele>355.0</ele><time>2026-05-03T09:07:32.983Z</time></trkpt><trkpt lat="44.2173274" lon="8.311225"><ele>355.0</ele><time>2026-05-03T09:07:33.984Z</time></trkpt><trkpt lat="44.217409" lon="8.3111572"><ele>355.0</ele><time>2026-05-03T09:07:34.984Z</time></trkpt><trkpt lat="44.2174959" lon="8.3110879"><ele>358.2</ele><time>2026-05-03T09:07:35.983Z</time></trkpt><trkpt lat="44.2175942" lon="8.3110348"><ele>361.4</ele><time>2026-05-03T09:07:36.983Z</time></trkpt><trkpt lat="44.2176985" lon="8.3109931"><ele>364.6</ele><time>2026-05-03T09:07:37.983Z</time></trkpt><trkpt lat="44.2178079" lon="8.3109609"><ele>367.8</ele><time>2026-05-03T09:07:38.984Z</time></trkpt><trkpt lat="44.2179189" lon="8.3109409"><ele>371.0</ele><time>2026-05-03T09:07:39.983Z</time></trkpt><trkpt lat="44.2180326" lon="8.3109304"><ele>371.0</ele><time>2026-05-03T09:07:40.983Z</time></trkpt><trkpt lat="44.2181455" lon="8.310926"><ele>371.0</ele><time>2026-05-03T09:07:41.983Z</time></trkpt><trkpt lat="44.2182517" lon="8.310921"><ele>371.0</ele><time>2026-05-03T09:07:42.984Z</time></trkpt><trkpt lat="44.2183469" lon="8.3108947"><ele>371.0</ele><time>2026-05-03T09:07:43.984Z</time></trkpt><trkpt lat="44.2184366" lon="8.3108604"><ele>371.0</ele><time>2026-05-03T09:07:44.983Z</time></trkpt><trkpt lat="44.2185257" lon="8.3108004"><ele>374.6</ele><time>2026-05-03T09:07:45.983Z</time></trkpt><trkpt lat="44.2186202" lon="8.3107374"><ele>378.20000000000005</ele><time>2026-05-03T09:07:46.983Z</time></trkpt><trkpt lat="44.2187172" lon="8.3106727"><ele>381.79999999999995</ele><time>2026-05-03T09:07:47.983Z</time></trkpt><trkpt lat="44.2188186" lon="8.3106253"><ele>385.4</ele><time>2026-05-03T09:07:48.983Z</time></trkpt><trkpt lat="44.2189191" lon="8.3106022"><ele>389.0</ele><time>2026-05-03T09:07:49.983Z</time></trkpt><trkpt lat="44.2190199" lon="8.3105951"><ele>388.99999999999994</ele><time>2026-05-03T09:07:50.984Z</time></trkpt><trkpt lat="44.2191081" lon="8.3105928"><ele>389.0</ele><time>2026-05-03T09:07:51.983Z</time></trkpt><trkpt lat="44.2191881" lon="8.3105777"><ele>389.0</ele><time>2026-05-03T09:07:52.984Z</time></trkpt><trkpt lat="44.2192592" lon="8.3105495"><ele>389.0</ele><time>2026-05-03T09:07:53.983Z</time></trkpt><trkpt lat="44.2193693" lon="8.3105093"><ele>388.99999999999994</ele><time>2026-05-03T09:07:55.983Z</time></trkpt><trkpt lat="44.2194498" lon="8.3105345"><ele>389.0</ele><time>2026-05-03T09:07:57.984Z</time></trkpt><trkpt lat="44.2194867" lon="8.3106436"><ele>391.49999999999994</ele><time>2026-05-03T09:07:59.983Z</time></trkpt><trkpt lat="44.2193996" lon="8.310742"><ele>394.0</ele><time>2026-05-03T09:08:01.984Z</time></trkpt><trkpt lat="44.2193344" lon="8.310795"><ele>396.5</ele><time>2026-05-03T09:08:02.983Z</time></trkpt><trkpt lat="44.2192545" lon="8.3108624"><ele>399.0</ele><time>2026-05-03T09:08:03.983Z</time></trkpt><trkpt lat="44.2191806" lon="8.3109277"><ele>401.49999999999994</ele><time>2026-05-03T09:08:04.984Z</time></trkpt><trkpt lat="44.2191241" lon="8.3109862"><ele>404.0</ele><time>2026-05-03T09:08:05.983Z</time></trkpt><trkpt lat="44.219053" lon="8.3111253"><ele>404.0</ele><time>2026-05-03T09:08:07.983Z</time></trkpt><trkpt lat="44.2190861" lon="8.3112227"><ele>404.0</ele><time>2026-05-03T09:08:09.983Z</time></trkpt><trkpt lat="44.2192016" lon="8.3112117"><ele>404.0</ele><time>2026-05-03T09:08:11.983Z</time></trkpt><trkpt lat="44.2192706" lon="8.3111658"><ele>404.0</ele><time>2026-05-03T09:08:12.983Z</time></trkpt><trkpt lat="44.2193524" lon="8.3111004"><ele>404.0</ele><time>2026-05-03T09:08:13.983Z</time></trkpt><trkpt lat="44.2194473" lon="8.3110305"><ele>404.0</ele><time>2026-05-03T09:08:14.983Z</time></trkpt><trkpt lat="44.219548" lon="8.3109747"><ele>404.0</ele><time>2026-05-03T09:08:15.983Z</time></trkpt><trkpt lat="44.2196489" lon="8.3109267"><ele>404.0</ele><time>2026-05-03T09:08:16.984Z</time></trkpt><trkpt lat="44.2197576" lon="8.3108863"><ele>404.0</ele><time>2026-05-03T09:08:17.983Z</time></trkpt><trkpt lat="44.2198731" lon="8.3108477"><ele>404.0</ele><time>2026-05-03T09:08:18.983Z</time></trkpt><trkpt lat="44.2199948" lon="8.3108151"><ele>406.75</ele><time>2026-05-03T09:08:19.983Z</time></trkpt><trkpt lat="44.2201125" lon="8.3107948"><ele>409.5</ele><time>2026-05-03T09:08:20.984Z</time></trkpt><trkpt lat="44.2202332" lon="8.3107935"><ele>412.25</ele><time>2026-05-03T09:08:21.984Z</time></trkpt><trkpt lat="44.2203498" lon="8.3108113"><ele>415.0</ele><time>2026-05-03T09:08:22.983Z</time></trkpt><trkpt lat="44.2204637" lon="8.3108381"><ele>415.0</ele><time>2026-05-03T09:08:23.984Z</time></trkpt><trkpt lat="44.2205675" lon="8.3108761"><ele>415.0</ele><time>2026-05-03T09:08:24.984Z</time></trkpt><trkpt lat="44.2206662" lon="8.3109365"><ele>415.0</ele><time>2026-05-03T09:08:25.984Z</time></trkpt><trkpt lat="44.2207589" lon="8.3110039"><ele>415.0</ele><time>2026-05-03T09:08:26.983Z</time></trkpt><trkpt lat="44.2208473" lon="8.311069"><ele>415.0</ele><time>2026-05-03T09:08:27.983Z</time></trkpt><trkpt lat="44.2209391" lon="8.3111334"><ele>415.6</ele><time>2026-05-03T09:08:28.983Z</time></trkpt><trkpt lat="44.2210275" lon="8.311178"><ele>416.2</ele><time>2026-05-03T09:08:29.984Z</time></trkpt><trkpt lat="44.2211085" lon="8.3112051"><ele>416.79999999999995</ele><time>2026-05-03T09:08:30.983Z</time></trkpt><trkpt lat="44.2211911" lon="8.3112032"><ele>417.4</ele><time>2026-05-03T09:08:31.983Z</time></trkpt><trkpt lat="44.2212828" lon="8.3111668"><ele>418.0</ele><time>2026-05-03T09:08:32.983Z</time></trkpt><trkpt lat="44.2213732" lon="8.3111099"><ele>418.0</ele><time>2026-05-03T09:08:33.983Z</time></trkpt><trkpt lat="44.2214612" lon="8.3110406"><ele>418.0</ele><time>2026-05-03T09:08:34.983Z</time></trkpt><trkpt lat="44.2215464" lon="8.3109664"><ele>418.0</ele><time>2026-05-03T09:08:35.984Z</time></trkpt><trkpt lat="44.2216314" lon="8.3108979"><ele>418.0</ele><time>2026-05-03T09:08:36.984Z</time></trkpt><trkpt lat="44.2217268" lon="8.310833"><ele>418.0</ele><time>2026-05-03T09:08:37.983Z</time></trkpt><trkpt lat="44.2218211" lon="8.310783"><ele>418.2</ele><time>2026-05-03T09:08:38.983Z</time></trkpt><trkpt lat="44.2219185" lon="8.3107403"><ele>418.4</ele><time>2026-05-03T09:08:39.983Z</time></trkpt><trkpt lat="44.2220214" lon="8.3106926"><ele>418.59999999999997</ele><time>2026-05-03T09:08:40.983Z</time></trkpt><trkpt lat="44.2221173" lon="8.3106428"><ele>418.79999999999995</ele><time>2026-05-03T09:08:41.984Z</time></trkpt><trkpt lat="44.2222138" lon="8.3105914"><ele>419.0</ele><time>2026-05-03T09:08:42.984Z</time></trkpt><trkpt lat="44.2223114" lon="8.310534"><ele>421.5</ele><time>2026-05-03T09:08:43.983Z</time></trkpt><trkpt lat="44.2224129" lon="8.310468"><ele>424.0</ele><time>2026-05-03T09:08:44.983Z</time></trkpt><trkpt lat="44.2225196" lon="8.3104033"><ele>426.5</ele><time>2026-05-03T09:08:45.983Z</time></trkpt><trkpt lat="44.2226216" lon="8.3103382"><ele>429.0</ele><time>2026-05-03T09:08:46.983Z</time></trkpt><trkpt lat="44.2227293" lon="8.3102919"><ele>429.0</ele><time>2026-05-03T09:08:47.983Z</time></trkpt><trkpt lat="44.2228343" lon="8.3102511"><ele>429.0</ele><time>2026-05-03T09:08:48.983Z</time></trkpt><trkpt lat="44.2229356" lon="8.3102043"><ele>429.0</ele><time>2026-05-03T09:08:49.984Z</time></trkpt><trkpt lat="44.2230363" lon="8.3101539"><ele>429.0</ele><time>2026-05-03T09:08:50.983Z</time></trkpt><trkpt lat="44.2231186" lon="8.3100907"><ele>429.0</ele><time>2026-05-03T09:08:51.983Z</time></trkpt><trkpt lat="44.2231824" lon="8.3100069"><ele>431.0</ele><time>2026-05-03T09:08:52.983Z</time></trkpt><trkpt lat="44.2232236" lon="8.3099011"><ele>433.0</ele><time>2026-05-03T09:08:53.983Z</time></trkpt><trkpt lat="44.2232487" lon="8.3097796"><ele>435.0</ele><time>2026-05-03T09:08:54.984Z</time></trkpt><trkpt lat="44.2232618" lon="8.3096584"><ele>437.0</ele><time>2026-05-03T09:08:55.984Z</time></trkpt><trkpt lat="44.2232773" lon="8.3095349"><ele>439.0</ele><time>2026-05-03T09:08:56.983Z</time></trkpt><trkpt lat="44.223309" lon="8.3094271"><ele>441.0</ele><time>2026-05-03T09:08:57.983Z</time></trkpt><trkpt lat="44.2233557" lon="8.3093256"><ele>441.0</ele><time>2026-05-03T09:08:58.983Z</time></trkpt><trkpt lat="44.2234176" lon="8.3092371"><ele>441.0</ele><time>2026-05-03T09:08:59.984Z</time></trkpt><trkpt lat="44.2234954" lon="8.3091657"><ele>441.0</ele><time>2026-05-03T09:09:00.984Z</time></trkpt><trkpt lat="44.2236013" lon="8.3091095"><ele>441.0</ele><time>2026-05-03T09:09:01.983Z</time></trkpt><trkpt lat="44.2237093" lon="8.3090661"><ele>441.0</ele><time>2026-05-03T09:09:02.984Z</time></trkpt><trkpt lat="44.2238176" lon="8.3090373"><ele>441.0</ele><time>2026-05-03T09:09:03.983Z</time></trkpt><trkpt lat="44.2239083" lon="8.3089953"><ele>441.0</ele><time>2026-05-03T09:09:04.983Z</time></trkpt><trkpt lat="44.2239847" lon="8.3089323"><ele>441.0</ele><time>2026-05-03T09:09:05.984Z</time></trkpt><trkpt lat="44.2240471" lon="8.3088484"><ele>441.0</ele><time>2026-05-03T09:09:06.983Z</time></trkpt><trkpt lat="44.2240915" lon="8.3087359"><ele>441.0</ele><time>2026-05-03T09:09:07.983Z</time></trkpt><trkpt lat="44.2241359" lon="8.3086069"><ele>443.0</ele><time>2026-05-03T09:09:08.983Z</time></trkpt><trkpt lat="44.2241849" lon="8.3084634"><ele>445.0</ele><time>2026-05-03T09:09:09.984Z</time></trkpt><trkpt lat="44.2242451" lon="8.3083225"><ele>447.0</ele><time>2026-05-03T09:09:10.984Z</time></trkpt><trkpt lat="44.2243003" lon="8.3082012"><ele>449.0</ele><time>2026-05-03T09:09:11.984Z</time></trkpt><trkpt lat="44.224368" lon="8.3080949"><ele>451.0</ele><time>2026-05-03T09:09:12.983Z</time></trkpt><trkpt lat="44.2244458" lon="8.3080119"><ele>451.0</ele><time>2026-05-03T09:09:13.983Z</time></trkpt><trkpt lat="44.2245306" lon="8.3079479"><ele>451.0</ele><time>2026-05-03T09:09:14.984Z</time></trkpt><trkpt lat="44.2246269" lon="8.3078802"><ele>451.0</ele><time>2026-05-03T09:09:15.984Z</time></trkpt><trkpt lat="44.224721" lon="8.3078137"><ele>451.0</ele><time>2026-05-03T09:09:16.984Z</time></trkpt><trkpt lat="44.2248125" lon="8.3077511"><ele>451.0</ele><time>2026-05-03T09:09:17.984Z</time></trkpt><trkpt lat="44.2248938" lon="8.3076825"><ele>456.4</ele><time>2026-05-03T09:09:18.983Z</time></trkpt><trkpt lat="44.2249594" lon="8.3075982"><ele>461.8</ele><time>2026-05-03T09:09:19.983Z</time></trkpt><trkpt lat="44.2250042" lon="8.3075005"><ele>467.19999999999993</ele><time>2026-05-03T09:09:20.984Z</time></trkpt><trkpt lat="44.2250414" lon="8.3073891"><ele>472.59999999999997</ele><time>2026-05-03T09:09:21.984Z</time></trkpt><trkpt lat="44.2250683" lon="8.3072576"><ele>478.0</ele><time>2026-05-03T09:09:22.984Z</time></trkpt><trkpt lat="44.2250931" lon="8.3071182"><ele>478.0</ele><time>2026-05-03T09:09:23.984Z</time></trkpt><trkpt lat="44.2251252" lon="8.3069838"><ele>477.99999999999994</ele><time>2026-05-03T09:09:24.984Z</time></trkpt><trkpt lat="44.2251724" lon="8.3068465"><ele>477.99999999999994</ele><time>2026-05-03T09:09:25.983Z</time></trkpt><trkpt lat="44.2252446" lon="8.3067184"><ele>478.0</ele><time>2026-05-03T09:09:26.983Z</time></trkpt><trkpt lat="44.2253122" lon="8.3065886"><ele>478.0</ele><time>2026-05-03T09:09:27.983Z</time></trkpt><trkpt lat="44.2253636" lon="8.306456"><ele>477.1666666666667</ele><time>2026-05-03T09:09:28.983Z</time></trkpt><trkpt lat="44.2253939" lon="8.3063226"><ele>476.33333333333337</ele><time>2026-05-03T09:09:29.983Z</time></trkpt><trkpt lat="44.2254045" lon="8.3061996"><ele>475.5</ele><time>2026-05-03T09:09:30.983Z</time></trkpt><trkpt lat="44.2254138" lon="8.3060828"><ele>474.66666666666663</ele><time>2026-05-03T09:09:31.984Z</time></trkpt><trkpt lat="44.2254289" lon="8.3059736"><ele>473.8333333333333</ele><time>2026-05-03T09:09:32.984Z</time></trkpt><trkpt lat="44.2254578" lon="8.3058688"><ele>473.0</ele><time>2026-05-03T09:09:33.984Z</time></trkpt><trkpt lat="44.2255039" lon="8.3057845"><ele>472.99999999999994</ele><time>2026-05-03T09:09:34.984Z</time></trkpt><trkpt lat="44.2255545" lon="8.3057039"><ele>473.0</ele><time>2026-05-03T09:09:35.984Z</time></trkpt><trkpt lat="44.2256146" lon="8.3056325"><ele>473.0</ele><time>2026-05-03T09:09:36.984Z</time></trkpt><trkpt lat="44.2256872" lon="8.3055769"><ele>473.0</ele><time>2026-05-03T09:09:37.983Z</time></trkpt><trkpt lat="44.2257679" lon="8.3055329"><ele>472.99999999999994</ele><time>2026-05-03T09:09:38.984Z</time></trkpt><trkpt lat="44.2258638" lon="8.305506"><ele>473.0</ele><time>2026-05-03T09:09:39.984Z</time></trkpt><trkpt lat="44.2259635" lon="8.3054951"><ele>475.0</ele><time>2026-05-03T09:09:40.983Z</time></trkpt><trkpt lat="44.2260614" lon="8.3054844"><ele>476.99999999999994</ele><time>2026-05-03T09:09:41.984Z</time></trkpt><trkpt lat="44.2261639" lon="8.3054572"><ele>478.99999999999994</ele><time>2026-05-03T09:09:42.984Z</time></trkpt><trkpt lat="44.2262587" lon="8.305427"><ele>481.0</ele><time>2026-05-03T09:09:43.983Z</time></trkpt><trkpt lat="44.2263489" lon="8.305394"><ele>483.0</ele><time>2026-05-03T09:09:44.984Z</time></trkpt><trkpt lat="44.2264396" lon="8.3053368"><ele>487.4</ele><time>2026-05-03T09:09:45.984Z</time></trkpt><trkpt lat="44.2265154" lon="8.3052579"><ele>491.79999999999995</ele><time>2026-05-03T09:09:46.983Z</time></trkpt><trkpt lat="44.226587" lon="8.305165"><ele>496.2</ele><time>2026-05-03T09:09:47.983Z</time></trkpt><trkpt lat="44.2266439" lon="8.305064"><ele>500.6</ele><time>2026-05-03T09:09:48.983Z</time></trkpt><trkpt lat="44.2266744" lon="8.3049504"><ele>505.0</ele><time>2026-05-03T09:09:49.983Z</time></trkpt><trkpt lat="44.2267153" lon="8.3048467"><ele>505.00000000000006</ele><time>2026-05-03T09:09:50.983Z</time></trkpt><trkpt lat="44.2267594" lon="8.3047564"><ele>505.0</ele><time>2026-05-03T09:09:51.983Z</time></trkpt><trkpt lat="44.2268231" lon="8.3046934"><ele>505.0</ele><time>2026-05-03T09:09:52.983Z</time></trkpt><trkpt lat="44.2268955" lon="8.3046534"><ele>505.0</ele><time>2026-05-03T09:09:53.983Z</time></trkpt><trkpt lat="44.2269648" lon="8.304632"><ele>505.00000000000006</ele><time>2026-05-03T09:09:54.983Z</time></trkpt><trkpt lat="44.2270358" lon="8.3046168"><ele>505.0</ele><time>2026-05-03T09:09:55.983Z</time></trkpt><trkpt lat="44.22711" lon="8.3045958"><ele>503.50000000000006</ele><time>2026-05-03T09:09:56.984Z</time></trkpt><trkpt lat="44.2271818" lon="8.3045752"><ele>502.0</ele><time>2026-05-03T09:09:57.983Z</time></trkpt><trkpt lat="44.2272567" lon="8.3045529"><ele>500.5</ele><time>2026-05-03T09:09:58.983Z</time></trkpt><trkpt lat="44.2273349" lon="8.3045338"><ele>499.0</ele><time>2026-05-03T09:09:59.983Z</time></trkpt><trkpt lat="44.2274084" lon="8.3045193"><ele>497.50000000000006</ele><time>2026-05-03T09:10:00.984Z</time></trkpt><trkpt lat="44.2275202" lon="8.3044809"><ele>496.0</ele><time>2026-05-03T09:10:02.983Z</time></trkpt><trkpt lat="44.2275781" lon="8.3044442"><ele>498.83333333333337</ele><time>2026-05-03T09:10:03.983Z</time></trkpt><trkpt lat="44.2276246" lon="8.3043827"><ele>501.6666666666667</ele><time>2026-05-03T09:10:04.984Z</time></trkpt><trkpt lat="44.2276732" lon="8.304299"><ele>504.5</ele><time>2026-05-03T09:10:05.983Z</time></trkpt><trkpt lat="44.2277072" lon="8.3041872"><ele>507.33333333333337</ele><time>2026-05-03T09:10:06.983Z</time></trkpt><trkpt lat="44.2277253" lon="8.3040491"><ele>510.1666666666667</ele><time>2026-05-03T09:10:07.983Z</time></trkpt><trkpt lat="44.2277455" lon="8.3039075"><ele>513.0</ele><time>2026-05-03T09:10:08.983Z</time></trkpt><trkpt lat="44.2277605" lon="8.3037565"><ele>513.0</ele><time>2026-05-03T09:10:09.983Z</time></trkpt><trkpt lat="44.2277758" lon="8.3036106"><ele>513.0</ele><time>2026-05-03T09:10:10.983Z</time></trkpt><trkpt lat="44.2277961" lon="8.3034657"><ele>513.0</ele><time>2026-05-03T09:10:11.983Z</time></trkpt><trkpt lat="44.2278291" lon="8.3033414"><ele>513.0</ele><time>2026-05-03T09:10:12.984Z</time></trkpt><trkpt lat="44.227873" lon="8.3032356"><ele>513.0</ele><time>2026-05-03T09:10:13.984Z</time></trkpt><trkpt lat="44.227911" lon="8.3031291"><ele>511.59999999999997</ele><time>2026-05-03T09:10:14.983Z</time></trkpt><trkpt lat="44.2279325" lon="8.3030166"><ele>510.19999999999993</ele><time>2026-05-03T09:10:15.983Z</time></trkpt><trkpt lat="44.2279504" lon="8.302894"><ele>508.8</ele><time>2026-05-03T09:10:16.984Z</time></trkpt><trkpt lat="44.2279685" lon="8.3027542"><ele>507.4</ele><time>2026-05-03T09:10:17.984Z</time></trkpt><trkpt lat="44.2279938" lon="8.302603"><ele>506.0</ele><time>2026-05-03T09:10:18.983Z</time></trkpt><trkpt lat="44.2280291" lon="8.3024404"><ele>506.0</ele><time>2026-05-03T09:10:19.983Z</time></trkpt><trkpt lat="44.2280673" lon="8.3022756"><ele>506.0</ele><time>2026-05-03T09:10:20.983Z</time></trkpt><trkpt lat="44.2281125" lon="8.3021123"><ele>506.0</ele><time>2026-05-03T09:10:21.984Z</time></trkpt><trkpt lat="44.2281638" lon="8.3019517"><ele>506.0</ele><time>2026-05-03T09:10:22.983Z</time></trkpt><trkpt lat="44.2282193" lon="8.301813"><ele>509.4</ele><time>2026-05-03T09:10:23.983Z</time></trkpt><trkpt lat="44.2282691" lon="8.3016874"><ele>512.8</ele><time>2026-05-03T09:10:24.984Z</time></trkpt><trkpt lat="44.2283234" lon="8.3015679"><ele>516.1999999999999</ele><time>2026-05-03T09:10:25.983Z</time></trkpt><trkpt lat="44.2283819" lon="8.3014589"><ele>519.6</ele><time>2026-05-03T09:10:26.983Z</time></trkpt><trkpt lat="44.2284591" lon="8.3013551"><ele>523.0</ele><time>2026-05-03T09:10:27.984Z</time></trkpt><trkpt lat="44.2285494" lon="8.3012561"><ele>523.0</ele><time>2026-05-03T09:10:28.983Z</time></trkpt><trkpt lat="44.2286459" lon="8.3011608"><ele>523.0</ele><time>2026-05-03T09:10:29.983Z</time></trkpt><trkpt lat="44.2287449" lon="8.3010737"><ele>523.0</ele><time>2026-05-03T09:10:30.984Z</time></trkpt><trkpt lat="44.2288383" lon="8.3009902"><ele>523.0</ele><time>2026-05-03T09:10:31.983Z</time></trkpt><trkpt lat="44.228935" lon="8.3009088"><ele>526.0</ele><time>2026-05-03T09:10:32.983Z</time></trkpt><trkpt lat="44.2290221" lon="8.3008205"><ele>529.0</ele><time>2026-05-03T09:10:33.983Z</time></trkpt><trkpt lat="44.2290998" lon="8.3007363"><ele>532.0</ele><time>2026-05-03T09:10:34.984Z</time></trkpt><trkpt lat="44.2291804" lon="8.3006515"><ele>535.0</ele><time>2026-05-03T09:10:35.983Z</time></trkpt><trkpt lat="44.2292604" lon="8.3005597"><ele>538.0</ele><time>2026-05-03T09:10:36.983Z</time></trkpt><trkpt lat="44.2293369" lon="8.3004649"><ele>538.0</ele><time>2026-05-03T09:10:37.983Z</time></trkpt><trkpt lat="44.2294174" lon="8.3003609"><ele>538.0</ele><time>2026-05-03T09:10:38.984Z</time></trkpt><trkpt lat="44.2295027" lon="8.3002628"><ele>538.0</ele><time>2026-05-03T09:10:39.983Z</time></trkpt><trkpt lat="44.2295876" lon="8.3001708"><ele>538.0</ele><time>2026-05-03T09:10:40.984Z</time></trkpt><trkpt lat="44.2296677" lon="8.3000679"><ele>538.0</ele><time>2026-05-03T09:10:41.983Z</time></trkpt><trkpt lat="44.2297466" lon="8.2999609"><ele>539.1999999999999</ele><time>2026-05-03T09:10:42.983Z</time></trkpt><trkpt lat="44.2298282" lon="8.2998476"><ele>540.4</ele><time>2026-05-03T09:10:43.983Z</time></trkpt><trkpt lat="44.2299012" lon="8.2997397"><ele>541.5999999999999</ele><time>2026-05-03T09:10:44.984Z</time></trkpt><trkpt lat="44.2299673" lon="8.2996343"><ele>542.8</ele><time>2026-05-03T09:10:45.983Z</time></trkpt><trkpt lat="44.2300313" lon="8.2995288"><ele>544.0</ele><time>2026-05-03T09:10:46.984Z</time></trkpt><trkpt lat="44.2300958" lon="8.2994285"><ele>544.0</ele><time>2026-05-03T09:10:47.984Z</time></trkpt><trkpt lat="44.2301597" lon="8.2993276"><ele>544.0</ele><time>2026-05-03T09:10:48.983Z</time></trkpt><trkpt lat="44.2302281" lon="8.2992389"><ele>544.0</ele><time>2026-05-03T09:10:49.983Z</time></trkpt><trkpt lat="44.230316" lon="8.2991732"><ele>544.0</ele><time>2026-05-03T09:10:50.983Z</time></trkpt><trkpt lat="44.2304185" lon="8.2991344"><ele>544.0</ele><time>2026-05-03T09:10:51.983Z</time></trkpt><trkpt lat="44.230526" lon="8.2991079"><ele>544.0</ele><time>2026-05-03T09:10:52.983Z</time></trkpt><trkpt lat="44.2306365" lon="8.2990794"><ele>544.0</ele><time>2026-05-03T09:10:53.983Z</time></trkpt><trkpt lat="44.2307518" lon="8.2990475"><ele>544.0</ele><time>2026-05-03T09:10:54.984Z</time></trkpt><trkpt lat="44.2308771" lon="8.2990176"><ele>544.0</ele><time>2026-05-03T09:10:55.983Z</time></trkpt><trkpt lat="44.2310001" lon="8.2989772"><ele>545.5</ele><time>2026-05-03T09:10:56.983Z</time></trkpt><trkpt lat="44.2311118" lon="8.2989319"><ele>547.0</ele><time>2026-05-03T09:10:57.984Z</time></trkpt><trkpt lat="44.2312102" lon="8.2988913"><ele>548.5</ele><time>2026-05-03T09:10:58.983Z</time></trkpt><trkpt lat="44.2312886" lon="8.2988504"><ele>550.0</ele><time>2026-05-03T09:10:59.983Z</time></trkpt><trkpt lat="44.2313482" lon="8.2987996"><ele>551.5</ele><time>2026-05-03T09:11:00.983Z</time></trkpt><trkpt lat="44.2313997" lon="8.2987336"><ele>553.0</ele><time>2026-05-03T09:11:01.983Z</time></trkpt><trkpt lat="44.231439" lon="8.2986451"><ele>553.0</ele><time>2026-05-03T09:11:02.983Z</time></trkpt><trkpt lat="44.2314633" lon="8.2985406"><ele>553.0</ele><time>2026-05-03T09:11:03.983Z</time></trkpt><trkpt lat="44.2314695" lon="8.2984245"><ele>553.0</ele><time>2026-05-03T09:11:04.983Z</time></trkpt><trkpt lat="44.2314855" lon="8.2982958"><ele>553.0</ele><time>2026-05-03T09:11:05.984Z</time></trkpt><trkpt lat="44.2315135" lon="8.2981736"><ele>553.0</ele><time>2026-05-03T09:11:06.983Z</time></trkpt><trkpt lat="44.2315665" lon="8.2980654"><ele>553.0</ele><time>2026-05-03T09:11:07.984Z</time></trkpt><trkpt lat="44.2316505" lon="8.2979641"><ele>557.0</ele><time>2026-05-03T09:11:08.984Z</time></trkpt><trkpt lat="44.2317637" lon="8.2978794"><ele>561.0</ele><time>2026-05-03T09:11:09.983Z</time></trkpt><trkpt lat="44.2318898" lon="8.2978189"><ele>565.0</ele><time>2026-05-03T09:11:10.983Z</time></trkpt><trkpt lat="44.2320139" lon="8.2977608"><ele>569.0</ele><time>2026-05-03T09:11:11.983Z</time></trkpt><trkpt lat="44.2321412" lon="8.2976972"><ele>569.0</ele><time>2026-05-03T09:11:12.983Z</time></trkpt><trkpt lat="44.2322629" lon="8.2976154"><ele>569.0</ele><time>2026-05-03T09:11:13.983Z</time></trkpt><trkpt lat="44.2323772" lon="8.2975189"><ele>569.0</ele><time>2026-05-03T09:11:14.983Z</time></trkpt><trkpt lat="44.2324999" lon="8.2974229"><ele>569.0</ele><time>2026-05-03T09:11:15.983Z</time></trkpt><trkpt lat="44.2326207" lon="8.2973228"><ele>569.5</ele><time>2026-05-03T09:11:16.984Z</time></trkpt><trkpt lat="44.232734" lon="8.2972207"><ele>570.0</ele><time>2026-05-03T09:11:17.983Z</time></trkpt><trkpt lat="44.2328473" lon="8.2971218"><ele>570.5</ele><time>2026-05-03T09:11:18.984Z</time></trkpt><trkpt lat="44.2329649" lon="8.2970183"><ele>571.0</ele><time>2026-05-03T09:11:19.983Z</time></trkpt><trkpt lat="44.2330796" lon="8.2969221"><ele>576.0</ele><time>2026-05-03T09:11:20.984Z</time></trkpt><trkpt lat="44.2331959" lon="8.2968419"><ele>581.0</ele><time>2026-05-03T09:11:21.984Z</time></trkpt><trkpt lat="44.2333007" lon="8.2967784"><ele>586.0</ele><time>2026-05-03T09:11:22.983Z</time></trkpt><trkpt lat="44.2333872" lon="8.296726"><ele>591.0</ele><time>2026-05-03T09:11:23.983Z</time></trkpt><trkpt lat="44.2334605" lon="8.2966833"><ele>596.0</ele><time>2026-05-03T09:11:24.984Z</time></trkpt><trkpt lat="44.2335225" lon="8.2966424"><ele>596.0</ele><time>2026-05-03T09:11:25.984Z</time></trkpt><trkpt lat="44.2335718" lon="8.2965846"><ele>596.0</ele><time>2026-05-03T09:11:26.983Z</time></trkpt><trkpt lat="44.2336095" lon="8.2965032"><ele>596.0</ele><time>2026-05-03T09:11:27.983Z</time></trkpt><trkpt lat="44.2336433" lon="8.296406"><ele>596.0</ele><time>2026-05-03T09:11:28.983Z</time></trkpt><trkpt lat="44.2336701" lon="8.2962749"><ele>596.0</ele><time>2026-05-03T09:11:29.984Z</time></trkpt><trkpt lat="44.2337045" lon="8.2961196"><ele>596.0</ele><time>2026-05-03T09:11:30.983Z</time></trkpt><trkpt lat="44.2337464" lon="8.2959876"><ele>594.6666666666666</ele><time>2026-05-03T09:11:31.984Z</time></trkpt><trkpt lat="44.2337868" lon="8.2958676"><ele>593.3333333333333</ele><time>2026-05-03T09:11:32.984Z</time></trkpt><trkpt lat="44.233822" lon="8.2957626"><ele>592.0</ele><time>2026-05-03T09:11:33.984Z</time></trkpt><trkpt lat="44.2338448" lon="8.2956737"><ele>590.6666666666666</ele><time>2026-05-03T09:11:34.983Z</time></trkpt><trkpt lat="44.2338626" lon="8.2955343"><ele>589.3333333333334</ele><time>2026-05-03T09:11:36.984Z</time></trkpt><trkpt lat="44.2339332" lon="8.2955046"><ele>588.0</ele><time>2026-05-03T09:11:39.983Z</time></trkpt><trkpt lat="44.2339283" lon="8.2956226"><ele>588.0</ele><time>2026-05-03T09:11:41.983Z</time></trkpt><trkpt lat="44.2338939" lon="8.295725"><ele>588.0</ele><time>2026-05-03T09:11:42.983Z</time></trkpt><trkpt lat="44.2338564" lon="8.2958384"><ele>588.0</ele><time>2026-05-03T09:11:43.983Z</time></trkpt><trkpt lat="44.2338224" lon="8.2959575"><ele>588.0</ele><time>2026-05-03T09:11:44.983Z</time></trkpt><trkpt lat="44.2338016" lon="8.2960832"><ele>588.0</ele><time>2026-05-03T09:11:45.983Z</time></trkpt><trkpt lat="44.2337934" lon="8.296218"><ele>588.0</ele><time>2026-05-03T09:11:46.984Z</time></trkpt><trkpt lat="44.2337773" lon="8.2963467"><ele>588.0</ele><time>2026-05-03T09:11:47.984Z</time></trkpt><trkpt lat="44.2337645" lon="8.2964772"><ele>588.0</ele><time>2026-05-03T09:11:48.983Z</time></trkpt><trkpt lat="44.2337539" lon="8.2965939"><ele>588.0</ele><time>2026-05-03T09:11:49.983Z</time></trkpt><trkpt lat="44.2337488" lon="8.29671"><ele>588.0</ele><time>2026-05-03T09:11:50.983Z</time></trkpt><trkpt lat="44.233757" lon="8.2968017"><ele>588.0</ele><time>2026-05-03T09:11:51.983Z</time></trkpt><trkpt lat="44.2337845" lon="8.2968853"><ele>589.6</ele><time>2026-05-03T09:11:52.984Z</time></trkpt><trkpt lat="44.2338298" lon="8.2969596"><ele>591.1999999999999</ele><time>2026-05-03T09:11:53.984Z</time></trkpt><trkpt lat="44.2338999" lon="8.2970248"><ele>592.8</ele><time>2026-05-03T09:11:54.983Z</time></trkpt><trkpt lat="44.233984" lon="8.2970887"><ele>594.4</ele><time>2026-05-03T09:11:55.984Z</time></trkpt><trkpt lat="44.2340681" lon="8.2971673"><ele>596.0</ele><time>2026-05-03T09:11:56.983Z</time></trkpt><trkpt lat="44.2341523" lon="8.2972584"><ele>599.2</ele><time>2026-05-03T09:11:57.984Z</time></trkpt><trkpt lat="44.2342342" lon="8.2973444"><ele>602.4000000000001</ele><time>2026-05-03T09:11:58.983Z</time></trkpt><trkpt lat="44.234319" lon="8.2974373"><ele>605.6</ele><time>2026-05-03T09:11:59.984Z</time></trkpt><trkpt lat="44.2343991" lon="8.2975142"><ele>608.8000000000001</ele><time>2026-05-03T09:12:00.983Z</time></trkpt><trkpt lat="44.2344926" lon="8.297586"><ele>612.0</ele><time>2026-05-03T09:12:01.983Z</time></trkpt><trkpt lat="44.2345922" lon="8.2976418"><ele>612.0</ele><time>2026-05-03T09:12:02.983Z</time></trkpt><trkpt lat="44.234693" lon="8.2976933"><ele>612.0</ele><time>2026-05-03T09:12:03.984Z</time></trkpt><trkpt lat="44.2347837" lon="8.2977428"><ele>612.0</ele><time>2026-05-03T09:12:04.984Z</time></trkpt><trkpt lat="44.234875" lon="8.2978013"><ele>612.0</ele><time>2026-05-03T09:12:05.983Z</time></trkpt><trkpt lat="44.2349698" lon="8.2978724"><ele>612.0</ele><time>2026-05-03T09:12:06.983Z</time></trkpt><trkpt lat="44.2350568" lon="8.2979665"><ele>614.5</ele><time>2026-05-03T09:12:07.983Z</time></trkpt><trkpt lat="44.2351382" lon="8.2980736"><ele>617.0</ele><time>2026-05-03T09:12:08.983Z</time></trkpt><trkpt lat="44.2352195" lon="8.2981887"><ele>619.5</ele><time>2026-05-03T09:12:09.983Z</time></trkpt><trkpt lat="44.2353025" lon="8.2983091"><ele>622.0</ele><time>2026-05-03T09:12:10.983Z</time></trkpt><trkpt lat="44.2353884" lon="8.2984305"><ele>622.0</ele><time>2026-05-03T09:12:11.983Z</time></trkpt><trkpt lat="44.235467" lon="8.2985547"><ele>622.0</ele><time>2026-05-03T09:12:12.983Z</time></trkpt><trkpt lat="44.2355317" lon="8.2986664"><ele>622.0</ele><time>2026-05-03T09:12:13.983Z</time></trkpt><trkpt lat="44.2355869" lon="8.2987652"><ele>622.0</ele><time>2026-05-03T09:12:14.983Z</time></trkpt><trkpt lat="44.2356335" lon="8.2988611"><ele>622.0</ele><time>2026-05-03T09:12:15.984Z</time></trkpt><trkpt lat="44.2356714" lon="8.2989397"><ele>624.2</ele><time>2026-05-03T09:12:16.983Z</time></trkpt><trkpt lat="44.2357265" lon="8.2990425"><ele>626.4000000000001</ele><time>2026-05-03T09:12:18.984Z</time></trkpt><trkpt lat="44.2357982" lon="8.2990255"><ele>628.5999999999999</ele><time>2026-05-03T09:12:21.984Z</time></trkpt><trkpt lat="44.2357654" lon="8.298903"><ele>630.8</ele><time>2026-05-03T09:12:23.983Z</time></trkpt><trkpt lat="44.2357231" lon="8.2988006"><ele>633.0</ele><time>2026-05-03T09:12:24.983Z</time></trkpt><trkpt lat="44.2356783" lon="8.2986616"><ele>630.25</ele><time>2026-05-03T09:12:25.983Z</time></trkpt><trkpt lat="44.2356408" lon="8.2985064"><ele>627.5</ele><time>2026-05-03T09:12:26.983Z</time></trkpt><trkpt lat="44.2356047" lon="8.2983462"><ele>624.75</ele><time>2026-05-03T09:12:27.983Z</time></trkpt><trkpt lat="44.2355578" lon="8.2981864"><ele>622.0</ele><time>2026-05-03T09:12:28.983Z</time></trkpt><trkpt lat="44.2354887" lon="8.2980255"><ele>627.75</ele><time>2026-05-03T09:12:29.984Z</time></trkpt><trkpt lat="44.2354148" lon="8.2978743"><ele>633.5</ele><time>2026-05-03T09:12:30.983Z</time></trkpt><trkpt lat="44.2353473" lon="8.2977273"><ele>639.25</ele><time>2026-05-03T09:12:31.983Z</time></trkpt><trkpt lat="44.235288" lon="8.2975921"><ele>645.0</ele><time>2026-05-03T09:12:32.983Z</time></trkpt><trkpt lat="44.2352337" lon="8.297481"><ele>645.0</ele><time>2026-05-03T09:12:33.984Z</time></trkpt><trkpt lat="44.2351808" lon="8.2973908"><ele>645.0</ele><time>2026-05-03T09:12:34.983Z</time></trkpt><trkpt lat="44.2351318" lon="8.2973152"><ele>645.0</ele><time>2026-05-03T09:12:35.983Z</time></trkpt><trkpt lat="44.2350867" lon="8.2972492"><ele>645.0</ele><time>2026-05-03T09:12:36.983Z</time></trkpt><trkpt lat="44.2350024" lon="8.2971363"><ele>645.0</ele><time>2026-05-03T09:12:38.983Z</time></trkpt><trkpt lat="44.2349266" lon="8.2970262"><ele>645.0</ele><time>2026-05-03T09:12:40.983Z</time></trkpt><trkpt lat="44.2348954" lon="8.2968802"><ele>648.2</ele><time>2026-05-03T09:12:42.984Z</time></trkpt><trkpt lat="44.2349354" lon="8.2967039"><ele>651.4</ele><time>2026-05-03T09:12:44.983Z</time></trkpt><trkpt lat="44.2349854" lon="8.2965922"><ele>654.5999999999999</ele><time>2026-05-03T09:12:45.984Z</time></trkpt><trkpt lat="44.2350299" lon="8.2964635"><ele>657.8</ele><time>2026-05-03T09:12:46.983Z</time></trkpt><trkpt lat="44.2350558" lon="8.2963229"><ele>661.0</ele><time>2026-05-03T09:12:47.984Z</time></trkpt><trkpt lat="44.2350654" lon="8.2961699"><ele>661.0</ele><time>2026-05-03T09:12:48.983Z</time></trkpt><trkpt lat="44.2350754" lon="8.2960237"><ele>661.0</ele><time>2026-05-03T09:12:49.983Z</time></trkpt><trkpt lat="44.2351169" lon="8.2958857"><ele>661.0</ele><time>2026-05-03T09:12:50.983Z</time></trkpt><trkpt lat="44.2351818" lon="8.2957529"><ele>661.0</ele><time>2026-05-03T09:12:51.983Z</time></trkpt><trkpt lat="44.2352659" lon="8.2956155"><ele>664.25</ele><time>2026-05-03T09:12:52.983Z</time></trkpt><trkpt lat="44.2353624" lon="8.2954875"><ele>667.5</ele><time>2026-05-03T09:12:53.983Z</time></trkpt><trkpt lat="44.2354632" lon="8.2953627"><ele>670.75</ele><time>2026-05-03T09:12:54.983Z</time></trkpt><trkpt lat="44.2355655" lon="8.295246"><ele>674.0</ele><time>2026-05-03T09:12:55.983Z</time></trkpt><trkpt lat="44.2356638" lon="8.2951407"><ele>674.0</ele><time>2026-05-03T09:12:56.983Z</time></trkpt><trkpt lat="44.2357665" lon="8.2950319"><ele>674.0</ele><time>2026-05-03T09:12:57.983Z</time></trkpt><trkpt lat="44.2358678" lon="8.2949253"><ele>674.0</ele><time>2026-05-03T09:12:58.984Z</time></trkpt><trkpt lat="44.2359647" lon="8.2948231"><ele>674.0</ele><time>2026-05-03T09:12:59.983Z</time></trkpt><trkpt lat="44.2360611" lon="8.2947314"><ele>668.5</ele><time>2026-05-03T09:13:00.983Z</time></trkpt><trkpt lat="44.2361588" lon="8.2946506"><ele>663.0</ele><time>2026-05-03T09:13:01.984Z</time></trkpt><trkpt lat="44.2362605" lon="8.2945701"><ele>657.5</ele><time>2026-05-03T09:13:02.983Z</time></trkpt><trkpt lat="44.2363629" lon="8.2944934"><ele>652.0</ele><time>2026-05-03T09:13:03.984Z</time></trkpt><trkpt lat="44.2364655" lon="8.2943999"><ele>659.5</ele><time>2026-05-03T09:13:04.983Z</time></trkpt><trkpt lat="44.2365584" lon="8.2942897"><ele>667.0</ele><time>2026-05-03T09:13:05.984Z</time></trkpt><trkpt lat="44.2366396" lon="8.2941732"><ele>674.5</ele><time>2026-05-03T09:13:06.983Z</time></trkpt><trkpt lat="44.2367143" lon="8.2940545"><ele>682.0</ele><time>2026-05-03T09:13:07.984Z</time></trkpt><trkpt lat="44.2367901" lon="8.2939464"><ele>678.8</ele><time>2026-05-03T09:13:08.983Z</time></trkpt><trkpt lat="44.2368827" lon="8.2938454"><ele>675.6</ele><time>2026-05-03T09:13:09.984Z</time></trkpt><trkpt lat="44.2369437" lon="8.2937389"><ele>672.4</ele><time>2026-05-03T09:13:10.983Z</time></trkpt><trkpt lat="44.2369816" lon="8.2936266"><ele>669.1999999999999</ele><time>2026-05-03T09:13:11.983Z</time></trkpt><trkpt lat="44.2370101" lon="8.2935187"><ele>666.0</ele><time>2026-05-03T09:13:12.983Z</time></trkpt><trkpt lat="44.2370434" lon="8.2934098"><ele>666.0</ele><time>2026-05-03T09:13:13.984Z</time></trkpt><trkpt lat="44.2370898" lon="8.2933053"><ele>666.0</ele><time>2026-05-03T09:13:14.984Z</time></trkpt><trkpt lat="44.2371554" lon="8.2932112"><ele>666.0</ele><time>2026-05-03T09:13:15.983Z</time></trkpt><trkpt lat="44.2372382" lon="8.2931312"><ele>666.0</ele><time>2026-05-03T09:13:16.984Z</time></trkpt><trkpt lat="44.2373254" lon="8.2930521"><ele>666.0</ele><time>2026-05-03T09:13:17.983Z</time></trkpt><trkpt lat="44.2374176" lon="8.2929724"><ele>670.1999999999999</ele><time>2026-05-03T09:13:18.982Z</time></trkpt><trkpt lat="44.2375056" lon="8.2928857"><ele>674.4</ele><time>2026-05-03T09:13:19.983Z</time></trkpt><trkpt lat="44.2375862" lon="8.2927962"><ele>678.6</ele><time>2026-05-03T09:13:20.983Z</time></trkpt><trkpt lat="44.2376648" lon="8.2927032"><ele>682.8</ele><time>2026-05-03T09:13:21.983Z</time></trkpt><trkpt lat="44.2377385" lon="8.2926065"><ele>687.0</ele><time>2026-05-03T09:13:22.982Z</time></trkpt><trkpt lat="44.237818" lon="8.2924996"><ele>687.0</ele><time>2026-05-03T09:13:23.982Z</time></trkpt><trkpt lat="44.2378977" lon="8.2923737"><ele>687.0</ele><time>2026-05-03T09:13:24.982Z</time></trkpt><trkpt lat="44.2379606" lon="8.2922197"><ele>687.0</ele><time>2026-05-03T09:13:25.982Z</time></trkpt><trkpt lat="44.2380071" lon="8.2920527"><ele>687.0</ele><time>2026-05-03T09:13:26.982Z</time></trkpt><trkpt lat="44.2380506" lon="8.2918758"><ele>685.25</ele><time>2026-05-03T09:13:27.983Z</time></trkpt><trkpt lat="44.2380984" lon="8.2916955"><ele>683.5</ele><time>2026-05-03T09:13:28.982Z</time></trkpt><trkpt lat="44.2381503" lon="8.2915183"><ele>681.75</ele><time>2026-05-03T09:13:29.982Z</time></trkpt><trkpt lat="44.2382089" lon="8.2913526"><ele>680.0</ele><time>2026-05-03T09:13:30.982Z</time></trkpt><trkpt lat="44.2382751" lon="8.2912088"><ele>686.25</ele><time>2026-05-03T09:13:31.982Z</time></trkpt><trkpt lat="44.2383418" lon="8.2910729"><ele>692.5</ele><time>2026-05-03T09:13:32.982Z</time></trkpt><trkpt lat="44.2383943" lon="8.2909369"><ele>698.75</ele><time>2026-05-03T09:13:33.982Z</time></trkpt><trkpt lat="44.238441" lon="8.2907985"><ele>705.0</ele><time>2026-05-03T09:13:34.982Z</time></trkpt><trkpt lat="44.2384744" lon="8.2906453"><ele>703.75</ele><time>2026-05-03T09:13:35.983Z</time></trkpt><trkpt lat="44.2385104" lon="8.2904857"><ele>702.5</ele><time>2026-05-03T09:13:36.982Z</time></trkpt><trkpt lat="44.2385578" lon="8.2903277"><ele>701.25</ele><time>2026-05-03T09:13:37.982Z</time></trkpt><trkpt lat="44.2386198" lon="8.2901724"><ele>700.0</ele><time>2026-05-03T09:13:38.982Z</time></trkpt><trkpt lat="44.2386748" lon="8.2900162"><ele>700.0</ele><time>2026-05-03T09:13:39.982Z</time></trkpt><trkpt lat="44.2387099" lon="8.289847"><ele>700.0</ele><time>2026-05-03T09:13:40.982Z</time></trkpt><trkpt lat="44.23874" lon="8.2896749"><ele>700.0</ele><time>2026-05-03T09:13:41.982Z</time></trkpt><trkpt lat="44.238773" lon="8.2895064"><ele>700.0</ele><time>2026-05-03T09:13:42.982Z</time></trkpt><trkpt lat="44.2388156" lon="8.2893387"><ele>699.0</ele><time>2026-05-03T09:13:43.983Z</time></trkpt><trkpt lat="44.2388616" lon="8.2891626"><ele>698.0</ele><time>2026-05-03T09:13:44.982Z</time></trkpt><trkpt lat="44.2388977" lon="8.2889852"><ele>697.0</ele><time>2026-05-03T09:13:45.982Z</time></trkpt><trkpt lat="44.2389267" lon="8.288811"><ele>696.0</ele><time>2026-05-03T09:13:46.982Z</time></trkpt><trkpt lat="44.2389468" lon="8.2886397"><ele>704.0</ele><time>2026-05-03T09:13:47.983Z</time></trkpt><trkpt lat="44.2389753" lon="8.2884781"><ele>712.0</ele><time>2026-05-03T09:13:48.982Z</time></trkpt><trkpt lat="44.2390206" lon="8.2883237"><ele>720.0</ele><time>2026-05-03T09:13:49.983Z</time></trkpt><trkpt lat="44.2390808" lon="8.2881785"><ele>728.0</ele><time>2026-05-03T09:13:50.982Z</time></trkpt><trkpt lat="44.2391402" lon="8.2880297"><ele>728.0</ele><time>2026-05-03T09:13:51.983Z</time></trkpt><trkpt lat="44.239204" lon="8.2878818"><ele>728.0</ele><time>2026-05-03T09:13:52.982Z</time></trkpt><trkpt lat="44.2392624" lon="8.2877387"><ele>728.0</ele><time>2026-05-03T09:13:53.982Z</time></trkpt><trkpt lat="44.2393037" lon="8.2875855"><ele>728.0</ele><time>2026-05-03T09:13:54.983Z</time></trkpt><trkpt lat="44.2393267" lon="8.2874245"><ele>728.25</ele><time>2026-05-03T09:13:55.982Z</time></trkpt><trkpt lat="44.2393376" lon="8.2872556"><ele>728.5</ele><time>2026-05-03T09:13:56.983Z</time></trkpt><trkpt lat="44.2393318" lon="8.2870732"><ele>728.75</ele><time>2026-05-03T09:13:57.983Z</time></trkpt><trkpt lat="44.2393382" lon="8.2868902"><ele>729.0</ele><time>2026-05-03T09:13:58.983Z</time></trkpt><trkpt lat="44.239349" lon="8.2867177"><ele>729.0</ele><time>2026-05-03T09:13:59.982Z</time></trkpt><trkpt lat="44.2393561" lon="8.2865517"><ele>729.0</ele><time>2026-05-03T09:14:00.982Z</time></trkpt><trkpt lat="44.2393535" lon="8.286382"><ele>729.0</ele><time>2026-05-03T09:14:01.982Z</time></trkpt><trkpt lat="44.2393306" lon="8.2862173"><ele>729.0</ele><time>2026-05-03T09:14:02.983Z</time></trkpt><trkpt lat="44.2393234" lon="8.286081"><ele>728.6666666666666</ele><time>2026-05-03T09:14:03.983Z</time></trkpt><trkpt lat="44.2393125" lon="8.2859525"><ele>728.3333333333334</ele><time>2026-05-03T09:14:04.982Z</time></trkpt><trkpt lat="44.2393085" lon="8.2858283"><ele>728.0</ele><time>2026-05-03T09:14:05.983Z</time></trkpt><trkpt lat="44.2393136" lon="8.2857151"><ele>727.6666666666667</ele><time>2026-05-03T09:14:06.983Z</time></trkpt><trkpt lat="44.2393417" lon="8.2855983"><ele>727.3333333333334</ele><time>2026-05-03T09:14:07.982Z</time></trkpt><trkpt lat="44.2393733" lon="8.2854751"><ele>727.0</ele><time>2026-05-03T09:14:08.982Z</time></trkpt><trkpt lat="44.2394179" lon="8.2853496"><ele>727.0</ele><time>2026-05-03T09:14:09.983Z</time></trkpt><trkpt lat="44.2394715" lon="8.2852354"><ele>727.0</ele><time>2026-05-03T09:14:10.982Z</time></trkpt><trkpt lat="44.239534" lon="8.2851216"><ele>727.0</ele><time>2026-05-03T09:14:11.983Z</time></trkpt><trkpt lat="44.2396034" lon="8.2850105"><ele>727.0</ele><time>2026-05-03T09:14:12.982Z</time></trkpt><trkpt lat="44.239673" lon="8.2848945"><ele>727.0</ele><time>2026-05-03T09:14:13.983Z</time></trkpt><trkpt lat="44.2397404" lon="8.2847773"><ele>730.0</ele><time>2026-05-03T09:14:14.983Z</time></trkpt><trkpt lat="44.2398071" lon="8.2846636"><ele>733.0</ele><time>2026-05-03T09:14:15.982Z</time></trkpt><trkpt lat="44.2398739" lon="8.2845496"><ele>736.0</ele><time>2026-05-03T09:14:16.982Z</time></trkpt><trkpt lat="44.2399384" lon="8.2844446"><ele>739.0</ele><time>2026-05-03T09:14:17.982Z</time></trkpt><trkpt lat="44.2400032" lon="8.2843454"><ele>742.0</ele><time>2026-05-03T09:14:18.982Z</time></trkpt><trkpt lat="44.2400688" lon="8.2842625"><ele>742.0</ele><time>2026-05-03T09:14:19.982Z</time></trkpt><trkpt lat="44.2401259" lon="8.284193"><ele>742.0</ele><time>2026-05-03T09:14:20.982Z</time></trkpt><trkpt lat="44.240221" lon="8.2840983"><ele>742.0</ele><time>2026-05-03T09:14:22.982Z</time></trkpt><trkpt lat="44.2403169" lon="8.2839864"><ele>742.0</ele><time>2026-05-03T09:14:24.983Z</time></trkpt><trkpt lat="44.2403723" lon="8.2839131"><ele>742.0</ele><time>2026-05-03T09:14:25.982Z</time></trkpt><trkpt lat="44.2404315" lon="8.2838298"><ele>505.0</ele><time>2026-05-03T09:14:26.982Z</time></trkpt><trkpt lat="44.2265154" lon="8.3052579"><ele>505.00000000000006</ele><time>2026-05-03T09:09:46.983Z</time></trkpt><trkpt lat="44.226587" lon="8.305165"><ele>505.0</ele><time>2026-05-03T09:09:47.983Z</time></trkpt><trkpt lat="44.2266439" lon="8.305064"><ele>505.0</ele><time>2026-05-03T09:09:48.983Z</time></trkpt><trkpt lat="44.2266744" lon="8.3049504"><ele>505.0</ele><time>2026-05-03T09:09:49.983Z</time></trkpt><trkpt lat="44.2267153" lon="8.3048467"><ele>505.00000000000006</ele><time>2026-05-03T09:09:50.983Z</time></trkpt><trkpt lat="44.2267594" lon="8.3047564"><ele>505.0</ele><time>2026-05-03T09:09:51.983Z</time></trkpt><trkpt lat="44.2268231" lon="8.3046934"><ele>503.71428571428567</ele><time>2026-05-03T09:09:52.983Z</time></trkpt><trkpt lat="44.2268955" lon="8.3046534"><ele>502.4285714285714</ele><time>2026-05-03T09:09:53.983Z</time></trkpt><trkpt lat="44.2269648" lon="8.304632"><ele>501.1428571428571</ele><time>2026-05-03T09:09:54.983Z</time></trkpt><trkpt lat="44.2270358" lon="8.3046168"><ele>499.8571428571429</ele><time>2026-05-03T09:09:55.983Z</time></trkpt><trkpt lat="44.22711" lon="8.3045958"><ele>498.5714285714286</ele><time>2026-05-03T09:09:56.984Z</time></trkpt><trkpt lat="44.2271818" lon="8.3045752"><ele>497.28571428571433</ele><time>2026-05-03T09:09:57.983Z</time></trkpt><trkpt lat="44.2272567" lon="8.3045529"><ele>496.0</ele><time>2026-05-03T09:09:58.983Z</time></trkpt><trkpt lat="44.2273349" lon="8.3045338"><ele>499.33333333333337</ele><time>2026-05-03T09:09:59.983Z</time></trkpt><trkpt lat="44.2274084" lon="8.3045193"><ele>502.6666666666667</ele><time>2026-05-03T09:10:00.984Z</time></trkpt><trkpt lat="44.2275202" lon="8.3044809"><ele>506.0</ele><time>2026-05-03T09:10:02.983Z</time></trkpt><trkpt lat="44.2275781" lon="8.3044442"><ele>509.33333333333337</ele><time>2026-05-03T09:10:03.983Z</time></trkpt><trkpt lat="44.2276246" lon="8.3043827"><ele>512.6666666666666</ele><time>2026-05-03T09:10:04.984Z</time></trkpt><trkpt lat="44.2276732" lon="8.304299"><ele>516.0</ele><time>2026-05-03T09:10:05.983Z</time></trkpt><trkpt lat="44.2277072" lon="8.3041872"><ele>516.0</ele><time>2026-05-03T09:10:06.983Z</time></trkpt><trkpt lat="44.2277253" lon="8.3040491"><ele>516.0</ele><time>2026-05-03T09:10:07.983Z</time></trkpt><trkpt lat="44.2277455" lon="8.3039075"><ele>516.0</ele><time>2026-05-03T09:10:08.983Z</time></trkpt><trkpt lat="44.2277605" lon="8.3037565"><ele>516.0</ele><time>2026-05-03T09:10:09.983Z</time></trkpt><trkpt lat="44.2277758" lon="8.3036106"><ele>516.0</ele><time>2026-05-03T09:10:10.983Z</time></trkpt><trkpt lat="44.2277961" lon="8.3034657"><ele>515.5</ele><time>2026-05-03T09:10:11.983Z</time></trkpt><trkpt lat="44.2278291" lon="8.3033414"><ele>515.0</ele><time>2026-05-03T09:10:12.984Z</time></trkpt><trkpt lat="44.227873" lon="8.3032356"><ele>514.5</ele><time>2026-05-03T09:10:13.984Z</time></trkpt><trkpt lat="44.227911" lon="8.3031291"><ele>514.0</ele><time>2026-05-03T09:10:14.983Z</time></trkpt><trkpt lat="44.2279325" lon="8.3030166"><ele>513.5</ele><time>2026-05-03T09:10:15.983Z</time></trkpt><trkpt lat="44.2279504" lon="8.302894"><ele>513.0</ele><time>2026-05-03T09:10:16.984Z</time></trkpt><trkpt lat="44.2279685" lon="8.3027542"><ele>511.25</ele><time>2026-05-03T09:10:17.984Z</time></trkpt><trkpt lat="44.2279938" lon="8.302603"><ele>509.5</ele><time>2026-05-03T09:10:18.983Z</time></trkpt><trkpt lat="44.2280291" lon="8.3024404"><ele>507.75</ele><time>2026-05-03T09:10:19.983Z</time></trkpt><trkpt lat="44.2280673" lon="8.3022756"><ele>506.0</ele><time>2026-05-03T09:10:20.983Z</time></trkpt><trkpt lat="44.2281125" lon="8.3021123"><ele>511.6</ele><time>2026-05-03T09:10:21.984Z</time></trkpt><trkpt lat="44.2281638" lon="8.3019517"><ele>517.2</ele><time>2026-05-03T09:10:22.983Z</time></trkpt><trkpt lat="44.2282193" lon="8.301813"><ele>522.8</ele><time>2026-05-03T09:10:23.983Z</time></trkpt><trkpt lat="44.2282691" lon="8.3016874"><ele>528.4</ele><time>2026-05-03T09:10:24.984Z</time></trkpt><trkpt lat="44.2283234" lon="8.3015679"><ele>534.0</ele><time>2026-05-03T09:10:25.983Z</time></trkpt><trkpt lat="44.2283819" lon="8.3014589"><ele>531.25</ele><time>2026-05-03T09:10:26.983Z</time></trkpt><trkpt lat="44.2284591" lon="8.3013551"><ele>528.5</ele><time>2026-05-03T09:10:27.984Z</time></trkpt><trkpt lat="44.2285494" lon="8.3012561"><ele>525.75</ele><time>2026-05-03T09:10:28.983Z</time></trkpt><trkpt lat="44.2286459" lon="8.3011608"><ele>523.0</ele><time>2026-05-03T09:10:29.983Z</time></trkpt><trkpt lat="44.2287449" lon="8.3010737"><ele>523.0</ele><time>2026-05-03T09:10:30.984Z</time></trkpt><trkpt lat="44.2288383" lon="8.3009902"><ele>523.0</ele><time>2026-05-03T09:10:31.983Z</time></trkpt><trkpt lat="44.228935" lon="8.3009088"><ele>523.0</ele><time>2026-05-03T09:10:32.983Z</time></trkpt><trkpt lat="44.2290221" lon="8.3008205"><ele>523.0</ele><time>2026-05-03T09:10:33.983Z</time></trkpt><trkpt lat="44.2290998" lon="8.3007363"><ele>523.0</ele><time>2026-05-03T09:10:34.984Z</time></trkpt><trkpt lat="44.2291804" lon="8.3006515"><ele>526.0</ele><time>2026-05-03T09:10:35.983Z</time></trkpt><trkpt lat="44.2292604" lon="8.3005597"><ele>529.0</ele><time>2026-05-03T09:10:36.983Z</time></trkpt><trkpt lat="44.2293369" lon="8.3004649"><ele>532.0</ele><time>2026-05-03T09:10:37.983Z</time></trkpt><trkpt lat="44.2294174" lon="8.3003609"><ele>535.0</ele><time>2026-05-03T09:10:38.984Z</time></trkpt><trkpt lat="44.2295027" lon="8.3002628"><ele>538.0</ele><time>2026-05-03T09:10:39.983Z</time></trkpt><trkpt lat="44.2295876" lon="8.3001708"><ele>538.0</ele><time>2026-05-03T09:10:40.984Z</time></trkpt><trkpt lat="44.2296677" lon="8.3000679"><ele>538.0</ele><time>2026-05-03T09:10:41.983Z</time></trkpt><trkpt lat="44.2297466" lon="8.2999609"><ele>538.0</ele><time>2026-05-03T09:10:42.983Z</time></trkpt><trkpt lat="44.2298282" lon="8.2998476"><ele>538.0</ele><time>2026-05-03T09:10:43.983Z</time></trkpt><trkpt lat="44.2299012" lon="8.2997397"><ele>538.0</ele><time>2026-05-03T09:10:44.984Z</time></trkpt><trkpt lat="44.2299673" lon="8.2996343"><ele>539.1999999999999</ele><time>2026-05-03T09:10:45.983Z</time></trkpt><trkpt lat="44.2300313" lon="8.2995288"><ele>540.4</ele><time>2026-05-03T09:10:46.984Z</time></trkpt><trkpt lat="44.2300958" lon="8.2994285"><ele>541.5999999999999</ele><time>2026-05-03T09:10:47.984Z</time></trkpt><trkpt lat="44.2301597" lon="8.2993276"><ele>542.8</ele><time>2026-05-03T09:10:48.983Z</time></trkpt><trkpt lat="44.2302281" lon="8.2992389"><ele>544.0</ele><time>2026-05-03T09:10:49.983Z</time></trkpt><trkpt lat="44.230316" lon="8.2991732"><ele>544.0</ele><time>2026-05-03T09:10:50.983Z</time></trkpt><trkpt lat="44.2304185" lon="8.2991344"><ele>544.0</ele><time>2026-05-03T09:10:51.983Z</time></trkpt><trkpt lat="44.230526" lon="8.2991079"><ele>544.0</ele><time>2026-05-03T09:10:52.983Z</time></trkpt><trkpt lat="44.2306365" lon="8.2990794"><ele>544.0</ele><time>2026-05-03T09:10:53.983Z</time></trkpt><trkpt lat="44.2307518" lon="8.2990475"><ele>544.0</ele><time>2026-05-03T09:10:54.984Z</time></trkpt><trkpt lat="44.2308771" lon="8.2990176"><ele>545.8</ele><time>2026-05-03T09:10:55.983Z</time></trkpt><trkpt lat="44.2310001" lon="8.2989772"><ele>547.5999999999999</ele><time>2026-05-03T09:10:56.983Z</time></trkpt><trkpt lat="44.2311118" lon="8.2989319"><ele>549.4</ele><time>2026-05-03T09:10:57.984Z</time></trkpt><trkpt lat="44.2312102" lon="8.2988913"><ele>551.1999999999999</ele><time>2026-05-03T09:10:58.983Z</time></trkpt><trkpt lat="44.2312886" lon="8.2988504"><ele>553.0</ele><time>2026-05-03T09:10:59.983Z</time></trkpt><trkpt lat="44.2313482" lon="8.2987996"><ele>553.0</ele><time>2026-05-03T09:11:00.983Z</time></trkpt><trkpt lat="44.2313997" lon="8.2987336"><ele>553.0</ele><time>2026-05-03T09:11:01.983Z</time></trkpt><trkpt lat="44.231439" lon="8.2986451"><ele>553.0</ele><time>2026-05-03T09:11:02.983Z</time></trkpt><trkpt lat="44.2314633" lon="8.2985406"><ele>553.0</ele><time>2026-05-03T09:11:03.983Z</time></trkpt><trkpt lat="44.2314695" lon="8.2984245"><ele>553.0</ele><time>2026-05-03T09:11:04.983Z</time></trkpt><trkpt lat="44.2314855" lon="8.2982958"><ele>553.0</ele><time>2026-05-03T09:11:05.984Z</time></trkpt><trkpt lat="44.2315135" lon="8.2981736"><ele>557.0</ele><time>2026-05-03T09:11:06.983Z</time></trkpt><trkpt lat="44.2315665" lon="8.2980654"><ele>561.0</ele><time>2026-05-03T09:11:07.984Z</time></trkpt><trkpt lat="44.2316505" lon="8.2979641"><ele>565.0</ele><time>2026-05-03T09:11:08.984Z</time></trkpt><trkpt lat="44.2317637" lon="8.2978794"><ele>569.0</ele><time>2026-05-03T09:11:09.983Z</time></trkpt><trkpt lat="44.2318898" lon="8.2978189"><ele>569.0</ele><time>2026-05-03T09:11:10.983Z</time></trkpt><trkpt lat="44.2320139" lon="8.2977608"><ele>569.0</ele><time>2026-05-03T09:11:11.983Z</time></trkpt><trkpt lat="44.2321412" lon="8.2976972"><ele>569.0</ele><time>2026-05-03T09:11:12.983Z</time></trkpt><trkpt lat="44.2322629" lon="8.2976154"><ele>569.0</ele><time>2026-05-03T09:11:13.983Z</time></trkpt><trkpt lat="44.2323772" lon="8.2975189"><ele>569.5</ele><time>2026-05-03T09:11:14.983Z</time></trkpt><trkpt lat="44.2324999" lon="8.2974229"><ele>570.0</ele><time>2026-05-03T09:11:15.983Z</time></trkpt><trkpt lat="44.2326207" lon="8.2973228"><ele>570.5</ele><time>2026-05-03T09:11:16.984Z</time></trkpt><trkpt lat="44.232734" lon="8.2972207"><ele>571.0</ele><time>2026-05-03T09:11:17.983Z</time></trkpt><trkpt lat="44.2328473" lon="8.2971218"><ele>571.0</ele><time>2026-05-03T09:11:18.984Z</time></trkpt><trkpt lat="44.2329649" lon="8.2970183"><ele>571.0</ele><time>2026-05-03T09:11:19.983Z</time></trkpt><trkpt lat="44.2330796" lon="8.2969221"><ele>571.0</ele><time>2026-05-03T09:11:20.984Z</time></trkpt><trkpt lat="44.2331959" lon="8.2968419"><ele>571.0</ele><time>2026-05-03T09:11:21.984Z</time></trkpt><trkpt lat="44.2333007" lon="8.2967784"><ele>573.8333333333334</ele><time>2026-05-03T09:11:22.983Z</time></trkpt><trkpt lat="44.2333872" lon="8.296726"><ele>576.6666666666667</ele><time>2026-05-03T09:11:23.983Z</time></trkpt><trkpt lat="44.2334605" lon="8.2966833"><ele>579.5</ele><time>2026-05-03T09:11:24.984Z</time></trkpt><trkpt lat="44.2335225" lon="8.2966424"><ele>582.3333333333334</ele><time>2026-05-03T09:11:25.984Z</time></trkpt><trkpt lat="44.2335718" lon="8.2965846"><ele>585.1666666666666</ele><time>2026-05-03T09:11:26.983Z</time></trkpt><trkpt lat="44.2336095" lon="8.2965032"><ele>588.0</ele><time>2026-05-03T09:11:27.983Z</time></trkpt><trkpt lat="44.2336433" lon="8.296406"><ele>588.0</ele><time>2026-05-03T09:11:28.983Z</time></trkpt><trkpt lat="44.2336701" lon="8.2962749"><ele>588.0</ele><time>2026-05-03T09:11:29.984Z</time></trkpt><trkpt lat="44.2337045" lon="8.2961196"><ele>588.0</ele><time>2026-05-03T09:11:30.983Z</time></trkpt><trkpt lat="44.2337464" lon="8.2959876"><ele>588.0</ele><time>2026-05-03T09:11:31.984Z</time></trkpt><trkpt lat="44.2337868" lon="8.2958676"><ele>588.0</ele><time>2026-05-03T09:11:32.984Z</time></trkpt><trkpt lat="44.233822" lon="8.2957626"><ele>588.0</ele><time>2026-05-03T09:11:33.984Z</time></trkpt><trkpt lat="44.2338448" lon="8.2956737"><ele>588.0</ele><time>2026-05-03T09:11:34.983Z</time></trkpt><trkpt lat="44.2338626" lon="8.2955343"><ele>588.0</ele><time>2026-05-03T09:11:36.984Z</time></trkpt><trkpt lat="44.2339332" lon="8.2955046"><ele>588.0</ele><time>2026-05-03T09:11:39.983Z</time></trkpt><trkpt lat="44.2339283" lon="8.2956226"><ele>588.0</ele><time>2026-05-03T09:11:41.983Z</time></trkpt><trkpt lat="44.2338939" lon="8.295725"><ele>588.0</ele><time>2026-05-03T09:11:42.983Z</time></trkpt><trkpt lat="44.2338564" lon="8.2958384"><ele>588.0</ele><time>2026-05-03T09:11:43.983Z</time></trkpt><trkpt lat="44.2338224" lon="8.2959575"><ele>588.0</ele><time>2026-05-03T09:11:44.983Z</time></trkpt><trkpt lat="44.2338016" lon="8.2960832"><ele>588.0</ele><time>2026-05-03T09:11:45.983Z</time></trkpt><trkpt lat="44.2337934" lon="8.296218"><ele>588.0</ele><time>2026-05-03T09:11:46.984Z</time></trkpt><trkpt lat="44.2337773" lon="8.2963467"><ele>588.0</ele><time>2026-05-03T09:11:47.984Z</time></trkpt><trkpt lat="44.2337645" lon="8.2964772"><ele>589.3333333333334</ele><time>2026-05-03T09:11:48.983Z</time></trkpt><trkpt lat="44.2337539" lon="8.2965939"><ele>590.6666666666666</ele><time>2026-05-03T09:11:49.983Z</time></trkpt><trkpt lat="44.2337488" lon="8.29671"><ele>592.0</ele><time>2026-05-03T09:11:50.983Z</time></trkpt><trkpt lat="44.233757" lon="8.2968017"><ele>593.3333333333333</ele><time>2026-05-03T09:11:51.983Z</time></trkpt><trkpt lat="44.2337845" lon="8.2968853"><ele>594.6666666666666</ele><time>2026-05-03T09:11:52.984Z</time></trkpt><trkpt lat="44.2338298" lon="8.2969596"><ele>596.0</ele><time>2026-05-03T09:11:53.984Z</time></trkpt><trkpt lat="44.2338999" lon="8.2970248"><ele>599.2</ele><time>2026-05-03T09:11:54.983Z</time></trkpt><trkpt lat="44.233984" lon="8.2970887"><ele>602.4000000000001</ele><time>2026-05-03T09:11:55.984Z</time></trkpt><trkpt lat="44.2340681" lon="8.2971673"><ele>605.6</ele><time>2026-05-03T09:11:56.983Z</time></trkpt><trkpt lat="44.2341523" lon="8.2972584"><ele>608.8000000000001</ele><time>2026-05-03T09:11:57.984Z</time></trkpt><trkpt lat="44.2342342" lon="8.2973444"><ele>612.0</ele><time>2026-05-03T09:11:58.983Z</time></trkpt><trkpt lat="44.234319" lon="8.2974373"><ele>612.0</ele><time>2026-05-03T09:11:59.984Z</time></trkpt><trkpt lat="44.2343991" lon="8.2975142"><ele>612.0</ele><time>2026-05-03T09:12:00.983Z</time></trkpt><trkpt lat="44.2344926" lon="8.297586"><ele>612.0</ele><time>2026-05-03T09:12:01.983Z</time></trkpt><trkpt lat="44.2345922" lon="8.2976418"><ele>612.0</ele><time>2026-05-03T09:12:02.983Z</time></trkpt><trkpt lat="44.234693" lon="8.2976933"><ele>612.0</ele><time>2026-05-03T09:12:03.984Z</time></trkpt><trkpt lat="44.2347837" lon="8.2977428"><ele>614.0</ele><time>2026-05-03T09:12:04.984Z</time></trkpt><trkpt lat="44.234875" lon="8.2978013"><ele>616.0</ele><time>2026-05-03T09:12:05.983Z</time></trkpt><trkpt lat="44.2349698" lon="8.2978724"><ele>618.0</ele><time>2026-05-03T09:12:06.983Z</time></trkpt><trkpt lat="44.2350568" lon="8.2979665"><ele>620.0</ele><time>2026-05-03T09:12:07.983Z</time></trkpt><trkpt lat="44.2351382" lon="8.2980736"><ele>622.0</ele><time>2026-05-03T09:12:08.983Z</time></trkpt><trkpt lat="44.2352195" lon="8.2981887"><ele>622.0</ele><time>2026-05-03T09:12:09.983Z</time></trkpt><trkpt lat="44.2353025" lon="8.2983091"><ele>622.0</ele><time>2026-05-03T09:12:10.983Z</time></trkpt><trkpt lat="44.2353884" lon="8.2984305"><ele>622.0</ele><time>2026-05-03T09:12:11.983Z</time></trkpt><trkpt lat="44.235467" lon="8.2985547"><ele>622.0</ele><time>2026-05-03T09:12:12.983Z</time></trkpt><trkpt lat="44.2355317" lon="8.2986664"><ele>622.0</ele><time>2026-05-03T09:12:13.983Z</time></trkpt><trkpt lat="44.2355869" lon="8.2987652"><ele>622.0</ele><time>2026-05-03T09:12:14.983Z</time></trkpt><trkpt lat="44.2356335" lon="8.2988611"><ele>622.0</ele><time>2026-05-03T09:12:15.984Z</time></trkpt><trkpt lat="44.2356714" lon="8.2989397"><ele>622.0</ele><time>2026-05-03T09:12:16.983Z</time></trkpt><trkpt lat="44.2357265" lon="8.2990425"><ele>622.0</ele><time>2026-05-03T09:12:18.984Z</time></trkpt><trkpt lat="44.2357982" lon="8.2990255"><ele>622.0</ele><time>2026-05-03T09:12:21.984Z</time></trkpt><trkpt lat="44.2357654" lon="8.298903"><ele>622.0</ele><time>2026-05-03T09:12:23.983Z</time></trkpt><trkpt lat="44.2357231" lon="8.2988006"><ele>622.0</ele><time>2026-05-03T09:12:24.983Z</time></trkpt><trkpt lat="44.2356783" lon="8.2986616"><ele>622.0</ele><time>2026-05-03T09:12:25.983Z</time></trkpt><trkpt lat="44.2356408" lon="8.2985064"><ele>622.0</ele><time>2026-05-03T09:12:26.983Z</time></trkpt><trkpt lat="44.2356047" lon="8.2983462"><ele>622.0</ele><time>2026-05-03T09:12:27.983Z</time></trkpt><trkpt lat="44.2355578" lon="8.2981864"><ele>627.75</ele><time>2026-05-03T09:12:28.983Z</time></trkpt><trkpt lat="44.2354887" lon="8.2980255"><ele>633.5</ele><time>2026-05-03T09:12:29.984Z</time></trkpt><trkpt lat="44.2354148" lon="8.2978743"><ele>639.25</ele><time>2026-05-03T09:12:30.983Z</time></trkpt><trkpt lat="44.2353473" lon="8.2977273"><ele>645.0</ele><time>2026-05-03T09:12:31.983Z</time></trkpt><trkpt lat="44.235288" lon="8.2975921"><ele>645.0</ele><time>2026-05-03T09:12:32.983Z</time></trkpt><trkpt lat="44.2352337" lon="8.297481"><ele>645.0</ele><time>2026-05-03T09:12:33.984Z</time></trkpt><trkpt lat="44.2351808" lon="8.2973908"><ele>645.0</ele><time>2026-05-03T09:12:34.983Z</time></trkpt><trkpt lat="44.2351318" lon="8.2973152"><ele>645.0</ele><time>2026-05-03T09:12:35.983Z</time></trkpt><trkpt lat="44.2350867" lon="8.2972492"><ele>645.0</ele><time>2026-05-03T09:12:36.983Z</time></trkpt><trkpt lat="44.2350024" lon="8.2971363"><ele>645.0</ele><time>2026-05-03T09:12:38.983Z</time></trkpt><trkpt lat="44.2349266" lon="8.2970262"><ele>648.2</ele><time>2026-05-03T09:12:40.983Z</time></trkpt><trkpt lat="44.2348954" lon="8.2968802"><ele>651.4</ele><time>2026-05-03T09:12:42.984Z</time></trkpt><trkpt lat="44.2349354" lon="8.2967039"><ele>654.5999999999999</ele><time>2026-05-03T09:12:44.983Z</time></trkpt><trkpt lat="44.2349854" lon="8.2965922"><ele>657.8</ele><time>2026-05-03T09:12:45.984Z</time></trkpt><trkpt lat="44.2350299" lon="8.2964635"><ele>661.0</ele><time>2026-05-03T09:12:46.983Z</time></trkpt><trkpt lat="44.2350558" lon="8.2963229"><ele>661.0</ele><time>2026-05-03T09:12:47.984Z</time></trkpt><trkpt lat="44.2350654" lon="8.2961699"><ele>661.0</ele><time>2026-05-03T09:12:48.983Z</time></trkpt><trkpt lat="44.2350754" lon="8.2960237"><ele>661.0</ele><time>2026-05-03T09:12:49.983Z</time></trkpt><trkpt lat="44.2351169" lon="8.2958857"><ele>661.0</ele><time>2026-05-03T09:12:50.983Z</time></trkpt><trkpt lat="44.2351818" lon="8.2957529"><ele>661.0</ele><time>2026-05-03T09:12:51.983Z</time></trkpt><trkpt lat="44.2352659" lon="8.2956155"><ele>664.25</ele><time>2026-05-03T09:12:52.983Z</time></trkpt><trkpt lat="44.2353624" lon="8.2954875"><ele>667.5</ele><time>2026-05-03T09:12:53.983Z</time></trkpt><trkpt lat="44.2354632" lon="8.2953627"><ele>670.75</ele><time>2026-05-03T09:12:54.983Z</time></trkpt><trkpt lat="44.2355655" lon="8.295246"><ele>674.0</ele><time>2026-05-03T09:12:55.983Z</time></trkpt><trkpt lat="44.2356638" lon="8.2951407"><ele>674.0</ele><time>2026-05-03T09:12:56.983Z</time></trkpt><trkpt lat="44.2357665" lon="8.2950319"><ele>674.0</ele><time>2026-05-03T09:12:57.983Z</time></trkpt><trkpt lat="44.2358678" lon="8.2949253"><ele>674.0</ele><time>2026-05-03T09:12:58.984Z</time></trkpt><trkpt lat="44.2359647" lon="8.2948231"><ele>674.0</ele><time>2026-05-03T09:12:59.983Z</time></trkpt><trkpt lat="44.2360611" lon="8.2947314"><ele>668.5</ele><time>2026-05-03T09:13:00.983Z</time></trkpt><trkpt lat="44.2361588" lon="8.2946506"><ele>663.0</ele><time>2026-05-03T09:13:01.984Z</time></trkpt><trkpt lat="44.2362605" lon="8.2945701"><ele>657.5</ele><time>2026-05-03T09:13:02.983Z</time></trkpt><trkpt lat="44.2363629" lon="8.2944934"><ele>652.0</ele><time>2026-05-03T09:13:03.984Z</time></trkpt><trkpt lat="44.2364655" lon="8.2943999"><ele>659.5</ele><time>2026-05-03T09:13:04.983Z</time></trkpt><trkpt lat="44.2365584" lon="8.2942897"><ele>667.0</ele><time>2026-05-03T09:13:05.984Z</time></trkpt><trkpt lat="44.2366396" lon="8.2941732"><ele>674.5</ele><time>2026-05-03T09:13:06.983Z</time></trkpt><trkpt lat="44.2367143" lon="8.2940545"><ele>682.0</ele><time>2026-05-03T09:13:07.984Z</time></trkpt><trkpt lat="44.2367901" lon="8.2939464"><ele>678.8</ele><time>2026-05-03T09:13:08.983Z</time></trkpt><trkpt lat="44.2368827" lon="8.2938454"><ele>675.6</ele><time>2026-05-03T09:13:09.984Z</time></trkpt><trkpt lat="44.2369437" lon="8.2937389"><ele>672.4</ele><time>2026-05-03T09:13:10.983Z</time></trkpt><trkpt lat="44.2369816" lon="8.2936266"><ele>669.1999999999999</ele><time>2026-05-03T09:13:11.983Z</time></trkpt><trkpt lat="44.2370101" lon="8.2935187"><ele>666.0</ele><time>2026-05-03T09:13:12.983Z</time></trkpt><trkpt lat="44.2370434" lon="8.2934098"><ele>666.0</ele><time>2026-05-03T09:13:13.984Z</time></trkpt><trkpt lat="44.2370898" lon="8.2933053"><ele>666.0</ele><time>2026-05-03T09:13:14.984Z</time></trkpt><trkpt lat="44.2371554" lon="8.2932112"><ele>666.0</ele><time>2026-05-03T09:13:15.983Z</time></trkpt><trkpt lat="44.2372382" lon="8.2931312"><ele>666.0</ele><time>2026-05-03T09:13:16.984Z</time></trkpt><trkpt lat="44.2373254" lon="8.2930521"><ele>666.0</ele><time>2026-05-03T09:13:17.983Z</time></trkpt><trkpt lat="44.2374176" lon="8.2929724"><ele>670.1999999999999</ele><time>2026-05-03T09:13:18.982Z</time></trkpt><trkpt lat="44.2375056" lon="8.2928857"><ele>674.4</ele><time>2026-05-03T09:13:19.983Z</time></trkpt><trkpt lat="44.2375862" lon="8.2927962"><ele>678.6</ele><time>2026-05-03T09:13:20.983Z</time></trkpt><trkpt lat="44.2376648" lon="8.2927032"><ele>682.8</ele><time>2026-05-03T09:13:21.983Z</time></trkpt><trkpt lat="44.2377385" lon="8.2926065"><ele>687.0</ele><time>2026-05-03T09:13:22.982Z</time></trkpt><trkpt lat="44.237818" lon="8.2924996"><ele>687.0</ele><time>2026-05-03T09:13:23.982Z</time></trkpt><trkpt lat="44.2378977" lon="8.2923737"><ele>687.0</ele><time>2026-05-03T09:13:24.982Z</time></trkpt><trkpt lat="44.2379606" lon="8.2922197"><ele>687.0</ele><time>2026-05-03T09:13:25.982Z</time></trkpt><trkpt lat="44.2380071" lon="8.2920527"><ele>687.0</ele><time>2026-05-03T09:13:26.982Z</time></trkpt><trkpt lat="44.2380506" lon="8.2918758"><ele>685.25</ele><time>2026-05-03T09:13:27.983Z</time></trkpt><trkpt lat="44.2380984" lon="8.2916955"><ele>683.5</ele><time>2026-05-03T09:13:28.982Z</time></trkpt><trkpt lat="44.2381503" lon="8.2915183"><ele>681.75</ele><time>2026-05-03T09:13:29.982Z</time></trkpt><trkpt lat="44.2382089" lon="8.2913526"><ele>680.0</ele><time>2026-05-03T09:13:30.982Z</time></trkpt><trkpt lat="44.2382751" lon="8.2912088"><ele>686.25</ele><time>2026-05-03T09:13:31.982Z</time></trkpt><trkpt lat="44.2383418" lon="8.2910729"><ele>692.5</ele><time>2026-05-03T09:13:32.982Z</time></trkpt><trkpt lat="44.2383943" lon="8.2909369"><ele>698.75</ele><time>2026-05-03T09:13:33.982Z</time></trkpt><trkpt lat="44.238441" lon="8.2907985"><ele>705.0</ele><time>2026-05-03T09:13:34.982Z</time></trkpt><trkpt lat="44.2384744" lon="8.2906453"><ele>703.75</ele><time>2026-05-03T09:13:35.983Z</time></trkpt><trkpt lat="44.2385104" lon="8.2904857"><ele>702.5</ele><time>2026-05-03T09:13:36.982Z</time></trkpt><trkpt lat="44.2385578" lon="8.2903277"><ele>701.25</ele><time>2026-05-03T09:13:37.982Z</time></trkpt><trkpt lat="44.2386198" lon="8.2901724"><ele>700.0</ele><time>2026-05-03T09:13:38.982Z</time></trkpt><trkpt lat="44.2386748" lon="8.2900162"><ele>700.0</ele><time>2026-05-03T09:13:39.982Z</time></trkpt><trkpt lat="44.2387099" lon="8.289847"><ele>700.0</ele><time>2026-05-03T09:13:40.982Z</time></trkpt><trkpt lat="44.23874" lon="8.2896749"><ele>700.0</ele><time>2026-05-03T09:13:41.982Z</time></trkpt><trkpt lat="44.238773" lon="8.2895064"><ele>700.0</ele><time>2026-05-03T09:13:42.982Z</time></trkpt><trkpt lat="44.2388156" lon="8.2893387"><ele>699.0</ele><time>2026-05-03T09:13:43.983Z</time></trkpt><trkpt lat="44.2388616" lon="8.2891626"><ele>698.0</ele><time>2026-05-03T09:13:44.982Z</time></trkpt><trkpt lat="44.2388977" lon="8.2889852"><ele>697.0</ele><time>2026-05-03T09:13:45.982Z</time></trkpt><trkpt lat="44.2389267" lon="8.288811"><ele>696.0</ele><time>2026-05-03T09:13:46.982Z</time></trkpt><trkpt lat="44.2389468" lon="8.2886397"><ele>704.0</ele><time>2026-05-03T09:13:47.983Z</time></trkpt><trkpt lat="44.2389753" lon="8.2884781"><ele>712.0</ele><time>2026-05-03T09:13:48.982Z</time></trkpt><trkpt lat="44.2390206" lon="8.2883237"><ele>720.0</ele><time>2026-05-03T09:13:49.983Z</time></trkpt><trkpt lat="44.2390808" lon="8.2881785"><ele>728.0</ele><time>2026-05-03T09:13:50.982Z</time></trkpt><trkpt lat="44.2391402" lon="8.2880297"><ele>728.0</ele><time>2026-05-03T09:13:51.983Z</time></trkpt><trkpt lat="44.239204" lon="8.2878818"><ele>728.0</ele><time>2026-05-03T09:13:52.982Z</time></trkpt><trkpt lat="44.2392624" lon="8.2877387"><ele>728.0</ele><time>2026-05-03T09:13:53.982Z</time></trkpt><trkpt lat="44.2393037" lon="8.2875855"><ele>728.0</ele><time>2026-05-03T09:13:54.983Z</time></trkpt><trkpt lat="44.2393267" lon="8.2874245"><ele>728.25</ele><time>2026-05-03T09:13:55.982Z</time></trkpt><trkpt lat="44.2393376" lon="8.2872556"><ele>728.5</ele><time>2026-05-03T09:13:56.983Z</time></trkpt><trkpt lat="44.2393318" lon="8.2870732"><ele>728.75</ele><time>2026-05-03T09:13:57.983Z</time></trkpt><trkpt lat="44.2393382" lon="8.2868902"><ele>729.0</ele><time>2026-05-03T09:13:58.983Z</time></trkpt><trkpt lat="44.239349" lon="8.2867177"><ele>729.0</ele><time>2026-05-03T09:13:59.982Z</time></trkpt><trkpt lat="44.2393561" lon="8.2865517"><ele>729.0</ele><time>2026-05-03T09:14:00.982Z</time></trkpt><trkpt lat="44.2393535" lon="8.286382"><ele>729.0</ele><time>2026-05-03T09:14:01.982Z</time></trkpt><trkpt lat="44.2393306" lon="8.2862173"><ele>729.0</ele><time>2026-05-03T09:14:02.983Z</time></trkpt><trkpt lat="44.2393234" lon="8.286081"><ele>728.6666666666666</ele><time>2026-05-03T09:14:03.983Z</time></trkpt><trkpt lat="44.2393125" lon="8.2859525"><ele>728.3333333333334</ele><time>2026-05-03T09:14:04.982Z</time></trkpt><trkpt lat="44.2393085" lon="8.2858283"><ele>728.0</ele><time>2026-05-03T09:14:05.983Z</time></trkpt><trkpt lat="44.2393136" lon="8.2857151"><ele>727.6666666666667</ele><time>2026-05-03T09:14:06.983Z</time></trkpt><trkpt lat="44.2393417" lon="8.2855983"><ele>727.3333333333334</ele><time>2026-05-03T09:14:07.982Z</time></trkpt><trkpt lat="44.2393733" lon="8.2854751"><ele>727.0</ele><time>2026-05-03T09:14:08.982Z</time></trkpt><trkpt lat="44.2394179" lon="8.2853496"><ele>727.0</ele><time>2026-05-03T09:14:09.983Z</time></trkpt><trkpt lat="44.2394715" lon="8.2852354"><ele>727.0</ele><time>2026-05-03T09:14:10.982Z</time></trkpt><trkpt lat="44.239534" lon="8.2851216"><ele>727.0</ele><time>2026-05-03T09:14:11.983Z</time></trkpt><trkpt lat="44.2396034" lon="8.2850105"><ele>727.0</ele><time>2026-05-03T09:14:12.982Z</time></trkpt><trkpt lat="44.239673" lon="8.2848945"><ele>727.0</ele><time>2026-05-03T09:14:13.983Z</time></trkpt><trkpt lat="44.2397404" lon="8.2847773"><ele>730.0</ele><time>2026-05-03T09:14:14.983Z</time></trkpt><trkpt lat="44.2398071" lon="8.2846636"><ele>733.0</ele><time>2026-05-03T09:14:15.982Z</time></trkpt><trkpt lat="44.2398739" lon="8.2845496"><ele>736.0</ele><time>2026-05-03T09:14:16.982Z</time></trkpt><trkpt lat="44.2399384" lon="8.2844446"><ele>739.0</ele><time>2026-05-03T09:14:17.982Z</time></trkpt><trkpt lat="44.2400032" lon="8.2843454"><ele>742.0</ele><time>2026-05-03T09:14:18.982Z</time></trkpt><trkpt lat="44.2400688" lon="8.2842625"><ele>742.0</ele><time>2026-05-03T09:14:19.982Z</time></trkpt><trkpt lat="44.2401259" lon="8.284193"><ele>742.0</ele><time>2026-05-03T09:14:20.982Z</time></trkpt><trkpt lat="44.240221" lon="8.2840983"><ele>742.0</ele><time>2026-05-03T09:14:22.982Z</time></trkpt><trkpt lat="44.2403169" lon="8.2839864"><ele>742.0</ele><time>2026-05-03T09:14:24.983Z</time></trkpt><trkpt lat="44.2403723" lon="8.2839131"><ele>742.0</ele><time>2026-05-03T09:14:25.982Z</time></trkpt><trkpt lat="44.2404315" lon="8.2838298"><ele>739.1666666666667</ele><time>2026-05-03T09:14:26.982Z</time></trkpt><trkpt lat="44.2404932" lon="8.2837539"><ele>736.3333333333334</ele><time>2026-05-03T09:14:27.982Z</time></trkpt><trkpt lat="44.2405583" lon="8.2836784"><ele>733.5</ele><time>2026-05-03T09:14:28.982Z</time></trkpt><trkpt lat="44.2406281" lon="8.2836191"><ele>730.6666666666666</ele><time>2026-05-03T09:14:29.982Z</time></trkpt><trkpt lat="44.2407083" lon="8.2835702"><ele>727.8333333333333</ele><time>2026-05-03T09:14:30.983Z</time></trkpt><trkpt lat="44.2407866" lon="8.2835148"><ele>725.0</ele><time>2026-05-03T09:14:31.982Z</time></trkpt><trkpt lat="44.2408651" lon="8.2834479"><ele>729.8</ele><time>2026-05-03T09:14:32.982Z</time></trkpt><trkpt lat="44.2409357" lon="8.2833618"><ele>734.6</ele><time>2026-05-03T09:14:33.983Z</time></trkpt><trkpt lat="44.2409931" lon="8.2832515"><ele>739.4000000000001</ele><time>2026-05-03T09:14:34.982Z</time></trkpt><trkpt lat="44.241052" lon="8.2831249"><ele>744.2</ele><time>2026-05-03T09:14:35.982Z</time></trkpt><trkpt lat="44.2411115" lon="8.2829985"><ele>749.0</ele><time>2026-05-03T09:14:36.983Z</time></trkpt><trkpt lat="44.2411677" lon="8.2828784"><ele>749.0</ele><time>2026-05-03T09:14:37.982Z</time></trkpt><trkpt lat="44.241223" lon="8.2827518"><ele>749.0</ele><time>2026-05-03T09:14:38.983Z</time></trkpt><trkpt lat="44.241278" lon="8.2826147"><ele>749.0</ele><time>2026-05-03T09:14:39.982Z</time></trkpt><trkpt lat="44.2413353" lon="8.2824768"><ele>749.0</ele><time>2026-05-03T09:14:40.983Z</time></trkpt><trkpt lat="44.2413926" lon="8.2823596"><ele>749.0</ele><time>2026-05-03T09:14:41.982Z</time></trkpt><trkpt lat="44.2414516" lon="8.282249"><ele>753.6</ele><time>2026-05-03T09:14:42.982Z</time></trkpt><trkpt lat="44.2415213" lon="8.2821448"><ele>758.2</ele><time>2026-05-03T09:14:43.982Z</time></trkpt><trkpt lat="44.2416043" lon="8.2820463"><ele>762.8000000000001</ele><time>2026-05-03T09:14:44.982Z</time></trkpt><trkpt lat="44.2416964" lon="8.281955"><ele>767.4000000000001</ele><time>2026-05-03T09:14:45.982Z</time></trkpt><trkpt lat="44.2418" lon="8.2818702"><ele>772.0</ele><time>2026-05-03T09:14:46.982Z</time></trkpt><trkpt lat="44.2418954" lon="8.2817929"><ele>772.0</ele><time>2026-05-03T09:14:47.982Z</time></trkpt><trkpt lat="44.2419934" lon="8.281727"><ele>772.0</ele><time>2026-05-03T09:14:48.982Z</time></trkpt><trkpt lat="44.2420908" lon="8.2816594"><ele>772.0</ele><time>2026-05-03T09:14:49.982Z</time></trkpt><trkpt lat="44.2421861" lon="8.2815951"><ele>772.0</ele><time>2026-05-03T09:14:50.982Z</time></trkpt><trkpt lat="44.2422732" lon="8.2815357"><ele>772.0</ele><time>2026-05-03T09:14:51.982Z</time></trkpt><trkpt lat="44.2423526" lon="8.2814678"><ele>778.2</ele><time>2026-05-03T09:14:52.982Z</time></trkpt><trkpt lat="44.2424186" lon="8.2813925"><ele>784.4000000000001</ele><time>2026-05-03T09:14:53.982Z</time></trkpt><trkpt lat="44.2424779" lon="8.2813299"><ele>790.5999999999999</ele><time>2026-05-03T09:14:54.982Z</time></trkpt><trkpt lat="44.2425525" lon="8.28121"><ele>796.8</ele><time>2026-05-03T09:14:56.983Z</time></trkpt><trkpt lat="44.2425753" lon="8.2810678"><ele>803.0</ele><time>2026-05-03T09:14:58.983Z</time></trkpt><trkpt lat="44.242545" lon="8.2809248"><ele>803.0</ele><time>2026-05-03T09:15:00.982Z</time></trkpt><trkpt lat="44.2424392" lon="8.2808702"><ele>803.0</ele><time>2026-05-03T09:15:02.982Z</time></trkpt><trkpt lat="44.242363" lon="8.2808485"><ele>803.0</ele><time>2026-05-03T09:15:03.983Z</time></trkpt><trkpt lat="44.2422318" lon="8.280849"><ele>803.0</ele><time>2026-05-03T09:15:04.983Z</time></trkpt><trkpt lat="44.2420725" lon="8.2808513"><ele>801.6666666666667</ele><time>2026-05-03T09:15:05.982Z</time></trkpt><trkpt lat="44.2419111" lon="8.2808345"><ele>800.3333333333333</ele><time>2026-05-03T09:15:06.983Z</time></trkpt><trkpt lat="44.2417536" lon="8.2807937"><ele>799.0</ele><time>2026-05-03T09:15:07.983Z</time></trkpt><trkpt lat="44.2416117" lon="8.2807358"><ele>799.0</ele><time>2026-05-03T09:15:08.982Z</time></trkpt><trkpt lat="44.24147" lon="8.2806844"><ele>799.0</ele><time>2026-05-03T09:15:09.982Z</time></trkpt><trkpt lat="44.2413394" lon="8.2806213"><ele>799.0</ele><time>2026-05-03T09:15:10.983Z</time></trkpt><trkpt lat="44.241205" lon="8.2805885"><ele>799.0</ele><time>2026-05-03T09:15:11.982Z</time></trkpt><trkpt lat="44.2410855" lon="8.2805543"><ele>800.0</ele><time>2026-05-03T09:15:12.983Z</time></trkpt><trkpt lat="44.240966" lon="8.2805274"><ele>801.0</ele><time>2026-05-03T09:15:13.982Z</time></trkpt><trkpt lat="44.2408569" lon="8.2805015"><ele>802.0</ele><time>2026-05-03T09:15:14.982Z</time></trkpt><trkpt lat="44.2407951" lon="8.2804219"><ele>803.0</ele><time>2026-05-03T09:15:15.982Z</time></trkpt><trkpt lat="44.2407414" lon="8.2803233"><ele>804.0</ele><time>2026-05-03T09:15:16.982Z</time></trkpt><trkpt lat="44.2407193" lon="8.2802051"><ele>804.0</ele><time>2026-05-03T09:15:17.983Z</time></trkpt><trkpt lat="44.240718" lon="8.2800798"><ele>804.0</ele><time>2026-05-03T09:15:18.982Z</time></trkpt><trkpt lat="44.2407408" lon="8.2799272"><ele>804.0</ele><time>2026-05-03T09:15:19.983Z</time></trkpt><trkpt lat="44.2407852" lon="8.2797631"><ele>804.0</ele><time>2026-05-03T09:15:20.982Z</time></trkpt><trkpt lat="44.2408431" lon="8.2795926"><ele>805.6</ele><time>2026-05-03T09:15:21.982Z</time></trkpt><trkpt lat="44.2408968" lon="8.2794422"><ele>807.2</ele><time>2026-05-03T09:15:22.982Z</time></trkpt><trkpt lat="44.2409344" lon="8.2793055"><ele>808.8000000000001</ele><time>2026-05-03T09:15:23.983Z</time></trkpt><trkpt lat="44.2409571" lon="8.2791769"><ele>810.4000000000001</ele><time>2026-05-03T09:15:24.982Z</time></trkpt><trkpt lat="44.2409707" lon="8.2790419"><ele>812.0</ele><time>2026-05-03T09:15:25.983Z</time></trkpt><trkpt lat="44.2409616" lon="8.2789137"><ele>816.25</ele><time>2026-05-03T09:15:26.982Z</time></trkpt><trkpt lat="44.2409161" lon="8.2787862"><ele>820.5</ele><time>2026-05-03T09:15:27.983Z</time></trkpt><trkpt lat="44.2408557" lon="8.2786456"><ele>824.75</ele><time>2026-05-03T09:15:28.982Z</time></trkpt><trkpt lat="44.2407695" lon="8.2785198"><ele>829.0</ele><time>2026-05-03T09:15:29.983Z</time></trkpt><trkpt lat="44.2406895" lon="8.2783985"><ele>828.6</ele><time>2026-05-03T09:15:30.983Z</time></trkpt><trkpt lat="44.2406193" lon="8.278275"><ele>828.2</ele><time>2026-05-03T09:15:31.983Z</time></trkpt><trkpt lat="44.240556" lon="8.278166"><ele>827.8000000000001</ele><time>2026-05-03T09:15:32.982Z</time></trkpt><trkpt lat="44.240491" lon="8.2780739"><ele>827.4000000000001</ele><time>2026-05-03T09:15:33.982Z</time></trkpt><trkpt lat="44.2404259" lon="8.2779824"><ele>827.0</ele><time>2026-05-03T09:15:34.982Z</time></trkpt><trkpt lat="44.2403526" lon="8.2779007"><ele>827.0</ele><time>2026-05-03T09:15:35.983Z</time></trkpt><trkpt lat="44.240281" lon="8.2778042"><ele>827.0</ele><time>2026-05-03T09:15:36.983Z</time></trkpt><trkpt lat="44.2402077" lon="8.2777072"><ele>827.0</ele><time>2026-05-03T09:15:37.982Z</time></trkpt><trkpt lat="44.2401192" lon="8.2776197"><ele>827.0</ele><time>2026-05-03T09:15:38.982Z</time></trkpt><trkpt lat="44.240032" lon="8.2775251"><ele>827.0</ele><time>2026-05-03T09:15:39.982Z</time></trkpt><trkpt lat="44.2399448" lon="8.2774358"><ele>827.0</ele><time>2026-05-03T09:15:40.982Z</time></trkpt><trkpt lat="44.2398604" lon="8.2773448"><ele>827.0</ele><time>2026-05-03T09:15:41.982Z</time></trkpt><trkpt lat="44.2397922" lon="8.2772423"><ele>827.0</ele><time>2026-05-03T09:15:42.982Z</time></trkpt><trkpt lat="44.2397317" lon="8.2771317"><ele>827.0</ele><time>2026-05-03T09:15:43.982Z</time></trkpt><trkpt lat="44.239674" lon="8.2770148"><ele>827.0</ele><time>2026-05-03T09:15:44.982Z</time></trkpt><trkpt lat="44.2396051" lon="8.276913"><ele>829.0</ele><time>2026-05-03T09:15:45.982Z</time></trkpt><trkpt lat="44.2395276" lon="8.276828"><ele>831.0</ele><time>2026-05-03T09:15:46.982Z</time></trkpt><trkpt lat="44.2394362" lon="8.2767667"><ele>833.0</ele><time>2026-05-03T09:15:47.982Z</time></trkpt><trkpt lat="44.2393398" lon="8.2767069"><ele>835.0</ele><time>2026-05-03T09:15:48.983Z</time></trkpt><trkpt lat="44.2392425" lon="8.2766476"><ele>837.0</ele><time>2026-05-03T09:15:49.983Z</time></trkpt><trkpt lat="44.239141" lon="8.2766033"><ele>837.0</ele><time>2026-05-03T09:15:50.982Z</time></trkpt><trkpt lat="44.2390438" lon="8.2765769"><ele>837.0</ele><time>2026-05-03T09:15:51.982Z</time></trkpt><trkpt lat="44.2389509" lon="8.2765654"><ele>837.0</ele><time>2026-05-03T09:15:52.982Z</time></trkpt><trkpt lat="44.238858" lon="8.2765605"><ele>837.0</ele><time>2026-05-03T09:15:53.982Z</time></trkpt><trkpt lat="44.2387634" lon="8.276561"><ele>837.0</ele><time>2026-05-03T09:15:54.982Z</time></trkpt><trkpt lat="44.2386617" lon="8.2765325"><ele>838.0</ele><time>2026-05-03T09:15:55.982Z</time></trkpt><trkpt lat="44.2385577" lon="8.2765135"><ele>839.0</ele><time>2026-05-03T09:15:56.982Z</time></trkpt><trkpt lat="44.2384474" lon="8.2764971"><ele>840.0</ele><time>2026-05-03T09:15:57.983Z</time></trkpt><trkpt lat="44.2383486" lon="8.2764761"><ele>841.0</ele><time>2026-05-03T09:15:58.982Z</time></trkpt><trkpt lat="44.2382657" lon="8.2764509"><ele>842.0</ele><time>2026-05-03T09:15:59.983Z</time></trkpt><trkpt lat="44.2382032" lon="8.276406"><ele>842.0000000000001</ele><time>2026-05-03T09:16:00.982Z</time></trkpt><trkpt lat="44.2381625" lon="8.2763388"><ele>842.0</ele><time>2026-05-03T09:16:01.983Z</time></trkpt><trkpt lat="44.2381378" lon="8.2762575"><ele>842.0</ele><time>2026-05-03T09:16:02.983Z</time></trkpt><trkpt lat="44.2381403" lon="8.2761486"><ele>842.0</ele><time>2026-05-03T09:16:03.983Z</time></trkpt><trkpt lat="44.2381596" lon="8.2760265"><ele>842.0000000000001</ele><time>2026-05-03T09:16:04.982Z</time></trkpt><trkpt lat="44.238208" lon="8.2759004"><ele>842.0</ele><time>2026-05-03T09:16:05.982Z</time></trkpt><trkpt lat="44.2382743" lon="8.2757647"><ele>842.0</ele><time>2026-05-03T09:16:06.982Z</time></trkpt><trkpt lat="44.2383475" lon="8.2756347"><ele>842.0</ele><time>2026-05-03T09:16:07.982Z</time></trkpt><trkpt lat="44.2384112" lon="8.2755179"><ele>842.0</ele><time>2026-05-03T09:16:08.982Z</time></trkpt><trkpt lat="44.2384729" lon="8.2754055"><ele>842.0</ele><time>2026-05-03T09:16:09.983Z</time></trkpt><trkpt lat="44.2385394" lon="8.2752938"><ele>842.0</ele><time>2026-05-03T09:16:10.982Z</time></trkpt><trkpt lat="44.2386212" lon="8.2751767"><ele>840.25</ele><time>2026-05-03T09:16:11.983Z</time></trkpt><trkpt lat="44.2387105" lon="8.2750587"><ele>838.5</ele><time>2026-05-03T09:16:12.982Z</time></trkpt><trkpt lat="44.2388009" lon="8.2749357"><ele>836.75</ele><time>2026-05-03T09:16:13.982Z</time></trkpt><trkpt lat="44.2388839" lon="8.2748042"><ele>835.0</ele><time>2026-05-03T09:16:14.982Z</time></trkpt><trkpt lat="44.2389629" lon="8.274666"><ele>839.25</ele><time>2026-05-03T09:16:15.982Z</time></trkpt><trkpt lat="44.2390342" lon="8.2745354"><ele>843.5</ele><time>2026-05-03T09:16:16.982Z</time></trkpt><trkpt lat="44.2391106" lon="8.2744174"><ele>847.75</ele><time>2026-05-03T09:16:17.982Z</time></trkpt><trkpt lat="44.2391925" lon="8.2743045"><ele>852.0</ele><time>2026-05-03T09:16:18.982Z</time></trkpt><trkpt lat="44.2392747" lon="8.2741877"><ele>852.0</ele><time>2026-05-03T09:16:19.982Z</time></trkpt><trkpt lat="44.2393532" lon="8.2740645"><ele>852.0</ele><time>2026-05-03T09:16:20.983Z</time></trkpt><trkpt lat="44.2394394" lon="8.2739382"><ele>852.0</ele><time>2026-05-03T09:16:21.982Z</time></trkpt><trkpt lat="44.2395289" lon="8.2738046"><ele>852.0</ele><time>2026-05-03T09:16:22.983Z</time></trkpt><trkpt lat="44.2396087" lon="8.2736695"><ele>849.25</ele><time>2026-05-03T09:16:23.982Z</time></trkpt><trkpt lat="44.2396912" lon="8.2735421"><ele>846.5</ele><time>2026-05-03T09:16:24.983Z</time></trkpt><trkpt lat="44.2397591" lon="8.2734005"><ele>843.75</ele><time>2026-05-03T09:16:25.982Z</time></trkpt><trkpt lat="44.2398332" lon="8.2732701"><ele>841.0</ele><time>2026-05-03T09:16:26.983Z</time></trkpt><trkpt lat="44.2399007" lon="8.273135"><ele>844.4</ele><time>2026-05-03T09:16:27.982Z</time></trkpt><trkpt lat="44.2399673" lon="8.2730134"><ele>847.8</ele><time>2026-05-03T09:16:28.982Z</time></trkpt><trkpt lat="44.240028" lon="8.2729248"><ele>851.1999999999999</ele><time>2026-05-03T09:16:29.982Z</time></trkpt><trkpt lat="44.2400949" lon="8.272847"><ele>854.5999999999999</ele><time>2026-05-03T09:16:30.982Z</time></trkpt><trkpt lat="44.2401604" lon="8.2727731"><ele>858.0</ele><time>2026-05-03T09:16:31.983Z</time></trkpt><trkpt lat="44.2402248" lon="8.2726992"><ele>858.0</ele><time>2026-05-03T09:16:32.982Z</time></trkpt><trkpt lat="44.2403037" lon="8.2726259"><ele>858.0</ele><time>2026-05-03T09:16:33.982Z</time></trkpt><trkpt lat="44.240392" lon="8.2725536"><ele>858.0</ele><time>2026-05-03T09:16:34.982Z</time></trkpt><trkpt lat="44.2404876" lon="8.2724789"><ele>858.0</ele><time>2026-05-03T09:16:35.982Z</time></trkpt><trkpt lat="44.2405831" lon="8.2723926"><ele>858.0</ele><time>2026-05-03T09:16:36.983Z</time></trkpt><trkpt lat="44.2406892" lon="8.2722977"><ele>860.0</ele><time>2026-05-03T09:16:37.982Z</time></trkpt><trkpt lat="44.2407938" lon="8.2721949"><ele>862.0</ele><time>2026-05-03T09:16:38.982Z</time></trkpt><trkpt lat="44.2408955" lon="8.2720864"><ele>864.0</ele><time>2026-05-03T09:16:39.983Z</time></trkpt><trkpt lat="44.2409896" lon="8.2719767"><ele>866.0</ele><time>2026-05-03T09:16:40.983Z</time></trkpt><trkpt lat="44.2410712" lon="8.2718626"><ele>866.0</ele><time>2026-05-03T09:16:41.982Z</time></trkpt><trkpt lat="44.2411522" lon="8.2717463"><ele>865.9999999999999</ele><time>2026-05-03T09:16:42.982Z</time></trkpt><trkpt lat="44.2412319" lon="8.2716334"><ele>865.9999999999999</ele><time>2026-05-03T09:16:43.982Z</time></trkpt><trkpt lat="44.2413023" lon="8.2715344"><ele>866.0</ele><time>2026-05-03T09:16:44.982Z</time></trkpt><trkpt lat="44.2413744" lon="8.2714371"><ele>866.0</ele><time>2026-05-03T09:16:45.982Z</time></trkpt><trkpt lat="44.2414511" lon="8.2713521"><ele>867.1666666666667</ele><time>2026-05-03T09:16:46.982Z</time></trkpt><trkpt lat="44.2415278" lon="8.2712824"><ele>868.3333333333334</ele><time>2026-05-03T09:16:47.982Z</time></trkpt><trkpt lat="44.2416034" lon="8.2712438"><ele>869.5</ele><time>2026-05-03T09:16:48.983Z</time></trkpt><trkpt lat="44.2416641" lon="8.2711832"><ele>870.6666666666667</ele><time>2026-05-03T09:16:49.982Z</time></trkpt><trkpt lat="44.2417186" lon="8.2711239"><ele>871.8333333333334</ele><time>2026-05-03T09:16:50.982Z</time></trkpt><trkpt lat="44.2417767" lon="8.2710654"><ele>873.0</ele><time>2026-05-03T09:16:51.983Z</time></trkpt><trkpt lat="44.2418459" lon="8.2710132"><ele>873.0</ele><time>2026-05-03T09:16:52.982Z</time></trkpt><trkpt lat="44.2419275" lon="8.2709664"><ele>873.0</ele><time>2026-05-03T09:16:53.983Z</time></trkpt><trkpt lat="44.2420151" lon="8.2709228"><ele>873.0</ele><time>2026-05-03T09:16:54.982Z</time></trkpt><trkpt lat="44.2421058" lon="8.2708789"><ele>873.0</ele><time>2026-05-03T09:16:55.982Z</time></trkpt><trkpt lat="44.242196" lon="8.2708359"><ele>873.0</ele><time>2026-05-03T09:16:56.983Z</time></trkpt><trkpt lat="44.2422959" lon="8.2707966"><ele>872.0</ele><time>2026-05-03T09:16:57.982Z</time></trkpt><trkpt lat="44.242394" lon="8.2707608"><ele>871.0</ele><time>2026-05-03T09:16:58.982Z</time></trkpt><trkpt lat="44.2424947" lon="8.2707119"><ele>870.0</ele><time>2026-05-03T09:16:59.983Z</time></trkpt><trkpt lat="44.2426021" lon="8.2706566"><ele>869.0</ele><time>2026-05-03T09:17:00.982Z</time></trkpt><trkpt lat="44.2426941" lon="8.2705809"><ele>868.0</ele><time>2026-05-03T09:17:01.983Z</time></trkpt><trkpt lat="44.2427746" lon="8.2704932"><ele>868.0</ele><time>2026-05-03T09:17:02.982Z</time></trkpt><trkpt lat="44.2428617" lon="8.2703957"><ele>868.0</ele><time>2026-05-03T09:17:03.983Z</time></trkpt><trkpt lat="44.2429532" lon="8.2702817"><ele>868.0</ele><time>2026-05-03T09:17:04.983Z</time></trkpt><trkpt lat="44.2430371" lon="8.2701659"><ele>868.0</ele><time>2026-05-03T09:17:05.982Z</time></trkpt><trkpt lat="44.2431278" lon="8.2700653"><ele>869.4</ele><time>2026-05-03T09:17:06.983Z</time></trkpt><trkpt lat="44.2432259" lon="8.2699797"><ele>870.8</ele><time>2026-05-03T09:17:07.982Z</time></trkpt><trkpt lat="44.243317" lon="8.269896"><ele>872.2</ele><time>2026-05-03T09:17:08.982Z</time></trkpt><trkpt lat="44.2433994" lon="8.2698118"><ele>873.6</ele><time>2026-05-03T09:17:09.982Z</time></trkpt><trkpt lat="44.2434768" lon="8.2697158"><ele>875.0</ele><time>2026-05-03T09:17:10.982Z</time></trkpt><trkpt lat="44.2435622" lon="8.2696215"><ele>875.0</ele><time>2026-05-03T09:17:11.982Z</time></trkpt><trkpt lat="44.2436373" lon="8.269505"><ele>875.0</ele><time>2026-05-03T09:17:12.982Z</time></trkpt><trkpt lat="44.2437079" lon="8.2693931"><ele>875.0</ele><time>2026-05-03T09:17:13.982Z</time></trkpt><trkpt lat="44.2437656" lon="8.2692642"><ele>875.0</ele><time>2026-05-03T09:17:14.983Z</time></trkpt><trkpt lat="44.2438123" lon="8.2691318"><ele>875.0</ele><time>2026-05-03T09:17:15.983Z</time></trkpt><trkpt lat="44.2438601" lon="8.2690116"><ele>873.2</ele><time>2026-05-03T09:17:16.983Z</time></trkpt><trkpt lat="44.2439119" lon="8.2688949"><ele>871.4</ele><time>2026-05-03T09:17:17.982Z</time></trkpt><trkpt lat="44.2439689" lon="8.2687742"><ele>869.5999999999999</ele><time>2026-05-03T09:17:18.983Z</time></trkpt><trkpt lat="44.2440193" lon="8.2686521"><ele>867.8</ele><time>2026-05-03T09:17:19.982Z</time></trkpt><trkpt lat="44.2440674" lon="8.2685229"><ele>866.0</ele><time>2026-05-03T09:17:20.982Z</time></trkpt><trkpt lat="44.2441077" lon="8.2683952"><ele>871.8</ele><time>2026-05-03T09:17:21.983Z</time></trkpt><trkpt lat="44.2441545" lon="8.2682683"><ele>877.5999999999999</ele><time>2026-05-03T09:17:22.983Z</time></trkpt><trkpt lat="44.2442125" lon="8.2681464"><ele>883.4</ele><time>2026-05-03T09:17:23.982Z</time></trkpt><trkpt lat="44.2442789" lon="8.2680295"><ele>889.2</ele><time>2026-05-03T09:17:24.982Z</time></trkpt><trkpt lat="44.2443498" lon="8.2679213"><ele>895.0</ele><time>2026-05-03T09:17:25.983Z</time></trkpt><trkpt lat="44.2444074" lon="8.2678263"><ele>894.9999999999999</ele><time>2026-05-03T09:17:26.982Z</time></trkpt><trkpt lat="44.2444548" lon="8.2677481"><ele>895.0</ele><time>2026-05-03T09:17:27.982Z</time></trkpt><trkpt lat="44.2445643" lon="8.267635"><ele>895.0</ele><time>2026-05-03T09:17:29.982Z</time></trkpt><trkpt lat="44.2446402" lon="8.2676054"><ele>895.0</ele><time>2026-05-03T09:17:30.982Z</time></trkpt><trkpt lat="44.2447152" lon="8.2675926"><ele>894.9999999999999</ele><time>2026-05-03T09:17:31.982Z</time></trkpt><trkpt lat="44.2447925" lon="8.2675887"><ele>895.0</ele><time>2026-05-03T09:17:32.982Z</time></trkpt><trkpt lat="44.2448729" lon="8.2675827"><ele>897.9999999999999</ele><time>2026-05-03T09:17:33.982Z</time></trkpt><trkpt lat="44.2449468" lon="8.2675552"><ele>901.0</ele><time>2026-05-03T09:17:34.982Z</time></trkpt><trkpt lat="44.2450081" lon="8.2674968"><ele>904.0</ele><time>2026-05-03T09:17:35.983Z</time></trkpt><trkpt lat="44.2450663" lon="8.2674031"><ele>907.0</ele><time>2026-05-03T09:17:36.982Z</time></trkpt><trkpt lat="44.2451179" lon="8.2672871"><ele>909.9999999999999</ele><time>2026-05-03T09:17:37.983Z</time></trkpt><trkpt lat="44.2451725" lon="8.2671574"><ele>913.0</ele><time>2026-05-03T09:17:38.982Z</time></trkpt><trkpt lat="44.2452329" lon="8.2670158"><ele>913.0</ele><time>2026-05-03T09:17:39.982Z</time></trkpt><trkpt lat="44.2452915" lon="8.2668651"><ele>913.0</ele><time>2026-05-03T09:17:40.983Z</time></trkpt><trkpt lat="44.2453534" lon="8.2667157"><ele>913.0</ele><time>2026-05-03T09:17:41.982Z</time></trkpt><trkpt lat="44.2454157" lon="8.26657"><ele>913.0</ele><time>2026-05-03T09:17:42.983Z</time></trkpt><trkpt lat="44.2454673" lon="8.2664256"><ele>911.0</ele><time>2026-05-03T09:17:43.982Z</time></trkpt><trkpt lat="44.2455055" lon="8.2662689"><ele>909.0</ele><time>2026-05-03T09:17:44.982Z</time></trkpt><trkpt lat="44.2455185" lon="8.2661025"><ele>907.0</ele><time>2026-05-03T09:17:45.982Z</time></trkpt><trkpt lat="44.2455364" lon="8.2659565"><ele>905.0</ele><time>2026-05-03T09:17:46.982Z</time></trkpt><trkpt lat="44.2455665" lon="8.2658191"><ele>903.0</ele><time>2026-05-03T09:17:47.983Z</time></trkpt><trkpt lat="44.2456082" lon="8.2656793"><ele>909.4</ele><time>2026-05-03T09:17:48.983Z</time></trkpt><trkpt lat="44.2456492" lon="8.2655467"><ele>915.8</ele><time>2026-05-03T09:17:49.983Z</time></trkpt><trkpt lat="44.2456942" lon="8.2654097"><ele>922.2</ele><time>2026-05-03T09:17:50.983Z</time></trkpt><trkpt lat="44.245745" lon="8.2652703"><ele>928.6</ele><time>2026-05-03T09:17:51.982Z</time></trkpt><trkpt lat="44.2458037" lon="8.2651283"><ele>935.0</ele><time>2026-05-03T09:17:52.982Z</time></trkpt><trkpt lat="44.2458659" lon="8.2649929"><ele>935.0</ele><time>2026-05-03T09:17:53.982Z</time></trkpt><trkpt lat="44.2459333" lon="8.26486"><ele>935.0</ele><time>2026-05-03T09:17:54.983Z</time></trkpt><trkpt lat="44.2460042" lon="8.2647354"><ele>935.0</ele><time>2026-05-03T09:17:55.982Z</time></trkpt><trkpt lat="44.2460726" lon="8.2646055"><ele>935.0</ele><time>2026-05-03T09:17:56.983Z</time></trkpt><trkpt lat="44.2461391" lon="8.2644714"><ele>932.75</ele><time>2026-05-03T09:17:57.983Z</time></trkpt><trkpt lat="44.2461984" lon="8.2643337"><ele>930.5</ele><time>2026-05-03T09:17:58.982Z</time></trkpt><trkpt lat="44.246253" lon="8.2641873"><ele>928.25</ele><time>2026-05-03T09:17:59.982Z</time></trkpt><trkpt lat="44.2463107" lon="8.2640436"><ele>926.0</ele><time>2026-05-03T09:18:00.982Z</time></trkpt><trkpt lat="44.246371" lon="8.2639013"><ele>923.0</ele><time>2026-05-03T09:18:01.982Z</time></trkpt><trkpt lat="44.2464308" lon="8.2637605"><ele>920.0</ele><time>2026-05-03T09:18:02.983Z</time></trkpt><trkpt lat="44.2464898" lon="8.2636168"><ele>917.0</ele><time>2026-05-03T09:18:03.983Z</time></trkpt><trkpt lat="44.2465461" lon="8.2634737"><ele>914.0</ele><time>2026-05-03T09:18:04.982Z</time></trkpt><trkpt lat="44.2466066" lon="8.2633334"><ele>917.2</ele><time>2026-05-03T09:18:05.982Z</time></trkpt><trkpt lat="44.2466607" lon="8.2631947"><ele>920.4000000000001</ele><time>2026-05-03T09:18:06.982Z</time></trkpt><trkpt lat="44.2467092" lon="8.2630746"><ele>923.6</ele><time>2026-05-03T09:18:07.982Z</time></trkpt><trkpt lat="44.2467623" lon="8.2629591"><ele>926.8</ele><time>2026-05-03T09:18:08.983Z</time></trkpt><trkpt lat="44.2468177" lon="8.2628457"><ele>930.0</ele><time>2026-05-03T09:18:09.982Z</time></trkpt><trkpt lat="44.2468674" lon="8.262742"><ele>930.0</ele><time>2026-05-03T09:18:10.983Z</time></trkpt><trkpt lat="44.2469121" lon="8.2626364"><ele>930.0</ele><time>2026-05-03T09:18:11.982Z</time></trkpt><trkpt lat="44.2469616" lon="8.2625394"><ele>930.0</ele><time>2026-05-03T09:18:12.983Z</time></trkpt><trkpt lat="44.2470114" lon="8.2624528"><ele>930.0</ele><time>2026-05-03T09:18:13.982Z</time></trkpt><trkpt lat="44.2470652" lon="8.26237"><ele>930.0</ele><time>2026-05-03T09:18:14.982Z</time></trkpt><trkpt lat="44.2471201" lon="8.2622873"><ele>930.0</ele><time>2026-05-03T09:18:15.982Z</time></trkpt><trkpt lat="44.247174" lon="8.262191"><ele>929.0</ele><time>2026-05-03T09:18:16.983Z</time></trkpt><trkpt lat="44.2472246" lon="8.2620842"><ele>928.0</ele><time>2026-05-03T09:18:17.982Z</time></trkpt><trkpt lat="44.2472688" lon="8.2619619"><ele>927.0</ele><time>2026-05-03T09:18:18.983Z</time></trkpt><trkpt lat="44.2473043" lon="8.2618307"><ele>926.0</ele><time>2026-05-03T09:18:19.982Z</time></trkpt><trkpt lat="44.2473392" lon="8.2616871"><ele>925.0</ele><time>2026-05-03T09:18:20.983Z</time></trkpt><trkpt lat="44.2473788" lon="8.261542"><ele>928.8</ele><time>2026-05-03T09:18:21.982Z</time></trkpt><trkpt lat="44.2474202" lon="8.2613929"><ele>932.6</ele><time>2026-05-03T09:18:22.982Z</time></trkpt><trkpt lat="44.2474476" lon="8.2612371"><ele>936.4000000000001</ele><time>2026-05-03T09:18:23.982Z</time></trkpt><trkpt lat="44.2474581" lon="8.2610849"><ele>940.2</ele><time>2026-05-03T09:18:24.983Z</time></trkpt><trkpt lat="44.2474544" lon="8.2609408"><ele>944.0</ele><time>2026-05-03T09:18:25.982Z</time></trkpt><trkpt lat="44.2474383" lon="8.2607949"><ele>944.0</ele><time>2026-05-03T09:18:26.982Z</time></trkpt><trkpt lat="44.2474079" lon="8.2606392"><ele>944.0</ele><time>2026-05-03T09:18:27.982Z</time></trkpt><trkpt lat="44.2473701" lon="8.2604678"><ele>944.0</ele><time>2026-05-03T09:18:28.982Z</time></trkpt><trkpt lat="44.2473437" lon="8.2602818"><ele>944.0</ele><time>2026-05-03T09:18:29.982Z</time></trkpt><trkpt lat="44.2473119" lon="8.26009"><ele>939.75</ele><time>2026-05-03T09:18:30.983Z</time></trkpt><trkpt lat="44.2472842" lon="8.2598943"><ele>935.5</ele><time>2026-05-03T09:18:31.982Z</time></trkpt><trkpt lat="44.2472648" lon="8.2596956"><ele>931.25</ele><time>2026-05-03T09:18:32.982Z</time></trkpt><trkpt lat="44.2472564" lon="8.2594911"><ele>927.0</ele><time>2026-05-03T09:18:33.982Z</time></trkpt><trkpt lat="44.2472457" lon="8.2592892"><ele>927.0</ele><time>2026-05-03T09:18:34.982Z</time></trkpt><trkpt lat="44.2472276" lon="8.2591048"><ele>927.0</ele><time>2026-05-03T09:18:35.982Z</time></trkpt><trkpt lat="44.2472066" lon="8.2589175"><ele>927.0</ele><time>2026-05-03T09:18:36.982Z</time></trkpt><trkpt lat="44.2471865" lon="8.2587208"><ele>927.0</ele><time>2026-05-03T09:18:37.983Z</time></trkpt><trkpt lat="44.2471631" lon="8.2585217"><ele>928.5</ele><time>2026-05-03T09:18:38.983Z</time></trkpt><trkpt lat="44.2471311" lon="8.2583301"><ele>930.0</ele><time>2026-05-03T09:18:39.982Z</time></trkpt><trkpt lat="44.2470948" lon="8.2581479"><ele>931.5</ele><time>2026-05-03T09:18:40.982Z</time></trkpt><trkpt lat="44.247065" lon="8.2579647"><ele>933.0</ele><time>2026-05-03T09:18:41.982Z</time></trkpt><trkpt lat="44.2470381" lon="8.257786"><ele>934.5</ele><time>2026-05-03T09:18:42.982Z</time></trkpt><trkpt lat="44.2470137" lon="8.2576115"><ele>936.0</ele><time>2026-05-03T09:18:43.983Z</time></trkpt><trkpt lat="44.2469978" lon="8.2574312"><ele>937.5</ele><time>2026-05-03T09:18:44.982Z</time></trkpt><trkpt lat="44.2469964" lon="8.2572429"><ele>939.0</ele><time>2026-05-03T09:18:45.982Z</time></trkpt><trkpt lat="44.2469936" lon="8.2570497"><ele>939.75</ele><time>2026-05-03T09:18:46.982Z</time></trkpt><trkpt lat="44.2469847" lon="8.2568548"><ele>940.5</ele><time>2026-05-03T09:18:47.982Z</time></trkpt><trkpt lat="44.2469798" lon="8.2566745"><ele>941.25</ele><time>2026-05-03T09:18:48.983Z</time></trkpt><trkpt lat="44.2469878" lon="8.2565026"><ele>942.0</ele><time>2026-05-03T09:18:49.982Z</time></trkpt><trkpt lat="44.2470027" lon="8.2563418"><ele>942.0</ele><time>2026-05-03T09:18:50.983Z</time></trkpt><trkpt lat="44.2470219" lon="8.2561793"><ele>942.0</ele><time>2026-05-03T09:18:51.983Z</time></trkpt><trkpt lat="44.2470438" lon="8.2560234"><ele>942.0</ele><time>2026-05-03T09:18:52.982Z</time></trkpt><trkpt lat="44.2470735" lon="8.2558612"><ele>942.0</ele><time>2026-05-03T09:18:53.982Z</time></trkpt><trkpt lat="44.2471084" lon="8.2557028"><ele>942.5</ele><time>2026-05-03T09:18:54.982Z</time></trkpt><trkpt lat="44.2471439" lon="8.2555476"><ele>943.0</ele><time>2026-05-03T09:18:55.982Z</time></trkpt><trkpt lat="44.2471703" lon="8.2553906"><ele>943.5</ele><time>2026-05-03T09:18:56.983Z</time></trkpt><trkpt lat="44.2471942" lon="8.2552316"><ele>944.0</ele><time>2026-05-03T09:18:57.982Z</time></trkpt><trkpt lat="44.2472003" lon="8.2550745"><ele>944.0</ele><time>2026-05-03T09:18:58.982Z</time></trkpt><trkpt lat="44.2471899" lon="8.2549312"><ele>944.0000000000001</ele><time>2026-05-03T09:18:59.982Z</time></trkpt><trkpt lat="44.2471786" lon="8.2548095"><ele>944.0000000000001</ele><time>2026-05-03T09:19:00.982Z</time></trkpt><trkpt lat="44.2471535" lon="8.254688"><ele>944.0</ele><time>2026-05-03T09:19:01.982Z</time></trkpt><trkpt lat="44.2471072" lon="8.2545772"><ele>944.0</ele><time>2026-05-03T09:19:02.982Z</time></trkpt><trkpt lat="44.2470441" lon="8.25447"><ele>944.3333333333334</ele><time>2026-05-03T09:19:03.983Z</time></trkpt><trkpt lat="44.2469899" lon="8.2543649"><ele>944.6666666666667</ele><time>2026-05-03T09:19:04.983Z</time></trkpt><trkpt lat="44.2469465" lon="8.2542752"><ele>945.0</ele><time>2026-05-03T09:19:05.982Z</time></trkpt><trkpt lat="44.2469153" lon="8.2541835"><ele>945.3333333333333</ele><time>2026-05-03T09:19:06.983Z</time></trkpt><trkpt lat="44.2468947" lon="8.2540932"><ele>945.6666666666666</ele><time>2026-05-03T09:19:07.982Z</time></trkpt><trkpt lat="44.2468766" lon="8.2539841"><ele>946.0</ele><time>2026-05-03T09:19:08.982Z</time></trkpt><trkpt lat="44.2468698" lon="8.2538644"><ele>946.0</ele><time>2026-05-03T09:19:09.983Z</time></trkpt><trkpt lat="44.2468694" lon="8.2537263"><ele>946.0</ele><time>2026-05-03T09:19:10.982Z</time></trkpt><trkpt lat="44.2468778" lon="8.2535669"><ele>946.0</ele><time>2026-05-03T09:19:11.982Z</time></trkpt><trkpt lat="44.24689" lon="8.2533842"><ele>946.0</ele><time>2026-05-03T09:19:12.982Z</time></trkpt><trkpt lat="44.2468983" lon="8.2532144"><ele>947.1999999999999</ele><time>2026-05-03T09:19:13.983Z</time></trkpt><trkpt lat="44.2469001" lon="8.2530562"><ele>948.3999999999999</ele><time>2026-05-03T09:19:14.983Z</time></trkpt><trkpt lat="44.2469014" lon="8.2529096"><ele>949.6</ele><time>2026-05-03T09:19:15.982Z</time></trkpt><trkpt lat="44.2468967" lon="8.2527649"><ele>950.8</ele><time>2026-05-03T09:19:16.983Z</time></trkpt><trkpt lat="44.246865" lon="8.2526227"><ele>952.0</ele><time>2026-05-03T09:19:17.982Z</time></trkpt><trkpt lat="44.2468246" lon="8.2524836"><ele>952.0</ele><time>2026-05-03T09:19:18.982Z</time></trkpt><trkpt lat="44.2467717" lon="8.2523516"><ele>952.0</ele><time>2026-05-03T09:19:19.982Z</time></trkpt><trkpt lat="44.2466941" lon="8.2522351"><ele>952.0</ele><time>2026-05-03T09:19:20.983Z</time></trkpt><trkpt lat="44.2466077" lon="8.2521293"><ele>952.0</ele><time>2026-05-03T09:19:21.983Z</time></trkpt><trkpt lat="44.2465286" lon="8.2520095"><ele>952.0</ele><time>2026-05-03T09:19:22.983Z</time></trkpt><trkpt lat="44.2464425" lon="8.2518984"><ele>952.0</ele><time>2026-05-03T09:19:23.983Z</time></trkpt><trkpt lat="44.2463588" lon="8.2517887"><ele>952.0</ele><time>2026-05-03T09:19:24.983Z</time></trkpt><trkpt lat="44.2462878" lon="8.2516793"><ele>952.0</ele><time>2026-05-03T09:19:25.982Z</time></trkpt><trkpt lat="44.2462222" lon="8.2515603"><ele>952.0</ele><time>2026-05-03T09:19:26.982Z</time></trkpt><trkpt lat="44.2461676" lon="8.2514195"><ele>952.0</ele><time>2026-05-03T09:19:27.982Z</time></trkpt><trkpt lat="44.2461313" lon="8.2512623"><ele>952.0</ele><time>2026-05-03T09:19:28.982Z</time></trkpt><trkpt lat="44.2460988" lon="8.2510998"><ele>952.0</ele><time>2026-05-03T09:19:29.982Z</time></trkpt><trkpt lat="44.2460627" lon="8.2509371"><ele>952.0</ele><time>2026-05-03T09:19:30.982Z</time></trkpt><trkpt lat="44.2460186" lon="8.2507754"><ele>953.5</ele><time>2026-05-03T09:19:31.982Z</time></trkpt><trkpt lat="44.2459653" lon="8.2506196"><ele>955.0</ele><time>2026-05-03T09:19:32.982Z</time></trkpt><trkpt lat="44.2459013" lon="8.25047"><ele>956.5</ele><time>2026-05-03T09:19:33.983Z</time></trkpt><trkpt lat="44.245825" lon="8.2503293"><ele>958.0</ele><time>2026-05-03T09:19:34.982Z</time></trkpt><trkpt lat="44.2457539" lon="8.2501885"><ele>958.0</ele><time>2026-05-03T09:19:35.983Z</time></trkpt><trkpt lat="44.245679" lon="8.2500469"><ele>958.0</ele><time>2026-05-03T09:19:36.983Z</time></trkpt><trkpt lat="44.2455999" lon="8.2499017"><ele>958.0</ele><time>2026-05-03T09:19:37.982Z</time></trkpt><trkpt lat="44.2455237" lon="8.2497572"><ele>958.0</ele><time>2026-05-03T09:19:38.983Z</time></trkpt><trkpt lat="44.2454526" lon="8.2496154"><ele>956.25</ele><time>2026-05-03T09:19:39.982Z</time></trkpt><trkpt lat="44.2453859" lon="8.2494711"><ele>954.5</ele><time>2026-05-03T09:19:40.982Z</time></trkpt><trkpt lat="44.2453115" lon="8.2493304"><ele>952.75</ele><time>2026-05-03T09:19:41.983Z</time></trkpt><trkpt lat="44.2452438" lon="8.2491916"><ele>951.0</ele><time>2026-05-03T09:19:42.982Z</time></trkpt><trkpt lat="44.2451679" lon="8.2490518"><ele>951.25</ele><time>2026-05-03T09:19:43.983Z</time></trkpt><trkpt lat="44.2450886" lon="8.2489149"><ele>951.5</ele><time>2026-05-03T09:19:44.983Z</time></trkpt><trkpt lat="44.2449994" lon="8.2487901"><ele>951.75</ele><time>2026-05-03T09:19:45.983Z</time></trkpt><trkpt lat="44.2448864" lon="8.2487021"><ele>952.0</ele><time>2026-05-03T09:19:46.982Z</time></trkpt><trkpt lat="44.2447576" lon="8.2486185"><ele>950.0</ele><time>2026-05-03T09:19:47.983Z</time></trkpt><trkpt lat="44.2446412" lon="8.2485427"><ele>948.0</ele><time>2026-05-03T09:19:48.982Z</time></trkpt><trkpt lat="44.2445414" lon="8.2484585"><ele>946.0</ele><time>2026-05-03T09:19:49.983Z</time></trkpt><trkpt lat="44.2444558" lon="8.2483483"><ele>944.0</ele><time>2026-05-03T09:19:50.983Z</time></trkpt><trkpt lat="44.2443846" lon="8.2482007"><ele>945.75</ele><time>2026-05-03T09:19:51.982Z</time></trkpt><trkpt lat="44.2443275" lon="8.2480394"><ele>947.5</ele><time>2026-05-03T09:19:52.982Z</time></trkpt><trkpt lat="44.2442833" lon="8.2478627"><ele>949.25</ele><time>2026-05-03T09:19:53.982Z</time></trkpt><trkpt lat="44.2442483" lon="8.2476766"><ele>951.0</ele><time>2026-05-03T09:19:54.982Z</time></trkpt><trkpt lat="44.2442178" lon="8.247485"><ele>951.0</ele><time>2026-05-03T09:19:55.982Z</time></trkpt><trkpt lat="44.2441919" lon="8.2472991"><ele>951.0</ele><time>2026-05-03T09:19:56.983Z</time></trkpt><trkpt lat="44.2441639" lon="8.2471205"><ele>951.0</ele><time>2026-05-03T09:19:57.983Z</time></trkpt><trkpt lat="44.2441373" lon="8.2469391"><ele>951.0</ele><time>2026-05-03T09:19:58.982Z</time></trkpt><trkpt lat="44.244114" lon="8.2467568"><ele>951.0</ele><time>2026-05-03T09:19:59.982Z</time></trkpt><trkpt lat="44.244104" lon="8.246571"><ele>951.0</ele><time>2026-05-03T09:20:00.982Z</time></trkpt><trkpt lat="44.2441041" lon="8.2463771"><ele>951.0</ele><time>2026-05-03T09:20:01.982Z</time></trkpt><trkpt lat="44.2441002" lon="8.2461958"><ele>951.0</ele><time>2026-05-03T09:20:02.982Z</time></trkpt><trkpt lat="44.2440893" lon="8.2460261"><ele>951.0</ele><time>2026-05-03T09:20:03.982Z</time></trkpt><trkpt lat="44.2440723" lon="8.2458557"><ele>951.0</ele><time>2026-05-03T09:20:04.983Z</time></trkpt><trkpt lat="44.2440467" lon="8.2456872"><ele>951.0</ele><time>2026-05-03T09:20:05.982Z</time></trkpt><trkpt lat="44.2440163" lon="8.2455194"><ele>951.0</ele><time>2026-05-03T09:20:06.982Z</time></trkpt><trkpt lat="44.2439879" lon="8.2453553"><ele>943.5</ele><time>2026-05-03T09:20:07.982Z</time></trkpt><trkpt lat="44.2439596" lon="8.24519"><ele>936.0</ele><time>2026-05-03T09:20:08.982Z</time></trkpt><trkpt lat="44.2439404" lon="8.2450213"><ele>928.5</ele><time>2026-05-03T09:20:09.982Z</time></trkpt><trkpt lat="44.2439356" lon="8.244852"><ele>921.0</ele><time>2026-05-03T09:20:10.982Z</time></trkpt><trkpt lat="44.2439326" lon="8.2446764"><ele>920.75</ele><time>2026-05-03T09:20:11.983Z</time></trkpt><trkpt lat="44.2439321" lon="8.2444954"><ele>920.5</ele><time>2026-05-03T09:20:12.982Z</time></trkpt><trkpt lat="44.2439342" lon="8.2443155"><ele>920.25</ele><time>2026-05-03T09:20:13.982Z</time></trkpt><trkpt lat="44.2439326" lon="8.244133"><ele>920.0</ele><time>2026-05-03T09:20:14.982Z</time></trkpt><trkpt lat="44.2439319" lon="8.2439485"><ele>919.75</ele><time>2026-05-03T09:20:15.983Z</time></trkpt><trkpt lat="44.2439335" lon="8.2437636"><ele>919.5</ele><time>2026-05-03T09:20:16.983Z</time></trkpt><trkpt lat="44.2439399" lon="8.2435782"><ele>919.25</ele><time>2026-05-03T09:20:17.983Z</time></trkpt><trkpt lat="44.2439556" lon="8.2433973"><ele>919.0</ele><time>2026-05-03T09:20:18.983Z</time></trkpt><trkpt lat="44.2439802" lon="8.2432142"><ele>923.5</ele><time>2026-05-03T09:20:19.983Z</time></trkpt><trkpt lat="44.2440061" lon="8.2430256"><ele>928.0</ele><time>2026-05-03T09:20:20.982Z</time></trkpt><trkpt lat="44.2440334" lon="8.2428435"><ele>932.5</ele><time>2026-05-03T09:20:21.982Z</time></trkpt><trkpt lat="44.2440711" lon="8.2426591"><ele>937.0</ele><time>2026-05-03T09:20:22.983Z</time></trkpt><trkpt lat="44.2441096" lon="8.2424846"><ele>937.0</ele><time>2026-05-03T09:20:23.983Z</time></trkpt><trkpt lat="44.2441378" lon="8.2423595"><ele>937.0</ele><time>2026-05-03T09:20:24.983Z</time></trkpt><trkpt lat="44.2441837" lon="8.242186"><ele>937.0</ele><time>2026-05-03T09:20:25.982Z</time></trkpt><trkpt lat="44.2442333" lon="8.2420157"><ele>937.0</ele><time>2026-05-03T09:20:26.982Z</time></trkpt><trkpt lat="44.2442866" lon="8.2418658"><ele>935.8</ele><time>2026-05-03T09:20:27.982Z</time></trkpt><trkpt lat="44.2443289" lon="8.2417297"><ele>934.6</ele><time>2026-05-03T09:20:28.982Z</time></trkpt><trkpt lat="44.2443573" lon="8.2415986"><ele>933.3999999999999</ele><time>2026-05-03T09:20:29.982Z</time></trkpt><trkpt lat="44.244384" lon="8.2414755"><ele>932.1999999999999</ele><time>2026-05-03T09:20:30.982Z</time></trkpt><trkpt lat="44.2444048" lon="8.2413593"><ele>931.0</ele><time>2026-05-03T09:20:31.983Z</time></trkpt><trkpt lat="44.2444206" lon="8.2412465"><ele>930.8333333333333</ele><time>2026-05-03T09:20:32.983Z</time></trkpt><trkpt lat="44.244425" lon="8.2411421"><ele>930.6666666666666</ele><time>2026-05-03T09:20:33.982Z</time></trkpt><trkpt lat="44.2444181" lon="8.2410506"><ele>930.5</ele><time>2026-05-03T09:20:34.983Z</time></trkpt><trkpt lat="44.2443861" lon="8.2409263"><ele>930.3333333333333</ele><time>2026-05-03T09:20:36.982Z</time></trkpt><trkpt lat="44.244324" lon="8.2408782"><ele>930.1666666666666</ele><time>2026-05-03T09:20:39.982Z</time></trkpt><trkpt lat="44.2443983" lon="8.2408395"><ele>930.0</ele><time>2026-05-03T09:29:38.981Z</time></trkpt><trkpt lat="44.244475" lon="8.24076"><ele>930.0</ele><time>2026-05-03T09:29:58.981Z</time></trkpt><trkpt lat="44.2445117" lon="8.240685"><ele>930.0</ele><time>2026-05-03T09:30:00.98Z</time></trkpt><trkpt lat="44.24451" lon="8.2405517"><ele>930.0</ele><time>2026-05-03T09:30:02.98Z</time></trkpt><trkpt lat="44.2445117" lon="8.240365"><ele>930.0</ele><time>2026-05-03T09:30:04.981Z</time></trkpt><trkpt lat="44.244515" lon="8.2402483"><ele>930.0</ele><time>2026-05-03T09:30:05.98Z</time></trkpt><trkpt lat="44.24452" lon="8.24013"><ele>931.0</ele><time>2026-05-03T09:30:06.981Z</time></trkpt><trkpt lat="44.2445283" lon="8.24"><ele>932.0</ele><time>2026-05-03T09:30:07.98Z</time></trkpt><trkpt lat="44.244535" lon="8.2398667"><ele>933.0</ele><time>2026-05-03T09:30:08.98Z</time></trkpt><trkpt lat="44.2445383" lon="8.2397217"><ele>934.0</ele><time>2026-05-03T09:30:09.98Z</time></trkpt><trkpt lat="44.2445433" lon="8.2395833"><ele>935.0</ele><time>2026-05-03T09:30:10.981Z</time></trkpt><trkpt lat="44.244545" lon="8.239435"><ele>936.25</ele><time>2026-05-03T09:30:11.981Z</time></trkpt><trkpt lat="44.244545" lon="8.239275"><ele>937.5</ele><time>2026-05-03T09:30:12.98Z</time></trkpt><trkpt lat="44.2445417" lon="8.2391183"><ele>938.75</ele><time>2026-05-03T09:30:13.981Z</time></trkpt><trkpt lat="44.2445417" lon="8.2389617"><ele>940.0</ele><time>2026-05-03T09:30:14.981Z</time></trkpt><trkpt lat="44.24454" lon="8.238795"><ele>941.0</ele><time>2026-05-03T09:30:15.98Z</time></trkpt><trkpt lat="44.24455" lon="8.2386233"><ele>942.0</ele><time>2026-05-03T09:30:16.98Z</time></trkpt><trkpt lat="44.2445633" lon="8.23845"><ele>943.0</ele><time>2026-05-03T09:30:17.98Z</time></trkpt><trkpt lat="44.2445583" lon="8.2382833"><ele>944.0</ele><time>2026-05-03T09:30:18.98Z</time></trkpt><trkpt lat="44.2445383" lon="8.2381133"><ele>945.5</ele><time>2026-05-03T09:30:19.98Z</time></trkpt><trkpt lat="44.2445417" lon="8.237945"><ele>947.0</ele><time>2026-05-03T09:30:20.98Z</time></trkpt><trkpt lat="44.2445383" lon="8.2377633"><ele>948.5</ele><time>2026-05-03T09:30:21.98Z</time></trkpt><trkpt lat="44.24452" lon="8.2375917"><ele>950.0</ele><time>2026-05-03T09:30:22.98Z</time></trkpt><trkpt lat="44.244515" lon="8.2374183"><ele>951.25</ele><time>2026-05-03T09:30:23.98Z</time></trkpt><trkpt lat="44.2445117" lon="8.2372633"><ele>952.5</ele><time>2026-05-03T09:30:24.98Z</time></trkpt><trkpt lat="44.244515" lon="8.2371017"><ele>953.75</ele><time>2026-05-03T09:30:25.981Z</time></trkpt><trkpt lat="44.2445033" lon="8.2369433"><ele>955.0</ele><time>2026-05-03T09:30:26.981Z</time></trkpt><trkpt lat="44.244485" lon="8.23678"><ele>955.0</ele><time>2026-05-03T09:30:27.98Z</time></trkpt><trkpt lat="44.2444633" lon="8.2366233"><ele>955.0</ele><time>2026-05-03T09:30:28.981Z</time></trkpt><trkpt lat="44.2444417" lon="8.2364733"><ele>955.0</ele><time>2026-05-03T09:30:29.981Z</time></trkpt><trkpt lat="44.2444117" lon="8.2363433"><ele>955.0</ele><time>2026-05-03T09:30:30.98Z</time></trkpt><trkpt lat="44.2444083" lon="8.2361883"><ele>955.0</ele><time>2026-05-03T09:30:31.981Z</time></trkpt><trkpt lat="44.244415" lon="8.236035"><ele>956.8</ele><time>2026-05-03T09:30:32.98Z</time></trkpt><trkpt lat="44.2444267" lon="8.2358867"><ele>958.6</ele><time>2026-05-03T09:30:33.981Z</time></trkpt><trkpt lat="44.244445" lon="8.2357333"><ele>960.4000000000001</ele><time>2026-05-03T09:30:34.981Z</time></trkpt><trkpt lat="44.2444483" lon="8.2355817"><ele>962.2</ele><time>2026-05-03T09:30:35.98Z</time></trkpt><trkpt lat="44.2444383" lon="8.235425"><ele>964.0</ele><time>2026-05-03T09:30:36.98Z</time></trkpt><trkpt lat="44.244415" lon="8.235285"><ele>966.75</ele><time>2026-05-03T09:30:37.981Z</time></trkpt><trkpt lat="44.2443717" lon="8.235125"><ele>969.5</ele><time>2026-05-03T09:30:38.98Z</time></trkpt><trkpt lat="44.2443067" lon="8.234945"><ele>972.25</ele><time>2026-05-03T09:30:39.98Z</time></trkpt><trkpt lat="44.2442417" lon="8.2347717"><ele>975.0</ele><time>2026-05-03T09:30:40.98Z</time></trkpt><trkpt lat="44.244165" lon="8.2346233"><ele>975.25</ele><time>2026-05-03T09:30:41.981Z</time></trkpt><trkpt lat="44.2441" lon="8.2344483"><ele>975.5</ele><time>2026-05-03T09:30:42.981Z</time></trkpt><trkpt lat="44.2440417" lon="8.234265"><ele>975.75</ele><time>2026-05-03T09:30:43.981Z</time></trkpt><trkpt lat="44.2439917" lon="8.234075"><ele>976.0</ele><time>2026-05-03T09:30:44.98Z</time></trkpt><trkpt lat="44.24393" lon="8.23389"><ele>976.0</ele><time>2026-05-03T09:30:45.98Z</time></trkpt><trkpt lat="44.2438583" lon="8.2337033"><ele>976.0</ele><time>2026-05-03T09:30:46.98Z</time></trkpt><trkpt lat="44.2437883" lon="8.2335233"><ele>976.0</ele><time>2026-05-03T09:30:47.98Z</time></trkpt><trkpt lat="44.24372" lon="8.2333517"><ele>976.0</ele><time>2026-05-03T09:30:48.98Z</time></trkpt><trkpt lat="44.24365" lon="8.2331883"><ele>978.75</ele><time>2026-05-03T09:30:49.981Z</time></trkpt><trkpt lat="44.24357" lon="8.2330367"><ele>981.5</ele><time>2026-05-03T09:30:50.981Z</time></trkpt><trkpt lat="44.24348" lon="8.232895"><ele>984.25</ele><time>2026-05-03T09:30:51.981Z</time></trkpt><trkpt lat="44.2433933" lon="8.2327683"><ele>987.0</ele><time>2026-05-03T09:30:52.98Z</time></trkpt><trkpt lat="44.2433033" lon="8.2326533"><ele>987.0</ele><time>2026-05-03T09:30:53.98Z</time></trkpt><trkpt lat="44.243215" lon="8.2325483"><ele>987.0</ele><time>2026-05-03T09:30:54.98Z</time></trkpt><trkpt lat="44.243125" lon="8.2324583"><ele>987.0</ele><time>2026-05-03T09:30:55.98Z</time></trkpt><trkpt lat="44.2430283" lon="8.232385"><ele>987.0</ele><time>2026-05-03T09:30:56.98Z</time></trkpt><trkpt lat="44.2429317" lon="8.23233"><ele>987.0</ele><time>2026-05-03T09:30:57.98Z</time></trkpt><trkpt lat="44.2428333" lon="8.2322617"><ele>990.75</ele><time>2026-05-03T09:30:58.98Z</time></trkpt><trkpt lat="44.24273" lon="8.23223"><ele>994.5</ele><time>2026-05-03T09:30:59.981Z</time></trkpt><trkpt lat="44.2426179" lon="8.2321958"><ele>998.25</ele><time>2026-05-03T09:31:00.98Z</time></trkpt><trkpt lat="44.242504" lon="8.2321579"><ele>1002.0</ele><time>2026-05-03T09:31:01.98Z</time></trkpt><trkpt lat="44.2423907" lon="8.2321056"><ele>998.25</ele><time>2026-05-03T09:31:02.98Z</time></trkpt><trkpt lat="44.2422818" lon="8.2320386"><ele>994.5</ele><time>2026-05-03T09:31:03.981Z</time></trkpt><trkpt lat="44.242173" lon="8.2319556"><ele>990.75</ele><time>2026-05-03T09:31:04.98Z</time></trkpt><trkpt lat="44.2420628" lon="8.2318694"><ele>987.0</ele><time>2026-05-03T09:31:05.98Z</time></trkpt><trkpt lat="44.2419557" lon="8.2317739"><ele>987.0</ele><time>2026-05-03T09:31:06.981Z</time></trkpt><trkpt lat="44.2418565" lon="8.2316723"><ele>987.0</ele><time>2026-05-03T09:31:07.981Z</time></trkpt><trkpt lat="44.2417674" lon="8.2315756"><ele>987.0</ele><time>2026-05-03T09:31:08.98Z</time></trkpt><trkpt lat="44.2416921" lon="8.2314667"><ele>987.0</ele><time>2026-05-03T09:31:09.98Z</time></trkpt><trkpt lat="44.2416233" lon="8.2313327"><ele>990.25</ele><time>2026-05-03T09:31:10.98Z</time></trkpt><trkpt lat="44.241564" lon="8.2311777"><ele>993.5</ele><time>2026-05-03T09:31:11.98Z</time></trkpt><trkpt lat="44.2415176" lon="8.2310067"><ele>996.75</ele><time>2026-05-03T09:31:12.98Z</time></trkpt><trkpt lat="44.2414808" lon="8.2308326"><ele>1000.0</ele><time>2026-05-03T09:31:13.98Z</time></trkpt><trkpt lat="44.2414524" lon="8.2306512"><ele>1001.0</ele><time>2026-05-03T09:31:14.98Z</time></trkpt><trkpt lat="44.2414353" lon="8.2304687"><ele>1002.0</ele><time>2026-05-03T09:31:15.98Z</time></trkpt><trkpt lat="44.2414387" lon="8.2302752"><ele>1003.0</ele><time>2026-05-03T09:31:16.98Z</time></trkpt><trkpt lat="44.2414582" lon="8.2300762"><ele>1004.0</ele><time>2026-05-03T09:31:17.98Z</time></trkpt><trkpt lat="44.2414728" lon="8.2298826"><ele>1004.5</ele><time>2026-05-03T09:31:18.981Z</time></trkpt><trkpt lat="44.2414945" lon="8.2296864"><ele>1005.0</ele><time>2026-05-03T09:31:19.98Z</time></trkpt><trkpt lat="44.2415151" lon="8.229492"><ele>1005.5</ele><time>2026-05-03T09:31:20.98Z</time></trkpt><trkpt lat="44.2415327" lon="8.2293006"><ele>1006.0</ele><time>2026-05-03T09:31:21.981Z</time></trkpt><trkpt lat="44.2415402" lon="8.2291122"><ele>1006.75</ele><time>2026-05-03T09:31:22.98Z</time></trkpt><trkpt lat="44.2415372" lon="8.2289273"><ele>1007.5</ele><time>2026-05-03T09:31:23.98Z</time></trkpt><trkpt lat="44.2415232" lon="8.2287479"><ele>1008.25</ele><time>2026-05-03T09:31:24.98Z</time></trkpt><trkpt lat="44.2414938" lon="8.2285648"><ele>1009.0</ele><time>2026-05-03T09:31:25.981Z</time></trkpt><trkpt lat="44.2414712" lon="8.2283727"><ele>1000.5</ele><time>2026-05-03T09:31:26.981Z</time></trkpt><trkpt lat="44.2414549" lon="8.2281804"><ele>992.0</ele><time>2026-05-03T09:31:27.98Z</time></trkpt><trkpt lat="44.2414254" lon="8.2279904"><ele>983.5</ele><time>2026-05-03T09:31:28.981Z</time></trkpt><trkpt lat="44.2413937" lon="8.2278055"><ele>975.0</ele><time>2026-05-03T09:31:29.98Z</time></trkpt><trkpt lat="44.2413546" lon="8.2276236"><ele>975.0</ele><time>2026-05-03T09:31:30.98Z</time></trkpt><trkpt lat="44.2413289" lon="8.2274472"><ele>975.0</ele><time>2026-05-03T09:31:31.98Z</time></trkpt><trkpt lat="44.2413002" lon="8.227275"><ele>975.0</ele><time>2026-05-03T09:31:32.981Z</time></trkpt><trkpt lat="44.2412973" lon="8.2270969"><ele>975.0</ele><time>2026-05-03T09:31:33.981Z</time></trkpt><trkpt lat="44.2413057" lon="8.2269279"><ele>977.0</ele><time>2026-05-03T09:31:34.981Z</time></trkpt><trkpt lat="44.2413242" lon="8.2267575"><ele>979.0</ele><time>2026-05-03T09:31:35.98Z</time></trkpt><trkpt lat="44.2413592" lon="8.2265797"><ele>981.0</ele><time>2026-05-03T09:31:36.98Z</time></trkpt><trkpt lat="44.2413721" lon="8.2264093"><ele>983.0</ele><time>2026-05-03T09:31:37.98Z</time></trkpt><trkpt lat="44.241365" lon="8.2262456"><ele>984.25</ele><time>2026-05-03T09:31:38.981Z</time></trkpt><trkpt lat="44.2413408" lon="8.2260816"><ele>985.5</ele><time>2026-05-03T09:31:39.98Z</time></trkpt><trkpt lat="44.2413087" lon="8.2259183"><ele>986.75</ele><time>2026-05-03T09:31:40.98Z</time></trkpt><trkpt lat="44.2412989" lon="8.2257431"><ele>988.0</ele><time>2026-05-03T09:31:41.98Z</time></trkpt><trkpt lat="44.2413091" lon="8.2255644"><ele>990.5</ele><time>2026-05-03T09:31:42.98Z</time></trkpt><trkpt lat="44.2413391" lon="8.2253884"><ele>993.0</ele><time>2026-05-03T09:31:43.98Z</time></trkpt><trkpt lat="44.2413716" lon="8.2252145"><ele>995.5</ele><time>2026-05-03T09:31:44.98Z</time></trkpt><trkpt lat="44.2414183" lon="8.2250445"><ele>998.0</ele><time>2026-05-03T09:31:45.98Z</time></trkpt><trkpt lat="44.2414591" lon="8.2248866"><ele>993.4</ele><time>2026-05-03T09:31:46.98Z</time></trkpt><trkpt lat="44.2414896" lon="8.2247349"><ele>988.8</ele><time>2026-05-03T09:31:47.98Z</time></trkpt><trkpt lat="44.2415117" lon="8.2245922"><ele>984.2</ele><time>2026-05-03T09:31:48.98Z</time></trkpt><trkpt lat="44.2415211" lon="8.2244557"><ele>979.6</ele><time>2026-05-03T09:31:49.98Z</time></trkpt><trkpt lat="44.241511" lon="8.224327"><ele>975.0</ele><time>2026-05-03T09:31:50.981Z</time></trkpt><trkpt lat="44.2414824" lon="8.2241927"><ele>978.2</ele><time>2026-05-03T09:31:51.98Z</time></trkpt><trkpt lat="44.2414367" lon="8.2240564"><ele>981.4</ele><time>2026-05-03T09:31:52.98Z</time></trkpt><trkpt lat="44.241386" lon="8.2239189"><ele>984.5999999999999</ele><time>2026-05-03T09:31:53.98Z</time></trkpt><trkpt lat="44.2413367" lon="8.2237814"><ele>987.8</ele><time>2026-05-03T09:31:54.98Z</time></trkpt><trkpt lat="44.2412832" lon="8.2236505"><ele>991.0</ele><time>2026-05-03T09:31:55.98Z</time></trkpt><trkpt lat="44.2412185" lon="8.2235292"><ele>991.0</ele><time>2026-05-03T09:31:56.98Z</time></trkpt><trkpt lat="44.2411381" lon="8.223421"><ele>990.9999999999999</ele><time>2026-05-03T09:31:57.981Z</time></trkpt><trkpt lat="44.2410445" lon="8.2233341"><ele>990.9999999999999</ele><time>2026-05-03T09:31:58.981Z</time></trkpt><trkpt lat="44.2409444" lon="8.2232764"><ele>991.0</ele><time>2026-05-03T09:31:59.98Z</time></trkpt><trkpt lat="44.2408388" lon="8.2232305"><ele>991.0</ele><time>2026-05-03T09:32:00.981Z</time></trkpt><trkpt lat="44.2407275" lon="8.2231922"><ele>990.8</ele><time>2026-05-03T09:32:01.98Z</time></trkpt><trkpt lat="44.2406199" lon="8.2231593"><ele>990.5999999999999</ele><time>2026-05-03T09:32:02.98Z</time></trkpt><trkpt lat="44.2405197" lon="8.2231266"><ele>990.4</ele><time>2026-05-03T09:32:03.98Z</time></trkpt><trkpt lat="44.240429" lon="8.2230792"><ele>990.2</ele><time>2026-05-03T09:32:04.98Z</time></trkpt><trkpt lat="44.2403464" lon="8.2230036"><ele>990.0</ele><time>2026-05-03T09:32:05.981Z</time></trkpt><trkpt lat="44.2402752" lon="8.2229003"><ele>990.0</ele><time>2026-05-03T09:32:06.981Z</time></trkpt><trkpt lat="44.2402179" lon="8.2227745"><ele>990.0</ele><time>2026-05-03T09:32:07.98Z</time></trkpt><trkpt lat="44.2401706" lon="8.2226307"><ele>990.0</ele><time>2026-05-03T09:32:08.98Z</time></trkpt><trkpt lat="44.2401355" lon="8.2224666"><ele>990.0</ele><time>2026-05-03T09:32:09.981Z</time></trkpt><trkpt lat="44.2401019" lon="8.2222877"><ele>989.0</ele><time>2026-05-03T09:32:10.98Z</time></trkpt><trkpt lat="44.2400666" lon="8.2221067"><ele>988.0</ele><time>2026-05-03T09:32:11.98Z</time></trkpt><trkpt lat="44.2400277" lon="8.2219262"><ele>987.0</ele><time>2026-05-03T09:32:12.98Z</time></trkpt><trkpt lat="44.2399858" lon="8.2217527"><ele>986.0</ele><time>2026-05-03T09:32:13.98Z</time></trkpt><trkpt lat="44.2399407" lon="8.2215857"><ele>985.25</ele><time>2026-05-03T09:32:14.98Z</time></trkpt><trkpt lat="44.2398952" lon="8.2214287"><ele>984.5</ele><time>2026-05-03T09:32:15.98Z</time></trkpt><trkpt lat="44.2398433" lon="8.2212773"><ele>983.75</ele><time>2026-05-03T09:32:16.98Z</time></trkpt><trkpt lat="44.2397817" lon="8.2211475"><ele>983.0</ele><time>2026-05-03T09:32:17.981Z</time></trkpt><trkpt lat="44.2397059" lon="8.221039"><ele>983.0</ele><time>2026-05-03T09:32:18.981Z</time></trkpt><trkpt lat="44.2396143" lon="8.2209363"><ele>983.0</ele><time>2026-05-03T09:32:19.98Z</time></trkpt><trkpt lat="44.2395032" lon="8.2208527"><ele>983.0</ele><time>2026-05-03T09:32:20.98Z</time></trkpt><trkpt lat="44.2393839" lon="8.220789"><ele>983.0</ele><time>2026-05-03T09:32:21.98Z</time></trkpt><trkpt lat="44.2392583" lon="8.2207415"><ele>983.0</ele><time>2026-05-03T09:32:22.98Z</time></trkpt><trkpt lat="44.2391341" lon="8.2207058"><ele>983.0</ele><time>2026-05-03T09:32:23.981Z</time></trkpt><trkpt lat="44.2390111" lon="8.2206746"><ele>983.0</ele><time>2026-05-03T09:32:24.981Z</time></trkpt><trkpt lat="44.2388963" lon="8.2206555"><ele>983.0</ele><time>2026-05-03T09:32:25.98Z</time></trkpt><trkpt lat="44.2387838" lon="8.2206294"><ele>980.5999999999999</ele><time>2026-05-03T09:32:26.98Z</time></trkpt><trkpt lat="44.2386611" lon="8.2206004"><ele>978.1999999999999</ele><time>2026-05-03T09:32:27.98Z</time></trkpt><trkpt lat="44.2385507" lon="8.2205668"><ele>975.8</ele><time>2026-05-03T09:32:28.981Z</time></trkpt><trkpt lat="44.238458" lon="8.2205394"><ele>973.4</ele><time>2026-05-03T09:32:29.981Z</time></trkpt><trkpt lat="44.2383813" lon="8.2205204"><ele>971.0</ele><time>2026-05-03T09:32:30.98Z</time></trkpt><trkpt lat="44.2383103" lon="8.2204811"><ele>971.0000000000001</ele><time>2026-05-03T09:32:31.98Z</time></trkpt><trkpt lat="44.2382502" lon="8.2204216"><ele>971.0</ele><time>2026-05-03T09:32:32.98Z</time></trkpt><trkpt lat="44.2381949" lon="8.2203368"><ele>971.0</ele><time>2026-05-03T09:32:33.981Z</time></trkpt><trkpt lat="44.2381526" lon="8.2202297"><ele>971.0</ele><time>2026-05-03T09:32:34.98Z</time></trkpt><trkpt lat="44.2381176" lon="8.2201233"><ele>971.0000000000001</ele><time>2026-05-03T09:32:35.98Z</time></trkpt><trkpt lat="44.238081" lon="8.2200155"><ele>971.0</ele><time>2026-05-03T09:32:36.98Z</time></trkpt><trkpt lat="44.2380367" lon="8.2199025"><ele>974.0</ele><time>2026-05-03T09:32:37.981Z</time></trkpt><trkpt lat="44.2379812" lon="8.2197781"><ele>977.0</ele><time>2026-05-03T09:32:38.981Z</time></trkpt><trkpt lat="44.2379179" lon="8.2196535"><ele>980.0</ele><time>2026-05-03T09:32:39.98Z</time></trkpt><trkpt lat="44.2378635" lon="8.2195046"><ele>983.0</ele><time>2026-05-03T09:32:40.98Z</time></trkpt><trkpt lat="44.237825" lon="8.2193462"><ele>983.0</ele><time>2026-05-03T09:32:41.98Z</time></trkpt><trkpt lat="44.237793" lon="8.2191903"><ele>983.0</ele><time>2026-05-03T09:32:42.981Z</time></trkpt><trkpt lat="44.2377754" lon="8.2190259"><ele>983.0</ele><time>2026-05-03T09:32:43.981Z</time></trkpt><trkpt lat="44.2377638" lon="8.2188522"><ele>983.0</ele><time>2026-05-03T09:32:44.981Z</time></trkpt><trkpt lat="44.2377556" lon="8.2186811"><ele>984.5</ele><time>2026-05-03T09:32:45.981Z</time></trkpt><trkpt lat="44.2377454" lon="8.218504"><ele>986.0</ele><time>2026-05-03T09:32:46.98Z</time></trkpt><trkpt lat="44.2377428" lon="8.2183316"><ele>987.5</ele><time>2026-05-03T09:32:47.98Z</time></trkpt><trkpt lat="44.2377476" lon="8.2181633"><ele>989.0</ele><time>2026-05-03T09:32:48.98Z</time></trkpt><trkpt lat="44.2377612" lon="8.2179956"><ele>990.0</ele><time>2026-05-03T09:32:49.98Z</time></trkpt><trkpt lat="44.2377995" lon="8.217843"><ele>991.0</ele><time>2026-05-03T09:32:50.98Z</time></trkpt><trkpt lat="44.2378568" lon="8.2176995"><ele>992.0</ele><time>2026-05-03T09:32:51.981Z</time></trkpt><trkpt lat="44.2379327" lon="8.2175597"><ele>993.0</ele><time>2026-05-03T09:32:52.98Z</time></trkpt><trkpt lat="44.2380053" lon="8.2174269"><ele>991.25</ele><time>2026-05-03T09:32:53.981Z</time></trkpt><trkpt lat="44.2380854" lon="8.2172948"><ele>989.5</ele><time>2026-05-03T09:32:54.98Z</time></trkpt><trkpt lat="44.2381661" lon="8.2171636"><ele>987.75</ele><time>2026-05-03T09:32:55.98Z</time></trkpt><trkpt lat="44.2382453" lon="8.2170387"><ele>986.0</ele><time>2026-05-03T09:32:56.98Z</time></trkpt><trkpt lat="44.2382997" lon="8.2169038"><ele>986.0</ele><time>2026-05-03T09:32:57.98Z</time></trkpt><trkpt lat="44.2383366" lon="8.2167495"><ele>985.9999999999999</ele><time>2026-05-03T09:32:58.98Z</time></trkpt><trkpt lat="44.2383511" lon="8.2165895"><ele>985.9999999999999</ele><time>2026-05-03T09:32:59.981Z</time></trkpt><trkpt lat="44.2383633" lon="8.2164311"><ele>986.0</ele><time>2026-05-03T09:33:00.98Z</time></trkpt><trkpt lat="44.2383834" lon="8.2162907"><ele>986.0</ele><time>2026-05-03T09:33:01.981Z</time></trkpt><trkpt lat="44.2384136" lon="8.2161773"><ele>987.8333333333334</ele><time>2026-05-03T09:33:02.981Z</time></trkpt><trkpt lat="44.2384561" lon="8.2160894"><ele>989.6666666666667</ele><time>2026-05-03T09:33:03.98Z</time></trkpt><trkpt lat="44.2385161" lon="8.2160228"><ele>991.5</ele><time>2026-05-03T09:33:04.98Z</time></trkpt><trkpt lat="44.2385932" lon="8.2159881"><ele>993.3333333333333</ele><time>2026-05-03T09:33:05.98Z</time></trkpt><trkpt lat="44.2386824" lon="8.216003"><ele>995.1666666666666</ele><time>2026-05-03T09:33:06.98Z</time></trkpt><trkpt lat="44.2387787" lon="8.2160512"><ele>997.0</ele><time>2026-05-03T09:33:07.981Z</time></trkpt><trkpt lat="44.238886" lon="8.2160913"><ele>997.0</ele><time>2026-05-03T09:33:08.981Z</time></trkpt><trkpt lat="44.2389927" lon="8.2161043"><ele>997.0</ele><time>2026-05-03T09:33:09.981Z</time></trkpt><trkpt lat="44.2391075" lon="8.216089"><ele>997.0</ele><time>2026-05-03T09:33:10.981Z</time></trkpt><trkpt lat="44.2392218" lon="8.2160556"><ele>997.0</ele><time>2026-05-03T09:33:11.98Z</time></trkpt><trkpt lat="44.239327" lon="8.2160179"><ele>997.0</ele><time>2026-05-03T09:33:12.98Z</time></trkpt><trkpt lat="44.239418" lon="8.2159913"><ele>996.9999999999999</ele><time>2026-05-03T09:33:13.981Z</time></trkpt><trkpt lat="44.2395012" lon="8.2159849"><ele>997.0</ele><time>2026-05-03T09:33:14.98Z</time></trkpt><trkpt lat="44.2395793" lon="8.215994"><ele>997.0</ele><time>2026-05-03T09:33:15.98Z</time></trkpt><trkpt lat="44.2396547" lon="8.2160125"><ele>997.0</ele><time>2026-05-03T09:33:16.981Z</time></trkpt><trkpt lat="44.2397263" lon="8.2160195"><ele>996.9999999999999</ele><time>2026-05-03T09:33:17.98Z</time></trkpt><trkpt lat="44.2397988" lon="8.2160226"><ele>997.0</ele><time>2026-05-03T09:33:18.981Z</time></trkpt><trkpt lat="44.2398744" lon="8.2160214"><ele>998.3333333333333</ele><time>2026-05-03T09:33:19.98Z</time></trkpt><trkpt lat="44.2399495" lon="8.2160101"><ele>999.6666666666666</ele><time>2026-05-03T09:33:20.98Z</time></trkpt><trkpt lat="44.2400198" lon="8.2159696"><ele>1001.0</ele><time>2026-05-03T09:33:21.98Z</time></trkpt><trkpt lat="44.2400821" lon="8.2159028"><ele>1002.3333333333333</ele><time>2026-05-03T09:33:22.98Z</time></trkpt><trkpt lat="44.2401283" lon="8.2158124"><ele>1003.6666666666666</ele><time>2026-05-03T09:33:23.981Z</time></trkpt><trkpt lat="44.2401661" lon="8.215721"><ele>1005.0</ele><time>2026-05-03T09:33:24.98Z</time></trkpt><trkpt lat="44.2401947" lon="8.215632"><ele>1005.0</ele><time>2026-05-03T09:33:25.981Z</time></trkpt><trkpt lat="44.240224" lon="8.2155289"><ele>1005.0</ele><time>2026-05-03T09:33:26.981Z</time></trkpt><trkpt lat="44.2402548" lon="8.2154219"><ele>1005.0</ele><time>2026-05-03T09:33:27.98Z</time></trkpt><trkpt lat="44.240287" lon="8.2153117"><ele>1005.0</ele><time>2026-05-03T09:33:28.981Z</time></trkpt><trkpt lat="44.2403283" lon="8.2152084"><ele>1005.0</ele><time>2026-05-03T09:33:29.98Z</time></trkpt><trkpt lat="44.240374" lon="8.2151026"><ele>1005.0</ele><time>2026-05-03T09:33:30.98Z</time></trkpt><trkpt lat="44.2404155" lon="8.2150104"><ele>1005.0</ele><time>2026-05-03T09:33:31.98Z</time></trkpt><trkpt lat="44.2404519" lon="8.2149299"><ele>1005.0</ele><time>2026-05-03T09:33:32.981Z</time></trkpt><trkpt lat="44.2405258" lon="8.2147833"><ele>1005.0</ele><time>2026-05-03T09:33:34.98Z</time></trkpt><trkpt lat="44.240566" lon="8.2147049"><ele>1005.0</ele><time>2026-05-03T09:33:35.981Z</time></trkpt><trkpt lat="44.2406129" lon="8.2146252"><ele>1005.0</ele><time>2026-05-03T09:33:36.98Z</time></trkpt><trkpt lat="44.2406581" lon="8.2145389"><ele>1005.0</ele><time>2026-05-03T09:33:37.981Z</time></trkpt><trkpt lat="44.2407188" lon="8.2144547"><ele>1005.0</ele><time>2026-05-03T09:33:38.981Z</time></trkpt><trkpt lat="44.2407825" lon="8.214363"><ele>1005.0</ele><time>2026-05-03T09:33:39.98Z</time></trkpt><trkpt lat="44.2408416" lon="8.214284"><ele>1005.0</ele><time>2026-05-03T09:33:40.98Z</time></trkpt><trkpt lat="44.240896" lon="8.2142136"><ele>1005.0</ele><time>2026-05-03T09:33:41.98Z</time></trkpt><trkpt lat="44.2409577" lon="8.2141417"><ele>1005.0</ele><time>2026-05-03T09:33:42.98Z</time></trkpt><trkpt lat="44.2410249" lon="8.2140641"><ele>1005.0</ele><time>2026-05-03T09:33:43.98Z</time></trkpt><trkpt lat="44.2410823" lon="8.2139856"><ele>1005.0</ele><time>2026-05-03T09:33:44.98Z</time></trkpt><trkpt lat="44.241144" lon="8.2139026"><ele>1005.0</ele><time>2026-05-03T09:33:45.981Z</time></trkpt><trkpt lat="44.2412091" lon="8.2138204"><ele>1005.0</ele><time>2026-05-03T09:33:46.981Z</time></trkpt><trkpt lat="44.2412692" lon="8.2137374"><ele>1005.0</ele><time>2026-05-03T09:33:47.98Z</time></trkpt><trkpt lat="44.2413248" lon="8.213644"><ele>1005.0</ele><time>2026-05-03T09:33:48.981Z</time></trkpt><trkpt lat="44.2413765" lon="8.213546"><ele>1005.0</ele><time>2026-05-03T09:33:49.979Z</time></trkpt><trkpt lat="44.2414273" lon="8.2134477"><ele>1005.6666666666666</ele><time>2026-05-03T09:33:50.979Z</time></trkpt><trkpt lat="44.2414697" lon="8.2133601"><ele>1006.3333333333333</ele><time>2026-05-03T09:33:51.979Z</time></trkpt><trkpt lat="44.2415159" lon="8.2132814"><ele>1007.0</ele><time>2026-05-03T09:33:52.98Z</time></trkpt><trkpt lat="44.2415649" lon="8.2132142"><ele>1007.6666666666666</ele><time>2026-05-03T09:33:53.98Z</time></trkpt><trkpt lat="44.2416807" lon="8.2131449"><ele>1008.3333333333333</ele><time>2026-05-03T09:33:55.979Z</time></trkpt><trkpt lat="44.2417458" lon="8.2131478"><ele>1009.0</ele><time>2026-05-03T09:33:56.979Z</time></trkpt><trkpt lat="44.241811" lon="8.2131687"><ele>1003.6</ele><time>2026-05-03T09:33:57.98Z</time></trkpt><trkpt lat="44.2418722" lon="8.2132282"><ele>998.2</ele><time>2026-05-03T09:33:58.98Z</time></trkpt><trkpt lat="44.2419261" lon="8.2133223"><ele>992.8000000000001</ele><time>2026-05-03T09:33:59.979Z</time></trkpt><trkpt lat="44.2419886" lon="8.2134275"><ele>987.4000000000001</ele><time>2026-05-03T09:34:00.979Z</time></trkpt><trkpt lat="44.2420536" lon="8.2135275"><ele>982.0</ele><time>2026-05-03T09:34:01.979Z</time></trkpt><trkpt lat="44.2421213" lon="8.2136218"><ele>982.0</ele><time>2026-05-03T09:34:02.979Z</time></trkpt><trkpt lat="44.2421796" lon="8.2137149"><ele>982.0</ele><time>2026-05-03T09:34:03.979Z</time></trkpt><trkpt lat="44.2422377" lon="8.2138124"><ele>982.0</ele><time>2026-05-03T09:34:04.979Z</time></trkpt><trkpt lat="44.242292" lon="8.2139149"><ele>982.0</ele><time>2026-05-03T09:34:05.98Z</time></trkpt><trkpt lat="44.2423438" lon="8.2140208"><ele>982.0</ele><time>2026-05-03T09:34:06.979Z</time></trkpt><trkpt lat="44.242395" lon="8.2141297"><ele>982.6666666666666</ele><time>2026-05-03T09:34:07.979Z</time></trkpt><trkpt lat="44.242431" lon="8.2142313"><ele>983.3333333333333</ele><time>2026-05-03T09:34:08.98Z</time></trkpt><trkpt lat="44.2424692" lon="8.2143346"><ele>984.0</ele><time>2026-05-03T09:34:09.98Z</time></trkpt><trkpt lat="44.2425082" lon="8.2144393"><ele>984.6666666666667</ele><time>2026-05-03T09:34:10.98Z</time></trkpt><trkpt lat="44.2425379" lon="8.2145441"><ele>985.3333333333334</ele><time>2026-05-03T09:34:11.98Z</time></trkpt><trkpt lat="44.2425639" lon="8.2146502"><ele>986.0</ele><time>2026-05-03T09:34:12.98Z</time></trkpt><trkpt lat="44.2425986" lon="8.2147518"><ele>982.1666666666667</ele><time>2026-05-03T09:34:13.979Z</time></trkpt><trkpt lat="44.2426272" lon="8.2148518"><ele>978.3333333333334</ele><time>2026-05-03T09:34:14.979Z</time></trkpt><trkpt lat="44.2426641" lon="8.2149427"><ele>974.5</ele><time>2026-05-03T09:34:15.979Z</time></trkpt><trkpt lat="44.242707" lon="8.2150224"><ele>970.6666666666667</ele><time>2026-05-03T09:34:16.979Z</time></trkpt><trkpt lat="44.2427505" lon="8.2151002"><ele>966.8333333333334</ele><time>2026-05-03T09:34:17.979Z</time></trkpt><trkpt lat="44.2428032" lon="8.2151611"><ele>963.0</ele><time>2026-05-03T09:34:18.979Z</time></trkpt><trkpt lat="44.2429086" lon="8.2152314"><ele>963.0</ele><time>2026-05-03T09:34:20.98Z</time></trkpt><trkpt lat="44.2429724" lon="8.215253"><ele>963.0</ele><time>2026-05-03T09:34:21.98Z</time></trkpt><trkpt lat="44.2430491" lon="8.2152475"><ele>963.0</ele><time>2026-05-03T09:34:22.979Z</time></trkpt><trkpt lat="44.243141" lon="8.2152157"><ele>963.0</ele><time>2026-05-03T09:34:23.979Z</time></trkpt><trkpt lat="44.2432466" lon="8.2151665"><ele>963.0</ele><time>2026-05-03T09:34:24.98Z</time></trkpt><trkpt lat="44.2433731" lon="8.2151067"><ele>965.75</ele><time>2026-05-03T09:34:25.979Z</time></trkpt><trkpt lat="44.2435096" lon="8.215048"><ele>968.5</ele><time>2026-05-03T09:34:26.979Z</time></trkpt><trkpt lat="44.243633" lon="8.2149843"><ele>971.25</ele><time>2026-05-03T09:34:27.979Z</time></trkpt><trkpt lat="44.2437456" lon="8.2149234"><ele>974.0</ele><time>2026-05-03T09:34:28.98Z</time></trkpt><trkpt lat="44.2438819" lon="8.21492"><ele>976.4000000000001</ele><time>2026-05-03T09:34:29.98Z</time></trkpt><trkpt lat="44.2439878" lon="8.2148724"><ele>978.8000000000001</ele><time>2026-05-03T09:34:30.98Z</time></trkpt><trkpt lat="44.244083" lon="8.2148185"><ele>981.1999999999999</ele><time>2026-05-03T09:34:31.979Z</time></trkpt><trkpt lat="44.2441739" lon="8.2147564"><ele>983.5999999999999</ele><time>2026-05-03T09:34:32.979Z</time></trkpt><trkpt lat="44.2442563" lon="8.214686"><ele>986.0</ele><time>2026-05-03T09:34:33.98Z</time></trkpt><trkpt lat="44.2443291" lon="8.2145896"><ele>986.0</ele><time>2026-05-03T09:34:34.979Z</time></trkpt><trkpt lat="44.2443849" lon="8.2144628"><ele>985.9999999999999</ele><time>2026-05-03T09:34:35.979Z</time></trkpt><trkpt lat="44.2444249" lon="8.2143254"><ele>985.9999999999999</ele><time>2026-05-03T09:34:36.979Z</time></trkpt><trkpt lat="44.2444733" lon="8.2141939"><ele>986.0</ele><time>2026-05-03T09:34:37.979Z</time></trkpt><trkpt lat="44.244529" lon="8.2140845"><ele>986.0</ele><time>2026-05-03T09:34:38.979Z</time></trkpt><trkpt lat="44.2445896" lon="8.2140047"><ele>982.5999999999999</ele><time>2026-05-03T09:34:39.98Z</time></trkpt><trkpt lat="44.2446627" lon="8.213966"><ele>979.1999999999999</ele><time>2026-05-03T09:34:40.979Z</time></trkpt><trkpt lat="44.2447342" lon="8.213948"><ele>975.8000000000001</ele><time>2026-05-03T09:34:41.979Z</time></trkpt><trkpt lat="44.2448238" lon="8.2139944"><ele>972.4000000000001</ele><time>2026-05-03T09:34:42.979Z</time></trkpt><trkpt lat="44.2449384" lon="8.2140779"><ele>969.0</ele><time>2026-05-03T09:34:43.979Z</time></trkpt><trkpt lat="44.2450888" lon="8.2141609"><ele>969.0</ele><time>2026-05-03T09:34:44.979Z</time></trkpt><trkpt lat="44.245211" lon="8.2141622"><ele>969.0000000000001</ele><time>2026-05-03T09:34:45.979Z</time></trkpt><trkpt lat="44.2453159" lon="8.2141354"><ele>969.0000000000001</ele><time>2026-05-03T09:34:46.979Z</time></trkpt><trkpt lat="44.2453863" lon="8.2140615"><ele>969.0</ele><time>2026-05-03T09:34:47.979Z</time></trkpt><trkpt lat="44.2454401" lon="8.2139544"><ele>969.0</ele><time>2026-05-03T09:34:48.979Z</time></trkpt><trkpt lat="44.2454784" lon="8.2138337"><ele>973.4000000000001</ele><time>2026-05-03T09:34:49.979Z</time></trkpt><trkpt lat="44.2455188" lon="8.2136936"><ele>977.8000000000001</ele><time>2026-05-03T09:34:50.98Z</time></trkpt><trkpt lat="44.2455772" lon="8.2135507"><ele>982.1999999999999</ele><time>2026-05-03T09:34:51.979Z</time></trkpt><trkpt lat="44.2456488" lon="8.21344"><ele>986.5999999999999</ele><time>2026-05-03T09:34:52.98Z</time></trkpt><trkpt lat="44.2457401" lon="8.2133716"><ele>991.0</ele><time>2026-05-03T09:34:53.979Z</time></trkpt><trkpt lat="44.2458471" lon="8.2133552"><ele>991.0</ele><time>2026-05-03T09:34:54.98Z</time></trkpt><trkpt lat="44.2459716" lon="8.2133737"><ele>991.0</ele><time>2026-05-03T09:34:55.979Z</time></trkpt><trkpt lat="44.2460987" lon="8.2134033"><ele>991.0</ele><time>2026-05-03T09:34:56.98Z</time></trkpt><trkpt lat="44.2462198" lon="8.2134355"><ele>991.0</ele><time>2026-05-03T09:34:57.979Z</time></trkpt><trkpt lat="44.2463338" lon="8.2134739"><ele>990.9999999999999</ele><time>2026-05-03T09:34:58.98Z</time></trkpt><trkpt lat="44.2464343" lon="8.2135116"><ele>991.0</ele><time>2026-05-03T09:34:59.979Z</time></trkpt><trkpt lat="44.2465213" lon="8.2135437"><ele>991.0</ele><time>2026-05-03T09:35:00.979Z</time></trkpt><trkpt lat="44.2466017" lon="8.2135569"><ele>991.0</ele><time>2026-05-03T09:35:01.98Z</time></trkpt><trkpt lat="44.2466748" lon="8.2135372"><ele>990.9999999999999</ele><time>2026-05-03T09:35:02.98Z</time></trkpt><trkpt lat="44.2467337" lon="8.2134803"><ele>991.0</ele><time>2026-05-03T09:35:03.98Z</time></trkpt><trkpt lat="44.2467779" lon="8.2133753"><ele>984.5</ele><time>2026-05-03T09:35:04.979Z</time></trkpt><trkpt lat="44.2468013" lon="8.213233"><ele>978.0</ele><time>2026-05-03T09:35:05.98Z</time></trkpt><trkpt lat="44.246797" lon="8.2130743"><ele>971.5</ele><time>2026-05-03T09:35:06.979Z</time></trkpt><trkpt lat="44.2467656" lon="8.2129081"><ele>965.0</ele><time>2026-05-03T09:35:07.98Z</time></trkpt><trkpt lat="44.2467214" lon="8.2127534"><ele>963.75</ele><time>2026-05-03T09:35:08.979Z</time></trkpt><trkpt lat="44.2466533" lon="8.212621"><ele>962.5</ele><time>2026-05-03T09:35:09.979Z</time></trkpt><trkpt lat="44.2465747" lon="8.2125017"><ele>961.25</ele><time>2026-05-03T09:35:10.979Z</time></trkpt><trkpt lat="44.2464827" lon="8.2123905"><ele>960.0</ele><time>2026-05-03T09:35:11.979Z</time></trkpt><trkpt lat="44.2463902" lon="8.2122887"><ele>969.5</ele><time>2026-05-03T09:35:12.979Z</time></trkpt><trkpt lat="44.246297" lon="8.2121927"><ele>979.0</ele><time>2026-05-03T09:35:13.979Z</time></trkpt><trkpt lat="44.2462016" lon="8.2120872"><ele>988.5</ele><time>2026-05-03T09:35:14.98Z</time></trkpt><trkpt lat="44.2461158" lon="8.2119686"><ele>998.0</ele><time>2026-05-03T09:35:15.98Z</time></trkpt><trkpt lat="44.2460389" lon="8.2118428"><ele>998.0</ele><time>2026-05-03T09:35:16.979Z</time></trkpt><trkpt lat="44.2459717" lon="8.2117013"><ele>998.0</ele><time>2026-05-03T09:35:17.979Z</time></trkpt><trkpt lat="44.2459134" lon="8.2115475"><ele>998.0</ele><time>2026-05-03T09:35:18.979Z</time></trkpt><trkpt lat="44.2458769" lon="8.2113703"><ele>998.0</ele><time>2026-05-03T09:35:19.979Z</time></trkpt><trkpt lat="44.2458443" lon="8.2111961"><ele>996.25</ele><time>2026-05-03T09:35:20.979Z</time></trkpt><trkpt lat="44.2458277" lon="8.2110059"><ele>994.5</ele><time>2026-05-03T09:35:21.98Z</time></trkpt><trkpt lat="44.2458086" lon="8.2108207"><ele>992.75</ele><time>2026-05-03T09:35:22.98Z</time></trkpt><trkpt lat="44.2457914" lon="8.2106458"><ele>991.0</ele><time>2026-05-03T09:35:23.98Z</time></trkpt><trkpt lat="44.2457656" lon="8.21048"><ele>991.0</ele><time>2026-05-03T09:35:24.98Z</time></trkpt><trkpt lat="44.2457437" lon="8.2103124"><ele>991.0</ele><time>2026-05-03T09:35:25.98Z</time></trkpt><trkpt lat="44.2457221" lon="8.2101418"><ele>991.0</ele><time>2026-05-03T09:35:26.979Z</time></trkpt><trkpt lat="44.2457025" lon="8.2099735"><ele>991.0</ele><time>2026-05-03T09:35:27.979Z</time></trkpt><trkpt lat="44.2456857" lon="8.2098204"><ele>995.3333333333333</ele><time>2026-05-03T09:35:28.979Z</time></trkpt><trkpt lat="44.2456755" lon="8.2096902"><ele>999.6666666666666</ele><time>2026-05-03T09:35:29.979Z</time></trkpt><trkpt lat="44.2456838" lon="8.209573"><ele>1004.0</ele><time>2026-05-03T09:35:30.979Z</time></trkpt><trkpt lat="44.2457184" lon="8.2094716"><ele>1008.3333333333333</ele><time>2026-05-03T09:35:31.979Z</time></trkpt><trkpt lat="44.2457621" lon="8.2093714"><ele>1012.6666666666666</ele><time>2026-05-03T09:35:32.979Z</time></trkpt><trkpt lat="44.2458167" lon="8.209284"><ele>1017.0</ele><time>2026-05-03T09:35:33.98Z</time></trkpt><trkpt lat="44.2458746" lon="8.2092172"><ele>1017.0</ele><time>2026-05-03T09:35:34.98Z</time></trkpt><trkpt lat="44.245938" lon="8.2091628"><ele>1017.0</ele><time>2026-05-03T09:35:35.98Z</time></trkpt><trkpt lat="44.2460092" lon="8.2091305"><ele>1017.0</ele><time>2026-05-03T09:35:36.979Z</time></trkpt><trkpt lat="44.2461002" lon="8.2091109"><ele>1017.0</ele><time>2026-05-03T09:35:37.979Z</time></trkpt><trkpt lat="44.246195" lon="8.2091128"><ele>1017.0</ele><time>2026-05-03T09:35:38.979Z</time></trkpt><trkpt lat="44.2463215" lon="8.2091261"><ele>1014.6666666666667</ele><time>2026-05-03T09:35:39.98Z</time></trkpt><trkpt lat="44.2464884" lon="8.2091752"><ele>1012.3333333333334</ele><time>2026-05-03T09:35:40.979Z</time></trkpt><trkpt lat="44.2466479" lon="8.2092122"><ele>1010.0</ele><time>2026-05-03T09:35:41.98Z</time></trkpt><trkpt lat="44.2468259" lon="8.2092256"><ele>1010.0</ele><time>2026-05-03T09:35:42.979Z</time></trkpt><trkpt lat="44.246996" lon="8.2092316"><ele>1010.0</ele><time>2026-05-03T09:35:43.979Z</time></trkpt><trkpt lat="44.2471536" lon="8.2092207"><ele>1010.0</ele><time>2026-05-03T09:35:44.979Z</time></trkpt><trkpt lat="44.2473023" lon="8.2092059"><ele>1009.6</ele><time>2026-05-03T09:35:45.98Z</time></trkpt><trkpt lat="44.2474381" lon="8.2091845"><ele>1009.2</ele><time>2026-05-03T09:35:46.98Z</time></trkpt><trkpt lat="44.2475579" lon="8.2091481"><ele>1008.8</ele><time>2026-05-03T09:35:47.979Z</time></trkpt><trkpt lat="44.2476547" lon="8.2091065"><ele>1008.4</ele><time>2026-05-03T09:35:48.98Z</time></trkpt><trkpt lat="44.2477294" lon="8.2090481"><ele>1008.0</ele><time>2026-05-03T09:35:49.979Z</time></trkpt><trkpt lat="44.2477861" lon="8.2089737"><ele>1008.0</ele><time>2026-05-03T09:35:50.98Z</time></trkpt><trkpt lat="44.2478141" lon="8.2088905"><ele>1008.0</ele><time>2026-05-03T09:35:51.979Z</time></trkpt><trkpt lat="44.2477778" lon="8.2087297"><ele>1008.0</ele><time>2026-05-03T09:35:53.98Z</time></trkpt><trkpt lat="44.2477182" lon="8.2086624"><ele>1008.0</ele><time>2026-05-03T09:35:54.98Z</time></trkpt><trkpt lat="44.2476321" lon="8.2086004"><ele>1008.0</ele><time>2026-05-03T09:35:55.98Z</time></trkpt><trkpt lat="44.2475359" lon="8.2085228"><ele>1008.0</ele><time>2026-05-03T09:35:56.98Z</time></trkpt><trkpt lat="44.2474513" lon="8.2084254"><ele>1008.0</ele><time>2026-05-03T09:35:57.979Z</time></trkpt><trkpt lat="44.2473805" lon="8.208311"><ele>1008.0</ele><time>2026-05-03T09:35:58.979Z</time></trkpt><trkpt lat="44.2473401" lon="8.2081872"><ele>1008.0</ele><time>2026-05-03T09:35:59.98Z</time></trkpt><trkpt lat="44.2473316" lon="8.2080599"><ele>1008.0</ele><time>2026-05-03T09:36:00.98Z</time></trkpt><trkpt lat="44.2473509" lon="8.2079364"><ele>1013.2</ele><time>2026-05-03T09:36:01.979Z</time></trkpt><trkpt lat="44.2474005" lon="8.2078225"><ele>1018.4</ele><time>2026-05-03T09:36:02.98Z</time></trkpt><trkpt lat="44.2474825" lon="8.2077354"><ele>1023.6000000000001</ele><time>2026-05-03T09:36:03.98Z</time></trkpt><trkpt lat="44.2475883" lon="8.2076823"><ele>1028.8</ele><time>2026-05-03T09:36:04.979Z</time></trkpt><trkpt lat="44.2477233" lon="8.2076509"><ele>1034.0</ele><time>2026-05-03T09:36:05.979Z</time></trkpt><trkpt lat="44.2478548" lon="8.2076335"><ele>1034.0</ele><time>2026-05-03T09:36:06.98Z</time></trkpt><trkpt lat="44.2479746" lon="8.2076007"><ele>1034.0</ele><time>2026-05-03T09:36:07.98Z</time></trkpt><trkpt lat="44.248086" lon="8.2075676"><ele>1034.0</ele><time>2026-05-03T09:36:08.979Z</time></trkpt><trkpt lat="44.2481951" lon="8.2075374"><ele>1034.0</ele><time>2026-05-03T09:36:09.98Z</time></trkpt><trkpt lat="44.2482997" lon="8.2075185"><ele>1030.4</ele><time>2026-05-03T09:36:10.979Z</time></trkpt><trkpt lat="44.2484098" lon="8.2075161"><ele>1026.8000000000002</ele><time>2026-05-03T09:36:11.979Z</time></trkpt><trkpt lat="44.2485132" lon="8.2075285"><ele>1023.1999999999999</ele><time>2026-05-03T09:36:12.98Z</time></trkpt><trkpt lat="44.2486093" lon="8.2075419"><ele>1019.5999999999999</ele><time>2026-05-03T09:36:13.98Z</time></trkpt><trkpt lat="44.2486961" lon="8.2075442"><ele>1016.0</ele><time>2026-05-03T09:36:14.979Z</time></trkpt><trkpt lat="44.248779" lon="8.207531"><ele>1016.0</ele><time>2026-05-03T09:36:15.979Z</time></trkpt><trkpt lat="44.2488497" lon="8.2074846"><ele>1015.9999999999999</ele><time>2026-05-03T09:36:16.979Z</time></trkpt><trkpt lat="44.2489098" lon="8.2074109"><ele>1015.9999999999999</ele><time>2026-05-03T09:36:17.979Z</time></trkpt><trkpt lat="44.2489486" lon="8.2073028"><ele>1016.0</ele><time>2026-05-03T09:36:18.98Z</time></trkpt><trkpt lat="44.248964" lon="8.2071706"><ele>1016.0</ele><time>2026-05-03T09:36:19.979Z</time></trkpt><trkpt lat="44.2489542" lon="8.207"><ele>1017.75</ele><time>2026-05-03T09:36:20.98Z</time></trkpt><trkpt lat="44.2489435" lon="8.2068069"><ele>1019.5</ele><time>2026-05-03T09:36:21.979Z</time></trkpt><trkpt lat="44.2489563" lon="8.2066285"><ele>1021.25</ele><time>2026-05-03T09:36:22.979Z</time></trkpt><trkpt lat="44.2489846" lon="8.2064633"><ele>1023.0</ele><time>2026-05-03T09:36:23.979Z</time></trkpt><trkpt lat="44.2490403" lon="8.2063178"><ele>1023.0</ele><time>2026-05-03T09:36:24.979Z</time></trkpt><trkpt lat="44.249116" lon="8.206201"><ele>1023.0</ele><time>2026-05-03T09:36:25.98Z</time></trkpt><trkpt lat="44.2492002" lon="8.2060857"><ele>1023.0</ele><time>2026-05-03T09:36:26.98Z</time></trkpt><trkpt lat="44.2492866" lon="8.2059719"><ele>1023.0</ele><time>2026-05-03T09:36:27.979Z</time></trkpt><trkpt lat="44.2493712" lon="8.2058589"><ele>1023.0</ele><time>2026-05-03T09:36:28.98Z</time></trkpt><trkpt lat="44.2494542" lon="8.2057518"><ele>1023.0</ele><time>2026-05-03T09:36:29.979Z</time></trkpt><trkpt lat="44.2495417" lon="8.2056571"><ele>1023.0</ele><time>2026-05-03T09:36:30.979Z</time></trkpt><trkpt lat="44.249634" lon="8.2055796"><ele>1023.0</ele><time>2026-05-03T09:36:31.98Z</time></trkpt><trkpt lat="44.2497277" lon="8.2055291"><ele>1023.0</ele><time>2026-05-03T09:36:32.98Z</time></trkpt><trkpt lat="44.2498213" lon="8.2054872"><ele>1025.6</ele><time>2026-05-03T09:36:33.979Z</time></trkpt><trkpt lat="44.2499199" lon="8.2054601"><ele>1028.1999999999998</ele><time>2026-05-03T09:36:34.979Z</time></trkpt><trkpt lat="44.2500186" lon="8.2054564"><ele>1030.8</ele><time>2026-05-03T09:36:35.98Z</time></trkpt><trkpt lat="44.2501224" lon="8.2054731"><ele>1033.3999999999999</ele><time>2026-05-03T09:36:36.98Z</time></trkpt><trkpt lat="44.2502215" lon="8.2055045"><ele>1036.0</ele><time>2026-05-03T09:36:37.98Z</time></trkpt><trkpt lat="44.2503242" lon="8.2055433"><ele>1036.0</ele><time>2026-05-03T09:36:38.979Z</time></trkpt><trkpt lat="44.2504261" lon="8.2056044"><ele>1036.0</ele><time>2026-05-03T09:36:39.979Z</time></trkpt><trkpt lat="44.2505258" lon="8.2056925"><ele>1036.0</ele><time>2026-05-03T09:36:40.979Z</time></trkpt><trkpt lat="44.250621" lon="8.205788"><ele>1036.0</ele><time>2026-05-03T09:36:41.979Z</time></trkpt><trkpt lat="44.2507502" lon="8.2059398"><ele>1031.6666666666665</ele><time>2026-05-03T09:36:42.98Z</time></trkpt><trkpt lat="44.2508678" lon="8.2060489"><ele>1027.3333333333333</ele><time>2026-05-03T09:36:43.979Z</time></trkpt><trkpt lat="44.251002" lon="8.2061887"><ele>1023.0</ele><time>2026-05-03T09:36:44.979Z</time></trkpt><trkpt lat="44.2511477" lon="8.2063359"><ele>1021.3333333333333</ele><time>2026-05-03T09:36:45.979Z</time></trkpt><trkpt lat="44.2513077" lon="8.2065101"><ele>1019.6666666666666</ele><time>2026-05-03T09:36:46.979Z</time></trkpt><trkpt lat="44.2514466" lon="8.2066928"><ele>1018.0</ele><time>2026-05-03T09:36:47.979Z</time></trkpt><trkpt lat="44.2515738" lon="8.2068332"><ele>1018.0</ele><time>2026-05-03T09:36:48.979Z</time></trkpt><trkpt lat="44.2516999" lon="8.2069617"><ele>1018.0</ele><time>2026-05-03T09:36:49.979Z</time></trkpt><trkpt lat="44.2518156" lon="8.2070935"><ele>1018.0</ele><time>2026-05-03T09:36:50.979Z</time></trkpt><trkpt lat="44.2519098" lon="8.2072312"><ele>1018.0</ele><time>2026-05-03T09:36:51.98Z</time></trkpt><trkpt lat="44.2519854" lon="8.2073576"><ele>1012.8333333333333</ele><time>2026-05-03T09:36:52.98Z</time></trkpt><trkpt lat="44.2520515" lon="8.2074701"><ele>1007.6666666666666</ele><time>2026-05-03T09:36:53.98Z</time></trkpt><trkpt lat="44.2521101" lon="8.207572"><ele>1002.5</ele><time>2026-05-03T09:36:54.979Z</time></trkpt><trkpt lat="44.2521676" lon="8.2076561"><ele>997.3333333333333</ele><time>2026-05-03T09:36:55.979Z</time></trkpt><trkpt lat="44.2522295" lon="8.207717"><ele>992.1666666666666</ele><time>2026-05-03T09:36:56.98Z</time></trkpt><trkpt lat="44.2522928" lon="8.2077502"><ele>987.0</ele><time>2026-05-03T09:36:57.98Z</time></trkpt><trkpt lat="44.2523611" lon="8.2077517"><ele>987.0</ele><time>2026-05-03T09:36:58.98Z</time></trkpt><trkpt lat="44.2524342" lon="8.2077096"><ele>987.0</ele><time>2026-05-03T09:36:59.979Z</time></trkpt><trkpt lat="44.2525074" lon="8.2076379"><ele>987.0</ele><time>2026-05-03T09:37:00.98Z</time></trkpt><trkpt lat="44.2525771" lon="8.2075392"><ele>987.0</ele><time>2026-05-03T09:37:01.979Z</time></trkpt><trkpt lat="44.2526552" lon="8.2074221"><ele>987.0</ele><time>2026-05-03T09:37:02.979Z</time></trkpt><trkpt lat="44.2527349" lon="8.2072828"><ele>994.2</ele><time>2026-05-03T09:37:03.98Z</time></trkpt><trkpt lat="44.2528092" lon="8.2071409"><ele>1001.4000000000001</ele><time>2026-05-03T09:37:04.979Z</time></trkpt><trkpt lat="44.252881" lon="8.2070052"><ele>1008.5999999999999</ele><time>2026-05-03T09:37:05.98Z</time></trkpt><trkpt lat="44.2529428" lon="8.2068845"><ele>1015.8</ele><time>2026-05-03T09:37:06.979Z</time></trkpt><trkpt lat="44.2529989" lon="8.2067758"><ele>1023.0</ele><time>2026-05-03T09:37:07.98Z</time></trkpt><trkpt lat="44.2530484" lon="8.206692"><ele>1023.0</ele><time>2026-05-03T09:37:08.98Z</time></trkpt><trkpt lat="44.2531119" lon="8.2066409"><ele>1023.0</ele><time>2026-05-03T09:37:09.979Z</time></trkpt><trkpt lat="44.2531861" lon="8.206622"><ele>1023.0</ele><time>2026-05-03T09:37:10.979Z</time></trkpt><trkpt lat="44.2532719" lon="8.2066416"><ele>1023.0</ele><time>2026-05-03T09:37:11.979Z</time></trkpt><trkpt lat="44.2533598" lon="8.2066855"><ele>1023.0</ele><time>2026-05-03T09:37:12.979Z</time></trkpt><trkpt lat="44.2534403" lon="8.2067352"><ele>1023.0</ele><time>2026-05-03T09:37:13.979Z</time></trkpt><trkpt lat="44.2535203" lon="8.2067709"><ele>1017.0</ele><time>2026-05-03T09:37:14.979Z</time></trkpt><trkpt lat="44.2536069" lon="8.2067746"><ele>1011.0</ele><time>2026-05-03T09:37:15.98Z</time></trkpt><trkpt lat="44.2536942" lon="8.2067516"><ele>1005.0</ele><time>2026-05-03T09:37:16.979Z</time></trkpt><trkpt lat="44.2537834" lon="8.2066924"><ele>999.0</ele><time>2026-05-03T09:37:17.979Z</time></trkpt><trkpt lat="44.253881" lon="8.2066166"><ele>993.0</ele><time>2026-05-03T09:37:18.979Z</time></trkpt><trkpt lat="44.2539841" lon="8.2065505"><ele>991.0</ele><time>2026-05-03T09:37:19.979Z</time></trkpt><trkpt lat="44.254082" lon="8.2064978"><ele>989.0</ele><time>2026-05-03T09:37:20.979Z</time></trkpt><trkpt lat="44.2541712" lon="8.2064642"><ele>987.0</ele><time>2026-05-03T09:37:21.98Z</time></trkpt><trkpt lat="44.2542483" lon="8.2064507"><ele>985.0</ele><time>2026-05-03T09:37:22.98Z</time></trkpt><trkpt lat="44.2543226" lon="8.206459"><ele>983.0</ele><time>2026-05-03T09:37:23.979Z</time></trkpt><trkpt lat="44.2543919" lon="8.2064935"><ele>981.0</ele><time>2026-05-03T09:37:24.98Z</time></trkpt><trkpt lat="44.2544432" lon="8.2065633"><ele>981.0</ele><time>2026-05-03T09:37:25.98Z</time></trkpt><trkpt lat="44.2544837" lon="8.206662"><ele>980.9999999999999</ele><time>2026-05-03T09:37:26.979Z</time></trkpt><trkpt lat="44.2545198" lon="8.2067858"><ele>980.9999999999999</ele><time>2026-05-03T09:37:27.979Z</time></trkpt><trkpt lat="44.2545639" lon="8.2069271"><ele>981.0</ele><time>2026-05-03T09:37:28.979Z</time></trkpt><trkpt lat="44.2546069" lon="8.207056"><ele>981.0</ele><time>2026-05-03T09:37:29.979Z</time></trkpt><trkpt lat="44.2546498" lon="8.2071684"><ele>981.0</ele><time>2026-05-03T09:37:30.98Z</time></trkpt><trkpt lat="44.2546925" lon="8.2072612"><ele>981.0</ele><time>2026-05-03T09:37:31.979Z</time></trkpt><trkpt lat="44.2547445" lon="8.2073361"><ele>981.0</ele><time>2026-05-03T09:37:32.979Z</time></trkpt><trkpt lat="44.2548047" lon="8.2073919"><ele>981.0</ele><time>2026-05-03T09:37:33.979Z</time></trkpt><trkpt lat="44.2548785" lon="8.2074342"><ele>981.0</ele><time>2026-05-03T09:37:34.979Z</time></trkpt><trkpt lat="44.2549619" lon="8.2074618"><ele>981.0</ele><time>2026-05-03T09:37:35.979Z</time></trkpt><trkpt lat="44.255051" lon="8.2074805"><ele>979.3333333333334</ele><time>2026-05-03T09:37:36.979Z</time></trkpt><trkpt lat="44.255146" lon="8.2075014"><ele>977.6666666666667</ele><time>2026-05-03T09:37:37.98Z</time></trkpt><trkpt lat="44.2552275" lon="8.2075353"><ele>976.0</ele><time>2026-05-03T09:37:38.98Z</time></trkpt><trkpt lat="44.2552932" lon="8.2075795"><ele>974.3333333333334</ele><time>2026-05-03T09:37:39.979Z</time></trkpt><trkpt lat="44.2553461" lon="8.2076376"><ele>972.6666666666667</ele><time>2026-05-03T09:37:40.98Z</time></trkpt><trkpt lat="44.2553832" lon="8.2077198"><ele>971.0</ele><time>2026-05-03T09:37:41.979Z</time></trkpt><trkpt lat="44.255399" lon="8.2078214"><ele>971.0000000000001</ele><time>2026-05-03T09:37:42.979Z</time></trkpt><trkpt lat="44.2553905" lon="8.2079324"><ele>971.0</ele><time>2026-05-03T09:37:43.98Z</time></trkpt><trkpt lat="44.2553665" lon="8.2080438"><ele>971.0</ele><time>2026-05-03T09:37:44.979Z</time></trkpt><trkpt lat="44.2553488" lon="8.2081443"><ele>971.0</ele><time>2026-05-03T09:37:45.98Z</time></trkpt><trkpt lat="44.2553351" lon="8.2082941"><ele>971.0000000000001</ele><time>2026-05-03T09:37:47.98Z</time></trkpt><trkpt lat="44.2553869" lon="8.2084042"><ele>971.0</ele><time>2026-05-03T09:37:49.979Z</time></trkpt><trkpt lat="44.2554452" lon="8.2084393"><ele>969.0</ele><time>2026-05-03T09:37:50.98Z</time></trkpt><trkpt lat="44.2555234" lon="8.2084535"><ele>966.9999999999999</ele><time>2026-05-03T09:37:51.979Z</time></trkpt><trkpt lat="44.2556182" lon="8.2084401"><ele>964.9999999999999</ele><time>2026-05-03T09:37:52.979Z</time></trkpt><trkpt lat="44.2557354" lon="8.2084057"><ele>963.0</ele><time>2026-05-03T09:37:53.98Z</time></trkpt><trkpt lat="44.2558648" lon="8.2083385"><ele>961.0</ele><time>2026-05-03T09:37:54.979Z</time></trkpt><trkpt lat="44.2559933" lon="8.2082626"><ele>961.0</ele><time>2026-05-03T09:37:55.979Z</time></trkpt><trkpt lat="44.2561262" lon="8.2081929"><ele>961.0</ele><time>2026-05-03T09:37:56.979Z</time></trkpt><trkpt lat="44.2562615" lon="8.2081306"><ele>961.0</ele><time>2026-05-03T09:37:57.979Z</time></trkpt><trkpt lat="44.2563981" lon="8.2080729"><ele>961.0</ele><time>2026-05-03T09:37:58.979Z</time></trkpt><trkpt lat="44.2565366" lon="8.2080224"><ele>966.5</ele><time>2026-05-03T09:37:59.98Z</time></trkpt><trkpt lat="44.2566686" lon="8.2079687"><ele>972.0</ele><time>2026-05-03T09:38:00.98Z</time></trkpt><trkpt lat="44.2567882" lon="8.2079184"><ele>977.5</ele><time>2026-05-03T09:38:01.979Z</time></trkpt><trkpt lat="44.2568975" lon="8.207863"><ele>983.0</ele><time>2026-05-03T09:38:02.979Z</time></trkpt><trkpt lat="44.2569928" lon="8.2078134"><ele>983.0</ele><time>2026-05-03T09:38:03.98Z</time></trkpt><trkpt lat="44.2570876" lon="8.2077806"><ele>983.0</ele><time>2026-05-03T09:38:04.98Z</time></trkpt><trkpt lat="44.2571816" lon="8.2077658"><ele>983.0</ele><time>2026-05-03T09:38:05.979Z</time></trkpt><trkpt lat="44.2572718" lon="8.207779"><ele>983.0</ele><time>2026-05-03T09:38:06.979Z</time></trkpt><trkpt lat="44.2573648" lon="8.2078324"><ele>983.0</ele><time>2026-05-03T09:38:07.979Z</time></trkpt><trkpt lat="44.2574525" lon="8.2079172"><ele>981.75</ele><time>2026-05-03T09:38:08.979Z</time></trkpt><trkpt lat="44.2575309" lon="8.2080528"><ele>980.5</ele><time>2026-05-03T09:38:09.979Z</time></trkpt><trkpt lat="44.2576091" lon="8.2082233"><ele>979.25</ele><time>2026-05-03T09:38:10.979Z</time></trkpt><trkpt lat="44.2576812" lon="8.2084106"><ele>978.0</ele><time>2026-05-03T09:38:11.979Z</time></trkpt><trkpt lat="44.2577405" lon="8.2086204"><ele>972.0</ele><time>2026-05-03T09:38:12.98Z</time></trkpt><trkpt lat="44.2577884" lon="8.2088294"><ele>966.0</ele><time>2026-05-03T09:38:13.98Z</time></trkpt><trkpt lat="44.2578122" lon="8.2090385"><ele>960.0</ele><time>2026-05-03T09:38:14.98Z</time></trkpt><trkpt lat="44.2578195" lon="8.2092233"><ele>954.0</ele><time>2026-05-03T09:38:15.98Z</time></trkpt><trkpt lat="44.2577974" lon="8.209394"><ele>950.2</ele><time>2026-05-03T09:38:16.979Z</time></trkpt><trkpt lat="44.2577426" lon="8.2095466"><ele>946.4000000000001</ele><time>2026-05-03T09:38:17.98Z</time></trkpt><trkpt lat="44.2576817" lon="8.2096811"><ele>942.6</ele><time>2026-05-03T09:38:18.98Z</time></trkpt><trkpt lat="44.2576267" lon="8.2098056"><ele>938.8</ele><time>2026-05-03T09:38:19.979Z</time></trkpt><trkpt lat="44.2575843" lon="8.2099393"><ele>935.0</ele><time>2026-05-03T09:38:20.979Z</time></trkpt><trkpt lat="44.2575591" lon="8.2100758"><ele>935.0</ele><time>2026-05-03T09:38:21.979Z</time></trkpt><trkpt lat="44.2575579" lon="8.2102299"><ele>935.0</ele><time>2026-05-03T09:38:22.979Z</time></trkpt><trkpt lat="44.2575716" lon="8.2103984"><ele>935.0</ele><time>2026-05-03T09:38:23.979Z</time></trkpt><trkpt lat="44.2576152" lon="8.2105811"><ele>935.0</ele><time>2026-05-03T09:38:24.98Z</time></trkpt><trkpt lat="44.2576659" lon="8.2107687"><ele>934.0</ele><time>2026-05-03T09:38:25.98Z</time></trkpt><trkpt lat="44.2577135" lon="8.2109502"><ele>933.0</ele><time>2026-05-03T09:38:26.979Z</time></trkpt><trkpt lat="44.2577671" lon="8.211118"><ele>932.0</ele><time>2026-05-03T09:38:27.979Z</time></trkpt><trkpt lat="44.257813" lon="8.2112765"><ele>931.0</ele><time>2026-05-03T09:38:28.979Z</time></trkpt><trkpt lat="44.2578577" lon="8.211446"><ele>929.5999999999999</ele><time>2026-05-03T09:38:29.979Z</time></trkpt><trkpt lat="44.2578796" lon="8.2116092"><ele>928.1999999999999</ele><time>2026-05-03T09:38:30.98Z</time></trkpt><trkpt lat="44.257867" lon="8.2117603"><ele>926.8000000000001</ele><time>2026-05-03T09:38:31.98Z</time></trkpt><trkpt lat="44.2578207" lon="8.2118926"><ele>925.4000000000001</ele><time>2026-05-03T09:38:32.98Z</time></trkpt><trkpt lat="44.2577647" lon="8.2120211"><ele>924.0</ele><time>2026-05-03T09:38:33.979Z</time></trkpt><trkpt lat="44.2577134" lon="8.2121395"><ele>924.0</ele><time>2026-05-03T09:38:34.979Z</time></trkpt><trkpt lat="44.2576622" lon="8.2122515"><ele>924.0</ele><time>2026-05-03T09:38:35.98Z</time></trkpt><trkpt lat="44.2576467" lon="8.2123587"><ele>924.0</ele><time>2026-05-03T09:38:36.98Z</time></trkpt><trkpt lat="44.2576657" lon="8.2124723"><ele>924.0</ele><time>2026-05-03T09:38:37.98Z</time></trkpt><trkpt lat="44.2577086" lon="8.2125767"><ele>924.0</ele><time>2026-05-03T09:38:38.979Z</time></trkpt><trkpt lat="44.2577883" lon="8.2126742"><ele>924.0</ele><time>2026-05-03T09:38:39.98Z</time></trkpt><trkpt lat="44.2578898" lon="8.2127521"><ele>923.3333333333333</ele><time>2026-05-03T09:38:40.98Z</time></trkpt><trkpt lat="44.2580298" lon="8.2128147"><ele>922.6666666666666</ele><time>2026-05-03T09:38:41.979Z</time></trkpt><trkpt lat="44.2581871" lon="8.212868"><ele>922.0</ele><time>2026-05-03T09:38:42.979Z</time></trkpt><trkpt lat="44.2583397" lon="8.2129124"><ele>925.0</ele><time>2026-05-03T09:38:43.979Z</time></trkpt><trkpt lat="44.2584902" lon="8.2129598"><ele>928.0</ele><time>2026-05-03T09:38:44.979Z</time></trkpt><trkpt lat="44.2586471" lon="8.2129939"><ele>931.0</ele><time>2026-05-03T09:38:45.979Z</time></trkpt><trkpt lat="44.2588041" lon="8.2130255"><ele>932.5</ele><time>2026-05-03T09:38:46.979Z</time></trkpt><trkpt lat="44.2589531" lon="8.2130435"><ele>934.0</ele><time>2026-05-03T09:38:47.979Z</time></trkpt><trkpt lat="44.259102" lon="8.2130548"><ele>935.5</ele><time>2026-05-03T09:38:48.98Z</time></trkpt><trkpt lat="44.2592505" lon="8.213074"><ele>937.0</ele><time>2026-05-03T09:38:49.979Z</time></trkpt><trkpt lat="44.2593958" lon="8.213104"><ele>932.25</ele><time>2026-05-03T09:38:50.979Z</time></trkpt><trkpt lat="44.2595291" lon="8.2131573"><ele>927.5</ele><time>2026-05-03T09:38:51.979Z</time></trkpt><trkpt lat="44.2596578" lon="8.2132211"><ele>922.75</ele><time>2026-05-03T09:38:52.98Z</time></trkpt><trkpt lat="44.2597806" lon="8.2132812"><ele>918.0</ele><time>2026-05-03T09:38:53.979Z</time></trkpt><trkpt lat="44.2598959" lon="8.2133363"><ele>917.75</ele><time>2026-05-03T09:38:54.98Z</time></trkpt><trkpt lat="44.260009" lon="8.2133829"><ele>917.5</ele><time>2026-05-03T09:38:55.979Z</time></trkpt><trkpt lat="44.2601208" lon="8.2134182"><ele>917.25</ele><time>2026-05-03T09:38:56.979Z</time></trkpt><trkpt lat="44.2602285" lon="8.2134227"><ele>917.0</ele><time>2026-05-03T09:38:57.979Z</time></trkpt><trkpt lat="44.2603427" lon="8.2133823"><ele>917.0</ele><time>2026-05-03T09:38:58.98Z</time></trkpt><trkpt lat="44.2604465" lon="8.2132862"><ele>917.0</ele><time>2026-05-03T09:38:59.979Z</time></trkpt><trkpt lat="44.2605476" lon="8.2131613"><ele>917.0</ele><time>2026-05-03T09:39:00.979Z</time></trkpt><trkpt lat="44.2606521" lon="8.2130256"><ele>917.0</ele><time>2026-05-03T09:39:01.979Z</time></trkpt><trkpt lat="44.2607589" lon="8.2129054"><ele>916.25</ele><time>2026-05-03T09:39:02.98Z</time></trkpt><trkpt lat="44.2608813" lon="8.2128085"><ele>915.5</ele><time>2026-05-03T09:39:03.979Z</time></trkpt><trkpt lat="44.2610126" lon="8.2127407"><ele>914.75</ele><time>2026-05-03T09:39:04.98Z</time></trkpt><trkpt lat="44.2611506" lon="8.2126945"><ele>914.0</ele><time>2026-05-03T09:39:05.98Z</time></trkpt><trkpt lat="44.2612797" lon="8.2126448"><ele>914.0</ele><time>2026-05-03T09:39:06.979Z</time></trkpt><trkpt lat="44.2614046" lon="8.2126027"><ele>914.0</ele><time>2026-05-03T09:39:07.979Z</time></trkpt><trkpt lat="44.2615355" lon="8.2125703"><ele>914.0</ele><time>2026-05-03T09:39:08.979Z</time></trkpt><trkpt lat="44.2616661" lon="8.2125655"><ele>914.0</ele><time>2026-05-03T09:39:09.98Z</time></trkpt><trkpt lat="44.2618092" lon="8.2125952"><ele>911.25</ele><time>2026-05-03T09:39:10.979Z</time></trkpt><trkpt lat="44.2619487" lon="8.2126523"><ele>908.5</ele><time>2026-05-03T09:39:11.98Z</time></trkpt><trkpt lat="44.2620778" lon="8.212722"><ele>905.75</ele><time>2026-05-03T09:39:12.979Z</time></trkpt><trkpt lat="44.2622047" lon="8.2127979"><ele>903.0</ele><time>2026-05-03T09:39:13.979Z</time></trkpt><trkpt lat="44.2623289" lon="8.2128757"><ele>901.5</ele><time>2026-05-03T09:39:14.979Z</time></trkpt><trkpt lat="44.2624484" lon="8.2129421"><ele>900.0</ele><time>2026-05-03T09:39:15.979Z</time></trkpt><trkpt lat="44.262569" lon="8.2130012"><ele>898.5</ele><time>2026-05-03T09:39:16.979Z</time></trkpt><trkpt lat="44.2626792" lon="8.2130499"><ele>897.0</ele><time>2026-05-03T09:39:17.979Z</time></trkpt><trkpt lat="44.2627729" lon="8.2130951"><ele>897.0</ele><time>2026-05-03T09:39:18.98Z</time></trkpt><trkpt lat="44.2628683" lon="8.2131239"><ele>897.0</ele><time>2026-05-03T09:39:19.979Z</time></trkpt><trkpt lat="44.2629677" lon="8.2131138"><ele>897.0</ele><time>2026-05-03T09:39:20.98Z</time></trkpt><trkpt lat="44.2630606" lon="8.213045"><ele>897.0</ele><time>2026-05-03T09:39:21.98Z</time></trkpt><trkpt lat="44.26314" lon="8.212922"><ele>897.0</ele><time>2026-05-03T09:39:22.979Z</time></trkpt><trkpt lat="44.2632048" lon="8.2127659"><ele>895.5</ele><time>2026-05-03T09:39:23.979Z</time></trkpt><trkpt lat="44.2632531" lon="8.212602"><ele>894.0</ele><time>2026-05-03T09:39:24.98Z</time></trkpt><trkpt lat="44.2633026" lon="8.2124479"><ele>892.5</ele><time>2026-05-03T09:39:25.98Z</time></trkpt><trkpt lat="44.2633601" lon="8.2123009"><ele>891.0</ele><time>2026-05-03T09:39:26.979Z</time></trkpt><trkpt lat="44.263423" lon="8.2121576"><ele>891.0</ele><time>2026-05-03T09:39:27.98Z</time></trkpt><trkpt lat="44.2634911" lon="8.2120356"><ele>891.0</ele><time>2026-05-03T09:39:28.979Z</time></trkpt><trkpt lat="44.263552" lon="8.2119358"><ele>891.0</ele><time>2026-05-03T09:39:29.979Z</time></trkpt><trkpt lat="44.263608" lon="8.2118565"><ele>891.0</ele><time>2026-05-03T09:39:30.979Z</time></trkpt><trkpt lat="44.2636679" lon="8.2117924"><ele>891.0</ele><time>2026-05-03T09:39:31.98Z</time></trkpt><trkpt lat="44.2637325" lon="8.2117322"><ele>891.0</ele><time>2026-05-03T09:39:32.979Z</time></trkpt><trkpt lat="44.2638053" lon="8.2116916"><ele>891.0</ele><time>2026-05-03T09:39:33.98Z</time></trkpt><trkpt lat="44.2638768" lon="8.2116772"><ele>891.0</ele><time>2026-05-03T09:39:34.979Z</time></trkpt><trkpt lat="44.2639446" lon="8.2116872"><ele>891.0</ele><time>2026-05-03T09:39:35.98Z</time></trkpt><trkpt lat="44.2640453" lon="8.2117984"><ele>891.0</ele><time>2026-05-03T09:39:37.98Z</time></trkpt><trkpt lat="44.2640913" lon="8.211865"><ele>891.0</ele><time>2026-05-03T09:39:38.979Z</time></trkpt><trkpt lat="44.2641361" lon="8.2119323"><ele>891.0</ele><time>2026-05-03T09:39:39.979Z</time></trkpt><trkpt lat="44.2642248" lon="8.2120466"><ele>889.4285714285714</ele><time>2026-05-03T09:39:41.98Z</time></trkpt><trkpt lat="44.2642842" lon="8.2120957"><ele>887.8571428571429</ele><time>2026-05-03T09:39:42.978Z</time></trkpt><trkpt lat="44.2643498" lon="8.2121282"><ele>886.2857142857142</ele><time>2026-05-03T09:39:43.978Z</time></trkpt><trkpt lat="44.2644173" lon="8.212147"><ele>884.7142857142858</ele><time>2026-05-03T09:39:44.978Z</time></trkpt><trkpt lat="44.2644872" lon="8.2121575"><ele>883.1428571428571</ele><time>2026-05-03T09:39:45.978Z</time></trkpt><trkpt lat="44.2645632" lon="8.2121727"><ele>881.5714285714286</ele><time>2026-05-03T09:39:46.978Z</time></trkpt><trkpt lat="44.264644" lon="8.2121884"><ele>880.0</ele><time>2026-05-03T09:39:47.979Z</time></trkpt><trkpt lat="44.264729" lon="8.2122043"><ele>878.5714285714286</ele><time>2026-05-03T09:39:48.978Z</time></trkpt><trkpt lat="44.2648062" lon="8.212216"><ele>877.1428571428571</ele><time>2026-05-03T09:39:49.979Z</time></trkpt><trkpt lat="44.2648803" lon="8.212231"><ele>875.7142857142858</ele><time>2026-05-03T09:39:50.979Z</time></trkpt><trkpt lat="44.2649547" lon="8.2122447"><ele>874.2857142857142</ele><time>2026-05-03T09:39:51.978Z</time></trkpt><trkpt lat="44.2650294" lon="8.2122558"><ele>872.8571428571429</ele><time>2026-05-03T09:39:52.978Z</time></trkpt><trkpt lat="44.2651018" lon="8.2122634"><ele>871.4285714285714</ele><time>2026-05-03T09:39:53.978Z</time></trkpt><trkpt lat="44.2651735" lon="8.2122648"><ele>870.0</ele><time>2026-05-03T09:39:54.978Z</time></trkpt><trkpt lat="44.2652513" lon="8.2122637"><ele>870.0</ele><time>2026-05-03T09:39:55.978Z</time></trkpt><trkpt lat="44.2653288" lon="8.212252"><ele>870.0</ele><time>2026-05-03T09:39:56.979Z</time></trkpt><trkpt lat="44.2654064" lon="8.2122094"><ele>870.0</ele><time>2026-05-03T09:39:57.978Z</time></trkpt><trkpt lat="44.2654699" lon="8.2121315"><ele>870.0</ele><time>2026-05-03T09:39:58.979Z</time></trkpt><trkpt lat="44.2655229" lon="8.212025"><ele>870.0</ele><time>2026-05-03T09:39:59.978Z</time></trkpt><trkpt lat="44.2655758" lon="8.2118855"><ele>867.75</ele><time>2026-05-03T09:40:00.979Z</time></trkpt><trkpt lat="44.2656323" lon="8.2117246"><ele>865.5</ele><time>2026-05-03T09:40:01.978Z</time></trkpt><trkpt lat="44.2656891" lon="8.2115673"><ele>863.25</ele><time>2026-05-03T09:40:02.979Z</time></trkpt><trkpt lat="44.265752" lon="8.211422"><ele>861.0</ele><time>2026-05-03T09:40:03.978Z</time></trkpt><trkpt lat="44.2658127" lon="8.2112976"><ele>861.0</ele><time>2026-05-03T09:40:04.978Z</time></trkpt><trkpt lat="44.2658715" lon="8.2111907"><ele>861.0</ele><time>2026-05-03T09:40:05.978Z</time></trkpt><trkpt lat="44.2659343" lon="8.2110942"><ele>861.0</ele><time>2026-05-03T09:40:06.979Z</time></trkpt><trkpt lat="44.2659985" lon="8.2110248"><ele>861.0</ele><time>2026-05-03T09:40:07.979Z</time></trkpt><trkpt lat="44.2660648" lon="8.2109879"><ele>861.0</ele><time>2026-05-03T09:40:08.978Z</time></trkpt><trkpt lat="44.2661368" lon="8.2109856"><ele>861.0</ele><time>2026-05-03T09:40:09.978Z</time></trkpt><trkpt lat="44.266209" lon="8.211031"><ele>861.0</ele><time>2026-05-03T09:40:10.978Z</time></trkpt><trkpt lat="44.2662725" lon="8.2111167"><ele>860.9999999999999</ele><time>2026-05-03T09:40:11.979Z</time></trkpt><trkpt lat="44.2663175" lon="8.2112481"><ele>860.9999999999999</ele><time>2026-05-03T09:40:12.978Z</time></trkpt><trkpt lat="44.266356" lon="8.211381"><ele>861.0</ele><time>2026-05-03T09:40:13.979Z</time></trkpt><trkpt lat="44.2664007" lon="8.2114954"><ele>861.0</ele><time>2026-05-03T09:40:14.978Z</time></trkpt><trkpt lat="44.2664597" lon="8.2115919"><ele>856.5</ele><time>2026-05-03T09:40:15.979Z</time></trkpt><trkpt lat="44.2665378" lon="8.2116773"><ele>852.0</ele><time>2026-05-03T09:40:16.978Z</time></trkpt><trkpt lat="44.2666488" lon="8.2117451"><ele>847.5</ele><time>2026-05-03T09:40:17.978Z</time></trkpt><trkpt lat="44.2667849" lon="8.2118182"><ele>843.0</ele><time>2026-05-03T09:40:18.978Z</time></trkpt><trkpt lat="44.266923" lon="8.2119099"><ele>843.0</ele><time>2026-05-03T09:40:19.979Z</time></trkpt><trkpt lat="44.2670658" lon="8.2120068"><ele>843.0</ele><time>2026-05-03T09:40:20.978Z</time></trkpt><trkpt lat="44.2672045" lon="8.2120991"><ele>843.0</ele><time>2026-05-03T09:40:21.979Z</time></trkpt><trkpt lat="44.2673413" lon="8.2121846"><ele>844.5</ele><time>2026-05-03T09:40:22.978Z</time></trkpt><trkpt lat="44.2674722" lon="8.2122707"><ele>846.0</ele><time>2026-05-03T09:40:23.978Z</time></trkpt><trkpt lat="44.2676036" lon="8.2123596"><ele>847.5</ele><time>2026-05-03T09:40:24.978Z</time></trkpt><trkpt lat="44.2677299" lon="8.2124353"><ele>849.0</ele><time>2026-05-03T09:40:25.979Z</time></trkpt><trkpt lat="44.2678594" lon="8.2124963"><ele>844.5</ele><time>2026-05-03T09:40:26.979Z</time></trkpt><trkpt lat="44.2679813" lon="8.2125663"><ele>840.0</ele><time>2026-05-03T09:40:27.978Z</time></trkpt><trkpt lat="44.2680988" lon="8.2126137"><ele>835.5</ele><time>2026-05-03T09:40:28.979Z</time></trkpt><trkpt lat="44.2682169" lon="8.2126227"><ele>831.0</ele><time>2026-05-03T09:40:29.978Z</time></trkpt><trkpt lat="44.2683433" lon="8.2125853"><ele>830.0</ele><time>2026-05-03T09:40:30.978Z</time></trkpt><trkpt lat="44.2684754" lon="8.2125113"><ele>829.0</ele><time>2026-05-03T09:40:31.978Z</time></trkpt><trkpt lat="44.2685994" lon="8.2124205"><ele>828.0</ele><time>2026-05-03T09:40:32.979Z</time></trkpt><trkpt lat="44.2687113" lon="8.212327"><ele>827.0</ele><time>2026-05-03T09:40:33.979Z</time></trkpt><trkpt lat="44.2688074" lon="8.2122413"><ele>829.2</ele><time>2026-05-03T09:40:34.978Z</time></trkpt><trkpt lat="44.2689027" lon="8.2121881"><ele>831.4000000000001</ele><time>2026-05-03T09:40:35.978Z</time></trkpt><trkpt lat="44.2690037" lon="8.2121628"><ele>833.5999999999999</ele><time>2026-05-03T09:40:36.978Z</time></trkpt><trkpt lat="44.2691051" lon="8.2121848"><ele>835.8</ele><time>2026-05-03T09:40:37.978Z</time></trkpt><trkpt lat="44.2692037" lon="8.2122461"><ele>838.0</ele><time>2026-05-03T09:40:38.978Z</time></trkpt><trkpt lat="44.2693029" lon="8.2123028"><ele>838.0</ele><time>2026-05-03T09:40:39.979Z</time></trkpt><trkpt lat="44.2694053" lon="8.2123435"><ele>838.0</ele><time>2026-05-03T09:40:40.979Z</time></trkpt><trkpt lat="44.2695212" lon="8.2123583"><ele>838.0</ele><time>2026-05-03T09:40:41.978Z</time></trkpt><trkpt lat="44.2696448" lon="8.2123406"><ele>838.0</ele><time>2026-05-03T09:40:42.979Z</time></trkpt><trkpt lat="44.2697657" lon="8.2122992"><ele>834.5</ele><time>2026-05-03T09:40:43.978Z</time></trkpt><trkpt lat="44.2698908" lon="8.2122486"><ele>831.0</ele><time>2026-05-03T09:40:44.979Z</time></trkpt><trkpt lat="44.2700182" lon="8.2121979"><ele>827.5</ele><time>2026-05-03T09:40:45.979Z</time></trkpt><trkpt lat="44.270151" lon="8.2121448"><ele>824.0</ele><time>2026-05-03T09:40:46.979Z</time></trkpt><trkpt lat="44.270285" lon="8.2120971"><ele>824.0</ele><time>2026-05-03T09:40:47.979Z</time></trkpt><trkpt lat="44.2704153" lon="8.2120456"><ele>824.0</ele><time>2026-05-03T09:40:48.978Z</time></trkpt><trkpt lat="44.2705325" lon="8.2119855"><ele>824.0</ele><time>2026-05-03T09:40:49.978Z</time></trkpt><trkpt lat="44.2706484" lon="8.211916"><ele>824.0</ele><time>2026-05-03T09:40:50.978Z</time></trkpt><trkpt lat="44.2707532" lon="8.2118314"><ele>820.4000000000001</ele><time>2026-05-03T09:40:51.978Z</time></trkpt><trkpt lat="44.2708348" lon="8.2117435"><ele>816.8</ele><time>2026-05-03T09:40:52.979Z</time></trkpt><trkpt lat="44.2709081" lon="8.2116569"><ele>813.2</ele><time>2026-05-03T09:40:53.979Z</time></trkpt><trkpt lat="44.2709725" lon="8.2115766"><ele>809.5999999999999</ele><time>2026-05-03T09:40:54.978Z</time></trkpt><trkpt lat="44.2710213" lon="8.2114997"><ele>806.0</ele><time>2026-05-03T09:40:55.979Z</time></trkpt><trkpt lat="44.2710791" lon="8.2113658"><ele>805.5999999999999</ele><time>2026-05-03T09:40:57.978Z</time></trkpt><trkpt lat="44.2710696" lon="8.2112185"><ele>805.2</ele><time>2026-05-03T09:40:59.978Z</time></trkpt><trkpt lat="44.2710326" lon="8.2111265"><ele>804.8</ele><time>2026-05-03T09:41:00.978Z</time></trkpt><trkpt lat="44.2709806" lon="8.2110198"><ele>804.4000000000001</ele><time>2026-05-03T09:41:01.978Z</time></trkpt><trkpt lat="44.2709154" lon="8.2108945"><ele>804.0</ele><time>2026-05-03T09:41:02.978Z</time></trkpt><trkpt lat="44.2708459" lon="8.2107538"><ele>802.4000000000001</ele><time>2026-05-03T09:41:03.979Z</time></trkpt><trkpt lat="44.270779" lon="8.2106145"><ele>800.8</ele><time>2026-05-03T09:41:04.979Z</time></trkpt><trkpt lat="44.2707137" lon="8.2104757"><ele>799.2</ele><time>2026-05-03T09:41:05.978Z</time></trkpt><trkpt lat="44.2706607" lon="8.210343"><ele>797.5999999999999</ele><time>2026-05-03T09:41:06.979Z</time></trkpt><trkpt lat="44.2706077" lon="8.2102266"><ele>796.0</ele><time>2026-05-03T09:41:07.979Z</time></trkpt><trkpt lat="44.2705322" lon="8.2101358"><ele>800.1999999999999</ele><time>2026-05-03T09:41:08.979Z</time></trkpt><trkpt lat="44.2704415" lon="8.2100856"><ele>804.4</ele><time>2026-05-03T09:41:09.978Z</time></trkpt><trkpt lat="44.2703395" lon="8.2100637"><ele>808.6</ele><time>2026-05-03T09:41:10.978Z</time></trkpt><trkpt lat="44.2702352" lon="8.2100536"><ele>812.8</ele><time>2026-05-03T09:41:11.979Z</time></trkpt><trkpt lat="44.2701391" lon="8.2100379"><ele>817.0</ele><time>2026-05-03T09:41:12.979Z</time></trkpt><trkpt lat="44.2700667" lon="8.2099899"><ele>817.0</ele><time>2026-05-03T09:41:13.978Z</time></trkpt><trkpt lat="44.2700112" lon="8.2099182"><ele>817.0</ele><time>2026-05-03T09:41:14.978Z</time></trkpt><trkpt lat="44.2699743" lon="8.2098165"><ele>817.0</ele><time>2026-05-03T09:41:15.979Z</time></trkpt><trkpt lat="44.2699471" lon="8.2096741"><ele>817.0</ele><time>2026-05-03T09:41:16.979Z</time></trkpt><trkpt lat="44.2699246" lon="8.2095008"><ele>817.0</ele><time>2026-05-03T09:41:17.978Z</time></trkpt><trkpt lat="44.2698991" lon="8.209327"><ele>817.5</ele><time>2026-05-03T09:41:18.978Z</time></trkpt><trkpt lat="44.2698684" lon="8.2091546"><ele>818.0</ele><time>2026-05-03T09:41:19.978Z</time></trkpt><trkpt lat="44.2698313" lon="8.208985"><ele>818.5</ele><time>2026-05-03T09:41:20.978Z</time></trkpt><trkpt lat="44.2697999" lon="8.2088096"><ele>819.0</ele><time>2026-05-03T09:41:21.978Z</time></trkpt><trkpt lat="44.26979" lon="8.2086477"><ele>819.0</ele><time>2026-05-03T09:41:22.978Z</time></trkpt><trkpt lat="44.2698152" lon="8.2084841"><ele>819.0</ele><time>2026-05-03T09:41:23.978Z</time></trkpt><trkpt lat="44.2698822" lon="8.2083457"><ele>819.0</ele><time>2026-05-03T09:41:24.978Z</time></trkpt><trkpt lat="44.2699692" lon="8.2082239"><ele>819.0</ele><time>2026-05-03T09:41:25.979Z</time></trkpt><trkpt lat="44.2700455" lon="8.208096"><ele>821.0</ele><time>2026-05-03T09:41:26.978Z</time></trkpt><trkpt lat="44.2700982" lon="8.2079504"><ele>823.0</ele><time>2026-05-03T09:41:27.979Z</time></trkpt><trkpt lat="44.2701275" lon="8.2077954"><ele>825.0</ele><time>2026-05-03T09:41:28.978Z</time></trkpt><trkpt lat="44.270145" lon="8.2076306"><ele>827.0</ele><time>2026-05-03T09:41:29.979Z</time></trkpt><trkpt lat="44.270161" lon="8.2074673"><ele>829.0</ele><time>2026-05-03T09:41:30.979Z</time></trkpt><trkpt lat="44.2701851" lon="8.2073084"><ele>831.0</ele><time>2026-05-03T09:41:31.978Z</time></trkpt><trkpt lat="44.270203" lon="8.207144"><ele>833.0</ele><time>2026-05-03T09:41:32.978Z</time></trkpt><trkpt lat="44.2702257" lon="8.2069697"><ele>835.0</ele><time>2026-05-03T09:41:33.978Z</time></trkpt><trkpt lat="44.2702582" lon="8.2067961"><ele>835.0</ele><time>2026-05-03T09:41:34.978Z</time></trkpt><trkpt lat="44.2702952" lon="8.2066206"><ele>835.0</ele><time>2026-05-03T09:41:35.978Z</time></trkpt><trkpt lat="44.2703326" lon="8.2064391"><ele>835.0</ele><time>2026-05-03T09:41:36.978Z</time></trkpt><trkpt lat="44.2703756" lon="8.2062546"><ele>835.0</ele><time>2026-05-03T09:41:37.978Z</time></trkpt><trkpt lat="44.2704227" lon="8.206079"><ele>836.25</ele><time>2026-05-03T09:41:38.979Z</time></trkpt><trkpt lat="44.2704655" lon="8.2059097"><ele>837.5</ele><time>2026-05-03T09:41:39.978Z</time></trkpt><trkpt lat="44.2705075" lon="8.2057306"><ele>838.75</ele><time>2026-05-03T09:41:40.979Z</time></trkpt><trkpt lat="44.2705469" lon="8.2055542"><ele>840.0</ele><time>2026-05-03T09:41:41.978Z</time></trkpt><trkpt lat="44.2705817" lon="8.205387"><ele>837.0</ele><time>2026-05-03T09:41:42.978Z</time></trkpt><trkpt lat="44.2706213" lon="8.2052183"><ele>834.0</ele><time>2026-05-03T09:41:43.979Z</time></trkpt><trkpt lat="44.2706655" lon="8.2050662"><ele>831.0</ele><time>2026-05-03T09:41:44.979Z</time></trkpt><trkpt lat="44.2707236" lon="8.204924"><ele>828.0</ele><time>2026-05-03T09:41:45.978Z</time></trkpt><trkpt lat="44.2707982" lon="8.2047997"><ele>828.0</ele><time>2026-05-03T09:41:46.979Z</time></trkpt><trkpt lat="44.2708826" lon="8.2046887"><ele>828.0</ele><time>2026-05-03T09:41:47.978Z</time></trkpt><trkpt lat="44.270985" lon="8.2045936"><ele>828.0</ele><time>2026-05-03T09:41:48.979Z</time></trkpt><trkpt lat="44.2711074" lon="8.2045163"><ele>828.0</ele><time>2026-05-03T09:41:49.979Z</time></trkpt><trkpt lat="44.2712388" lon="8.2044626"><ele>828.0</ele><time>2026-05-03T09:41:50.978Z</time></trkpt><trkpt lat="44.2713658" lon="8.2044419"><ele>828.0</ele><time>2026-05-03T09:41:51.979Z</time></trkpt><trkpt lat="44.2714981" lon="8.2044248"><ele>828.0</ele><time>2026-05-03T09:41:52.978Z</time></trkpt><trkpt lat="44.271631" lon="8.204414"><ele>828.0</ele><time>2026-05-03T09:41:53.978Z</time></trkpt><trkpt lat="44.2717479" lon="8.2043953"><ele>823.8</ele><time>2026-05-03T09:41:54.978Z</time></trkpt><trkpt lat="44.2718463" lon="8.2043713"><ele>819.5999999999999</ele><time>2026-05-03T09:41:55.978Z</time></trkpt><trkpt lat="44.2719295" lon="8.2043277"><ele>815.4000000000001</ele><time>2026-05-03T09:41:56.978Z</time></trkpt><trkpt lat="44.272" lon="8.2042643"><ele>811.2</ele><time>2026-05-03T09:41:57.978Z</time></trkpt><trkpt lat="44.2720564" lon="8.204171"><ele>807.0</ele><time>2026-05-03T09:41:58.978Z</time></trkpt><trkpt lat="44.272112" lon="8.2040399"><ele>806.6</ele><time>2026-05-03T09:41:59.978Z</time></trkpt><trkpt lat="44.2721798" lon="8.2039103"><ele>806.2</ele><time>2026-05-03T09:42:00.979Z</time></trkpt><trkpt lat="44.2722549" lon="8.2038051"><ele>805.8</ele><time>2026-05-03T09:42:01.978Z</time></trkpt><trkpt lat="44.2723404" lon="8.203716"><ele>805.4</ele><time>2026-05-03T09:42:02.978Z</time></trkpt><trkpt lat="44.2724303" lon="8.2036339"><ele>805.0</ele><time>2026-05-03T09:42:03.978Z</time></trkpt><trkpt lat="44.2725174" lon="8.2035594"><ele>804.9999999999999</ele><time>2026-05-03T09:42:04.979Z</time></trkpt><trkpt lat="44.2725979" lon="8.2034896"><ele>805.0</ele><time>2026-05-03T09:42:05.978Z</time></trkpt><trkpt lat="44.2726759" lon="8.2034314"><ele>805.0</ele><time>2026-05-03T09:42:06.978Z</time></trkpt><trkpt lat="44.2727483" lon="8.2033838"><ele>805.0</ele><time>2026-05-03T09:42:07.978Z</time></trkpt><trkpt lat="44.2728167" lon="8.2033494"><ele>804.9999999999999</ele><time>2026-05-03T09:42:08.978Z</time></trkpt><trkpt lat="44.272884" lon="8.2033359"><ele>805.0</ele><time>2026-05-03T09:42:09.978Z</time></trkpt><trkpt lat="44.2729516" lon="8.2033404"><ele>805.0</ele><time>2026-05-03T09:42:10.978Z</time></trkpt><trkpt lat="44.2730341" lon="8.2034208"><ele>805.0</ele><time>2026-05-03T09:42:12.978Z</time></trkpt><trkpt lat="44.2730186" lon="8.2035392"><ele>805.0</ele><time>2026-05-03T09:42:14.979Z</time></trkpt><trkpt lat="44.2729083" lon="8.2036452"><ele>805.0</ele><time>2026-05-03T09:42:16.978Z</time></trkpt><trkpt lat="44.2728392" lon="8.2036894"><ele>805.0</ele><time>2026-05-03T09:42:17.978Z</time></trkpt><trkpt lat="44.2727542" lon="8.2038008"><ele>804.9999999999999</ele><time>2026-05-03T09:42:19.978Z</time></trkpt><trkpt lat="44.2726861" lon="8.2039245"><ele>805.0</ele><time>2026-05-03T09:42:21.979Z</time></trkpt><trkpt lat="44.2726559" lon="8.2040086"><ele>805.0</ele><time>2026-05-03T09:42:23.978Z</time></trkpt><trkpt lat="44.2727267" lon="8.204"><ele>805.0</ele><time>2026-05-03T09:42:25.978Z</time></trkpt><trkpt lat="44.2728048" lon="8.2039721"><ele>804.9999999999999</ele><time>2026-05-03T09:42:26.979Z</time></trkpt><trkpt lat="44.2728973" lon="8.2039261"><ele>805.0</ele><time>2026-05-03T09:42:27.978Z</time></trkpt><trkpt lat="44.2729963" lon="8.2038605"><ele>805.0</ele><time>2026-05-03T09:42:28.978Z</time></trkpt><trkpt lat="44.2730876" lon="8.203781"><ele>805.0</ele><time>2026-05-03T09:42:29.978Z</time></trkpt><trkpt lat="44.2731935" lon="8.203682"><ele>805.0</ele><time>2026-05-03T09:42:30.978Z</time></trkpt><trkpt lat="44.2733121" lon="8.2035834"><ele>805.0</ele><time>2026-05-03T09:42:31.978Z</time></trkpt><trkpt lat="44.2734342" lon="8.2035036"><ele>802.75</ele><time>2026-05-03T09:42:32.979Z</time></trkpt><trkpt lat="44.273554" lon="8.2034214"><ele>800.5</ele><time>2026-05-03T09:42:33.979Z</time></trkpt><trkpt lat="44.2736673" lon="8.2033425"><ele>798.25</ele><time>2026-05-03T09:42:34.979Z</time></trkpt><trkpt lat="44.2737753" lon="8.2032542"><ele>796.0</ele><time>2026-05-03T09:42:35.979Z</time></trkpt><trkpt lat="44.2738851" lon="8.203134"><ele>791.75</ele><time>2026-05-03T09:42:36.978Z</time></trkpt><trkpt lat="44.2739914" lon="8.2030156"><ele>787.5</ele><time>2026-05-03T09:42:37.978Z</time></trkpt><trkpt lat="44.2741052" lon="8.202903"><ele>783.25</ele><time>2026-05-03T09:42:38.979Z</time></trkpt><trkpt lat="44.2742183" lon="8.2027893"><ele>779.0</ele><time>2026-05-03T09:42:39.978Z</time></trkpt><trkpt lat="44.2743349" lon="8.2026992"><ele>779.0</ele><time>2026-05-03T09:42:40.978Z</time></trkpt><trkpt lat="44.274449" lon="8.2026335"><ele>779.0</ele><time>2026-05-03T09:42:41.978Z</time></trkpt><trkpt lat="44.2745601" lon="8.2025878"><ele>779.0</ele><time>2026-05-03T09:42:42.979Z</time></trkpt><trkpt lat="44.2746595" lon="8.2025556"><ele>779.0</ele><time>2026-05-03T09:42:43.978Z</time></trkpt><trkpt lat="44.2747551" lon="8.2025483"><ele>779.0</ele><time>2026-05-03T09:42:44.978Z</time></trkpt><trkpt lat="44.2748483" lon="8.2025574"><ele>776.6</ele><time>2026-05-03T09:42:45.979Z</time></trkpt><trkpt lat="44.2749426" lon="8.2025924"><ele>774.2</ele><time>2026-05-03T09:42:46.978Z</time></trkpt><trkpt lat="44.2750346" lon="8.2026424"><ele>771.8000000000001</ele><time>2026-05-03T09:42:47.978Z</time></trkpt><trkpt lat="44.2751272" lon="8.2026965"><ele>769.4000000000001</ele><time>2026-05-03T09:42:48.978Z</time></trkpt><trkpt lat="44.275231" lon="8.2027238"><ele>767.0</ele><time>2026-05-03T09:42:49.979Z</time></trkpt><trkpt lat="44.2753401" lon="8.2027075"><ele>767.0</ele><time>2026-05-03T09:42:50.979Z</time></trkpt><trkpt lat="44.2754519" lon="8.2026462"><ele>767.0</ele><time>2026-05-03T09:42:51.978Z</time></trkpt><trkpt lat="44.2755573" lon="8.2025474"><ele>767.0</ele><time>2026-05-03T09:42:52.979Z</time></trkpt><trkpt lat="44.2756671" lon="8.2024302"><ele>767.0</ele><time>2026-05-03T09:42:53.979Z</time></trkpt><trkpt lat="44.2757728" lon="8.2023224"><ele>769.75</ele><time>2026-05-03T09:42:54.978Z</time></trkpt><trkpt lat="44.2758838" lon="8.2022312"><ele>772.5</ele><time>2026-05-03T09:42:55.978Z</time></trkpt><trkpt lat="44.2759973" lon="8.2021444"><ele>775.25</ele><time>2026-05-03T09:42:56.978Z</time></trkpt><trkpt lat="44.2761186" lon="8.2020681"><ele>778.0</ele><time>2026-05-03T09:42:57.978Z</time></trkpt><trkpt lat="44.2762354" lon="8.2020005"><ele>778.0</ele><time>2026-05-03T09:42:58.978Z</time></trkpt><trkpt lat="44.2763444" lon="8.201939"><ele>778.0</ele><time>2026-05-03T09:42:59.978Z</time></trkpt><trkpt lat="44.2764421" lon="8.2018853"><ele>778.0</ele><time>2026-05-03T09:43:00.978Z</time></trkpt><trkpt lat="44.276538" lon="8.201847"><ele>778.0</ele><time>2026-05-03T09:43:01.979Z</time></trkpt><trkpt lat="44.276627" lon="8.201818"><ele>778.0</ele><time>2026-05-03T09:43:02.978Z</time></trkpt><trkpt lat="44.2767149" lon="8.2017733"><ele>773.5999999999999</ele><time>2026-05-03T09:43:03.978Z</time></trkpt><trkpt lat="44.2767902" lon="8.2017096"><ele>769.1999999999999</ele><time>2026-05-03T09:43:04.978Z</time></trkpt><trkpt lat="44.2768549" lon="8.201652"><ele>764.8</ele><time>2026-05-03T09:43:05.979Z</time></trkpt><trkpt lat="44.2769159" lon="8.2016052"><ele>760.4</ele><time>2026-05-03T09:43:06.979Z</time></trkpt><trkpt lat="44.2770313" lon="8.2015931"><ele>756.0</ele><time>2026-05-03T09:43:08.979Z</time></trkpt><trkpt lat="44.2771027" lon="8.2017143"><ele>756.0</ele><time>2026-05-03T09:43:10.978Z</time></trkpt><trkpt lat="44.2770952" lon="8.20182"><ele>756.0</ele><time>2026-05-03T09:43:11.979Z</time></trkpt><trkpt lat="44.2770527" lon="8.2019344"><ele>756.0</ele><time>2026-05-03T09:43:12.978Z</time></trkpt><trkpt lat="44.2769662" lon="8.2020638"><ele>756.0</ele><time>2026-05-03T09:43:13.978Z</time></trkpt><trkpt lat="44.2768604" lon="8.2022035"><ele>756.0</ele><time>2026-05-03T09:43:14.978Z</time></trkpt><trkpt lat="44.2767529" lon="8.2023424"><ele>756.75</ele><time>2026-05-03T09:43:15.978Z</time></trkpt><trkpt lat="44.2766514" lon="8.2024733"><ele>757.5</ele><time>2026-05-03T09:43:16.978Z</time></trkpt><trkpt lat="44.2765576" lon="8.2025974"><ele>758.25</ele><time>2026-05-03T09:43:17.979Z</time></trkpt><trkpt lat="44.2764658" lon="8.202723"><ele>759.0</ele><time>2026-05-03T09:43:18.979Z</time></trkpt><trkpt lat="44.2763833" lon="8.2028439"><ele>759.0</ele><time>2026-05-03T09:43:19.978Z</time></trkpt><trkpt lat="44.2763063" lon="8.202961"><ele>759.0</ele><time>2026-05-03T09:43:20.978Z</time></trkpt><trkpt lat="44.2762332" lon="8.2030777"><ele>759.0</ele><time>2026-05-03T09:43:21.978Z</time></trkpt><trkpt lat="44.27616" lon="8.2031899"><ele>759.0</ele><time>2026-05-03T09:43:22.978Z</time></trkpt><trkpt lat="44.2760811" lon="8.2032992"><ele>759.0</ele><time>2026-05-03T09:43:23.979Z</time></trkpt><trkpt lat="44.275998" lon="8.2034038"><ele>756.0</ele><time>2026-05-03T09:43:24.978Z</time></trkpt><trkpt lat="44.2759196" lon="8.2034899"><ele>753.0</ele><time>2026-05-03T09:43:25.978Z</time></trkpt><trkpt lat="44.2758483" lon="8.2035648"><ele>750.0</ele><time>2026-05-03T09:43:26.979Z</time></trkpt><trkpt lat="44.2757871" lon="8.2036358"><ele>747.0</ele><time>2026-05-03T09:43:27.979Z</time></trkpt><trkpt lat="44.2757612" lon="8.2037675"><ele>744.0</ele><time>2026-05-03T09:43:29.978Z</time></trkpt><trkpt lat="44.2758315" lon="8.2038587"><ele>744.0</ele><time>2026-05-03T09:43:31.979Z</time></trkpt><trkpt lat="44.2758975" lon="8.2038431"><ele>744.0</ele><time>2026-05-03T09:43:32.978Z</time></trkpt><trkpt lat="44.2759907" lon="8.2037739"><ele>744.0</ele><time>2026-05-03T09:43:33.978Z</time></trkpt><trkpt lat="44.2760908" lon="8.2036793"><ele>744.0</ele><time>2026-05-03T09:43:34.978Z</time></trkpt><trkpt lat="44.2761984" lon="8.2035609"><ele>744.0</ele><time>2026-05-03T09:43:35.979Z</time></trkpt><trkpt lat="44.2762988" lon="8.2034534"><ele>744.0</ele><time>2026-05-03T09:43:36.978Z</time></trkpt><trkpt lat="44.2763955" lon="8.2033523"><ele>744.0</ele><time>2026-05-03T09:43:37.978Z</time></trkpt><trkpt lat="44.2764794" lon="8.2032481"><ele>744.0</ele><time>2026-05-03T09:43:38.979Z</time></trkpt><trkpt lat="44.2765529" lon="8.2031365"><ele>744.0</ele><time>2026-05-03T09:43:39.978Z</time></trkpt><trkpt lat="44.2766266" lon="8.2030278"><ele>744.0</ele><time>2026-05-03T09:43:40.979Z</time></trkpt><trkpt lat="44.276717" lon="8.2029338"><ele>743.5</ele><time>2026-05-03T09:43:41.979Z</time></trkpt><trkpt lat="44.2768222" lon="8.2028792"><ele>743.0</ele><time>2026-05-03T09:43:42.978Z</time></trkpt><trkpt lat="44.276933" lon="8.2028475"><ele>742.5</ele><time>2026-05-03T09:43:43.979Z</time></trkpt><trkpt lat="44.2770432" lon="8.2028205"><ele>742.0</ele><time>2026-05-03T09:43:44.979Z</time></trkpt><trkpt lat="44.2771588" lon="8.2027851"><ele>738.6</ele><time>2026-05-03T09:43:45.978Z</time></trkpt><trkpt lat="44.2772712" lon="8.2027407"><ele>735.2</ele><time>2026-05-03T09:43:46.978Z</time></trkpt><trkpt lat="44.2773741" lon="8.2026887"><ele>731.8</ele><time>2026-05-03T09:43:47.979Z</time></trkpt><trkpt lat="44.2774673" lon="8.2026239"><ele>728.4</ele><time>2026-05-03T09:43:48.978Z</time></trkpt><trkpt lat="44.27756" lon="8.2025614"><ele>725.0</ele><time>2026-05-03T09:43:49.978Z</time></trkpt><trkpt lat="44.2776364" lon="8.2024824"><ele>725.0</ele><time>2026-05-03T09:43:50.978Z</time></trkpt><trkpt lat="44.2777043" lon="8.2023493"><ele>725.0</ele><time>2026-05-03T09:43:51.979Z</time></trkpt><trkpt lat="44.2777489" lon="8.2021999"><ele>725.0</ele><time>2026-05-03T09:43:52.979Z</time></trkpt><trkpt lat="44.2777813" lon="8.2020363"><ele>725.0</ele><time>2026-05-03T09:43:53.978Z</time></trkpt><trkpt lat="44.2778122" lon="8.2018681"><ele>727.0</ele><time>2026-05-03T09:43:54.979Z</time></trkpt><trkpt lat="44.2778423" lon="8.2016917"><ele>729.0</ele><time>2026-05-03T09:43:55.978Z</time></trkpt><trkpt lat="44.2778671" lon="8.2015127"><ele>731.0</ele><time>2026-05-03T09:43:56.979Z</time></trkpt><trkpt lat="44.2778992" lon="8.2013405"><ele>733.0</ele><time>2026-05-03T09:43:57.979Z</time></trkpt><trkpt lat="44.2779362" lon="8.2011761"><ele>734.2</ele><time>2026-05-03T09:43:58.978Z</time></trkpt><trkpt lat="44.277981" lon="8.2010107"><ele>735.4</ele><time>2026-05-03T09:43:59.979Z</time></trkpt><trkpt lat="44.2780307" lon="8.2008724"><ele>736.6</ele><time>2026-05-03T09:44:00.978Z</time></trkpt><trkpt lat="44.2780938" lon="8.2007615"><ele>737.8000000000001</ele><time>2026-05-03T09:44:01.979Z</time></trkpt><trkpt lat="44.2781723" lon="8.2006666"><ele>739.0</ele><time>2026-05-03T09:44:02.979Z</time></trkpt><trkpt lat="44.2782583" lon="8.2005787"><ele>735.0</ele><time>2026-05-03T09:44:03.979Z</time></trkpt><trkpt lat="44.2783371" lon="8.2004847"><ele>731.0</ele><time>2026-05-03T09:44:04.978Z</time></trkpt><trkpt lat="44.2784114" lon="8.2003757"><ele>727.0</ele><time>2026-05-03T09:44:05.978Z</time></trkpt><trkpt lat="44.2784713" lon="8.2002576"><ele>723.0</ele><time>2026-05-03T09:44:06.979Z</time></trkpt><trkpt lat="44.2785186" lon="8.2001279"><ele>719.0</ele><time>2026-05-03T09:44:07.978Z</time></trkpt><trkpt lat="44.2785587" lon="8.1999865"><ele>716.25</ele><time>2026-05-03T09:44:08.978Z</time></trkpt><trkpt lat="44.278593" lon="8.1998184"><ele>713.5</ele><time>2026-05-03T09:44:09.979Z</time></trkpt><trkpt lat="44.2786236" lon="8.1996343"><ele>710.75</ele><time>2026-05-03T09:44:10.978Z</time></trkpt><trkpt lat="44.2786457" lon="8.1994366"><ele>708.0</ele><time>2026-05-03T09:44:11.979Z</time></trkpt><trkpt lat="44.2786634" lon="8.199252"><ele>708.0</ele><time>2026-05-03T09:44:12.978Z</time></trkpt><trkpt lat="44.2786617" lon="8.1990844"><ele>708.0</ele><time>2026-05-03T09:44:13.978Z</time></trkpt><trkpt lat="44.2786544" lon="8.1989293"><ele>708.0</ele><time>2026-05-03T09:44:14.979Z</time></trkpt><trkpt lat="44.2786364" lon="8.1987958"><ele>708.0</ele><time>2026-05-03T09:44:15.978Z</time></trkpt><trkpt lat="44.2786165" lon="8.1986805"><ele>708.0</ele><time>2026-05-03T09:44:16.979Z</time></trkpt><trkpt lat="44.2785879" lon="8.1985812"><ele>702.5999999999999</ele><time>2026-05-03T09:44:17.978Z</time></trkpt><trkpt lat="44.2785416" lon="8.1984797"><ele>697.1999999999999</ele><time>2026-05-03T09:44:18.978Z</time></trkpt><trkpt lat="44.2784791" lon="8.1983982"><ele>691.8</ele><time>2026-05-03T09:44:19.979Z</time></trkpt><trkpt lat="44.2783972" lon="8.198341"><ele>686.4</ele><time>2026-05-03T09:44:20.978Z</time></trkpt><trkpt lat="44.2782924" lon="8.1983267"><ele>681.0</ele><time>2026-05-03T09:44:21.979Z</time></trkpt><trkpt lat="44.2781745" lon="8.1983368"><ele>682.25</ele><time>2026-05-03T09:44:22.978Z</time></trkpt><trkpt lat="44.2780341" lon="8.1983676"><ele>683.5</ele><time>2026-05-03T09:44:23.978Z</time></trkpt><trkpt lat="44.2779029" lon="8.1983962"><ele>684.75</ele><time>2026-05-03T09:44:24.978Z</time></trkpt><trkpt lat="44.277791" lon="8.1984353"><ele>686.0</ele><time>2026-05-03T09:44:25.979Z</time></trkpt><trkpt lat="44.2776901" lon="8.1984647"><ele>686.0</ele><time>2026-05-03T09:44:26.979Z</time></trkpt><trkpt lat="44.2775886" lon="8.1984801"><ele>686.0</ele><time>2026-05-03T09:44:27.978Z</time></trkpt><trkpt lat="44.2774905" lon="8.1984803"><ele>686.0</ele><time>2026-05-03T09:44:28.979Z</time></trkpt><trkpt lat="44.2773999" lon="8.1984606"><ele>686.0</ele><time>2026-05-03T09:44:29.978Z</time></trkpt><trkpt lat="44.2773157" lon="8.1983957"><ele>686.0</ele><time>2026-05-03T09:44:30.978Z</time></trkpt><trkpt lat="44.2772575" lon="8.1982931"><ele>686.6666666666666</ele><time>2026-05-03T09:44:31.978Z</time></trkpt><trkpt lat="44.2772139" lon="8.1981796"><ele>687.3333333333333</ele><time>2026-05-03T09:44:32.978Z</time></trkpt><trkpt lat="44.2771832" lon="8.1980575"><ele>688.0</ele><time>2026-05-03T09:44:33.978Z</time></trkpt><trkpt lat="44.2771503" lon="8.1979364"><ele>688.6666666666666</ele><time>2026-05-03T09:44:34.979Z</time></trkpt><trkpt lat="44.2771212" lon="8.1978207"><ele>689.3333333333334</ele><time>2026-05-03T09:44:35.978Z</time></trkpt><trkpt lat="44.2770899" lon="8.1977166"><ele>690.0</ele><time>2026-05-03T09:44:36.978Z</time></trkpt><trkpt lat="44.277045" lon="8.1976356"><ele>687.5</ele><time>2026-05-03T09:44:37.978Z</time></trkpt><trkpt lat="44.2769424" lon="8.1975504"><ele>685.0</ele><time>2026-05-03T09:44:39.978Z</time></trkpt><trkpt lat="44.2768732" lon="8.1975431"><ele>682.5</ele><time>2026-05-03T09:44:40.978Z</time></trkpt><trkpt lat="44.2767948" lon="8.1975672"><ele>680.0</ele><time>2026-05-03T09:44:41.978Z</time></trkpt><trkpt lat="44.2767253" lon="8.1975898"><ele>677.5</ele><time>2026-05-03T09:44:42.978Z</time></trkpt><trkpt lat="44.2766259" lon="8.1975743"><ele>675.0</ele><time>2026-05-03T09:44:44.979Z</time></trkpt><trkpt lat="44.2765534" lon="8.1974921"><ele>675.0</ele><time>2026-05-03T09:44:46.978Z</time></trkpt><trkpt lat="44.2764943" lon="8.1974007"><ele>675.0</ele><time>2026-05-03T09:44:48.978Z</time></trkpt><trkpt lat="44.2764466" lon="8.1973045"><ele>675.0</ele><time>2026-05-03T09:44:50.978Z</time></trkpt><trkpt lat="44.2764019" lon="8.1972131"><ele>675.0</ele><time>2026-05-03T09:44:52.979Z</time></trkpt><trkpt lat="44.276373" lon="8.1971235"><ele>675.0</ele><time>2026-05-03T09:44:54.978Z</time></trkpt><trkpt lat="44.2763745" lon="8.1970033"><ele>675.0</ele><time>2026-05-03T09:44:56.978Z</time></trkpt><trkpt lat="44.2764323" lon="8.1968858"><ele>676.8</ele><time>2026-05-03T09:44:58.978Z</time></trkpt><trkpt lat="44.276546" lon="8.1967958"><ele>678.6</ele><time>2026-05-03T09:45:00.979Z</time></trkpt><trkpt lat="44.2766147" lon="8.1967539"><ele>680.4000000000001</ele><time>2026-05-03T09:45:01.979Z</time></trkpt><trkpt lat="44.2766939" lon="8.1967254"><ele>682.2</ele><time>2026-05-03T09:45:02.978Z</time></trkpt><trkpt lat="44.2767779" lon="8.1967163"><ele>684.0</ele><time>2026-05-03T09:45:03.978Z</time></trkpt><trkpt lat="44.2768693" lon="8.1967291"><ele>684.0</ele><time>2026-05-03T09:45:04.978Z</time></trkpt><trkpt lat="44.2769719" lon="8.1967729"><ele>684.0</ele><time>2026-05-03T09:45:05.978Z</time></trkpt><trkpt lat="44.2770792" lon="8.1968331"><ele>684.0</ele><time>2026-05-03T09:45:06.978Z</time></trkpt><trkpt lat="44.2771854" lon="8.1968928"><ele>684.0</ele><time>2026-05-03T09:45:07.978Z</time></trkpt><trkpt lat="44.2772941" lon="8.1969436"><ele>686.25</ele><time>2026-05-03T09:45:08.978Z</time></trkpt><trkpt lat="44.2774022" lon="8.1969911"><ele>688.5</ele><time>2026-05-03T09:45:09.978Z</time></trkpt><trkpt lat="44.2775141" lon="8.1970371"><ele>690.75</ele><time>2026-05-03T09:45:10.979Z</time></trkpt><trkpt lat="44.2776352" lon="8.1970844"><ele>693.0</ele><time>2026-05-03T09:45:11.978Z</time></trkpt><trkpt lat="44.2777545" lon="8.1971447"><ele>693.0</ele><time>2026-05-03T09:45:12.978Z</time></trkpt><trkpt lat="44.2778694" lon="8.1972111"><ele>693.0</ele><time>2026-05-03T09:45:13.978Z</time></trkpt><trkpt lat="44.2779819" lon="8.1972749"><ele>693.0</ele><time>2026-05-03T09:45:14.979Z</time></trkpt><trkpt lat="44.2780937" lon="8.19733"><ele>693.0</ele><time>2026-05-03T09:45:15.979Z</time></trkpt><trkpt lat="44.2782064" lon="8.1973822"><ele>687.25</ele><time>2026-05-03T09:45:16.979Z</time></trkpt><trkpt lat="44.2783189" lon="8.1974362"><ele>681.5</ele><time>2026-05-03T09:45:17.979Z</time></trkpt><trkpt lat="44.2784303" lon="8.1974759"><ele>675.75</ele><time>2026-05-03T09:45:18.979Z</time></trkpt><trkpt lat="44.278549" lon="8.1975035"><ele>670.0</ele><time>2026-05-03T09:45:19.978Z</time></trkpt><trkpt lat="44.2786732" lon="8.1975133"><ele>670.0</ele><time>2026-05-03T09:45:20.978Z</time></trkpt><trkpt lat="44.2788027" lon="8.1975098"><ele>670.0</ele><time>2026-05-03T09:45:21.978Z</time></trkpt><trkpt lat="44.2789335" lon="8.1974992"><ele>670.0</ele><time>2026-05-03T09:45:22.978Z</time></trkpt><trkpt lat="44.2790719" lon="8.1974816"><ele>670.0</ele><time>2026-05-03T09:45:23.978Z</time></trkpt><trkpt lat="44.2792052" lon="8.1974619"><ele>669.75</ele><time>2026-05-03T09:45:24.979Z</time></trkpt><trkpt lat="44.2793468" lon="8.1974527"><ele>669.5</ele><time>2026-05-03T09:45:25.978Z</time></trkpt><trkpt lat="44.2794903" lon="8.1974575"><ele>669.25</ele><time>2026-05-03T09:45:26.978Z</time></trkpt><trkpt lat="44.279634" lon="8.1974835"><ele>669.0</ele><time>2026-05-03T09:45:27.979Z</time></trkpt><trkpt lat="44.2797751" lon="8.197518"><ele>669.0</ele><time>2026-05-03T09:45:28.979Z</time></trkpt><trkpt lat="44.27991" lon="8.1975658"><ele>669.0</ele><time>2026-05-03T09:45:29.979Z</time></trkpt><trkpt lat="44.2800286" lon="8.1976245"><ele>669.0</ele><time>2026-05-03T09:45:30.979Z</time></trkpt><trkpt lat="44.280142" lon="8.1977012"><ele>669.0</ele><time>2026-05-03T09:45:31.978Z</time></trkpt><trkpt lat="44.2802408" lon="8.1978017"><ele>669.0</ele><time>2026-05-03T09:45:32.978Z</time></trkpt><trkpt lat="44.2803224" lon="8.197931"><ele>669.0</ele><time>2026-05-03T09:45:33.978Z</time></trkpt><trkpt lat="44.2803861" lon="8.1980876"><ele>669.0</ele><time>2026-05-03T09:45:34.978Z</time></trkpt><trkpt lat="44.2804306" lon="8.1982606"><ele>669.0</ele><time>2026-05-03T09:45:35.978Z</time></trkpt><trkpt lat="44.2804592" lon="8.1984422"><ele>667.0</ele><time>2026-05-03T09:45:36.978Z</time></trkpt><trkpt lat="44.2804577" lon="8.1986277"><ele>665.0</ele><time>2026-05-03T09:45:37.979Z</time></trkpt><trkpt lat="44.2804364" lon="8.1988125"><ele>663.0</ele><time>2026-05-03T09:45:38.978Z</time></trkpt><trkpt lat="44.2804078" lon="8.1989875"><ele>661.0</ele><time>2026-05-03T09:45:39.978Z</time></trkpt><trkpt lat="44.2803752" lon="8.1991677"><ele>661.0</ele><time>2026-05-03T09:45:40.978Z</time></trkpt><trkpt lat="44.2803478" lon="8.1993403"><ele>661.0</ele><time>2026-05-03T09:45:41.978Z</time></trkpt><trkpt lat="44.2803277" lon="8.1995107"><ele>661.0</ele><time>2026-05-03T09:45:42.978Z</time></trkpt><trkpt lat="44.2803161" lon="8.199672"><ele>661.0</ele><time>2026-05-03T09:45:43.979Z</time></trkpt><trkpt lat="44.2803041" lon="8.199834"><ele>660.4</ele><time>2026-05-03T09:45:44.978Z</time></trkpt><trkpt lat="44.2802929" lon="8.1999885"><ele>659.8</ele><time>2026-05-03T09:45:45.978Z</time></trkpt><trkpt lat="44.2802888" lon="8.2001294"><ele>659.1999999999999</ele><time>2026-05-03T09:45:46.979Z</time></trkpt><trkpt lat="44.2803107" lon="8.2002595"><ele>658.5999999999999</ele><time>2026-05-03T09:45:47.978Z</time></trkpt><trkpt lat="44.280355" lon="8.2003823"><ele>658.0</ele><time>2026-05-03T09:45:48.977Z</time></trkpt><trkpt lat="44.2804298" lon="8.2004796"><ele>658.0</ele><time>2026-05-03T09:45:49.977Z</time></trkpt><trkpt lat="44.2805235" lon="8.2005479"><ele>658.0</ele><time>2026-05-03T09:45:50.977Z</time></trkpt><trkpt lat="44.2806159" lon="8.2006164"><ele>658.0</ele><time>2026-05-03T09:45:51.978Z</time></trkpt><trkpt lat="44.2807013" lon="8.2006873"><ele>658.0</ele><time>2026-05-03T09:45:52.978Z</time></trkpt><trkpt lat="44.2807902" lon="8.2007584"><ele>658.0</ele><time>2026-05-03T09:45:53.978Z</time></trkpt><trkpt lat="44.2808797" lon="8.2008418"><ele>658.25</ele><time>2026-05-03T09:45:54.977Z</time></trkpt><trkpt lat="44.2809715" lon="8.2009314"><ele>658.5</ele><time>2026-05-03T09:45:55.977Z</time></trkpt><trkpt lat="44.2810651" lon="8.2010136"><ele>658.75</ele><time>2026-05-03T09:45:56.977Z</time></trkpt><trkpt lat="44.2811627" lon="8.2011045"><ele>659.0</ele><time>2026-05-03T09:45:57.978Z</time></trkpt><trkpt lat="44.2812529" lon="8.2011943"><ele>659.0</ele><time>2026-05-03T09:45:58.977Z</time></trkpt><trkpt lat="44.2813431" lon="8.201292"><ele>659.0</ele><time>2026-05-03T09:45:59.978Z</time></trkpt><trkpt lat="44.2814293" lon="8.2013913"><ele>659.0</ele><time>2026-05-03T09:46:00.978Z</time></trkpt><trkpt lat="44.2815188" lon="8.201487"><ele>659.0</ele><time>2026-05-03T09:46:01.978Z</time></trkpt><trkpt lat="44.2816124" lon="8.2015817"><ele>658.75</ele><time>2026-05-03T09:46:02.978Z</time></trkpt><trkpt lat="44.2817106" lon="8.201669"><ele>658.5</ele><time>2026-05-03T09:46:03.978Z</time></trkpt><trkpt lat="44.2818211" lon="8.2017413"><ele>658.25</ele><time>2026-05-03T09:46:04.977Z</time></trkpt><trkpt lat="44.2819322" lon="8.2017999"><ele>658.0</ele><time>2026-05-03T09:46:05.977Z</time></trkpt><trkpt lat="44.2820384" lon="8.2018492"><ele>658.0</ele><time>2026-05-03T09:46:06.977Z</time></trkpt><trkpt lat="44.2821494" lon="8.2018981"><ele>658.0</ele><time>2026-05-03T09:46:07.978Z</time></trkpt><trkpt lat="44.2822626" lon="8.2019511"><ele>658.0</ele><time>2026-05-03T09:46:08.977Z</time></trkpt><trkpt lat="44.2823768" lon="8.2020038"><ele>658.0</ele><time>2026-05-03T09:46:09.977Z</time></trkpt><trkpt lat="44.2824994" lon="8.2020582"><ele>658.75</ele><time>2026-05-03T09:46:10.977Z</time></trkpt><trkpt lat="44.2826171" lon="8.20211"><ele>659.5</ele><time>2026-05-03T09:46:11.977Z</time></trkpt><trkpt lat="44.2827368" lon="8.2021675"><ele>660.25</ele><time>2026-05-03T09:46:12.978Z</time></trkpt><trkpt lat="44.2828531" lon="8.2022382"><ele>661.0</ele><time>2026-05-03T09:46:13.977Z</time></trkpt><trkpt lat="44.2829695" lon="8.2023234"><ele>659.25</ele><time>2026-05-03T09:46:14.978Z</time></trkpt><trkpt lat="44.2830908" lon="8.2024148"><ele>657.5</ele><time>2026-05-03T09:46:15.977Z</time></trkpt><trkpt lat="44.2832106" lon="8.2025066"><ele>655.75</ele><time>2026-05-03T09:46:16.977Z</time></trkpt><trkpt lat="44.2833276" lon="8.2025991"><ele>654.0</ele><time>2026-05-03T09:46:17.977Z</time></trkpt><trkpt lat="44.2834352" lon="8.2026932"><ele>654.0</ele><time>2026-05-03T09:46:18.978Z</time></trkpt><trkpt lat="44.2835415" lon="8.2027821"><ele>654.0</ele><time>2026-05-03T09:46:19.978Z</time></trkpt><trkpt lat="44.2836506" lon="8.2028521"><ele>654.0</ele><time>2026-05-03T09:46:20.978Z</time></trkpt><trkpt lat="44.2837681" lon="8.2029077"><ele>654.0</ele><time>2026-05-03T09:46:21.978Z</time></trkpt><trkpt lat="44.2838821" lon="8.2029317"><ele>654.5</ele><time>2026-05-03T09:46:22.977Z</time></trkpt><trkpt lat="44.2840033" lon="8.2029428"><ele>655.0</ele><time>2026-05-03T09:46:23.977Z</time></trkpt><trkpt lat="44.2841178" lon="8.2029568"><ele>655.5</ele><time>2026-05-03T09:46:24.978Z</time></trkpt><trkpt lat="44.2842345" lon="8.2029599"><ele>656.0</ele><time>2026-05-03T09:46:25.978Z</time></trkpt><trkpt lat="44.2843464" lon="8.202947"><ele>656.0</ele><time>2026-05-03T09:46:26.977Z</time></trkpt><trkpt lat="44.2844457" lon="8.2029368"><ele>656.0</ele><time>2026-05-03T09:46:27.978Z</time></trkpt><trkpt lat="44.2845383" lon="8.2029391"><ele>656.0</ele><time>2026-05-03T09:46:28.978Z</time></trkpt><trkpt lat="44.2846299" lon="8.2029588"><ele>656.0</ele><time>2026-05-03T09:46:29.977Z</time></trkpt><trkpt lat="44.284715" lon="8.2029979"><ele>656.0</ele><time>2026-05-03T09:46:30.978Z</time></trkpt><trkpt lat="44.284782" lon="8.2030559"><ele>656.0</ele><time>2026-05-03T09:46:31.977Z</time></trkpt><trkpt lat="44.2848447" lon="8.203128"><ele>656.0</ele><time>2026-05-03T09:46:32.977Z</time></trkpt><trkpt lat="44.2849141" lon="8.2032124"><ele>656.0</ele><time>2026-05-03T09:46:33.977Z</time></trkpt><trkpt lat="44.284958" lon="8.2033149"><ele>656.0</ele><time>2026-05-03T09:46:34.977Z</time></trkpt><trkpt lat="44.2849857" lon="8.2034285"><ele>656.0</ele><time>2026-05-03T09:46:35.977Z</time></trkpt><trkpt lat="44.2850142" lon="8.2035458"><ele>656.0</ele><time>2026-05-03T09:46:36.978Z</time></trkpt><trkpt lat="44.2850411" lon="8.2036601"><ele>654.0</ele><time>2026-05-03T09:46:37.978Z</time></trkpt><trkpt lat="44.2850717" lon="8.2037604"><ele>652.0</ele><time>2026-05-03T09:46:38.977Z</time></trkpt><trkpt lat="44.2851059" lon="8.2038521"><ele>650.0</ele><time>2026-05-03T09:46:39.978Z</time></trkpt><trkpt lat="44.2851427" lon="8.2039514"><ele>648.0</ele><time>2026-05-03T09:46:40.978Z</time></trkpt><trkpt lat="44.2851824" lon="8.204049"><ele>646.0</ele><time>2026-05-03T09:46:41.977Z</time></trkpt><trkpt lat="44.2852319" lon="8.2041352"><ele>644.0</ele><time>2026-05-03T09:46:42.978Z</time></trkpt><trkpt lat="44.2852982" lon="8.2042069"><ele>644.0</ele><time>2026-05-03T09:46:43.977Z</time></trkpt><trkpt lat="44.2853709" lon="8.2042586"><ele>644.0</ele><time>2026-05-03T09:46:44.977Z</time></trkpt><trkpt lat="44.2854588" lon="8.2042783"><ele>644.0</ele><time>2026-05-03T09:46:45.978Z</time></trkpt><trkpt lat="44.2855537" lon="8.204271"><ele>644.0</ele><time>2026-05-03T09:46:46.977Z</time></trkpt><trkpt lat="44.2856504" lon="8.2042491"><ele>644.0</ele><time>2026-05-03T09:46:47.977Z</time></trkpt><trkpt lat="44.2857464" lon="8.2042242"><ele>644.6</ele><time>2026-05-03T09:46:48.977Z</time></trkpt><trkpt lat="44.2858324" lon="8.2042078"><ele>645.2</ele><time>2026-05-03T09:46:49.977Z</time></trkpt><trkpt lat="44.2859041" lon="8.2041956"><ele>645.8000000000001</ele><time>2026-05-03T09:46:50.978Z</time></trkpt><trkpt lat="44.2860304" lon="8.2041699"><ele>646.4000000000001</ele><time>2026-05-03T09:46:52.977Z</time></trkpt><trkpt lat="44.2861012" lon="8.2041399"><ele>647.0</ele><time>2026-05-03T09:46:53.977Z</time></trkpt><trkpt lat="44.2861864" lon="8.2041017"><ele>647.0</ele><time>2026-05-03T09:46:54.977Z</time></trkpt><trkpt lat="44.2862872" lon="8.204073"><ele>647.0</ele><time>2026-05-03T09:46:55.977Z</time></trkpt><trkpt lat="44.2863941" lon="8.2040405"><ele>647.0</ele><time>2026-05-03T09:46:56.978Z</time></trkpt><trkpt lat="44.2865129" lon="8.2040138"><ele>647.0</ele><time>2026-05-03T09:46:57.977Z</time></trkpt><trkpt lat="44.286632" lon="8.2039967"><ele>645.25</ele><time>2026-05-03T09:46:58.977Z</time></trkpt><trkpt lat="44.2867542" lon="8.203976"><ele>643.5</ele><time>2026-05-03T09:46:59.977Z</time></trkpt><trkpt lat="44.2868853" lon="8.2039503"><ele>641.75</ele><time>2026-05-03T09:47:00.977Z</time></trkpt><trkpt lat="44.2870143" lon="8.2039043"><ele>640.0</ele><time>2026-05-03T09:47:01.978Z</time></trkpt><trkpt lat="44.2871263" lon="8.2038322"><ele>640.0</ele><time>2026-05-03T09:47:02.977Z</time></trkpt><trkpt lat="44.2872205" lon="8.2037309"><ele>640.0</ele><time>2026-05-03T09:47:03.977Z</time></trkpt><trkpt lat="44.2873186" lon="8.2036301"><ele>640.0</ele><time>2026-05-03T09:47:04.977Z</time></trkpt><trkpt lat="44.2874264" lon="8.2035553"><ele>640.0</ele><time>2026-05-03T09:47:05.978Z</time></trkpt><trkpt lat="44.2875388" lon="8.2034957"><ele>641.25</ele><time>2026-05-03T09:47:06.977Z</time></trkpt><trkpt lat="44.2876534" lon="8.2034437"><ele>642.5</ele><time>2026-05-03T09:47:07.977Z</time></trkpt><trkpt lat="44.2877671" lon="8.2033981"><ele>643.75</ele><time>2026-05-03T09:47:08.978Z</time></trkpt><trkpt lat="44.2878936" lon="8.2033763"><ele>645.0</ele><time>2026-05-03T09:47:09.978Z</time></trkpt><trkpt lat="44.2880193" lon="8.2033655"><ele>645.75</ele><time>2026-05-03T09:47:10.977Z</time></trkpt><trkpt lat="44.28815" lon="8.2033532"><ele>646.5</ele><time>2026-05-03T09:47:11.977Z</time></trkpt><trkpt lat="44.2882686" lon="8.2033199"><ele>647.25</ele><time>2026-05-03T09:47:12.977Z</time></trkpt><trkpt lat="44.2883846" lon="8.2032612"><ele>648.0</ele><time>2026-05-03T09:47:13.977Z</time></trkpt><trkpt lat="44.2885076" lon="8.2031818"><ele>646.5</ele><time>2026-05-03T09:47:14.977Z</time></trkpt><trkpt lat="44.2886265" lon="8.2030915"><ele>645.0</ele><time>2026-05-03T09:47:15.978Z</time></trkpt><trkpt lat="44.2887441" lon="8.2029891"><ele>643.5</ele><time>2026-05-03T09:47:16.978Z</time></trkpt><trkpt lat="44.2888551" lon="8.2028892"><ele>642.0</ele><time>2026-05-03T09:47:17.977Z</time></trkpt><trkpt lat="44.2889627" lon="8.2027831"><ele>642.0</ele><time>2026-05-03T09:47:18.977Z</time></trkpt><trkpt lat="44.2890651" lon="8.2026753"><ele>642.0</ele><time>2026-05-03T09:47:19.978Z</time></trkpt><trkpt lat="44.2891642" lon="8.2025643"><ele>642.0</ele><time>2026-05-03T09:47:20.978Z</time></trkpt><trkpt lat="44.2892718" lon="8.2024658"><ele>642.0</ele><time>2026-05-03T09:47:21.978Z</time></trkpt><trkpt lat="44.2893844" lon="8.202392"><ele>642.0</ele><time>2026-05-03T09:47:22.978Z</time></trkpt><trkpt lat="44.2895065" lon="8.2023353"><ele>642.0</ele><time>2026-05-03T09:47:23.977Z</time></trkpt><trkpt lat="44.2896126" lon="8.2022784"><ele>642.0</ele><time>2026-05-03T09:47:24.977Z</time></trkpt><trkpt lat="44.2897176" lon="8.2022347"><ele>642.0</ele><time>2026-05-03T09:47:25.978Z</time></trkpt><trkpt lat="44.2898181" lon="8.2021928"><ele>640.8000000000001</ele><time>2026-05-03T09:47:26.978Z</time></trkpt><trkpt lat="44.2899137" lon="8.2021547"><ele>639.6</ele><time>2026-05-03T09:47:27.978Z</time></trkpt><trkpt lat="44.2900119" lon="8.2021162"><ele>638.4000000000001</ele><time>2026-05-03T09:47:28.977Z</time></trkpt><trkpt lat="44.2900999" lon="8.2020698"><ele>637.2</ele><time>2026-05-03T09:47:29.977Z</time></trkpt><trkpt lat="44.2901858" lon="8.2020245"><ele>636.0</ele><time>2026-05-03T09:47:30.977Z</time></trkpt><trkpt lat="44.2902747" lon="8.2019871"><ele>636.0</ele><time>2026-05-03T09:47:31.977Z</time></trkpt><trkpt lat="44.2903536" lon="8.2019548"><ele>636.0</ele><time>2026-05-03T09:47:32.978Z</time></trkpt><trkpt lat="44.2904193" lon="8.2019211"><ele>636.0</ele><time>2026-05-03T09:47:33.977Z</time></trkpt><trkpt lat="44.2904802" lon="8.2018906"><ele>636.0</ele><time>2026-05-03T09:47:34.978Z</time></trkpt><trkpt lat="44.2905659" lon="8.2018297"><ele>636.0</ele><time>2026-05-03T09:47:36.978Z</time></trkpt><trkpt lat="44.2906009" lon="8.2017494"><ele>636.0</ele><time>2026-05-03T09:47:38.978Z</time></trkpt><trkpt lat="44.2906605" lon="8.2017204"><ele>636.0</ele><time>2026-05-03T09:47:44.978Z</time></trkpt><trkpt lat="44.2907169" lon="8.2017859"><ele>637.25</ele><time>2026-05-03T11:06:13.979Z</time></trkpt><trkpt lat="44.2908309" lon="8.2017643"><ele>638.5</ele><time>2026-05-03T11:06:34.979Z</time></trkpt><trkpt lat="44.2909278" lon="8.2017247"><ele>639.75</ele><time>2026-05-03T11:06:35.979Z</time></trkpt><trkpt lat="44.2910422" lon="8.201693"><ele>641.0</ele><time>2026-05-03T11:06:36.979Z</time></trkpt><trkpt lat="44.291201" lon="8.2016899"><ele>641.0</ele><time>2026-05-03T11:06:37.979Z</time></trkpt><trkpt lat="44.2913725" lon="8.2017011"><ele>641.0</ele><time>2026-05-03T11:06:38.979Z</time></trkpt><trkpt lat="44.2915386" lon="8.2017143"><ele>641.0</ele><time>2026-05-03T11:06:39.979Z</time></trkpt><trkpt lat="44.2916989" lon="8.2017256"><ele>642.0</ele><time>2026-05-03T11:06:40.979Z</time></trkpt><trkpt lat="44.2918634" lon="8.2017398"><ele>643.0</ele><time>2026-05-03T11:06:41.979Z</time></trkpt><trkpt lat="44.2920347" lon="8.2017787"><ele>644.0</ele><time>2026-05-03T11:06:42.979Z</time></trkpt><trkpt lat="44.2921986" lon="8.2018328"><ele>643.3333333333333</ele><time>2026-05-03T11:06:43.98Z</time></trkpt><trkpt lat="44.2923595" lon="8.201889"><ele>642.6666666666666</ele><time>2026-05-03T11:06:44.98Z</time></trkpt><trkpt lat="44.2925114" lon="8.201936"><ele>642.0</ele><time>2026-05-03T11:06:45.98Z</time></trkpt><trkpt lat="44.2926708" lon="8.2019767"><ele>642.0</ele><time>2026-05-03T11:06:46.979Z</time></trkpt><trkpt lat="44.2928253" lon="8.2019814"><ele>642.0</ele><time>2026-05-03T11:06:47.979Z</time></trkpt><trkpt lat="44.2929817" lon="8.2019704"><ele>642.0</ele><time>2026-05-03T11:06:48.979Z</time></trkpt><trkpt lat="44.2931307" lon="8.2019548"><ele>640.6666666666666</ele><time>2026-05-03T11:06:49.98Z</time></trkpt><trkpt lat="44.2932832" lon="8.2019312"><ele>639.3333333333333</ele><time>2026-05-03T11:06:50.979Z</time></trkpt><trkpt lat="44.2934363" lon="8.2019048"><ele>638.0</ele><time>2026-05-03T11:06:51.98Z</time></trkpt><trkpt lat="44.2935808" lon="8.2019001"><ele>638.0</ele><time>2026-05-03T11:06:52.98Z</time></trkpt><trkpt lat="44.2937283" lon="8.2019013"><ele>638.0</ele><time>2026-05-03T11:06:53.979Z</time></trkpt><trkpt lat="44.2938688" lon="8.2019052"><ele>638.0</ele><time>2026-05-03T11:06:54.98Z</time></trkpt><trkpt lat="44.2940101" lon="8.2019011"><ele>638.0</ele><time>2026-05-03T11:06:55.979Z</time></trkpt><trkpt lat="44.2941471" lon="8.2018949"><ele>637.0</ele><time>2026-05-03T11:06:56.98Z</time></trkpt><trkpt lat="44.2942838" lon="8.2018874"><ele>636.0</ele><time>2026-05-03T11:06:57.979Z</time></trkpt><trkpt lat="44.2944278" lon="8.2018773"><ele>635.0</ele><time>2026-05-03T11:06:58.979Z</time></trkpt><trkpt lat="44.2945717" lon="8.2018681"><ele>634.0</ele><time>2026-05-03T11:06:59.98Z</time></trkpt><trkpt lat="44.2947212" lon="8.2018596"><ele>635.0</ele><time>2026-05-03T11:07:00.979Z</time></trkpt><trkpt lat="44.2948685" lon="8.2018594"><ele>636.0</ele><time>2026-05-03T11:07:01.98Z</time></trkpt><trkpt lat="44.2950152" lon="8.2018579"><ele>637.0</ele><time>2026-05-03T11:07:02.979Z</time></trkpt><trkpt lat="44.295155" lon="8.2018686"><ele>638.0</ele><time>2026-05-03T11:07:03.979Z</time></trkpt><trkpt lat="44.2952834" lon="8.2018793"><ele>638.0</ele><time>2026-05-03T11:07:04.98Z</time></trkpt><trkpt lat="44.2954161" lon="8.2018871"><ele>638.0</ele><time>2026-05-03T11:07:05.98Z</time></trkpt><trkpt lat="44.2955605" lon="8.2018991"><ele>638.0</ele><time>2026-05-03T11:07:06.98Z</time></trkpt><trkpt lat="44.2957096" lon="8.2019174"><ele>638.0</ele><time>2026-05-03T11:07:07.979Z</time></trkpt><trkpt lat="44.2958645" lon="8.2019324"><ele>639.3333333333333</ele><time>2026-05-03T11:07:08.98Z</time></trkpt><trkpt lat="44.2960278" lon="8.2019573"><ele>640.6666666666666</ele><time>2026-05-03T11:07:09.98Z</time></trkpt><trkpt lat="44.2961874" lon="8.2019693"><ele>642.0</ele><time>2026-05-03T11:07:10.979Z</time></trkpt><trkpt lat="44.2963473" lon="8.2019823"><ele>641.0</ele><time>2026-05-03T11:07:11.979Z</time></trkpt><trkpt lat="44.296514" lon="8.2019739"><ele>640.0</ele><time>2026-05-03T11:07:12.98Z</time></trkpt><trkpt lat="44.2966841" lon="8.2019546"><ele>639.0</ele><time>2026-05-03T11:07:13.98Z</time></trkpt><trkpt lat="44.2968554" lon="8.2019303"><ele>639.0</ele><time>2026-05-03T11:07:14.98Z</time></trkpt><trkpt lat="44.2970096" lon="8.2018578"><ele>639.0</ele><time>2026-05-03T11:07:15.979Z</time></trkpt><trkpt lat="44.2971615" lon="8.2017835"><ele>639.0</ele><time>2026-05-03T11:07:16.979Z</time></trkpt><trkpt lat="44.2973097" lon="8.20172"><ele>641.0</ele><time>2026-05-03T11:07:17.979Z</time></trkpt><trkpt lat="44.2974693" lon="8.2016631"><ele>643.0</ele><time>2026-05-03T11:07:18.979Z</time></trkpt><trkpt lat="44.2976181" lon="8.2016056"><ele>645.0</ele><time>2026-05-03T11:07:19.979Z</time></trkpt><trkpt lat="44.297782" lon="8.201555"><ele>645.0</ele><time>2026-05-03T11:07:20.98Z</time></trkpt><trkpt lat="44.2979425" lon="8.2015007"><ele>645.0</ele><time>2026-05-03T11:07:21.98Z</time></trkpt><trkpt lat="44.2981013" lon="8.2014312"><ele>645.0</ele><time>2026-05-03T11:07:22.979Z</time></trkpt><trkpt lat="44.2982508" lon="8.2013475"><ele>642.6666666666666</ele><time>2026-05-03T11:07:23.979Z</time></trkpt><trkpt lat="44.2984017" lon="8.2012632"><ele>640.3333333333333</ele><time>2026-05-03T11:07:24.979Z</time></trkpt><trkpt lat="44.2985447" lon="8.2011769"><ele>638.0</ele><time>2026-05-03T11:07:25.979Z</time></trkpt><trkpt lat="44.2986834" lon="8.2010864"><ele>638.0</ele><time>2026-05-03T11:07:26.979Z</time></trkpt><trkpt lat="44.298822" lon="8.2010177"><ele>638.0</ele><time>2026-05-03T11:07:27.979Z</time></trkpt><trkpt lat="44.2989651" lon="8.2009538"><ele>638.0</ele><time>2026-05-03T11:07:28.979Z</time></trkpt><trkpt lat="44.2990946" lon="8.2008755"><ele>638.0</ele><time>2026-05-03T11:07:29.979Z</time></trkpt><trkpt lat="44.2992151" lon="8.2007932"><ele>636.75</ele><time>2026-05-03T11:07:30.979Z</time></trkpt><trkpt lat="44.2992981" lon="8.2006633"><ele>635.5</ele><time>2026-05-03T11:07:31.98Z</time></trkpt><trkpt lat="44.2993697" lon="8.2005311"><ele>634.25</ele><time>2026-05-03T11:07:32.979Z</time></trkpt><trkpt lat="44.2994412" lon="8.2003993"><ele>633.0</ele><time>2026-05-03T11:07:33.98Z</time></trkpt><trkpt lat="44.2995199" lon="8.2002643"><ele>633.0</ele><time>2026-05-03T11:07:34.979Z</time></trkpt><trkpt lat="44.2995863" lon="8.2001288"><ele>633.0</ele><time>2026-05-03T11:07:35.98Z</time></trkpt><trkpt lat="44.2996627" lon="8.1999912"><ele>633.0</ele><time>2026-05-03T11:07:36.98Z</time></trkpt><trkpt lat="44.2997503" lon="8.1998447"><ele>633.0</ele><time>2026-05-03T11:07:37.979Z</time></trkpt><trkpt lat="44.2998503" lon="8.1996959"><ele>633.25</ele><time>2026-05-03T11:07:38.98Z</time></trkpt><trkpt lat="44.2999478" lon="8.1995448"><ele>633.5</ele><time>2026-05-03T11:07:39.98Z</time></trkpt><trkpt lat="44.3000459" lon="8.1994038"><ele>633.75</ele><time>2026-05-03T11:07:40.979Z</time></trkpt><trkpt lat="44.3001589" lon="8.199288"><ele>634.0</ele><time>2026-05-03T11:07:41.979Z</time></trkpt><trkpt lat="44.300284" lon="8.1991949"><ele>634.0</ele><time>2026-05-03T11:07:42.979Z</time></trkpt><trkpt lat="44.30045" lon="8.199141"><ele>634.0</ele><time>2026-05-03T11:07:43.979Z</time></trkpt><trkpt lat="44.30061" lon="8.1991092"><ele>634.0</ele><time>2026-05-03T11:07:44.979Z</time></trkpt><trkpt lat="44.3007615" lon="8.1991122"><ele>636.75</ele><time>2026-05-03T11:07:45.979Z</time></trkpt><trkpt lat="44.3008952" lon="8.1991471"><ele>639.5</ele><time>2026-05-03T11:07:46.98Z</time></trkpt><trkpt lat="44.3010199" lon="8.1991898"><ele>642.25</ele><time>2026-05-03T11:07:47.979Z</time></trkpt><trkpt lat="44.3011372" lon="8.1992126"><ele>645.0</ele><time>2026-05-03T11:07:48.98Z</time></trkpt><trkpt lat="44.3012574" lon="8.1992282"><ele>645.0</ele><time>2026-05-03T11:07:49.979Z</time></trkpt><trkpt lat="44.3013707" lon="8.1991841"><ele>645.0</ele><time>2026-05-03T11:07:50.98Z</time></trkpt><trkpt lat="44.3014856" lon="8.199128"><ele>645.0</ele><time>2026-05-03T11:07:51.979Z</time></trkpt><trkpt lat="44.3015972" lon="8.1990689"><ele>645.0</ele><time>2026-05-03T11:07:52.979Z</time></trkpt><trkpt lat="44.3017143" lon="8.1990034"><ele>642.25</ele><time>2026-05-03T11:07:53.98Z</time></trkpt><trkpt lat="44.3018204" lon="8.1989191"><ele>639.5</ele><time>2026-05-03T11:07:54.979Z</time></trkpt><trkpt lat="44.3019188" lon="8.1988161"><ele>636.75</ele><time>2026-05-03T11:07:55.98Z</time></trkpt><trkpt lat="44.302011" lon="8.1987276"><ele>634.0</ele><time>2026-05-03T11:07:56.98Z</time></trkpt><trkpt lat="44.3020962" lon="8.1986126"><ele>634.0</ele><time>2026-05-03T11:07:57.98Z</time></trkpt><trkpt lat="44.3021598" lon="8.1984826"><ele>634.0</ele><time>2026-05-03T11:07:58.979Z</time></trkpt><trkpt lat="44.3022147" lon="8.1983363"><ele>634.0</ele><time>2026-05-03T11:07:59.979Z</time></trkpt><trkpt lat="44.3022658" lon="8.1981894"><ele>634.0</ele><time>2026-05-03T11:08:00.979Z</time></trkpt><trkpt lat="44.3023179" lon="8.1980486"><ele>635.75</ele><time>2026-05-03T11:08:01.979Z</time></trkpt><trkpt lat="44.3023768" lon="8.1979095"><ele>637.5</ele><time>2026-05-03T11:08:02.98Z</time></trkpt><trkpt lat="44.3024435" lon="8.1977716"><ele>639.25</ele><time>2026-05-03T11:08:03.979Z</time></trkpt><trkpt lat="44.3025191" lon="8.1976397"><ele>641.0</ele><time>2026-05-03T11:08:04.979Z</time></trkpt><trkpt lat="44.3026113" lon="8.1975129"><ele>641.0</ele><time>2026-05-03T11:08:05.98Z</time></trkpt><trkpt lat="44.3027228" lon="8.1974082"><ele>641.0</ele><time>2026-05-03T11:08:06.979Z</time></trkpt><trkpt lat="44.3028392" lon="8.197324"><ele>641.0</ele><time>2026-05-03T11:08:07.98Z</time></trkpt><trkpt lat="44.3029602" lon="8.1972552"><ele>641.0</ele><time>2026-05-03T11:08:08.979Z</time></trkpt><trkpt lat="44.3030936" lon="8.1971936"><ele>639.0</ele><time>2026-05-03T11:08:09.979Z</time></trkpt><trkpt lat="44.3032361" lon="8.1971478"><ele>637.0</ele><time>2026-05-03T11:08:10.979Z</time></trkpt><trkpt lat="44.3033782" lon="8.1971109"><ele>635.0</ele><time>2026-05-03T11:08:11.98Z</time></trkpt><trkpt lat="44.3035246" lon="8.1970742"><ele>633.0</ele><time>2026-05-03T11:08:12.98Z</time></trkpt><trkpt lat="44.3036695" lon="8.1970334"><ele>633.0</ele><time>2026-05-03T11:08:13.979Z</time></trkpt><trkpt lat="44.303815" lon="8.1969896"><ele>633.0</ele><time>2026-05-03T11:08:14.98Z</time></trkpt><trkpt lat="44.3039565" lon="8.1969318"><ele>633.0</ele><time>2026-05-03T11:08:15.979Z</time></trkpt><trkpt lat="44.3041011" lon="8.1968522"><ele>632.5</ele><time>2026-05-03T11:08:16.98Z</time></trkpt><trkpt lat="44.30423" lon="8.1967455"><ele>632.0</ele><time>2026-05-03T11:08:17.979Z</time></trkpt><trkpt lat="44.3043434" lon="8.1966217"><ele>631.5</ele><time>2026-05-03T11:08:18.98Z</time></trkpt><trkpt lat="44.3044513" lon="8.1964848"><ele>631.0</ele><time>2026-05-03T11:08:19.98Z</time></trkpt><trkpt lat="44.3045528" lon="8.1963412"><ele>631.0</ele><time>2026-05-03T11:08:20.98Z</time></trkpt><trkpt lat="44.3046596" lon="8.1961938"><ele>631.0</ele><time>2026-05-03T11:08:21.98Z</time></trkpt><trkpt lat="44.3047722" lon="8.1960478"><ele>631.0</ele><time>2026-05-03T11:08:22.98Z</time></trkpt><trkpt lat="44.3048919" lon="8.195908"><ele>631.3333333333334</ele><time>2026-05-03T11:08:23.98Z</time></trkpt><trkpt lat="44.3050226" lon="8.1957724"><ele>631.6666666666666</ele><time>2026-05-03T11:08:24.98Z</time></trkpt><trkpt lat="44.305148" lon="8.195664"><ele>632.0</ele><time>2026-05-03T11:08:25.979Z</time></trkpt><trkpt lat="44.3052809" lon="8.1955718"><ele>632.0</ele><time>2026-05-03T11:08:26.98Z</time></trkpt><trkpt lat="44.3054096" lon="8.195476"><ele>632.0</ele><time>2026-05-03T11:08:27.98Z</time></trkpt><trkpt lat="44.3055404" lon="8.1953816"><ele>632.0</ele><time>2026-05-03T11:08:28.98Z</time></trkpt><trkpt lat="44.3056733" lon="8.195289"><ele>632.0</ele><time>2026-05-03T11:08:29.98Z</time></trkpt><trkpt lat="44.3058082" lon="8.1952024"><ele>635.25</ele><time>2026-05-03T11:08:30.98Z</time></trkpt><trkpt lat="44.3059413" lon="8.1951223"><ele>638.5</ele><time>2026-05-03T11:08:31.98Z</time></trkpt><trkpt lat="44.3060774" lon="8.1950666"><ele>641.75</ele><time>2026-05-03T11:08:32.979Z</time></trkpt><trkpt lat="44.3062205" lon="8.1950711"><ele>645.0</ele><time>2026-05-03T11:08:33.979Z</time></trkpt><trkpt lat="44.3063687" lon="8.1951737"><ele>643.5</ele><time>2026-05-03T11:08:34.98Z</time></trkpt><trkpt lat="44.306496" lon="8.1952942"><ele>642.0</ele><time>2026-05-03T11:08:35.979Z</time></trkpt><trkpt lat="44.3066161" lon="8.1954037"><ele>640.5</ele><time>2026-05-03T11:08:36.979Z</time></trkpt><trkpt lat="44.3067313" lon="8.1955028"><ele>639.0</ele><time>2026-05-03T11:08:37.979Z</time></trkpt><trkpt lat="44.3068428" lon="8.1956077"><ele>639.75</ele><time>2026-05-03T11:08:38.98Z</time></trkpt><trkpt lat="44.3069513" lon="8.1956957"><ele>640.5</ele><time>2026-05-03T11:08:39.979Z</time></trkpt><trkpt lat="44.3070645" lon="8.1957705"><ele>641.25</ele><time>2026-05-03T11:08:40.979Z</time></trkpt><trkpt lat="44.3071789" lon="8.1958323"><ele>642.0</ele><time>2026-05-03T11:08:41.979Z</time></trkpt><trkpt lat="44.3072941" lon="8.1959179"><ele>642.0</ele><time>2026-05-03T11:08:42.98Z</time></trkpt><trkpt lat="44.307391" lon="8.1960153"><ele>642.0</ele><time>2026-05-03T11:08:43.98Z</time></trkpt><trkpt lat="44.3074722" lon="8.1961294"><ele>642.0</ele><time>2026-05-03T11:08:44.98Z</time></trkpt><trkpt lat="44.3075488" lon="8.1962605"><ele>642.0</ele><time>2026-05-03T11:08:45.979Z</time></trkpt><trkpt lat="44.3076276" lon="8.1963863"><ele>642.0</ele><time>2026-05-03T11:08:46.98Z</time></trkpt><trkpt lat="44.307715" lon="8.1965016"><ele>642.0</ele><time>2026-05-03T11:08:47.98Z</time></trkpt><trkpt lat="44.3078087" lon="8.196606"><ele>642.0</ele><time>2026-05-03T11:08:48.979Z</time></trkpt><trkpt lat="44.3079066" lon="8.1967189"><ele>642.0</ele><time>2026-05-03T11:08:49.979Z</time></trkpt><trkpt lat="44.3080118" lon="8.1968368"><ele>640.5</ele><time>2026-05-03T11:08:50.98Z</time></trkpt><trkpt lat="44.3081235" lon="8.1969561"><ele>639.0</ele><time>2026-05-03T11:08:51.979Z</time></trkpt><trkpt lat="44.3082413" lon="8.1970898"><ele>637.5</ele><time>2026-05-03T11:08:52.979Z</time></trkpt><trkpt lat="44.3083606" lon="8.1972278"><ele>636.0</ele><time>2026-05-03T11:08:53.979Z</time></trkpt><trkpt lat="44.3084824" lon="8.1973617"><ele>643.0</ele><time>2026-05-03T11:08:54.978Z</time></trkpt><trkpt lat="44.3086032" lon="8.1974894"><ele>650.0</ele><time>2026-05-03T11:08:55.979Z</time></trkpt><trkpt lat="44.3087221" lon="8.1976151"><ele>657.0</ele><time>2026-05-03T11:08:56.979Z</time></trkpt><trkpt lat="44.3088429" lon="8.1977402"><ele>657.75</ele><time>2026-05-03T11:08:57.978Z</time></trkpt><trkpt lat="44.3089579" lon="8.1978721"><ele>658.5</ele><time>2026-05-03T11:08:58.979Z</time></trkpt><trkpt lat="44.3090666" lon="8.197989"><ele>659.25</ele><time>2026-05-03T11:08:59.978Z</time></trkpt><trkpt lat="44.3091773" lon="8.1981128"><ele>660.0</ele><time>2026-05-03T11:09:00.978Z</time></trkpt><trkpt lat="44.3092847" lon="8.1982327"><ele>660.0</ele><time>2026-05-03T11:09:01.978Z</time></trkpt><trkpt lat="44.3093888" lon="8.1983493"><ele>660.0</ele><time>2026-05-03T11:09:02.978Z</time></trkpt><trkpt lat="44.3094905" lon="8.1984658"><ele>660.0</ele><time>2026-05-03T11:09:03.979Z</time></trkpt><trkpt lat="44.3095929" lon="8.1985839"><ele>660.0</ele><time>2026-05-03T11:09:04.979Z</time></trkpt><trkpt lat="44.309692" lon="8.1987101"><ele>659.0</ele><time>2026-05-03T11:09:05.978Z</time></trkpt><trkpt lat="44.309792" lon="8.1988276"><ele>658.0</ele><time>2026-05-03T11:09:06.978Z</time></trkpt><trkpt lat="44.3098954" lon="8.1989247"><ele>657.0</ele><time>2026-05-03T11:09:07.979Z</time></trkpt><trkpt lat="44.3100009" lon="8.1989955"><ele>656.0</ele><time>2026-05-03T11:09:08.978Z</time></trkpt><trkpt lat="44.3101221" lon="8.199052"><ele>656.0</ele><time>2026-05-03T11:09:09.978Z</time></trkpt><trkpt lat="44.3102476" lon="8.199084"><ele>656.0</ele><time>2026-05-03T11:09:10.979Z</time></trkpt><trkpt lat="44.3103663" lon="8.1991009"><ele>656.0</ele><time>2026-05-03T11:09:11.978Z</time></trkpt><trkpt lat="44.3104726" lon="8.1991215"><ele>656.0</ele><time>2026-05-03T11:09:12.978Z</time></trkpt><trkpt lat="44.3105701" lon="8.19914"><ele>651.1666666666666</ele><time>2026-05-03T11:09:13.979Z</time></trkpt><trkpt lat="44.3106577" lon="8.1991805"><ele>646.3333333333333</ele><time>2026-05-03T11:09:14.978Z</time></trkpt><trkpt lat="44.3107252" lon="8.1992382"><ele>641.5</ele><time>2026-05-03T11:09:15.978Z</time></trkpt><trkpt lat="44.3107803" lon="8.1993256"><ele>636.6666666666666</ele><time>2026-05-03T11:09:16.978Z</time></trkpt><trkpt lat="44.3108226" lon="8.1994368"><ele>631.8333333333334</ele><time>2026-05-03T11:09:17.978Z</time></trkpt><trkpt lat="44.3108471" lon="8.1995745"><ele>627.0</ele><time>2026-05-03T11:09:18.978Z</time></trkpt><trkpt lat="44.3108369" lon="8.1997315"><ele>628.75</ele><time>2026-05-03T11:09:19.978Z</time></trkpt><trkpt lat="44.3108038" lon="8.199892"><ele>630.5</ele><time>2026-05-03T11:09:20.978Z</time></trkpt><trkpt lat="44.3107484" lon="8.2000514"><ele>632.25</ele><time>2026-05-03T11:09:21.978Z</time></trkpt><trkpt lat="44.3106857" lon="8.200202"><ele>634.0</ele><time>2026-05-03T11:09:22.978Z</time></trkpt><trkpt lat="44.3106242" lon="8.2003442"><ele>641.0</ele><time>2026-05-03T11:09:23.978Z</time></trkpt><trkpt lat="44.3105729" lon="8.2004858"><ele>648.0</ele><time>2026-05-03T11:09:24.978Z</time></trkpt><trkpt lat="44.31053" lon="8.2006181"><ele>655.0</ele><time>2026-05-03T11:09:25.979Z</time></trkpt><trkpt lat="44.3104791" lon="8.2007314"><ele>662.0</ele><time>2026-05-03T11:09:26.978Z</time></trkpt><trkpt lat="44.3104437" lon="8.2008272"><ele>669.0</ele><time>2026-05-03T11:09:27.978Z</time></trkpt><trkpt lat="44.3104165" lon="8.2009079"><ele>669.0</ele><time>2026-05-03T11:09:28.978Z</time></trkpt><trkpt lat="44.3103866" lon="8.2010341"><ele>669.0</ele><time>2026-05-03T11:09:30.979Z</time></trkpt><trkpt lat="44.3105004" lon="8.201083"><ele>669.0</ele><time>2026-05-03T11:09:32.978Z</time></trkpt><trkpt lat="44.3105833" lon="8.2010892"><ele>669.0</ele><time>2026-05-03T11:09:33.979Z</time></trkpt><trkpt lat="44.3106785" lon="8.2010807"><ele>669.0</ele><time>2026-05-03T11:09:34.978Z</time></trkpt><trkpt lat="44.3107923" lon="8.2010603"><ele>661.2</ele><time>2026-05-03T11:09:35.979Z</time></trkpt><trkpt lat="44.3109051" lon="8.2010522"><ele>653.4000000000001</ele><time>2026-05-03T11:09:36.978Z</time></trkpt><trkpt lat="44.3110108" lon="8.2010601"><ele>645.6</ele><time>2026-05-03T11:09:37.978Z</time></trkpt><trkpt lat="44.3111072" lon="8.2010913"><ele>637.8</ele><time>2026-05-03T11:09:38.979Z</time></trkpt><trkpt lat="44.3111938" lon="8.2011433"><ele>630.0</ele><time>2026-05-03T11:09:39.978Z</time></trkpt><trkpt lat="44.3112752" lon="8.2012174"><ele>630.0</ele><time>2026-05-03T11:09:40.978Z</time></trkpt><trkpt lat="44.3113428" lon="8.2013019"><ele>630.0</ele><time>2026-05-03T11:09:41.978Z</time></trkpt><trkpt lat="44.3113971" lon="8.2013904"><ele>630.0</ele><time>2026-05-03T11:09:42.979Z</time></trkpt><trkpt lat="44.3114219" lon="8.2014975"><ele>630.0</ele><time>2026-05-03T11:09:43.978Z</time></trkpt><trkpt lat="44.3114136" lon="8.2016294"><ele>630.0</ele><time>2026-05-03T11:09:44.978Z</time></trkpt><trkpt lat="44.311377" lon="8.2017828"><ele>633.0</ele><time>2026-05-03T11:09:45.979Z</time></trkpt><trkpt lat="44.3113371" lon="8.201951"><ele>636.0</ele><time>2026-05-03T11:09:46.978Z</time></trkpt><trkpt lat="44.3112826" lon="8.20213"><ele>639.0</ele><time>2026-05-03T11:09:47.978Z</time></trkpt><trkpt lat="44.3112327" lon="8.2023067"><ele>642.0</ele><time>2026-05-03T11:09:48.979Z</time></trkpt><trkpt lat="44.3111935" lon="8.2024838"><ele>642.0</ele><time>2026-05-03T11:09:49.979Z</time></trkpt><trkpt lat="44.3111698" lon="8.2026554"><ele>642.0</ele><time>2026-05-03T11:09:50.978Z</time></trkpt><trkpt lat="44.3111635" lon="8.202816"><ele>642.0</ele><time>2026-05-03T11:09:51.978Z</time></trkpt><trkpt lat="44.311169" lon="8.2029742"><ele>642.0</ele><time>2026-05-03T11:09:52.978Z</time></trkpt><trkpt lat="44.311191" lon="8.2031332"><ele>642.4000000000001</ele><time>2026-05-03T11:09:53.979Z</time></trkpt><trkpt lat="44.3112258" lon="8.2032721"><ele>642.8000000000001</ele><time>2026-05-03T11:09:54.978Z</time></trkpt><trkpt lat="44.3112604" lon="8.2034064"><ele>643.2</ele><time>2026-05-03T11:09:55.979Z</time></trkpt><trkpt lat="44.3113158" lon="8.2035171"><ele>643.6</ele><time>2026-05-03T11:09:56.978Z</time></trkpt><trkpt lat="44.311399" lon="8.2035916"><ele>644.0</ele><time>2026-05-03T11:09:57.979Z</time></trkpt><trkpt lat="44.3114703" lon="8.2036764"><ele>636.0</ele><time>2026-05-03T11:09:58.978Z</time></trkpt><trkpt lat="44.3115242" lon="8.2037865"><ele>628.0</ele><time>2026-05-03T11:09:59.978Z</time></trkpt><trkpt lat="44.3115646" lon="8.2039252"><ele>620.0</ele><time>2026-05-03T11:10:00.979Z</time></trkpt><trkpt lat="44.3115918" lon="8.2040691"><ele>612.0</ele><time>2026-05-03T11:10:01.978Z</time></trkpt><trkpt lat="44.3116238" lon="8.2041901"><ele>604.0</ele><time>2026-05-03T11:10:02.979Z</time></trkpt><trkpt lat="44.3116599" lon="8.2042853"><ele>604.0</ele><time>2026-05-03T11:10:03.978Z</time></trkpt><trkpt lat="44.3117515" lon="8.2043562"><ele>604.0</ele><time>2026-05-03T11:10:05.979Z</time></trkpt><trkpt lat="44.3118448" lon="8.2042543"><ele>604.0</ele><time>2026-05-03T11:10:07.979Z</time></trkpt><trkpt lat="44.3118673" lon="8.2041437"><ele>604.0</ele><time>2026-05-03T11:10:08.978Z</time></trkpt><trkpt lat="44.3118476" lon="8.204024"><ele>604.0</ele><time>2026-05-03T11:10:09.979Z</time></trkpt><trkpt lat="44.3117946" lon="8.2039003"><ele>603.8</ele><time>2026-05-03T11:10:10.978Z</time></trkpt><trkpt lat="44.3117231" lon="8.2037792"><ele>603.5999999999999</ele><time>2026-05-03T11:10:11.978Z</time></trkpt><trkpt lat="44.3116557" lon="8.2036624"><ele>603.4</ele><time>2026-05-03T11:10:12.979Z</time></trkpt><trkpt lat="44.3115985" lon="8.2035474"><ele>603.1999999999999</ele><time>2026-05-03T11:10:13.979Z</time></trkpt><trkpt lat="44.3115528" lon="8.2034135"><ele>603.0</ele><time>2026-05-03T11:10:14.978Z</time></trkpt><trkpt lat="44.3115149" lon="8.2032786"><ele>602.0</ele><time>2026-05-03T11:10:15.978Z</time></trkpt><trkpt lat="44.3114905" lon="8.2031386"><ele>601.0</ele><time>2026-05-03T11:10:16.978Z</time></trkpt><trkpt lat="44.3114921" lon="8.202976"><ele>600.0</ele><time>2026-05-03T11:10:17.978Z</time></trkpt><trkpt lat="44.3115176" lon="8.2027985"><ele>599.0</ele><time>2026-05-03T11:10:18.978Z</time></trkpt><trkpt lat="44.3115572" lon="8.2026035"><ele>599.0</ele><time>2026-05-03T11:10:19.978Z</time></trkpt><trkpt lat="44.311611" lon="8.2023972"><ele>599.0</ele><time>2026-05-03T11:10:20.979Z</time></trkpt><trkpt lat="44.3116853" lon="8.2021579"><ele>599.0</ele><time>2026-05-03T11:10:21.978Z</time></trkpt><trkpt lat="44.3117713" lon="8.2019188"><ele>599.3333333333333</ele><time>2026-05-03T11:10:22.979Z</time></trkpt><trkpt lat="44.3118445" lon="8.201679"><ele>599.6666666666666</ele><time>2026-05-03T11:10:23.979Z</time></trkpt><trkpt lat="44.3118987" lon="8.2014731"><ele>600.0</ele><time>2026-05-03T11:10:24.978Z</time></trkpt><trkpt lat="44.3119289" lon="8.2012979"><ele>598.6</ele><time>2026-05-03T11:10:25.978Z</time></trkpt><trkpt lat="44.311949" lon="8.2011547"><ele>597.2</ele><time>2026-05-03T11:10:26.979Z</time></trkpt><trkpt lat="44.3119672" lon="8.2010445"><ele>595.8</ele><time>2026-05-03T11:10:27.978Z</time></trkpt><trkpt lat="44.3119967" lon="8.200961"><ele>594.4</ele><time>2026-05-03T11:10:28.978Z</time></trkpt><trkpt lat="44.312087" lon="8.2009328"><ele>593.0</ele><time>2026-05-03T11:10:30.978Z</time></trkpt><trkpt lat="44.3121159" lon="8.2011416"><ele>593.0</ele><time>2026-05-03T11:10:32.978Z</time></trkpt><trkpt lat="44.3120997" lon="8.2012876"><ele>593.0</ele><time>2026-05-03T11:10:33.978Z</time></trkpt><trkpt lat="44.3120753" lon="8.2014327"><ele>593.0</ele><time>2026-05-03T11:10:34.978Z</time></trkpt><trkpt lat="44.3120495" lon="8.2015663"><ele>593.0</ele><time>2026-05-03T11:10:35.978Z</time></trkpt><trkpt lat="44.31203" lon="8.201702"><ele>593.0</ele><time>2026-05-03T11:10:36.979Z</time></trkpt><trkpt lat="44.3120092" lon="8.2018404"><ele>594.5</ele><time>2026-05-03T11:10:37.978Z</time></trkpt><trkpt lat="44.3119911" lon="8.2019982"><ele>596.0</ele><time>2026-05-03T11:10:38.979Z</time></trkpt><trkpt lat="44.3119765" lon="8.2021581"><ele>597.5</ele><time>2026-05-03T11:10:39.979Z</time></trkpt><trkpt lat="44.3119671" lon="8.2023103"><ele>599.0</ele><time>2026-05-03T11:10:40.979Z</time></trkpt><trkpt lat="44.3119748" lon="8.202468"><ele>599.0</ele><time>2026-05-03T11:10:41.978Z</time></trkpt><trkpt lat="44.311997" lon="8.2026397"><ele>599.0</ele><time>2026-05-03T11:10:42.978Z</time></trkpt><trkpt lat="44.3120574" lon="8.2028231"><ele>599.0</ele><time>2026-05-03T11:10:43.978Z</time></trkpt><trkpt lat="44.312138" lon="8.2030415"><ele>599.0</ele><time>2026-05-03T11:10:44.978Z</time></trkpt><trkpt lat="44.3122502" lon="8.2033158"><ele>583.5</ele><time>2026-05-03T11:10:45.978Z</time></trkpt><trkpt lat="44.3123736" lon="8.2036117"><ele>568.0</ele><time>2026-05-03T11:10:46.978Z</time></trkpt><trkpt lat="44.3124883" lon="8.2038664"><ele>569.0</ele><time>2026-05-03T11:10:47.978Z</time></trkpt><trkpt lat="44.3125814" lon="8.2040689"><ele>570.0</ele><time>2026-05-03T11:10:48.978Z</time></trkpt><trkpt lat="44.3126571" lon="8.2042328"><ele>571.0</ele><time>2026-05-03T11:10:49.979Z</time></trkpt><trkpt lat="44.3127115" lon="8.2043742"><ele>572.0</ele><time>2026-05-03T11:10:50.978Z</time></trkpt><trkpt lat="44.3127501" lon="8.2044818"><ele>571.9999999999999</ele><time>2026-05-03T11:10:51.978Z</time></trkpt><trkpt lat="44.3127777" lon="8.2045683"><ele>572.0</ele><time>2026-05-03T11:10:52.978Z</time></trkpt><trkpt lat="44.3128016" lon="8.2046576"><ele>572.0</ele><time>2026-05-03T11:10:53.979Z</time></trkpt><trkpt lat="44.3128175" lon="8.2047518"><ele>572.0</ele><time>2026-05-03T11:10:54.979Z</time></trkpt><trkpt lat="44.3128151" lon="8.2048455"><ele>572.0</ele><time>2026-05-03T11:10:55.978Z</time></trkpt><trkpt lat="44.312788" lon="8.2049419"><ele>571.9999999999999</ele><time>2026-05-03T11:10:56.979Z</time></trkpt><trkpt lat="44.3127391" lon="8.2050366"><ele>572.0</ele><time>2026-05-03T11:10:57.979Z</time></trkpt><trkpt lat="44.3126866" lon="8.2051332"><ele>568.6666666666666</ele><time>2026-05-03T11:10:58.979Z</time></trkpt><trkpt lat="44.312596" lon="8.2052333"><ele>565.3333333333334</ele><time>2026-05-03T11:10:59.978Z</time></trkpt><trkpt lat="44.3124664" lon="8.2053415"><ele>562.0</ele><time>2026-05-03T11:11:00.978Z</time></trkpt><trkpt lat="44.3122816" lon="8.2054182"><ele>568.6666666666667</ele><time>2026-05-03T11:11:01.978Z</time></trkpt><trkpt lat="44.31211" lon="8.2054942"><ele>575.3333333333334</ele><time>2026-05-03T11:11:02.978Z</time></trkpt><trkpt lat="44.3119629" lon="8.2055684"><ele>582.0</ele><time>2026-05-03T11:11:03.978Z</time></trkpt><trkpt lat="44.3117887" lon="8.205617"><ele>580.0</ele><time>2026-05-03T11:11:04.978Z</time></trkpt><trkpt lat="44.3116396" lon="8.2056702"><ele>578.0</ele><time>2026-05-03T11:11:05.978Z</time></trkpt><trkpt lat="44.3115029" lon="8.2057453"><ele>576.0</ele><time>2026-05-03T11:11:06.979Z</time></trkpt><trkpt lat="44.311378" lon="8.2058486"><ele>574.0</ele><time>2026-05-03T11:11:07.979Z</time></trkpt><trkpt lat="44.3112786" lon="8.2059641"><ele>574.0</ele><time>2026-05-03T11:11:08.978Z</time></trkpt><trkpt lat="44.3112094" lon="8.2060866"><ele>574.0</ele><time>2026-05-03T11:11:09.979Z</time></trkpt><trkpt lat="44.3111466" lon="8.2062247"><ele>574.0</ele><time>2026-05-03T11:11:10.978Z</time></trkpt><trkpt lat="44.3111221" lon="8.2063842"><ele>574.0</ele><time>2026-05-03T11:11:11.978Z</time></trkpt><trkpt lat="44.3111232" lon="8.206559"><ele>574.75</ele><time>2026-05-03T11:11:12.978Z</time></trkpt><trkpt lat="44.3111453" lon="8.2067475"><ele>575.5</ele><time>2026-05-03T11:11:13.978Z</time></trkpt><trkpt lat="44.3111764" lon="8.2069524"><ele>576.25</ele><time>2026-05-03T11:11:14.979Z</time></trkpt><trkpt lat="44.3112184" lon="8.2071643"><ele>577.0</ele><time>2026-05-03T11:11:15.978Z</time></trkpt><trkpt lat="44.3112683" lon="8.2074014"><ele>580.5</ele><time>2026-05-03T11:11:16.979Z</time></trkpt><trkpt lat="44.3113249" lon="8.2076895"><ele>584.0</ele><time>2026-05-03T11:11:17.978Z</time></trkpt><trkpt lat="44.3113958" lon="8.2080425"><ele>563.0</ele><time>2026-05-03T11:11:18.978Z</time></trkpt><trkpt lat="44.3114747" lon="8.2084332"><ele>542.0</ele><time>2026-05-03T11:11:19.979Z</time></trkpt><trkpt lat="44.3115526" lon="8.2088743"><ele>543.5</ele><time>2026-05-03T11:11:20.979Z</time></trkpt><trkpt lat="44.3116173" lon="8.2092822"><ele>545.0</ele><time>2026-05-03T11:11:21.978Z</time></trkpt><trkpt lat="44.3116785" lon="8.2096166"><ele>547.3333333333333</ele><time>2026-05-03T11:11:22.979Z</time></trkpt><trkpt lat="44.3117268" lon="8.2099063"><ele>549.6666666666666</ele><time>2026-05-03T11:11:23.979Z</time></trkpt><trkpt lat="44.3117696" lon="8.2101442"><ele>552.0</ele><time>2026-05-03T11:11:24.978Z</time></trkpt><trkpt lat="44.3117946" lon="8.2103537"><ele>552.0</ele><time>2026-05-03T11:11:25.978Z</time></trkpt><trkpt lat="44.3118157" lon="8.2105411"><ele>552.0</ele><time>2026-05-03T11:11:26.978Z</time></trkpt><trkpt lat="44.3118531" lon="8.2107029"><ele>552.0</ele><time>2026-05-03T11:11:27.978Z</time></trkpt><trkpt lat="44.3119072" lon="8.2108457"><ele>552.0</ele><time>2026-05-03T11:11:28.979Z</time></trkpt><trkpt lat="44.3119791" lon="8.2109832"><ele>554.8000000000001</ele><time>2026-05-03T11:11:29.978Z</time></trkpt><trkpt lat="44.3120561" lon="8.211111"><ele>557.6</ele><time>2026-05-03T11:11:30.978Z</time></trkpt><trkpt lat="44.3121301" lon="8.2112269"><ele>560.4000000000001</ele><time>2026-05-03T11:11:31.978Z</time></trkpt><trkpt lat="44.312215" lon="8.2113218"><ele>563.2</ele><time>2026-05-03T11:11:32.978Z</time></trkpt><trkpt lat="44.3123052" lon="8.211395"><ele>566.0</ele><time>2026-05-03T11:11:33.978Z</time></trkpt><trkpt lat="44.3124032" lon="8.2114459"><ele>558.8</ele><time>2026-05-03T11:11:34.978Z</time></trkpt><trkpt lat="44.3125121" lon="8.2114743"><ele>551.6</ele><time>2026-05-03T11:11:35.979Z</time></trkpt><trkpt lat="44.3126221" lon="8.2114722"><ele>544.4</ele><time>2026-05-03T11:11:36.978Z</time></trkpt><trkpt lat="44.312726" lon="8.21144"><ele>537.2</ele><time>2026-05-03T11:11:37.978Z</time></trkpt><trkpt lat="44.3128076" lon="8.2113687"><ele>530.0</ele><time>2026-05-03T11:11:38.978Z</time></trkpt><trkpt lat="44.3128799" lon="8.2112839"><ele>530.0</ele><time>2026-05-03T11:11:39.979Z</time></trkpt><trkpt lat="44.3129405" lon="8.2111776"><ele>530.0</ele><time>2026-05-03T11:11:40.978Z</time></trkpt><trkpt lat="44.3129885" lon="8.2110445"><ele>530.0</ele><time>2026-05-03T11:11:41.979Z</time></trkpt><trkpt lat="44.313024" lon="8.2108974"><ele>530.0</ele><time>2026-05-03T11:11:42.978Z</time></trkpt><trkpt lat="44.3130664" lon="8.2107514"><ele>530.0</ele><time>2026-05-03T11:11:43.979Z</time></trkpt><trkpt lat="44.3131215" lon="8.2106198"><ele>529.2</ele><time>2026-05-03T11:11:44.979Z</time></trkpt><trkpt lat="44.3131844" lon="8.2105036"><ele>528.4</ele><time>2026-05-03T11:11:45.979Z</time></trkpt><trkpt lat="44.3132504" lon="8.2104129"><ele>527.6</ele><time>2026-05-03T11:11:46.978Z</time></trkpt><trkpt lat="44.3133255" lon="8.2103585"><ele>526.8</ele><time>2026-05-03T11:11:47.978Z</time></trkpt><trkpt lat="44.313408" lon="8.2103253"><ele>526.0</ele><time>2026-05-03T11:11:48.979Z</time></trkpt><trkpt lat="44.3134962" lon="8.2103251"><ele>526.0</ele><time>2026-05-03T11:11:49.978Z</time></trkpt><trkpt lat="44.3135861" lon="8.2103678"><ele>526.0</ele><time>2026-05-03T11:11:50.979Z</time></trkpt><trkpt lat="44.3136558" lon="8.2104652"><ele>526.0</ele><time>2026-05-03T11:11:51.978Z</time></trkpt><trkpt lat="44.3137027" lon="8.2105913"><ele>526.0</ele><time>2026-05-03T11:11:52.978Z</time></trkpt><trkpt lat="44.313733" lon="8.2107575"><ele>526.0</ele><time>2026-05-03T11:11:53.979Z</time></trkpt><trkpt lat="44.3137566" lon="8.2109244"><ele>526.5</ele><time>2026-05-03T11:11:54.979Z</time></trkpt><trkpt lat="44.3137889" lon="8.2110831"><ele>527.0</ele><time>2026-05-03T11:11:55.978Z</time></trkpt><trkpt lat="44.3138324" lon="8.2112316"><ele>527.5</ele><time>2026-05-03T11:11:56.978Z</time></trkpt><trkpt lat="44.3138873" lon="8.2113896"><ele>528.0</ele><time>2026-05-03T11:11:57.978Z</time></trkpt><trkpt lat="44.3139469" lon="8.2115394"><ele>526.75</ele><time>2026-05-03T11:11:58.979Z</time></trkpt><trkpt lat="44.3140074" lon="8.211697"><ele>525.5</ele><time>2026-05-03T11:11:59.978Z</time></trkpt><trkpt lat="44.3140716" lon="8.2118577"><ele>524.25</ele><time>2026-05-03T11:12:00.978Z</time></trkpt><trkpt lat="44.3141413" lon="8.2120194"><ele>523.0</ele><time>2026-05-03T11:12:01.979Z</time></trkpt><trkpt lat="44.3142072" lon="8.2121822"><ele>523.0</ele><time>2026-05-03T11:12:02.978Z</time></trkpt><trkpt lat="44.3142723" lon="8.2123455"><ele>523.0</ele><time>2026-05-03T11:12:03.978Z</time></trkpt><trkpt lat="44.3143363" lon="8.2125127"><ele>523.0</ele><time>2026-05-03T11:12:04.978Z</time></trkpt><trkpt lat="44.3144024" lon="8.2126801"><ele>523.0</ele><time>2026-05-03T11:12:05.979Z</time></trkpt><trkpt lat="44.3144714" lon="8.2128505"><ele>523.0</ele><time>2026-05-03T11:12:06.978Z</time></trkpt><trkpt lat="44.3145373" lon="8.2130197"><ele>523.0</ele><time>2026-05-03T11:12:07.978Z</time></trkpt><trkpt lat="44.3145917" lon="8.2131915"><ele>523.0</ele><time>2026-05-03T11:12:08.978Z</time></trkpt><trkpt lat="44.3146349" lon="8.2133715"><ele>523.0</ele><time>2026-05-03T11:12:09.979Z</time></trkpt><trkpt lat="44.3146552" lon="8.213561"><ele>527.6666666666667</ele><time>2026-05-03T11:12:10.978Z</time></trkpt><trkpt lat="44.3146692" lon="8.2137692"><ele>532.3333333333334</ele><time>2026-05-03T11:12:11.978Z</time></trkpt><trkpt lat="44.3146732" lon="8.2139812"><ele>537.0</ele><time>2026-05-03T11:12:12.978Z</time></trkpt><trkpt lat="44.3146835" lon="8.2141892"><ele>539.25</ele><time>2026-05-03T11:12:13.978Z</time></trkpt><trkpt lat="44.3147134" lon="8.2143876"><ele>541.5</ele><time>2026-05-03T11:12:14.978Z</time></trkpt><trkpt lat="44.31476" lon="8.2145794"><ele>543.75</ele><time>2026-05-03T11:12:15.979Z</time></trkpt><trkpt lat="44.3148235" lon="8.2147482"><ele>546.0</ele><time>2026-05-03T11:12:16.979Z</time></trkpt><trkpt lat="44.3148862" lon="8.2149143"><ele>539.0</ele><time>2026-05-03T11:12:17.978Z</time></trkpt><trkpt lat="44.3149635" lon="8.2150756"><ele>532.0</ele><time>2026-05-03T11:12:18.979Z</time></trkpt><trkpt lat="44.3150523" lon="8.2152202"><ele>525.0</ele><time>2026-05-03T11:12:19.979Z</time></trkpt><trkpt lat="44.3151483" lon="8.2153591"><ele>518.0</ele><time>2026-05-03T11:12:20.978Z</time></trkpt><trkpt lat="44.3152507" lon="8.2154782"><ele>518.0</ele><time>2026-05-03T11:12:21.979Z</time></trkpt><trkpt lat="44.3153706" lon="8.2155736"><ele>518.0</ele><time>2026-05-03T11:12:22.978Z</time></trkpt><trkpt lat="44.3155025" lon="8.2156422"><ele>518.0</ele><time>2026-05-03T11:12:23.978Z</time></trkpt><trkpt lat="44.3156298" lon="8.2157145"><ele>518.0</ele><time>2026-05-03T11:12:24.978Z</time></trkpt><trkpt lat="44.3157591" lon="8.2157846"><ele>518.75</ele><time>2026-05-03T11:12:25.978Z</time></trkpt><trkpt lat="44.3158786" lon="8.2158412"><ele>519.5</ele><time>2026-05-03T11:12:26.978Z</time></trkpt><trkpt lat="44.3160026" lon="8.2158893"><ele>520.25</ele><time>2026-05-03T11:12:27.978Z</time></trkpt><trkpt lat="44.3161292" lon="8.215913"><ele>521.0</ele><time>2026-05-03T11:12:28.978Z</time></trkpt><trkpt lat="44.3162624" lon="8.2159373"><ele>521.0</ele><time>2026-05-03T11:12:29.978Z</time></trkpt><trkpt lat="44.3163975" lon="8.2159551"><ele>521.0</ele><time>2026-05-03T11:12:30.979Z</time></trkpt><trkpt lat="44.3165341" lon="8.2159697"><ele>521.0</ele><time>2026-05-03T11:12:31.978Z</time></trkpt><trkpt lat="44.3166738" lon="8.2159984"><ele>521.0</ele><time>2026-05-03T11:12:32.979Z</time></trkpt><trkpt lat="44.3168147" lon="8.2160474"><ele>518.0</ele><time>2026-05-03T11:12:33.978Z</time></trkpt><trkpt lat="44.3169581" lon="8.2161093"><ele>515.0</ele><time>2026-05-03T11:12:34.978Z</time></trkpt><trkpt lat="44.317102" lon="8.2161717"><ele>512.0</ele><time>2026-05-03T11:12:35.978Z</time></trkpt><trkpt lat="44.3172521" lon="8.2162367"><ele>512.0</ele><time>2026-05-03T11:12:36.978Z</time></trkpt><trkpt lat="44.3174034" lon="8.2163085"><ele>512.0</ele><time>2026-05-03T11:12:37.979Z</time></trkpt><trkpt lat="44.3175502" lon="8.216377"><ele>512.0</ele><time>2026-05-03T11:12:38.978Z</time></trkpt><trkpt lat="44.3176968" lon="8.2164399"><ele>512.0</ele><time>2026-05-03T11:12:39.978Z</time></trkpt><trkpt lat="44.3178449" lon="8.2164957"><ele>512.0</ele><time>2026-05-03T11:12:40.978Z</time></trkpt><trkpt lat="44.3179909" lon="8.2165417"><ele>512.0</ele><time>2026-05-03T11:12:41.979Z</time></trkpt><trkpt lat="44.3181351" lon="8.2165771"><ele>512.0</ele><time>2026-05-03T11:12:42.979Z</time></trkpt><trkpt lat="44.3182797" lon="8.2165772"><ele>512.0</ele><time>2026-05-03T11:12:43.979Z</time></trkpt><trkpt lat="44.3184192" lon="8.2165613"><ele>512.0</ele><time>2026-05-03T11:12:44.978Z</time></trkpt><trkpt lat="44.3185555" lon="8.2165327"><ele>512.0</ele><time>2026-05-03T11:12:45.978Z</time></trkpt><trkpt lat="44.3186842" lon="8.2165009"><ele>512.0</ele><time>2026-05-03T11:12:46.978Z</time></trkpt><trkpt lat="44.3188157" lon="8.2164719"><ele>510.0</ele><time>2026-05-03T11:12:47.978Z</time></trkpt><trkpt lat="44.3189554" lon="8.2164436"><ele>508.0</ele><time>2026-05-03T11:12:48.978Z</time></trkpt><trkpt lat="44.3190863" lon="8.2163987"><ele>506.0</ele><time>2026-05-03T11:12:49.979Z</time></trkpt><trkpt lat="44.3192271" lon="8.2163688"><ele>504.0</ele><time>2026-05-03T11:12:50.978Z</time></trkpt><trkpt lat="44.3193695" lon="8.216332"><ele>504.0</ele><time>2026-05-03T11:12:51.979Z</time></trkpt><trkpt lat="44.3195191" lon="8.2163158"><ele>504.0</ele><time>2026-05-03T11:12:52.978Z</time></trkpt><trkpt lat="44.3196648" lon="8.216298"><ele>504.0</ele><time>2026-05-03T11:12:53.979Z</time></trkpt><trkpt lat="44.3198008" lon="8.2162936"><ele>504.0</ele><time>2026-05-03T11:12:54.979Z</time></trkpt><trkpt lat="44.3199381" lon="8.2162959"><ele>505.5</ele><time>2026-05-03T11:12:55.979Z</time></trkpt><trkpt lat="44.3200718" lon="8.2162932"><ele>507.0</ele><time>2026-05-03T11:12:56.978Z</time></trkpt><trkpt lat="44.3202061" lon="8.2162887"><ele>508.5</ele><time>2026-05-03T11:12:57.978Z</time></trkpt><trkpt lat="44.3203397" lon="8.2162843"><ele>510.0</ele><time>2026-05-03T11:12:58.978Z</time></trkpt><trkpt lat="44.3204778" lon="8.2162903"><ele>509.75</ele><time>2026-05-03T11:12:59.978Z</time></trkpt><trkpt lat="44.3206172" lon="8.216296"><ele>509.5</ele><time>2026-05-03T11:13:00.978Z</time></trkpt><trkpt lat="44.3207547" lon="8.2163026"><ele>509.25</ele><time>2026-05-03T11:13:01.978Z</time></trkpt><trkpt lat="44.3208915" lon="8.2163085"><ele>509.0</ele><time>2026-05-03T11:13:02.978Z</time></trkpt><trkpt lat="44.3210189" lon="8.2163122"><ele>509.0</ele><time>2026-05-03T11:13:03.978Z</time></trkpt><trkpt lat="44.3211393" lon="8.2163062"><ele>509.0</ele><time>2026-05-03T11:13:04.978Z</time></trkpt><trkpt lat="44.321251" lon="8.2162723"><ele>509.0</ele><time>2026-05-03T11:13:05.978Z</time></trkpt><trkpt lat="44.3213469" lon="8.2162059"><ele>509.0</ele><time>2026-05-03T11:13:06.978Z</time></trkpt><trkpt lat="44.3214348" lon="8.2161244"><ele>509.0</ele><time>2026-05-03T11:13:07.978Z</time></trkpt><trkpt lat="44.3215063" lon="8.2160028"><ele>508.75</ele><time>2026-05-03T11:13:08.979Z</time></trkpt><trkpt lat="44.3215559" lon="8.2158446"><ele>508.5</ele><time>2026-05-03T11:13:09.978Z</time></trkpt><trkpt lat="44.3215838" lon="8.2156741"><ele>508.25</ele><time>2026-05-03T11:13:10.979Z</time></trkpt><trkpt lat="44.3215982" lon="8.2155066"><ele>508.0</ele><time>2026-05-03T11:13:11.978Z</time></trkpt><trkpt lat="44.3216066" lon="8.2153361"><ele>508.0</ele><time>2026-05-03T11:13:12.979Z</time></trkpt><trkpt lat="44.321608" lon="8.2151604"><ele>508.0</ele><time>2026-05-03T11:13:13.979Z</time></trkpt><trkpt lat="44.321629" lon="8.2149901"><ele>508.0</ele><time>2026-05-03T11:13:14.978Z</time></trkpt><trkpt lat="44.3216526" lon="8.2148203"><ele>508.0</ele><time>2026-05-03T11:13:15.978Z</time></trkpt><trkpt lat="44.3216754" lon="8.2146453"><ele>507.0</ele><time>2026-05-03T11:13:16.978Z</time></trkpt><trkpt lat="44.3216934" lon="8.2144586"><ele>506.0</ele><time>2026-05-03T11:13:17.978Z</time></trkpt><trkpt lat="44.3217005" lon="8.214269"><ele>505.0</ele><time>2026-05-03T11:13:18.978Z</time></trkpt><trkpt lat="44.3217221" lon="8.2140798"><ele>504.0</ele><time>2026-05-03T11:13:19.978Z</time></trkpt><trkpt lat="44.3217513" lon="8.2138981"><ele>503.75</ele><time>2026-05-03T11:13:20.978Z</time></trkpt><trkpt lat="44.3217864" lon="8.2137132"><ele>503.5</ele><time>2026-05-03T11:13:21.979Z</time></trkpt><trkpt lat="44.3218108" lon="8.2135267"><ele>503.25</ele><time>2026-05-03T11:13:22.978Z</time></trkpt><trkpt lat="44.3218388" lon="8.213342"><ele>503.0</ele><time>2026-05-03T11:13:23.979Z</time></trkpt><trkpt lat="44.3218598" lon="8.2131545"><ele>503.0</ele><time>2026-05-03T11:13:24.978Z</time></trkpt><trkpt lat="44.3218938" lon="8.2129617"><ele>503.0</ele><time>2026-05-03T11:13:25.979Z</time></trkpt><trkpt lat="44.3219274" lon="8.2127732"><ele>503.0</ele><time>2026-05-03T11:13:26.978Z</time></trkpt><trkpt lat="44.3219594" lon="8.2125847"><ele>503.0</ele><time>2026-05-03T11:13:27.978Z</time></trkpt><trkpt lat="44.3219806" lon="8.2123928"><ele>501.25</ele><time>2026-05-03T11:13:28.978Z</time></trkpt><trkpt lat="44.3220154" lon="8.212214"><ele>499.5</ele><time>2026-05-03T11:13:29.978Z</time></trkpt><trkpt lat="44.3220663" lon="8.2120447"><ele>497.75</ele><time>2026-05-03T11:13:30.978Z</time></trkpt><trkpt lat="44.3221479" lon="8.2118909"><ele>496.0</ele><time>2026-05-03T11:13:31.978Z</time></trkpt><trkpt lat="44.3222477" lon="8.2117624"><ele>496.0</ele><time>2026-05-03T11:13:32.978Z</time></trkpt><trkpt lat="44.3223647" lon="8.2116734"><ele>496.0</ele><time>2026-05-03T11:13:33.978Z</time></trkpt><trkpt lat="44.3225133" lon="8.2116341"><ele>496.0</ele><time>2026-05-03T11:13:34.978Z</time></trkpt><trkpt lat="44.3226733" lon="8.2116496"><ele>496.0</ele><time>2026-05-03T11:13:35.978Z</time></trkpt><trkpt lat="44.3228257" lon="8.2117123"><ele>496.0</ele><time>2026-05-03T11:13:36.979Z</time></trkpt><trkpt lat="44.3229613" lon="8.2117669"><ele>496.0</ele><time>2026-05-03T11:13:37.978Z</time></trkpt><trkpt lat="44.3230819" lon="8.2118117"><ele>496.0</ele><time>2026-05-03T11:13:38.979Z</time></trkpt><trkpt lat="44.3232021" lon="8.2118412"><ele>496.0</ele><time>2026-05-03T11:13:39.978Z</time></trkpt><trkpt lat="44.3233212" lon="8.2118425"><ele>496.25</ele><time>2026-05-03T11:13:40.978Z</time></trkpt><trkpt lat="44.323442" lon="8.2118185"><ele>496.5</ele><time>2026-05-03T11:13:41.978Z</time></trkpt><trkpt lat="44.3235633" lon="8.2117718"><ele>496.75</ele><time>2026-05-03T11:13:42.978Z</time></trkpt><trkpt lat="44.3236782" lon="8.2117121"><ele>497.0</ele><time>2026-05-03T11:13:43.978Z</time></trkpt><trkpt lat="44.3237801" lon="8.2116165"><ele>497.0</ele><time>2026-05-03T11:13:44.978Z</time></trkpt><trkpt lat="44.3238765" lon="8.211502"><ele>497.0</ele><time>2026-05-03T11:13:45.979Z</time></trkpt><trkpt lat="44.3239641" lon="8.2113687"><ele>497.0</ele><time>2026-05-03T11:13:46.978Z</time></trkpt><trkpt lat="44.3240494" lon="8.2112311"><ele>497.0</ele><time>2026-05-03T11:13:47.979Z</time></trkpt><trkpt lat="44.3241357" lon="8.2110849"><ele>496.75</ele><time>2026-05-03T11:13:48.979Z</time></trkpt><trkpt lat="44.3242241" lon="8.2109308"><ele>496.5</ele><time>2026-05-03T11:13:49.978Z</time></trkpt><trkpt lat="44.3243137" lon="8.2107766"><ele>496.25</ele><time>2026-05-03T11:13:50.979Z</time></trkpt><trkpt lat="44.3244064" lon="8.2106256"><ele>496.0</ele><time>2026-05-03T11:13:51.979Z</time></trkpt><trkpt lat="44.3244936" lon="8.2104797"><ele>495.25</ele><time>2026-05-03T11:13:52.979Z</time></trkpt><trkpt lat="44.3245786" lon="8.2103385"><ele>494.5</ele><time>2026-05-03T11:13:53.979Z</time></trkpt><trkpt lat="44.3246637" lon="8.2102011"><ele>493.75</ele><time>2026-05-03T11:13:54.979Z</time></trkpt><trkpt lat="44.3247513" lon="8.2100632"><ele>493.0</ele><time>2026-05-03T11:13:55.979Z</time></trkpt><trkpt lat="44.3248394" lon="8.2099246"><ele>494.5</ele><time>2026-05-03T11:13:56.979Z</time></trkpt><trkpt lat="44.3249273" lon="8.2097756"><ele>496.0</ele><time>2026-05-03T11:13:57.979Z</time></trkpt><trkpt lat="44.3250075" lon="8.2096161"><ele>497.5</ele><time>2026-05-03T11:13:58.978Z</time></trkpt><trkpt lat="44.3250664" lon="8.2094564"><ele>499.0</ele><time>2026-05-03T11:13:59.979Z</time></trkpt><trkpt lat="44.325097" lon="8.2092934"><ele>499.0</ele><time>2026-05-03T11:14:00.978Z</time></trkpt><trkpt lat="44.3250952" lon="8.2091264"><ele>499.0</ele><time>2026-05-03T11:14:01.977Z</time></trkpt><trkpt lat="44.3250674" lon="8.208968"><ele>499.0</ele><time>2026-05-03T11:14:02.977Z</time></trkpt><trkpt lat="44.3250125" lon="8.2088177"><ele>499.0</ele><time>2026-05-03T11:14:03.977Z</time></trkpt><trkpt lat="44.3249322" lon="8.2086941"><ele>500.75</ele><time>2026-05-03T11:14:04.977Z</time></trkpt><trkpt lat="44.3248312" lon="8.2085895"><ele>502.5</ele><time>2026-05-03T11:14:05.977Z</time></trkpt><trkpt lat="44.3247285" lon="8.208495"><ele>504.25</ele><time>2026-05-03T11:14:06.978Z</time></trkpt><trkpt lat="44.3246414" lon="8.2083926"><ele>506.0</ele><time>2026-05-03T11:14:07.977Z</time></trkpt><trkpt lat="44.3245773" lon="8.2082868"><ele>503.3333333333333</ele><time>2026-05-03T11:14:08.977Z</time></trkpt><trkpt lat="44.3245478" lon="8.2081814"><ele>500.66666666666663</ele><time>2026-05-03T11:14:09.978Z</time></trkpt><trkpt lat="44.324541" lon="8.2080696"><ele>498.0</ele><time>2026-05-03T11:14:10.977Z</time></trkpt><trkpt lat="44.3245523" lon="8.207952"><ele>495.33333333333337</ele><time>2026-05-03T11:14:11.977Z</time></trkpt><trkpt lat="44.3245867" lon="8.2078365"><ele>492.6666666666667</ele><time>2026-05-03T11:14:12.978Z</time></trkpt><trkpt lat="44.3246472" lon="8.2077257"><ele>490.0</ele><time>2026-05-03T11:14:13.978Z</time></trkpt><trkpt lat="44.3247337" lon="8.2076244"><ele>490.0</ele><time>2026-05-03T11:14:14.977Z</time></trkpt><trkpt lat="44.3248653" lon="8.2075479"><ele>490.0</ele><time>2026-05-03T11:14:15.977Z</time></trkpt><trkpt lat="44.3249924" lon="8.2074664"><ele>490.0</ele><time>2026-05-03T11:14:16.978Z</time></trkpt><trkpt lat="44.3251128" lon="8.2073803"><ele>490.0</ele><time>2026-05-03T11:14:17.978Z</time></trkpt><trkpt lat="44.3252252" lon="8.2072817"><ele>488.75</ele><time>2026-05-03T11:14:18.977Z</time></trkpt><trkpt lat="44.3253404" lon="8.207192"><ele>487.5</ele><time>2026-05-03T11:14:19.977Z</time></trkpt><trkpt lat="44.3254453" lon="8.2070966"><ele>486.25</ele><time>2026-05-03T11:14:20.978Z</time></trkpt><trkpt lat="44.325549" lon="8.2070017"><ele>485.0</ele><time>2026-05-03T11:14:21.977Z</time></trkpt><trkpt lat="44.3256526" lon="8.2068971"><ele>485.0</ele><time>2026-05-03T11:14:22.977Z</time></trkpt><trkpt lat="44.3257589" lon="8.2067907"><ele>485.0</ele><time>2026-05-03T11:14:23.977Z</time></trkpt><trkpt lat="44.3258659" lon="8.2066828"><ele>485.0</ele><time>2026-05-03T11:14:24.977Z</time></trkpt><trkpt lat="44.3259684" lon="8.206595"><ele>485.0</ele><time>2026-05-03T11:14:25.977Z</time></trkpt><trkpt lat="44.3261" lon="8.2065417"><ele>485.0</ele><time>2026-05-03T11:14:26.977Z</time></trkpt><trkpt lat="44.3262473" lon="8.2065263"><ele>485.0</ele><time>2026-05-03T11:14:27.977Z</time></trkpt><trkpt lat="44.3264032" lon="8.2065368"><ele>485.0</ele><time>2026-05-03T11:14:28.977Z</time></trkpt><trkpt lat="44.3265683" lon="8.2065611"><ele>485.66666666666663</ele><time>2026-05-03T11:14:29.977Z</time></trkpt><trkpt lat="44.3267487" lon="8.2065902"><ele>486.33333333333337</ele><time>2026-05-03T11:14:30.978Z</time></trkpt><trkpt lat="44.3269186" lon="8.2066048"><ele>487.0</ele><time>2026-05-03T11:14:31.978Z</time></trkpt><trkpt lat="44.3270738" lon="8.2066198"><ele>487.0</ele><time>2026-05-03T11:14:32.977Z</time></trkpt><trkpt lat="44.3272111" lon="8.2066348"><ele>487.0</ele><time>2026-05-03T11:14:33.978Z</time></trkpt><trkpt lat="44.3273311" lon="8.2066553"><ele>487.0</ele><time>2026-05-03T11:14:34.978Z</time></trkpt><trkpt lat="44.3274441" lon="8.2066991"><ele>487.0</ele><time>2026-05-03T11:14:35.978Z</time></trkpt><trkpt lat="44.3275621" lon="8.2067513"><ele>485.75</ele><time>2026-05-03T11:14:36.977Z</time></trkpt><trkpt lat="44.3276807" lon="8.2068155"><ele>484.5</ele><time>2026-05-03T11:14:37.978Z</time></trkpt><trkpt lat="44.3278039" lon="8.2068795"><ele>483.25</ele><time>2026-05-03T11:14:38.977Z</time></trkpt><trkpt lat="44.3279304" lon="8.2069481"><ele>482.0</ele><time>2026-05-03T11:14:39.977Z</time></trkpt><trkpt lat="44.3280619" lon="8.2070158"><ele>479.75</ele><time>2026-05-03T11:14:40.977Z</time></trkpt><trkpt lat="44.3281993" lon="8.20708"><ele>477.5</ele><time>2026-05-03T11:14:41.978Z</time></trkpt><trkpt lat="44.328343" lon="8.2071389"><ele>475.25</ele><time>2026-05-03T11:14:42.978Z</time></trkpt><trkpt lat="44.3284879" lon="8.2071926"><ele>473.0</ele><time>2026-05-03T11:14:43.978Z</time></trkpt><trkpt lat="44.3286364" lon="8.2072357"><ele>473.0</ele><time>2026-05-03T11:14:44.978Z</time></trkpt><trkpt lat="44.3287856" lon="8.2072718"><ele>473.0</ele><time>2026-05-03T11:14:45.977Z</time></trkpt><trkpt lat="44.3289332" lon="8.2072968"><ele>473.0</ele><time>2026-05-03T11:14:46.978Z</time></trkpt><trkpt lat="44.3290697" lon="8.2073173"><ele>473.0</ele><time>2026-05-03T11:14:47.977Z</time></trkpt><trkpt lat="44.3292031" lon="8.2073366"><ele>471.5</ele><time>2026-05-03T11:14:48.977Z</time></trkpt><trkpt lat="44.3293477" lon="8.2073526"><ele>470.0</ele><time>2026-05-03T11:14:49.977Z</time></trkpt><trkpt lat="44.3294931" lon="8.207358"><ele>468.5</ele><time>2026-05-03T11:14:50.978Z</time></trkpt><trkpt lat="44.3296375" lon="8.2073448"><ele>467.0</ele><time>2026-05-03T11:14:51.978Z</time></trkpt><trkpt lat="44.3297738" lon="8.2073056"><ele>467.0</ele><time>2026-05-03T11:14:52.978Z</time></trkpt><trkpt lat="44.3299254" lon="8.2072576"><ele>467.0</ele><time>2026-05-03T11:14:53.977Z</time></trkpt><trkpt lat="44.3300687" lon="8.2072102"><ele>467.0</ele><time>2026-05-03T11:14:54.978Z</time></trkpt><trkpt lat="44.3302022" lon="8.2071733"><ele>467.0</ele><time>2026-05-03T11:14:55.977Z</time></trkpt><trkpt lat="44.3303266" lon="8.2071232"><ele>467.0</ele><time>2026-05-03T11:14:56.977Z</time></trkpt><trkpt lat="44.3304426" lon="8.2070454"><ele>467.0</ele><time>2026-05-03T11:14:57.978Z</time></trkpt><trkpt lat="44.3305471" lon="8.2069301"><ele>467.0</ele><time>2026-05-03T11:14:58.977Z</time></trkpt><trkpt lat="44.3306497" lon="8.2068053"><ele>467.0</ele><time>2026-05-03T11:14:59.977Z</time></trkpt><trkpt lat="44.3307292" lon="8.2066692"><ele>467.5</ele><time>2026-05-03T11:15:00.978Z</time></trkpt><trkpt lat="44.3307947" lon="8.2065226"><ele>468.0</ele><time>2026-05-03T11:15:01.977Z</time></trkpt><trkpt lat="44.3308521" lon="8.2063704"><ele>468.5</ele><time>2026-05-03T11:15:02.977Z</time></trkpt><trkpt lat="44.3309097" lon="8.2062279"><ele>469.0</ele><time>2026-05-03T11:15:03.977Z</time></trkpt><trkpt lat="44.3309496" lon="8.2060913"><ele>469.0</ele><time>2026-05-03T11:15:04.977Z</time></trkpt><trkpt lat="44.3309968" lon="8.2059791"><ele>469.0</ele><time>2026-05-03T11:15:05.978Z</time></trkpt><trkpt lat="44.3310714" lon="8.2059022"><ele>469.0</ele><time>2026-05-03T11:15:06.977Z</time></trkpt><trkpt lat="44.3311748" lon="8.2058712"><ele>469.0</ele><time>2026-05-03T11:15:07.977Z</time></trkpt><trkpt lat="44.3312936" lon="8.2058748"><ele>469.0</ele><time>2026-05-03T11:15:08.977Z</time></trkpt><trkpt lat="44.3314019" lon="8.205892"><ele>469.1666666666667</ele><time>2026-05-03T11:15:09.977Z</time></trkpt><trkpt lat="44.3314929" lon="8.2059008"><ele>469.33333333333337</ele><time>2026-05-03T11:15:10.978Z</time></trkpt><trkpt lat="44.3315649" lon="8.2058836"><ele>469.5</ele><time>2026-05-03T11:15:11.978Z</time></trkpt><trkpt lat="44.3316693" lon="8.2058135"><ele>469.66666666666663</ele><time>2026-05-03T11:15:13.977Z</time></trkpt><trkpt lat="44.331754" lon="8.2057675"><ele>469.8333333333333</ele><time>2026-05-03T11:15:15.978Z</time></trkpt><trkpt lat="44.3318273" lon="8.2057434"><ele>470.0</ele><time>2026-05-03T11:15:17.977Z</time></trkpt><trkpt lat="44.3318982" lon="8.2057292"><ele>470.0</ele><time>2026-05-03T11:15:19.977Z</time></trkpt><trkpt lat="44.3319994" lon="8.205757"><ele>470.0</ele><time>2026-05-03T11:15:21.977Z</time></trkpt><trkpt lat="44.3320562" lon="8.2058131"><ele>470.0</ele><time>2026-05-03T11:15:22.977Z</time></trkpt><trkpt lat="44.3321162" lon="8.2058899"><ele>470.0</ele><time>2026-05-03T11:15:23.978Z</time></trkpt><trkpt lat="44.3321823" lon="8.2059861"><ele>470.0</ele><time>2026-05-03T11:15:24.978Z</time></trkpt><trkpt lat="44.3322589" lon="8.2061034"><ele>470.0</ele><time>2026-05-03T11:15:25.977Z</time></trkpt><trkpt lat="44.3323406" lon="8.2062362"><ele>470.0</ele><time>2026-05-03T11:15:26.978Z</time></trkpt><trkpt lat="44.3324271" lon="8.2063788"><ele>470.0</ele><time>2026-05-03T11:15:27.978Z</time></trkpt><trkpt lat="44.3325078" lon="8.2065292"><ele>470.0</ele><time>2026-05-03T11:15:28.977Z</time></trkpt><trkpt lat="44.332581" lon="8.2066786"><ele>468.75</ele><time>2026-05-03T11:15:29.978Z</time></trkpt><trkpt lat="44.3326448" lon="8.206832"><ele>467.5</ele><time>2026-05-03T11:15:30.978Z</time></trkpt><trkpt lat="44.3326986" lon="8.2069977"><ele>466.25</ele><time>2026-05-03T11:15:31.977Z</time></trkpt><trkpt lat="44.3327506" lon="8.2071639"><ele>465.0</ele><time>2026-05-03T11:15:32.977Z</time></trkpt><trkpt lat="44.3328032" lon="8.207332"><ele>464.25</ele><time>2026-05-03T11:15:33.978Z</time></trkpt><trkpt lat="44.3328573" lon="8.2074982"><ele>463.5</ele><time>2026-05-03T11:15:34.977Z</time></trkpt><trkpt lat="44.3329236" lon="8.2076538"><ele>462.75</ele><time>2026-05-03T11:15:35.977Z</time></trkpt><trkpt lat="44.3329889" lon="8.2078082"><ele>462.0</ele><time>2026-05-03T11:15:36.977Z</time></trkpt><trkpt lat="44.333072" lon="8.2079519"><ele>463.5</ele><time>2026-05-03T11:15:37.977Z</time></trkpt><trkpt lat="44.3331636" lon="8.2080927"><ele>465.0</ele><time>2026-05-03T11:15:38.978Z</time></trkpt><trkpt lat="44.3332596" lon="8.2082345"><ele>466.5</ele><time>2026-05-03T11:15:39.977Z</time></trkpt><trkpt lat="44.3333567" lon="8.2083579"><ele>468.0</ele><time>2026-05-03T11:15:40.977Z</time></trkpt><trkpt lat="44.3334498" lon="8.208478"><ele>468.0</ele><time>2026-05-03T11:15:41.977Z</time></trkpt><trkpt lat="44.3335294" lon="8.208588"><ele>467.99999999999994</ele><time>2026-05-03T11:15:42.977Z</time></trkpt><trkpt lat="44.3336029" lon="8.2086903"><ele>467.99999999999994</ele><time>2026-05-03T11:15:43.978Z</time></trkpt><trkpt lat="44.3336645" lon="8.2087996"><ele>468.0</ele><time>2026-05-03T11:15:44.977Z</time></trkpt><trkpt lat="44.3337045" lon="8.208909"><ele>468.0</ele><time>2026-05-03T11:15:45.977Z</time></trkpt><trkpt lat="44.3337228" lon="8.209038"><ele>466.59999999999997</ele><time>2026-05-03T11:15:46.977Z</time></trkpt><trkpt lat="44.3337188" lon="8.2091728"><ele>465.19999999999993</ele><time>2026-05-03T11:15:47.977Z</time></trkpt><trkpt lat="44.333687" lon="8.2093039"><ele>463.8</ele><time>2026-05-03T11:15:48.977Z</time></trkpt><trkpt lat="44.3336243" lon="8.2094191"><ele>462.4</ele><time>2026-05-03T11:15:49.977Z</time></trkpt><trkpt lat="44.333548" lon="8.2095264"><ele>461.0</ele><time>2026-05-03T11:15:50.978Z</time></trkpt><trkpt lat="44.333474" lon="8.2096344"><ele>461.0</ele><time>2026-05-03T11:15:51.978Z</time></trkpt><trkpt lat="44.3334036" lon="8.2097369"><ele>461.0</ele><time>2026-05-03T11:15:52.977Z</time></trkpt><trkpt lat="44.3333457" lon="8.2098427"><ele>461.0</ele><time>2026-05-03T11:15:53.977Z</time></trkpt><trkpt lat="44.3333029" lon="8.2099562"><ele>461.0</ele><time>2026-05-03T11:15:54.977Z</time></trkpt><trkpt lat="44.3332808" lon="8.2100821"><ele>461.0</ele><time>2026-05-03T11:15:55.978Z</time></trkpt><trkpt lat="44.3332886" lon="8.2102168"><ele>462.4</ele><time>2026-05-03T11:15:56.977Z</time></trkpt><trkpt lat="44.3333197" lon="8.2103535"><ele>463.8</ele><time>2026-05-03T11:15:57.977Z</time></trkpt><trkpt lat="44.3333631" lon="8.2104871"><ele>465.19999999999993</ele><time>2026-05-03T11:15:58.977Z</time></trkpt><trkpt lat="44.333417" lon="8.2106161"><ele>466.59999999999997</ele><time>2026-05-03T11:15:59.978Z</time></trkpt><trkpt lat="44.3334753" lon="8.2107538"><ele>468.0</ele><time>2026-05-03T11:16:00.978Z</time></trkpt><trkpt lat="44.3335361" lon="8.2108971"><ele>471.5</ele><time>2026-05-03T11:16:01.978Z</time></trkpt><trkpt lat="44.3335962" lon="8.2110434"><ele>475.0</ele><time>2026-05-03T11:16:02.977Z</time></trkpt><trkpt lat="44.3336567" lon="8.2112037"><ele>478.5</ele><time>2026-05-03T11:16:03.977Z</time></trkpt><trkpt lat="44.3337174" lon="8.2113766"><ele>482.0</ele><time>2026-05-03T11:16:04.977Z</time></trkpt><trkpt lat="44.333792" lon="8.2115425"><ele>484.5</ele><time>2026-05-03T11:16:05.977Z</time></trkpt><trkpt lat="44.333886" lon="8.2116859"><ele>487.0</ele><time>2026-05-03T11:16:06.978Z</time></trkpt><trkpt lat="44.3340012" lon="8.2117988"><ele>489.5</ele><time>2026-05-03T11:16:07.977Z</time></trkpt><trkpt lat="44.3341259" lon="8.2118826"><ele>492.0</ele><time>2026-05-03T11:16:08.977Z</time></trkpt><trkpt lat="44.3342552" lon="8.2119424"><ele>485.25</ele><time>2026-05-03T11:16:09.978Z</time></trkpt><trkpt lat="44.3343815" lon="8.2119927"><ele>478.5</ele><time>2026-05-03T11:16:10.977Z</time></trkpt><trkpt lat="44.3345039" lon="8.2120364"><ele>471.75</ele><time>2026-05-03T11:16:11.977Z</time></trkpt><trkpt lat="44.3346236" lon="8.2120871"><ele>465.0</ele><time>2026-05-03T11:16:12.977Z</time></trkpt><trkpt lat="44.3347459" lon="8.212144"><ele>465.0</ele><time>2026-05-03T11:16:13.977Z</time></trkpt><trkpt lat="44.334869" lon="8.2122081"><ele>465.0</ele><time>2026-05-03T11:16:14.978Z</time></trkpt><trkpt lat="44.334985" lon="8.212277"><ele>465.0</ele><time>2026-05-03T11:16:15.977Z</time></trkpt><trkpt lat="44.3351015" lon="8.2123449"><ele>465.0</ele><time>2026-05-03T11:16:16.977Z</time></trkpt><trkpt lat="44.3352218" lon="8.212411"><ele>465.0</ele><time>2026-05-03T11:16:17.977Z</time></trkpt><trkpt lat="44.3353409" lon="8.2124751"><ele>465.0</ele><time>2026-05-03T11:16:18.977Z</time></trkpt><trkpt lat="44.3354608" lon="8.2125048"><ele>465.0</ele><time>2026-05-03T11:16:19.977Z</time></trkpt><trkpt lat="44.3355847" lon="8.2125089"><ele>465.0</ele><time>2026-05-03T11:16:20.977Z</time></trkpt><trkpt lat="44.335712" lon="8.2124858"><ele>465.25</ele><time>2026-05-03T11:16:21.978Z</time></trkpt><trkpt lat="44.3358459" lon="8.2124332"><ele>465.5</ele><time>2026-05-03T11:16:22.977Z</time></trkpt><trkpt lat="44.3359739" lon="8.2123454"><ele>465.75</ele><time>2026-05-03T11:16:23.978Z</time></trkpt><trkpt lat="44.3360876" lon="8.2122336"><ele>466.0</ele><time>2026-05-03T11:16:24.977Z</time></trkpt><trkpt lat="44.3361936" lon="8.2121151"><ele>464.25</ele><time>2026-05-03T11:16:25.977Z</time></trkpt><trkpt lat="44.3362819" lon="8.21199"><ele>462.5</ele><time>2026-05-03T11:16:26.978Z</time></trkpt><trkpt lat="44.3363741" lon="8.2118673"><ele>460.75</ele><time>2026-05-03T11:16:27.977Z</time></trkpt><trkpt lat="44.3364686" lon="8.2117413"><ele>459.0</ele><time>2026-05-03T11:16:28.977Z</time></trkpt><trkpt lat="44.3365471" lon="8.2116148"><ele>461.5</ele><time>2026-05-03T11:16:29.978Z</time></trkpt><trkpt lat="44.3366191" lon="8.2114777"><ele>464.0</ele><time>2026-05-03T11:16:30.977Z</time></trkpt><trkpt lat="44.3366756" lon="8.2113167"><ele>466.5</ele><time>2026-05-03T11:16:31.977Z</time></trkpt><trkpt lat="44.3367154" lon="8.2111515"><ele>469.0</ele><time>2026-05-03T11:16:32.977Z</time></trkpt><trkpt lat="44.3367502" lon="8.2109819"><ele>469.0</ele><time>2026-05-03T11:16:33.977Z</time></trkpt><trkpt lat="44.3367843" lon="8.2108154"><ele>469.0</ele><time>2026-05-03T11:16:34.977Z</time></trkpt><trkpt lat="44.3368144" lon="8.2106414"><ele>469.0</ele><time>2026-05-03T11:16:35.978Z</time></trkpt><trkpt lat="44.3368411" lon="8.2104612"><ele>469.0</ele><time>2026-05-03T11:16:36.977Z</time></trkpt><trkpt lat="44.3368652" lon="8.2102766"><ele>467.25</ele><time>2026-05-03T11:16:37.977Z</time></trkpt><trkpt lat="44.336895" lon="8.210087"><ele>465.5</ele><time>2026-05-03T11:16:38.978Z</time></trkpt><trkpt lat="44.3369269" lon="8.2098907"><ele>463.75</ele><time>2026-05-03T11:16:39.977Z</time></trkpt><trkpt lat="44.336964" lon="8.2096857"><ele>462.0</ele><time>2026-05-03T11:16:40.978Z</time></trkpt><trkpt lat="44.3370043" lon="8.2094851"><ele>461.5</ele><time>2026-05-03T11:16:41.977Z</time></trkpt><trkpt lat="44.3370437" lon="8.2092897"><ele>461.0</ele><time>2026-05-03T11:16:42.977Z</time></trkpt><trkpt lat="44.3370886" lon="8.2090943"><ele>460.5</ele><time>2026-05-03T11:16:43.977Z</time></trkpt><trkpt lat="44.3371361" lon="8.2088857"><ele>460.0</ele><time>2026-05-03T11:16:44.978Z</time></trkpt><trkpt lat="44.3371749" lon="8.2086707"><ele>460.0</ele><time>2026-05-03T11:16:45.978Z</time></trkpt><trkpt lat="44.3372162" lon="8.2084453"><ele>460.0</ele><time>2026-05-03T11:16:46.978Z</time></trkpt><trkpt lat="44.3372514" lon="8.2082134"><ele>460.0</ele><time>2026-05-03T11:16:47.977Z</time></trkpt><trkpt lat="44.3372912" lon="8.2079898"><ele>460.0</ele><time>2026-05-03T11:16:48.977Z</time></trkpt><trkpt lat="44.3373237" lon="8.2077693"><ele>460.0</ele><time>2026-05-03T11:16:49.978Z</time></trkpt><trkpt lat="44.3373548" lon="8.2075459"><ele>460.0</ele><time>2026-05-03T11:16:50.977Z</time></trkpt><trkpt lat="44.3373841" lon="8.2073366"><ele>460.0</ele><time>2026-05-03T11:16:51.977Z</time></trkpt><trkpt lat="44.3374047" lon="8.2071306"><ele>460.0</ele><time>2026-05-03T11:16:52.977Z</time></trkpt><trkpt lat="44.3374169" lon="8.2069234"><ele>460.0</ele><time>2026-05-03T11:16:53.978Z</time></trkpt><trkpt lat="44.3374289" lon="8.2067187"><ele>460.0</ele><time>2026-05-03T11:16:54.977Z</time></trkpt><trkpt lat="44.3374447" lon="8.2065194"><ele>459.75</ele><time>2026-05-03T11:16:55.977Z</time></trkpt><trkpt lat="44.3374613" lon="8.2063127"><ele>459.5</ele><time>2026-05-03T11:16:56.978Z</time></trkpt><trkpt lat="44.3374866" lon="8.2061092"><ele>459.25</ele><time>2026-05-03T11:16:57.977Z</time></trkpt><trkpt lat="44.3375302" lon="8.2059147"><ele>459.0</ele><time>2026-05-03T11:16:58.977Z</time></trkpt><trkpt lat="44.3375895" lon="8.205733"><ele>457.75</ele><time>2026-05-03T11:16:59.977Z</time></trkpt><trkpt lat="44.33767" lon="8.2055671"><ele>456.5</ele><time>2026-05-03T11:17:00.977Z</time></trkpt><trkpt lat="44.3377752" lon="8.205431"><ele>455.25</ele><time>2026-05-03T11:17:01.977Z</time></trkpt><trkpt lat="44.337894" lon="8.2053369"><ele>454.0</ele><time>2026-05-03T11:17:02.977Z</time></trkpt><trkpt lat="44.3380129" lon="8.2052522"><ele>455.5</ele><time>2026-05-03T11:17:03.977Z</time></trkpt><trkpt lat="44.3381314" lon="8.205163"><ele>457.0</ele><time>2026-05-03T11:17:04.978Z</time></trkpt><trkpt lat="44.3382464" lon="8.2050732"><ele>458.5</ele><time>2026-05-03T11:17:05.978Z</time></trkpt><trkpt lat="44.3383598" lon="8.2049772"><ele>460.0</ele><time>2026-05-03T11:17:06.978Z</time></trkpt><trkpt lat="44.3384727" lon="8.2048815"><ele>460.25</ele><time>2026-05-03T11:17:07.977Z</time></trkpt><trkpt lat="44.3385934" lon="8.2047922"><ele>460.5</ele><time>2026-05-03T11:17:08.977Z</time></trkpt><trkpt lat="44.3387081" lon="8.204694"><ele>460.75</ele><time>2026-05-03T11:17:09.977Z</time></trkpt><trkpt lat="44.3388274" lon="8.2045899"><ele>461.0</ele><time>2026-05-03T11:17:10.977Z</time></trkpt><trkpt lat="44.3389425" lon="8.2044864"><ele>461.0</ele><time>2026-05-03T11:17:11.977Z</time></trkpt><trkpt lat="44.339057" lon="8.2043835"><ele>461.0</ele><time>2026-05-03T11:17:12.977Z</time></trkpt><trkpt lat="44.3391731" lon="8.2042757"><ele>461.0</ele><time>2026-05-03T11:17:13.977Z</time></trkpt><trkpt lat="44.33929" lon="8.2041567"><ele>461.0</ele><time>2026-05-03T11:17:14.977Z</time></trkpt><trkpt lat="44.3393992" lon="8.2040368"><ele>461.5</ele><time>2026-05-03T11:17:15.978Z</time></trkpt><trkpt lat="44.3395149" lon="8.2039219"><ele>462.0</ele><time>2026-05-03T11:17:16.977Z</time></trkpt><trkpt lat="44.33963" lon="8.2038102"><ele>462.5</ele><time>2026-05-03T11:17:17.978Z</time></trkpt><trkpt lat="44.33974" lon="8.2036918"><ele>463.0</ele><time>2026-05-03T11:17:18.978Z</time></trkpt><trkpt lat="44.339843" lon="8.2035648"><ele>463.0</ele><time>2026-05-03T11:17:19.978Z</time></trkpt><trkpt lat="44.3399594" lon="8.2034276"><ele>463.0</ele><time>2026-05-03T11:17:20.977Z</time></trkpt><trkpt lat="44.3400756" lon="8.2032866"><ele>463.0</ele><time>2026-05-03T11:17:21.977Z</time></trkpt><trkpt lat="44.3401931" lon="8.2031419"><ele>460.6666666666667</ele><time>2026-05-03T11:17:22.978Z</time></trkpt><trkpt lat="44.3403193" lon="8.2029985"><ele>458.33333333333337</ele><time>2026-05-03T11:17:23.977Z</time></trkpt><trkpt lat="44.3404493" lon="8.2028619"><ele>456.0</ele><time>2026-05-03T11:17:24.977Z</time></trkpt><trkpt lat="44.3405835" lon="8.2027614"><ele>456.0</ele><time>2026-05-03T11:17:25.977Z</time></trkpt><trkpt lat="44.3407258" lon="8.2026845"><ele>456.0</ele><time>2026-05-03T11:17:26.977Z</time></trkpt><trkpt lat="44.3408747" lon="8.2026172"><ele>456.0</ele><time>2026-05-03T11:17:27.978Z</time></trkpt><trkpt lat="44.3410118" lon="8.2025715"><ele>456.0</ele><time>2026-05-03T11:17:28.977Z</time></trkpt><trkpt lat="44.3411426" lon="8.202522"><ele>456.0</ele><time>2026-05-03T11:17:29.978Z</time></trkpt><trkpt lat="44.3412594" lon="8.2024585"><ele>456.0</ele><time>2026-05-03T11:17:30.977Z</time></trkpt><trkpt lat="44.3413608" lon="8.202381"><ele>456.0</ele><time>2026-05-03T11:17:31.977Z</time></trkpt><trkpt lat="44.3414552" lon="8.2022691"><ele>455.0</ele><time>2026-05-03T11:17:32.977Z</time></trkpt><trkpt lat="44.3415417" lon="8.2021443"><ele>454.0</ele><time>2026-05-03T11:17:33.977Z</time></trkpt><trkpt lat="44.3416196" lon="8.2020327"><ele>453.0</ele><time>2026-05-03T11:17:34.977Z</time></trkpt><trkpt lat="44.3416913" lon="8.2019271"><ele>452.0</ele><time>2026-05-03T11:17:35.977Z</time></trkpt><trkpt lat="44.3417632" lon="8.2018209"><ele>451.0</ele><time>2026-05-03T11:17:36.978Z</time></trkpt><trkpt lat="44.3418349" lon="8.2017207"><ele>451.0</ele><time>2026-05-03T11:17:37.977Z</time></trkpt><trkpt lat="44.3419175" lon="8.2016446"><ele>451.0</ele><time>2026-05-03T11:17:38.977Z</time></trkpt><trkpt lat="44.3420194" lon="8.2016196"><ele>451.0</ele><time>2026-05-03T11:17:39.977Z</time></trkpt><trkpt lat="44.3421315" lon="8.2016515"><ele>451.0</ele><time>2026-05-03T11:17:40.978Z</time></trkpt><trkpt lat="44.3422357" lon="8.2017196"><ele>451.0</ele><time>2026-05-03T11:17:41.977Z</time></trkpt><trkpt lat="44.3423321" lon="8.2017904"><ele>455.75</ele><time>2026-05-03T11:17:42.978Z</time></trkpt><trkpt lat="44.3424284" lon="8.2018592"><ele>460.5</ele><time>2026-05-03T11:17:43.977Z</time></trkpt><trkpt lat="44.3425253" lon="8.2019366"><ele>465.25</ele><time>2026-05-03T11:17:44.977Z</time></trkpt><trkpt lat="44.3426271" lon="8.2020303"><ele>470.0</ele><time>2026-05-03T11:17:45.977Z</time></trkpt><trkpt lat="44.3427238" lon="8.2021423"><ele>470.0</ele><time>2026-05-03T11:17:46.978Z</time></trkpt><trkpt lat="44.342806" lon="8.202277"><ele>470.0</ele><time>2026-05-03T11:17:47.977Z</time></trkpt><trkpt lat="44.342888" lon="8.2024275"><ele>470.0</ele><time>2026-05-03T11:17:48.978Z</time></trkpt><trkpt lat="44.3429398" lon="8.2026147"><ele>470.0</ele><time>2026-05-03T11:17:49.977Z</time></trkpt><trkpt lat="44.3429713" lon="8.2028105"><ele>466.25</ele><time>2026-05-03T11:17:50.978Z</time></trkpt><trkpt lat="44.3429719" lon="8.2030174"><ele>462.5</ele><time>2026-05-03T11:17:51.978Z</time></trkpt><trkpt lat="44.3429607" lon="8.2032115"><ele>458.75</ele><time>2026-05-03T11:17:52.977Z</time></trkpt><trkpt lat="44.3429545" lon="8.2033963"><ele>455.0</ele><time>2026-05-03T11:17:53.977Z</time></trkpt><trkpt lat="44.3429753" lon="8.2035826"><ele>454.0</ele><time>2026-05-03T11:17:54.977Z</time></trkpt><trkpt lat="44.3430221" lon="8.2037589"><ele>453.0</ele><time>2026-05-03T11:17:55.977Z</time></trkpt><trkpt lat="44.3430938" lon="8.2039153"><ele>452.0</ele><time>2026-05-03T11:17:56.978Z</time></trkpt><trkpt lat="44.3431862" lon="8.2040523"><ele>451.0</ele><time>2026-05-03T11:17:57.978Z</time></trkpt><trkpt lat="44.3432879" lon="8.2041822"><ele>454.25</ele><time>2026-05-03T11:17:58.978Z</time></trkpt><trkpt lat="44.3433866" lon="8.2043114"><ele>457.5</ele><time>2026-05-03T11:17:59.977Z</time></trkpt><trkpt lat="44.343486" lon="8.2044358"><ele>460.75</ele><time>2026-05-03T11:18:00.977Z</time></trkpt><trkpt lat="44.3435907" lon="8.2045459"><ele>464.0</ele><time>2026-05-03T11:18:01.977Z</time></trkpt><trkpt lat="44.3436969" lon="8.2046454"><ele>464.0</ele><time>2026-05-03T11:18:02.977Z</time></trkpt><trkpt lat="44.3438168" lon="8.2047234"><ele>464.0</ele><time>2026-05-03T11:18:03.977Z</time></trkpt><trkpt lat="44.3439407" lon="8.2047982"><ele>464.0</ele><time>2026-05-03T11:18:04.977Z</time></trkpt><trkpt lat="44.3440671" lon="8.2048807"><ele>464.0</ele><time>2026-05-03T11:18:05.977Z</time></trkpt><trkpt lat="44.3441801" lon="8.2049736"><ele>463.5</ele><time>2026-05-03T11:18:06.978Z</time></trkpt><trkpt lat="44.3442953" lon="8.2050839"><ele>463.0</ele><time>2026-05-03T11:18:07.977Z</time></trkpt><trkpt lat="44.3444134" lon="8.2052047"><ele>462.5</ele><time>2026-05-03T11:18:08.977Z</time></trkpt><trkpt lat="44.3445382" lon="8.2053281"><ele>462.0</ele><time>2026-05-03T11:18:09.977Z</time></trkpt><trkpt lat="44.3446657" lon="8.2054461"><ele>459.5</ele><time>2026-05-03T11:18:10.978Z</time></trkpt><trkpt lat="44.3447953" lon="8.2055545"><ele>457.0</ele><time>2026-05-03T11:18:11.977Z</time></trkpt><trkpt lat="44.3449261" lon="8.2056479"><ele>454.5</ele><time>2026-05-03T11:18:12.978Z</time></trkpt><trkpt lat="44.3450569" lon="8.2057254"><ele>452.0</ele><time>2026-05-03T11:18:13.977Z</time></trkpt><trkpt lat="44.345189" lon="8.2057861"><ele>452.0</ele><time>2026-05-03T11:18:14.978Z</time></trkpt><trkpt lat="44.3453245" lon="8.2058353"><ele>452.0</ele><time>2026-05-03T11:18:15.978Z</time></trkpt><trkpt lat="44.3454562" lon="8.2058798"><ele>452.0</ele><time>2026-05-03T11:18:16.977Z</time></trkpt><trkpt lat="44.3455861" lon="8.2059285"><ele>452.0</ele><time>2026-05-03T11:18:17.978Z</time></trkpt><trkpt lat="44.345706" lon="8.205998"><ele>453.5</ele><time>2026-05-03T11:18:18.977Z</time></trkpt><trkpt lat="44.3458141" lon="8.2060944"><ele>455.0</ele><time>2026-05-03T11:18:19.977Z</time></trkpt><trkpt lat="44.3459106" lon="8.2062214"><ele>456.5</ele><time>2026-05-03T11:18:20.978Z</time></trkpt><trkpt lat="44.3459813" lon="8.2063855"><ele>458.0</ele><time>2026-05-03T11:18:21.978Z</time></trkpt><trkpt lat="44.3460267" lon="8.2065717"><ele>458.0</ele><time>2026-05-03T11:18:22.977Z</time></trkpt><trkpt lat="44.3460513" lon="8.2067716"><ele>458.0</ele><time>2026-05-03T11:18:23.978Z</time></trkpt><trkpt lat="44.3460669" lon="8.2069745"><ele>458.0</ele><time>2026-05-03T11:18:24.978Z</time></trkpt><trkpt lat="44.346077" lon="8.2071718"><ele>458.0</ele><time>2026-05-03T11:18:25.978Z</time></trkpt><trkpt lat="44.3460902" lon="8.2073702"><ele>456.0</ele><time>2026-05-03T11:18:26.978Z</time></trkpt><trkpt lat="44.3461017" lon="8.2075615"><ele>454.0</ele><time>2026-05-03T11:18:27.977Z</time></trkpt><trkpt lat="44.3461202" lon="8.2077477"><ele>452.0</ele><time>2026-05-03T11:18:28.977Z</time></trkpt><trkpt lat="44.3461363" lon="8.2079323"><ele>450.0</ele><time>2026-05-03T11:18:29.977Z</time></trkpt><trkpt lat="44.3461538" lon="8.2081151"><ele>449.5</ele><time>2026-05-03T11:18:30.977Z</time></trkpt><trkpt lat="44.3461677" lon="8.2083022"><ele>449.0</ele><time>2026-05-03T11:18:31.978Z</time></trkpt><trkpt lat="44.3461743" lon="8.2084927"><ele>448.5</ele><time>2026-05-03T11:18:32.978Z</time></trkpt><trkpt lat="44.3461766" lon="8.2086792"><ele>448.0</ele><time>2026-05-03T11:18:33.978Z</time></trkpt><trkpt lat="44.3461836" lon="8.2088644"><ele>448.0</ele><time>2026-05-03T11:18:34.978Z</time></trkpt><trkpt lat="44.3461892" lon="8.2090476"><ele>448.0</ele><time>2026-05-03T11:18:35.978Z</time></trkpt><trkpt lat="44.3462132" lon="8.2092269"><ele>448.0</ele><time>2026-05-03T11:18:36.978Z</time></trkpt><trkpt lat="44.3462607" lon="8.2093968"><ele>448.0</ele><time>2026-05-03T11:18:37.978Z</time></trkpt><trkpt lat="44.3463289" lon="8.209556"><ele>448.25</ele><time>2026-05-03T11:18:38.977Z</time></trkpt><trkpt lat="44.3464097" lon="8.209712"><ele>448.5</ele><time>2026-05-03T11:18:39.978Z</time></trkpt><trkpt lat="44.3465056" lon="8.2098605"><ele>448.75</ele><time>2026-05-03T11:18:40.977Z</time></trkpt><trkpt lat="44.3466053" lon="8.209996"><ele>449.0</ele><time>2026-05-03T11:18:41.978Z</time></trkpt><trkpt lat="44.3466986" lon="8.2101156"><ele>449.0</ele><time>2026-05-03T11:18:42.978Z</time></trkpt><trkpt lat="44.3467984" lon="8.210178"><ele>449.0</ele><time>2026-05-03T11:18:43.978Z</time></trkpt><trkpt lat="44.346911" lon="8.2101881"><ele>449.0</ele><time>2026-05-03T11:18:44.977Z</time></trkpt><trkpt lat="44.3470303" lon="8.210162"><ele>449.0</ele><time>2026-05-03T11:18:45.977Z</time></trkpt><trkpt lat="44.3471404" lon="8.210101"><ele>448.75</ele><time>2026-05-03T11:18:46.977Z</time></trkpt><trkpt lat="44.3472436" lon="8.2100142"><ele>448.5</ele><time>2026-05-03T11:18:47.977Z</time></trkpt><trkpt lat="44.347339" lon="8.2099165"><ele>448.25</ele><time>2026-05-03T11:18:48.977Z</time></trkpt><trkpt lat="44.3474383" lon="8.2098203"><ele>448.0</ele><time>2026-05-03T11:18:49.977Z</time></trkpt><trkpt lat="44.3475417" lon="8.2097272"><ele>452.0</ele><time>2026-05-03T11:18:50.977Z</time></trkpt><trkpt lat="44.347653" lon="8.2096371"><ele>456.0</ele><time>2026-05-03T11:18:51.978Z</time></trkpt><trkpt lat="44.3477696" lon="8.2095506"><ele>460.0</ele><time>2026-05-03T11:18:52.977Z</time></trkpt><trkpt lat="44.3478814" lon="8.2094521"><ele>464.0</ele><time>2026-05-03T11:18:53.978Z</time></trkpt><trkpt lat="44.3479992" lon="8.2093397"><ele>461.25</ele><time>2026-05-03T11:18:54.978Z</time></trkpt><trkpt lat="44.3481154" lon="8.2092139"><ele>458.5</ele><time>2026-05-03T11:18:55.977Z</time></trkpt><trkpt lat="44.3482371" lon="8.2091003"><ele>455.75</ele><time>2026-05-03T11:18:56.977Z</time></trkpt><trkpt lat="44.3483592" lon="8.2089886"><ele>453.0</ele><time>2026-05-03T11:18:57.977Z</time></trkpt><trkpt lat="44.3484951" lon="8.2088998"><ele>458.33333333333337</ele><time>2026-05-03T11:18:58.977Z</time></trkpt><trkpt lat="44.3486358" lon="8.2088219"><ele>463.6666666666667</ele><time>2026-05-03T11:18:59.978Z</time></trkpt><trkpt lat="44.3487902" lon="8.2087729"><ele>469.0</ele><time>2026-05-03T11:19:00.978Z</time></trkpt><trkpt lat="44.3489523" lon="8.2087679"><ele>469.0</ele><time>2026-05-03T11:19:01.978Z</time></trkpt><trkpt lat="44.3491228" lon="8.2088077"><ele>469.0</ele><time>2026-05-03T11:19:02.977Z</time></trkpt><trkpt lat="44.3492971" lon="8.208849"><ele>469.0</ele><time>2026-05-03T11:19:03.977Z</time></trkpt><trkpt lat="44.3494671" lon="8.208843"><ele>469.0</ele><time>2026-05-03T11:19:04.978Z</time></trkpt><trkpt lat="44.3496307" lon="8.2087796"><ele>469.0</ele><time>2026-05-03T11:19:05.977Z</time></trkpt><trkpt lat="44.3497713" lon="8.2086935"><ele>469.0</ele><time>2026-05-03T11:19:06.977Z</time></trkpt><trkpt lat="44.3499003" lon="8.2086039"><ele>467.75</ele><time>2026-05-03T11:19:07.978Z</time></trkpt><trkpt lat="44.3500348" lon="8.2085174"><ele>466.5</ele><time>2026-05-03T11:19:08.978Z</time></trkpt><trkpt lat="44.3501656" lon="8.208444"><ele>465.25</ele><time>2026-05-03T11:19:09.978Z</time></trkpt><trkpt lat="44.3502923" lon="8.2083715"><ele>464.0</ele><time>2026-05-03T11:19:10.977Z</time></trkpt><trkpt lat="44.3504247" lon="8.2082952"><ele>467.0</ele><time>2026-05-03T11:19:11.977Z</time></trkpt><trkpt lat="44.3505554" lon="8.2082216"><ele>470.0</ele><time>2026-05-03T11:19:12.977Z</time></trkpt><trkpt lat="44.350682" lon="8.2081468"><ele>473.0</ele><time>2026-05-03T11:19:13.977Z</time></trkpt><trkpt lat="44.3508073" lon="8.2080734"><ele>476.0</ele><time>2026-05-03T11:19:14.977Z</time></trkpt><trkpt lat="44.3509393" lon="8.2080077"><ele>476.0</ele><time>2026-05-03T11:19:15.977Z</time></trkpt><trkpt lat="44.3510723" lon="8.2079478"><ele>476.0</ele><time>2026-05-03T11:19:16.978Z</time></trkpt><trkpt lat="44.3512062" lon="8.2078844"><ele>476.0</ele><time>2026-05-03T11:19:17.977Z</time></trkpt><trkpt lat="44.3513311" lon="8.207812"><ele>476.0</ele><time>2026-05-03T11:19:18.978Z</time></trkpt><trkpt lat="44.3514465" lon="8.2077254"><ele>471.5</ele><time>2026-05-03T11:19:19.978Z</time></trkpt><trkpt lat="44.3515492" lon="8.2076156"><ele>467.0</ele><time>2026-05-03T11:19:20.977Z</time></trkpt><trkpt lat="44.3516338" lon="8.2074653"><ele>462.5</ele><time>2026-05-03T11:19:21.977Z</time></trkpt><trkpt lat="44.3516973" lon="8.207288"><ele>458.0</ele><time>2026-05-03T11:19:22.977Z</time></trkpt><trkpt lat="44.3517522" lon="8.2071014"><ele>458.0</ele><time>2026-05-03T11:19:23.977Z</time></trkpt><trkpt lat="44.351806" lon="8.2069098"><ele>458.0</ele><time>2026-05-03T11:19:24.978Z</time></trkpt><trkpt lat="44.3518702" lon="8.2067322"><ele>458.0</ele><time>2026-05-03T11:19:25.978Z</time></trkpt><trkpt lat="44.351959" lon="8.2065719"><ele>458.0</ele><time>2026-05-03T11:19:26.977Z</time></trkpt><trkpt lat="44.352069" lon="8.2064294"><ele>457.66666666666663</ele><time>2026-05-03T11:19:27.977Z</time></trkpt><trkpt lat="44.3521872" lon="8.206296"><ele>457.33333333333337</ele><time>2026-05-03T11:19:28.977Z</time></trkpt><trkpt lat="44.3523166" lon="8.2061859"><ele>457.0</ele><time>2026-05-03T11:19:29.977Z</time></trkpt><trkpt lat="44.3524482" lon="8.2060857"><ele>457.0</ele><time>2026-05-03T11:19:30.977Z</time></trkpt><trkpt lat="44.3525787" lon="8.2059908"><ele>457.0</ele><time>2026-05-03T11:19:31.977Z</time></trkpt><trkpt lat="44.352711" lon="8.2058918"><ele>457.0</ele><time>2026-05-03T11:19:32.977Z</time></trkpt><trkpt lat="44.3528366" lon="8.2057905"><ele>457.0</ele><time>2026-05-03T11:19:33.976Z</time></trkpt><trkpt lat="44.3529581" lon="8.205684"><ele>456.5</ele><time>2026-05-03T11:19:34.976Z</time></trkpt><trkpt lat="44.3530858" lon="8.2055716"><ele>456.0</ele><time>2026-05-03T11:19:35.976Z</time></trkpt><trkpt lat="44.3532108" lon="8.2054718"><ele>455.5</ele><time>2026-05-03T11:19:36.977Z</time></trkpt><trkpt lat="44.3533338" lon="8.2053871"><ele>455.0</ele><time>2026-05-03T11:19:37.977Z</time></trkpt><trkpt lat="44.3534711" lon="8.2053099"><ele>455.0</ele><time>2026-05-03T11:19:38.977Z</time></trkpt><trkpt lat="44.3536088" lon="8.2052588"><ele>455.0</ele><time>2026-05-03T11:19:39.977Z</time></trkpt><trkpt lat="44.3537418" lon="8.2052387"><ele>455.0</ele><time>2026-05-03T11:19:40.976Z</time></trkpt><trkpt lat="44.3538808" lon="8.2052223"><ele>455.0</ele><time>2026-05-03T11:19:41.977Z</time></trkpt><trkpt lat="44.3540194" lon="8.2052186"><ele>451.25</ele><time>2026-05-03T11:19:42.976Z</time></trkpt><trkpt lat="44.3541441" lon="8.2052517"><ele>447.5</ele><time>2026-05-03T11:19:43.977Z</time></trkpt><trkpt lat="44.3542491" lon="8.2053389"><ele>443.75</ele><time>2026-05-03T11:19:44.976Z</time></trkpt><trkpt lat="44.354336" lon="8.2054623"><ele>440.0</ele><time>2026-05-03T11:19:45.977Z</time></trkpt><trkpt lat="44.3544024" lon="8.2056082"><ele>439.2</ele><time>2026-05-03T11:19:46.976Z</time></trkpt><trkpt lat="44.3544591" lon="8.2057603"><ele>438.4</ele><time>2026-05-03T11:19:47.977Z</time></trkpt><trkpt lat="44.3545107" lon="8.205905"><ele>437.6</ele><time>2026-05-03T11:19:48.977Z</time></trkpt><trkpt lat="44.3545609" lon="8.206037"><ele>436.8</ele><time>2026-05-03T11:19:49.976Z</time></trkpt><trkpt lat="44.354611" lon="8.2061517"><ele>436.0</ele><time>2026-05-03T11:19:50.977Z</time></trkpt><trkpt lat="44.3546664" lon="8.2062593"><ele>438.20000000000005</ele><time>2026-05-03T11:19:51.977Z</time></trkpt><trkpt lat="44.3547268" lon="8.2063626"><ele>440.40000000000003</ele><time>2026-05-03T11:19:52.976Z</time></trkpt><trkpt lat="44.3547982" lon="8.2064388"><ele>442.6</ele><time>2026-05-03T11:19:53.976Z</time></trkpt><trkpt lat="44.3548835" lon="8.2064862"><ele>444.8</ele><time>2026-05-03T11:19:54.977Z</time></trkpt><trkpt lat="44.3549808" lon="8.2065056"><ele>447.0</ele><time>2026-05-03T11:19:55.976Z</time></trkpt><trkpt lat="44.3550844" lon="8.2065148"><ele>447.40000000000003</ele><time>2026-05-03T11:19:56.976Z</time></trkpt><trkpt lat="44.3551866" lon="8.2065127"><ele>447.80000000000007</ele><time>2026-05-03T11:19:57.977Z</time></trkpt><trkpt lat="44.355283" lon="8.2065155"><ele>448.2</ele><time>2026-05-03T11:19:58.976Z</time></trkpt><trkpt lat="44.355381" lon="8.2065237"><ele>448.6</ele><time>2026-05-03T11:19:59.976Z</time></trkpt><trkpt lat="44.3554805" lon="8.2065477"><ele>449.0</ele><time>2026-05-03T11:20:00.976Z</time></trkpt><trkpt lat="44.35558" lon="8.2065734"><ele>447.2</ele><time>2026-05-03T11:20:01.977Z</time></trkpt><trkpt lat="44.3556781" lon="8.2066055"><ele>445.4</ele><time>2026-05-03T11:20:02.976Z</time></trkpt><trkpt lat="44.3557708" lon="8.2066384"><ele>443.6</ele><time>2026-05-03T11:20:03.977Z</time></trkpt><trkpt lat="44.3558575" lon="8.2066706"><ele>441.8</ele><time>2026-05-03T11:20:04.976Z</time></trkpt><trkpt lat="44.3559424" lon="8.2066991"><ele>440.0</ele><time>2026-05-03T11:20:05.977Z</time></trkpt><trkpt lat="44.3560299" lon="8.2067333"><ele>440.0</ele><time>2026-05-03T11:20:06.976Z</time></trkpt><trkpt lat="44.3561236" lon="8.2067704"><ele>440.0</ele><time>2026-05-03T11:20:07.976Z</time></trkpt><trkpt lat="44.3562157" lon="8.2068029"><ele>440.0</ele><time>2026-05-03T11:20:08.977Z</time></trkpt><trkpt lat="44.3563192" lon="8.2068391"><ele>440.0</ele><time>2026-05-03T11:20:09.976Z</time></trkpt><trkpt lat="44.3564225" lon="8.2068713"><ele>440.0</ele><time>2026-05-03T11:20:10.977Z</time></trkpt><trkpt lat="44.356526" lon="8.206908"><ele>439.4</ele><time>2026-05-03T11:20:11.976Z</time></trkpt><trkpt lat="44.3566318" lon="8.2069462"><ele>438.8</ele><time>2026-05-03T11:20:12.977Z</time></trkpt><trkpt lat="44.3567369" lon="8.2069786"><ele>438.20000000000005</ele><time>2026-05-03T11:20:13.977Z</time></trkpt><trkpt lat="44.3568358" lon="8.2070189"><ele>437.6</ele><time>2026-05-03T11:20:14.976Z</time></trkpt><trkpt lat="44.356935" lon="8.2070486"><ele>437.0</ele><time>2026-05-03T11:20:15.976Z</time></trkpt><trkpt lat="44.3570331" lon="8.2070749"><ele>437.0</ele><time>2026-05-03T11:20:16.976Z</time></trkpt><trkpt lat="44.3571243" lon="8.2071061"><ele>437.00000000000006</ele><time>2026-05-03T11:20:17.977Z</time></trkpt><trkpt lat="44.3572155" lon="8.2071411"><ele>437.00000000000006</ele><time>2026-05-03T11:20:18.977Z</time></trkpt><trkpt lat="44.3573057" lon="8.2071721"><ele>437.0</ele><time>2026-05-03T11:20:19.976Z</time></trkpt><trkpt lat="44.357401" lon="8.207216"><ele>437.0</ele><time>2026-05-03T11:20:20.976Z</time></trkpt><trkpt lat="44.3574965" lon="8.2072573"><ele>436.6</ele><time>2026-05-03T11:20:21.976Z</time></trkpt><trkpt lat="44.3575951" lon="8.2072943"><ele>436.20000000000005</ele><time>2026-05-03T11:20:22.976Z</time></trkpt><trkpt lat="44.3576957" lon="8.2073377"><ele>435.8</ele><time>2026-05-03T11:20:23.976Z</time></trkpt><trkpt lat="44.3578016" lon="8.2073812"><ele>435.4</ele><time>2026-05-03T11:20:24.976Z</time></trkpt><trkpt lat="44.357911" lon="8.2074437"><ele>435.0</ele><time>2026-05-03T11:20:25.976Z</time></trkpt><trkpt lat="44.3580141" lon="8.2075038"><ele>435.4</ele><time>2026-05-03T11:20:26.976Z</time></trkpt><trkpt lat="44.3581133" lon="8.2075601"><ele>435.8</ele><time>2026-05-03T11:20:27.976Z</time></trkpt><trkpt lat="44.3582117" lon="8.2076155"><ele>436.20000000000005</ele><time>2026-05-03T11:20:28.977Z</time></trkpt><trkpt lat="44.3583175" lon="8.2076722"><ele>436.6</ele><time>2026-05-03T11:20:29.977Z</time></trkpt><trkpt lat="44.3584206" lon="8.207722"><ele>437.0</ele><time>2026-05-03T11:20:30.976Z</time></trkpt><trkpt lat="44.3585221" lon="8.2077819"><ele>437.0</ele><time>2026-05-03T11:20:31.977Z</time></trkpt><trkpt lat="44.3586185" lon="8.207851"><ele>437.0</ele><time>2026-05-03T11:20:32.977Z</time></trkpt><trkpt lat="44.3587155" lon="8.2079313"><ele>437.0</ele><time>2026-05-03T11:20:33.976Z</time></trkpt><trkpt lat="44.3588078" lon="8.2080233"><ele>437.0</ele><time>2026-05-03T11:20:34.976Z</time></trkpt><trkpt lat="44.3588949" lon="8.2081338"><ele>438.75</ele><time>2026-05-03T11:20:35.976Z</time></trkpt><trkpt lat="44.3589825" lon="8.2082541"><ele>440.5</ele><time>2026-05-03T11:20:36.976Z</time></trkpt><trkpt lat="44.3590692" lon="8.2083768"><ele>442.25</ele><time>2026-05-03T11:20:37.976Z</time></trkpt><trkpt lat="44.3591629" lon="8.2085164"><ele>444.0</ele><time>2026-05-03T11:20:38.977Z</time></trkpt><trkpt lat="44.3592552" lon="8.2086533"><ele>444.0</ele><time>2026-05-03T11:20:39.977Z</time></trkpt><trkpt lat="44.3593374" lon="8.2087988"><ele>444.0</ele><time>2026-05-03T11:20:40.976Z</time></trkpt><trkpt lat="44.359414" lon="8.2089295"><ele>444.0</ele><time>2026-05-03T11:20:41.977Z</time></trkpt><trkpt lat="44.3594939" lon="8.2090353"><ele>444.0</ele><time>2026-05-03T11:20:42.976Z</time></trkpt><trkpt lat="44.3595798" lon="8.2091294"><ele>441.79999999999995</ele><time>2026-05-03T11:20:43.976Z</time></trkpt><trkpt lat="44.3596673" lon="8.2092162"><ele>439.59999999999997</ele><time>2026-05-03T11:20:44.977Z</time></trkpt><trkpt lat="44.3597502" lon="8.2092789"><ele>437.4</ele><time>2026-05-03T11:20:45.977Z</time></trkpt><trkpt lat="44.3598127" lon="8.2093481"><ele>435.2</ele><time>2026-05-03T11:20:46.977Z</time></trkpt><trkpt lat="44.3598773" lon="8.2094209"><ele>433.0</ele><time>2026-05-03T11:20:47.976Z</time></trkpt><trkpt lat="44.3599454" lon="8.2094939"><ele>433.0</ele><time>2026-05-03T11:20:48.977Z</time></trkpt><trkpt lat="44.3600174" lon="8.2095666"><ele>432.99999999999994</ele><time>2026-05-03T11:20:49.977Z</time></trkpt><trkpt lat="44.3600955" lon="8.2096386"><ele>432.99999999999994</ele><time>2026-05-03T11:20:50.977Z</time></trkpt><trkpt lat="44.3601714" lon="8.2097137"><ele>433.0</ele><time>2026-05-03T11:20:51.976Z</time></trkpt><trkpt lat="44.3602454" lon="8.2097881"><ele>433.0</ele><time>2026-05-03T11:20:52.977Z</time></trkpt><trkpt lat="44.3603186" lon="8.2098575"><ele>433.83333333333337</ele><time>2026-05-03T11:20:53.977Z</time></trkpt><trkpt lat="44.3603879" lon="8.2099224"><ele>434.6666666666667</ele><time>2026-05-03T11:20:54.976Z</time></trkpt><trkpt lat="44.3604574" lon="8.2099767"><ele>435.5</ele><time>2026-05-03T11:20:55.977Z</time></trkpt><trkpt lat="44.3605243" lon="8.2100129"><ele>436.33333333333337</ele><time>2026-05-03T11:20:56.977Z</time></trkpt><trkpt lat="44.3605828" lon="8.2100476"><ele>437.1666666666667</ele><time>2026-05-03T11:20:57.977Z</time></trkpt><trkpt lat="44.3606823" lon="8.2100827"><ele>438.0</ele><time>2026-05-03T11:20:59.976Z</time></trkpt><trkpt lat="44.3607453" lon="8.2100983"><ele>438.0</ele><time>2026-05-03T11:21:01.976Z</time></trkpt><trkpt lat="44.3608248" lon="8.2101694"><ele>438.0</ele><time>2026-05-03T11:21:05.976Z</time></trkpt><trkpt lat="44.3608677" lon="8.2103079"><ele>438.0</ele><time>2026-05-03T11:21:07.976Z</time></trkpt><trkpt lat="44.3608807" lon="8.2103988"><ele>438.0</ele><time>2026-05-03T11:21:08.976Z</time></trkpt><trkpt lat="44.3608834" lon="8.2105052"><ele>438.0</ele><time>2026-05-03T11:21:09.976Z</time></trkpt><trkpt lat="44.3608855" lon="8.2106267"><ele>438.0</ele><time>2026-05-03T11:21:10.977Z</time></trkpt><trkpt lat="44.3608862" lon="8.2107443"><ele>438.8333333333333</ele><time>2026-05-03T11:21:11.977Z</time></trkpt><trkpt lat="44.3608857" lon="8.2108554"><ele>439.66666666666663</ele><time>2026-05-03T11:21:12.977Z</time></trkpt><trkpt lat="44.3608823" lon="8.2109552"><ele>440.5</ele><time>2026-05-03T11:21:13.976Z</time></trkpt><trkpt lat="44.3608683" lon="8.2110916"><ele>441.3333333333333</ele><time>2026-05-03T11:21:15.977Z</time></trkpt><trkpt lat="44.3608383" lon="8.2111831"><ele>442.16666666666663</ele><time>2026-05-03T11:21:17.976Z</time></trkpt><trkpt lat="44.3608093" lon="8.2112647"><ele>443.0</ele><time>2026-05-03T11:21:19.977Z</time></trkpt><trkpt lat="44.3607655" lon="8.2113421"><ele>442.99999999999994</ele><time>2026-05-03T11:21:21.976Z</time></trkpt><trkpt lat="44.36072" lon="8.2114241"><ele>443.0</ele><time>2026-05-03T11:21:23.976Z</time></trkpt><trkpt lat="44.360693" lon="8.211535"><ele>443.0</ele><time>2026-05-03T11:21:25.977Z</time></trkpt><trkpt lat="44.3607102" lon="8.2116865"><ele>443.0</ele><time>2026-05-03T11:21:27.977Z</time></trkpt><trkpt lat="44.3607163" lon="8.211789"><ele>442.99999999999994</ele><time>2026-05-03T11:21:28.976Z</time></trkpt><trkpt lat="44.3607108" lon="8.2119023"><ele>443.0</ele><time>2026-05-03T11:21:29.976Z</time></trkpt><trkpt lat="44.3607005" lon="8.2120232"><ele>443.59999999999997</ele><time>2026-05-03T11:21:30.976Z</time></trkpt><trkpt lat="44.3606872" lon="8.2121532"><ele>444.19999999999993</ele><time>2026-05-03T11:21:31.976Z</time></trkpt><trkpt lat="44.3606766" lon="8.2122993"><ele>444.8</ele><time>2026-05-03T11:21:32.977Z</time></trkpt><trkpt lat="44.3606688" lon="8.2124651"><ele>445.4</ele><time>2026-05-03T11:21:33.976Z</time></trkpt><trkpt lat="44.3606585" lon="8.21264"><ele>446.0</ele><time>2026-05-03T11:21:34.976Z</time></trkpt><trkpt lat="44.3606409" lon="8.2128202"><ele>446.0</ele><time>2026-05-03T11:21:35.976Z</time></trkpt><trkpt lat="44.3606149" lon="8.2130035"><ele>446.0</ele><time>2026-05-03T11:21:36.976Z</time></trkpt><trkpt lat="44.360575" lon="8.2131951"><ele>446.0</ele><time>2026-05-03T11:21:37.976Z</time></trkpt><trkpt lat="44.3605201" lon="8.2133908"><ele>446.0</ele><time>2026-05-03T11:21:38.977Z</time></trkpt><trkpt lat="44.3604464" lon="8.2135868"><ele>447.66666666666663</ele><time>2026-05-03T11:21:39.977Z</time></trkpt><trkpt lat="44.3603541" lon="8.2137811"><ele>449.33333333333337</ele><time>2026-05-03T11:21:40.976Z</time></trkpt><trkpt lat="44.3602479" lon="8.2139661"><ele>451.0</ele><time>2026-05-03T11:21:41.977Z</time></trkpt><trkpt lat="44.3601298" lon="8.2141252"><ele>451.0</ele><time>2026-05-03T11:21:42.976Z</time></trkpt><trkpt lat="44.3599945" lon="8.2142643"><ele>451.0</ele><time>2026-05-03T11:21:43.976Z</time></trkpt><trkpt lat="44.3598588" lon="8.2143877"><ele>451.0</ele><time>2026-05-03T11:21:44.976Z</time></trkpt><trkpt lat="44.3597276" lon="8.2144961"><ele>453.0</ele><time>2026-05-03T11:21:45.977Z</time></trkpt><trkpt lat="44.3596058" lon="8.2145929"><ele>455.0</ele><time>2026-05-03T11:21:46.976Z</time></trkpt><trkpt lat="44.3594997" lon="8.2146813"><ele>457.0</ele><time>2026-05-03T11:21:47.976Z</time></trkpt><trkpt lat="44.3594039" lon="8.214772"><ele>459.0</ele><time>2026-05-03T11:21:48.977Z</time></trkpt><trkpt lat="44.3593108" lon="8.2148561"><ele>459.0</ele><time>2026-05-03T11:21:49.976Z</time></trkpt><trkpt lat="44.3592162" lon="8.2149413"><ele>459.0</ele><time>2026-05-03T11:21:50.976Z</time></trkpt><trkpt lat="44.3591298" lon="8.2150385"><ele>459.0</ele><time>2026-05-03T11:21:51.976Z</time></trkpt><trkpt lat="44.3590383" lon="8.2151402"><ele>459.0</ele><time>2026-05-03T11:21:52.976Z</time></trkpt><trkpt lat="44.3589617" lon="8.2152473"><ele>459.0</ele><time>2026-05-03T11:21:53.976Z</time></trkpt><trkpt lat="44.3588969" lon="8.2153729"><ele>460.75</ele><time>2026-05-03T11:21:54.977Z</time></trkpt><trkpt lat="44.3588526" lon="8.2155149"><ele>462.5</ele><time>2026-05-03T11:21:55.977Z</time></trkpt><trkpt lat="44.3588544" lon="8.215671"><ele>464.25</ele><time>2026-05-03T11:21:56.977Z</time></trkpt><trkpt lat="44.3588897" lon="8.2158345"><ele>466.0</ele><time>2026-05-03T11:21:57.976Z</time></trkpt><trkpt lat="44.3589435" lon="8.2159831"><ele>466.0</ele><time>2026-05-03T11:21:58.976Z</time></trkpt><trkpt lat="44.3589997" lon="8.2161177"><ele>466.0</ele><time>2026-05-03T11:21:59.976Z</time></trkpt><trkpt lat="44.3590541" lon="8.2162457"><ele>466.0</ele><time>2026-05-03T11:22:00.976Z</time></trkpt><trkpt lat="44.3590969" lon="8.2163812"><ele>466.0</ele><time>2026-05-03T11:22:01.977Z</time></trkpt><trkpt lat="44.3591413" lon="8.2165234"><ele>466.0</ele><time>2026-05-03T11:22:02.976Z</time></trkpt><trkpt lat="44.3591861" lon="8.2166779"><ele>466.0</ele><time>2026-05-03T11:22:03.976Z</time></trkpt><trkpt lat="44.3592181" lon="8.2168439"><ele>466.0</ele><time>2026-05-03T11:22:04.976Z</time></trkpt><trkpt lat="44.3592299" lon="8.2170253"><ele>466.0</ele><time>2026-05-03T11:22:05.976Z</time></trkpt><trkpt lat="44.3592146" lon="8.2172138"><ele>466.0</ele><time>2026-05-03T11:22:06.977Z</time></trkpt><trkpt lat="44.3591626" lon="8.2173996"><ele>466.0</ele><time>2026-05-03T11:22:07.976Z</time></trkpt><trkpt lat="44.3590973" lon="8.2175683"><ele>466.0</ele><time>2026-05-03T11:22:08.976Z</time></trkpt><trkpt lat="44.3590287" lon="8.2177245"><ele>466.0</ele><time>2026-05-03T11:22:09.977Z</time></trkpt><trkpt lat="44.3589645" lon="8.2178796"><ele>466.0</ele><time>2026-05-03T11:22:10.976Z</time></trkpt><trkpt lat="44.3589087" lon="8.2180402"><ele>467.0</ele><time>2026-05-03T11:22:11.976Z</time></trkpt><trkpt lat="44.3588765" lon="8.2182115"><ele>468.0</ele><time>2026-05-03T11:22:12.976Z</time></trkpt><trkpt lat="44.3588555" lon="8.2183903"><ele>469.0</ele><time>2026-05-03T11:22:13.976Z</time></trkpt><trkpt lat="44.358839" lon="8.2185755"><ele>470.0</ele><time>2026-05-03T11:22:14.977Z</time></trkpt><trkpt lat="44.35882" lon="8.2187572"><ele>470.0</ele><time>2026-05-03T11:22:15.976Z</time></trkpt><trkpt lat="44.3587996" lon="8.2189355"><ele>470.0</ele><time>2026-05-03T11:22:16.976Z</time></trkpt><trkpt lat="44.3587859" lon="8.2191175"><ele>470.0</ele><time>2026-05-03T11:22:17.976Z</time></trkpt><trkpt lat="44.3587745" lon="8.2193017"><ele>470.0</ele><time>2026-05-03T11:22:18.976Z</time></trkpt><trkpt lat="44.3587678" lon="8.2194841"><ele>471.5</ele><time>2026-05-03T11:22:19.976Z</time></trkpt><trkpt lat="44.3587663" lon="8.2196611"><ele>473.0</ele><time>2026-05-03T11:22:20.976Z</time></trkpt><trkpt lat="44.3587655" lon="8.2198448"><ele>474.5</ele><time>2026-05-03T11:22:21.976Z</time></trkpt><trkpt lat="44.3587613" lon="8.2200281"><ele>476.0</ele><time>2026-05-03T11:22:22.976Z</time></trkpt><trkpt lat="44.3587449" lon="8.2202038"><ele>477.0</ele><time>2026-05-03T11:22:23.977Z</time></trkpt><trkpt lat="44.3587008" lon="8.2203658"><ele>478.0</ele><time>2026-05-03T11:22:24.976Z</time></trkpt><trkpt lat="44.3586181" lon="8.2204989"><ele>479.0</ele><time>2026-05-03T11:22:25.976Z</time></trkpt><trkpt lat="44.3585142" lon="8.2205757"><ele>480.0</ele><time>2026-05-03T11:22:26.977Z</time></trkpt><trkpt lat="44.3583826" lon="8.2205988"><ele>480.0</ele><time>2026-05-03T11:22:27.977Z</time></trkpt><trkpt lat="44.3582438" lon="8.2206011"><ele>480.0</ele><time>2026-05-03T11:22:28.977Z</time></trkpt><trkpt lat="44.3581168" lon="8.2206049"><ele>480.0</ele><time>2026-05-03T11:22:29.976Z</time></trkpt><trkpt lat="44.3579935" lon="8.2206157"><ele>480.0</ele><time>2026-05-03T11:22:30.976Z</time></trkpt><trkpt lat="44.3578743" lon="8.2206277"><ele>480.6</ele><time>2026-05-03T11:22:31.976Z</time></trkpt><trkpt lat="44.3577603" lon="8.2206439"><ele>481.2</ele><time>2026-05-03T11:22:32.976Z</time></trkpt><trkpt lat="44.3576565" lon="8.2206506"><ele>481.79999999999995</ele><time>2026-05-03T11:22:33.977Z</time></trkpt><trkpt lat="44.3575583" lon="8.2206744"><ele>482.4</ele><time>2026-05-03T11:22:34.977Z</time></trkpt><trkpt lat="44.3574612" lon="8.2207323"><ele>483.0</ele><time>2026-05-03T11:22:35.977Z</time></trkpt><trkpt lat="44.3573787" lon="8.2208324"><ele>484.5</ele><time>2026-05-03T11:22:36.976Z</time></trkpt><trkpt lat="44.3573211" lon="8.2209632"><ele>486.0</ele><time>2026-05-03T11:22:37.976Z</time></trkpt><trkpt lat="44.3572887" lon="8.2211116"><ele>487.5</ele><time>2026-05-03T11:22:38.976Z</time></trkpt><trkpt lat="44.357263" lon="8.2212716"><ele>489.0</ele><time>2026-05-03T11:22:39.976Z</time></trkpt><trkpt lat="44.3572374" lon="8.2214345"><ele>491.75</ele><time>2026-05-03T11:22:40.976Z</time></trkpt><trkpt lat="44.3572229" lon="8.2216034"><ele>494.5</ele><time>2026-05-03T11:22:41.977Z</time></trkpt><trkpt lat="44.3572205" lon="8.2217712"><ele>497.25</ele><time>2026-05-03T11:22:42.976Z</time></trkpt><trkpt lat="44.3572239" lon="8.2219418"><ele>500.0</ele><time>2026-05-03T11:22:43.976Z</time></trkpt><trkpt lat="44.357234" lon="8.2221114"><ele>500.0</ele><time>2026-05-03T11:22:44.976Z</time></trkpt><trkpt lat="44.3572456" lon="8.2222803"><ele>500.0</ele><time>2026-05-03T11:22:45.977Z</time></trkpt><trkpt lat="44.3572622" lon="8.222455"><ele>500.0</ele><time>2026-05-03T11:22:46.976Z</time></trkpt><trkpt lat="44.3572795" lon="8.2226258"><ele>500.0</ele><time>2026-05-03T11:22:47.977Z</time></trkpt><trkpt lat="44.3573064" lon="8.2227982"><ele>502.25</ele><time>2026-05-03T11:22:48.977Z</time></trkpt><trkpt lat="44.357339" lon="8.2229593"><ele>504.5</ele><time>2026-05-03T11:22:49.976Z</time></trkpt><trkpt lat="44.357375" lon="8.2231082"><ele>506.75</ele><time>2026-05-03T11:22:50.977Z</time></trkpt><trkpt lat="44.3574142" lon="8.2232534"><ele>509.0</ele><time>2026-05-03T11:22:51.976Z</time></trkpt><trkpt lat="44.3574531" lon="8.2233981"><ele>510.0</ele><time>2026-05-03T11:22:52.977Z</time></trkpt><trkpt lat="44.3574931" lon="8.2235477"><ele>511.0</ele><time>2026-05-03T11:22:53.976Z</time></trkpt><trkpt lat="44.3575348" lon="8.2236988"><ele>512.0</ele><time>2026-05-03T11:22:54.976Z</time></trkpt><trkpt lat="44.3575781" lon="8.2238581"><ele>513.0</ele><time>2026-05-03T11:22:55.976Z</time></trkpt><trkpt lat="44.3576231" lon="8.2240197"><ele>513.75</ele><time>2026-05-03T11:22:56.976Z</time></trkpt><trkpt lat="44.357658" lon="8.2241815"><ele>514.5</ele><time>2026-05-03T11:22:57.976Z</time></trkpt><trkpt lat="44.3576963" lon="8.2243356"><ele>515.25</ele><time>2026-05-03T11:22:58.976Z</time></trkpt><trkpt lat="44.3577289" lon="8.224489"><ele>516.0</ele><time>2026-05-03T11:22:59.976Z</time></trkpt><trkpt lat="44.357757" lon="8.2246429"><ele>516.0</ele><time>2026-05-03T11:23:00.976Z</time></trkpt><trkpt lat="44.3577826" lon="8.2248096"><ele>516.0</ele><time>2026-05-03T11:23:01.977Z</time></trkpt><trkpt lat="44.3578036" lon="8.2249741"><ele>516.0</ele><time>2026-05-03T11:23:02.976Z</time></trkpt><trkpt lat="44.3578218" lon="8.2251498"><ele>516.0</ele><time>2026-05-03T11:23:03.977Z</time></trkpt><trkpt lat="44.3578394" lon="8.2253337"><ele>517.5</ele><time>2026-05-03T11:23:04.976Z</time></trkpt><trkpt lat="44.3578643" lon="8.2255165"><ele>519.0</ele><time>2026-05-03T11:23:05.977Z</time></trkpt><trkpt lat="44.3578849" lon="8.2257042"><ele>520.5</ele><time>2026-05-03T11:23:06.976Z</time></trkpt><trkpt lat="44.3579063" lon="8.2258883"><ele>522.0</ele><time>2026-05-03T11:23:07.977Z</time></trkpt><trkpt lat="44.3579309" lon="8.2260782"><ele>523.0</ele><time>2026-05-03T11:23:08.976Z</time></trkpt><trkpt lat="44.3579545" lon="8.2262735"><ele>524.0</ele><time>2026-05-03T11:23:09.977Z</time></trkpt><trkpt lat="44.3579752" lon="8.2264667"><ele>525.0</ele><time>2026-05-03T11:23:10.976Z</time></trkpt><trkpt lat="44.3579943" lon="8.2266618"><ele>526.0</ele><time>2026-05-03T11:23:11.977Z</time></trkpt><trkpt lat="44.3580253" lon="8.226849"><ele>526.5</ele><time>2026-05-03T11:23:12.976Z</time></trkpt><trkpt lat="44.3580797" lon="8.2270108"><ele>527.0</ele><time>2026-05-03T11:23:13.976Z</time></trkpt><trkpt lat="44.3581474" lon="8.227155"><ele>527.5</ele><time>2026-05-03T11:23:14.977Z</time></trkpt><trkpt lat="44.3582342" lon="8.2272759"><ele>528.0</ele><time>2026-05-03T11:23:15.977Z</time></trkpt><trkpt lat="44.3583318" lon="8.2273911"><ele>528.0</ele><time>2026-05-03T11:23:16.976Z</time></trkpt><trkpt lat="44.3584306" lon="8.2275191"><ele>528.0</ele><time>2026-05-03T11:23:17.977Z</time></trkpt><trkpt lat="44.3585268" lon="8.227665"><ele>528.0</ele><time>2026-05-03T11:23:18.976Z</time></trkpt><trkpt lat="44.3586171" lon="8.2278158"><ele>528.0</ele><time>2026-05-03T11:23:19.977Z</time></trkpt><trkpt lat="44.3587084" lon="8.2279747"><ele>526.0</ele><time>2026-05-03T11:23:20.977Z</time></trkpt><trkpt lat="44.3587963" lon="8.2281521"><ele>524.0</ele><time>2026-05-03T11:23:21.976Z</time></trkpt><trkpt lat="44.3588961" lon="8.2283267"><ele>522.0</ele><time>2026-05-03T11:23:22.976Z</time></trkpt><trkpt lat="44.3589982" lon="8.2285047"><ele>522.0</ele><time>2026-05-03T11:23:23.977Z</time></trkpt><trkpt lat="44.3591011" lon="8.2286779"><ele>522.0</ele><time>2026-05-03T11:23:24.976Z</time></trkpt><trkpt lat="44.3592016" lon="8.2288567"><ele>522.0</ele><time>2026-05-03T11:23:25.977Z</time></trkpt><trkpt lat="44.3592988" lon="8.2290352"><ele>519.3333333333334</ele><time>2026-05-03T11:23:26.976Z</time></trkpt><trkpt lat="44.3593739" lon="8.2292319"><ele>516.6666666666667</ele><time>2026-05-03T11:23:27.977Z</time></trkpt><trkpt lat="44.3594454" lon="8.2294396"><ele>514.0</ele><time>2026-05-03T11:23:28.976Z</time></trkpt><trkpt lat="44.3595434" lon="8.2296315"><ele>513.6666666666667</ele><time>2026-05-03T11:23:29.976Z</time></trkpt><trkpt lat="44.3596411" lon="8.2298215"><ele>513.3333333333334</ele><time>2026-05-03T11:23:30.976Z</time></trkpt><trkpt lat="44.3597236" lon="8.2300144"><ele>513.0</ele><time>2026-05-03T11:23:31.976Z</time></trkpt><trkpt lat="44.3598059" lon="8.2302109"><ele>513.0</ele><time>2026-05-03T11:23:32.977Z</time></trkpt><trkpt lat="44.3598877" lon="8.2303985"><ele>513.0</ele><time>2026-05-03T11:23:33.977Z</time></trkpt><trkpt lat="44.3599699" lon="8.2305838"><ele>513.0</ele><time>2026-05-03T11:23:34.977Z</time></trkpt><trkpt lat="44.3600557" lon="8.2307688"><ele>510.66666666666663</ele><time>2026-05-03T11:23:35.977Z</time></trkpt><trkpt lat="44.3601408" lon="8.2309599"><ele>508.3333333333333</ele><time>2026-05-03T11:23:36.976Z</time></trkpt><trkpt lat="44.3602295" lon="8.2311484"><ele>506.0</ele><time>2026-05-03T11:23:37.977Z</time></trkpt><trkpt lat="44.3603196" lon="8.2313472"><ele>503.3333333333333</ele><time>2026-05-03T11:23:38.976Z</time></trkpt><trkpt lat="44.3604036" lon="8.2315496"><ele>500.66666666666663</ele><time>2026-05-03T11:23:39.976Z</time></trkpt><trkpt lat="44.3604847" lon="8.2317528"><ele>498.0</ele><time>2026-05-03T11:23:40.977Z</time></trkpt><trkpt lat="44.3605661" lon="8.231952"><ele>497.33333333333337</ele><time>2026-05-03T11:23:41.976Z</time></trkpt><trkpt lat="44.3606512" lon="8.2321441"><ele>496.6666666666667</ele><time>2026-05-03T11:23:42.976Z</time></trkpt><trkpt lat="44.3607503" lon="8.232322"><ele>496.0</ele><time>2026-05-03T11:23:43.977Z</time></trkpt><trkpt lat="44.360849" lon="8.2324961"><ele>496.0</ele><time>2026-05-03T11:23:44.976Z</time></trkpt><trkpt lat="44.3609526" lon="8.2326676"><ele>496.0</ele><time>2026-05-03T11:23:45.976Z</time></trkpt><trkpt lat="44.3610564" lon="8.2328338"><ele>496.0</ele><time>2026-05-03T11:23:46.976Z</time></trkpt><trkpt lat="44.3611608" lon="8.233004"><ele>492.33333333333337</ele><time>2026-05-03T11:23:47.976Z</time></trkpt><trkpt lat="44.3612681" lon="8.2331722"><ele>488.66666666666663</ele><time>2026-05-03T11:23:48.976Z</time></trkpt><trkpt lat="44.3613708" lon="8.2333367"><ele>485.0</ele><time>2026-05-03T11:23:49.977Z</time></trkpt><trkpt lat="44.3614738" lon="8.2335039"><ele>485.0</ele><time>2026-05-03T11:23:50.977Z</time></trkpt><trkpt lat="44.3615976" lon="8.2336637"><ele>485.0</ele><time>2026-05-03T11:23:51.976Z</time></trkpt><trkpt lat="44.3617027" lon="8.2338342"><ele>485.0</ele><time>2026-05-03T11:23:52.977Z</time></trkpt><trkpt lat="44.3617931" lon="8.2340165"><ele>483.0</ele><time>2026-05-03T11:23:53.976Z</time></trkpt><trkpt lat="44.3618691" lon="8.2342248"><ele>481.0</ele><time>2026-05-03T11:23:54.976Z</time></trkpt><trkpt lat="44.3619357" lon="8.2344454"><ele>479.0</ele><time>2026-05-03T11:23:55.977Z</time></trkpt><trkpt lat="44.3619902" lon="8.234669"><ele>477.25</ele><time>2026-05-03T11:23:56.976Z</time></trkpt><trkpt lat="44.3620313" lon="8.2348773"><ele>475.5</ele><time>2026-05-03T11:23:57.976Z</time></trkpt><trkpt lat="44.3620708" lon="8.2350768"><ele>473.75</ele><time>2026-05-03T11:23:58.976Z</time></trkpt><trkpt lat="44.3621134" lon="8.2352717"><ele>472.0</ele><time>2026-05-03T11:23:59.976Z</time></trkpt><trkpt lat="44.3621559" lon="8.2354696"><ele>471.5</ele><time>2026-05-03T11:24:00.976Z</time></trkpt><trkpt lat="44.3621949" lon="8.2356543"><ele>471.0</ele><time>2026-05-03T11:24:01.977Z</time></trkpt><trkpt lat="44.362232" lon="8.2358454"><ele>470.5</ele><time>2026-05-03T11:24:02.976Z</time></trkpt><trkpt lat="44.3622651" lon="8.2360433"><ele>470.0</ele><time>2026-05-03T11:24:03.977Z</time></trkpt><trkpt lat="44.3622971" lon="8.2362433"><ele>470.0</ele><time>2026-05-03T11:24:04.976Z</time></trkpt><trkpt lat="44.3623385" lon="8.2364411"><ele>470.0</ele><time>2026-05-03T11:24:05.977Z</time></trkpt><trkpt lat="44.36238" lon="8.2366363"><ele>470.0</ele><time>2026-05-03T11:24:06.976Z</time></trkpt><trkpt lat="44.3624205" lon="8.2368218"><ele>470.0</ele><time>2026-05-03T11:24:07.977Z</time></trkpt><trkpt lat="44.3624608" lon="8.2370016"><ele>470.0</ele><time>2026-05-03T11:24:08.977Z</time></trkpt><trkpt lat="44.3625004" lon="8.2371644"><ele>470.0</ele><time>2026-05-03T11:24:09.976Z</time></trkpt><trkpt lat="44.3625358" lon="8.2373293"><ele>470.0</ele><time>2026-05-03T11:24:10.976Z</time></trkpt><trkpt lat="44.3625719" lon="8.237499"><ele>470.0</ele><time>2026-05-03T11:24:11.977Z</time></trkpt><trkpt lat="44.3626098" lon="8.2376761"><ele>468.75</ele><time>2026-05-03T11:24:12.976Z</time></trkpt><trkpt lat="44.3626393" lon="8.2378567"><ele>467.5</ele><time>2026-05-03T11:24:13.977Z</time></trkpt><trkpt lat="44.3626585" lon="8.2380351"><ele>466.25</ele><time>2026-05-03T11:24:14.976Z</time></trkpt><trkpt lat="44.3626579" lon="8.2382101"><ele>465.0</ele><time>2026-05-03T11:24:15.976Z</time></trkpt><trkpt lat="44.3626418" lon="8.2383858"><ele>464.75</ele><time>2026-05-03T11:24:16.976Z</time></trkpt><trkpt lat="44.3626147" lon="8.2385549"><ele>464.5</ele><time>2026-05-03T11:24:17.976Z</time></trkpt><trkpt lat="44.3625857" lon="8.2387184"><ele>464.25</ele><time>2026-05-03T11:24:18.976Z</time></trkpt><trkpt lat="44.3625566" lon="8.2388763"><ele>464.0</ele><time>2026-05-03T11:24:19.977Z</time></trkpt><trkpt lat="44.3625345" lon="8.2390212"><ele>463.8333333333333</ele><time>2026-05-03T11:24:20.976Z</time></trkpt><trkpt lat="44.3625143" lon="8.2391572"><ele>463.66666666666663</ele><time>2026-05-03T11:24:21.977Z</time></trkpt><trkpt lat="44.362494" lon="8.2392708"><ele>463.5</ele><time>2026-05-03T11:24:22.976Z</time></trkpt><trkpt lat="44.3624726" lon="8.2393787"><ele>463.33333333333337</ele><time>2026-05-03T11:24:23.976Z</time></trkpt><trkpt lat="44.3624438" lon="8.2394791"><ele>463.1666666666667</ele><time>2026-05-03T11:24:24.977Z</time></trkpt><trkpt lat="44.3624126" lon="8.239588"><ele>463.0</ele><time>2026-05-03T11:24:25.976Z</time></trkpt><trkpt lat="44.3623877" lon="8.2397006"><ele>463.4</ele><time>2026-05-03T11:24:26.976Z</time></trkpt><trkpt lat="44.362375" lon="8.239827"><ele>463.79999999999995</ele><time>2026-05-03T11:24:27.976Z</time></trkpt><trkpt lat="44.3623621" lon="8.2399647"><ele>464.2</ele><time>2026-05-03T11:24:28.976Z</time></trkpt><trkpt lat="44.3623487" lon="8.2401047"><ele>464.6</ele><time>2026-05-03T11:24:29.976Z</time></trkpt><trkpt lat="44.3623351" lon="8.24024"><ele>465.0</ele><time>2026-05-03T11:24:30.976Z</time></trkpt><trkpt lat="44.3623225" lon="8.2403743"><ele>465.0</ele><time>2026-05-03T11:24:31.975Z</time></trkpt><trkpt lat="44.3623113" lon="8.240495"><ele>465.0</ele><time>2026-05-03T11:24:32.975Z</time></trkpt><trkpt lat="44.3622883" lon="8.2406362"><ele>465.0</ele><time>2026-05-03T11:24:33.976Z</time></trkpt><trkpt lat="44.362265" lon="8.2407791"><ele>465.0</ele><time>2026-05-03T11:24:34.975Z</time></trkpt><trkpt lat="44.3622563" lon="8.2409174"><ele>465.0</ele><time>2026-05-03T11:24:35.976Z</time></trkpt><trkpt lat="44.3622661" lon="8.2410599"><ele>465.5</ele><time>2026-05-03T11:24:36.976Z</time></trkpt><trkpt lat="44.3623007" lon="8.2411846"><ele>466.0</ele><time>2026-05-03T11:24:37.975Z</time></trkpt><trkpt lat="44.3623651" lon="8.2413043"><ele>466.5</ele><time>2026-05-03T11:24:38.975Z</time></trkpt><trkpt lat="44.3624517" lon="8.2414216"><ele>467.0</ele><time>2026-05-03T11:24:39.975Z</time></trkpt><trkpt lat="44.3625511" lon="8.2415461"><ele>465.75</ele><time>2026-05-03T11:24:40.975Z</time></trkpt><trkpt lat="44.3626536" lon="8.2416771"><ele>464.5</ele><time>2026-05-03T11:24:41.975Z</time></trkpt><trkpt lat="44.3627492" lon="8.2418162"><ele>463.25</ele><time>2026-05-03T11:24:42.976Z</time></trkpt><trkpt lat="44.3628471" lon="8.2419651"><ele>462.0</ele><time>2026-05-03T11:24:43.976Z</time></trkpt><trkpt lat="44.362945" lon="8.2421237"><ele>461.5</ele><time>2026-05-03T11:24:44.975Z</time></trkpt><trkpt lat="44.3630369" lon="8.2422616"><ele>461.0</ele><time>2026-05-03T11:24:45.975Z</time></trkpt><trkpt lat="44.3631341" lon="8.2423992"><ele>460.5</ele><time>2026-05-03T11:24:46.976Z</time></trkpt><trkpt lat="44.3632276" lon="8.2425428"><ele>460.0</ele><time>2026-05-03T11:24:47.976Z</time></trkpt><trkpt lat="44.363327" lon="8.2426913"><ele>460.0</ele><time>2026-05-03T11:24:48.975Z</time></trkpt><trkpt lat="44.363426" lon="8.2428409"><ele>460.0</ele><time>2026-05-03T11:24:49.975Z</time></trkpt><trkpt lat="44.3635206" lon="8.2430021"><ele>460.0</ele><time>2026-05-03T11:24:50.975Z</time></trkpt><trkpt lat="44.3636064" lon="8.2431925"><ele>457.33333333333337</ele><time>2026-05-03T11:24:51.975Z</time></trkpt><trkpt lat="44.3636863" lon="8.2433912"><ele>454.66666666666663</ele><time>2026-05-03T11:24:52.976Z</time></trkpt><trkpt lat="44.3637609" lon="8.243596"><ele>452.0</ele><time>2026-05-03T11:24:53.975Z</time></trkpt><trkpt lat="44.3638181" lon="8.2438131"><ele>453.0</ele><time>2026-05-03T11:24:54.976Z</time></trkpt><trkpt lat="44.3638799" lon="8.2440302"><ele>454.0</ele><time>2026-05-03T11:24:55.975Z</time></trkpt><trkpt lat="44.3639327" lon="8.24424"><ele>455.0</ele><time>2026-05-03T11:24:56.975Z</time></trkpt><trkpt lat="44.3639761" lon="8.2444532"><ele>455.0</ele><time>2026-05-03T11:24:57.975Z</time></trkpt><trkpt lat="44.3640102" lon="8.2446726"><ele>455.0</ele><time>2026-05-03T11:24:58.975Z</time></trkpt><trkpt lat="44.3640346" lon="8.2448951"><ele>455.0</ele><time>2026-05-03T11:24:59.975Z</time></trkpt><trkpt lat="44.3640561" lon="8.2451093"><ele>453.66666666666663</ele><time>2026-05-03T11:25:00.976Z</time></trkpt><trkpt lat="44.3640778" lon="8.2453246"><ele>452.33333333333337</ele><time>2026-05-03T11:25:01.975Z</time></trkpt><trkpt lat="44.3641053" lon="8.2455317"><ele>451.0</ele><time>2026-05-03T11:25:02.975Z</time></trkpt><trkpt lat="44.3641323" lon="8.2457372"><ele>449.33333333333337</ele><time>2026-05-03T11:25:03.976Z</time></trkpt><trkpt lat="44.3641578" lon="8.2459508"><ele>447.66666666666663</ele><time>2026-05-03T11:25:04.976Z</time></trkpt><trkpt lat="44.3641942" lon="8.246171"><ele>446.0</ele><time>2026-05-03T11:25:05.975Z</time></trkpt><trkpt lat="44.3642306" lon="8.2463919"><ele>445.0</ele><time>2026-05-03T11:25:06.975Z</time></trkpt><trkpt lat="44.3642592" lon="8.2466185"><ele>444.0</ele><time>2026-05-03T11:25:07.975Z</time></trkpt><trkpt lat="44.3642929" lon="8.2468493"><ele>443.0</ele><time>2026-05-03T11:25:08.975Z</time></trkpt><trkpt lat="44.36432" lon="8.2470832"><ele>442.3333333333333</ele><time>2026-05-03T11:25:09.975Z</time></trkpt><trkpt lat="44.3643605" lon="8.2473121"><ele>441.66666666666663</ele><time>2026-05-03T11:25:10.975Z</time></trkpt><trkpt lat="44.3644029" lon="8.2475514"><ele>441.0</ele><time>2026-05-03T11:25:11.975Z</time></trkpt><trkpt lat="44.3644381" lon="8.247784"><ele>441.0</ele><time>2026-05-03T11:25:12.975Z</time></trkpt><trkpt lat="44.3644739" lon="8.2480122"><ele>441.0</ele><time>2026-05-03T11:25:13.975Z</time></trkpt><trkpt lat="44.3645115" lon="8.2482367"><ele>441.0</ele><time>2026-05-03T11:25:14.975Z</time></trkpt><trkpt lat="44.3645487" lon="8.2484548"><ele>440.0</ele><time>2026-05-03T11:25:15.975Z</time></trkpt><trkpt lat="44.3645818" lon="8.2486659"><ele>439.0</ele><time>2026-05-03T11:25:16.975Z</time></trkpt><trkpt lat="44.3646123" lon="8.2488739"><ele>438.0</ele><time>2026-05-03T11:25:17.975Z</time></trkpt><trkpt lat="44.3646384" lon="8.2490875"><ele>438.0</ele><time>2026-05-03T11:25:18.976Z</time></trkpt><trkpt lat="44.3646685" lon="8.2493008"><ele>438.0</ele><time>2026-05-03T11:25:19.975Z</time></trkpt><trkpt lat="44.3646966" lon="8.249513"><ele>438.0</ele><time>2026-05-03T11:25:20.975Z</time></trkpt><trkpt lat="44.3647238" lon="8.2497285"><ele>439.0</ele><time>2026-05-03T11:25:21.975Z</time></trkpt><trkpt lat="44.3647553" lon="8.2499449"><ele>440.0</ele><time>2026-05-03T11:25:22.976Z</time></trkpt><trkpt lat="44.3647854" lon="8.2501627"><ele>441.0</ele><time>2026-05-03T11:25:23.975Z</time></trkpt><trkpt lat="44.3648142" lon="8.250375"><ele>441.0</ele><time>2026-05-03T11:25:24.976Z</time></trkpt><trkpt lat="44.3648355" lon="8.2505904"><ele>441.0</ele><time>2026-05-03T11:25:25.976Z</time></trkpt><trkpt lat="44.3648657" lon="8.2508078"><ele>441.0</ele><time>2026-05-03T11:25:26.976Z</time></trkpt><trkpt lat="44.3648992" lon="8.2510261"><ele>439.66666666666663</ele><time>2026-05-03T11:25:27.976Z</time></trkpt><trkpt lat="44.3649325" lon="8.2512462"><ele>438.3333333333333</ele><time>2026-05-03T11:25:28.975Z</time></trkpt><trkpt lat="44.3649646" lon="8.2514756"><ele>437.0</ele><time>2026-05-03T11:25:29.976Z</time></trkpt><trkpt lat="44.3649955" lon="8.2517049"><ele>435.66666666666663</ele><time>2026-05-03T11:25:30.975Z</time></trkpt><trkpt lat="44.365031" lon="8.251929"><ele>434.33333333333337</ele><time>2026-05-03T11:25:31.976Z</time></trkpt><trkpt lat="44.3650601" lon="8.252152"><ele>433.0</ele><time>2026-05-03T11:25:32.975Z</time></trkpt><trkpt lat="44.3650861" lon="8.2523682"><ele>431.6666666666667</ele><time>2026-05-03T11:25:33.975Z</time></trkpt><trkpt lat="44.3651187" lon="8.2525791"><ele>430.33333333333337</ele><time>2026-05-03T11:25:34.976Z</time></trkpt><trkpt lat="44.3651514" lon="8.2527971"><ele>429.0</ele><time>2026-05-03T11:25:35.975Z</time></trkpt><trkpt lat="44.3651959" lon="8.2530097"><ele>428.33333333333337</ele><time>2026-05-03T11:25:36.976Z</time></trkpt><trkpt lat="44.3652512" lon="8.2532158"><ele>427.6666666666667</ele><time>2026-05-03T11:25:37.975Z</time></trkpt><trkpt lat="44.3653179" lon="8.2534126"><ele>427.0</ele><time>2026-05-03T11:25:38.976Z</time></trkpt><trkpt lat="44.3653899" lon="8.2535971"><ele>427.0</ele><time>2026-05-03T11:25:39.975Z</time></trkpt><trkpt lat="44.3654647" lon="8.2537832"><ele>427.0</ele><time>2026-05-03T11:25:40.975Z</time></trkpt><trkpt lat="44.3655437" lon="8.2539636"><ele>427.0</ele><time>2026-05-03T11:25:41.975Z</time></trkpt><trkpt lat="44.3656311" lon="8.2541333"><ele>428.75</ele><time>2026-05-03T11:25:42.975Z</time></trkpt><trkpt lat="44.3657228" lon="8.2542959"><ele>430.5</ele><time>2026-05-03T11:25:43.976Z</time></trkpt><trkpt lat="44.3658172" lon="8.2544623"><ele>432.25</ele><time>2026-05-03T11:25:44.975Z</time></trkpt><trkpt lat="44.365906" lon="8.2546228"><ele>434.0</ele><time>2026-05-03T11:25:45.975Z</time></trkpt><trkpt lat="44.3659994" lon="8.2547822"><ele>431.3333333333333</ele><time>2026-05-03T11:25:46.975Z</time></trkpt><trkpt lat="44.3660942" lon="8.2549618"><ele>428.66666666666663</ele><time>2026-05-03T11:25:47.976Z</time></trkpt><trkpt lat="44.3661765" lon="8.2551497"><ele>426.0</ele><time>2026-05-03T11:25:48.975Z</time></trkpt><trkpt lat="44.3662381" lon="8.2553501"><ele>426.0</ele><time>2026-05-03T11:25:49.975Z</time></trkpt><trkpt lat="44.3662825" lon="8.2555646"><ele>426.0</ele><time>2026-05-03T11:25:50.975Z</time></trkpt><trkpt lat="44.3663071" lon="8.2557745"><ele>426.0</ele><time>2026-05-03T11:25:51.976Z</time></trkpt><trkpt lat="44.3663279" lon="8.2559768"><ele>426.5</ele><time>2026-05-03T11:25:52.976Z</time></trkpt><trkpt lat="44.3663438" lon="8.25618"><ele>427.0</ele><time>2026-05-03T11:25:53.976Z</time></trkpt><trkpt lat="44.3663611" lon="8.2563788"><ele>427.5</ele><time>2026-05-03T11:25:54.975Z</time></trkpt><trkpt lat="44.3663783" lon="8.2565689"><ele>428.0</ele><time>2026-05-03T11:25:55.975Z</time></trkpt><trkpt lat="44.3663925" lon="8.2567416"><ele>428.0</ele><time>2026-05-03T11:25:56.975Z</time></trkpt><trkpt lat="44.3664074" lon="8.256909"><ele>428.0</ele><time>2026-05-03T11:25:57.976Z</time></trkpt><trkpt lat="44.3664427" lon="8.2570638"><ele>428.0</ele><time>2026-05-03T11:25:58.975Z</time></trkpt><trkpt lat="44.3665045" lon="8.2572003"><ele>428.0</ele><time>2026-05-03T11:25:59.976Z</time></trkpt><trkpt lat="44.3665882" lon="8.2573165"><ele>425.75</ele><time>2026-05-03T11:26:00.975Z</time></trkpt><trkpt lat="44.3666864" lon="8.2574108"><ele>423.5</ele><time>2026-05-03T11:26:01.976Z</time></trkpt><trkpt lat="44.3667852" lon="8.2575018"><ele>421.25</ele><time>2026-05-03T11:26:02.975Z</time></trkpt><trkpt lat="44.3668797" lon="8.2576094"><ele>419.0</ele><time>2026-05-03T11:26:03.975Z</time></trkpt><trkpt lat="44.3669593" lon="8.2577402"><ele>419.0</ele><time>2026-05-03T11:26:04.975Z</time></trkpt><trkpt lat="44.367029" lon="8.2578821"><ele>419.0</ele><time>2026-05-03T11:26:05.975Z</time></trkpt><trkpt lat="44.3670863" lon="8.2580355"><ele>419.0</ele><time>2026-05-03T11:26:06.975Z</time></trkpt><trkpt lat="44.3671346" lon="8.258187"><ele>419.0</ele><time>2026-05-03T11:26:07.975Z</time></trkpt><trkpt lat="44.3671713" lon="8.2583507"><ele>417.75</ele><time>2026-05-03T11:26:08.975Z</time></trkpt><trkpt lat="44.3671825" lon="8.2585268"><ele>416.5</ele><time>2026-05-03T11:26:09.976Z</time></trkpt><trkpt lat="44.3671805" lon="8.258699"><ele>415.25</ele><time>2026-05-03T11:26:10.975Z</time></trkpt><trkpt lat="44.3671654" lon="8.2588713"><ele>414.0</ele><time>2026-05-03T11:26:11.975Z</time></trkpt><trkpt lat="44.3671466" lon="8.2590393"><ele>412.75</ele><time>2026-05-03T11:26:12.975Z</time></trkpt><trkpt lat="44.3671155" lon="8.259198"><ele>411.5</ele><time>2026-05-03T11:26:13.975Z</time></trkpt><trkpt lat="44.3670844" lon="8.2593677"><ele>410.25</ele><time>2026-05-03T11:26:14.976Z</time></trkpt><trkpt lat="44.3670633" lon="8.2595348"><ele>409.0</ele><time>2026-05-03T11:26:15.976Z</time></trkpt><trkpt lat="44.3670349" lon="8.2597009"><ele>408.5</ele><time>2026-05-03T11:26:16.975Z</time></trkpt><trkpt lat="44.3670094" lon="8.2598769"><ele>408.0</ele><time>2026-05-03T11:26:17.975Z</time></trkpt><trkpt lat="44.3669756" lon="8.2600467"><ele>407.5</ele><time>2026-05-03T11:26:18.975Z</time></trkpt><trkpt lat="44.3669427" lon="8.2602267"><ele>407.0</ele><time>2026-05-03T11:26:19.976Z</time></trkpt><trkpt lat="44.3669133" lon="8.2604131"><ele>407.0</ele><time>2026-05-03T11:26:20.975Z</time></trkpt><trkpt lat="44.366887" lon="8.2605994"><ele>407.0</ele><time>2026-05-03T11:26:21.976Z</time></trkpt><trkpt lat="44.3668593" lon="8.2607882"><ele>407.0</ele><time>2026-05-03T11:26:22.976Z</time></trkpt><trkpt lat="44.3668337" lon="8.2609896"><ele>407.0</ele><time>2026-05-03T11:26:23.975Z</time></trkpt><trkpt lat="44.3668011" lon="8.2611751"><ele>407.25</ele><time>2026-05-03T11:26:24.975Z</time></trkpt><trkpt lat="44.3667677" lon="8.2613667"><ele>407.5</ele><time>2026-05-03T11:26:25.976Z</time></trkpt><trkpt lat="44.3667308" lon="8.2615575"><ele>407.75</ele><time>2026-05-03T11:26:26.976Z</time></trkpt><trkpt lat="44.3667039" lon="8.2617448"><ele>408.0</ele><time>2026-05-03T11:26:27.975Z</time></trkpt><trkpt lat="44.3666801" lon="8.2619056"><ele>408.0</ele><time>2026-05-03T11:26:28.975Z</time></trkpt><trkpt lat="44.3666558" lon="8.2620571"><ele>408.0</ele><time>2026-05-03T11:26:29.975Z</time></trkpt><trkpt lat="44.3666311" lon="8.2622063"><ele>408.0</ele><time>2026-05-03T11:26:30.975Z</time></trkpt><trkpt lat="44.3666037" lon="8.2623638"><ele>408.0</ele><time>2026-05-03T11:26:31.975Z</time></trkpt><trkpt lat="44.3665728" lon="8.2625257"><ele>406.25</ele><time>2026-05-03T11:26:32.975Z</time></trkpt><trkpt lat="44.366547" lon="8.2626828"><ele>404.5</ele><time>2026-05-03T11:26:33.975Z</time></trkpt><trkpt lat="44.366514" lon="8.2628413"><ele>402.75</ele><time>2026-05-03T11:26:34.975Z</time></trkpt><trkpt lat="44.3664804" lon="8.2630013"><ele>401.0</ele><time>2026-05-03T11:26:35.975Z</time></trkpt><trkpt lat="44.3664507" lon="8.2631458"><ele>401.0</ele><time>2026-05-03T11:26:36.976Z</time></trkpt><trkpt lat="44.366426" lon="8.2632795"><ele>401.0</ele><time>2026-05-03T11:26:37.976Z</time></trkpt><trkpt lat="44.3664039" lon="8.2634055"><ele>401.0</ele><time>2026-05-03T11:26:38.975Z</time></trkpt><trkpt lat="44.3663837" lon="8.2635244"><ele>401.0</ele><time>2026-05-03T11:26:39.976Z</time></trkpt><trkpt lat="44.3663634" lon="8.2636476"><ele>401.0</ele><time>2026-05-03T11:26:40.975Z</time></trkpt><trkpt lat="44.3663333" lon="8.2637735"><ele>401.20000000000005</ele><time>2026-05-03T11:26:41.976Z</time></trkpt><trkpt lat="44.3663053" lon="8.263898"><ele>401.40000000000003</ele><time>2026-05-03T11:26:42.975Z</time></trkpt><trkpt lat="44.3662793" lon="8.2640204"><ele>401.6</ele><time>2026-05-03T11:26:43.975Z</time></trkpt><trkpt lat="44.3662516" lon="8.264136"><ele>401.8</ele><time>2026-05-03T11:26:44.975Z</time></trkpt><trkpt lat="44.3662261" lon="8.2642557"><ele>402.0</ele><time>2026-05-03T11:26:45.975Z</time></trkpt><trkpt lat="44.3661974" lon="8.2643848"><ele>401.20000000000005</ele><time>2026-05-03T11:26:46.976Z</time></trkpt><trkpt lat="44.3661664" lon="8.2645217"><ele>400.4</ele><time>2026-05-03T11:26:47.975Z</time></trkpt><trkpt lat="44.3661371" lon="8.2646585"><ele>399.6</ele><time>2026-05-03T11:26:48.975Z</time></trkpt><trkpt lat="44.3661046" lon="8.2648001"><ele>398.79999999999995</ele><time>2026-05-03T11:26:49.975Z</time></trkpt><trkpt lat="44.3660697" lon="8.2649518"><ele>398.0</ele><time>2026-05-03T11:26:50.975Z</time></trkpt><trkpt lat="44.3660319" lon="8.2651111"><ele>397.0</ele><time>2026-05-03T11:26:51.975Z</time></trkpt><trkpt lat="44.3659937" lon="8.265271"><ele>396.0</ele><time>2026-05-03T11:26:52.976Z</time></trkpt><trkpt lat="44.3659552" lon="8.2654355"><ele>395.0</ele><time>2026-05-03T11:26:53.975Z</time></trkpt><trkpt lat="44.3659114" lon="8.2656086"><ele>394.0</ele><time>2026-05-03T11:26:54.976Z</time></trkpt><trkpt lat="44.3658761" lon="8.2657766"><ele>394.0</ele><time>2026-05-03T11:26:55.976Z</time></trkpt><trkpt lat="44.3658411" lon="8.2659422"><ele>394.0</ele><time>2026-05-03T11:26:56.975Z</time></trkpt><trkpt lat="44.3658037" lon="8.2661072"><ele>394.0</ele><time>2026-05-03T11:26:57.975Z</time></trkpt><trkpt lat="44.3657632" lon="8.266276"><ele>394.0</ele><time>2026-05-03T11:26:58.975Z</time></trkpt><trkpt lat="44.3657255" lon="8.2664396"><ele>394.25</ele><time>2026-05-03T11:26:59.975Z</time></trkpt><trkpt lat="44.3656885" lon="8.2666068"><ele>394.5</ele><time>2026-05-03T11:27:00.976Z</time></trkpt><trkpt lat="44.3656505" lon="8.2667725"><ele>394.75</ele><time>2026-05-03T11:27:01.975Z</time></trkpt><trkpt lat="44.3656148" lon="8.2669309"><ele>395.0</ele><time>2026-05-03T11:27:02.975Z</time></trkpt><trkpt lat="44.3655837" lon="8.2670824"><ele>395.0</ele><time>2026-05-03T11:27:03.975Z</time></trkpt><trkpt lat="44.3655538" lon="8.2672215"><ele>395.0</ele><time>2026-05-03T11:27:04.975Z</time></trkpt><trkpt lat="44.3655268" lon="8.2673576"><ele>395.0</ele><time>2026-05-03T11:27:05.976Z</time></trkpt><trkpt lat="44.3654982" lon="8.2674992"><ele>395.0</ele><time>2026-05-03T11:27:06.975Z</time></trkpt><trkpt lat="44.3654711" lon="8.2676391"><ele>395.0</ele><time>2026-05-03T11:27:07.975Z</time></trkpt><trkpt lat="44.365443" lon="8.2677815"><ele>393.6</ele><time>2026-05-03T11:27:08.976Z</time></trkpt><trkpt lat="44.3654123" lon="8.267926"><ele>392.2</ele><time>2026-05-03T11:27:09.976Z</time></trkpt><trkpt lat="44.3653807" lon="8.2680699"><ele>390.79999999999995</ele><time>2026-05-03T11:27:10.975Z</time></trkpt><trkpt lat="44.3653486" lon="8.268215"><ele>389.4</ele><time>2026-05-03T11:27:11.975Z</time></trkpt><trkpt lat="44.3653141" lon="8.2683657"><ele>388.0</ele><time>2026-05-03T11:27:12.976Z</time></trkpt><trkpt lat="44.3652817" lon="8.2685179"><ele>387.5</ele><time>2026-05-03T11:27:13.976Z</time></trkpt><trkpt lat="44.3652538" lon="8.2686753"><ele>387.0</ele><time>2026-05-03T11:27:14.975Z</time></trkpt><trkpt lat="44.3652228" lon="8.2688299"><ele>386.5</ele><time>2026-05-03T11:27:15.975Z</time></trkpt><trkpt lat="44.3651911" lon="8.2689812"><ele>386.0</ele><time>2026-05-03T11:27:16.976Z</time></trkpt><trkpt lat="44.3651582" lon="8.2691411"><ele>386.0</ele><time>2026-05-03T11:27:17.975Z</time></trkpt><trkpt lat="44.3651229" lon="8.2692899"><ele>386.0</ele><time>2026-05-03T11:27:18.975Z</time></trkpt><trkpt lat="44.36509" lon="8.2694419"><ele>386.0</ele><time>2026-05-03T11:27:19.975Z</time></trkpt><trkpt lat="44.365048" lon="8.2695927"><ele>386.0</ele><time>2026-05-03T11:27:20.976Z</time></trkpt><trkpt lat="44.3650053" lon="8.2697456"><ele>386.0</ele><time>2026-05-03T11:27:21.976Z</time></trkpt><trkpt lat="44.3649683" lon="8.269899"><ele>386.0</ele><time>2026-05-03T11:27:22.975Z</time></trkpt><trkpt lat="44.3649313" lon="8.2700525"><ele>386.0</ele><time>2026-05-03T11:27:23.975Z</time></trkpt><trkpt lat="44.3648957" lon="8.2702093"><ele>386.0</ele><time>2026-05-03T11:27:24.975Z</time></trkpt><trkpt lat="44.364863" lon="8.2703686"><ele>386.0</ele><time>2026-05-03T11:27:25.975Z</time></trkpt><trkpt lat="44.3648335" lon="8.2705266"><ele>386.0</ele><time>2026-05-03T11:27:26.975Z</time></trkpt><trkpt lat="44.3647973" lon="8.270684"><ele>386.0</ele><time>2026-05-03T11:27:27.975Z</time></trkpt><trkpt lat="44.3647582" lon="8.2708437"><ele>386.0</ele><time>2026-05-03T11:27:28.976Z</time></trkpt><trkpt lat="44.3647206" lon="8.2710052"><ele>385.25</ele><time>2026-05-03T11:27:29.975Z</time></trkpt><trkpt lat="44.3646848" lon="8.271172"><ele>384.5</ele><time>2026-05-03T11:27:30.975Z</time></trkpt><trkpt lat="44.36465" lon="8.2713403"><ele>383.75</ele><time>2026-05-03T11:27:31.975Z</time></trkpt><trkpt lat="44.3646102" lon="8.2715065"><ele>383.0</ele><time>2026-05-03T11:27:32.976Z</time></trkpt><trkpt lat="44.3645798" lon="8.2716702"><ele>383.0</ele><time>2026-05-03T11:27:33.975Z</time></trkpt><trkpt lat="44.3645353" lon="8.271838"><ele>383.0</ele><time>2026-05-03T11:27:34.975Z</time></trkpt><trkpt lat="44.3644928" lon="8.2720058"><ele>383.0</ele><time>2026-05-03T11:27:35.976Z</time></trkpt><trkpt lat="44.3644499" lon="8.2721742"><ele>383.0</ele><time>2026-05-03T11:27:36.975Z</time></trkpt><trkpt lat="44.3644077" lon="8.2723432"><ele>383.0</ele><time>2026-05-03T11:27:37.975Z</time></trkpt><trkpt lat="44.3643651" lon="8.2725158"><ele>383.0</ele><time>2026-05-03T11:27:38.975Z</time></trkpt><trkpt lat="44.3643294" lon="8.2726815"><ele>383.0</ele><time>2026-05-03T11:27:39.975Z</time></trkpt><trkpt lat="44.3642999" lon="8.2728439"><ele>383.0</ele><time>2026-05-03T11:27:40.975Z</time></trkpt><trkpt lat="44.3642705" lon="8.2730016"><ele>382.5</ele><time>2026-05-03T11:27:41.976Z</time></trkpt><trkpt lat="44.3642357" lon="8.2731608"><ele>382.0</ele><time>2026-05-03T11:27:42.975Z</time></trkpt><trkpt lat="44.3641993" lon="8.2733173"><ele>381.5</ele><time>2026-05-03T11:27:43.976Z</time></trkpt><trkpt lat="44.3641653" lon="8.2734652"><ele>381.0</ele><time>2026-05-03T11:27:44.975Z</time></trkpt><trkpt lat="44.3641345" lon="8.2736091"><ele>381.0</ele><time>2026-05-03T11:27:45.975Z</time></trkpt><trkpt lat="44.3641032" lon="8.273756"><ele>381.0</ele><time>2026-05-03T11:27:46.976Z</time></trkpt><trkpt lat="44.3640752" lon="8.2739151"><ele>381.0</ele><time>2026-05-03T11:27:47.975Z</time></trkpt><trkpt lat="44.364042" lon="8.2740685"><ele>381.0</ele><time>2026-05-03T11:27:48.975Z</time></trkpt><trkpt lat="44.3640084" lon="8.2742201"><ele>381.25</ele><time>2026-05-03T11:27:49.975Z</time></trkpt><trkpt lat="44.3639689" lon="8.274369"><ele>381.5</ele><time>2026-05-03T11:27:50.975Z</time></trkpt><trkpt lat="44.3639284" lon="8.2745451"><ele>381.75</ele><time>2026-05-03T11:27:51.976Z</time></trkpt><trkpt lat="44.363887" lon="8.2747445"><ele>382.0</ele><time>2026-05-03T11:27:52.975Z</time></trkpt><trkpt lat="44.3638464" lon="8.2749461"><ele>380.5</ele><time>2026-05-03T11:27:53.976Z</time></trkpt><trkpt lat="44.363805" lon="8.2751417"><ele>379.0</ele><time>2026-05-03T11:27:54.976Z</time></trkpt><trkpt lat="44.3637671" lon="8.2753309"><ele>377.5</ele><time>2026-05-03T11:27:55.976Z</time></trkpt><trkpt lat="44.3637242" lon="8.27553"><ele>376.0</ele><time>2026-05-03T11:27:56.975Z</time></trkpt><trkpt lat="44.3636976" lon="8.2757421"><ele>374.3333333333333</ele><time>2026-05-03T11:27:57.976Z</time></trkpt><trkpt lat="44.3636891" lon="8.2759698"><ele>372.6666666666667</ele><time>2026-05-03T11:27:58.975Z</time></trkpt><trkpt lat="44.3636969" lon="8.2762005"><ele>371.0</ele><time>2026-05-03T11:27:59.975Z</time></trkpt><trkpt lat="44.3637068" lon="8.2764279"><ele>370.25</ele><time>2026-05-03T11:28:00.976Z</time></trkpt><trkpt lat="44.363725" lon="8.2766413"><ele>369.5</ele><time>2026-05-03T11:28:01.976Z</time></trkpt><trkpt lat="44.3637473" lon="8.2768411"><ele>368.75</ele><time>2026-05-03T11:28:02.975Z</time></trkpt><trkpt lat="44.3637703" lon="8.2770372"><ele>368.0</ele><time>2026-05-03T11:28:03.975Z</time></trkpt><trkpt lat="44.3637897" lon="8.2772295"><ele>368.25</ele><time>2026-05-03T11:28:04.976Z</time></trkpt><trkpt lat="44.3638058" lon="8.2774223"><ele>368.5</ele><time>2026-05-03T11:28:05.975Z</time></trkpt><trkpt lat="44.3638173" lon="8.2776212"><ele>368.75</ele><time>2026-05-03T11:28:06.975Z</time></trkpt><trkpt lat="44.3638239" lon="8.2778255"><ele>369.0</ele><time>2026-05-03T11:28:07.975Z</time></trkpt><trkpt lat="44.3638332" lon="8.2780396"><ele>368.6666666666667</ele><time>2026-05-03T11:28:08.975Z</time></trkpt><trkpt lat="44.3638421" lon="8.2782562"><ele>368.33333333333337</ele><time>2026-05-03T11:28:09.975Z</time></trkpt><trkpt lat="44.3638528" lon="8.2784811"><ele>368.0</ele><time>2026-05-03T11:28:10.976Z</time></trkpt><trkpt lat="44.3638626" lon="8.2787038"><ele>367.6666666666667</ele><time>2026-05-03T11:28:11.976Z</time></trkpt><trkpt lat="44.3638667" lon="8.2789248"><ele>367.3333333333333</ele><time>2026-05-03T11:28:12.975Z</time></trkpt><trkpt lat="44.3638649" lon="8.279144"><ele>367.0</ele><time>2026-05-03T11:28:13.976Z</time></trkpt><trkpt lat="44.3638554" lon="8.2793611"><ele>367.0</ele><time>2026-05-03T11:28:14.975Z</time></trkpt><trkpt lat="44.3638385" lon="8.2795787"><ele>367.0</ele><time>2026-05-03T11:28:15.975Z</time></trkpt><trkpt lat="44.3638144" lon="8.2797992"><ele>367.0</ele><time>2026-05-03T11:28:16.976Z</time></trkpt><trkpt lat="44.3637886" lon="8.2800178"><ele>366.5</ele><time>2026-05-03T11:28:17.975Z</time></trkpt><trkpt lat="44.3637586" lon="8.2802321"><ele>366.0</ele><time>2026-05-03T11:28:18.975Z</time></trkpt><trkpt lat="44.3637289" lon="8.2804314"><ele>365.5</ele><time>2026-05-03T11:28:19.975Z</time></trkpt><trkpt lat="44.3636997" lon="8.2806327"><ele>365.0</ele><time>2026-05-03T11:28:20.975Z</time></trkpt><trkpt lat="44.3636711" lon="8.2808315"><ele>364.5</ele><time>2026-05-03T11:28:21.975Z</time></trkpt><trkpt lat="44.3636453" lon="8.2810319"><ele>364.0</ele><time>2026-05-03T11:28:22.975Z</time></trkpt><trkpt lat="44.3636169" lon="8.281226"><ele>363.5</ele><time>2026-05-03T11:28:23.976Z</time></trkpt><trkpt lat="44.3635887" lon="8.2814256"><ele>363.0</ele><time>2026-05-03T11:28:24.975Z</time></trkpt><trkpt lat="44.3635576" lon="8.2816173"><ele>362.5</ele><time>2026-05-03T11:28:25.975Z</time></trkpt><trkpt lat="44.3635271" lon="8.2818035"><ele>362.0</ele><time>2026-05-03T11:28:26.975Z</time></trkpt><trkpt lat="44.3634984" lon="8.2819949"><ele>361.5</ele><time>2026-05-03T11:28:27.975Z</time></trkpt><trkpt lat="44.3634734" lon="8.2821916"><ele>361.0</ele><time>2026-05-03T11:28:28.975Z</time></trkpt><trkpt lat="44.3634518" lon="8.2823852"><ele>361.0</ele><time>2026-05-03T11:28:29.976Z</time></trkpt><trkpt lat="44.3634283" lon="8.2825613"><ele>361.0</ele><time>2026-05-03T11:28:30.975Z</time></trkpt><trkpt lat="44.3634077" lon="8.2827318"><ele>361.0</ele><time>2026-05-03T11:28:31.975Z</time></trkpt><trkpt lat="44.3633839" lon="8.2829102"><ele>361.0</ele><time>2026-05-03T11:28:32.976Z</time></trkpt><trkpt lat="44.363365" lon="8.2830926"><ele>360.25</ele><time>2026-05-03T11:28:33.975Z</time></trkpt><trkpt lat="44.3633441" lon="8.2832737"><ele>359.5</ele><time>2026-05-03T11:28:34.975Z</time></trkpt><trkpt lat="44.3633216" lon="8.2834525"><ele>358.75</ele><time>2026-05-03T11:28:35.976Z</time></trkpt><trkpt lat="44.3632963" lon="8.2836381"><ele>358.0</ele><time>2026-05-03T11:28:36.976Z</time></trkpt><trkpt lat="44.3632747" lon="8.2838215"><ele>358.0</ele><time>2026-05-03T11:28:37.975Z</time></trkpt><trkpt lat="44.3632551" lon="8.2840071"><ele>358.0</ele><time>2026-05-03T11:28:38.975Z</time></trkpt><trkpt lat="44.3632364" lon="8.2841848"><ele>358.0</ele><time>2026-05-03T11:28:39.975Z</time></trkpt><trkpt lat="44.3632144" lon="8.2843568"><ele>358.0</ele><time>2026-05-03T11:28:40.975Z</time></trkpt><trkpt lat="44.3631942" lon="8.2845222"><ele>358.0</ele><time>2026-05-03T11:28:41.975Z</time></trkpt><trkpt lat="44.3631717" lon="8.2846845"><ele>358.0</ele><time>2026-05-03T11:28:42.976Z</time></trkpt><trkpt lat="44.363143" lon="8.2848489"><ele>358.0</ele><time>2026-05-03T11:28:43.976Z</time></trkpt><trkpt lat="44.3631146" lon="8.2850137"><ele>358.0</ele><time>2026-05-03T11:28:44.975Z</time></trkpt><trkpt lat="44.3630872" lon="8.2851677"><ele>357.8333333333333</ele><time>2026-05-03T11:28:45.976Z</time></trkpt><trkpt lat="44.3630544" lon="8.2853055"><ele>357.66666666666663</ele><time>2026-05-03T11:28:46.976Z</time></trkpt><trkpt lat="44.3630096" lon="8.2854177"><ele>357.5</ele><time>2026-05-03T11:28:47.976Z</time></trkpt><trkpt lat="44.3629628" lon="8.2855063"><ele>357.3333333333333</ele><time>2026-05-03T11:28:48.975Z</time></trkpt><trkpt lat="44.3629097" lon="8.2855785"><ele>357.1666666666667</ele><time>2026-05-03T11:28:49.975Z</time></trkpt><trkpt lat="44.3628517" lon="8.2856352"><ele>357.0</ele><time>2026-05-03T11:28:50.975Z</time></trkpt><trkpt lat="44.3628048" lon="8.2856979"><ele>357.0</ele><time>2026-05-03T11:28:51.975Z</time></trkpt><trkpt lat="44.3627874" lon="8.2858284"><ele>357.0</ele><time>2026-05-03T11:28:53.975Z</time></trkpt><trkpt lat="44.3628453" lon="8.285975"><ele>357.0</ele><time>2026-05-03T11:28:55.976Z</time></trkpt><trkpt lat="44.3628777" lon="8.2860642"><ele>357.0</ele><time>2026-05-03T11:28:56.975Z</time></trkpt><trkpt lat="44.3629012" lon="8.2861631"><ele>357.0</ele><time>2026-05-03T11:28:57.975Z</time></trkpt><trkpt lat="44.3629114" lon="8.2862697"><ele>357.0</ele><time>2026-05-03T11:28:58.976Z</time></trkpt><trkpt lat="44.3629098" lon="8.2863909"><ele>356.8</ele><time>2026-05-03T11:28:59.975Z</time></trkpt><trkpt lat="44.3628944" lon="8.2865183"><ele>356.6</ele><time>2026-05-03T11:29:00.975Z</time></trkpt><trkpt lat="44.3628767" lon="8.2866581"><ele>356.40000000000003</ele><time>2026-05-03T11:29:01.975Z</time></trkpt><trkpt lat="44.3628585" lon="8.2868016"><ele>356.20000000000005</ele><time>2026-05-03T11:29:02.976Z</time></trkpt><trkpt lat="44.3628406" lon="8.2869455"><ele>356.0</ele><time>2026-05-03T11:29:03.976Z</time></trkpt><trkpt lat="44.3628194" lon="8.2870856"><ele>356.0</ele><time>2026-05-03T11:29:04.976Z</time></trkpt><trkpt lat="44.3627965" lon="8.2872288"><ele>356.0</ele><time>2026-05-03T11:29:05.975Z</time></trkpt><trkpt lat="44.3627793" lon="8.2873794"><ele>356.0</ele><time>2026-05-03T11:29:06.976Z</time></trkpt><trkpt lat="44.3627599" lon="8.2875397"><ele>356.0</ele><time>2026-05-03T11:29:07.975Z</time></trkpt><trkpt lat="44.3627424" lon="8.287706"><ele>355.25</ele><time>2026-05-03T11:29:08.975Z</time></trkpt><trkpt lat="44.3627208" lon="8.2878747"><ele>354.5</ele><time>2026-05-03T11:29:09.976Z</time></trkpt><trkpt lat="44.3626977" lon="8.2880421"><ele>353.75</ele><time>2026-05-03T11:29:10.975Z</time></trkpt><trkpt lat="44.3626682" lon="8.2882052"><ele>353.0</ele><time>2026-05-03T11:29:11.976Z</time></trkpt><trkpt lat="44.362643" lon="8.2883656"><ele>352.5</ele><time>2026-05-03T11:29:12.976Z</time></trkpt><trkpt lat="44.3626197" lon="8.2885231"><ele>352.0</ele><time>2026-05-03T11:29:13.976Z</time></trkpt><trkpt lat="44.3626021" lon="8.2886844"><ele>351.5</ele><time>2026-05-03T11:29:14.976Z</time></trkpt><trkpt lat="44.3625934" lon="8.2888415"><ele>351.0</ele><time>2026-05-03T11:29:15.975Z</time></trkpt><trkpt lat="44.3625996" lon="8.2889975"><ele>351.0</ele><time>2026-05-03T11:29:16.975Z</time></trkpt><trkpt lat="44.3626266" lon="8.2891499"><ele>351.0</ele><time>2026-05-03T11:29:17.975Z</time></trkpt><trkpt lat="44.3626626" lon="8.2892949"><ele>351.0</ele><time>2026-05-03T11:29:18.975Z</time></trkpt><trkpt lat="44.3626989" lon="8.2894335"><ele>351.0</ele><time>2026-05-03T11:29:19.975Z</time></trkpt><trkpt lat="44.362748" lon="8.2895548"><ele>351.0</ele><time>2026-05-03T11:29:20.975Z</time></trkpt><trkpt lat="44.3627983" lon="8.2896615"><ele>351.0</ele><time>2026-05-03T11:29:21.975Z</time></trkpt><trkpt lat="44.3628502" lon="8.2897575"><ele>351.0</ele><time>2026-05-03T11:29:22.975Z</time></trkpt><trkpt lat="44.3629011" lon="8.2898486"><ele>351.0</ele><time>2026-05-03T11:29:23.976Z</time></trkpt><trkpt lat="44.3629508" lon="8.2899376"><ele>351.0</ele><time>2026-05-03T11:29:24.976Z</time></trkpt><trkpt lat="44.3629935" lon="8.290017"><ele>351.0</ele><time>2026-05-03T11:29:25.976Z</time></trkpt><trkpt lat="44.3630294" lon="8.2901022"><ele>351.0</ele><time>2026-05-03T11:29:26.975Z</time></trkpt><trkpt lat="44.3630605" lon="8.290195"><ele>350.6666666666667</ele><time>2026-05-03T11:29:27.975Z</time></trkpt><trkpt lat="44.3630786" lon="8.2902987"><ele>350.3333333333333</ele><time>2026-05-03T11:29:28.975Z</time></trkpt><trkpt lat="44.3630833" lon="8.2904062"><ele>350.0</ele><time>2026-05-03T11:29:29.976Z</time></trkpt><trkpt lat="44.363069" lon="8.2904945"><ele>349.66666666666663</ele><time>2026-05-03T11:29:30.975Z</time></trkpt><trkpt lat="44.3629645" lon="8.2905949"><ele>349.3333333333333</ele><time>2026-05-03T11:29:32.976Z</time></trkpt><trkpt lat="44.3628722" lon="8.2906102"><ele>349.0</ele><time>2026-05-03T11:29:33.975Z</time></trkpt><trkpt lat="44.362751" lon="8.2906082"><ele>348.25</ele><time>2026-05-03T11:29:34.975Z</time></trkpt><trkpt lat="44.3626271" lon="8.2906034"><ele>347.5</ele><time>2026-05-03T11:29:35.975Z</time></trkpt><trkpt lat="44.3624957" lon="8.2906044"><ele>346.75</ele><time>2026-05-03T11:29:36.975Z</time></trkpt><trkpt lat="44.3623638" lon="8.290603"><ele>346.0</ele><time>2026-05-03T11:29:37.975Z</time></trkpt><trkpt lat="44.3622415" lon="8.2906049"><ele>346.5</ele><time>2026-05-03T11:29:38.975Z</time></trkpt><trkpt lat="44.3621213" lon="8.2906195"><ele>347.0</ele><time>2026-05-03T11:29:39.976Z</time></trkpt><trkpt lat="44.3620032" lon="8.2906538"><ele>347.5</ele><time>2026-05-03T11:29:40.976Z</time></trkpt><trkpt lat="44.3618878" lon="8.2907166"><ele>348.0</ele><time>2026-05-03T11:29:41.975Z</time></trkpt><trkpt lat="44.3617863" lon="8.290813"><ele>348.0</ele><time>2026-05-03T11:29:42.976Z</time></trkpt><trkpt lat="44.3616926" lon="8.2909317"><ele>348.0</ele><time>2026-05-03T11:29:43.976Z</time></trkpt><trkpt lat="44.3616112" lon="8.2910595"><ele>348.0</ele><time>2026-05-03T11:29:44.976Z</time></trkpt><trkpt lat="44.3615303" lon="8.2911938"><ele>348.0</ele><time>2026-05-03T11:29:45.975Z</time></trkpt><trkpt lat="44.3614515" lon="8.2913335"><ele>348.0</ele><time>2026-05-03T11:29:46.975Z</time></trkpt><trkpt lat="44.3613695" lon="8.2914704"><ele>348.0</ele><time>2026-05-03T11:29:47.975Z</time></trkpt><trkpt lat="44.3612803" lon="8.2916103"><ele>348.0</ele><time>2026-05-03T11:29:48.976Z</time></trkpt><trkpt lat="44.3611927" lon="8.2917508"><ele>348.0</ele><time>2026-05-03T11:29:49.976Z</time></trkpt><trkpt lat="44.3611063" lon="8.2918892"><ele>348.0</ele><time>2026-05-03T11:29:50.976Z</time></trkpt><trkpt lat="44.3610147" lon="8.2920093"><ele>348.0</ele><time>2026-05-03T11:29:51.975Z</time></trkpt><trkpt lat="44.3609017" lon="8.292086"><ele>348.0</ele><time>2026-05-03T11:29:52.976Z</time></trkpt><trkpt lat="44.3607651" lon="8.2921212"><ele>348.0</ele><time>2026-05-03T11:29:53.975Z</time></trkpt><trkpt lat="44.360627" lon="8.2921267"><ele>348.25</ele><time>2026-05-03T11:29:54.975Z</time></trkpt><trkpt lat="44.3604843" lon="8.2921232"><ele>348.5</ele><time>2026-05-03T11:29:55.975Z</time></trkpt><trkpt lat="44.3603408" lon="8.2921143"><ele>348.75</ele><time>2026-05-03T11:29:56.975Z</time></trkpt><trkpt lat="44.3602014" lon="8.2921099"><ele>349.0</ele><time>2026-05-03T11:29:57.975Z</time></trkpt><trkpt lat="44.3600645" lon="8.2921071"><ele>349.0</ele><time>2026-05-03T11:29:58.975Z</time></trkpt><trkpt lat="44.359928" lon="8.2921052"><ele>349.0</ele><time>2026-05-03T11:29:59.975Z</time></trkpt><trkpt lat="44.3597956" lon="8.2921047"><ele>349.0</ele><time>2026-05-03T11:30:00.976Z</time></trkpt><trkpt lat="44.3596623" lon="8.292103"><ele>349.0</ele><time>2026-05-03T11:30:01.974Z</time></trkpt><trkpt lat="44.3595229" lon="8.2921012"><ele>349.75</ele><time>2026-05-03T11:30:02.974Z</time></trkpt><trkpt lat="44.3593789" lon="8.2921015"><ele>350.5</ele><time>2026-05-03T11:30:03.974Z</time></trkpt><trkpt lat="44.3592326" lon="8.2920921"><ele>351.25</ele><time>2026-05-03T11:30:04.974Z</time></trkpt><trkpt lat="44.3590833" lon="8.292094"><ele>352.0</ele><time>2026-05-03T11:30:05.974Z</time></trkpt><trkpt lat="44.3589367" lon="8.2920957"><ele>352.0</ele><time>2026-05-03T11:30:06.975Z</time></trkpt><trkpt lat="44.3587872" lon="8.2920938"><ele>352.0</ele><time>2026-05-03T11:30:07.974Z</time></trkpt><trkpt lat="44.3586254" lon="8.2920931"><ele>352.0</ele><time>2026-05-03T11:30:08.974Z</time></trkpt><trkpt lat="44.3584543" lon="8.2920912"><ele>352.0</ele><time>2026-05-03T11:30:09.974Z</time></trkpt><trkpt lat="44.3582797" lon="8.2920908"><ele>352.0</ele><time>2026-05-03T11:30:10.974Z</time></trkpt><trkpt lat="44.3581224" lon="8.2920666"><ele>352.0</ele><time>2026-05-03T11:30:11.974Z</time></trkpt><trkpt lat="44.3579516" lon="8.292056"><ele>353.0</ele><time>2026-05-03T11:30:12.974Z</time></trkpt><trkpt lat="44.3577757" lon="8.2920445"><ele>354.0</ele><time>2026-05-03T11:30:13.975Z</time></trkpt><trkpt lat="44.3575991" lon="8.292021"><ele>355.0</ele><time>2026-05-03T11:30:14.974Z</time></trkpt><trkpt lat="44.3574211" lon="8.2920259"><ele>355.0</ele><time>2026-05-03T11:30:15.974Z</time></trkpt><trkpt lat="44.3572473" lon="8.2920135"><ele>355.0</ele><time>2026-05-03T11:30:16.974Z</time></trkpt><trkpt lat="44.3570773" lon="8.2919942"><ele>355.0</ele><time>2026-05-03T11:30:17.974Z</time></trkpt><trkpt lat="44.3569141" lon="8.2919663"><ele>356.66666666666663</ele><time>2026-05-03T11:30:18.974Z</time></trkpt><trkpt lat="44.3567574" lon="8.2919245"><ele>358.3333333333333</ele><time>2026-05-03T11:30:19.974Z</time></trkpt><trkpt lat="44.3566062" lon="8.2918685"><ele>360.0</ele><time>2026-05-03T11:30:20.974Z</time></trkpt><trkpt lat="44.3564587" lon="8.2918183"><ele>360.3333333333333</ele><time>2026-05-03T11:30:21.974Z</time></trkpt><trkpt lat="44.356312" lon="8.2917774"><ele>360.66666666666663</ele><time>2026-05-03T11:30:22.974Z</time></trkpt><trkpt lat="44.3561612" lon="8.2917537"><ele>361.0</ele><time>2026-05-03T11:30:23.974Z</time></trkpt><trkpt lat="44.3560126" lon="8.2917594"><ele>361.0</ele><time>2026-05-03T11:30:24.974Z</time></trkpt><trkpt lat="44.3558563" lon="8.2917918"><ele>361.0</ele><time>2026-05-03T11:30:25.975Z</time></trkpt><trkpt lat="44.3556997" lon="8.2918385"><ele>361.0</ele><time>2026-05-03T11:30:26.975Z</time></trkpt><trkpt lat="44.3555427" lon="8.2919273"><ele>361.3333333333333</ele><time>2026-05-03T11:30:27.975Z</time></trkpt><trkpt lat="44.3553943" lon="8.2920153"><ele>361.6666666666667</ele><time>2026-05-03T11:30:28.974Z</time></trkpt><trkpt lat="44.3552502" lon="8.2921015"><ele>362.0</ele><time>2026-05-03T11:30:29.974Z</time></trkpt><trkpt lat="44.3550943" lon="8.2921918"><ele>362.33333333333337</ele><time>2026-05-03T11:30:30.975Z</time></trkpt><trkpt lat="44.3549424" lon="8.292278"><ele>362.6666666666667</ele><time>2026-05-03T11:30:31.975Z</time></trkpt><trkpt lat="44.3547995" lon="8.2923538"><ele>363.0</ele><time>2026-05-03T11:30:32.974Z</time></trkpt><trkpt lat="44.3546519" lon="8.2924215"><ele>363.0</ele><time>2026-05-03T11:30:33.974Z</time></trkpt><trkpt lat="44.3544995" lon="8.2924975"><ele>363.0</ele><time>2026-05-03T11:30:34.974Z</time></trkpt><trkpt lat="44.3543483" lon="8.2925873"><ele>363.0</ele><time>2026-05-03T11:30:35.975Z</time></trkpt><trkpt lat="44.3541971" lon="8.2926744"><ele>363.0</ele><time>2026-05-03T11:30:36.975Z</time></trkpt><trkpt lat="44.3540458" lon="8.2927509"><ele>363.0</ele><time>2026-05-03T11:30:37.974Z</time></trkpt><trkpt lat="44.3539004" lon="8.2928226"><ele>363.0</ele><time>2026-05-03T11:30:38.975Z</time></trkpt><trkpt lat="44.3537569" lon="8.292891"><ele>363.0</ele><time>2026-05-03T11:30:39.975Z</time></trkpt><trkpt lat="44.3536189" lon="8.2929686"><ele>363.0</ele><time>2026-05-03T11:30:40.975Z</time></trkpt><trkpt lat="44.3534831" lon="8.2930575"><ele>363.0</ele><time>2026-05-03T11:30:41.974Z</time></trkpt><trkpt lat="44.3533522" lon="8.2931502"><ele>363.0</ele><time>2026-05-03T11:30:42.974Z</time></trkpt><trkpt lat="44.3532207" lon="8.293248"><ele>363.0</ele><time>2026-05-03T11:30:43.975Z</time></trkpt><trkpt lat="44.3530882" lon="8.2933579"><ele>363.0</ele><time>2026-05-03T11:30:44.974Z</time></trkpt><trkpt lat="44.3529545" lon="8.2934911"><ele>363.0</ele><time>2026-05-03T11:30:45.974Z</time></trkpt><trkpt lat="44.3528292" lon="8.2936335"><ele>363.25</ele><time>2026-05-03T11:30:46.975Z</time></trkpt><trkpt lat="44.3527219" lon="8.2937779"><ele>363.5</ele><time>2026-05-03T11:30:47.974Z</time></trkpt><trkpt lat="44.3526185" lon="8.2939306"><ele>363.75</ele><time>2026-05-03T11:30:48.974Z</time></trkpt><trkpt lat="44.3525187" lon="8.2940857"><ele>364.0</ele><time>2026-05-03T11:30:49.974Z</time></trkpt><trkpt lat="44.3524124" lon="8.2942471"><ele>364.0</ele><time>2026-05-03T11:30:50.974Z</time></trkpt><trkpt lat="44.3523097" lon="8.2944067"><ele>364.0</ele><time>2026-05-03T11:30:51.974Z</time></trkpt><trkpt lat="44.3522021" lon="8.2945659"><ele>364.0</ele><time>2026-05-03T11:30:52.974Z</time></trkpt><trkpt lat="44.3520969" lon="8.2947234"><ele>364.3333333333333</ele><time>2026-05-03T11:30:53.974Z</time></trkpt><trkpt lat="44.3519872" lon="8.2948866"><ele>364.6666666666667</ele><time>2026-05-03T11:30:54.974Z</time></trkpt><trkpt lat="44.3518844" lon="8.2950448"><ele>365.0</ele><time>2026-05-03T11:30:55.974Z</time></trkpt><trkpt lat="44.3517747" lon="8.2952028"><ele>365.0</ele><time>2026-05-03T11:30:56.975Z</time></trkpt><trkpt lat="44.3516643" lon="8.2953561"><ele>365.0</ele><time>2026-05-03T11:30:57.974Z</time></trkpt><trkpt lat="44.351549" lon="8.2955096"><ele>365.0</ele><time>2026-05-03T11:30:58.974Z</time></trkpt><trkpt lat="44.3514413" lon="8.2956682"><ele>365.33333333333337</ele><time>2026-05-03T11:30:59.975Z</time></trkpt><trkpt lat="44.3513333" lon="8.295822"><ele>365.6666666666667</ele><time>2026-05-03T11:31:00.975Z</time></trkpt><trkpt lat="44.3512336" lon="8.2959823"><ele>366.0</ele><time>2026-05-03T11:31:01.975Z</time></trkpt><trkpt lat="44.3511383" lon="8.2961551"><ele>366.0</ele><time>2026-05-03T11:31:02.974Z</time></trkpt><trkpt lat="44.3510512" lon="8.2963466"><ele>366.0</ele><time>2026-05-03T11:31:03.974Z</time></trkpt><trkpt lat="44.350971" lon="8.2965445"><ele>366.0</ele><time>2026-05-03T11:31:04.974Z</time></trkpt><trkpt lat="44.3508951" lon="8.296744"><ele>367.0</ele><time>2026-05-03T11:31:05.974Z</time></trkpt><trkpt lat="44.350813" lon="8.2969315"><ele>368.0</ele><time>2026-05-03T11:31:06.975Z</time></trkpt><trkpt lat="44.3507143" lon="8.2971031"><ele>369.0</ele><time>2026-05-03T11:31:07.974Z</time></trkpt><trkpt lat="44.3506039" lon="8.2972595"><ele>370.0</ele><time>2026-05-03T11:31:08.974Z</time></trkpt><trkpt lat="44.3504898" lon="8.2974198"><ele>371.0</ele><time>2026-05-03T11:31:09.974Z</time></trkpt><trkpt lat="44.350374" lon="8.2975715"><ele>372.0</ele><time>2026-05-03T11:31:10.975Z</time></trkpt><trkpt lat="44.3502483" lon="8.2977233"><ele>372.0</ele><time>2026-05-03T11:31:11.974Z</time></trkpt><trkpt lat="44.3501291" lon="8.297875"><ele>372.0</ele><time>2026-05-03T11:31:12.975Z</time></trkpt><trkpt lat="44.3500069" lon="8.2980253"><ele>372.0</ele><time>2026-05-03T11:31:13.974Z</time></trkpt><trkpt lat="44.3498888" lon="8.2981797"><ele>372.75</ele><time>2026-05-03T11:31:14.974Z</time></trkpt><trkpt lat="44.349777" lon="8.2983257"><ele>373.5</ele><time>2026-05-03T11:31:15.974Z</time></trkpt><trkpt lat="44.349668" lon="8.298472"><ele>374.25</ele><time>2026-05-03T11:31:16.974Z</time></trkpt><trkpt lat="44.3495673" lon="8.298618"><ele>375.0</ele><time>2026-05-03T11:31:17.974Z</time></trkpt><trkpt lat="44.3494622" lon="8.298761"><ele>375.0</ele><time>2026-05-03T11:31:18.975Z</time></trkpt><trkpt lat="44.3493551" lon="8.298898"><ele>375.0</ele><time>2026-05-03T11:31:19.974Z</time></trkpt><trkpt lat="44.3492474" lon="8.299043"><ele>375.0</ele><time>2026-05-03T11:31:20.974Z</time></trkpt><trkpt lat="44.3491356" lon="8.2991793"><ele>375.0</ele><time>2026-05-03T11:31:21.975Z</time></trkpt><trkpt lat="44.3490385" lon="8.2993128"><ele>375.75</ele><time>2026-05-03T11:31:22.974Z</time></trkpt><trkpt lat="44.348933" lon="8.2994501"><ele>376.5</ele><time>2026-05-03T11:31:23.975Z</time></trkpt><trkpt lat="44.34882" lon="8.2995759"><ele>377.25</ele><time>2026-05-03T11:31:24.975Z</time></trkpt><trkpt lat="44.3487169" lon="8.2996971"><ele>378.0</ele><time>2026-05-03T11:31:25.975Z</time></trkpt><trkpt lat="44.3486108" lon="8.2998114"><ele>380.0</ele><time>2026-05-03T11:31:26.975Z</time></trkpt><trkpt lat="44.3485029" lon="8.2999195"><ele>382.0</ele><time>2026-05-03T11:31:27.974Z</time></trkpt><trkpt lat="44.3483861" lon="8.3000318"><ele>384.0</ele><time>2026-05-03T11:31:28.975Z</time></trkpt><trkpt lat="44.3482613" lon="8.300145"><ele>386.0</ele><time>2026-05-03T11:31:29.975Z</time></trkpt><trkpt lat="44.3481357" lon="8.3002617"><ele>386.66666666666663</ele><time>2026-05-03T11:31:30.974Z</time></trkpt><trkpt lat="44.3480239" lon="8.3004"><ele>387.33333333333337</ele><time>2026-05-03T11:31:31.975Z</time></trkpt><trkpt lat="44.3479248" lon="8.3005614"><ele>388.0</ele><time>2026-05-03T11:31:32.975Z</time></trkpt><trkpt lat="44.3478291" lon="8.3007294"><ele>389.25</ele><time>2026-05-03T11:31:33.974Z</time></trkpt><trkpt lat="44.3477494" lon="8.3008959"><ele>390.5</ele><time>2026-05-03T11:31:34.975Z</time></trkpt><trkpt lat="44.3476793" lon="8.3010649"><ele>391.75</ele><time>2026-05-03T11:31:35.974Z</time></trkpt><trkpt lat="44.3476175" lon="8.3012366"><ele>393.0</ele><time>2026-05-03T11:31:36.975Z</time></trkpt><trkpt lat="44.3475672" lon="8.3014038"><ele>393.59999999999997</ele><time>2026-05-03T11:31:37.974Z</time></trkpt><trkpt lat="44.347533" lon="8.3015631"><ele>394.2</ele><time>2026-05-03T11:31:38.975Z</time></trkpt><trkpt lat="44.3475049" lon="8.3017127"><ele>394.8</ele><time>2026-05-03T11:31:39.975Z</time></trkpt><trkpt lat="44.3474741" lon="8.3018536"><ele>395.4</ele><time>2026-05-03T11:31:40.975Z</time></trkpt><trkpt lat="44.3474393" lon="8.301983"><ele>396.0</ele><time>2026-05-03T11:31:41.974Z</time></trkpt><trkpt lat="44.3473949" lon="8.3020959"><ele>396.0</ele><time>2026-05-03T11:31:42.974Z</time></trkpt><trkpt lat="44.3473448" lon="8.3021942"><ele>396.0</ele><time>2026-05-03T11:31:43.975Z</time></trkpt><trkpt lat="44.3472902" lon="8.3022721"><ele>396.0</ele><time>2026-05-03T11:31:44.974Z</time></trkpt><trkpt lat="44.3471877" lon="8.3023583"><ele>396.0</ele><time>2026-05-03T11:31:46.974Z</time></trkpt><trkpt lat="44.3471502" lon="8.3025048"><ele>396.0</ele><time>2026-05-03T11:31:48.975Z</time></trkpt><trkpt lat="44.3471614" lon="8.3026109"><ele>397.8</ele><time>2026-05-03T11:31:49.974Z</time></trkpt><trkpt lat="44.3471808" lon="8.3027369"><ele>399.6</ele><time>2026-05-03T11:31:50.974Z</time></trkpt><trkpt lat="44.3471855" lon="8.3028718"><ele>401.4</ele><time>2026-05-03T11:31:51.974Z</time></trkpt><trkpt lat="44.3471777" lon="8.3030194"><ele>403.2</ele><time>2026-05-03T11:31:52.975Z</time></trkpt><trkpt lat="44.3471491" lon="8.3031675"><ele>405.0</ele><time>2026-05-03T11:31:53.974Z</time></trkpt><trkpt lat="44.3471087" lon="8.3033219"><ele>405.25</ele><time>2026-05-03T11:31:54.975Z</time></trkpt><trkpt lat="44.3470492" lon="8.3034855"><ele>405.5</ele><time>2026-05-03T11:31:55.975Z</time></trkpt><trkpt lat="44.3469931" lon="8.3036536"><ele>405.75</ele><time>2026-05-03T11:31:56.974Z</time></trkpt><trkpt lat="44.3469494" lon="8.303829"><ele>406.0</ele><time>2026-05-03T11:31:57.974Z</time></trkpt><trkpt lat="44.3469022" lon="8.3040144"><ele>405.33333333333337</ele><time>2026-05-03T11:31:58.974Z</time></trkpt><trkpt lat="44.3468417" lon="8.3042249"><ele>404.66666666666663</ele><time>2026-05-03T11:31:59.974Z</time></trkpt><trkpt lat="44.3467865" lon="8.3044516"><ele>404.0</ele><time>2026-05-03T11:32:00.975Z</time></trkpt><trkpt lat="44.3467722" lon="8.3046631"><ele>403.66666666666663</ele><time>2026-05-03T11:32:01.975Z</time></trkpt><trkpt lat="44.3467695" lon="8.3048706"><ele>403.33333333333337</ele><time>2026-05-03T11:32:02.974Z</time></trkpt><trkpt lat="44.3467896" lon="8.305075"><ele>403.0</ele><time>2026-05-03T11:32:03.975Z</time></trkpt><trkpt lat="44.3468075" lon="8.3052885"><ele>403.0</ele><time>2026-05-03T11:32:04.975Z</time></trkpt><trkpt lat="44.3468331" lon="8.3055035"><ele>403.0</ele><time>2026-05-03T11:32:05.974Z</time></trkpt><trkpt lat="44.3468614" lon="8.3057165"><ele>403.0</ele><time>2026-05-03T11:32:06.975Z</time></trkpt><trkpt lat="44.346883" lon="8.3059277"><ele>401.6666666666667</ele><time>2026-05-03T11:32:07.975Z</time></trkpt><trkpt lat="44.346902" lon="8.3061434"><ele>400.33333333333337</ele><time>2026-05-03T11:32:08.975Z</time></trkpt><trkpt lat="44.3469095" lon="8.306358"><ele>399.0</ele><time>2026-05-03T11:32:09.975Z</time></trkpt><trkpt lat="44.3469322" lon="8.306566"><ele>397.66666666666663</ele><time>2026-05-03T11:32:10.975Z</time></trkpt><trkpt lat="44.3469612" lon="8.3067703"><ele>396.3333333333333</ele><time>2026-05-03T11:32:11.974Z</time></trkpt><trkpt lat="44.3470116" lon="8.3069715"><ele>395.0</ele><time>2026-05-03T11:32:12.974Z</time></trkpt><trkpt lat="44.3470815" lon="8.3071617"><ele>393.66666666666663</ele><time>2026-05-03T11:32:13.974Z</time></trkpt><trkpt lat="44.3471616" lon="8.3073499"><ele>392.33333333333337</ele><time>2026-05-03T11:32:14.974Z</time></trkpt><trkpt lat="44.3472527" lon="8.3075281"><ele>391.0</ele><time>2026-05-03T11:32:15.975Z</time></trkpt><trkpt lat="44.3473445" lon="8.3077175"><ele>392.33333333333337</ele><time>2026-05-03T11:32:16.974Z</time></trkpt><trkpt lat="44.3474222" lon="8.3079067"><ele>393.66666666666663</ele><time>2026-05-03T11:32:17.974Z</time></trkpt><trkpt lat="44.3474749" lon="8.308099"><ele>395.0</ele><time>2026-05-03T11:32:18.975Z</time></trkpt><trkpt lat="44.3474957" lon="8.3083073"><ele>395.0</ele><time>2026-05-03T11:32:19.974Z</time></trkpt><trkpt lat="44.3474827" lon="8.3085345"><ele>395.0</ele><time>2026-05-03T11:32:20.974Z</time></trkpt><trkpt lat="44.3474375" lon="8.3087597"><ele>395.0</ele><time>2026-05-03T11:32:21.974Z</time></trkpt><trkpt lat="44.3473561" lon="8.3089626"><ele>395.75</ele><time>2026-05-03T11:32:22.975Z</time></trkpt><trkpt lat="44.3472607" lon="8.3091333"><ele>396.5</ele><time>2026-05-03T11:32:23.974Z</time></trkpt><trkpt lat="44.3471664" lon="8.3092809"><ele>397.25</ele><time>2026-05-03T11:32:24.974Z</time></trkpt><trkpt lat="44.3470707" lon="8.3094218"><ele>398.0</ele><time>2026-05-03T11:32:25.974Z</time></trkpt><trkpt lat="44.346987" lon="8.3095581"><ele>396.25</ele><time>2026-05-03T11:32:26.975Z</time></trkpt><trkpt lat="44.3469217" lon="8.3097055"><ele>394.5</ele><time>2026-05-03T11:32:27.975Z</time></trkpt><trkpt lat="44.3468751" lon="8.3098538"><ele>392.75</ele><time>2026-05-03T11:32:28.974Z</time></trkpt><trkpt lat="44.3468443" lon="8.3100186"><ele>391.0</ele><time>2026-05-03T11:32:29.974Z</time></trkpt><trkpt lat="44.3468314" lon="8.3101891"><ele>391.0</ele><time>2026-05-03T11:32:30.974Z</time></trkpt><trkpt lat="44.3468284" lon="8.3103647"><ele>391.0</ele><time>2026-05-03T11:32:31.974Z</time></trkpt><trkpt lat="44.3468323" lon="8.3105445"><ele>391.0</ele><time>2026-05-03T11:32:32.975Z</time></trkpt><trkpt lat="44.3468373" lon="8.310736"><ele>391.0</ele><time>2026-05-03T11:32:33.974Z</time></trkpt><trkpt lat="44.3468418" lon="8.3109416"><ele>390.33333333333337</ele><time>2026-05-03T11:32:34.974Z</time></trkpt><trkpt lat="44.3468506" lon="8.3111509"><ele>389.66666666666663</ele><time>2026-05-03T11:32:35.975Z</time></trkpt><trkpt lat="44.3468544" lon="8.3113647"><ele>389.0</ele><time>2026-05-03T11:32:36.974Z</time></trkpt><trkpt lat="44.3468615" lon="8.3115696"><ele>387.3333333333333</ele><time>2026-05-03T11:32:37.974Z</time></trkpt><trkpt lat="44.3468621" lon="8.3117832"><ele>385.66666666666663</ele><time>2026-05-03T11:32:38.974Z</time></trkpt><trkpt lat="44.346863" lon="8.3120036"><ele>384.0</ele><time>2026-05-03T11:32:39.974Z</time></trkpt><trkpt lat="44.3468598" lon="8.3122292"><ele>385.0</ele><time>2026-05-03T11:32:40.975Z</time></trkpt><trkpt lat="44.3468341" lon="8.3124485"><ele>386.0</ele><time>2026-05-03T11:32:41.975Z</time></trkpt><trkpt lat="44.3468103" lon="8.3126683"><ele>387.0</ele><time>2026-05-03T11:32:42.974Z</time></trkpt><trkpt lat="44.3467775" lon="8.312884"><ele>385.0</ele><time>2026-05-03T11:32:43.974Z</time></trkpt><trkpt lat="44.3467351" lon="8.3130973"><ele>383.0</ele><time>2026-05-03T11:32:44.974Z</time></trkpt><trkpt lat="44.3466776" lon="8.3133061"><ele>381.0</ele><time>2026-05-03T11:32:45.975Z</time></trkpt><trkpt lat="44.3466101" lon="8.3135074"><ele>381.0</ele><time>2026-05-03T11:32:46.974Z</time></trkpt><trkpt lat="44.3465293" lon="8.3136966"><ele>381.0</ele><time>2026-05-03T11:32:47.974Z</time></trkpt><trkpt lat="44.3464451" lon="8.3138798"><ele>381.0</ele><time>2026-05-03T11:32:48.974Z</time></trkpt><trkpt lat="44.3463665" lon="8.3140617"><ele>383.0</ele><time>2026-05-03T11:32:49.974Z</time></trkpt><trkpt lat="44.3462958" lon="8.3142384"><ele>385.0</ele><time>2026-05-03T11:32:50.974Z</time></trkpt><trkpt lat="44.3462216" lon="8.3143963"><ele>387.0</ele><time>2026-05-03T11:32:51.974Z</time></trkpt><trkpt lat="44.3461481" lon="8.3145647"><ele>389.0</ele><time>2026-05-03T11:32:52.975Z</time></trkpt><trkpt lat="44.346074" lon="8.3147367"><ele>388.0</ele><time>2026-05-03T11:32:53.974Z</time></trkpt><trkpt lat="44.3460136" lon="8.3149205"><ele>387.0</ele><time>2026-05-03T11:32:54.974Z</time></trkpt><trkpt lat="44.3459573" lon="8.3151078"><ele>386.0</ele><time>2026-05-03T11:32:55.974Z</time></trkpt><trkpt lat="44.345913" lon="8.315308"><ele>385.0</ele><time>2026-05-03T11:32:56.975Z</time></trkpt><trkpt lat="44.3458659" lon="8.3155078"><ele>384.33333333333337</ele><time>2026-05-03T11:32:57.974Z</time></trkpt><trkpt lat="44.3458254" lon="8.3157096"><ele>383.6666666666667</ele><time>2026-05-03T11:32:58.975Z</time></trkpt><trkpt lat="44.3457801" lon="8.3159105"><ele>383.0</ele><time>2026-05-03T11:32:59.974Z</time></trkpt><trkpt lat="44.3457244" lon="8.3161146"><ele>383.0</ele><time>2026-05-03T11:33:00.974Z</time></trkpt><trkpt lat="44.3456736" lon="8.3163197"><ele>383.0</ele><time>2026-05-03T11:33:01.975Z</time></trkpt><trkpt lat="44.3456471" lon="8.3165176"><ele>383.0</ele><time>2026-05-03T11:33:02.975Z</time></trkpt><trkpt lat="44.3456318" lon="8.3167172"><ele>383.0</ele><time>2026-05-03T11:33:03.974Z</time></trkpt><trkpt lat="44.3456206" lon="8.3169147"><ele>382.25</ele><time>2026-05-03T11:33:04.975Z</time></trkpt><trkpt lat="44.3456043" lon="8.3171086"><ele>381.5</ele><time>2026-05-03T11:33:05.974Z</time></trkpt><trkpt lat="44.3455757" lon="8.3172983"><ele>380.75</ele><time>2026-05-03T11:33:06.974Z</time></trkpt><trkpt lat="44.3455453" lon="8.3174848"><ele>380.0</ele><time>2026-05-03T11:33:07.975Z</time></trkpt><trkpt lat="44.3455165" lon="8.3176709"><ele>386.0</ele><time>2026-05-03T11:33:08.974Z</time></trkpt><trkpt lat="44.3454857" lon="8.3178643"><ele>392.0</ele><time>2026-05-03T11:33:09.974Z</time></trkpt><trkpt lat="44.3454553" lon="8.3180577"><ele>398.0</ele><time>2026-05-03T11:33:10.974Z</time></trkpt><trkpt lat="44.3454226" lon="8.3182522"><ele>404.0</ele><time>2026-05-03T11:33:11.975Z</time></trkpt><trkpt lat="44.3453896" lon="8.3184504"><ele>404.0</ele><time>2026-05-03T11:33:12.975Z</time></trkpt><trkpt lat="44.345356" lon="8.3186405"><ele>404.0</ele><time>2026-05-03T11:33:13.975Z</time></trkpt><trkpt lat="44.3453191" lon="8.318824"><ele>404.0</ele><time>2026-05-03T11:33:14.974Z</time></trkpt><trkpt lat="44.3452857" lon="8.3189963"><ele>404.0</ele><time>2026-05-03T11:33:15.974Z</time></trkpt><trkpt lat="44.3452652" lon="8.3191627"><ele>404.0</ele><time>2026-05-03T11:33:16.975Z</time></trkpt><trkpt lat="44.3452547" lon="8.3193305"><ele>404.0</ele><time>2026-05-03T11:33:17.974Z</time></trkpt><trkpt lat="44.3452616" lon="8.3195015"><ele>404.0</ele><time>2026-05-03T11:33:18.974Z</time></trkpt><trkpt lat="44.3452936" lon="8.3196637"><ele>404.0</ele><time>2026-05-03T11:33:19.974Z</time></trkpt><trkpt lat="44.3453413" lon="8.3198164"><ele>405.3333333333333</ele><time>2026-05-03T11:33:20.974Z</time></trkpt><trkpt lat="44.3453844" lon="8.3199418"><ele>406.66666666666663</ele><time>2026-05-03T11:33:21.974Z</time></trkpt><trkpt lat="44.3454256" lon="8.3200501"><ele>408.0</ele><time>2026-05-03T11:33:22.974Z</time></trkpt><trkpt lat="44.3454613" lon="8.3201508"><ele>409.33333333333337</ele><time>2026-05-03T11:33:23.975Z</time></trkpt><trkpt lat="44.3454959" lon="8.3202377"><ele>410.6666666666667</ele><time>2026-05-03T11:33:24.975Z</time></trkpt><trkpt lat="44.3455372" lon="8.3203689"><ele>412.0</ele><time>2026-05-03T11:33:26.974Z</time></trkpt><trkpt lat="44.3455608" lon="8.3204906"><ele>410.0</ele><time>2026-05-03T11:33:29.974Z</time></trkpt><trkpt lat="44.3455612" lon="8.3206062"><ele>408.0</ele><time>2026-05-03T11:33:31.975Z</time></trkpt><trkpt lat="44.3455466" lon="8.3207384"><ele>406.0</ele><time>2026-05-03T11:33:33.974Z</time></trkpt><trkpt lat="44.3455089" lon="8.32089"><ele>404.0</ele><time>2026-05-03T11:33:35.975Z</time></trkpt><trkpt lat="44.3454828" lon="8.3209912"><ele>402.0</ele><time>2026-05-03T11:33:36.975Z</time></trkpt><trkpt lat="44.3454505" lon="8.3210955"><ele>402.0</ele><time>2026-05-03T11:33:37.974Z</time></trkpt><trkpt lat="44.3454122" lon="8.3212019"><ele>402.0</ele><time>2026-05-03T11:33:38.974Z</time></trkpt><trkpt lat="44.345356" lon="8.3213028"><ele>402.0</ele><time>2026-05-03T11:33:39.974Z</time></trkpt><trkpt lat="44.345288" lon="8.321412"><ele>402.0</ele><time>2026-05-03T11:33:40.975Z</time></trkpt><trkpt lat="44.3452073" lon="8.321515"><ele>402.0</ele><time>2026-05-03T11:33:41.974Z</time></trkpt><trkpt lat="44.3451226" lon="8.3216123"><ele>397.75</ele><time>2026-05-03T11:33:42.975Z</time></trkpt><trkpt lat="44.3450295" lon="8.3217163"><ele>393.5</ele><time>2026-05-03T11:33:43.974Z</time></trkpt><trkpt lat="44.3449262" lon="8.3218106"><ele>389.25</ele><time>2026-05-03T11:33:44.975Z</time></trkpt><trkpt lat="44.3448217" lon="8.3219075"><ele>385.0</ele><time>2026-05-03T11:33:45.974Z</time></trkpt><trkpt lat="44.3447232" lon="8.3220056"><ele>384.0</ele><time>2026-05-03T11:33:46.975Z</time></trkpt><trkpt lat="44.3446205" lon="8.322103"><ele>383.0</ele><time>2026-05-03T11:33:47.974Z</time></trkpt><trkpt lat="44.3445117" lon="8.3221949"><ele>382.0</ele><time>2026-05-03T11:33:48.974Z</time></trkpt><trkpt lat="44.3444029" lon="8.3222841"><ele>381.0</ele><time>2026-05-03T11:33:49.974Z</time></trkpt><trkpt lat="44.3442994" lon="8.3223728"><ele>381.0</ele><time>2026-05-03T11:33:50.975Z</time></trkpt><trkpt lat="44.3441959" lon="8.3224598"><ele>381.0</ele><time>2026-05-03T11:33:51.975Z</time></trkpt><trkpt lat="44.3440946" lon="8.3225474"><ele>381.0</ele><time>2026-05-03T11:33:52.975Z</time></trkpt><trkpt lat="44.3439917" lon="8.3226407"><ele>381.0</ele><time>2026-05-03T11:33:53.975Z</time></trkpt><trkpt lat="44.3438897" lon="8.322739"><ele>380.8</ele><time>2026-05-03T11:33:54.975Z</time></trkpt><trkpt lat="44.343793" lon="8.3228332"><ele>380.6</ele><time>2026-05-03T11:33:55.975Z</time></trkpt><trkpt lat="44.3437007" lon="8.3229287"><ele>380.4</ele><time>2026-05-03T11:33:56.974Z</time></trkpt><trkpt lat="44.3436123" lon="8.3230198"><ele>380.2</ele><time>2026-05-03T11:33:57.974Z</time></trkpt><trkpt lat="44.343535" lon="8.3231114"><ele>380.0</ele><time>2026-05-03T11:33:58.975Z</time></trkpt><trkpt lat="44.3434674" lon="8.3231948"><ele>380.0</ele><time>2026-05-03T11:33:59.974Z</time></trkpt><trkpt lat="44.3434069" lon="8.3232611"><ele>380.0</ele><time>2026-05-03T11:34:00.974Z</time></trkpt><trkpt lat="44.3433557" lon="8.3233222"><ele>380.0</ele><time>2026-05-03T11:34:01.975Z</time></trkpt><trkpt lat="44.3432574" lon="8.323426"><ele>380.0</ele><time>2026-05-03T11:34:03.975Z</time></trkpt><trkpt lat="44.3432002" lon="8.3234851"><ele>380.0</ele><time>2026-05-03T11:34:04.975Z</time></trkpt><trkpt lat="44.34313" lon="8.3235492"><ele>380.0</ele><time>2026-05-03T11:34:05.974Z</time></trkpt><trkpt lat="44.3430494" lon="8.3236198"><ele>380.2</ele><time>2026-05-03T11:34:06.974Z</time></trkpt><trkpt lat="44.342965" lon="8.3236964"><ele>380.4</ele><time>2026-05-03T11:34:07.975Z</time></trkpt><trkpt lat="44.342875" lon="8.3237809"><ele>380.6</ele><time>2026-05-03T11:34:08.974Z</time></trkpt><trkpt lat="44.3427856" lon="8.3238761"><ele>380.8</ele><time>2026-05-03T11:34:09.974Z</time></trkpt><trkpt lat="44.3426868" lon="8.3239824"><ele>381.0</ele><time>2026-05-03T11:34:10.974Z</time></trkpt><trkpt lat="44.3425771" lon="8.3240848"><ele>381.0</ele><time>2026-05-03T11:34:11.974Z</time></trkpt><trkpt lat="44.3424663" lon="8.3241835"><ele>381.0</ele><time>2026-05-03T11:34:12.974Z</time></trkpt><trkpt lat="44.3423592" lon="8.3242842"><ele>381.0</ele><time>2026-05-03T11:34:13.974Z</time></trkpt><trkpt lat="44.3422453" lon="8.3243893"><ele>381.0</ele><time>2026-05-03T11:34:14.975Z</time></trkpt><trkpt lat="44.3421336" lon="8.324513"><ele>380.6666666666667</ele><time>2026-05-03T11:34:15.974Z</time></trkpt><trkpt lat="44.3420261" lon="8.3246502"><ele>380.33333333333337</ele><time>2026-05-03T11:34:16.975Z</time></trkpt><trkpt lat="44.3419216" lon="8.3248082"><ele>380.0</ele><time>2026-05-03T11:34:17.974Z</time></trkpt><trkpt lat="44.3418269" lon="8.3249823"><ele>380.0</ele><time>2026-05-03T11:34:18.974Z</time></trkpt><trkpt lat="44.3417424" lon="8.3251608"><ele>380.0</ele><time>2026-05-03T11:34:19.974Z</time></trkpt><trkpt lat="44.3416806" lon="8.3253422"><ele>380.0</ele><time>2026-05-03T11:34:20.974Z</time></trkpt><trkpt lat="44.3416307" lon="8.3255311"><ele>380.0</ele><time>2026-05-03T11:34:21.974Z</time></trkpt><trkpt lat="44.3415839" lon="8.3257295"><ele>380.33333333333337</ele><time>2026-05-03T11:34:22.975Z</time></trkpt><trkpt lat="44.341545" lon="8.3259379"><ele>380.6666666666667</ele><time>2026-05-03T11:34:23.974Z</time></trkpt><trkpt lat="44.3415183" lon="8.3261569"><ele>381.0</ele><time>2026-05-03T11:34:24.975Z</time></trkpt><trkpt lat="44.3415057" lon="8.3263886"><ele>382.66666666666663</ele><time>2026-05-03T11:34:25.975Z</time></trkpt><trkpt lat="44.3415075" lon="8.3266306"><ele>384.3333333333333</ele><time>2026-05-03T11:34:26.975Z</time></trkpt><trkpt lat="44.3415154" lon="8.3268729"><ele>386.0</ele><time>2026-05-03T11:34:27.975Z</time></trkpt><trkpt lat="44.3415138" lon="8.3271229"><ele>393.0</ele><time>2026-05-03T11:34:28.974Z</time></trkpt><trkpt lat="44.3415173" lon="8.3273771"><ele>400.0</ele><time>2026-05-03T11:34:29.974Z</time></trkpt><trkpt lat="44.3415197" lon="8.3276301"><ele>407.0</ele><time>2026-05-03T11:34:30.974Z</time></trkpt><trkpt lat="44.3415167" lon="8.3278764"><ele>412.5</ele><time>2026-05-03T11:34:31.974Z</time></trkpt><trkpt lat="44.3415158" lon="8.3281257"><ele>418.0</ele><time>2026-05-03T11:34:32.974Z</time></trkpt><trkpt lat="44.3384967" lon="8.350845"><ele>419.5</ele><time>2026-05-03T11:36:15.999Z</time></trkpt><trkpt lat="44.338417" lon="8.3509493"><ele>421.0</ele><time>2026-05-03T11:36:17Z</time></trkpt><trkpt lat="44.3383283" lon="8.3510643"><ele>422.5</ele><time>2026-05-03T11:36:17.999Z</time></trkpt><trkpt lat="44.3382352" lon="8.3511823"><ele>424.0</ele><time>2026-05-03T11:36:19Z</time></trkpt><trkpt lat="44.3381535" lon="8.3513011"><ele>424.5</ele><time>2026-05-03T11:36:19.999Z</time></trkpt><trkpt lat="44.3380677" lon="8.351412"><ele>425.0</ele><time>2026-05-03T11:36:20.999Z</time></trkpt><trkpt lat="44.3379769" lon="8.3515224"><ele>425.5</ele><time>2026-05-03T11:36:21.999Z</time></trkpt><trkpt lat="44.3378678" lon="8.3516391"><ele>426.0</ele><time>2026-05-03T11:36:22.999Z</time></trkpt><trkpt lat="44.3377626" lon="8.3517573"><ele>426.0</ele><time>2026-05-03T11:36:23.999Z</time></trkpt><trkpt lat="44.3376602" lon="8.3518811"><ele>426.0</ele><time>2026-05-03T11:36:24.999Z</time></trkpt><trkpt lat="44.3375709" lon="8.3520056"><ele>426.0</ele><time>2026-05-03T11:36:25.999Z</time></trkpt><trkpt lat="44.337486" lon="8.352137"><ele>426.0</ele><time>2026-05-03T11:36:27Z</time></trkpt><trkpt lat="44.3373985" lon="8.3522739"><ele>423.75</ele><time>2026-05-03T11:36:27.999Z</time></trkpt><trkpt lat="44.3373088" lon="8.3524112"><ele>421.5</ele><time>2026-05-03T11:36:28.999Z</time></trkpt><trkpt lat="44.3372273" lon="8.352563"><ele>419.25</ele><time>2026-05-03T11:36:29.999Z</time></trkpt><trkpt lat="44.3371557" lon="8.3527143"><ele>417.0</ele><time>2026-05-03T11:36:31Z</time></trkpt><trkpt lat="44.337079" lon="8.3528601"><ele>416.25</ele><time>2026-05-03T11:36:32Z</time></trkpt><trkpt lat="44.3370188" lon="8.3530114"><ele>415.5</ele><time>2026-05-03T11:36:32.999Z</time></trkpt><trkpt lat="44.3369422" lon="8.353156"><ele>414.75</ele><time>2026-05-03T11:36:33.999Z</time></trkpt><trkpt lat="44.3368541" lon="8.3532965"><ele>414.0</ele><time>2026-05-03T11:36:35Z</time></trkpt><trkpt lat="44.3367699" lon="8.3534422"><ele>411.0</ele><time>2026-05-03T11:36:35.999Z</time></trkpt><trkpt lat="44.3366915" lon="8.3535968"><ele>408.0</ele><time>2026-05-03T11:36:36.999Z</time></trkpt><trkpt lat="44.3366062" lon="8.3537523"><ele>405.0</ele><time>2026-05-03T11:36:37.999Z</time></trkpt><trkpt lat="44.3365249" lon="8.3539127"><ele>402.0</ele><time>2026-05-03T11:36:38.999Z</time></trkpt><trkpt lat="44.3364424" lon="8.354075"><ele>396.25</ele><time>2026-05-03T11:36:40Z</time></trkpt><trkpt lat="44.3363655" lon="8.3542467"><ele>390.5</ele><time>2026-05-03T11:36:41Z</time></trkpt><trkpt lat="44.3362867" lon="8.3544186"><ele>384.75</ele><time>2026-05-03T11:36:41.999Z</time></trkpt><trkpt lat="44.3362036" lon="8.3545863"><ele>379.0</ele><time>2026-05-03T11:36:43Z</time></trkpt><trkpt lat="44.3361279" lon="8.3547651"><ele>376.66666666666663</ele><time>2026-05-03T11:36:43.999Z</time></trkpt><trkpt lat="44.3360447" lon="8.3549493"><ele>374.3333333333333</ele><time>2026-05-03T11:36:44.999Z</time></trkpt><trkpt lat="44.3359676" lon="8.3551338"><ele>372.0</ele><time>2026-05-03T11:36:45.998Z</time></trkpt><trkpt lat="44.3358921" lon="8.3553219"><ele>372.0</ele><time>2026-05-03T11:36:46.999Z</time></trkpt><trkpt lat="44.3358233" lon="8.3555135"><ele>372.0</ele><time>2026-05-03T11:36:47.998Z</time></trkpt><trkpt lat="44.3357543" lon="8.3557068"><ele>372.0</ele><time>2026-05-03T11:36:48.998Z</time></trkpt><trkpt lat="44.33569" lon="8.355902"><ele>374.0</ele><time>2026-05-03T11:36:49.999Z</time></trkpt><trkpt lat="44.3356229" lon="8.3561105"><ele>376.0</ele><time>2026-05-03T11:36:50.999Z</time></trkpt><trkpt lat="44.3355584" lon="8.3563188"><ele>378.0</ele><time>2026-05-03T11:36:51.999Z</time></trkpt><trkpt lat="44.3354938" lon="8.3565373"><ele>386.33333333333337</ele><time>2026-05-03T11:36:52.999Z</time></trkpt><trkpt lat="44.3354352" lon="8.3567604"><ele>394.6666666666667</ele><time>2026-05-03T11:36:53.999Z</time></trkpt><trkpt lat="44.3353818" lon="8.3569921"><ele>403.0</ele><time>2026-05-03T11:36:54.998Z</time></trkpt><trkpt lat="44.3353222" lon="8.3572225"><ele>403.0</ele><time>2026-05-03T11:36:55.998Z</time></trkpt><trkpt lat="44.3352555" lon="8.3574548"><ele>403.0</ele><time>2026-05-03T11:36:56.999Z</time></trkpt><trkpt lat="44.3352027" lon="8.3576731"><ele>403.0</ele><time>2026-05-03T11:36:57.998Z</time></trkpt><trkpt lat="44.3351446" lon="8.3578952"><ele>401.6666666666667</ele><time>2026-05-03T11:36:58.998Z</time></trkpt><trkpt lat="44.3350809" lon="8.3581322"><ele>400.33333333333337</ele><time>2026-05-03T11:36:59.998Z</time></trkpt><trkpt lat="44.3350183" lon="8.3583807"><ele>399.0</ele><time>2026-05-03T11:37:00.998Z</time></trkpt><trkpt lat="44.3349501" lon="8.3586394"><ele>400.0</ele><time>2026-05-03T11:37:01.998Z</time></trkpt><trkpt lat="44.3348843" lon="8.3588937"><ele>401.0</ele><time>2026-05-03T11:37:02.999Z</time></trkpt><trkpt lat="44.3348204" lon="8.35915"><ele>402.0</ele><time>2026-05-03T11:37:03.998Z</time></trkpt><trkpt lat="44.3347566" lon="8.3593959"><ele>391.6666666666667</ele><time>2026-05-03T11:37:04.998Z</time></trkpt><trkpt lat="44.3346908" lon="8.359639"><ele>381.33333333333337</ele><time>2026-05-03T11:37:05.998Z</time></trkpt><trkpt lat="44.3346316" lon="8.3598865"><ele>371.0</ele><time>2026-05-03T11:37:06.998Z</time></trkpt><trkpt lat="44.3345788" lon="8.3601376"><ele>371.0</ele><time>2026-05-03T11:37:07.998Z</time></trkpt><trkpt lat="44.3345523" lon="8.3603901"><ele>371.0</ele><time>2026-05-03T11:37:08.999Z</time></trkpt><trkpt lat="44.3345603" lon="8.3606605"><ele>371.0</ele><time>2026-05-03T11:37:09.998Z</time></trkpt><trkpt lat="44.3345977" lon="8.3609349"><ele>371.33333333333337</ele><time>2026-05-03T11:37:10.999Z</time></trkpt><trkpt lat="44.3346472" lon="8.3611936"><ele>371.6666666666667</ele><time>2026-05-03T11:37:11.998Z</time></trkpt><trkpt lat="44.3347039" lon="8.3614377"><ele>372.0</ele><time>2026-05-03T11:37:12.999Z</time></trkpt><trkpt lat="44.3347686" lon="8.3616745"><ele>375.6666666666667</ele><time>2026-05-03T11:37:13.999Z</time></trkpt><trkpt lat="44.3348356" lon="8.3619183"><ele>379.33333333333337</ele><time>2026-05-03T11:37:14.999Z</time></trkpt><trkpt lat="44.3348928" lon="8.3621586"><ele>383.0</ele><time>2026-05-03T11:37:15.998Z</time></trkpt><trkpt lat="44.3349481" lon="8.3624042"><ele>383.0</ele><time>2026-05-03T11:37:16.999Z</time></trkpt><trkpt lat="44.3350116" lon="8.3626523"><ele>383.0</ele><time>2026-05-03T11:37:17.998Z</time></trkpt><trkpt lat="44.3350732" lon="8.3629028"><ele>383.0</ele><time>2026-05-03T11:37:18.998Z</time></trkpt><trkpt lat="44.3351366" lon="8.3631471"><ele>379.33333333333337</ele><time>2026-05-03T11:37:19.998Z</time></trkpt><trkpt lat="44.3351972" lon="8.3633799"><ele>375.6666666666667</ele><time>2026-05-03T11:37:20.998Z</time></trkpt><trkpt lat="44.3352458" lon="8.36361"><ele>372.0</ele><time>2026-05-03T11:37:21.998Z</time></trkpt><trkpt lat="44.3352692" lon="8.3638562"><ele>370.0</ele><time>2026-05-03T11:37:22.999Z</time></trkpt><trkpt lat="44.3352625" lon="8.3641109"><ele>368.0</ele><time>2026-05-03T11:37:23.998Z</time></trkpt><trkpt lat="44.3352162" lon="8.364364"><ele>366.0</ele><time>2026-05-03T11:37:24.998Z</time></trkpt><trkpt lat="44.3351461" lon="8.3646106"><ele>367.6666666666667</ele><time>2026-05-03T11:37:25.998Z</time></trkpt><trkpt lat="44.3350715" lon="8.3648463"><ele>369.33333333333337</ele><time>2026-05-03T11:37:26.998Z</time></trkpt><trkpt lat="44.3350026" lon="8.3650799"><ele>371.0</ele><time>2026-05-03T11:37:27.999Z</time></trkpt><trkpt lat="44.33498" lon="8.3653169"><ele>370.0</ele><time>2026-05-03T11:37:28.999Z</time></trkpt><trkpt lat="44.3350036" lon="8.365559"><ele>369.0</ele><time>2026-05-03T11:37:29.998Z</time></trkpt><trkpt lat="44.335076" lon="8.3657884"><ele>368.0</ele><time>2026-05-03T11:37:30.999Z</time></trkpt><trkpt lat="44.3351664" lon="8.3660213"><ele>368.0</ele><time>2026-05-03T11:37:31.998Z</time></trkpt><trkpt lat="44.3352533" lon="8.3662638"><ele>368.0</ele><time>2026-05-03T11:37:32.998Z</time></trkpt><trkpt lat="44.3352967" lon="8.3665487"><ele>368.0</ele><time>2026-05-03T11:37:33.998Z</time></trkpt><trkpt lat="44.3352927" lon="8.3668531"><ele>362.33333333333337</ele><time>2026-05-03T11:37:34.998Z</time></trkpt><trkpt lat="44.3352957" lon="8.367143"><ele>356.6666666666667</ele><time>2026-05-03T11:37:35.998Z</time></trkpt><trkpt lat="44.3353013" lon="8.3674183"><ele>351.0</ele><time>2026-05-03T11:37:36.998Z</time></trkpt><trkpt lat="44.3353341" lon="8.3676944"><ele>349.3333333333333</ele><time>2026-05-03T11:37:37.998Z</time></trkpt><trkpt lat="44.3354089" lon="8.3679638"><ele>347.66666666666663</ele><time>2026-05-03T11:37:38.998Z</time></trkpt><trkpt lat="44.3355259" lon="8.3682129"><ele>346.0</ele><time>2026-05-03T11:37:39.999Z</time></trkpt><trkpt lat="44.3356805" lon="8.3684287"><ele>350.3333333333333</ele><time>2026-05-03T11:37:40.998Z</time></trkpt><trkpt lat="44.3358586" lon="8.3685945"><ele>354.6666666666667</ele><time>2026-05-03T11:37:41.999Z</time></trkpt><trkpt lat="44.3360322" lon="8.3687146"><ele>359.0</ele><time>2026-05-03T11:37:42.998Z</time></trkpt><trkpt lat="44.3361972" lon="8.3688109"><ele>356.33333333333337</ele><time>2026-05-03T11:37:43.999Z</time></trkpt><trkpt lat="44.3363485" lon="8.3689012"><ele>353.6666666666667</ele><time>2026-05-03T11:37:44.998Z</time></trkpt><trkpt lat="44.336486" lon="8.3690176"><ele>351.0</ele><time>2026-05-03T11:37:45.998Z</time></trkpt><trkpt lat="44.3365788" lon="8.3691729"><ele>351.0</ele><time>2026-05-03T11:37:46.999Z</time></trkpt><trkpt lat="44.3366631" lon="8.3693569"><ele>351.0</ele><time>2026-05-03T11:37:47.998Z</time></trkpt><trkpt lat="44.3367372" lon="8.3695487"><ele>351.0</ele><time>2026-05-03T11:37:48.998Z</time></trkpt><trkpt lat="44.3367848" lon="8.3697487"><ele>349.75</ele><time>2026-05-03T11:37:49.998Z</time></trkpt><trkpt lat="44.3368041" lon="8.3699419"><ele>348.5</ele><time>2026-05-03T11:37:50.998Z</time></trkpt><trkpt lat="44.3367819" lon="8.3701244"><ele>347.25</ele><time>2026-05-03T11:37:51.999Z</time></trkpt><trkpt lat="44.3367301" lon="8.370284"><ele>346.0</ele><time>2026-05-03T11:37:52.998Z</time></trkpt><trkpt lat="44.3366527" lon="8.370417"><ele>344.5</ele><time>2026-05-03T11:37:53.998Z</time></trkpt><trkpt lat="44.336571" lon="8.3705441"><ele>343.0</ele><time>2026-05-03T11:37:54.998Z</time></trkpt><trkpt lat="44.3364962" lon="8.3706729"><ele>341.5</ele><time>2026-05-03T11:37:55.999Z</time></trkpt><trkpt lat="44.3364219" lon="8.3707958"><ele>340.0</ele><time>2026-05-03T11:37:56.998Z</time></trkpt><trkpt lat="44.336348" lon="8.3709342"><ele>339.0</ele><time>2026-05-03T11:37:57.998Z</time></trkpt><trkpt lat="44.3362776" lon="8.3710718"><ele>338.0</ele><time>2026-05-03T11:37:58.998Z</time></trkpt><trkpt lat="44.3362092" lon="8.3712183"><ele>337.0</ele><time>2026-05-03T11:37:59.999Z</time></trkpt><trkpt lat="44.3361425" lon="8.3713755"><ele>336.0</ele><time>2026-05-03T11:38:00.999Z</time></trkpt><trkpt lat="44.3360854" lon="8.3715324"><ele>336.0</ele><time>2026-05-03T11:38:01.998Z</time></trkpt><trkpt lat="44.3360425" lon="8.3716825"><ele>336.0</ele><time>2026-05-03T11:38:02.998Z</time></trkpt><trkpt lat="44.3360114" lon="8.3718318"><ele>336.0</ele><time>2026-05-03T11:38:03.999Z</time></trkpt><trkpt lat="44.3359832" lon="8.3719753"><ele>336.0</ele><time>2026-05-03T11:38:04.998Z</time></trkpt><trkpt lat="44.3359573" lon="8.3721183"><ele>336.0</ele><time>2026-05-03T11:38:05.998Z</time></trkpt><trkpt lat="44.3359334" lon="8.3722655"><ele>337.0</ele><time>2026-05-03T11:38:06.999Z</time></trkpt><trkpt lat="44.3359146" lon="8.3724169"><ele>338.0</ele><time>2026-05-03T11:38:07.998Z</time></trkpt><trkpt lat="44.3358933" lon="8.3725725"><ele>339.0</ele><time>2026-05-03T11:38:08.999Z</time></trkpt><trkpt lat="44.335877" lon="8.3727306"><ele>340.0</ele><time>2026-05-03T11:38:09.999Z</time></trkpt><trkpt lat="44.3358598" lon="8.3728907"><ele>341.0</ele><time>2026-05-03T11:38:10.998Z</time></trkpt><trkpt lat="44.3358475" lon="8.3730517"><ele>342.0</ele><time>2026-05-03T11:38:11.998Z</time></trkpt><trkpt lat="44.3358377" lon="8.373205"><ele>343.0</ele><time>2026-05-03T11:38:12.999Z</time></trkpt><trkpt lat="44.3358283" lon="8.3733503"><ele>344.0</ele><time>2026-05-03T11:38:13.998Z</time></trkpt><trkpt lat="44.3358204" lon="8.3734887"><ele>345.0</ele><time>2026-05-03T11:38:14.998Z</time></trkpt><trkpt lat="44.3358143" lon="8.373629"><ele>345.0</ele><time>2026-05-03T11:38:15.998Z</time></trkpt><trkpt lat="44.3358014" lon="8.3737617"><ele>345.0</ele><time>2026-05-03T11:38:16.998Z</time></trkpt><trkpt lat="44.3357723" lon="8.3738872"><ele>345.0</ele><time>2026-05-03T11:38:17.998Z</time></trkpt><trkpt lat="44.3357217" lon="8.3739998"><ele>345.0</ele><time>2026-05-03T11:38:18.998Z</time></trkpt><trkpt lat="44.3356515" lon="8.374092"><ele>345.0</ele><time>2026-05-03T11:38:19.998Z</time></trkpt><trkpt lat="44.3355677" lon="8.3741588"><ele>346.5</ele><time>2026-05-03T11:38:20.999Z</time></trkpt><trkpt lat="44.3354644" lon="8.3741967"><ele>348.0</ele><time>2026-05-03T11:38:21.998Z</time></trkpt><trkpt lat="44.3353577" lon="8.3741907"><ele>349.5</ele><time>2026-05-03T11:38:22.998Z</time></trkpt><trkpt lat="44.335232" lon="8.3741695"><ele>351.0</ele><time>2026-05-03T11:38:23.998Z</time></trkpt><trkpt lat="44.3351154" lon="8.3741937"><ele>351.0</ele><time>2026-05-03T11:38:24.998Z</time></trkpt><trkpt lat="44.3350094" lon="8.3742744"><ele>351.0</ele><time>2026-05-03T11:38:25.998Z</time></trkpt><trkpt lat="44.3349149" lon="8.3743967"><ele>351.0</ele><time>2026-05-03T11:38:26.998Z</time></trkpt><trkpt lat="44.3348569" lon="8.3745639"><ele>351.0</ele><time>2026-05-03T11:38:27.999Z</time></trkpt><trkpt lat="44.3348478" lon="8.3747569"><ele>350.75</ele><time>2026-05-03T11:38:28.998Z</time></trkpt><trkpt lat="44.334869" lon="8.3749518"><ele>350.5</ele><time>2026-05-03T11:38:29.999Z</time></trkpt><trkpt lat="44.3348795" lon="8.375132"><ele>350.25</ele><time>2026-05-03T11:38:30.999Z</time></trkpt><trkpt lat="44.334877" lon="8.3753087"><ele>350.0</ele><time>2026-05-03T11:38:31.998Z</time></trkpt><trkpt lat="44.3348557" lon="8.3754779"><ele>350.0</ele><time>2026-05-03T11:38:32.998Z</time></trkpt><trkpt lat="44.3348199" lon="8.3756436"><ele>350.0</ele><time>2026-05-03T11:38:33.998Z</time></trkpt><trkpt lat="44.3347784" lon="8.3758115"><ele>350.0</ele><time>2026-05-03T11:38:34.998Z</time></trkpt><trkpt lat="44.3347431" lon="8.3759821"><ele>350.0</ele><time>2026-05-03T11:38:35.998Z</time></trkpt><trkpt lat="44.3347015" lon="8.3761498"><ele>347.25</ele><time>2026-05-03T11:38:36.998Z</time></trkpt><trkpt lat="44.3346593" lon="8.3763167"><ele>344.5</ele><time>2026-05-03T11:38:37.998Z</time></trkpt><trkpt lat="44.3346144" lon="8.3764904"><ele>341.75</ele><time>2026-05-03T11:38:38.998Z</time></trkpt><trkpt lat="44.334564" lon="8.3766515"><ele>339.0</ele><time>2026-05-03T11:38:39.998Z</time></trkpt><trkpt lat="44.3345202" lon="8.3768133"><ele>339.0</ele><time>2026-05-03T11:38:40.998Z</time></trkpt><trkpt lat="44.3344915" lon="8.3769792"><ele>339.0</ele><time>2026-05-03T11:38:41.998Z</time></trkpt><trkpt lat="44.3344853" lon="8.3771464"><ele>339.0</ele><time>2026-05-03T11:38:42.999Z</time></trkpt><trkpt lat="44.3344949" lon="8.3773221"><ele>339.0</ele><time>2026-05-03T11:38:43.998Z</time></trkpt><trkpt lat="44.3345216" lon="8.3775085"><ele>337.5</ele><time>2026-05-03T11:38:44.999Z</time></trkpt><trkpt lat="44.3345384" lon="8.377687"><ele>336.0</ele><time>2026-05-03T11:38:45.998Z</time></trkpt><trkpt lat="44.3345679" lon="8.3778741"><ele>334.5</ele><time>2026-05-03T11:38:46.999Z</time></trkpt><trkpt lat="44.3345997" lon="8.3780572"><ele>333.0</ele><time>2026-05-03T11:38:47.998Z</time></trkpt><trkpt lat="44.3346245" lon="8.37823"><ele>334.0</ele><time>2026-05-03T11:38:48.998Z</time></trkpt><trkpt lat="44.3346503" lon="8.3783972"><ele>335.0</ele><time>2026-05-03T11:38:49.998Z</time></trkpt><trkpt lat="44.3346599" lon="8.3785593"><ele>336.0</ele><time>2026-05-03T11:38:50.999Z</time></trkpt><trkpt lat="44.3346489" lon="8.3787228"><ele>337.0</ele><time>2026-05-03T11:38:51.998Z</time></trkpt><trkpt lat="44.3346178" lon="8.3788779"><ele>337.0</ele><time>2026-05-03T11:38:52.999Z</time></trkpt><trkpt lat="44.3345695" lon="8.3790233"><ele>337.0</ele><time>2026-05-03T11:38:53.999Z</time></trkpt><trkpt lat="44.3345038" lon="8.3791646"><ele>337.0</ele><time>2026-05-03T11:38:54.998Z</time></trkpt><trkpt lat="44.3344325" lon="8.3793037"><ele>337.0</ele><time>2026-05-03T11:38:55.998Z</time></trkpt><trkpt lat="44.3343538" lon="8.379444"><ele>337.0</ele><time>2026-05-03T11:38:56.999Z</time></trkpt><trkpt lat="44.334268" lon="8.3795542"><ele>337.0</ele><time>2026-05-03T11:38:57.998Z</time></trkpt><trkpt lat="44.3341736" lon="8.3796369"><ele>337.0</ele><time>2026-05-03T11:38:58.998Z</time></trkpt><trkpt lat="44.3340709" lon="8.3796942"><ele>337.0</ele><time>2026-05-03T11:38:59.998Z</time></trkpt><trkpt lat="44.3339572" lon="8.3797385"><ele>334.75</ele><time>2026-05-03T11:39:00.998Z</time></trkpt><trkpt lat="44.3338504" lon="8.3797875"><ele>332.5</ele><time>2026-05-03T11:39:01.999Z</time></trkpt><trkpt lat="44.3337615" lon="8.3798691"><ele>330.25</ele><time>2026-05-03T11:39:02.998Z</time></trkpt><trkpt lat="44.333679" lon="8.3799832"><ele>328.0</ele><time>2026-05-03T11:39:03.998Z</time></trkpt><trkpt lat="44.3336078" lon="8.3801233"><ele>328.0</ele><time>2026-05-03T11:39:04.998Z</time></trkpt><trkpt lat="44.3335478" lon="8.3802744"><ele>328.0</ele><time>2026-05-03T11:39:05.998Z</time></trkpt><trkpt lat="44.3334968" lon="8.3804258"><ele>328.0</ele><time>2026-05-03T11:39:06.998Z</time></trkpt><trkpt lat="44.3334508" lon="8.3805712"><ele>328.0</ele><time>2026-05-03T11:39:07.999Z</time></trkpt><trkpt lat="44.333404" lon="8.3807154"><ele>331.25</ele><time>2026-05-03T11:39:08.998Z</time></trkpt><trkpt lat="44.3333551" lon="8.3808657"><ele>334.5</ele><time>2026-05-03T11:39:09.998Z</time></trkpt><trkpt lat="44.3333086" lon="8.3810218"><ele>337.75</ele><time>2026-05-03T11:39:10.998Z</time></trkpt><trkpt lat="44.3332551" lon="8.3811609"><ele>341.0</ele><time>2026-05-03T11:39:11.998Z</time></trkpt><trkpt lat="44.3331976" lon="8.3812938"><ele>341.25</ele><time>2026-05-03T11:39:12.998Z</time></trkpt><trkpt lat="44.333133" lon="8.3814207"><ele>341.5</ele><time>2026-05-03T11:39:13.998Z</time></trkpt><trkpt lat="44.3330495" lon="8.3815368"><ele>341.75</ele><time>2026-05-03T11:39:14.999Z</time></trkpt><trkpt lat="44.3329531" lon="8.3816124"><ele>342.0</ele><time>2026-05-03T11:39:15.998Z</time></trkpt><trkpt lat="44.3328412" lon="8.3816337"><ele>342.0</ele><time>2026-05-03T11:39:16.998Z</time></trkpt><trkpt lat="44.3327271" lon="8.3816321"><ele>342.0</ele><time>2026-05-03T11:39:17.998Z</time></trkpt><trkpt lat="44.3326199" lon="8.3816287"><ele>342.0</ele><time>2026-05-03T11:39:18.999Z</time></trkpt><trkpt lat="44.3325193" lon="8.3816401"><ele>342.0</ele><time>2026-05-03T11:39:19.999Z</time></trkpt><trkpt lat="44.3324207" lon="8.3816597"><ele>342.0</ele><time>2026-05-03T11:39:20.999Z</time></trkpt><trkpt lat="44.332325" lon="8.3816893"><ele>342.0</ele><time>2026-05-03T11:39:21.998Z</time></trkpt><trkpt lat="44.3322434" lon="8.3817343"><ele>342.0</ele><time>2026-05-03T11:39:22.999Z</time></trkpt><trkpt lat="44.332177" lon="8.3818205"><ele>342.0</ele><time>2026-05-03T11:39:23.998Z</time></trkpt><trkpt lat="44.3321342" lon="8.3819396"><ele>342.0</ele><time>2026-05-03T11:39:24.998Z</time></trkpt><trkpt lat="44.3321099" lon="8.3820781"><ele>342.0</ele><time>2026-05-03T11:39:25.999Z</time></trkpt><trkpt lat="44.3321169" lon="8.38223"><ele>336.5</ele><time>2026-05-03T11:39:26.999Z</time></trkpt><trkpt lat="44.3321307" lon="8.3823852"><ele>331.0</ele><time>2026-05-03T11:39:27.999Z</time></trkpt><trkpt lat="44.33214" lon="8.3825446"><ele>325.5</ele><time>2026-05-03T11:39:28.998Z</time></trkpt><trkpt lat="44.3321347" lon="8.382706"><ele>320.0</ele><time>2026-05-03T11:39:29.998Z</time></trkpt><trkpt lat="44.3320977" lon="8.3828628"><ele>320.25</ele><time>2026-05-03T11:39:30.999Z</time></trkpt><trkpt lat="44.3320493" lon="8.383023"><ele>320.5</ele><time>2026-05-03T11:39:31.998Z</time></trkpt><trkpt lat="44.332004" lon="8.3831827"><ele>320.75</ele><time>2026-05-03T11:39:32.998Z</time></trkpt><trkpt lat="44.3319672" lon="8.3833331"><ele>321.0</ele><time>2026-05-03T11:39:33.999Z</time></trkpt><trkpt lat="44.3319422" lon="8.3834833"><ele>321.0</ele><time>2026-05-03T11:39:34.999Z</time></trkpt><trkpt lat="44.3319321" lon="8.3836388"><ele>321.0</ele><time>2026-05-03T11:39:35.998Z</time></trkpt><trkpt lat="44.3319382" lon="8.3837932"><ele>321.0</ele><time>2026-05-03T11:39:36.998Z</time></trkpt><trkpt lat="44.3319483" lon="8.3839485"><ele>321.0</ele><time>2026-05-03T11:39:37.998Z</time></trkpt><trkpt lat="44.3319851" lon="8.3840938"><ele>321.0</ele><time>2026-05-03T11:39:38.999Z</time></trkpt><trkpt lat="44.3320092" lon="8.3842353"><ele>321.0</ele><time>2026-05-03T11:39:39.998Z</time></trkpt><trkpt lat="44.3320418" lon="8.3843817"><ele>321.0</ele><time>2026-05-03T11:39:40.998Z</time></trkpt><trkpt lat="44.3320795" lon="8.384528"><ele>321.0</ele><time>2026-05-03T11:39:41.999Z</time></trkpt><trkpt lat="44.3321237" lon="8.3846709"><ele>321.0</ele><time>2026-05-03T11:39:42.998Z</time></trkpt><trkpt lat="44.3321746" lon="8.3848156"><ele>321.0</ele><time>2026-05-03T11:39:43.999Z</time></trkpt><trkpt lat="44.3322353" lon="8.3849678"><ele>321.0</ele><time>2026-05-03T11:39:44.999Z</time></trkpt><trkpt lat="44.3322939" lon="8.3851355"><ele>321.0</ele><time>2026-05-03T11:39:45.998Z</time></trkpt><trkpt lat="44.3323458" lon="8.3853175"><ele>321.0</ele><time>2026-05-03T11:39:46.998Z</time></trkpt><trkpt lat="44.3323943" lon="8.3855154"><ele>321.0</ele><time>2026-05-03T11:39:47.999Z</time></trkpt><trkpt lat="44.3324219" lon="8.3857246"><ele>321.0</ele><time>2026-05-03T11:39:48.999Z</time></trkpt><trkpt lat="44.3324309" lon="8.3859367"><ele>321.0</ele><time>2026-05-03T11:39:49.998Z</time></trkpt><trkpt lat="44.3324371" lon="8.3861469"><ele>321.0</ele><time>2026-05-03T11:39:50.998Z</time></trkpt><trkpt lat="44.3324421" lon="8.3863613"><ele>320.0</ele><time>2026-05-03T11:39:51.999Z</time></trkpt><trkpt lat="44.3324407" lon="8.3865856"><ele>319.0</ele><time>2026-05-03T11:39:52.998Z</time></trkpt><trkpt lat="44.3324353" lon="8.38681"><ele>318.0</ele><time>2026-05-03T11:39:53.999Z</time></trkpt><trkpt lat="44.332428" lon="8.3870282"><ele>317.3333333333333</ele><time>2026-05-03T11:39:54.999Z</time></trkpt><trkpt lat="44.3324128" lon="8.3872369"><ele>316.66666666666663</ele><time>2026-05-03T11:39:55.998Z</time></trkpt><trkpt lat="44.3323957" lon="8.3874431"><ele>316.0</ele><time>2026-05-03T11:39:56.999Z</time></trkpt><trkpt lat="44.3323733" lon="8.3876558"><ele>316.0</ele><time>2026-05-03T11:39:57.998Z</time></trkpt><trkpt lat="44.3323472" lon="8.3878744"><ele>316.0</ele><time>2026-05-03T11:39:58.998Z</time></trkpt><trkpt lat="44.3323264" lon="8.3880932"><ele>316.0</ele><time>2026-05-03T11:39:59.999Z</time></trkpt><trkpt lat="44.3322971" lon="8.3883105"><ele>314.66666666666663</ele><time>2026-05-03T11:40:00.998Z</time></trkpt><trkpt lat="44.3322704" lon="8.3885284"><ele>313.3333333333333</ele><time>2026-05-03T11:40:01.998Z</time></trkpt><trkpt lat="44.3322328" lon="8.3887395"><ele>312.0</ele><time>2026-05-03T11:40:02.998Z</time></trkpt><trkpt lat="44.3322025" lon="8.3889607"><ele>306.3333333333333</ele><time>2026-05-03T11:40:03.998Z</time></trkpt><trkpt lat="44.3321799" lon="8.3892022"><ele>300.66666666666663</ele><time>2026-05-03T11:40:04.998Z</time></trkpt><trkpt lat="44.3321585" lon="8.3894457"><ele>295.0</ele><time>2026-05-03T11:40:05.998Z</time></trkpt><trkpt lat="44.3321363" lon="8.3896738"><ele>293.66666666666663</ele><time>2026-05-03T11:40:06.998Z</time></trkpt><trkpt lat="44.3321091" lon="8.3898871"><ele>292.3333333333333</ele><time>2026-05-03T11:40:07.998Z</time></trkpt><trkpt lat="44.3320711" lon="8.3900912"><ele>291.0</ele><time>2026-05-03T11:40:08.998Z</time></trkpt><trkpt lat="44.3320326" lon="8.3903039"><ele>289.6666666666667</ele><time>2026-05-03T11:40:09.998Z</time></trkpt><trkpt lat="44.3319889" lon="8.3905217"><ele>288.33333333333337</ele><time>2026-05-03T11:40:10.998Z</time></trkpt><trkpt lat="44.3319427" lon="8.3907384"><ele>287.0</ele><time>2026-05-03T11:40:11.998Z</time></trkpt><trkpt lat="44.331891" lon="8.3909572"><ele>287.0</ele><time>2026-05-03T11:40:12.999Z</time></trkpt><trkpt lat="44.3318468" lon="8.3911818"><ele>287.0</ele><time>2026-05-03T11:40:13.998Z</time></trkpt><trkpt lat="44.3318023" lon="8.3914071"><ele>287.0</ele><time>2026-05-03T11:40:14.998Z</time></trkpt><trkpt lat="44.3317558" lon="8.3916361"><ele>286.6666666666667</ele><time>2026-05-03T11:40:15.998Z</time></trkpt><trkpt lat="44.3317115" lon="8.3918665"><ele>286.3333333333333</ele><time>2026-05-03T11:40:16.998Z</time></trkpt><trkpt lat="44.3316765" lon="8.3920911"><ele>286.0</ele><time>2026-05-03T11:40:17.998Z</time></trkpt><trkpt lat="44.3316397" lon="8.3923043"><ele>285.0</ele><time>2026-05-03T11:40:18.999Z</time></trkpt><trkpt lat="44.3315885" lon="8.3925028"><ele>284.0</ele><time>2026-05-03T11:40:19.998Z</time></trkpt><trkpt lat="44.3315483" lon="8.3926964"><ele>283.0</ele><time>2026-05-03T11:40:20.998Z</time></trkpt><trkpt lat="44.3315125" lon="8.3928794"><ele>282.0</ele><time>2026-05-03T11:40:21.998Z</time></trkpt><trkpt lat="44.3314774" lon="8.3930647"><ele>282.0</ele><time>2026-05-03T11:40:22.998Z</time></trkpt><trkpt lat="44.3314438" lon="8.3932485"><ele>282.0</ele><time>2026-05-03T11:40:23.999Z</time></trkpt><trkpt lat="44.3314107" lon="8.3934253"><ele>282.0</ele><time>2026-05-03T11:40:24.998Z</time></trkpt><trkpt lat="44.3313805" lon="8.3935876"><ele>282.0</ele><time>2026-05-03T11:40:25.999Z</time></trkpt><trkpt lat="44.3313534" lon="8.3937409"><ele>282.0</ele><time>2026-05-03T11:40:26.999Z</time></trkpt><trkpt lat="44.3313293" lon="8.3938864"><ele>282.0</ele><time>2026-05-03T11:40:27.998Z</time></trkpt><trkpt lat="44.3313018" lon="8.3940276"><ele>282.0</ele><time>2026-05-03T11:40:28.998Z</time></trkpt><trkpt lat="44.33127" lon="8.3941644"><ele>282.0</ele><time>2026-05-03T11:40:29.999Z</time></trkpt><trkpt lat="44.3312287" lon="8.3942989"><ele>282.0</ele><time>2026-05-03T11:40:30.998Z</time></trkpt><trkpt lat="44.3311828" lon="8.3944379"><ele>282.0</ele><time>2026-05-03T11:40:31.998Z</time></trkpt><trkpt lat="44.3311372" lon="8.3945763"><ele>282.0</ele><time>2026-05-03T11:40:32.999Z</time></trkpt><trkpt lat="44.3310894" lon="8.3947096"><ele>282.0</ele><time>2026-05-03T11:40:33.998Z</time></trkpt><trkpt lat="44.3310295" lon="8.3948326"><ele>282.0</ele><time>2026-05-03T11:40:34.999Z</time></trkpt><trkpt lat="44.3309736" lon="8.3949499"><ele>282.0</ele><time>2026-05-03T11:40:35.998Z</time></trkpt><trkpt lat="44.330913" lon="8.3950627"><ele>281.2</ele><time>2026-05-03T11:40:36.999Z</time></trkpt><trkpt lat="44.3308507" lon="8.3951742"><ele>280.4</ele><time>2026-05-03T11:40:37.999Z</time></trkpt><trkpt lat="44.3307865" lon="8.3952824"><ele>279.6</ele><time>2026-05-03T11:40:38.998Z</time></trkpt><trkpt lat="44.330744" lon="8.3953949"><ele>278.8</ele><time>2026-05-03T11:40:39.998Z</time></trkpt><trkpt lat="44.330718" lon="8.3955065"><ele>278.0</ele><time>2026-05-03T11:40:40.998Z</time></trkpt><trkpt lat="44.3307109" lon="8.395633"><ele>277.1666666666667</ele><time>2026-05-03T11:40:41.999Z</time></trkpt><trkpt lat="44.330714" lon="8.3957577"><ele>276.33333333333337</ele><time>2026-05-03T11:40:42.999Z</time></trkpt><trkpt lat="44.3307318" lon="8.3958691"><ele>275.5</ele><time>2026-05-03T11:40:43.999Z</time></trkpt><trkpt lat="44.3307548" lon="8.3959773"><ele>274.6666666666667</ele><time>2026-05-03T11:40:44.998Z</time></trkpt><trkpt lat="44.3307792" lon="8.3960766"><ele>273.8333333333333</ele><time>2026-05-03T11:40:45.998Z</time></trkpt><trkpt lat="44.3308423" lon="8.3961495"><ele>273.0</ele><time>2026-05-03T11:40:46.998Z</time></trkpt><trkpt lat="44.3309134" lon="8.3962165"><ele>273.0</ele><time>2026-05-03T11:40:47.998Z</time></trkpt><trkpt lat="44.3309877" lon="8.3962795"><ele>273.0</ele><time>2026-05-03T11:40:48.999Z</time></trkpt><trkpt lat="44.3310699" lon="8.3963329"><ele>273.0</ele><time>2026-05-03T11:40:49.999Z</time></trkpt><trkpt lat="44.3311599" lon="8.3963895"><ele>273.0</ele><time>2026-05-03T11:40:50.999Z</time></trkpt><trkpt lat="44.3312444" lon="8.3964567"><ele>273.0</ele><time>2026-05-03T11:40:51.999Z</time></trkpt><trkpt lat="44.3313236" lon="8.3965434"><ele>272.8</ele><time>2026-05-03T11:40:52.999Z</time></trkpt><trkpt lat="44.331386" lon="8.3966449"><ele>272.6</ele><time>2026-05-03T11:40:53.999Z</time></trkpt><trkpt lat="44.3314309" lon="8.3967524"><ele>272.4</ele><time>2026-05-03T11:40:54.998Z</time></trkpt><trkpt lat="44.3314618" lon="8.3968771"><ele>272.2</ele><time>2026-05-03T11:40:55.999Z</time></trkpt><trkpt lat="44.3314826" lon="8.3970078"><ele>272.0</ele><time>2026-05-03T11:40:56.998Z</time></trkpt><trkpt lat="44.3314932" lon="8.3971575"><ele>271.4</ele><time>2026-05-03T11:40:57.998Z</time></trkpt><trkpt lat="44.3314781" lon="8.3973033"><ele>270.79999999999995</ele><time>2026-05-03T11:40:58.998Z</time></trkpt><trkpt lat="44.3314344" lon="8.3974425"><ele>270.2</ele><time>2026-05-03T11:40:59.999Z</time></trkpt><trkpt lat="44.331397" lon="8.3975818"><ele>269.59999999999997</ele><time>2026-05-03T11:41:00.999Z</time></trkpt><trkpt lat="44.3313463" lon="8.3977191"><ele>269.0</ele><time>2026-05-03T11:41:01.998Z</time></trkpt><trkpt lat="44.3312929" lon="8.3978403"><ele>268.4</ele><time>2026-05-03T11:41:02.998Z</time></trkpt><trkpt lat="44.3312296" lon="8.3979383"><ele>267.79999999999995</ele><time>2026-05-03T11:41:03.998Z</time></trkpt><trkpt lat="44.3311537" lon="8.3980134"><ele>267.20000000000005</ele><time>2026-05-03T11:41:04.999Z</time></trkpt><trkpt lat="44.3310692" lon="8.3980725"><ele>266.6</ele><time>2026-05-03T11:41:05.999Z</time></trkpt><trkpt lat="44.3309951" lon="8.3981447"><ele>266.0</ele><time>2026-05-03T11:41:06.998Z</time></trkpt><trkpt lat="44.3309219" lon="8.3982427"><ele>264.5</ele><time>2026-05-03T11:41:07.999Z</time></trkpt><trkpt lat="44.3308592" lon="8.3983647"><ele>263.0</ele><time>2026-05-03T11:41:08.998Z</time></trkpt><trkpt lat="44.3308062" lon="8.3985032"><ele>261.5</ele><time>2026-05-03T11:41:09.998Z</time></trkpt><trkpt lat="44.3307775" lon="8.3986574"><ele>260.0</ele><time>2026-05-03T11:41:10.999Z</time></trkpt><trkpt lat="44.3307568" lon="8.3988221"><ele>259.0</ele><time>2026-05-03T11:41:11.998Z</time></trkpt><trkpt lat="44.3307439" lon="8.3990117"><ele>258.0</ele><time>2026-05-03T11:41:12.999Z</time></trkpt><trkpt lat="44.3307355" lon="8.399183"><ele>257.0</ele><time>2026-05-03T11:41:13.999Z</time></trkpt><trkpt lat="44.3307308" lon="8.3993469"><ele>256.0</ele><time>2026-05-03T11:41:14.998Z</time></trkpt><trkpt lat="44.3307267" lon="8.3995009"><ele>256.0</ele><time>2026-05-03T11:41:15.998Z</time></trkpt><trkpt lat="44.3307321" lon="8.3996583"><ele>256.0</ele><time>2026-05-03T11:41:16.998Z</time></trkpt><trkpt lat="44.3307377" lon="8.399818"><ele>256.0</ele><time>2026-05-03T11:41:17.998Z</time></trkpt><trkpt lat="44.3307656" lon="8.3999879"><ele>256.0</ele><time>2026-05-03T11:41:18.998Z</time></trkpt><trkpt lat="44.330812" lon="8.400149"><ele>256.25</ele><time>2026-05-03T11:41:19.998Z</time></trkpt><trkpt lat="44.3308867" lon="8.4003"><ele>256.5</ele><time>2026-05-03T11:41:20.998Z</time></trkpt><trkpt lat="44.3309572" lon="8.4004449"><ele>256.75</ele><time>2026-05-03T11:41:21.999Z</time></trkpt><trkpt lat="44.3310373" lon="8.4005933"><ele>257.0</ele><time>2026-05-03T11:41:22.999Z</time></trkpt><trkpt lat="44.3311311" lon="8.4007542"><ele>257.0</ele><time>2026-05-03T11:41:23.998Z</time></trkpt><trkpt lat="44.3312435" lon="8.4009306"><ele>257.0</ele><time>2026-05-03T11:41:24.998Z</time></trkpt><trkpt lat="44.3313841" lon="8.4011267"><ele>257.0</ele><time>2026-05-03T11:41:25.998Z</time></trkpt><trkpt lat="44.3315327" lon="8.4013108"><ele>252.0</ele><time>2026-05-03T11:41:26.998Z</time></trkpt><trkpt lat="44.3316657" lon="8.4014856"><ele>247.0</ele><time>2026-05-03T11:41:27.999Z</time></trkpt><trkpt lat="44.3317642" lon="8.4016456"><ele>242.0</ele><time>2026-05-03T11:41:28.998Z</time></trkpt><trkpt lat="44.3318252" lon="8.4018078"><ele>242.0</ele><time>2026-05-03T11:41:29.999Z</time></trkpt><trkpt lat="44.3318816" lon="8.4019721"><ele>242.0</ele><time>2026-05-03T11:41:30.998Z</time></trkpt><trkpt lat="44.3319219" lon="8.4021403"><ele>242.0</ele><time>2026-05-03T11:41:31.998Z</time></trkpt><trkpt lat="44.3319433" lon="8.4023053"><ele>242.0</ele><time>2026-05-03T11:41:32.999Z</time></trkpt><trkpt lat="44.3319461" lon="8.4024687"><ele>241.6</ele><time>2026-05-03T11:41:33.998Z</time></trkpt><trkpt lat="44.3319306" lon="8.4026194"><ele>241.2</ele><time>2026-05-03T11:41:34.999Z</time></trkpt><trkpt lat="44.3319101" lon="8.4027677"><ele>240.8</ele><time>2026-05-03T11:41:35.998Z</time></trkpt><trkpt lat="44.331883" lon="8.4029059"><ele>240.4</ele><time>2026-05-03T11:41:36.999Z</time></trkpt><trkpt lat="44.3318571" lon="8.4030388"><ele>240.0</ele><time>2026-05-03T11:41:37.998Z</time></trkpt><trkpt lat="44.3318168" lon="8.4031587"><ele>238.8</ele><time>2026-05-03T11:41:38.998Z</time></trkpt><trkpt lat="44.3317702" lon="8.4032693"><ele>237.6</ele><time>2026-05-03T11:41:39.998Z</time></trkpt><trkpt lat="44.3317147" lon="8.4033649"><ele>236.39999999999998</ele><time>2026-05-03T11:41:40.998Z</time></trkpt><trkpt lat="44.3316506" lon="8.4034639"><ele>235.2</ele><time>2026-05-03T11:41:41.998Z</time></trkpt><trkpt lat="44.331586" lon="8.4035751"><ele>234.0</ele><time>2026-05-03T11:41:42.998Z</time></trkpt><trkpt lat="44.3315216" lon="8.4037021"><ele>235.0</ele><time>2026-05-03T11:41:43.998Z</time></trkpt><trkpt lat="44.3314492" lon="8.4038546"><ele>236.0</ele><time>2026-05-03T11:41:44.999Z</time></trkpt><trkpt lat="44.3313702" lon="8.4040371"><ele>237.0</ele><time>2026-05-03T11:41:45.998Z</time></trkpt><trkpt lat="44.3312736" lon="8.404252"><ele>238.0</ele><time>2026-05-03T11:41:46.998Z</time></trkpt><trkpt lat="44.331156" lon="8.4045176"><ele>239.0</ele><time>2026-05-03T11:41:47.998Z</time></trkpt><trkpt lat="44.3310324" lon="8.4047996"><ele>236.0</ele><time>2026-05-03T11:41:48.999Z</time></trkpt><trkpt lat="44.3309078" lon="8.4050986"><ele>233.0</ele><time>2026-05-03T11:41:49.998Z</time></trkpt><trkpt lat="44.3307788" lon="8.4053846"><ele>234.5</ele><time>2026-05-03T11:41:50.998Z</time></trkpt><trkpt lat="44.3306314" lon="8.405656"><ele>236.0</ele><time>2026-05-03T11:41:51.999Z</time></trkpt><trkpt lat="44.3304838" lon="8.4059084"><ele>236.66666666666669</ele><time>2026-05-03T11:41:52.998Z</time></trkpt><trkpt lat="44.3303572" lon="8.4061369"><ele>237.33333333333331</ele><time>2026-05-03T11:41:53.998Z</time></trkpt><trkpt lat="44.3302774" lon="8.4063425"><ele>238.0</ele><time>2026-05-03T11:41:54.999Z</time></trkpt><trkpt lat="44.330205" lon="8.4065109"><ele>235.0</ele><time>2026-05-03T11:41:55.998Z</time></trkpt><trkpt lat="44.3301169" lon="8.4066354"><ele>232.0</ele><time>2026-05-03T11:41:56.998Z</time></trkpt><trkpt lat="44.3300301" lon="8.4067175"><ele>229.0</ele><time>2026-05-03T11:41:57.999Z</time></trkpt><trkpt lat="44.3299177" lon="8.4067615"><ele>226.0</ele><time>2026-05-03T11:41:58.999Z</time></trkpt><trkpt lat="44.3297991" lon="8.4067582"><ele>227.60000000000002</ele><time>2026-05-03T11:41:59.998Z</time></trkpt><trkpt lat="44.3296872" lon="8.4067098"><ele>229.20000000000002</ele><time>2026-05-03T11:42:00.999Z</time></trkpt><trkpt lat="44.3295884" lon="8.4066596"><ele>230.79999999999998</ele><time>2026-05-03T11:42:01.998Z</time></trkpt><trkpt lat="44.3294995" lon="8.406635"><ele>232.39999999999998</ele><time>2026-05-03T11:42:02.998Z</time></trkpt><trkpt lat="44.3294217" lon="8.4066337"><ele>234.0</ele><time>2026-05-03T11:42:03.998Z</time></trkpt><trkpt lat="44.3293489" lon="8.4066725"><ele>234.0</ele><time>2026-05-03T11:42:04.998Z</time></trkpt><trkpt lat="44.329278" lon="8.4067437"><ele>233.99999999999997</ele><time>2026-05-03T11:42:05.998Z</time></trkpt><trkpt lat="44.3292169" lon="8.4068565"><ele>233.99999999999997</ele><time>2026-05-03T11:42:06.998Z</time></trkpt><trkpt lat="44.3291817" lon="8.4070156"><ele>234.0</ele><time>2026-05-03T11:42:07.998Z</time></trkpt><trkpt lat="44.3291565" lon="8.4071866"><ele>234.0</ele><time>2026-05-03T11:42:08.999Z</time></trkpt><trkpt lat="44.329129" lon="8.4073489"><ele>233.79999999999998</ele><time>2026-05-03T11:42:09.999Z</time></trkpt><trkpt lat="44.3290922" lon="8.4074961"><ele>233.59999999999997</ele><time>2026-05-03T11:42:10.998Z</time></trkpt><trkpt lat="44.329041" lon="8.4076361"><ele>233.4</ele><time>2026-05-03T11:42:11.999Z</time></trkpt><trkpt lat="44.3289694" lon="8.407757"><ele>233.2</ele><time>2026-05-03T11:42:12.999Z</time></trkpt><trkpt lat="44.328882" lon="8.4078521"><ele>233.0</ele><time>2026-05-03T11:42:13.998Z</time></trkpt><trkpt lat="44.3287841" lon="8.4079381"><ele>229.0</ele><time>2026-05-03T11:42:14.998Z</time></trkpt><trkpt lat="44.3286966" lon="8.4080328"><ele>225.0</ele><time>2026-05-03T11:42:15.999Z</time></trkpt><trkpt lat="44.3286169" lon="8.4081559"><ele>221.0</ele><time>2026-05-03T11:42:16.999Z</time></trkpt><trkpt lat="44.3285441" lon="8.4083131"><ele>217.0</ele><time>2026-05-03T11:42:17.998Z</time></trkpt><trkpt lat="44.3285361" lon="8.4085062"><ele>217.0</ele><time>2026-05-03T11:42:18.998Z</time></trkpt><trkpt lat="44.3285469" lon="8.4087021"><ele>217.0</ele><time>2026-05-03T11:42:19.998Z</time></trkpt><trkpt lat="44.3285722" lon="8.4089054"><ele>217.0</ele><time>2026-05-03T11:42:20.998Z</time></trkpt><trkpt lat="44.3285784" lon="8.4091083"><ele>217.0</ele><time>2026-05-03T11:42:21.998Z</time></trkpt><trkpt lat="44.3285648" lon="8.4092893"><ele>216.6</ele><time>2026-05-03T11:42:22.998Z</time></trkpt><trkpt lat="44.3285382" lon="8.4094541"><ele>216.2</ele><time>2026-05-03T11:42:23.998Z</time></trkpt><trkpt lat="44.3284968" lon="8.409604"><ele>215.8</ele><time>2026-05-03T11:42:24.999Z</time></trkpt><trkpt lat="44.328464" lon="8.4097469"><ele>215.4</ele><time>2026-05-03T11:42:25.998Z</time></trkpt><trkpt lat="44.3284431" lon="8.4098847"><ele>215.0</ele><time>2026-05-03T11:42:26.999Z</time></trkpt><trkpt lat="44.3284466" lon="8.4100277"><ele>214.0</ele><time>2026-05-03T11:42:27.999Z</time></trkpt><trkpt lat="44.3284736" lon="8.4101788"><ele>213.0</ele><time>2026-05-03T11:42:28.998Z</time></trkpt><trkpt lat="44.3285327" lon="8.4103274"><ele>212.0</ele><time>2026-05-03T11:42:29.999Z</time></trkpt><trkpt lat="44.3286243" lon="8.4104771"><ele>211.0</ele><time>2026-05-03T11:42:30.998Z</time></trkpt><trkpt lat="44.3287241" lon="8.4106183"><ele>208.75</ele><time>2026-05-03T11:42:31.998Z</time></trkpt><trkpt lat="44.3288157" lon="8.4107509"><ele>206.5</ele><time>2026-05-03T11:42:32.998Z</time></trkpt><trkpt lat="44.3288887" lon="8.4108745"><ele>204.25</ele><time>2026-05-03T11:42:33.998Z</time></trkpt><trkpt lat="44.3289402" lon="8.4110067"><ele>202.0</ele><time>2026-05-03T11:42:34.998Z</time></trkpt><trkpt lat="44.3289651" lon="8.4111428"><ele>202.0</ele><time>2026-05-03T11:42:35.998Z</time></trkpt><trkpt lat="44.3289516" lon="8.4112858"><ele>202.0</ele><time>2026-05-03T11:42:36.998Z</time></trkpt><trkpt lat="44.3288982" lon="8.4114064"><ele>202.0</ele><time>2026-05-03T11:42:37.998Z</time></trkpt><trkpt lat="44.32882" lon="8.411499"><ele>202.0</ele><time>2026-05-03T11:42:38.998Z</time></trkpt><trkpt lat="44.3287361" lon="8.4115793"><ele>202.0</ele><time>2026-05-03T11:42:39.999Z</time></trkpt><trkpt lat="44.3286376" lon="8.4116332"><ele>201.25</ele><time>2026-05-03T11:42:40.999Z</time></trkpt><trkpt lat="44.328518" lon="8.4116766"><ele>200.5</ele><time>2026-05-03T11:42:41.998Z</time></trkpt><trkpt lat="44.3283875" lon="8.4117331"><ele>199.75</ele><time>2026-05-03T11:42:42.999Z</time></trkpt><trkpt lat="44.3282786" lon="8.4118025"><ele>199.0</ele><time>2026-05-03T11:42:43.998Z</time></trkpt><trkpt lat="44.328168" lon="8.4118843"><ele>198.0</ele><time>2026-05-03T11:42:44.998Z</time></trkpt><trkpt lat="44.3280562" lon="8.4119782"><ele>197.0</ele><time>2026-05-03T11:42:45.999Z</time></trkpt><trkpt lat="44.3279484" lon="8.4120901"><ele>196.0</ele><time>2026-05-03T11:42:46.998Z</time></trkpt><trkpt lat="44.3278319" lon="8.412218"><ele>195.0</ele><time>2026-05-03T11:42:47.999Z</time></trkpt><trkpt lat="44.3277123" lon="8.4123585"><ele>195.0</ele><time>2026-05-03T11:42:48.999Z</time></trkpt><trkpt lat="44.3275739" lon="8.4124827"><ele>195.0</ele><time>2026-05-03T11:42:49.998Z</time></trkpt><trkpt lat="44.3274339" lon="8.4125756"><ele>195.0</ele><time>2026-05-03T11:42:50.999Z</time></trkpt><trkpt lat="44.3273003" lon="8.4126396"><ele>193.5</ele><time>2026-05-03T11:42:51.999Z</time></trkpt><trkpt lat="44.3271627" lon="8.4127113"><ele>192.0</ele><time>2026-05-03T11:42:52.998Z</time></trkpt><trkpt lat="44.327053" lon="8.4128313"><ele>190.5</ele><time>2026-05-03T11:42:53.999Z</time></trkpt><trkpt lat="44.3269689" lon="8.4129875"><ele>189.0</ele><time>2026-05-03T11:42:54.998Z</time></trkpt><trkpt lat="44.3269029" lon="8.413161"><ele>189.0</ele><time>2026-05-03T11:42:55.998Z</time></trkpt><trkpt lat="44.3268346" lon="8.4133294"><ele>189.0</ele><time>2026-05-03T11:42:56.999Z</time></trkpt><trkpt lat="44.3267631" lon="8.4134741"><ele>189.0</ele><time>2026-05-03T11:42:57.998Z</time></trkpt><trkpt lat="44.326692" lon="8.4135839"><ele>189.0</ele><time>2026-05-03T11:42:58.998Z</time></trkpt><trkpt lat="44.3266001" lon="8.4136714"><ele>189.0</ele><time>2026-05-03T11:42:59.999Z</time></trkpt><trkpt lat="44.3264969" lon="8.4137506"><ele>189.0</ele><time>2026-05-03T11:43:00.999Z</time></trkpt><trkpt lat="44.326404" lon="8.4138527"><ele>189.0</ele><time>2026-05-03T11:43:01.999Z</time></trkpt><trkpt lat="44.3263359" lon="8.4139738"><ele>189.0</ele><time>2026-05-03T11:43:02.999Z</time></trkpt><trkpt lat="44.3262792" lon="8.4141158"><ele>188.5</ele><time>2026-05-03T11:43:03.998Z</time></trkpt><trkpt lat="44.3262424" lon="8.4142903"><ele>188.0</ele><time>2026-05-03T11:43:04.999Z</time></trkpt><trkpt lat="44.326217" lon="8.4144747"><ele>187.5</ele><time>2026-05-03T11:43:05.998Z</time></trkpt><trkpt lat="44.3261888" lon="8.4146686"><ele>187.0</ele><time>2026-05-03T11:43:06.999Z</time></trkpt><trkpt lat="44.3261494" lon="8.4148685"><ele>185.0</ele><time>2026-05-03T11:43:07.998Z</time></trkpt><trkpt lat="44.3261171" lon="8.4150854"><ele>183.0</ele><time>2026-05-03T11:43:08.998Z</time></trkpt><trkpt lat="44.3260659" lon="8.4153039"><ele>181.0</ele><time>2026-05-03T11:43:09.998Z</time></trkpt><trkpt lat="44.3260217" lon="8.4155283"><ele>181.0</ele><time>2026-05-03T11:43:10.999Z</time></trkpt><trkpt lat="44.3259821" lon="8.4157547"><ele>181.0</ele><time>2026-05-03T11:43:11.998Z</time></trkpt><trkpt lat="44.3259483" lon="8.4159848"><ele>181.0</ele><time>2026-05-03T11:43:12.999Z</time></trkpt><trkpt lat="44.3259148" lon="8.4162141"><ele>182.66666666666669</ele><time>2026-05-03T11:43:13.998Z</time></trkpt><trkpt lat="44.3258815" lon="8.4164363"><ele>184.33333333333334</ele><time>2026-05-03T11:43:14.998Z</time></trkpt><trkpt lat="44.3258547" lon="8.4166468"><ele>186.0</ele><time>2026-05-03T11:43:15.998Z</time></trkpt><trkpt lat="44.3258286" lon="8.4168367"><ele>186.0</ele><time>2026-05-03T11:43:16.998Z</time></trkpt><trkpt lat="44.3258021" lon="8.416999"><ele>186.0</ele><time>2026-05-03T11:43:17.998Z</time></trkpt><trkpt lat="44.3257565" lon="8.4171568"><ele>186.0</ele><time>2026-05-03T11:43:18.999Z</time></trkpt><trkpt lat="44.325693" lon="8.4172895"><ele>186.0</ele><time>2026-05-03T11:43:19.999Z</time></trkpt><trkpt lat="44.3256003" lon="8.4174009"><ele>184.0</ele><time>2026-05-03T11:43:20.998Z</time></trkpt><trkpt lat="44.3254923" lon="8.4174741"><ele>182.0</ele><time>2026-05-03T11:43:21.998Z</time></trkpt><trkpt lat="44.3253799" lon="8.4175242"><ele>180.0</ele><time>2026-05-03T11:43:22.998Z</time></trkpt><trkpt lat="44.3252756" lon="8.4175715"><ele>178.0</ele><time>2026-05-03T11:43:23.998Z</time></trkpt><trkpt lat="44.3251884" lon="8.4176435"><ele>176.0</ele><time>2026-05-03T11:43:24.999Z</time></trkpt><trkpt lat="44.3251282" lon="8.4177637"><ele>176.0</ele><time>2026-05-03T11:43:25.998Z</time></trkpt><trkpt lat="44.3250945" lon="8.417901"><ele>176.0</ele><time>2026-05-03T11:43:26.998Z</time></trkpt><trkpt lat="44.3250893" lon="8.4180536"><ele>176.0</ele><time>2026-05-03T11:43:27.998Z</time></trkpt><trkpt lat="44.325115" lon="8.4182297"><ele>176.0</ele><time>2026-05-03T11:43:28.999Z</time></trkpt><trkpt lat="44.3251504" lon="8.4184176"><ele>175.25</ele><time>2026-05-03T11:43:29.998Z</time></trkpt><trkpt lat="44.3251959" lon="8.4186067"><ele>174.5</ele><time>2026-05-03T11:43:30.998Z</time></trkpt><trkpt lat="44.3252525" lon="8.41878"><ele>173.75</ele><time>2026-05-03T11:43:31.998Z</time></trkpt><trkpt lat="44.3253242" lon="8.4189331"><ele>173.0</ele><time>2026-05-03T11:43:32.998Z</time></trkpt><trkpt lat="44.3254026" lon="8.4190735"><ele>171.25</ele><time>2026-05-03T11:43:33.999Z</time></trkpt><trkpt lat="44.325464" lon="8.4192089"><ele>169.5</ele><time>2026-05-03T11:43:34.998Z</time></trkpt><trkpt lat="44.3255258" lon="8.4193606"><ele>167.75</ele><time>2026-05-03T11:43:35.999Z</time></trkpt><trkpt lat="44.325574" lon="8.4195358"><ele>166.0</ele><time>2026-05-03T11:43:36.998Z</time></trkpt><trkpt lat="44.325606" lon="8.4197294"><ele>170.25</ele><time>2026-05-03T11:43:37.998Z</time></trkpt><trkpt lat="44.3256273" lon="8.4199302"><ele>174.5</ele><time>2026-05-03T11:43:38.999Z</time></trkpt><trkpt lat="44.3256371" lon="8.4201349"><ele>178.75</ele><time>2026-05-03T11:43:39.998Z</time></trkpt><trkpt lat="44.325631" lon="8.4203404"><ele>183.0</ele><time>2026-05-03T11:43:40.999Z</time></trkpt><trkpt lat="44.3256092" lon="8.4205442"><ele>183.0</ele><time>2026-05-03T11:43:41.998Z</time></trkpt><trkpt lat="44.3255701" lon="8.4207462"><ele>183.0</ele><time>2026-05-03T11:43:42.999Z</time></trkpt><trkpt lat="44.3255128" lon="8.4209541"><ele>183.0</ele><time>2026-05-03T11:43:43.999Z</time></trkpt><trkpt lat="44.3254606" lon="8.4211474"><ele>177.0</ele><time>2026-05-03T11:43:44.999Z</time></trkpt><trkpt lat="44.3254062" lon="8.421338"><ele>171.0</ele><time>2026-05-03T11:43:45.998Z</time></trkpt><trkpt lat="44.325356" lon="8.4215378"><ele>165.0</ele><time>2026-05-03T11:43:46.999Z</time></trkpt><trkpt lat="44.3253015" lon="8.4217386"><ele>165.0</ele><time>2026-05-03T11:43:47.999Z</time></trkpt><trkpt lat="44.3252355" lon="8.4219499"><ele>165.0</ele><time>2026-05-03T11:43:48.998Z</time></trkpt><trkpt lat="44.325164" lon="8.4221573"><ele>165.0</ele><time>2026-05-03T11:43:49.998Z</time></trkpt><trkpt lat="44.3250978" lon="8.4223592"><ele>164.0</ele><time>2026-05-03T11:43:50.999Z</time></trkpt><trkpt lat="44.3250186" lon="8.4225594"><ele>163.0</ele><time>2026-05-03T11:43:51.998Z</time></trkpt><trkpt lat="44.32494" lon="8.4227568"><ele>162.0</ele><time>2026-05-03T11:43:52.999Z</time></trkpt><trkpt lat="44.3248573" lon="8.4229414"><ele>163.33333333333334</ele><time>2026-05-03T11:43:53.998Z</time></trkpt><trkpt lat="44.324766" lon="8.4231284"><ele>164.66666666666669</ele><time>2026-05-03T11:43:54.998Z</time></trkpt><trkpt lat="44.3246857" lon="8.423317"><ele>166.0</ele><time>2026-05-03T11:43:55.999Z</time></trkpt><trkpt lat="44.3246106" lon="8.4235058"><ele>166.0</ele><time>2026-05-03T11:43:56.998Z</time></trkpt><trkpt lat="44.3245418" lon="8.4237008"><ele>166.0</ele><time>2026-05-03T11:43:57.998Z</time></trkpt><trkpt lat="44.3244814" lon="8.4239052"><ele>166.0</ele><time>2026-05-03T11:43:58.998Z</time></trkpt><trkpt lat="44.3244542" lon="8.4241413"><ele>163.66666666666669</ele><time>2026-05-03T11:43:59.998Z</time></trkpt><trkpt lat="44.3244452" lon="8.4243841"><ele>161.33333333333334</ele><time>2026-05-03T11:44:00.998Z</time></trkpt><trkpt lat="44.3244427" lon="8.4246271"><ele>159.0</ele><time>2026-05-03T11:44:01.999Z</time></trkpt><trkpt lat="44.3244384" lon="8.4248586"><ele>159.0</ele><time>2026-05-03T11:44:02.998Z</time></trkpt><trkpt lat="44.3244243" lon="8.4250877"><ele>159.0</ele><time>2026-05-03T11:44:03.999Z</time></trkpt><trkpt lat="44.3244101" lon="8.4253096"><ele>159.0</ele><time>2026-05-03T11:44:04.999Z</time></trkpt><trkpt lat="44.3243916" lon="8.4255357"><ele>158.66666666666666</ele><time>2026-05-03T11:44:05.998Z</time></trkpt><trkpt lat="44.3243221" lon="8.425756"><ele>158.33333333333331</ele><time>2026-05-03T11:44:06.999Z</time></trkpt><trkpt lat="44.3242373" lon="8.4259566"><ele>158.0</ele><time>2026-05-03T11:44:07.999Z</time></trkpt><trkpt lat="44.3241272" lon="8.4261385"><ele>158.0</ele><time>2026-05-03T11:44:08.998Z</time></trkpt><trkpt lat="44.3240171" lon="8.4263026"><ele>158.0</ele><time>2026-05-03T11:44:09.999Z</time></trkpt><trkpt lat="44.3238818" lon="8.4264557"><ele>158.0</ele><time>2026-05-03T11:44:10.998Z</time></trkpt><trkpt lat="44.3237539" lon="8.426606"><ele>158.0</ele><time>2026-05-03T11:44:11.999Z</time></trkpt><trkpt lat="44.3236539" lon="8.4267481"><ele>158.0</ele><time>2026-05-03T11:44:12.999Z</time></trkpt><trkpt lat="44.3235582" lon="8.4268978"><ele>158.0</ele><time>2026-05-03T11:44:13.999Z</time></trkpt><trkpt lat="44.3234709" lon="8.4270539"><ele>158.0</ele><time>2026-05-03T11:44:14.998Z</time></trkpt><trkpt lat="44.3233845" lon="8.4272076"><ele>157.0</ele><time>2026-05-03T11:44:15.999Z</time></trkpt><trkpt lat="44.3233278" lon="8.4273724"><ele>156.0</ele><time>2026-05-03T11:44:16.999Z</time></trkpt><trkpt lat="44.3232915" lon="8.4275506"><ele>155.0</ele><time>2026-05-03T11:44:17.998Z</time></trkpt><trkpt lat="44.3233151" lon="8.4277426"><ele>154.0</ele><time>2026-05-03T11:44:18.998Z</time></trkpt><trkpt lat="44.3233684" lon="8.4279371"><ele>153.66666666666669</ele><time>2026-05-03T11:44:19.998Z</time></trkpt><trkpt lat="44.3234518" lon="8.4281316"><ele>153.33333333333334</ele><time>2026-05-03T11:44:20.998Z</time></trkpt><trkpt lat="44.3235241" lon="8.4283179"><ele>153.0</ele><time>2026-05-03T11:44:21.998Z</time></trkpt><trkpt lat="44.323597" lon="8.4284904"><ele>153.0</ele><time>2026-05-03T11:44:22.998Z</time></trkpt><trkpt lat="44.3236835" lon="8.4286435"><ele>153.0</ele><time>2026-05-03T11:44:23.999Z</time></trkpt><trkpt lat="44.3237756" lon="8.4287889"><ele>153.0</ele><time>2026-05-03T11:44:24.998Z</time></trkpt><trkpt lat="44.3238748" lon="8.4289382"><ele>153.0</ele><time>2026-05-03T11:44:25.999Z</time></trkpt><trkpt lat="44.3239703" lon="8.4290709"><ele>151.0</ele><time>2026-05-03T11:44:26.999Z</time></trkpt><trkpt lat="44.3240675" lon="8.4292049"><ele>149.0</ele><time>2026-05-03T11:44:27.998Z</time></trkpt><trkpt lat="44.324175" lon="8.4293306"><ele>147.0</ele><time>2026-05-03T11:44:28.999Z</time></trkpt><trkpt lat="44.3242777" lon="8.429431"><ele>145.0</ele><time>2026-05-03T11:44:29.998Z</time></trkpt><trkpt lat="44.324398" lon="8.429512"><ele>145.0</ele><time>2026-05-03T11:44:30.998Z</time></trkpt><trkpt lat="44.3245356" lon="8.4295845"><ele>145.0</ele><time>2026-05-03T11:44:31.999Z</time></trkpt><trkpt lat="44.3246942" lon="8.4296588"><ele>145.0</ele><time>2026-05-03T11:44:32.999Z</time></trkpt><trkpt lat="44.3248591" lon="8.4297347"><ele>144.33333333333334</ele><time>2026-05-03T11:44:33.998Z</time></trkpt><trkpt lat="44.3250139" lon="8.4298245"><ele>143.66666666666666</ele><time>2026-05-03T11:44:34.998Z</time></trkpt><trkpt lat="44.3251527" lon="8.4299359"><ele>143.0</ele><time>2026-05-03T11:44:35.998Z</time></trkpt><trkpt lat="44.3252683" lon="8.430066"><ele>143.0</ele><time>2026-05-03T11:44:36.999Z</time></trkpt><trkpt lat="44.3253518" lon="8.4302092"><ele>143.0</ele><time>2026-05-03T11:44:37.998Z</time></trkpt><trkpt lat="44.3254224" lon="8.4303783"><ele>143.0</ele><time>2026-05-03T11:44:38.999Z</time></trkpt><trkpt lat="44.3254647" lon="8.430578"><ele>143.0</ele><time>2026-05-03T11:44:39.998Z</time></trkpt><trkpt lat="44.3254541" lon="8.4307962"><ele>143.0</ele><time>2026-05-03T11:44:40.998Z</time></trkpt><trkpt lat="44.3254176" lon="8.4310084"><ele>143.0</ele><time>2026-05-03T11:44:41.998Z</time></trkpt><trkpt lat="44.3253713" lon="8.4312116"><ele>143.0</ele><time>2026-05-03T11:44:42.998Z</time></trkpt><trkpt lat="44.325324" lon="8.4314127"><ele>143.25</ele><time>2026-05-03T11:44:43.998Z</time></trkpt><trkpt lat="44.3252945" lon="8.4316084"><ele>143.5</ele><time>2026-05-03T11:44:44.998Z</time></trkpt><trkpt lat="44.3252721" lon="8.4317996"><ele>143.75</ele><time>2026-05-03T11:44:45.998Z</time></trkpt><trkpt lat="44.3252429" lon="8.431981"><ele>144.0</ele><time>2026-05-03T11:44:46.999Z</time></trkpt><trkpt lat="44.3251971" lon="8.4321525"><ele>143.25</ele><time>2026-05-03T11:44:47.998Z</time></trkpt><trkpt lat="44.3251452" lon="8.4323277"><ele>142.5</ele><time>2026-05-03T11:44:48.998Z</time></trkpt><trkpt lat="44.3250682" lon="8.4324858"><ele>141.75</ele><time>2026-05-03T11:44:49.999Z</time></trkpt><trkpt lat="44.3249537" lon="8.4326315"><ele>141.0</ele><time>2026-05-03T11:44:50.999Z</time></trkpt><trkpt lat="44.3248329" lon="8.4327725"><ele>142.25</ele><time>2026-05-03T11:44:51.998Z</time></trkpt><trkpt lat="44.324716" lon="8.4329118"><ele>143.5</ele><time>2026-05-03T11:44:52.999Z</time></trkpt><trkpt lat="44.3245949" lon="8.4330435"><ele>144.75</ele><time>2026-05-03T11:44:53.998Z</time></trkpt><trkpt lat="44.3245084" lon="8.433185"><ele>146.0</ele><time>2026-05-03T11:44:54.998Z</time></trkpt><trkpt lat="44.3244251" lon="8.4333287"><ele>146.0</ele><time>2026-05-03T11:44:55.999Z</time></trkpt><trkpt lat="44.3243538" lon="8.433479"><ele>146.0</ele><time>2026-05-03T11:44:56.998Z</time></trkpt><trkpt lat="44.3243215" lon="8.4336447"><ele>146.0</ele><time>2026-05-03T11:44:57.998Z</time></trkpt><trkpt lat="44.3243302" lon="8.4338244"><ele>146.0</ele><time>2026-05-03T11:44:58.999Z</time></trkpt><trkpt lat="44.3243829" lon="8.4339956"><ele>146.25</ele><time>2026-05-03T11:44:59.998Z</time></trkpt><trkpt lat="44.3244678" lon="8.4341399"><ele>146.5</ele><time>2026-05-03T11:45:00.998Z</time></trkpt><trkpt lat="44.324573" lon="8.4342629"><ele>146.75</ele><time>2026-05-03T11:45:01.998Z</time></trkpt><trkpt lat="44.3246946" lon="8.4343789"><ele>147.0</ele><time>2026-05-03T11:45:02.998Z</time></trkpt><trkpt lat="44.324812" lon="8.4345031"><ele>147.0</ele><time>2026-05-03T11:45:03.997Z</time></trkpt><trkpt lat="44.3249275" lon="8.4346377"><ele>147.0</ele><time>2026-05-03T11:45:04.997Z</time></trkpt><trkpt lat="44.3250258" lon="8.4347872"><ele>147.0</ele><time>2026-05-03T11:45:05.997Z</time></trkpt><trkpt lat="44.3251175" lon="8.4349451"><ele>147.0</ele><time>2026-05-03T11:45:06.997Z</time></trkpt><trkpt lat="44.3251899" lon="8.4351109"><ele>144.0</ele><time>2026-05-03T11:45:07.997Z</time></trkpt><trkpt lat="44.325224" lon="8.4353036"><ele>141.0</ele><time>2026-05-03T11:45:08.997Z</time></trkpt><trkpt lat="44.3252304" lon="8.435519"><ele>138.0</ele><time>2026-05-03T11:45:09.997Z</time></trkpt><trkpt lat="44.325189" lon="8.4357275"><ele>137.0</ele><time>2026-05-03T11:45:10.997Z</time></trkpt><trkpt lat="44.3251198" lon="8.4359189"><ele>136.0</ele><time>2026-05-03T11:45:11.997Z</time></trkpt><trkpt lat="44.3250386" lon="8.4360832"><ele>135.0</ele><time>2026-05-03T11:45:12.997Z</time></trkpt><trkpt lat="44.3249679" lon="8.4362344"><ele>134.0</ele><time>2026-05-03T11:45:13.997Z</time></trkpt><trkpt lat="44.3249153" lon="8.4363828"><ele>134.0</ele><time>2026-05-03T11:45:14.997Z</time></trkpt><trkpt lat="44.3248835" lon="8.4365314"><ele>134.0</ele><time>2026-05-03T11:45:15.998Z</time></trkpt><trkpt lat="44.324874" lon="8.4366855"><ele>134.0</ele><time>2026-05-03T11:45:16.998Z</time></trkpt><trkpt lat="44.324896" lon="8.4368278"><ele>134.0</ele><time>2026-05-03T11:45:17.997Z</time></trkpt><trkpt lat="44.3249684" lon="8.4369389"><ele>134.0</ele><time>2026-05-03T11:45:18.998Z</time></trkpt><trkpt lat="44.3250678" lon="8.4370274"><ele>134.0</ele><time>2026-05-03T11:45:19.997Z</time></trkpt><trkpt lat="44.325168" lon="8.4371228"><ele>134.0</ele><time>2026-05-03T11:45:20.998Z</time></trkpt><trkpt lat="44.3252621" lon="8.4372305"><ele>134.0</ele><time>2026-05-03T11:45:21.998Z</time></trkpt><trkpt lat="44.325343" lon="8.4373734"><ele>134.0</ele><time>2026-05-03T11:45:22.997Z</time></trkpt><trkpt lat="44.3254285" lon="8.4375433"><ele>135.5</ele><time>2026-05-03T11:45:23.997Z</time></trkpt><trkpt lat="44.3254961" lon="8.4377166"><ele>137.0</ele><time>2026-05-03T11:45:24.997Z</time></trkpt><trkpt lat="44.3255396" lon="8.4378945"><ele>138.5</ele><time>2026-05-03T11:45:25.997Z</time></trkpt><trkpt lat="44.3255849" lon="8.4380849"><ele>140.0</ele><time>2026-05-03T11:45:26.997Z</time></trkpt><trkpt lat="44.3256259" lon="8.4382735"><ele>140.0</ele><time>2026-05-03T11:45:27.997Z</time></trkpt><trkpt lat="44.3256739" lon="8.4384732"><ele>140.0</ele><time>2026-05-03T11:45:28.998Z</time></trkpt><trkpt lat="44.3257286" lon="8.4386735"><ele>140.0</ele><time>2026-05-03T11:45:29.997Z</time></trkpt><trkpt lat="44.3257842" lon="8.4388834"><ele>139.33333333333331</ele><time>2026-05-03T11:45:30.997Z</time></trkpt><trkpt lat="44.3258433" lon="8.4390965"><ele>138.66666666666666</ele><time>2026-05-03T11:45:31.998Z</time></trkpt><trkpt lat="44.325893" lon="8.4393115"><ele>138.0</ele><time>2026-05-03T11:45:32.997Z</time></trkpt><trkpt lat="44.3259439" lon="8.439547"><ele>137.33333333333334</ele><time>2026-05-03T11:45:33.998Z</time></trkpt><trkpt lat="44.3259882" lon="8.4397876"><ele>136.66666666666669</ele><time>2026-05-03T11:45:34.997Z</time></trkpt><trkpt lat="44.3260433" lon="8.4400326"><ele>136.0</ele><time>2026-05-03T11:45:35.997Z</time></trkpt><trkpt lat="44.3261026" lon="8.4402722"><ele>137.66666666666669</ele><time>2026-05-03T11:45:36.997Z</time></trkpt><trkpt lat="44.3261707" lon="8.440505"><ele>139.33333333333334</ele><time>2026-05-03T11:45:37.997Z</time></trkpt><trkpt lat="44.3262495" lon="8.4407272"><ele>141.0</ele><time>2026-05-03T11:45:38.997Z</time></trkpt><trkpt lat="44.3263345" lon="8.4409449"><ele>137.0</ele><time>2026-05-03T11:45:39.997Z</time></trkpt><trkpt lat="44.3264151" lon="8.4411519"><ele>133.0</ele><time>2026-05-03T11:45:40.997Z</time></trkpt><trkpt lat="44.3264997" lon="8.441357"><ele>129.0</ele><time>2026-05-03T11:45:41.998Z</time></trkpt><trkpt lat="44.3265765" lon="8.4415624"><ele>128.0</ele><time>2026-05-03T11:45:42.997Z</time></trkpt><trkpt lat="44.3266438" lon="8.441764"><ele>127.0</ele><time>2026-05-03T11:45:43.997Z</time></trkpt><trkpt lat="44.3266867" lon="8.4419442"><ele>126.0</ele><time>2026-05-03T11:45:44.997Z</time></trkpt><trkpt lat="44.3267008" lon="8.4421175"><ele>125.0</ele><time>2026-05-03T11:45:45.997Z</time></trkpt><trkpt lat="44.3266722" lon="8.4422764"><ele>125.0</ele><time>2026-05-03T11:45:46.998Z</time></trkpt><trkpt lat="44.3266318" lon="8.4424408"><ele>125.0</ele><time>2026-05-03T11:45:47.998Z</time></trkpt><trkpt lat="44.3265894" lon="8.4426015"><ele>125.0</ele><time>2026-05-03T11:45:48.997Z</time></trkpt><trkpt lat="44.3265447" lon="8.4427534"><ele>125.0</ele><time>2026-05-03T11:45:49.998Z</time></trkpt><trkpt lat="44.3265116" lon="8.4429"><ele>124.0</ele><time>2026-05-03T11:45:50.997Z</time></trkpt><trkpt lat="44.3265031" lon="8.4430412"><ele>123.0</ele><time>2026-05-03T11:45:51.998Z</time></trkpt><trkpt lat="44.3265301" lon="8.4431646"><ele>122.0</ele><time>2026-05-03T11:45:52.998Z</time></trkpt><trkpt lat="44.3266049" lon="8.4432604"><ele>121.0</ele><time>2026-05-03T11:45:53.997Z</time></trkpt><trkpt lat="44.3267369" lon="8.4433144"><ele>120.0</ele><time>2026-05-03T11:45:54.997Z</time></trkpt><trkpt lat="44.3268733" lon="8.443372"><ele>120.0</ele><time>2026-05-03T11:45:55.997Z</time></trkpt><trkpt lat="44.3270105" lon="8.4434445"><ele>120.0</ele><time>2026-05-03T11:45:56.997Z</time></trkpt><trkpt lat="44.3271264" lon="8.4435413"><ele>120.0</ele><time>2026-05-03T11:45:57.997Z</time></trkpt><trkpt lat="44.3272122" lon="8.4436476"><ele>120.0</ele><time>2026-05-03T11:45:58.998Z</time></trkpt><trkpt lat="44.3272762" lon="8.4437932"><ele>121.0</ele><time>2026-05-03T11:45:59.998Z</time></trkpt><trkpt lat="44.3273191" lon="8.4439604"><ele>122.0</ele><time>2026-05-03T11:46:00.998Z</time></trkpt><trkpt lat="44.3273568" lon="8.4441268"><ele>123.0</ele><time>2026-05-03T11:46:01.997Z</time></trkpt><trkpt lat="44.3273808" lon="8.4442974"><ele>124.0</ele><time>2026-05-03T11:46:02.997Z</time></trkpt><trkpt lat="44.3274042" lon="8.4444655"><ele>122.25</ele><time>2026-05-03T11:46:03.997Z</time></trkpt><trkpt lat="44.3274319" lon="8.444632"><ele>120.5</ele><time>2026-05-03T11:46:04.998Z</time></trkpt><trkpt lat="44.3274498" lon="8.444804"><ele>118.75</ele><time>2026-05-03T11:46:05.997Z</time></trkpt><trkpt lat="44.3274129" lon="8.4449724"><ele>117.0</ele><time>2026-05-03T11:46:06.997Z</time></trkpt><trkpt lat="44.3273537" lon="8.4451432"><ele>117.0</ele><time>2026-05-03T11:46:07.997Z</time></trkpt><trkpt lat="44.3272863" lon="8.445316"><ele>117.0</ele><time>2026-05-03T11:46:08.997Z</time></trkpt><trkpt lat="44.327217" lon="8.4454806"><ele>117.0</ele><time>2026-05-03T11:46:09.997Z</time></trkpt><trkpt lat="44.3271619" lon="8.4456557"><ele>117.0</ele><time>2026-05-03T11:46:10.997Z</time></trkpt><trkpt lat="44.3271158" lon="8.4458312"><ele>117.5</ele><time>2026-05-03T11:46:11.998Z</time></trkpt><trkpt lat="44.3270708" lon="8.4459997"><ele>118.0</ele><time>2026-05-03T11:46:12.997Z</time></trkpt><trkpt lat="44.3270217" lon="8.4461674"><ele>118.5</ele><time>2026-05-03T11:46:13.997Z</time></trkpt><trkpt lat="44.326982" lon="8.4463447"><ele>119.0</ele><time>2026-05-03T11:46:14.997Z</time></trkpt><trkpt lat="44.3269612" lon="8.4465286"><ele>116.75</ele><time>2026-05-03T11:46:15.997Z</time></trkpt><trkpt lat="44.3269547" lon="8.4467091"><ele>114.5</ele><time>2026-05-03T11:46:16.997Z</time></trkpt><trkpt lat="44.3269743" lon="8.4468965"><ele>112.25</ele><time>2026-05-03T11:46:17.998Z</time></trkpt><trkpt lat="44.3269916" lon="8.447086"><ele>110.0</ele><time>2026-05-03T11:46:18.998Z</time></trkpt><trkpt lat="44.327002" lon="8.4472865"><ele>108.5</ele><time>2026-05-03T11:46:19.997Z</time></trkpt><trkpt lat="44.3270087" lon="8.4474874"><ele>107.0</ele><time>2026-05-03T11:46:20.998Z</time></trkpt><trkpt lat="44.3270034" lon="8.4476949"><ele>105.5</ele><time>2026-05-03T11:46:21.998Z</time></trkpt><trkpt lat="44.3269915" lon="8.4479017"><ele>104.0</ele><time>2026-05-03T11:46:22.997Z</time></trkpt><trkpt lat="44.3269615" lon="8.4481242"><ele>102.0</ele><time>2026-05-03T11:46:23.997Z</time></trkpt><trkpt lat="44.3269088" lon="8.4483263"><ele>100.0</ele><time>2026-05-03T11:46:24.997Z</time></trkpt><trkpt lat="44.3268482" lon="8.4485199"><ele>98.0</ele><time>2026-05-03T11:46:25.998Z</time></trkpt><trkpt lat="44.3267831" lon="8.4487063"><ele>98.0</ele><time>2026-05-03T11:46:26.998Z</time></trkpt><trkpt lat="44.3267143" lon="8.4488911"><ele>98.0</ele><time>2026-05-03T11:46:27.997Z</time></trkpt><trkpt lat="44.3266533" lon="8.4490675"><ele>98.0</ele><time>2026-05-03T11:46:28.997Z</time></trkpt><trkpt lat="44.3265881" lon="8.4492335"><ele>98.0</ele><time>2026-05-03T11:46:29.997Z</time></trkpt><trkpt lat="44.3265306" lon="8.4493951"><ele>98.0</ele><time>2026-05-03T11:46:30.997Z</time></trkpt><trkpt lat="44.3264755" lon="8.4495477"><ele>98.0</ele><time>2026-05-03T11:46:31.997Z</time></trkpt><trkpt lat="44.3264412" lon="8.4496972"><ele>98.0</ele><time>2026-05-03T11:46:32.998Z</time></trkpt><trkpt lat="44.3264335" lon="8.4498468"><ele>98.0</ele><time>2026-05-03T11:46:33.998Z</time></trkpt><trkpt lat="44.3264278" lon="8.4500075"><ele>97.5</ele><time>2026-05-03T11:46:34.998Z</time></trkpt><trkpt lat="44.3264468" lon="8.4501682"><ele>97.0</ele><time>2026-05-03T11:46:35.997Z</time></trkpt><trkpt lat="44.3264901" lon="8.4503318"><ele>96.5</ele><time>2026-05-03T11:46:36.998Z</time></trkpt><trkpt lat="44.3265321" lon="8.4504844"><ele>96.0</ele><time>2026-05-03T11:46:37.998Z</time></trkpt><trkpt lat="44.3265482" lon="8.4506438"><ele>95.0</ele><time>2026-05-03T11:46:38.998Z</time></trkpt><trkpt lat="44.3265501" lon="8.4508184"><ele>94.0</ele><time>2026-05-03T11:46:39.998Z</time></trkpt><trkpt lat="44.3265365" lon="8.4510067"><ele>93.0</ele><time>2026-05-03T11:46:40.998Z</time></trkpt><trkpt lat="44.3265095" lon="8.4512072"><ele>92.0</ele><time>2026-05-03T11:46:41.997Z</time></trkpt><trkpt lat="44.3264812" lon="8.4514117"><ele>91.33333333333334</ele><time>2026-05-03T11:46:42.997Z</time></trkpt><trkpt lat="44.3264612" lon="8.45162"><ele>90.66666666666667</ele><time>2026-05-03T11:46:43.997Z</time></trkpt><trkpt lat="44.3264396" lon="8.451834"><ele>90.0</ele><time>2026-05-03T11:46:44.998Z</time></trkpt><trkpt lat="44.3264139" lon="8.4520469"><ele>95.0</ele><time>2026-05-03T11:46:45.998Z</time></trkpt><trkpt lat="44.3263835" lon="8.452263"><ele>100.0</ele><time>2026-05-03T11:46:46.998Z</time></trkpt><trkpt lat="44.3263496" lon="8.4524844"><ele>105.0</ele><time>2026-05-03T11:46:47.997Z</time></trkpt><trkpt lat="44.3263299" lon="8.4527243"><ele>101.66666666666667</ele><time>2026-05-03T11:46:48.997Z</time></trkpt><trkpt lat="44.3263084" lon="8.4529707"><ele>98.33333333333334</ele><time>2026-05-03T11:46:49.997Z</time></trkpt><trkpt lat="44.3262797" lon="8.4532183"><ele>95.0</ele><time>2026-05-03T11:46:50.997Z</time></trkpt><trkpt lat="44.3262486" lon="8.4534694"><ele>95.0</ele><time>2026-05-03T11:46:51.998Z</time></trkpt><trkpt lat="44.3262235" lon="8.4537293"><ele>95.0</ele><time>2026-05-03T11:46:52.998Z</time></trkpt><trkpt lat="44.3261847" lon="8.4539922"><ele>95.0</ele><time>2026-05-03T11:46:53.997Z</time></trkpt><trkpt lat="44.3261299" lon="8.4542566"><ele>92.0</ele><time>2026-05-03T11:46:54.997Z</time></trkpt><trkpt lat="44.3260456" lon="8.4544967"><ele>89.0</ele><time>2026-05-03T11:46:55.997Z</time></trkpt><trkpt lat="44.3259418" lon="8.4547127"><ele>86.0</ele><time>2026-05-03T11:46:56.998Z</time></trkpt><trkpt lat="44.3258404" lon="8.4549245"><ele>85.0</ele><time>2026-05-03T11:46:57.997Z</time></trkpt><trkpt lat="44.3257376" lon="8.4551393"><ele>84.0</ele><time>2026-05-03T11:46:58.998Z</time></trkpt><trkpt lat="44.3256331" lon="8.4553453"><ele>83.0</ele><time>2026-05-03T11:46:59.997Z</time></trkpt><trkpt lat="44.325551" lon="8.4555488"><ele>85.66666666666667</ele><time>2026-05-03T11:47:00.997Z</time></trkpt><trkpt lat="44.3254657" lon="8.4557543"><ele>88.33333333333333</ele><time>2026-05-03T11:47:01.998Z</time></trkpt><trkpt lat="44.3253928" lon="8.4559552"><ele>91.0</ele><time>2026-05-03T11:47:02.997Z</time></trkpt><trkpt lat="44.3253216" lon="8.4561618"><ele>87.33333333333333</ele><time>2026-05-03T11:47:03.997Z</time></trkpt><trkpt lat="44.3252699" lon="8.4563814"><ele>83.66666666666667</ele><time>2026-05-03T11:47:04.997Z</time></trkpt><trkpt lat="44.3252381" lon="8.4566132"><ele>80.0</ele><time>2026-05-03T11:47:05.998Z</time></trkpt><trkpt lat="44.3252138" lon="8.4568347"><ele>80.0</ele><time>2026-05-03T11:47:06.997Z</time></trkpt><trkpt lat="44.3251779" lon="8.4570471"><ele>80.0</ele><time>2026-05-03T11:47:07.997Z</time></trkpt><trkpt lat="44.3251106" lon="8.4572483"><ele>80.0</ele><time>2026-05-03T11:47:08.998Z</time></trkpt><trkpt lat="44.3250201" lon="8.4574175"><ele>77.75</ele><time>2026-05-03T11:47:09.998Z</time></trkpt><trkpt lat="44.3249287" lon="8.4575712"><ele>75.5</ele><time>2026-05-03T11:47:10.997Z</time></trkpt><trkpt lat="44.3248362" lon="8.457735"><ele>73.25</ele><time>2026-05-03T11:47:11.997Z</time></trkpt><trkpt lat="44.3247653" lon="8.4579178"><ele>71.0</ele><time>2026-05-03T11:47:12.998Z</time></trkpt><trkpt lat="44.3247142" lon="8.4581096"><ele>69.25</ele><time>2026-05-03T11:47:13.997Z</time></trkpt><trkpt lat="44.3246677" lon="8.4583041"><ele>67.5</ele><time>2026-05-03T11:47:14.997Z</time></trkpt><trkpt lat="44.3246258" lon="8.4584957"><ele>65.75</ele><time>2026-05-03T11:47:15.998Z</time></trkpt><trkpt lat="44.3245648" lon="8.4586676"><ele>64.0</ele><time>2026-05-03T11:47:16.998Z</time></trkpt><trkpt lat="44.3245084" lon="8.4588256"><ele>63.0</ele><time>2026-05-03T11:47:17.997Z</time></trkpt><trkpt lat="44.3244518" lon="8.4589551"><ele>62.0</ele><time>2026-05-03T11:47:18.997Z</time></trkpt><trkpt lat="44.3243751" lon="8.4590529"><ele>61.0</ele><time>2026-05-03T11:47:19.998Z</time></trkpt><trkpt lat="44.3242529" lon="8.4590988"><ele>60.0</ele><time>2026-05-03T11:47:20.997Z</time></trkpt><trkpt lat="44.3241327" lon="8.4591437"><ele>60.0</ele><time>2026-05-03T11:47:21.997Z</time></trkpt><trkpt lat="44.3239552" lon="8.4591449"><ele>60.0</ele><time>2026-05-03T11:47:22.998Z</time></trkpt><trkpt lat="44.3237881" lon="8.4591198"><ele>60.0</ele><time>2026-05-03T11:47:23.998Z</time></trkpt><trkpt lat="44.3236138" lon="8.4591049"><ele>58.25</ele><time>2026-05-03T11:47:24.997Z</time></trkpt><trkpt lat="44.3234475" lon="8.4591053"><ele>56.5</ele><time>2026-05-03T11:47:25.998Z</time></trkpt><trkpt lat="44.3233069" lon="8.4591079"><ele>54.75</ele><time>2026-05-03T11:47:26.997Z</time></trkpt><trkpt lat="44.3231763" lon="8.4591048"><ele>53.0</ele><time>2026-05-03T11:47:27.997Z</time></trkpt><trkpt lat="44.3230537" lon="8.459104"><ele>53.0</ele><time>2026-05-03T11:47:28.997Z</time></trkpt><trkpt lat="44.3229442" lon="8.4591284"><ele>53.0</ele><time>2026-05-03T11:47:29.997Z</time></trkpt><trkpt lat="44.3228283" lon="8.4591948"><ele>53.0</ele><time>2026-05-03T11:47:30.997Z</time></trkpt><trkpt lat="44.3227266" lon="8.4593026"><ele>53.0</ele><time>2026-05-03T11:47:31.997Z</time></trkpt><trkpt lat="44.3226804" lon="8.4594295"><ele>53.0</ele><time>2026-05-03T11:47:32.998Z</time></trkpt><trkpt lat="44.3226314" lon="8.4595774"><ele>53.0</ele><time>2026-05-03T11:47:33.997Z</time></trkpt><trkpt lat="44.3225653" lon="8.4597349"><ele>53.0</ele><time>2026-05-03T11:47:34.997Z</time></trkpt><trkpt lat="44.3225123" lon="8.4598988"><ele>53.0</ele><time>2026-05-03T11:47:35.997Z</time></trkpt><trkpt lat="44.322462" lon="8.4600637"><ele>50.25</ele><time>2026-05-03T11:47:36.997Z</time></trkpt><trkpt lat="44.3224408" lon="8.460219"><ele>47.5</ele><time>2026-05-03T11:47:37.997Z</time></trkpt><trkpt lat="44.3224922" lon="8.4603841"><ele>44.75</ele><time>2026-05-03T11:47:38.997Z</time></trkpt><trkpt lat="44.3225568" lon="8.4605298"><ele>42.0</ele><time>2026-05-03T11:47:39.998Z</time></trkpt><trkpt lat="44.3226028" lon="8.4606606"><ele>41.4</ele><time>2026-05-03T11:47:40.997Z</time></trkpt><trkpt lat="44.3226415" lon="8.4607977"><ele>40.800000000000004</ele><time>2026-05-03T11:47:41.997Z</time></trkpt><trkpt lat="44.3226297" lon="8.4609287"><ele>40.2</ele><time>2026-05-03T11:47:42.997Z</time></trkpt><trkpt lat="44.3225707" lon="8.4610428"><ele>39.6</ele><time>2026-05-03T11:47:43.998Z</time></trkpt><trkpt lat="44.3224795" lon="8.4611393"><ele>39.0</ele><time>2026-05-03T11:47:44.998Z</time></trkpt><trkpt lat="44.3223805" lon="8.461228"><ele>40.0</ele><time>2026-05-03T11:47:45.998Z</time></trkpt><trkpt lat="44.32228" lon="8.4613134"><ele>41.0</ele><time>2026-05-03T11:47:46.997Z</time></trkpt><trkpt lat="44.3221745" lon="8.4613982"><ele>42.0</ele><time>2026-05-03T11:47:47.997Z</time></trkpt><trkpt lat="44.3220692" lon="8.4614759"><ele>43.0</ele><time>2026-05-03T11:47:48.997Z</time></trkpt><trkpt lat="44.3219567" lon="8.461557"><ele>43.0</ele><time>2026-05-03T11:47:49.997Z</time></trkpt><trkpt lat="44.3218268" lon="8.4616453"><ele>43.0</ele><time>2026-05-03T11:47:50.998Z</time></trkpt><trkpt lat="44.3216963" lon="8.4617257"><ele>43.0</ele><time>2026-05-03T11:47:51.997Z</time></trkpt><trkpt lat="44.3215712" lon="8.4617968"><ele>43.0</ele><time>2026-05-03T11:47:52.997Z</time></trkpt><trkpt lat="44.3214453" lon="8.4618741"><ele>41.5</ele><time>2026-05-03T11:47:53.998Z</time></trkpt><trkpt lat="44.3213263" lon="8.4619624"><ele>40.0</ele><time>2026-05-03T11:47:54.997Z</time></trkpt><trkpt lat="44.3212253" lon="8.4620708"><ele>38.5</ele><time>2026-05-03T11:47:55.997Z</time></trkpt><trkpt lat="44.3211406" lon="8.4622032"><ele>37.0</ele><time>2026-05-03T11:47:56.998Z</time></trkpt><trkpt lat="44.3210895" lon="8.4623611"><ele>37.0</ele><time>2026-05-03T11:47:57.997Z</time></trkpt><trkpt lat="44.3210638" lon="8.4625329"><ele>37.0</ele><time>2026-05-03T11:47:58.997Z</time></trkpt><trkpt lat="44.3210457" lon="8.4627032"><ele>37.0</ele><time>2026-05-03T11:47:59.998Z</time></trkpt><trkpt lat="44.321036" lon="8.4628709"><ele>37.0</ele><time>2026-05-03T11:48:00.997Z</time></trkpt><trkpt lat="44.3210271" lon="8.4630382"><ele>36.5</ele><time>2026-05-03T11:48:01.998Z</time></trkpt><trkpt lat="44.3210465" lon="8.4632062"><ele>36.0</ele><time>2026-05-03T11:48:02.997Z</time></trkpt><trkpt lat="44.3210559" lon="8.4633666"><ele>35.5</ele><time>2026-05-03T11:48:03.997Z</time></trkpt><trkpt lat="44.3210556" lon="8.463533"><ele>35.0</ele><time>2026-05-03T11:48:04.998Z</time></trkpt><trkpt lat="44.3210561" lon="8.4636949"><ele>33.0</ele><time>2026-05-03T11:48:05.998Z</time></trkpt><trkpt lat="44.3210442" lon="8.4638505"><ele>31.0</ele><time>2026-05-03T11:48:06.998Z</time></trkpt><trkpt lat="44.3210253" lon="8.4640158"><ele>29.0</ele><time>2026-05-03T11:48:07.998Z</time></trkpt><trkpt lat="44.3210076" lon="8.464176"><ele>27.0</ele><time>2026-05-03T11:48:08.997Z</time></trkpt><trkpt lat="44.3209728" lon="8.4643397"><ele>27.0</ele><time>2026-05-03T11:48:09.997Z</time></trkpt><trkpt lat="44.3209349" lon="8.4645176"><ele>27.0</ele><time>2026-05-03T11:48:10.997Z</time></trkpt><trkpt lat="44.3209029" lon="8.4646936"><ele>27.0</ele><time>2026-05-03T11:48:11.998Z</time></trkpt><trkpt lat="44.3208775" lon="8.4648577"><ele>27.0</ele><time>2026-05-03T11:48:12.998Z</time></trkpt><trkpt lat="44.3208613" lon="8.4650054"><ele>26.6</ele><time>2026-05-03T11:48:13.997Z</time></trkpt><trkpt lat="44.3208436" lon="8.4651574"><ele>26.200000000000003</ele><time>2026-05-03T11:48:14.997Z</time></trkpt><trkpt lat="44.3208313" lon="8.4652997"><ele>25.8</ele><time>2026-05-03T11:48:15.997Z</time></trkpt><trkpt lat="44.3208135" lon="8.4654451"><ele>25.4</ele><time>2026-05-03T11:48:16.998Z</time></trkpt><trkpt lat="44.3207901" lon="8.4655757"><ele>25.0</ele><time>2026-05-03T11:48:17.998Z</time></trkpt><trkpt lat="44.32078" lon="8.4656989"><ele>25.000000000000004</ele><time>2026-05-03T11:48:18.997Z</time></trkpt><trkpt lat="44.3207731" lon="8.4658042"><ele>25.0</ele><time>2026-05-03T11:48:19.997Z</time></trkpt><trkpt lat="44.3207628" lon="8.4658976"><ele>25.0</ele><time>2026-05-03T11:48:20.997Z</time></trkpt><trkpt lat="44.3207494" lon="8.4659847"><ele>25.0</ele><time>2026-05-03T11:48:21.997Z</time></trkpt><trkpt lat="44.3207142" lon="8.4661402"><ele>25.000000000000004</ele><time>2026-05-03T11:48:23.997Z</time></trkpt><trkpt lat="44.3206929" lon="8.4662453"><ele>25.0</ele><time>2026-05-03T11:48:25.998Z</time></trkpt><trkpt lat="44.3206834" lon="8.4663378"><ele>25.000000000000004</ele><time>2026-05-03T11:54:27.997Z</time></trkpt><trkpt lat="44.3206667" lon="8.4664267"><ele>25.0</ele><time>2026-05-03T11:54:30.996Z</time></trkpt><trkpt lat="44.3206567" lon="8.4665633"><ele>25.0</ele><time>2026-05-03T11:55:02.997Z</time></trkpt><trkpt lat="44.3206567" lon="8.4666517"><ele>25.0</ele><time>2026-05-03T11:55:03.997Z</time></trkpt><trkpt lat="44.3206417" lon="8.4668183"><ele>25.000000000000004</ele><time>2026-05-03T11:55:05.996Z</time></trkpt><trkpt lat="44.3206267" lon="8.466905"><ele>25.0</ele><time>2026-05-03T11:55:06.996Z</time></trkpt><trkpt lat="44.320605" lon="8.46701"><ele>24.2</ele><time>2026-05-03T11:55:07.996Z</time></trkpt><trkpt lat="44.320565" lon="8.4671267"><ele>23.4</ele><time>2026-05-03T11:55:08.996Z</time></trkpt><trkpt lat="44.320515" lon="8.4672333"><ele>22.6</ele><time>2026-05-03T11:55:09.997Z</time></trkpt><trkpt lat="44.32046" lon="8.4673317"><ele>21.8</ele><time>2026-05-03T11:55:10.997Z</time></trkpt><trkpt lat="44.3203917" lon="8.4674267"><ele>21.0</ele><time>2026-05-03T11:55:11.997Z</time></trkpt><trkpt lat="44.3203067" lon="8.4675217"><ele>21.0</ele><time>2026-05-03T11:55:12.996Z</time></trkpt><trkpt lat="44.320225" lon="8.46761"><ele>21.0</ele><time>2026-05-03T11:55:13.996Z</time></trkpt><trkpt lat="44.3201167" lon="8.4677"><ele>21.0</ele><time>2026-05-03T11:55:14.996Z</time></trkpt><trkpt lat="44.32" lon="8.4677783"><ele>21.0</ele><time>2026-05-03T11:55:15.997Z</time></trkpt><trkpt lat="44.3199017" lon="8.4678517"><ele>21.0</ele><time>2026-05-03T11:55:16.996Z</time></trkpt><trkpt lat="44.3198033" lon="8.46793"><ele>21.0</ele><time>2026-05-03T11:55:17.996Z</time></trkpt><trkpt lat="44.3196733" lon="8.4680067"><ele>21.0</ele><time>2026-05-03T11:55:18.996Z</time></trkpt><trkpt lat="44.3195817" lon="8.468095"><ele>21.0</ele><time>2026-05-03T11:55:19.997Z</time></trkpt><trkpt lat="44.3194933" lon="8.4681883"><ele>20.25</ele><time>2026-05-03T11:55:20.996Z</time></trkpt><trkpt lat="44.3193983" lon="8.4682767"><ele>19.5</ele><time>2026-05-03T11:55:21.996Z</time></trkpt><trkpt lat="44.3192883" lon="8.4683833"><ele>18.75</ele><time>2026-05-03T11:55:22.996Z</time></trkpt><trkpt lat="44.3191633" lon="8.4684933"><ele>18.0</ele><time>2026-05-03T11:55:23.996Z</time></trkpt><trkpt lat="44.31904" lon="8.4685917"><ele>18.0</ele><time>2026-05-03T11:55:24.997Z</time></trkpt><trkpt lat="44.31892" lon="8.4686967"><ele>18.0</ele><time>2026-05-03T11:55:25.997Z</time></trkpt><trkpt lat="44.3187967" lon="8.4687967"><ele>18.0</ele><time>2026-05-03T11:55:26.997Z</time></trkpt><trkpt lat="44.318705" lon="8.468895"><ele>18.0</ele><time>2026-05-03T11:55:27.996Z</time></trkpt><trkpt lat="44.31861" lon="8.4690017"><ele>17.75</ele><time>2026-05-03T11:55:28.996Z</time></trkpt><trkpt lat="44.3185017" lon="8.4691067"><ele>17.5</ele><time>2026-05-03T11:55:29.997Z</time></trkpt><trkpt lat="44.31838" lon="8.46921"><ele>17.25</ele><time>2026-05-03T11:55:30.997Z</time></trkpt><trkpt lat="44.31826" lon="8.4693067"><ele>17.0</ele><time>2026-05-03T11:55:31.996Z</time></trkpt><trkpt lat="44.31814" lon="8.4694083"><ele>17.25</ele><time>2026-05-03T11:55:32.996Z</time></trkpt><trkpt lat="44.3180183" lon="8.4695017"><ele>17.5</ele><time>2026-05-03T11:55:33.996Z</time></trkpt><trkpt lat="44.3178933" lon="8.4696017"><ele>17.75</ele><time>2026-05-03T11:55:34.996Z</time></trkpt><trkpt lat="44.3177683" lon="8.4697017"><ele>18.0</ele><time>2026-05-03T11:55:35.997Z</time></trkpt><trkpt lat="44.317645" lon="8.469805"><ele>18.0</ele><time>2026-05-03T11:55:36.996Z</time></trkpt><trkpt lat="44.31752" lon="8.4699083"><ele>18.0</ele><time>2026-05-03T11:55:37.996Z</time></trkpt><trkpt lat="44.31739" lon="8.4700117"><ele>18.0</ele><time>2026-05-03T11:55:38.996Z</time></trkpt><trkpt lat="44.3172683" lon="8.4701233"><ele>18.0</ele><time>2026-05-03T11:55:39.996Z</time></trkpt><trkpt lat="44.3171567" lon="8.4702367"><ele>18.5</ele><time>2026-05-03T11:55:40.996Z</time></trkpt><trkpt lat="44.3170417" lon="8.47031"><ele>19.0</ele><time>2026-05-03T11:55:41.997Z</time></trkpt><trkpt lat="44.3169167" lon="8.4704083"><ele>19.5</ele><time>2026-05-03T11:55:42.996Z</time></trkpt><trkpt lat="44.3167883" lon="8.4704883"><ele>20.0</ele><time>2026-05-03T11:55:43.997Z</time></trkpt><trkpt lat="44.3166683" lon="8.4705983"><ele>20.0</ele><time>2026-05-03T11:55:44.996Z</time></trkpt><trkpt lat="44.3165367" lon="8.47072"><ele>20.0</ele><time>2026-05-03T11:55:45.996Z</time></trkpt><trkpt lat="44.3164117" lon="8.4708183"><ele>20.0</ele><time>2026-05-03T11:55:46.996Z</time></trkpt><trkpt lat="44.31629" lon="8.4709167"><ele>20.0</ele><time>2026-05-03T11:55:47.996Z</time></trkpt><trkpt lat="44.3161683" lon="8.47102"><ele>19.25</ele><time>2026-05-03T11:55:48.996Z</time></trkpt><trkpt lat="44.316035" lon="8.4711233"><ele>18.5</ele><time>2026-05-03T11:55:49.997Z</time></trkpt><trkpt lat="44.3159117" lon="8.4712583"><ele>17.75</ele><time>2026-05-03T11:55:50.997Z</time></trkpt><trkpt lat="44.315785" lon="8.47134"><ele>17.0</ele><time>2026-05-03T11:55:51.996Z</time></trkpt><trkpt lat="44.31565" lon="8.47143"><ele>17.0</ele><time>2026-05-03T11:55:52.996Z</time></trkpt><trkpt lat="44.3155133" lon="8.4715067"><ele>17.0</ele><time>2026-05-03T11:55:53.996Z</time></trkpt><trkpt lat="44.3153967" lon="8.4715967"><ele>17.0</ele><time>2026-05-03T11:55:54.996Z</time></trkpt><trkpt lat="44.3152683" lon="8.4716933"><ele>17.0</ele><time>2026-05-03T11:55:55.997Z</time></trkpt><trkpt lat="44.31514" lon="8.4717717"><ele>17.0</ele><time>2026-05-03T11:55:56.996Z</time></trkpt><trkpt lat="44.315035" lon="8.4718533"><ele>17.0</ele><time>2026-05-03T11:55:57.997Z</time></trkpt><trkpt lat="44.3149267" lon="8.4719183"><ele>17.0</ele><time>2026-05-03T11:55:58.997Z</time></trkpt><trkpt lat="44.314815" lon="8.471985"><ele>17.0</ele><time>2026-05-03T11:55:59.997Z</time></trkpt><trkpt lat="44.31472" lon="8.4720433"><ele>16.5</ele><time>2026-05-03T11:56:00.997Z</time></trkpt><trkpt lat="44.3146267" lon="8.4720817"><ele>16.0</ele><time>2026-05-03T11:56:01.996Z</time></trkpt><trkpt lat="44.3145433" lon="8.4721283"><ele>15.5</ele><time>2026-05-03T11:56:02.997Z</time></trkpt><trkpt lat="44.3144633" lon="8.4721567"><ele>15.0</ele><time>2026-05-03T11:56:03.997Z</time></trkpt><trkpt lat="44.31439" lon="8.4721917"><ele>14.500000000000002</ele><time>2026-05-03T11:56:04.997Z</time></trkpt><trkpt lat="44.3143133" lon="8.4722383"><ele>14.0</ele><time>2026-05-03T11:56:06.997Z</time></trkpt><trkpt lat="44.31423" lon="8.47229"><ele>14.0</ele><time>2026-05-03T11:56:10.996Z</time></trkpt><trkpt lat="44.3141483" lon="8.4722983"><ele>13.999999999999998</ele><time>2026-05-03T11:56:12.997Z</time></trkpt><trkpt lat="44.31409" lon="8.47226"><ele>13.999999999999998</ele><time>2026-05-03T11:56:13.996Z</time></trkpt><trkpt lat="44.3140067" lon="8.4721067"><ele>14.0</ele><time>2026-05-03T11:56:15.997Z</time></trkpt><trkpt lat="44.3139683" lon="8.4720083"><ele>14.0</ele><time>2026-05-03T11:56:16.997Z</time></trkpt><trkpt lat="44.3139433" lon="8.471885"><ele>13.799999999999999</ele><time>2026-05-03T11:56:17.996Z</time></trkpt><trkpt lat="44.3139117" lon="8.4717567"><ele>13.599999999999998</ele><time>2026-05-03T11:56:18.997Z</time></trkpt><trkpt lat="44.31388" lon="8.4716267"><ele>13.4</ele><time>2026-05-03T11:56:19.996Z</time></trkpt><trkpt lat="44.3138433" lon="8.471495"><ele>13.2</ele><time>2026-05-03T11:56:20.997Z</time></trkpt><trkpt lat="44.3138183" lon="8.4713617"><ele>13.0</ele><time>2026-05-03T11:56:21.997Z</time></trkpt><trkpt lat="44.313795" lon="8.4712467"><ele>13.666666666666666</ele><time>2026-05-03T11:56:22.997Z</time></trkpt><trkpt lat="44.313765" lon="8.4711433"><ele>14.333333333333332</ele><time>2026-05-03T11:56:23.996Z</time></trkpt><trkpt lat="44.313735" lon="8.4710517"><ele>15.0</ele><time>2026-05-03T11:56:24.996Z</time></trkpt><trkpt lat="44.3137033" lon="8.4709717"><ele>15.666666666666668</ele><time>2026-05-03T11:56:25.996Z</time></trkpt><trkpt lat="44.3136317" lon="8.4708583"><ele>16.333333333333336</ele><time>2026-05-03T11:56:27.996Z</time></trkpt><trkpt lat="44.313525" lon="8.4708217"><ele>17.0</ele><time>2026-05-03T11:56:29.997Z</time></trkpt><trkpt lat="44.3134433" lon="8.47082"><ele>17.0</ele><time>2026-05-03T11:56:30.996Z</time></trkpt><trkpt lat="44.313335" lon="8.4708133"><ele>17.0</ele><time>2026-05-03T11:56:31.997Z</time></trkpt><trkpt lat="44.3132017" lon="8.4708067"><ele>17.0</ele><time>2026-05-03T11:56:32.997Z</time></trkpt><trkpt lat="44.3130667" lon="8.4707967"><ele>17.0</ele><time>2026-05-03T11:56:33.996Z</time></trkpt><trkpt lat="44.312925" lon="8.4707917"><ele>16.5</ele><time>2026-05-03T11:56:34.996Z</time></trkpt><trkpt lat="44.3127967" lon="8.470795"><ele>16.0</ele><time>2026-05-03T11:56:35.996Z</time></trkpt><trkpt lat="44.312665" lon="8.4707917"><ele>15.5</ele><time>2026-05-03T11:56:36.997Z</time></trkpt><trkpt lat="44.3125467" lon="8.4707867"><ele>15.0</ele><time>2026-05-03T11:56:37.997Z</time></trkpt><trkpt lat="44.3124383" lon="8.470785"><ele>15.0</ele><time>2026-05-03T11:56:38.996Z</time></trkpt><trkpt lat="44.3123367" lon="8.4707567"><ele>15.0</ele><time>2026-05-03T11:56:39.996Z</time></trkpt><trkpt lat="44.3122533" lon="8.4707433"><ele>15.0</ele><time>2026-05-03T11:56:40.996Z</time></trkpt><trkpt lat="44.3121867" lon="8.4707267"><ele>15.0</ele><time>2026-05-03T11:56:41.996Z</time></trkpt><trkpt lat="44.3121233" lon="8.470695"><ele>15.0</ele><time>2026-05-03T11:56:42.996Z</time></trkpt><trkpt lat="44.3120267" lon="8.4706017"><ele>15.0</ele><time>2026-05-03T11:56:44.996Z</time></trkpt><trkpt lat="44.3119933" lon="8.4705217"><ele>15.333333333333334</ele><time>2026-05-03T11:56:45.996Z</time></trkpt><trkpt lat="44.31196" lon="8.4704267"><ele>15.666666666666668</ele><time>2026-05-03T11:56:46.997Z</time></trkpt><trkpt lat="44.3119233" lon="8.4703267"><ele>16.0</ele><time>2026-05-03T11:56:47.996Z</time></trkpt><trkpt lat="44.3118817" lon="8.47023"><ele>16.333333333333336</ele><time>2026-05-03T11:56:48.997Z</time></trkpt><trkpt lat="44.311835" lon="8.4701183"><ele>16.666666666666668</ele><time>2026-05-03T11:56:49.997Z</time></trkpt><trkpt lat="44.3117933" lon="8.4700167"><ele>17.0</ele><time>2026-05-03T11:56:50.997Z</time></trkpt><trkpt lat="44.3117517" lon="8.469915"><ele>17.0</ele><time>2026-05-03T11:56:51.996Z</time></trkpt><trkpt lat="44.3117117" lon="8.4698133"><ele>17.0</ele><time>2026-05-03T11:56:52.996Z</time></trkpt><trkpt lat="44.3116217" lon="8.469555"><ele>17.0</ele><time>2026-05-03T11:56:55Z</time></trkpt><trkpt lat="44.3115217" lon="8.4695117"><ele>17.0</ele><time>2026-05-03T11:56:56Z</time></trkpt><trkpt lat="44.3114017" lon="8.4694083"><ele>17.75</ele><time>2026-05-03T11:56:57Z</time></trkpt><trkpt lat="44.3113017" lon="8.46934"><ele>18.5</ele><time>2026-05-03T11:56:58Z</time></trkpt><trkpt lat="44.3111967" lon="8.4693117"><ele>19.25</ele><time>2026-05-03T11:56:59Z</time></trkpt><trkpt lat="44.3110667" lon="8.469295"><ele>20.0</ele><time>2026-05-03T11:57:00Z</time></trkpt><trkpt lat="44.31094" lon="8.469275"><ele>20.0</ele><time>2026-05-03T11:57:01.001Z</time></trkpt><trkpt lat="44.3108067" lon="8.4692717"><ele>20.0</ele><time>2026-05-03T11:57:02Z</time></trkpt><trkpt lat="44.310675" lon="8.469255"><ele>20.0</ele><time>2026-05-03T11:57:03Z</time></trkpt><trkpt lat="44.310535" lon="8.4692333"><ele>20.0</ele><time>2026-05-03T11:57:03.999Z</time></trkpt><trkpt lat="44.3103917" lon="8.46922"><ele>19.5</ele><time>2026-05-03T11:57:05Z</time></trkpt><trkpt lat="44.3102517" lon="8.4692083"><ele>19.0</ele><time>2026-05-03T11:57:05.999Z</time></trkpt><trkpt lat="44.3101117" lon="8.4692017"><ele>18.5</ele><time>2026-05-03T11:57:06.999Z</time></trkpt><trkpt lat="44.309975" lon="8.46921"><ele>18.0</ele><time>2026-05-03T11:57:07.999Z</time></trkpt><trkpt lat="44.3098267" lon="8.4692317"><ele>17.75</ele><time>2026-05-03T11:57:08.999Z</time></trkpt><trkpt lat="44.3096867" lon="8.4692433"><ele>17.5</ele><time>2026-05-03T11:57:09.999Z</time></trkpt><trkpt lat="44.3095417" lon="8.4692467"><ele>17.25</ele><time>2026-05-03T11:57:11Z</time></trkpt><trkpt lat="44.3093883" lon="8.46925"><ele>17.0</ele><time>2026-05-03T11:57:11.999Z</time></trkpt><trkpt lat="44.309235" lon="8.469245"><ele>17.0</ele><time>2026-05-03T11:57:13Z</time></trkpt><trkpt lat="44.309085" lon="8.4692533"><ele>17.0</ele><time>2026-05-03T11:57:13.999Z</time></trkpt><trkpt lat="44.3089483" lon="8.4692617"><ele>17.0</ele><time>2026-05-03T11:57:15Z</time></trkpt><trkpt lat="44.3088017" lon="8.4692633"><ele>17.0</ele><time>2026-05-03T11:57:15.999Z</time></trkpt><trkpt lat="44.3086583" lon="8.46927"><ele>18.0</ele><time>2026-05-03T11:57:17Z</time></trkpt><trkpt lat="44.3085217" lon="8.4692767"><ele>19.0</ele><time>2026-05-03T11:57:17.999Z</time></trkpt><trkpt lat="44.30841" lon="8.46929"><ele>20.0</ele><time>2026-05-03T11:57:19Z</time></trkpt><trkpt lat="44.30829" lon="8.4692867"><ele>21.0</ele><time>2026-05-03T11:57:19.999Z</time></trkpt><trkpt lat="44.3081767" lon="8.46929"><ele>21.6</ele><time>2026-05-03T11:57:20.999Z</time></trkpt><trkpt lat="44.3080567" lon="8.4693033"><ele>22.200000000000003</ele><time>2026-05-03T11:57:22Z</time></trkpt><trkpt lat="44.3079467" lon="8.469295"><ele>22.799999999999997</ele><time>2026-05-03T11:57:23Z</time></trkpt><trkpt lat="44.3078467" lon="8.4692917"><ele>23.4</ele><time>2026-05-03T11:57:23.999Z</time></trkpt><trkpt lat="44.3077583" lon="8.4692917"><ele>24.0</ele><time>2026-05-03T11:57:25Z</time></trkpt><trkpt lat="44.3076833" lon="8.46929"><ele>24.0</ele><time>2026-05-03T11:57:25.999Z</time></trkpt><trkpt lat="44.30761" lon="8.46929"><ele>24.0</ele><time>2026-05-03T11:57:26.999Z</time></trkpt><trkpt lat="44.3074983" lon="8.4692733"><ele>24.0</ele><time>2026-05-03T11:57:29Z</time></trkpt><trkpt lat="44.3074" lon="8.4692467"><ele>24.0</ele><time>2026-05-03T11:57:30.999Z</time></trkpt><trkpt lat="44.30731" lon="8.46924"><ele>24.0</ele><time>2026-05-03T11:57:32.999Z</time></trkpt><trkpt lat="44.30724" lon="8.4692233"><ele>24.0</ele><time>2026-05-03T11:57:35Z</time></trkpt><trkpt lat="44.30714" lon="8.469175"><ele>24.2</ele><time>2026-05-03T11:57:43.999Z</time></trkpt><trkpt lat="44.3070167" lon="8.4691767"><ele>24.4</ele><time>2026-05-03T11:57:46Z</time></trkpt><trkpt lat="44.3069333" lon="8.4691817"><ele>24.6</ele><time>2026-05-03T11:57:46.999Z</time></trkpt><trkpt lat="44.3068383" lon="8.4691917"><ele>24.8</ele><time>2026-05-03T11:57:48Z</time></trkpt><trkpt lat="44.3067333" lon="8.4691983"><ele>25.0</ele><time>2026-05-03T11:57:49Z</time></trkpt><trkpt lat="44.306625" lon="8.469195"><ele>25.0</ele><time>2026-05-03T11:57:49.999Z</time></trkpt><trkpt lat="44.3065183" lon="8.4691883"><ele>25.0</ele><time>2026-05-03T11:57:51Z</time></trkpt><trkpt lat="44.30641" lon="8.4691817"><ele>25.0</ele><time>2026-05-03T11:57:51.999Z</time></trkpt><trkpt lat="44.3063017" lon="8.4691617"><ele>25.0</ele><time>2026-05-03T11:57:52.999Z</time></trkpt><trkpt lat="44.3062017" lon="8.4691583"><ele>25.0</ele><time>2026-05-03T11:57:53.999Z</time></trkpt><trkpt lat="44.3060983" lon="8.4691683"><ele>25.2</ele><time>2026-05-03T11:57:54.999Z</time></trkpt><trkpt lat="44.3059933" lon="8.469185"><ele>25.4</ele><time>2026-05-03T11:57:56Z</time></trkpt><trkpt lat="44.3058883" lon="8.4691917"><ele>25.6</ele><time>2026-05-03T11:57:56.999Z</time></trkpt><trkpt lat="44.3057817" lon="8.4692117"><ele>25.8</ele><time>2026-05-03T11:57:58Z</time></trkpt><trkpt lat="44.3056817" lon="8.469215"><ele>26.0</ele><time>2026-05-03T11:57:58.999Z</time></trkpt><trkpt lat="44.305575" lon="8.469215"><ele>26.0</ele><time>2026-05-03T11:57:59.999Z</time></trkpt><trkpt lat="44.30547" lon="8.4691833"><ele>26.0</ele><time>2026-05-03T11:58:01Z</time></trkpt><trkpt lat="44.3053667" lon="8.469215"><ele>26.0</ele><time>2026-05-03T11:58:01.999Z</time></trkpt><trkpt lat="44.3052533" lon="8.4691783"><ele>26.0</ele><time>2026-05-03T11:58:02.999Z</time></trkpt><trkpt lat="44.305145" lon="8.4691417"><ele>26.0</ele><time>2026-05-03T11:58:04Z</time></trkpt><trkpt lat="44.305025" lon="8.4691367"><ele>26.0</ele><time>2026-05-03T11:58:04.999Z</time></trkpt><trkpt lat="44.3048983" lon="8.4691633"><ele>26.0</ele><time>2026-05-03T11:58:05.999Z</time></trkpt><trkpt lat="44.3047817" lon="8.46917"><ele>26.0</ele><time>2026-05-03T11:58:06.999Z</time></trkpt><trkpt lat="44.3046567" lon="8.4692033"><ele>26.0</ele><time>2026-05-03T11:58:07.999Z</time></trkpt><trkpt lat="44.3045433" lon="8.4692083"><ele>24.5</ele><time>2026-05-03T11:58:08.999Z</time></trkpt><trkpt lat="44.304415" lon="8.4692083"><ele>23.0</ele><time>2026-05-03T11:58:09.999Z</time></trkpt><trkpt lat="44.3042983" lon="8.4692083"><ele>21.5</ele><time>2026-05-03T11:58:10.999Z</time></trkpt><trkpt lat="44.3041733" lon="8.4691983"><ele>20.0</ele><time>2026-05-03T11:58:11.999Z</time></trkpt><trkpt lat="44.3040517" lon="8.4691833"><ele>20.0</ele><time>2026-05-03T11:58:13Z</time></trkpt><trkpt lat="44.3039417" lon="8.4691783"><ele>20.0</ele><time>2026-05-03T11:58:13.999Z</time></trkpt><trkpt lat="44.303815" lon="8.4691683"><ele>20.0</ele><time>2026-05-03T11:58:14.999Z</time></trkpt><trkpt lat="44.3036817" lon="8.469145"><ele>20.0</ele><time>2026-05-03T11:58:15.999Z</time></trkpt><trkpt lat="44.3035517" lon="8.469125"><ele>20.0</ele><time>2026-05-03T11:58:16.999Z</time></trkpt><trkpt lat="44.30343" lon="8.4691067"><ele>20.0</ele><time>2026-05-03T11:58:18Z</time></trkpt><trkpt lat="44.3033167" lon="8.4690833"><ele>20.0</ele><time>2026-05-03T11:58:18.999Z</time></trkpt><trkpt lat="44.3032122" lon="8.4690595"><ele>20.0</ele><time>2026-05-03T11:58:19.999Z</time></trkpt><trkpt lat="44.3031137" lon="8.4690473"><ele>20.0</ele><time>2026-05-03T11:58:20.999Z</time></trkpt><trkpt lat="44.3030288" lon="8.4690314"><ele>18.5</ele><time>2026-05-03T11:58:22Z</time></trkpt><trkpt lat="44.3029522" lon="8.4690038"><ele>17.0</ele><time>2026-05-03T11:58:22.999Z</time></trkpt><trkpt lat="44.3028491" lon="8.4689505"><ele>15.5</ele><time>2026-05-03T11:58:24.999Z</time></trkpt><trkpt lat="44.3027923" lon="8.4688953"><ele>14.0</ele><time>2026-05-03T11:58:27.999Z</time></trkpt><trkpt lat="44.3027283" lon="8.4688618"><ele>12.5</ele><time>2026-05-03T11:58:29.999Z</time></trkpt><trkpt lat="44.3026221" lon="8.4688367"><ele>11.0</ele><time>2026-05-03T11:58:31.999Z</time></trkpt><trkpt lat="44.3025511" lon="8.4688279"><ele>11.0</ele><time>2026-05-03T11:58:32.999Z</time></trkpt><trkpt lat="44.3024705" lon="8.4688177"><ele>11.0</ele><time>2026-05-03T11:58:33.999Z</time></trkpt><trkpt lat="44.3023813" lon="8.4688086"><ele>11.0</ele><time>2026-05-03T11:58:34.999Z</time></trkpt><trkpt lat="44.3022889" lon="8.468794"><ele>11.0</ele><time>2026-05-03T11:58:35.999Z</time></trkpt><trkpt lat="44.3021981" lon="8.4687792"><ele>11.0</ele><time>2026-05-03T11:58:37Z</time></trkpt><trkpt lat="44.3021041" lon="8.4687578"><ele>11.0</ele><time>2026-05-03T11:58:37.999Z</time></trkpt><trkpt lat="44.3020132" lon="8.4687283"><ele>11.0</ele><time>2026-05-03T11:58:38.999Z</time></trkpt><trkpt lat="44.301928" lon="8.4686763"><ele>11.0</ele><time>2026-05-03T11:58:40Z</time></trkpt><trkpt lat="44.3018462" lon="8.4686019"><ele>11.0</ele><time>2026-05-03T11:58:40.999Z</time></trkpt><trkpt lat="44.3017756" lon="8.4685017"><ele>11.0</ele><time>2026-05-03T11:58:41.999Z</time></trkpt><trkpt lat="44.3017112" lon="8.4683926"><ele>11.0</ele><time>2026-05-03T11:58:43Z</time></trkpt><trkpt lat="44.301652" lon="8.4682736"><ele>11.0</ele><time>2026-05-03T11:58:43.999Z</time></trkpt><trkpt lat="44.3015907" lon="8.4681578"><ele>11.0</ele><time>2026-05-03T11:58:44.999Z</time></trkpt><trkpt lat="44.3015259" lon="8.4680371"><ele>11.0</ele><time>2026-05-03T11:58:45.999Z</time></trkpt><trkpt lat="44.3014612" lon="8.4679174"><ele>11.0</ele><time>2026-05-03T11:58:47Z</time></trkpt><trkpt lat="44.3013935" lon="8.467795"><ele>11.0</ele><time>2026-05-03T11:58:47.999Z</time></trkpt><trkpt lat="44.3013221" lon="8.4676708"><ele>11.0</ele><time>2026-05-03T11:58:48.999Z</time></trkpt><trkpt lat="44.3012473" lon="8.4675436"><ele>11.0</ele><time>2026-05-03T11:58:50Z</time></trkpt><trkpt lat="44.301171" lon="8.4674161"><ele>11.0</ele><time>2026-05-03T11:58:50.999Z</time></trkpt><trkpt lat="44.3010944" lon="8.4672886"><ele>11.0</ele><time>2026-05-03T11:58:52Z</time></trkpt><trkpt lat="44.3010185" lon="8.4671571"><ele>11.0</ele><time>2026-05-03T11:58:52.999Z</time></trkpt><trkpt lat="44.3009461" lon="8.4670281"><ele>11.0</ele><time>2026-05-03T11:58:54Z</time></trkpt><trkpt lat="44.3008744" lon="8.4669008"><ele>11.0</ele><time>2026-05-03T11:58:54.999Z</time></trkpt><trkpt lat="44.3008" lon="8.4667768"><ele>10.75</ele><time>2026-05-03T11:58:55.999Z</time></trkpt><trkpt lat="44.3007276" lon="8.4666503"><ele>10.5</ele><time>2026-05-03T11:58:57Z</time></trkpt><trkpt lat="44.3006573" lon="8.4665252"><ele>10.25</ele><time>2026-05-03T11:58:58Z</time></trkpt><trkpt lat="44.3005876" lon="8.4664019"><ele>10.0</ele><time>2026-05-03T11:58:58.999Z</time></trkpt><trkpt lat="44.3005166" lon="8.4662842"><ele>9.8</ele><time>2026-05-03T11:58:59.999Z</time></trkpt><trkpt lat="44.3004448" lon="8.4661718"><ele>9.6</ele><time>2026-05-03T11:59:01Z</time></trkpt><trkpt lat="44.3003705" lon="8.4660643"><ele>9.4</ele><time>2026-05-03T11:59:01.999Z</time></trkpt><trkpt lat="44.3002941" lon="8.4659489"><ele>9.2</ele><time>2026-05-03T11:59:03Z</time></trkpt><trkpt lat="44.3002172" lon="8.4658298"><ele>9.0</ele><time>2026-05-03T11:59:04Z</time></trkpt><trkpt lat="44.3001403" lon="8.4657082"><ele>9.0</ele><time>2026-05-03T11:59:05Z</time></trkpt><trkpt lat="44.3000608" lon="8.465589"><ele>9.0</ele><time>2026-05-03T11:59:06Z</time></trkpt><trkpt lat="44.299982" lon="8.4654719"><ele>9.0</ele><time>2026-05-03T11:59:07Z</time></trkpt><trkpt lat="44.2999063" lon="8.4653561"><ele>9.0</ele><time>2026-05-03T11:59:07.999Z</time></trkpt><trkpt lat="44.2998329" lon="8.4652381"><ele>9.0</ele><time>2026-05-03T11:59:08.999Z</time></trkpt><trkpt lat="44.299764" lon="8.46512"><ele>9.0</ele><time>2026-05-03T11:59:09.999Z</time></trkpt><trkpt lat="44.2997" lon="8.4649925"><ele>9.0</ele><time>2026-05-03T11:59:11Z</time></trkpt><trkpt lat="44.2996344" lon="8.464862"><ele>9.0</ele><time>2026-05-03T11:59:11.999Z</time></trkpt><trkpt lat="44.2995706" lon="8.4647365"><ele>9.0</ele><time>2026-05-03T11:59:12.999Z</time></trkpt><trkpt lat="44.2995046" lon="8.4646105"><ele>8.8</ele><time>2026-05-03T11:59:14Z</time></trkpt><trkpt lat="44.2994397" lon="8.4644943"><ele>8.600000000000001</ele><time>2026-05-03T11:59:14.999Z</time></trkpt><trkpt lat="44.2993767" lon="8.4643851"><ele>8.4</ele><time>2026-05-03T11:59:15.999Z</time></trkpt><trkpt lat="44.2993164" lon="8.4642784"><ele>8.200000000000001</ele><time>2026-05-03T11:59:17Z</time></trkpt><trkpt lat="44.2992537" lon="8.4641674"><ele>8.0</ele><time>2026-05-03T11:59:17.999Z</time></trkpt><trkpt lat="44.2991927" lon="8.4640541"><ele>8.0</ele><time>2026-05-03T11:59:18.999Z</time></trkpt><trkpt lat="44.2991334" lon="8.4639436"><ele>8.0</ele><time>2026-05-03T11:59:20Z</time></trkpt><trkpt lat="44.2990728" lon="8.4638405"><ele>8.0</ele><time>2026-05-03T11:59:20.999Z</time></trkpt><trkpt lat="44.2990087" lon="8.4637511"><ele>8.0</ele><time>2026-05-03T11:59:22Z</time></trkpt><trkpt lat="44.2989533" lon="8.4636588"><ele>8.0</ele><time>2026-05-03T11:59:22.999Z</time></trkpt><trkpt lat="44.2989003" lon="8.4635678"><ele>7.999999999999999</ele><time>2026-05-03T11:59:24Z</time></trkpt><trkpt lat="44.2988487" lon="8.4634839"><ele>8.0</ele><time>2026-05-03T11:59:24.999Z</time></trkpt><trkpt lat="44.2988034" lon="8.4633973"><ele>8.0</ele><time>2026-05-03T11:59:25.999Z</time></trkpt><trkpt lat="44.2987628" lon="8.4633115"><ele>8.0</ele><time>2026-05-03T11:59:27Z</time></trkpt><trkpt lat="44.2987081" lon="8.4631718"><ele>7.999999999999999</ele><time>2026-05-03T11:59:29Z</time></trkpt><trkpt lat="44.298698" lon="8.4630358"><ele>8.0</ele><time>2026-05-03T11:59:31Z</time></trkpt><trkpt lat="44.2987208" lon="8.462916"><ele>8.200000000000001</ele><time>2026-05-03T11:59:33Z</time></trkpt><trkpt lat="44.2987884" lon="8.4628242"><ele>8.4</ele><time>2026-05-03T11:59:34.999Z</time></trkpt><trkpt lat="44.2988808" lon="8.4627491"><ele>8.600000000000001</ele><time>2026-05-03T11:59:36.999Z</time></trkpt><trkpt lat="44.29899" lon="8.4626579"><ele>8.8</ele><time>2026-05-03T11:59:38.999Z</time></trkpt><trkpt lat="44.2990281" lon="8.462518"><ele>9.0</ele><time>2026-05-03T11:59:40.999Z</time></trkpt><trkpt lat="44.298963" lon="8.4623841"><ele>9.0</ele><time>2026-05-03T11:59:43Z</time></trkpt><trkpt lat="44.2989022" lon="8.4623328"><ele>9.0</ele><time>2026-05-03T11:59:43.999Z</time></trkpt><trkpt lat="44.2988351" lon="8.4622706"><ele>9.0</ele><time>2026-05-03T11:59:44.999Z</time></trkpt><trkpt lat="44.2987661" lon="8.4621933"><ele>9.0</ele><time>2026-05-03T11:59:45.999Z</time></trkpt><trkpt lat="44.2987081" lon="8.4620875"><ele>9.0</ele><time>2026-05-03T11:59:46.999Z</time></trkpt><trkpt lat="44.2986519" lon="8.4619659"><ele>9.0</ele><time>2026-05-03T11:59:47.999Z</time></trkpt><trkpt lat="44.2986113" lon="8.4618448"><ele>9.0</ele><time>2026-05-03T11:59:49Z</time></trkpt><trkpt lat="44.2985771" lon="8.4617257"><ele>9.0</ele><time>2026-05-03T11:59:50Z</time></trkpt><trkpt lat="44.2985472" lon="8.4616066"><ele>9.0</ele><time>2026-05-03T11:59:51Z</time></trkpt><trkpt lat="44.2985102" lon="8.4614904"><ele>9.0</ele><time>2026-05-03T11:59:52Z</time></trkpt><trkpt lat="44.2984748" lon="8.4613742"><ele>9.0</ele><time>2026-05-03T11:59:52.999Z</time></trkpt><trkpt lat="44.2984412" lon="8.4612663"><ele>9.0</ele><time>2026-05-03T11:59:53.999Z</time></trkpt><trkpt lat="44.2984004" lon="8.4611688"><ele>9.000000000000002</ele><time>2026-05-03T11:59:54.999Z</time></trkpt><trkpt lat="44.2983674" lon="8.4610722"><ele>9.0</ele><time>2026-05-03T11:59:56Z</time></trkpt><trkpt lat="44.2983355" lon="8.4609788"><ele>9.0</ele><time>2026-05-03T11:59:56.999Z</time></trkpt><trkpt lat="44.2983041" lon="8.4608889"><ele>9.0</ele><time>2026-05-03T11:59:57.999Z</time></trkpt><trkpt lat="44.2982706" lon="8.4607999"><ele>9.0</ele><time>2026-05-03T11:59:58.999Z</time></trkpt><trkpt lat="44.2982372" lon="8.4607156"><ele>9.000000000000002</ele><time>2026-05-03T12:00:00Z</time></trkpt><trkpt lat="44.2982047" lon="8.4606328"><ele>9.0</ele><time>2026-05-03T12:00:01Z</time></trkpt><trkpt lat="44.2981625" lon="8.4605509"><ele>9.000000000000002</ele><time>2026-05-03T12:00:02Z</time></trkpt><trkpt lat="44.2981398" lon="8.4604403"><ele>9.0</ele><time>2026-05-03T12:00:02.999Z</time></trkpt><trkpt lat="44.298106" lon="8.4603486"><ele>9.0</ele><time>2026-05-03T12:00:03.999Z</time></trkpt><trkpt lat="44.298064" lon="8.4602634"><ele>9.0</ele><time>2026-05-03T12:00:04.999Z</time></trkpt><trkpt lat="44.2980241" lon="8.4601811"><ele>9.0</ele><time>2026-05-03T12:00:05.999Z</time></trkpt><trkpt lat="44.2979886" lon="8.4600943"><ele>9.000000000000002</ele><time>2026-05-03T12:00:06.999Z</time></trkpt><trkpt lat="44.2979536" lon="8.4600034"><ele>9.0</ele><time>2026-05-03T12:00:08Z</time></trkpt><trkpt lat="44.2979201" lon="8.4599123"><ele>9.0</ele><time>2026-05-03T12:00:08.999Z</time></trkpt><trkpt lat="44.2978829" lon="8.4598279"><ele>9.0</ele><time>2026-05-03T12:00:09.999Z</time></trkpt><trkpt lat="44.2978383" lon="8.4597444"><ele>9.0</ele><time>2026-05-03T12:00:10.999Z</time></trkpt><trkpt lat="44.2977916" lon="8.4596516"><ele>9.0</ele><time>2026-05-03T12:00:11.999Z</time></trkpt><trkpt lat="44.2977458" lon="8.4595633"><ele>9.0</ele><time>2026-05-03T12:00:13Z</time></trkpt><trkpt lat="44.2977127" lon="8.4594585"><ele>9.0</ele><time>2026-05-03T12:00:14Z</time></trkpt><trkpt lat="44.2976796" lon="8.4593697"><ele>9.000000000000002</ele><time>2026-05-03T12:00:14.999Z</time></trkpt><trkpt lat="44.2976404" lon="8.4592869"><ele>9.0</ele><time>2026-05-03T12:00:16Z</time></trkpt><trkpt lat="44.2975973" lon="8.4592116"><ele>9.0</ele><time>2026-05-03T12:00:16.999Z</time></trkpt><trkpt lat="44.2975528" lon="8.4591362"><ele>9.0</ele><time>2026-05-03T12:00:18Z</time></trkpt><trkpt lat="44.2974989" lon="8.4590576"><ele>9.0</ele><time>2026-05-03T12:00:18.999Z</time></trkpt><trkpt lat="44.2974448" lon="8.4589828"><ele>9.000000000000002</ele><time>2026-05-03T12:00:20Z</time></trkpt><trkpt lat="44.2973917" lon="8.4589042"><ele>9.0</ele><time>2026-05-03T12:00:21Z</time></trkpt><trkpt lat="44.2973391" lon="8.4588275"><ele>9.0</ele><time>2026-05-03T12:00:22Z</time></trkpt><trkpt lat="44.2972894" lon="8.458743"><ele>9.0</ele><time>2026-05-03T12:00:23Z</time></trkpt><trkpt lat="44.2972368" lon="8.4586539"><ele>9.0</ele><time>2026-05-03T12:00:23.999Z</time></trkpt><trkpt lat="44.2971755" lon="8.4585594"><ele>9.0</ele><time>2026-05-03T12:00:24.999Z</time></trkpt><trkpt lat="44.2971142" lon="8.4584593"><ele>9.0</ele><time>2026-05-03T12:00:26Z</time></trkpt><trkpt lat="44.2970519" lon="8.4583587"><ele>9.0</ele><time>2026-05-03T12:00:26.999Z</time></trkpt><trkpt lat="44.2969952" lon="8.4582706"><ele>9.166666666666666</ele><time>2026-05-03T12:00:28Z</time></trkpt><trkpt lat="44.2969373" lon="8.4581918"><ele>9.333333333333334</ele><time>2026-05-03T12:00:29Z</time></trkpt><trkpt lat="44.2968874" lon="8.4581145"><ele>9.5</ele><time>2026-05-03T12:00:30Z</time></trkpt><trkpt lat="44.2968393" lon="8.4580296"><ele>9.666666666666668</ele><time>2026-05-03T12:00:30.999Z</time></trkpt><trkpt lat="44.2967984" lon="8.4579286"><ele>9.833333333333334</ele><time>2026-05-03T12:00:31.999Z</time></trkpt><trkpt lat="44.296752" lon="8.4578313"><ele>10.0</ele><time>2026-05-03T12:00:32.999Z</time></trkpt><trkpt lat="44.2967001" lon="8.4577413"><ele>9.666666666666668</ele><time>2026-05-03T12:00:34Z</time></trkpt><trkpt lat="44.2966491" lon="8.4576485"><ele>9.333333333333334</ele><time>2026-05-03T12:00:35Z</time></trkpt><trkpt lat="44.2965953" lon="8.4575577"><ele>9.0</ele><time>2026-05-03T12:00:35.999Z</time></trkpt><trkpt lat="44.2965461" lon="8.4574812"><ele>8.666666666666666</ele><time>2026-05-03T12:00:37Z</time></trkpt><trkpt lat="44.2965007" lon="8.4574"><ele>8.333333333333332</ele><time>2026-05-03T12:00:37.999Z</time></trkpt><trkpt lat="44.2964578" lon="8.4573135"><ele>8.0</ele><time>2026-05-03T12:00:38.999Z</time></trkpt><trkpt lat="44.2964272" lon="8.4572263"><ele>7.999999999999999</ele><time>2026-05-03T12:00:40Z</time></trkpt><trkpt lat="44.2964084" lon="8.4571296"><ele>8.0</ele><time>2026-05-03T12:00:41Z</time></trkpt><trkpt lat="44.2963942" lon="8.4570265"><ele>8.0</ele><time>2026-05-03T12:00:42Z</time></trkpt><trkpt lat="44.2963862" lon="8.4569085"><ele>8.0</ele><time>2026-05-03T12:00:43Z</time></trkpt><trkpt lat="44.2963785" lon="8.4567866"><ele>7.999999999999999</ele><time>2026-05-03T12:00:44Z</time></trkpt><trkpt lat="44.2963682" lon="8.4566595"><ele>8.0</ele><time>2026-05-03T12:00:45Z</time></trkpt><trkpt lat="44.2963444" lon="8.4565448"><ele>7.999999999999999</ele><time>2026-05-03T12:00:46Z</time></trkpt><trkpt lat="44.2963101" lon="8.4564407"><ele>8.0</ele><time>2026-05-03T12:00:47Z</time></trkpt><trkpt lat="44.296267" lon="8.4563431"><ele>8.0</ele><time>2026-05-03T12:00:47.999Z</time></trkpt><trkpt lat="44.29622" lon="8.4562637"><ele>8.0</ele><time>2026-05-03T12:00:49Z</time></trkpt><trkpt lat="44.2961104" lon="8.4561936"><ele>7.999999999999999</ele><time>2026-05-03T12:00:50.999Z</time></trkpt><trkpt lat="44.2960423" lon="8.456186"><ele>8.0</ele><time>2026-05-03T12:00:51.999Z</time></trkpt><trkpt lat="44.2959752" lon="8.4562022"><ele>8.0</ele><time>2026-05-03T12:00:52.999Z</time></trkpt><trkpt lat="44.2959099" lon="8.4562208"><ele>8.0</ele><time>2026-05-03T12:00:53.999Z</time></trkpt><trkpt lat="44.2958447" lon="8.4562221"><ele>8.0</ele><time>2026-05-03T12:00:54.999Z</time></trkpt><trkpt lat="44.2957496" lon="8.456156"><ele>8.0</ele><time>2026-05-03T12:00:56.999Z</time></trkpt><trkpt lat="44.2956639" lon="8.4560051"><ele>8.0</ele><time>2026-05-03T12:00:59Z</time></trkpt><trkpt lat="44.2956103" lon="8.4559134"><ele>7.999999999999999</ele><time>2026-05-03T12:00:59.999Z</time></trkpt><trkpt lat="44.2955573" lon="8.455817"><ele>8.0</ele><time>2026-05-03T12:01:01Z</time></trkpt><trkpt lat="44.2955034" lon="8.4557142"><ele>8.0</ele><time>2026-05-03T12:01:01.999Z</time></trkpt><trkpt lat="44.2954483" lon="8.4556145"><ele>8.0</ele><time>2026-05-03T12:01:02.999Z</time></trkpt><trkpt lat="44.295393" lon="8.4555213"><ele>7.999999999999999</ele><time>2026-05-03T12:01:03.999Z</time></trkpt><trkpt lat="44.2953366" lon="8.4554325"><ele>8.0</ele><time>2026-05-03T12:01:04.999Z</time></trkpt><trkpt lat="44.295281" lon="8.4553542"><ele>8.166666666666666</ele><time>2026-05-03T12:01:06Z</time></trkpt><trkpt lat="44.2952183" lon="8.4552939"><ele>8.333333333333332</ele><time>2026-05-03T12:01:06.999Z</time></trkpt><trkpt lat="44.2951549" lon="8.4552379"><ele>8.5</ele><time>2026-05-03T12:01:08Z</time></trkpt><trkpt lat="44.2950977" lon="8.4551677"><ele>8.666666666666666</ele><time>2026-05-03T12:01:09Z</time></trkpt><trkpt lat="44.2950407" lon="8.4550883"><ele>8.833333333333334</ele><time>2026-05-03T12:01:09.999Z</time></trkpt><trkpt lat="44.2949799" lon="8.4550077"><ele>9.0</ele><time>2026-05-03T12:01:10.999Z</time></trkpt><trkpt lat="44.2949184" lon="8.4549205"><ele>9.0</ele><time>2026-05-03T12:01:11.999Z</time></trkpt><trkpt lat="44.2948595" lon="8.4548234"><ele>9.0</ele><time>2026-05-03T12:01:12.999Z</time></trkpt><trkpt lat="44.2948029" lon="8.4547262"><ele>9.0</ele><time>2026-05-03T12:01:13.999Z</time></trkpt><trkpt lat="44.2947549" lon="8.4546294"><ele>9.0</ele><time>2026-05-03T12:01:15Z</time></trkpt><trkpt lat="44.2947077" lon="8.4545339"><ele>9.0</ele><time>2026-05-03T12:01:16Z</time></trkpt><trkpt lat="44.2946633" lon="8.4544401"><ele>9.0</ele><time>2026-05-03T12:01:17Z</time></trkpt><trkpt lat="44.2946143" lon="8.4543481"><ele>9.2</ele><time>2026-05-03T12:01:17.999Z</time></trkpt><trkpt lat="44.294559" lon="8.4542489"><ele>9.4</ele><time>2026-05-03T12:01:18.999Z</time></trkpt><trkpt lat="44.2945022" lon="8.4541396"><ele>9.6</ele><time>2026-05-03T12:01:19.999Z</time></trkpt><trkpt lat="44.2944446" lon="8.4540292"><ele>9.8</ele><time>2026-05-03T12:01:20.999Z</time></trkpt><trkpt lat="44.2943957" lon="8.4539235"><ele>10.0</ele><time>2026-05-03T12:01:22Z</time></trkpt><trkpt lat="44.2943539" lon="8.453812"><ele>9.833333333333334</ele><time>2026-05-03T12:01:22.999Z</time></trkpt><trkpt lat="44.2943142" lon="8.4537052"><ele>9.666666666666668</ele><time>2026-05-03T12:01:24Z</time></trkpt><trkpt lat="44.2942733" lon="8.4535938"><ele>9.5</ele><time>2026-05-03T12:01:25Z</time></trkpt><trkpt lat="44.2942379" lon="8.4534884"><ele>9.333333333333334</ele><time>2026-05-03T12:01:25.999Z</time></trkpt><trkpt lat="44.2941871" lon="8.4533871"><ele>9.166666666666666</ele><time>2026-05-03T12:01:27Z</time></trkpt><trkpt lat="44.2941431" lon="8.4532916"><ele>9.0</ele><time>2026-05-03T12:01:27.999Z</time></trkpt><trkpt lat="44.2941023" lon="8.4531988"><ele>9.0</ele><time>2026-05-03T12:01:28.999Z</time></trkpt><trkpt lat="44.2940597" lon="8.4531032"><ele>9.0</ele><time>2026-05-03T12:01:29.999Z</time></trkpt><trkpt lat="44.2940174" lon="8.4530107"><ele>9.0</ele><time>2026-05-03T12:01:30.999Z</time></trkpt><trkpt lat="44.2939703" lon="8.4529189"><ele>9.0</ele><time>2026-05-03T12:01:31.999Z</time></trkpt><trkpt lat="44.2939231" lon="8.4528145"><ele>9.0</ele><time>2026-05-03T12:01:32.999Z</time></trkpt><trkpt lat="44.2938726" lon="8.4527069"><ele>9.0</ele><time>2026-05-03T12:01:33.999Z</time></trkpt><trkpt lat="44.2938238" lon="8.4526001"><ele>9.0</ele><time>2026-05-03T12:01:35Z</time></trkpt><trkpt lat="44.2937744" lon="8.4524957"><ele>9.0</ele><time>2026-05-03T12:01:35.999Z</time></trkpt><trkpt lat="44.2937299" lon="8.4523848"><ele>9.0</ele><time>2026-05-03T12:01:37Z</time></trkpt><trkpt lat="44.2936955" lon="8.4522617"><ele>9.0</ele><time>2026-05-03T12:01:38Z</time></trkpt><trkpt lat="44.2936587" lon="8.4521387"><ele>9.0</ele><time>2026-05-03T12:01:38.999Z</time></trkpt><trkpt lat="44.2936137" lon="8.4520225"><ele>9.0</ele><time>2026-05-03T12:01:39.999Z</time></trkpt><trkpt lat="44.2935667" lon="8.451916"><ele>9.0</ele><time>2026-05-03T12:01:40.999Z</time></trkpt><trkpt lat="44.2935056" lon="8.4518003"><ele>9.0</ele><time>2026-05-03T12:01:41.999Z</time></trkpt><trkpt lat="44.2934374" lon="8.4516893"><ele>9.0</ele><time>2026-05-03T12:01:42.999Z</time></trkpt><trkpt lat="44.293364" lon="8.4515765"><ele>9.0</ele><time>2026-05-03T12:01:43.999Z</time></trkpt><trkpt lat="44.293285" lon="8.4514671"><ele>9.0</ele><time>2026-05-03T12:01:44.999Z</time></trkpt><trkpt lat="44.2932035" lon="8.4513607"><ele>9.0</ele><time>2026-05-03T12:01:45.999Z</time></trkpt><trkpt lat="44.2931239" lon="8.4512591"><ele>9.0</ele><time>2026-05-03T12:01:47Z</time></trkpt><trkpt lat="44.2930474" lon="8.4511612"><ele>9.0</ele><time>2026-05-03T12:01:47.999Z</time></trkpt><trkpt lat="44.2929718" lon="8.4510679"><ele>9.0</ele><time>2026-05-03T12:01:49Z</time></trkpt><trkpt lat="44.2928917" lon="8.4509797"><ele>9.4</ele><time>2026-05-03T12:01:49.999Z</time></trkpt><trkpt lat="44.2928137" lon="8.450902"><ele>9.8</ele><time>2026-05-03T12:01:50.999Z</time></trkpt><trkpt lat="44.2927321" lon="8.4508296"><ele>10.200000000000001</ele><time>2026-05-03T12:01:51.999Z</time></trkpt><trkpt lat="44.2926423" lon="8.4507601"><ele>10.600000000000001</ele><time>2026-05-03T12:01:52.999Z</time></trkpt><trkpt lat="44.2925476" lon="8.450699"><ele>11.0</ele><time>2026-05-03T12:01:53.999Z</time></trkpt><trkpt lat="44.2924492" lon="8.4506464"><ele>11.0</ele><time>2026-05-03T12:01:54.998Z</time></trkpt><trkpt lat="44.2923473" lon="8.4506026"><ele>11.0</ele><time>2026-05-03T12:01:55.998Z</time></trkpt><trkpt lat="44.2922422" lon="8.4505665"><ele>11.0</ele><time>2026-05-03T12:01:56.998Z</time></trkpt><trkpt lat="44.2921318" lon="8.4505385"><ele>11.0</ele><time>2026-05-03T12:01:57.999Z</time></trkpt><trkpt lat="44.2920193" lon="8.4505225"><ele>11.0</ele><time>2026-05-03T12:01:58.999Z</time></trkpt><trkpt lat="44.2919061" lon="8.4505135"><ele>11.5</ele><time>2026-05-03T12:01:59.998Z</time></trkpt><trkpt lat="44.2917973" lon="8.4505005"><ele>12.0</ele><time>2026-05-03T12:02:00.999Z</time></trkpt><trkpt lat="44.291682" lon="8.4504829"><ele>12.5</ele><time>2026-05-03T12:02:01.998Z</time></trkpt><trkpt lat="44.291569" lon="8.4504648"><ele>13.0</ele><time>2026-05-03T12:02:02.998Z</time></trkpt><trkpt lat="44.291456" lon="8.4504465"><ele>15.5</ele><time>2026-05-03T12:02:03.998Z</time></trkpt><trkpt lat="44.2913462" lon="8.4504252"><ele>18.0</ele><time>2026-05-03T12:02:04.999Z</time></trkpt><trkpt lat="44.2912323" lon="8.4504029"><ele>20.5</ele><time>2026-05-03T12:02:05.999Z</time></trkpt><trkpt lat="44.291116" lon="8.4503815"><ele>23.0</ele><time>2026-05-03T12:02:06.999Z</time></trkpt><trkpt lat="44.2909918" lon="8.4503577"><ele>23.0</ele><time>2026-05-03T12:02:07.998Z</time></trkpt><trkpt lat="44.2908645" lon="8.4503281"><ele>23.0</ele><time>2026-05-03T12:02:08.999Z</time></trkpt><trkpt lat="44.2907448" lon="8.450287"><ele>23.0</ele><time>2026-05-03T12:02:09.998Z</time></trkpt><trkpt lat="44.290627" lon="8.4502337"><ele>23.0</ele><time>2026-05-03T12:02:10.998Z</time></trkpt><trkpt lat="44.2905087" lon="8.450169"><ele>20.25</ele><time>2026-05-03T12:02:11.999Z</time></trkpt><trkpt lat="44.2903931" lon="8.4500832"><ele>17.5</ele><time>2026-05-03T12:02:12.999Z</time></trkpt><trkpt lat="44.2902819" lon="8.4499884"><ele>14.75</ele><time>2026-05-03T12:02:13.998Z</time></trkpt><trkpt lat="44.290172" lon="8.4498941"><ele>12.0</ele><time>2026-05-03T12:02:14.999Z</time></trkpt><trkpt lat="44.2900674" lon="8.4497921"><ele>12.0</ele><time>2026-05-03T12:02:15.998Z</time></trkpt><trkpt lat="44.2899674" lon="8.4496871"><ele>12.0</ele><time>2026-05-03T12:02:16.998Z</time></trkpt><trkpt lat="44.2898699" lon="8.4495965"><ele>12.0</ele><time>2026-05-03T12:02:17.998Z</time></trkpt><trkpt lat="44.2897767" lon="8.4495166"><ele>12.0</ele><time>2026-05-03T12:02:18.999Z</time></trkpt><trkpt lat="44.2896889" lon="8.4494392"><ele>12.2</ele><time>2026-05-03T12:02:19.998Z</time></trkpt><trkpt lat="44.2896061" lon="8.4493569"><ele>12.399999999999999</ele><time>2026-05-03T12:02:20.998Z</time></trkpt><trkpt lat="44.2895243" lon="8.4492764"><ele>12.600000000000001</ele><time>2026-05-03T12:02:21.999Z</time></trkpt><trkpt lat="44.2894379" lon="8.4491923"><ele>12.8</ele><time>2026-05-03T12:02:22.998Z</time></trkpt><trkpt lat="44.2893573" lon="8.449091"><ele>13.0</ele><time>2026-05-03T12:02:23.999Z</time></trkpt><trkpt lat="44.2892786" lon="8.448981"><ele>13.0</ele><time>2026-05-03T12:02:24.999Z</time></trkpt><trkpt lat="44.2892005" lon="8.4488686"><ele>13.0</ele><time>2026-05-03T12:02:25.999Z</time></trkpt><trkpt lat="44.2891146" lon="8.4487573"><ele>13.0</ele><time>2026-05-03T12:02:26.999Z</time></trkpt><trkpt lat="44.2890249" lon="8.4486506"><ele>13.0</ele><time>2026-05-03T12:02:27.999Z</time></trkpt><trkpt lat="44.2889304" lon="8.4485458"><ele>13.5</ele><time>2026-05-03T12:02:28.998Z</time></trkpt><trkpt lat="44.2888379" lon="8.4484306"><ele>14.0</ele><time>2026-05-03T12:02:29.999Z</time></trkpt><trkpt lat="44.2887421" lon="8.4483024"><ele>14.5</ele><time>2026-05-03T12:02:30.999Z</time></trkpt><trkpt lat="44.2886523" lon="8.4481719"><ele>15.0</ele><time>2026-05-03T12:02:31.999Z</time></trkpt><trkpt lat="44.2885576" lon="8.4480356"><ele>17.0</ele><time>2026-05-03T12:02:32.999Z</time></trkpt><trkpt lat="44.2884669" lon="8.4479026"><ele>19.0</ele><time>2026-05-03T12:02:33.999Z</time></trkpt><trkpt lat="44.2883757" lon="8.447766"><ele>21.0</ele><time>2026-05-03T12:02:34.998Z</time></trkpt><trkpt lat="44.2882865" lon="8.4476273"><ele>23.0</ele><time>2026-05-03T12:02:35.999Z</time></trkpt><trkpt lat="44.2881997" lon="8.4474808"><ele>23.0</ele><time>2026-05-03T12:02:36.998Z</time></trkpt><trkpt lat="44.2881091" lon="8.4473357"><ele>23.0</ele><time>2026-05-03T12:02:37.999Z</time></trkpt><trkpt lat="44.2880248" lon="8.4471915"><ele>23.0</ele><time>2026-05-03T12:02:38.998Z</time></trkpt><trkpt lat="44.2879435" lon="8.4470461"><ele>23.0</ele><time>2026-05-03T12:02:39.998Z</time></trkpt><trkpt lat="44.2878703" lon="8.4469071"><ele>22.799999999999997</ele><time>2026-05-03T12:02:40.999Z</time></trkpt><trkpt lat="44.2878014" lon="8.446773"><ele>22.6</ele><time>2026-05-03T12:02:41.998Z</time></trkpt><trkpt lat="44.2877389" lon="8.4466424"><ele>22.4</ele><time>2026-05-03T12:02:42.998Z</time></trkpt><trkpt lat="44.2876883" lon="8.4465133"><ele>22.200000000000003</ele><time>2026-05-03T12:02:43.998Z</time></trkpt><trkpt lat="44.2876552" lon="8.4463952"><ele>22.0</ele><time>2026-05-03T12:02:44.998Z</time></trkpt><trkpt lat="44.2876229" lon="8.4462886"><ele>22.0</ele><time>2026-05-03T12:02:45.998Z</time></trkpt><trkpt lat="44.2875954" lon="8.4461868"><ele>22.0</ele><time>2026-05-03T12:02:46.999Z</time></trkpt><trkpt lat="44.2875703" lon="8.4460949"><ele>22.0</ele><time>2026-05-03T12:02:47.998Z</time></trkpt><trkpt lat="44.2875471" lon="8.4460114"><ele>22.0</ele><time>2026-05-03T12:02:48.999Z</time></trkpt><trkpt lat="44.2874889" lon="8.445867"><ele>22.0</ele><time>2026-05-03T12:02:50.998Z</time></trkpt><trkpt lat="44.287456" lon="8.4457834"><ele>22.0</ele><time>2026-05-03T12:02:51.999Z</time></trkpt><trkpt lat="44.2874278" lon="8.4456872"><ele>22.0</ele><time>2026-05-03T12:02:52.999Z</time></trkpt><trkpt lat="44.2874064" lon="8.4455803"><ele>22.0</ele><time>2026-05-03T12:02:53.998Z</time></trkpt><trkpt lat="44.2874004" lon="8.4454644"><ele>22.0</ele><time>2026-05-03T12:02:54.999Z</time></trkpt><trkpt lat="44.2874173" lon="8.4453332"><ele>22.0</ele><time>2026-05-03T12:02:55.998Z</time></trkpt><trkpt lat="44.2874585" lon="8.4451967"><ele>22.0</ele><time>2026-05-03T12:02:56.998Z</time></trkpt><trkpt lat="44.2875349" lon="8.4450579"><ele>22.5</ele><time>2026-05-03T12:02:57.998Z</time></trkpt><trkpt lat="44.2876243" lon="8.4449031"><ele>23.0</ele><time>2026-05-03T12:02:58.998Z</time></trkpt><trkpt lat="44.2877163" lon="8.4447477"><ele>23.5</ele><time>2026-05-03T12:02:59.999Z</time></trkpt><trkpt lat="44.287809" lon="8.4445806"><ele>24.0</ele><time>2026-05-03T12:03:00.998Z</time></trkpt><trkpt lat="44.2879039" lon="8.4443858"><ele>24.666666666666664</ele><time>2026-05-03T12:03:01.998Z</time></trkpt><trkpt lat="44.2879999" lon="8.4441966"><ele>25.333333333333332</ele><time>2026-05-03T12:03:02.998Z</time></trkpt><trkpt lat="44.2880907" lon="8.4439951"><ele>26.0</ele><time>2026-05-03T12:03:03.998Z</time></trkpt><trkpt lat="44.2881756" lon="8.4437922"><ele>26.666666666666664</ele><time>2026-05-03T12:03:04.998Z</time></trkpt><trkpt lat="44.2882537" lon="8.4435898"><ele>27.333333333333336</ele><time>2026-05-03T12:03:05.998Z</time></trkpt><trkpt lat="44.2883241" lon="8.4433913"><ele>28.0</ele><time>2026-05-03T12:03:06.999Z</time></trkpt><trkpt lat="44.2883863" lon="8.443194"><ele>28.0</ele><time>2026-05-03T12:03:07.999Z</time></trkpt><trkpt lat="44.2884379" lon="8.4430055"><ele>28.0</ele><time>2026-05-03T12:03:08.999Z</time></trkpt><trkpt lat="44.2884766" lon="8.4428219"><ele>28.0</ele><time>2026-05-03T12:03:09.998Z</time></trkpt><trkpt lat="44.2885097" lon="8.4426498"><ele>28.0</ele><time>2026-05-03T12:03:10.998Z</time></trkpt><trkpt lat="44.2885335" lon="8.4424876"><ele>27.0</ele><time>2026-05-03T12:03:11.999Z</time></trkpt><trkpt lat="44.2885333" lon="8.4423411"><ele>26.0</ele><time>2026-05-03T12:03:12.998Z</time></trkpt><trkpt lat="44.2885135" lon="8.4421895"><ele>25.0</ele><time>2026-05-03T12:03:13.998Z</time></trkpt><trkpt lat="44.2884691" lon="8.442042"><ele>24.0</ele><time>2026-05-03T12:03:14.999Z</time></trkpt><trkpt lat="44.2884132" lon="8.4418931"><ele>24.0</ele><time>2026-05-03T12:03:15.999Z</time></trkpt><trkpt lat="44.2883537" lon="8.4417401"><ele>24.0</ele><time>2026-05-03T12:03:16.998Z</time></trkpt><trkpt lat="44.2882941" lon="8.4415888"><ele>24.0</ele><time>2026-05-03T12:03:17.998Z</time></trkpt><trkpt lat="44.2882299" lon="8.441427"><ele>24.0</ele><time>2026-05-03T12:03:18.998Z</time></trkpt><trkpt lat="44.2881714" lon="8.4412555"><ele>23.666666666666668</ele><time>2026-05-03T12:03:19.998Z</time></trkpt><trkpt lat="44.2881092" lon="8.4410745"><ele>23.333333333333336</ele><time>2026-05-03T12:03:20.998Z</time></trkpt><trkpt lat="44.2880445" lon="8.4408728"><ele>23.0</ele><time>2026-05-03T12:03:21.998Z</time></trkpt><trkpt lat="44.2879832" lon="8.4406731"><ele>23.0</ele><time>2026-05-03T12:03:22.998Z</time></trkpt><trkpt lat="44.2879229" lon="8.4404862"><ele>23.0</ele><time>2026-05-03T12:03:23.998Z</time></trkpt><trkpt lat="44.2878631" lon="8.4403046"><ele>23.0</ele><time>2026-05-03T12:03:24.999Z</time></trkpt><trkpt lat="44.2878008" lon="8.4401245"><ele>23.0</ele><time>2026-05-03T12:03:25.998Z</time></trkpt><trkpt lat="44.2877339" lon="8.4399449"><ele>23.0</ele><time>2026-05-03T12:03:26.998Z</time></trkpt><trkpt lat="44.2876645" lon="8.4397666"><ele>23.0</ele><time>2026-05-03T12:03:27.998Z</time></trkpt><trkpt lat="44.2875955" lon="8.4395964"><ele>23.0</ele><time>2026-05-03T12:03:28.998Z</time></trkpt><trkpt lat="44.2875293" lon="8.4394209"><ele>23.0</ele><time>2026-05-03T12:03:29.998Z</time></trkpt><trkpt lat="44.2874703" lon="8.4392569"><ele>23.0</ele><time>2026-05-03T12:03:30.998Z</time></trkpt><trkpt lat="44.2874117" lon="8.4390969"><ele>23.0</ele><time>2026-05-03T12:03:31.998Z</time></trkpt><trkpt lat="44.2873548" lon="8.4389527"><ele>23.0</ele><time>2026-05-03T12:03:32.998Z</time></trkpt><trkpt lat="44.287284" lon="8.4387933"><ele>23.0</ele><time>2026-05-03T12:03:33.998Z</time></trkpt><trkpt lat="44.2872115" lon="8.4386279"><ele>21.0</ele><time>2026-05-03T12:03:34.999Z</time></trkpt><trkpt lat="44.2871505" lon="8.4384653"><ele>19.0</ele><time>2026-05-03T12:03:35.998Z</time></trkpt><trkpt lat="44.2870916" lon="8.4383071"><ele>17.0</ele><time>2026-05-03T12:03:36.998Z</time></trkpt><trkpt lat="44.287033" lon="8.4381499"><ele>15.0</ele><time>2026-05-03T12:03:37.999Z</time></trkpt><trkpt lat="44.2869876" lon="8.4380262"><ele>15.25</ele><time>2026-05-03T12:03:38.999Z</time></trkpt><trkpt lat="44.2869303" lon="8.4378997"><ele>15.5</ele><time>2026-05-03T12:03:39.998Z</time></trkpt><trkpt lat="44.2868665" lon="8.4377643"><ele>15.75</ele><time>2026-05-03T12:03:40.998Z</time></trkpt><trkpt lat="44.2867976" lon="8.4376244"><ele>16.0</ele><time>2026-05-03T12:03:41.998Z</time></trkpt><trkpt lat="44.2867175" lon="8.4375096"><ele>16.0</ele><time>2026-05-03T12:03:42.998Z</time></trkpt><trkpt lat="44.2866367" lon="8.4373737"><ele>16.0</ele><time>2026-05-03T12:03:43.999Z</time></trkpt><trkpt lat="44.2865522" lon="8.4372445"><ele>16.0</ele><time>2026-05-03T12:03:44.999Z</time></trkpt><trkpt lat="44.2864646" lon="8.4371353"><ele>16.0</ele><time>2026-05-03T12:03:45.998Z</time></trkpt><trkpt lat="44.2863871" lon="8.4370192"><ele>14.75</ele><time>2026-05-03T12:03:46.998Z</time></trkpt><trkpt lat="44.2863089" lon="8.4369009"><ele>13.5</ele><time>2026-05-03T12:03:47.998Z</time></trkpt><trkpt lat="44.2862294" lon="8.436795"><ele>12.25</ele><time>2026-05-03T12:03:48.998Z</time></trkpt><trkpt lat="44.2861507" lon="8.4366854"><ele>11.0</ele><time>2026-05-03T12:03:49.998Z</time></trkpt><trkpt lat="44.2860657" lon="8.4365787"><ele>11.0</ele><time>2026-05-03T12:03:50.998Z</time></trkpt><trkpt lat="44.2859788" lon="8.4364802"><ele>11.0</ele><time>2026-05-03T12:03:51.998Z</time></trkpt><trkpt lat="44.2858881" lon="8.4363789"><ele>11.0</ele><time>2026-05-03T12:03:52.998Z</time></trkpt><trkpt lat="44.2857987" lon="8.4362853"><ele>11.0</ele><time>2026-05-03T12:03:53.998Z</time></trkpt><trkpt lat="44.2857062" lon="8.4361867"><ele>11.200000000000001</ele><time>2026-05-03T12:03:54.998Z</time></trkpt><trkpt lat="44.2856165" lon="8.4360888"><ele>11.4</ele><time>2026-05-03T12:03:55.998Z</time></trkpt><trkpt lat="44.2855252" lon="8.4359925"><ele>11.6</ele><time>2026-05-03T12:03:56.998Z</time></trkpt><trkpt lat="44.2854336" lon="8.435902"><ele>11.8</ele><time>2026-05-03T12:03:57.998Z</time></trkpt><trkpt lat="44.285345" lon="8.4358183"><ele>12.0</ele><time>2026-05-03T12:03:58.998Z</time></trkpt><trkpt lat="44.2852617" lon="8.435745"><ele>11.5</ele><time>2026-05-03T12:03:59.999Z</time></trkpt><trkpt lat="44.285185" lon="8.4356733"><ele>11.0</ele><time>2026-05-03T12:04:00.998Z</time></trkpt><trkpt lat="44.285105" lon="8.4356033"><ele>10.5</ele><time>2026-05-03T12:04:01.998Z</time></trkpt><trkpt lat="44.285035" lon="8.4355417"><ele>10.0</ele><time>2026-05-03T12:04:02.998Z</time></trkpt><trkpt lat="44.28497" lon="8.4354817"><ele>9.5</ele><time>2026-05-03T12:04:03.998Z</time></trkpt><trkpt lat="44.2849017" lon="8.43543"><ele>9.0</ele><time>2026-05-03T12:04:04.998Z</time></trkpt><trkpt lat="44.28484" lon="8.43538"><ele>8.666666666666666</ele><time>2026-05-03T12:04:05.998Z</time></trkpt><trkpt lat="44.284785" lon="8.4353217"><ele>8.333333333333334</ele><time>2026-05-03T12:04:06.998Z</time></trkpt><trkpt lat="44.2847" lon="8.4352117"><ele>8.0</ele><time>2026-05-03T12:04:08.998Z</time></trkpt><trkpt lat="44.2846733" lon="8.4351267"><ele>7.666666666666667</ele><time>2026-05-03T12:04:09.998Z</time></trkpt><trkpt lat="44.2846633" lon="8.4350217"><ele>7.333333333333334</ele><time>2026-05-03T12:04:10.999Z</time></trkpt><trkpt lat="44.2846733" lon="8.43492"><ele>7.0</ele><time>2026-05-03T12:04:11.998Z</time></trkpt><trkpt lat="44.284705" lon="8.4348117"><ele>6.6</ele><time>2026-05-03T12:04:12.999Z</time></trkpt><trkpt lat="44.2847583" lon="8.4346867"><ele>6.199999999999999</ele><time>2026-05-03T12:04:13.998Z</time></trkpt><trkpt lat="44.2848267" lon="8.43457"><ele>5.8</ele><time>2026-05-03T12:04:14.999Z</time></trkpt><trkpt lat="44.2849017" lon="8.4344583"><ele>5.4</ele><time>2026-05-03T12:04:15.998Z</time></trkpt><trkpt lat="44.2849683" lon="8.4343433"><ele>5.0</ele><time>2026-05-03T12:04:16.998Z</time></trkpt><trkpt lat="44.2850383" lon="8.4342367"><ele>6.0</ele><time>2026-05-03T12:04:17.999Z</time></trkpt><trkpt lat="44.2851267" lon="8.434135"><ele>7.0</ele><time>2026-05-03T12:04:18.999Z</time></trkpt><trkpt lat="44.2852167" lon="8.4340317"><ele>8.0</ele><time>2026-05-03T12:04:19.998Z</time></trkpt><trkpt lat="44.2853017" lon="8.4339217"><ele>9.0</ele><time>2026-05-03T12:04:20.999Z</time></trkpt><trkpt lat="44.2853833" lon="8.4338283"><ele>8.8</ele><time>2026-05-03T12:04:21.998Z</time></trkpt><trkpt lat="44.2854667" lon="8.4337417"><ele>8.600000000000001</ele><time>2026-05-03T12:04:22.999Z</time></trkpt><trkpt lat="44.28555" lon="8.4336633"><ele>8.4</ele><time>2026-05-03T12:04:23.998Z</time></trkpt><trkpt lat="44.2856367" lon="8.43359"><ele>8.200000000000001</ele><time>2026-05-03T12:04:24.998Z</time></trkpt><trkpt lat="44.285715" lon="8.4335167"><ele>8.0</ele><time>2026-05-03T12:04:25.999Z</time></trkpt><trkpt lat="44.285785" lon="8.43346"><ele>7.999999999999999</ele><time>2026-05-03T12:04:26.999Z</time></trkpt><trkpt lat="44.28585" lon="8.4333983"><ele>8.0</ele><time>2026-05-03T12:04:27.998Z</time></trkpt><trkpt lat="44.28591" lon="8.4333367"><ele>8.0</ele><time>2026-05-03T12:04:28.998Z</time></trkpt><trkpt lat="44.2859717" lon="8.4332767"><ele>8.0</ele><time>2026-05-03T12:04:29.998Z</time></trkpt><trkpt lat="44.28603" lon="8.433225"><ele>7.999999999999999</ele><time>2026-05-03T12:04:30.998Z</time></trkpt><trkpt lat="44.2861133" lon="8.4331217"><ele>8.0</ele><time>2026-05-03T12:04:32.998Z</time></trkpt><trkpt lat="44.286125" lon="8.43298"><ele>7.999999999999999</ele><time>2026-05-03T12:04:34.998Z</time></trkpt><trkpt lat="44.2860817" lon="8.432915"><ele>8.0</ele><time>2026-05-03T12:04:35.998Z</time></trkpt><trkpt lat="44.2860183" lon="8.432855"><ele>8.0</ele><time>2026-05-03T12:04:36.998Z</time></trkpt><trkpt lat="44.28595" lon="8.432785"><ele>8.0</ele><time>2026-05-03T12:04:37.998Z</time></trkpt><trkpt lat="44.2858883" lon="8.432705"><ele>7.999999999999999</ele><time>2026-05-03T12:04:38.998Z</time></trkpt><trkpt lat="44.2858267" lon="8.4326267"><ele>8.0</ele><time>2026-05-03T12:04:39.999Z</time></trkpt><trkpt lat="44.2857767" lon="8.4325583"><ele>8.0</ele><time>2026-05-03T12:04:40.999Z</time></trkpt><trkpt lat="44.285695" lon="8.4324617"><ele>8.0</ele><time>2026-05-03T12:04:42.999Z</time></trkpt><trkpt lat="44.285605" lon="8.4324567"><ele>8.0</ele><time>2026-05-03T12:04:44.999Z</time></trkpt><trkpt lat="44.2854933" lon="8.43258"><ele>8.0</ele><time>2026-05-03T12:04:46.998Z</time></trkpt><trkpt lat="44.2854283" lon="8.432665"><ele>8.0</ele><time>2026-05-03T12:04:47.998Z</time></trkpt><trkpt lat="44.2853467" lon="8.43277"><ele>8.0</ele><time>2026-05-03T12:04:48.999Z</time></trkpt><trkpt lat="44.2852633" lon="8.4328733"><ele>8.0</ele><time>2026-05-03T12:04:49.998Z</time></trkpt><trkpt lat="44.285175" lon="8.432985"><ele>8.0</ele><time>2026-05-03T12:04:50.999Z</time></trkpt><trkpt lat="44.2850917" lon="8.4331067"><ele>8.0</ele><time>2026-05-03T12:04:51.998Z</time></trkpt><trkpt lat="44.285005" lon="8.4332267"><ele>8.0</ele><time>2026-05-03T12:04:52.998Z</time></trkpt><trkpt lat="44.284915" lon="8.4333533"><ele>8.0</ele><time>2026-05-03T12:04:53.998Z</time></trkpt><trkpt lat="44.28483" lon="8.4334817"><ele>8.0</ele><time>2026-05-03T12:04:54.999Z</time></trkpt><trkpt lat="44.284735" lon="8.4336117"><ele>8.0</ele><time>2026-05-03T12:04:55.999Z</time></trkpt><trkpt lat="44.2846467" lon="8.4337367"><ele>7.5</ele><time>2026-05-03T12:04:56.998Z</time></trkpt><trkpt lat="44.2845517" lon="8.43386"><ele>7.0</ele><time>2026-05-03T12:04:57.998Z</time></trkpt><trkpt lat="44.2844383" lon="8.4340117"><ele>6.5</ele><time>2026-05-03T12:04:58.999Z</time></trkpt><trkpt lat="44.2843467" lon="8.43415"><ele>6.0</ele><time>2026-05-03T12:04:59.998Z</time></trkpt><trkpt lat="44.2842533" lon="8.434265"><ele>6.0</ele><time>2026-05-03T12:05:00.998Z</time></trkpt><trkpt lat="44.2841817" lon="8.4343867"><ele>6.0</ele><time>2026-05-03T12:05:01.998Z</time></trkpt><trkpt lat="44.2841083" lon="8.4344917"><ele>6.0</ele><time>2026-05-03T12:05:02.998Z</time></trkpt><trkpt lat="44.28404" lon="8.4346033"><ele>6.0</ele><time>2026-05-03T12:05:03.999Z</time></trkpt><trkpt lat="44.2839717" lon="8.434705"><ele>6.0</ele><time>2026-05-03T12:05:04.999Z</time></trkpt><trkpt lat="44.2839117" lon="8.4348"><ele>6.166666666666667</ele><time>2026-05-03T12:05:05.998Z</time></trkpt><trkpt lat="44.2838667" lon="8.4348867"><ele>6.333333333333334</ele><time>2026-05-03T12:05:06.998Z</time></trkpt><trkpt lat="44.2838183" lon="8.4349533"><ele>6.5</ele><time>2026-05-03T12:05:07.999Z</time></trkpt><trkpt lat="44.28375" lon="8.435005"><ele>6.666666666666667</ele><time>2026-05-03T12:05:09.999Z</time></trkpt><trkpt lat="44.2836683" lon="8.43493"><ele>6.833333333333334</ele><time>2026-05-03T12:05:11.998Z</time></trkpt><trkpt lat="44.2836267" lon="8.43485"><ele>7.0</ele><time>2026-05-03T12:05:12.998Z</time></trkpt><trkpt lat="44.2835917" lon="8.4347583"><ele>6.8</ele><time>2026-05-03T12:05:13.999Z</time></trkpt><trkpt lat="44.2835583" lon="8.434635"><ele>6.6</ele><time>2026-05-03T12:05:14.998Z</time></trkpt><trkpt lat="44.2835117" lon="8.4345067"><ele>6.3999999999999995</ele><time>2026-05-03T12:05:15.999Z</time></trkpt><trkpt lat="44.283475" lon="8.4343767"><ele>6.199999999999999</ele><time>2026-05-03T12:05:16.998Z</time></trkpt><trkpt lat="44.283435" lon="8.434265"><ele>6.0</ele><time>2026-05-03T12:05:17.998Z</time></trkpt><trkpt lat="44.28339" lon="8.4341567"><ele>6.0</ele><time>2026-05-03T12:05:18.998Z</time></trkpt><trkpt lat="44.2833383" lon="8.43406"><ele>6.0</ele><time>2026-05-03T12:05:19.999Z</time></trkpt><trkpt lat="44.2832733" lon="8.433935"><ele>6.0</ele><time>2026-05-03T12:05:20.998Z</time></trkpt><trkpt lat="44.2832067" lon="8.433835"><ele>6.0</ele><time>2026-05-03T12:05:21.998Z</time></trkpt><trkpt lat="44.2831283" lon="8.43374"><ele>6.0</ele><time>2026-05-03T12:05:22.999Z</time></trkpt><trkpt lat="44.2830533" lon="8.4336583"><ele>6.333333333333333</ele><time>2026-05-03T12:05:23.999Z</time></trkpt><trkpt lat="44.2829833" lon="8.433575"><ele>6.666666666666666</ele><time>2026-05-03T12:05:24.998Z</time></trkpt><trkpt lat="44.2829183" lon="8.433505"><ele>7.0</ele><time>2026-05-03T12:05:25.999Z</time></trkpt><trkpt lat="44.2828583" lon="8.4334433"><ele>7.333333333333333</ele><time>2026-05-03T12:05:26.998Z</time></trkpt><trkpt lat="44.2828033" lon="8.4333917"><ele>7.666666666666666</ele><time>2026-05-03T12:05:27.998Z</time></trkpt><trkpt lat="44.2827267" lon="8.43331"><ele>8.0</ele><time>2026-05-03T12:05:29.998Z</time></trkpt><trkpt lat="44.28266" lon="8.433305"><ele>8.0</ele><time>2026-05-03T12:05:31.998Z</time></trkpt><trkpt lat="44.28259" lon="8.43335"><ele>8.0</ele><time>2026-05-03T12:05:33.998Z</time></trkpt><trkpt lat="44.282505" lon="8.433405"><ele>8.0</ele><time>2026-05-03T12:05:35.998Z</time></trkpt><trkpt lat="44.2824433" lon="8.433455"><ele>8.0</ele><time>2026-05-03T12:05:37.998Z</time></trkpt><trkpt lat="44.2824017" lon="8.4335767"><ele>8.0</ele><time>2026-05-03T12:06:38.998Z</time></trkpt><trkpt lat="44.28248" lon="8.433615"><ele>8.0</ele><time>2026-05-03T12:06:42.999Z</time></trkpt></trkseg></trk></gpx>